<?xml version="1.0" encoding="UTF-8" standalone="no" ?>
<gpx xmlns="http://www.topografix.com/GPX/1/1" xmlns:xsi="http://www.w3.org/2001/XMLSchema-instance" xsi:schemaLocation="http://www.topografix.com/GPX/1/1 http://www.topografix.com/GPX/1/1/gpx.xsd" version="1.1" creator="VisuGPX - https://www.visugpx.com">
  <metadata>
    <name>aiz poi</name>
    <desc><![CDATA[





























































































































































]]></desc>
  </metadata>
  <trk>
    <name><![CDATA[aiz poi_1]]></name>
    <desc><![CDATA[





























































































































































































































































































































]]></desc>
    <trkseg>
      <trkpt lat="46.7346" lon="-1.608">
        <ele>56.6</ele>
        <time>2024-04-25T17:01:47Z</time>
      </trkpt>
      <trkpt lat="46.7346" lon="-1.608">
        <ele>56.6</ele>
        <time>2024-04-25T17:01:48Z</time>
      </trkpt>
      <trkpt lat="46.7346" lon="-1.60801">
        <ele>56.6</ele>
        <time>2024-04-25T17:01:49Z</time>
      </trkpt>
      <trkpt lat="46.73459" lon="-1.608">
        <ele>56.6</ele>
        <time>2024-04-25T17:01:50Z</time>
      </trkpt>
      <trkpt lat="46.73459" lon="-1.608">
        <ele>56.6</ele>
        <time>2024-04-25T17:01:51Z</time>
      </trkpt>
      <trkpt lat="46.73459" lon="-1.608">
        <ele>56.6</ele>
        <time>2024-04-25T17:01:52Z</time>
      </trkpt>
      <trkpt lat="46.73459" lon="-1.608">
        <ele>56.6</ele>
        <time>2024-04-25T17:01:53Z</time>
      </trkpt>
      <trkpt lat="46.73459" lon="-1.608">
        <ele>56.6</ele>
        <time>2024-04-25T17:01:54Z</time>
      </trkpt>
      <trkpt lat="46.73459" lon="-1.608">
        <ele>56.6</ele>
        <time>2024-04-25T17:01:55Z</time>
      </trkpt>
      <trkpt lat="46.73459" lon="-1.608">
        <ele>56.6</ele>
        <time>2024-04-25T17:01:56Z</time>
      </trkpt>
      <trkpt lat="46.73459" lon="-1.608">
        <ele>56.6</ele>
        <time>2024-04-25T17:01:57Z</time>
      </trkpt>
      <trkpt lat="46.73459" lon="-1.608">
        <ele>56.6</ele>
        <time>2024-04-25T17:01:58Z</time>
      </trkpt>
      <trkpt lat="46.73459" lon="-1.608">
        <ele>56.6</ele>
        <time>2024-04-25T17:01:59Z</time>
      </trkpt>
      <trkpt lat="46.73459" lon="-1.60801">
        <ele>56.6</ele>
        <time>2024-04-25T17:02:00Z</time>
      </trkpt>
      <trkpt lat="46.73459" lon="-1.60801">
        <ele>56.6</ele>
        <time>2024-04-25T17:02:01Z</time>
      </trkpt>
      <trkpt lat="46.73459" lon="-1.608">
        <ele>56.6</ele>
        <time>2024-04-25T17:02:02Z</time>
      </trkpt>
      <trkpt lat="46.73458" lon="-1.608">
        <ele>56.6</ele>
        <time>2024-04-25T17:02:03Z</time>
      </trkpt>
      <trkpt lat="46.73458" lon="-1.60799">
        <ele>56.4</ele>
        <time>2024-04-25T17:02:04Z</time>
      </trkpt>
      <trkpt lat="46.73456" lon="-1.60799">
        <ele>56.4</ele>
        <time>2024-04-25T17:02:05Z</time>
      </trkpt>
      <trkpt lat="46.73455" lon="-1.608">
        <ele>56.4</ele>
        <time>2024-04-25T17:02:06Z</time>
      </trkpt>
      <trkpt lat="46.73453" lon="-1.60801">
        <ele>56.4</ele>
        <time>2024-04-25T17:02:07Z</time>
      </trkpt>
      <trkpt lat="46.73451" lon="-1.60803">
        <ele>56.4</ele>
        <time>2024-04-25T17:02:08Z</time>
      </trkpt>
      <trkpt lat="46.7345" lon="-1.60805">
        <ele>56.4</ele>
        <time>2024-04-25T17:02:09Z</time>
      </trkpt>
      <trkpt lat="46.73448" lon="-1.60806">
        <ele>56.4</ele>
        <time>2024-04-25T17:02:10Z</time>
      </trkpt>
      <trkpt lat="46.73445" lon="-1.60808">
        <ele>56.2</ele>
        <time>2024-04-25T17:02:11Z</time>
      </trkpt>
      <trkpt lat="46.73443" lon="-1.60809">
        <ele>56.2</ele>
        <time>2024-04-25T17:02:12Z</time>
      </trkpt>
      <trkpt lat="46.7344" lon="-1.6081">
        <ele>56.2</ele>
        <time>2024-04-25T17:02:13Z</time>
      </trkpt>
      <trkpt lat="46.73437" lon="-1.60812">
        <ele>56</ele>
        <time>2024-04-25T17:02:14Z</time>
      </trkpt>
      <trkpt lat="46.73435" lon="-1.60812">
        <ele>55.8</ele>
        <time>2024-04-25T17:02:15Z</time>
      </trkpt>
      <trkpt lat="46.73431" lon="-1.60811">
        <ele>55.8</ele>
        <time>2024-04-25T17:02:17Z</time>
      </trkpt>
      <trkpt lat="46.7343" lon="-1.6081">
        <ele>55.8</ele>
        <time>2024-04-25T17:02:18Z</time>
      </trkpt>
      <trkpt lat="46.73428" lon="-1.60805">
        <ele>55.6</ele>
        <time>2024-04-25T17:02:19Z</time>
      </trkpt>
      <trkpt lat="46.73427" lon="-1.60803">
        <ele>55.6</ele>
        <time>2024-04-25T17:02:20Z</time>
      </trkpt>
      <trkpt lat="46.73426" lon="-1.60799">
        <ele>55.6</ele>
        <time>2024-04-25T17:02:21Z</time>
      </trkpt>
      <trkpt lat="46.73424" lon="-1.60792">
        <ele>55.4</ele>
        <time>2024-04-25T17:02:22Z</time>
      </trkpt>
      <trkpt lat="46.73423" lon="-1.6079">
        <ele>55.4</ele>
        <time>2024-04-25T17:02:23Z</time>
      </trkpt>
      <trkpt lat="46.73422" lon="-1.60785">
        <ele>55.4</ele>
        <time>2024-04-25T17:02:24Z</time>
      </trkpt>
      <trkpt lat="46.73421" lon="-1.60781">
        <ele>55.4</ele>
        <time>2024-04-25T17:02:25Z</time>
      </trkpt>
      <trkpt lat="46.7342" lon="-1.60777">
        <ele>55.4</ele>
        <time>2024-04-25T17:02:26Z</time>
      </trkpt>
      <trkpt lat="46.73419" lon="-1.60772">
        <ele>55.2</ele>
        <time>2024-04-25T17:02:27Z</time>
      </trkpt>
      <trkpt lat="46.73417" lon="-1.60767">
        <ele>55.4</ele>
        <time>2024-04-25T17:02:28Z</time>
      </trkpt>
      <trkpt lat="46.73416" lon="-1.60763">
        <ele>55.4</ele>
        <time>2024-04-25T17:02:29Z</time>
      </trkpt>
      <trkpt lat="46.73414" lon="-1.60758">
        <ele>55.4</ele>
        <time>2024-04-25T17:02:30Z</time>
      </trkpt>
      <trkpt lat="46.73413" lon="-1.60754">
        <ele>55.4</ele>
        <time>2024-04-25T17:02:31Z</time>
      </trkpt>
      <trkpt lat="46.73411" lon="-1.60749">
        <ele>55.4</ele>
        <time>2024-04-25T17:02:32Z</time>
      </trkpt>
      <trkpt lat="46.7341" lon="-1.60745">
        <ele>55.6</ele>
        <time>2024-04-25T17:02:33Z</time>
      </trkpt>
      <trkpt lat="46.73409" lon="-1.6074">
        <ele>55.6</ele>
        <time>2024-04-25T17:02:34Z</time>
      </trkpt>
      <trkpt lat="46.73408" lon="-1.60735">
        <ele>55.6</ele>
        <time>2024-04-25T17:02:35Z</time>
      </trkpt>
      <trkpt lat="46.73407" lon="-1.60731">
        <ele>55.8</ele>
        <time>2024-04-25T17:02:36Z</time>
      </trkpt>
      <trkpt lat="46.73406" lon="-1.60726">
        <ele>55.8</ele>
        <time>2024-04-25T17:02:37Z</time>
      </trkpt>
      <trkpt lat="46.73405" lon="-1.60721">
        <ele>55.8</ele>
        <time>2024-04-25T17:02:38Z</time>
      </trkpt>
      <trkpt lat="46.73405" lon="-1.60715">
        <ele>56</ele>
        <time>2024-04-25T17:02:39Z</time>
      </trkpt>
      <trkpt lat="46.73404" lon="-1.6071">
        <ele>56</ele>
        <time>2024-04-25T17:02:40Z</time>
      </trkpt>
      <trkpt lat="46.73404" lon="-1.60705">
        <ele>56.2</ele>
        <time>2024-04-25T17:02:41Z</time>
      </trkpt>
      <trkpt lat="46.73404" lon="-1.607">
        <ele>56.2</ele>
        <time>2024-04-25T17:02:42Z</time>
      </trkpt>
      <trkpt lat="46.73404" lon="-1.60695">
        <ele>56.4</ele>
        <time>2024-04-25T17:02:43Z</time>
      </trkpt>
      <trkpt lat="46.73403" lon="-1.6069">
        <ele>56.4</ele>
        <time>2024-04-25T17:02:44Z</time>
      </trkpt>
      <trkpt lat="46.73403" lon="-1.60685">
        <ele>56.6</ele>
        <time>2024-04-25T17:02:45Z</time>
      </trkpt>
      <trkpt lat="46.73403" lon="-1.6068">
        <ele>56.6</ele>
        <time>2024-04-25T17:02:46Z</time>
      </trkpt>
      <trkpt lat="46.73403" lon="-1.60676">
        <ele>56.6</ele>
        <time>2024-04-25T17:02:47Z</time>
      </trkpt>
      <trkpt lat="46.73403" lon="-1.60671">
        <ele>56.8</ele>
        <time>2024-04-25T17:02:48Z</time>
      </trkpt>
      <trkpt lat="46.73403" lon="-1.60665">
        <ele>56.8</ele>
        <time>2024-04-25T17:02:49Z</time>
      </trkpt>
      <trkpt lat="46.73402" lon="-1.6066">
        <ele>56.8</ele>
        <time>2024-04-25T17:02:50Z</time>
      </trkpt>
      <trkpt lat="46.73402" lon="-1.60655">
        <ele>57</ele>
        <time>2024-04-25T17:02:51Z</time>
      </trkpt>
      <trkpt lat="46.73401" lon="-1.60647">
        <ele>57</ele>
        <time>2024-04-25T17:02:52Z</time>
      </trkpt>
      <trkpt lat="46.73401" lon="-1.60645">
        <ele>57.2</ele>
        <time>2024-04-25T17:02:53Z</time>
      </trkpt>
      <trkpt lat="46.73401" lon="-1.6064">
        <ele>57.2</ele>
        <time>2024-04-25T17:02:54Z</time>
      </trkpt>
      <trkpt lat="46.734" lon="-1.60635">
        <ele>57.4</ele>
        <time>2024-04-25T17:02:55Z</time>
      </trkpt>
      <trkpt lat="46.73399" lon="-1.6063">
        <ele>57.4</ele>
        <time>2024-04-25T17:02:56Z</time>
      </trkpt>
      <trkpt lat="46.73398" lon="-1.60627">
        <ele>57.4</ele>
        <time>2024-04-25T17:02:57Z</time>
      </trkpt>
      <trkpt lat="46.73396" lon="-1.60624">
        <ele>57.4</ele>
        <time>2024-04-25T17:02:58Z</time>
      </trkpt>
      <trkpt lat="46.73393" lon="-1.60622">
        <ele>57.2</ele>
        <time>2024-04-25T17:02:59Z</time>
      </trkpt>
      <trkpt lat="46.73389" lon="-1.6062">
        <ele>57</ele>
        <time>2024-04-25T17:03:00Z</time>
      </trkpt>
      <trkpt lat="46.73386" lon="-1.60619">
        <ele>57</ele>
        <time>2024-04-25T17:03:01Z</time>
      </trkpt>
      <trkpt lat="46.73381" lon="-1.60619">
        <ele>56.6</ele>
        <time>2024-04-25T17:03:02Z</time>
      </trkpt>
      <trkpt lat="46.73377" lon="-1.60619">
        <ele>56.4</ele>
        <time>2024-04-25T17:03:03Z</time>
      </trkpt>
      <trkpt lat="46.73372" lon="-1.6062">
        <ele>56</ele>
        <time>2024-04-25T17:03:04Z</time>
      </trkpt>
      <trkpt lat="46.73366" lon="-1.6062">
        <ele>55.6</ele>
        <time>2024-04-25T17:03:05Z</time>
      </trkpt>
      <trkpt lat="46.7336" lon="-1.6062">
        <ele>55</ele>
        <time>2024-04-25T17:03:06Z</time>
      </trkpt>
      <trkpt lat="46.73354" lon="-1.60621">
        <ele>54.6</ele>
        <time>2024-04-25T17:03:07Z</time>
      </trkpt>
      <trkpt lat="46.73348" lon="-1.60622">
        <ele>53.8</ele>
        <time>2024-04-25T17:03:08Z</time>
      </trkpt>
      <trkpt lat="46.73341" lon="-1.60624">
        <ele>53.4</ele>
        <time>2024-04-25T17:03:09Z</time>
      </trkpt>
      <trkpt lat="46.73334" lon="-1.60626">
        <ele>52.6</ele>
        <time>2024-04-25T17:03:10Z</time>
      </trkpt>
      <trkpt lat="46.73326" lon="-1.60627">
        <ele>52</ele>
        <time>2024-04-25T17:03:11Z</time>
      </trkpt>
      <trkpt lat="46.73319" lon="-1.60627">
        <ele>51.4</ele>
        <time>2024-04-25T17:03:12Z</time>
      </trkpt>
      <trkpt lat="46.73312" lon="-1.60627">
        <ele>50.8</ele>
        <time>2024-04-25T17:03:13Z</time>
      </trkpt>
      <trkpt lat="46.73305" lon="-1.60626">
        <ele>50.6</ele>
        <time>2024-04-25T17:03:14Z</time>
      </trkpt>
      <trkpt lat="46.733" lon="-1.60625">
        <ele>50.4</ele>
        <time>2024-04-25T17:03:15Z</time>
      </trkpt>
      <trkpt lat="46.73294" lon="-1.60624">
        <ele>50.6</ele>
        <time>2024-04-25T17:03:16Z</time>
      </trkpt>
      <trkpt lat="46.73289" lon="-1.60623">
        <ele>50.6</ele>
        <time>2024-04-25T17:03:17Z</time>
      </trkpt>
      <trkpt lat="46.73284" lon="-1.60621">
        <ele>50.8</ele>
        <time>2024-04-25T17:03:18Z</time>
      </trkpt>
      <trkpt lat="46.73279" lon="-1.6062">
        <ele>51</ele>
        <time>2024-04-25T17:03:19Z</time>
      </trkpt>
      <trkpt lat="46.73274" lon="-1.60618">
        <ele>51.2</ele>
        <time>2024-04-25T17:03:20Z</time>
      </trkpt>
      <trkpt lat="46.73269" lon="-1.60616">
        <ele>51.4</ele>
        <time>2024-04-25T17:03:21Z</time>
      </trkpt>
      <trkpt lat="46.73265" lon="-1.60615">
        <ele>51.8</ele>
        <time>2024-04-25T17:03:22Z</time>
      </trkpt>
      <trkpt lat="46.7326" lon="-1.60614">
        <ele>52</ele>
        <time>2024-04-25T17:03:23Z</time>
      </trkpt>
      <trkpt lat="46.73255" lon="-1.60612">
        <ele>52.4</ele>
        <time>2024-04-25T17:03:24Z</time>
      </trkpt>
      <trkpt lat="46.73252" lon="-1.60609">
        <ele>53</ele>
        <time>2024-04-25T17:03:25Z</time>
      </trkpt>
      <trkpt lat="46.73251" lon="-1.60605">
        <ele>53.4</ele>
        <time>2024-04-25T17:03:26Z</time>
      </trkpt>
      <trkpt lat="46.7325" lon="-1.606">
        <ele>54.2</ele>
        <time>2024-04-25T17:03:27Z</time>
      </trkpt>
      <trkpt lat="46.7325" lon="-1.60596">
        <ele>54.8</ele>
        <time>2024-04-25T17:03:28Z</time>
      </trkpt>
      <trkpt lat="46.73251" lon="-1.60592">
        <ele>55.4</ele>
        <time>2024-04-25T17:03:29Z</time>
      </trkpt>
      <trkpt lat="46.73251" lon="-1.60588">
        <ele>56</ele>
        <time>2024-04-25T17:03:30Z</time>
      </trkpt>
      <trkpt lat="46.73251" lon="-1.60585">
        <ele>56.4</ele>
        <time>2024-04-25T17:03:31Z</time>
      </trkpt>
      <trkpt lat="46.7325" lon="-1.60584">
        <ele>56.8</ele>
        <time>2024-04-25T17:03:32Z</time>
      </trkpt>
      <trkpt lat="46.73248" lon="-1.60582">
        <ele>57</ele>
        <time>2024-04-25T17:03:33Z</time>
      </trkpt>
      <trkpt lat="46.73247" lon="-1.6058">
        <ele>57.2</ele>
        <time>2024-04-25T17:03:34Z</time>
      </trkpt>
      <trkpt lat="46.73246" lon="-1.60577">
        <ele>57.4</ele>
        <time>2024-04-25T17:03:35Z</time>
      </trkpt>
      <trkpt lat="46.73245" lon="-1.60574">
        <ele>57.6</ele>
        <time>2024-04-25T17:03:36Z</time>
      </trkpt>
      <trkpt lat="46.73245" lon="-1.6057">
        <ele>57.6</ele>
        <time>2024-04-25T17:03:37Z</time>
      </trkpt>
      <trkpt lat="46.73244" lon="-1.60566">
        <ele>57.8</ele>
        <time>2024-04-25T17:03:38Z</time>
      </trkpt>
      <trkpt lat="46.73243" lon="-1.60562">
        <ele>57.8</ele>
        <time>2024-04-25T17:03:39Z</time>
      </trkpt>
      <trkpt lat="46.73243" lon="-1.60557">
        <ele>57.8</ele>
        <time>2024-04-25T17:03:40Z</time>
      </trkpt>
      <trkpt lat="46.73242" lon="-1.60553">
        <ele>57.8</ele>
        <time>2024-04-25T17:03:41Z</time>
      </trkpt>
      <trkpt lat="46.73242" lon="-1.60548">
        <ele>57.8</ele>
        <time>2024-04-25T17:03:42Z</time>
      </trkpt>
      <trkpt lat="46.73241" lon="-1.60543">
        <ele>57.8</ele>
        <time>2024-04-25T17:03:43Z</time>
      </trkpt>
      <trkpt lat="46.73241" lon="-1.60536">
        <ele>57.8</ele>
        <time>2024-04-25T17:03:44Z</time>
      </trkpt>
      <trkpt lat="46.73241" lon="-1.6053">
        <ele>57.8</ele>
        <time>2024-04-25T17:03:45Z</time>
      </trkpt>
      <trkpt lat="46.73241" lon="-1.60525">
        <ele>57.8</ele>
        <time>2024-04-25T17:03:46Z</time>
      </trkpt>
      <trkpt lat="46.73241" lon="-1.60519">
        <ele>57.8</ele>
        <time>2024-04-25T17:03:47Z</time>
      </trkpt>
      <trkpt lat="46.73241" lon="-1.60515">
        <ele>58</ele>
        <time>2024-04-25T17:03:48Z</time>
      </trkpt>
      <trkpt lat="46.73241" lon="-1.6051">
        <ele>58</ele>
        <time>2024-04-25T17:03:49Z</time>
      </trkpt>
      <trkpt lat="46.73241" lon="-1.60506">
        <ele>58.2</ele>
        <time>2024-04-25T17:03:50Z</time>
      </trkpt>
      <trkpt lat="46.73242" lon="-1.60501">
        <ele>58.4</ele>
        <time>2024-04-25T17:03:51Z</time>
      </trkpt>
      <trkpt lat="46.73242" lon="-1.60497">
        <ele>58.6</ele>
        <time>2024-04-25T17:03:52Z</time>
      </trkpt>
      <trkpt lat="46.73243" lon="-1.6049">
        <ele>58.8</ele>
        <time>2024-04-25T17:03:53Z</time>
      </trkpt>
      <trkpt lat="46.73243" lon="-1.60488">
        <ele>59</ele>
        <time>2024-04-25T17:03:54Z</time>
      </trkpt>
      <trkpt lat="46.73243" lon="-1.60483">
        <ele>59.4</ele>
        <time>2024-04-25T17:03:55Z</time>
      </trkpt>
      <trkpt lat="46.73243" lon="-1.60476">
        <ele>59.6</ele>
        <time>2024-04-25T17:03:56Z</time>
      </trkpt>
      <trkpt lat="46.73243" lon="-1.60473">
        <ele>59.8</ele>
        <time>2024-04-25T17:03:57Z</time>
      </trkpt>
      <trkpt lat="46.73242" lon="-1.60468">
        <ele>60</ele>
        <time>2024-04-25T17:03:58Z</time>
      </trkpt>
      <trkpt lat="46.73242" lon="-1.60462">
        <ele>60</ele>
        <time>2024-04-25T17:03:59Z</time>
      </trkpt>
      <trkpt lat="46.73241" lon="-1.60457">
        <ele>60.2</ele>
        <time>2024-04-25T17:04:00Z</time>
      </trkpt>
      <trkpt lat="46.73241" lon="-1.60452">
        <ele>60.4</ele>
        <time>2024-04-25T17:04:01Z</time>
      </trkpt>
      <trkpt lat="46.7324" lon="-1.60447">
        <ele>60.4</ele>
        <time>2024-04-25T17:04:02Z</time>
      </trkpt>
      <trkpt lat="46.7324" lon="-1.60441">
        <ele>60.6</ele>
        <time>2024-04-25T17:04:03Z</time>
      </trkpt>
      <trkpt lat="46.7324" lon="-1.60436">
        <ele>60.6</ele>
        <time>2024-04-25T17:04:04Z</time>
      </trkpt>
      <trkpt lat="46.7324" lon="-1.60431">
        <ele>60.4</ele>
        <time>2024-04-25T17:04:05Z</time>
      </trkpt>
      <trkpt lat="46.73241" lon="-1.60425">
        <ele>60.4</ele>
        <time>2024-04-25T17:04:06Z</time>
      </trkpt>
      <trkpt lat="46.73242" lon="-1.60419">
        <ele>60.2</ele>
        <time>2024-04-25T17:04:07Z</time>
      </trkpt>
      <trkpt lat="46.73243" lon="-1.60412">
        <ele>60</ele>
        <time>2024-04-25T17:04:08Z</time>
      </trkpt>
      <trkpt lat="46.73243" lon="-1.60405">
        <ele>59.8</ele>
        <time>2024-04-25T17:04:09Z</time>
      </trkpt>
      <trkpt lat="46.73243" lon="-1.60396">
        <ele>59.4</ele>
        <time>2024-04-25T17:04:11Z</time>
      </trkpt>
      <trkpt lat="46.73243" lon="-1.60383">
        <ele>59</ele>
        <time>2024-04-25T17:04:12Z</time>
      </trkpt>
      <trkpt lat="46.73243" lon="-1.60378">
        <ele>58.8</ele>
        <time>2024-04-25T17:04:13Z</time>
      </trkpt>
      <trkpt lat="46.73244" lon="-1.60369">
        <ele>58.6</ele>
        <time>2024-04-25T17:04:14Z</time>
      </trkpt>
      <trkpt lat="46.73244" lon="-1.6036">
        <ele>58.4</ele>
        <time>2024-04-25T17:04:15Z</time>
      </trkpt>
      <trkpt lat="46.73245" lon="-1.60351">
        <ele>58.2</ele>
        <time>2024-04-25T17:04:16Z</time>
      </trkpt>
      <trkpt lat="46.73246" lon="-1.60342">
        <ele>58</ele>
        <time>2024-04-25T17:04:17Z</time>
      </trkpt>
      <trkpt lat="46.73247" lon="-1.60334">
        <ele>57.8</ele>
        <time>2024-04-25T17:04:18Z</time>
      </trkpt>
      <trkpt lat="46.73247" lon="-1.60326">
        <ele>57.8</ele>
        <time>2024-04-25T17:04:19Z</time>
      </trkpt>
      <trkpt lat="46.73247" lon="-1.60318">
        <ele>57.8</ele>
        <time>2024-04-25T17:04:20Z</time>
      </trkpt>
      <trkpt lat="46.73247" lon="-1.60311">
        <ele>57.8</ele>
        <time>2024-04-25T17:04:21Z</time>
      </trkpt>
      <trkpt lat="46.73247" lon="-1.60304">
        <ele>57.8</ele>
        <time>2024-04-25T17:04:22Z</time>
      </trkpt>
      <trkpt lat="46.73247" lon="-1.60297">
        <ele>58</ele>
        <time>2024-04-25T17:04:23Z</time>
      </trkpt>
      <trkpt lat="46.73248" lon="-1.60291">
        <ele>58.2</ele>
        <time>2024-04-25T17:04:24Z</time>
      </trkpt>
      <trkpt lat="46.73248" lon="-1.60285">
        <ele>58.2</ele>
        <time>2024-04-25T17:04:25Z</time>
      </trkpt>
      <trkpt lat="46.73249" lon="-1.60279">
        <ele>58.4</ele>
        <time>2024-04-25T17:04:26Z</time>
      </trkpt>
      <trkpt lat="46.73249" lon="-1.60273">
        <ele>58.6</ele>
        <time>2024-04-25T17:04:27Z</time>
      </trkpt>
      <trkpt lat="46.7325" lon="-1.60263">
        <ele>58.6</ele>
        <time>2024-04-25T17:04:28Z</time>
      </trkpt>
      <trkpt lat="46.7325" lon="-1.6026">
        <ele>58.8</ele>
        <time>2024-04-25T17:04:29Z</time>
      </trkpt>
      <trkpt lat="46.7325" lon="-1.60254">
        <ele>58.8</ele>
        <time>2024-04-25T17:04:30Z</time>
      </trkpt>
      <trkpt lat="46.7325" lon="-1.60248">
        <ele>59</ele>
        <time>2024-04-25T17:04:31Z</time>
      </trkpt>
      <trkpt lat="46.73249" lon="-1.60242">
        <ele>59.2</ele>
        <time>2024-04-25T17:04:32Z</time>
      </trkpt>
      <trkpt lat="46.73248" lon="-1.60236">
        <ele>59.2</ele>
        <time>2024-04-25T17:04:33Z</time>
      </trkpt>
      <trkpt lat="46.73247" lon="-1.6023">
        <ele>59.4</ele>
        <time>2024-04-25T17:04:34Z</time>
      </trkpt>
      <trkpt lat="46.73247" lon="-1.60225">
        <ele>59.6</ele>
        <time>2024-04-25T17:04:35Z</time>
      </trkpt>
      <trkpt lat="46.73246" lon="-1.60219">
        <ele>59.8</ele>
        <time>2024-04-25T17:04:36Z</time>
      </trkpt>
      <trkpt lat="46.73245" lon="-1.60214">
        <ele>59.8</ele>
        <time>2024-04-25T17:04:37Z</time>
      </trkpt>
      <trkpt lat="46.73244" lon="-1.60208">
        <ele>60</ele>
        <time>2024-04-25T17:04:38Z</time>
      </trkpt>
      <trkpt lat="46.73244" lon="-1.60203">
        <ele>60</ele>
        <time>2024-04-25T17:04:39Z</time>
      </trkpt>
      <trkpt lat="46.73244" lon="-1.60198">
        <ele>60</ele>
        <time>2024-04-25T17:04:40Z</time>
      </trkpt>
      <trkpt lat="46.73244" lon="-1.60192">
        <ele>59.8</ele>
        <time>2024-04-25T17:04:41Z</time>
      </trkpt>
      <trkpt lat="46.73245" lon="-1.60186">
        <ele>59.8</ele>
        <time>2024-04-25T17:04:42Z</time>
      </trkpt>
      <trkpt lat="46.73245" lon="-1.60179">
        <ele>59.8</ele>
        <time>2024-04-25T17:04:43Z</time>
      </trkpt>
      <trkpt lat="46.73244" lon="-1.60172">
        <ele>59.8</ele>
        <time>2024-04-25T17:04:44Z</time>
      </trkpt>
      <trkpt lat="46.73244" lon="-1.60165">
        <ele>59.8</ele>
        <time>2024-04-25T17:04:45Z</time>
      </trkpt>
      <trkpt lat="46.73243" lon="-1.60158">
        <ele>59.8</ele>
        <time>2024-04-25T17:04:46Z</time>
      </trkpt>
      <trkpt lat="46.73242" lon="-1.60152">
        <ele>59.8</ele>
        <time>2024-04-25T17:04:47Z</time>
      </trkpt>
      <trkpt lat="46.73241" lon="-1.60146">
        <ele>59.8</ele>
        <time>2024-04-25T17:04:48Z</time>
      </trkpt>
      <trkpt lat="46.73241" lon="-1.6014">
        <ele>59.8</ele>
        <time>2024-04-25T17:04:49Z</time>
      </trkpt>
      <trkpt lat="46.7324" lon="-1.60133">
        <ele>59.8</ele>
        <time>2024-04-25T17:04:50Z</time>
      </trkpt>
      <trkpt lat="46.7324" lon="-1.60127">
        <ele>60</ele>
        <time>2024-04-25T17:04:51Z</time>
      </trkpt>
      <trkpt lat="46.73239" lon="-1.60121">
        <ele>60</ele>
        <time>2024-04-25T17:04:52Z</time>
      </trkpt>
      <trkpt lat="46.73238" lon="-1.60116">
        <ele>60</ele>
        <time>2024-04-25T17:04:53Z</time>
      </trkpt>
      <trkpt lat="46.73238" lon="-1.60111">
        <ele>60.2</ele>
        <time>2024-04-25T17:04:54Z</time>
      </trkpt>
      <trkpt lat="46.73237" lon="-1.60105">
        <ele>60.2</ele>
        <time>2024-04-25T17:04:55Z</time>
      </trkpt>
      <trkpt lat="46.73237" lon="-1.601">
        <ele>60.4</ele>
        <time>2024-04-25T17:04:56Z</time>
      </trkpt>
      <trkpt lat="46.73237" lon="-1.60095">
        <ele>60.6</ele>
        <time>2024-04-25T17:04:57Z</time>
      </trkpt>
      <trkpt lat="46.73237" lon="-1.6009">
        <ele>60.6</ele>
        <time>2024-04-25T17:04:58Z</time>
      </trkpt>
      <trkpt lat="46.73237" lon="-1.60085">
        <ele>60.6</ele>
        <time>2024-04-25T17:04:59Z</time>
      </trkpt>
      <trkpt lat="46.73237" lon="-1.6008">
        <ele>60.8</ele>
        <time>2024-04-25T17:05:00Z</time>
      </trkpt>
      <trkpt lat="46.73237" lon="-1.60075">
        <ele>60.8</ele>
        <time>2024-04-25T17:05:01Z</time>
      </trkpt>
      <trkpt lat="46.73237" lon="-1.60069">
        <ele>60.8</ele>
        <time>2024-04-25T17:05:02Z</time>
      </trkpt>
      <trkpt lat="46.73237" lon="-1.60064">
        <ele>61</ele>
        <time>2024-04-25T17:05:03Z</time>
      </trkpt>
      <trkpt lat="46.73237" lon="-1.60059">
        <ele>61</ele>
        <time>2024-04-25T17:05:04Z</time>
      </trkpt>
      <trkpt lat="46.73237" lon="-1.60055">
        <ele>61</ele>
        <time>2024-04-25T17:05:05Z</time>
      </trkpt>
      <trkpt lat="46.73236" lon="-1.6005">
        <ele>61.2</ele>
        <time>2024-04-25T17:05:06Z</time>
      </trkpt>
      <trkpt lat="46.73236" lon="-1.60046">
        <ele>61.2</ele>
        <time>2024-04-25T17:05:07Z</time>
      </trkpt>
      <trkpt lat="46.73235" lon="-1.60041">
        <ele>61.2</ele>
        <time>2024-04-25T17:05:08Z</time>
      </trkpt>
      <trkpt lat="46.73235" lon="-1.60035">
        <ele>61.2</ele>
        <time>2024-04-25T17:05:09Z</time>
      </trkpt>
      <trkpt lat="46.73234" lon="-1.60029">
        <ele>61.4</ele>
        <time>2024-04-25T17:05:10Z</time>
      </trkpt>
      <trkpt lat="46.73234" lon="-1.60024">
        <ele>61.4</ele>
        <time>2024-04-25T17:05:11Z</time>
      </trkpt>
      <trkpt lat="46.73233" lon="-1.60018">
        <ele>61.6</ele>
        <time>2024-04-25T17:05:12Z</time>
      </trkpt>
      <trkpt lat="46.73233" lon="-1.60013">
        <ele>61.6</ele>
        <time>2024-04-25T17:05:13Z</time>
      </trkpt>
      <trkpt lat="46.73233" lon="-1.60006">
        <ele>61.8</ele>
        <time>2024-04-25T17:05:14Z</time>
      </trkpt>
      <trkpt lat="46.73233" lon="-1.60003">
        <ele>61.8</ele>
        <time>2024-04-25T17:05:15Z</time>
      </trkpt>
      <trkpt lat="46.73233" lon="-1.59999">
        <ele>62</ele>
        <time>2024-04-25T17:05:16Z</time>
      </trkpt>
      <trkpt lat="46.73232" lon="-1.59994">
        <ele>62.2</ele>
        <time>2024-04-25T17:05:17Z</time>
      </trkpt>
      <trkpt lat="46.73232" lon="-1.59989">
        <ele>62.2</ele>
        <time>2024-04-25T17:05:18Z</time>
      </trkpt>
      <trkpt lat="46.73231" lon="-1.59984">
        <ele>62.2</ele>
        <time>2024-04-25T17:05:19Z</time>
      </trkpt>
      <trkpt lat="46.73231" lon="-1.5998">
        <ele>62.4</ele>
        <time>2024-04-25T17:05:20Z</time>
      </trkpt>
      <trkpt lat="46.7323" lon="-1.59975">
        <ele>62.6</ele>
        <time>2024-04-25T17:05:21Z</time>
      </trkpt>
      <trkpt lat="46.73229" lon="-1.5997">
        <ele>62.6</ele>
        <time>2024-04-25T17:05:22Z</time>
      </trkpt>
      <trkpt lat="46.73228" lon="-1.59965">
        <ele>62.8</ele>
        <time>2024-04-25T17:05:23Z</time>
      </trkpt>
      <trkpt lat="46.73225" lon="-1.59961">
        <ele>63</ele>
        <time>2024-04-25T17:05:24Z</time>
      </trkpt>
      <trkpt lat="46.73223" lon="-1.59957">
        <ele>63</ele>
        <time>2024-04-25T17:05:25Z</time>
      </trkpt>
      <trkpt lat="46.7322" lon="-1.59953">
        <ele>63.2</ele>
        <time>2024-04-25T17:05:26Z</time>
      </trkpt>
      <trkpt lat="46.73217" lon="-1.5995">
        <ele>63.2</ele>
        <time>2024-04-25T17:05:27Z</time>
      </trkpt>
      <trkpt lat="46.73215" lon="-1.59946">
        <ele>63.2</ele>
        <time>2024-04-25T17:05:28Z</time>
      </trkpt>
      <trkpt lat="46.73212" lon="-1.59942">
        <ele>63.2</ele>
        <time>2024-04-25T17:05:29Z</time>
      </trkpt>
      <trkpt lat="46.7321" lon="-1.59938">
        <ele>63.2</ele>
        <time>2024-04-25T17:05:30Z</time>
      </trkpt>
      <trkpt lat="46.7321" lon="-1.59933">
        <ele>63.2</ele>
        <time>2024-04-25T17:05:31Z</time>
      </trkpt>
      <trkpt lat="46.7321" lon="-1.59928">
        <ele>63.2</ele>
        <time>2024-04-25T17:05:32Z</time>
      </trkpt>
      <trkpt lat="46.73211" lon="-1.59923">
        <ele>63.2</ele>
        <time>2024-04-25T17:05:33Z</time>
      </trkpt>
      <trkpt lat="46.73212" lon="-1.59918">
        <ele>63.2</ele>
        <time>2024-04-25T17:05:34Z</time>
      </trkpt>
      <trkpt lat="46.73214" lon="-1.59914">
        <ele>63.2</ele>
        <time>2024-04-25T17:05:35Z</time>
      </trkpt>
      <trkpt lat="46.73217" lon="-1.59912">
        <ele>63</ele>
        <time>2024-04-25T17:05:36Z</time>
      </trkpt>
      <trkpt lat="46.73221" lon="-1.5991">
        <ele>62.8</ele>
        <time>2024-04-25T17:05:37Z</time>
      </trkpt>
      <trkpt lat="46.73225" lon="-1.59911">
        <ele>62.8</ele>
        <time>2024-04-25T17:05:38Z</time>
      </trkpt>
      <trkpt lat="46.7323" lon="-1.59913">
        <ele>62.6</ele>
        <time>2024-04-25T17:05:39Z</time>
      </trkpt>
      <trkpt lat="46.73235" lon="-1.59918">
        <ele>62.4</ele>
        <time>2024-04-25T17:05:40Z</time>
      </trkpt>
      <trkpt lat="46.7324" lon="-1.59924">
        <ele>62.4</ele>
        <time>2024-04-25T17:05:41Z</time>
      </trkpt>
      <trkpt lat="46.73245" lon="-1.59929">
        <ele>62.2</ele>
        <time>2024-04-25T17:05:42Z</time>
      </trkpt>
      <trkpt lat="46.73249" lon="-1.59933">
        <ele>62.2</ele>
        <time>2024-04-25T17:05:43Z</time>
      </trkpt>
      <trkpt lat="46.73253" lon="-1.59937">
        <ele>62</ele>
        <time>2024-04-25T17:05:44Z</time>
      </trkpt>
      <trkpt lat="46.73256" lon="-1.59941">
        <ele>61.8</ele>
        <time>2024-04-25T17:05:45Z</time>
      </trkpt>
      <trkpt lat="46.7326" lon="-1.59945">
        <ele>61.6</ele>
        <time>2024-04-25T17:05:46Z</time>
      </trkpt>
      <trkpt lat="46.73263" lon="-1.59949">
        <ele>61.6</ele>
        <time>2024-04-25T17:05:47Z</time>
      </trkpt>
      <trkpt lat="46.73267" lon="-1.59953">
        <ele>61.4</ele>
        <time>2024-04-25T17:05:48Z</time>
      </trkpt>
      <trkpt lat="46.73271" lon="-1.59956">
        <ele>61.2</ele>
        <time>2024-04-25T17:05:49Z</time>
      </trkpt>
      <trkpt lat="46.73275" lon="-1.59956">
        <ele>61</ele>
        <time>2024-04-25T17:05:50Z</time>
      </trkpt>
      <trkpt lat="46.73279" lon="-1.59954">
        <ele>61</ele>
        <time>2024-04-25T17:05:51Z</time>
      </trkpt>
      <trkpt lat="46.73282" lon="-1.59949">
        <ele>61.2</ele>
        <time>2024-04-25T17:05:52Z</time>
      </trkpt>
      <trkpt lat="46.73284" lon="-1.59943">
        <ele>61.2</ele>
        <time>2024-04-25T17:05:53Z</time>
      </trkpt>
      <trkpt lat="46.73286" lon="-1.59936">
        <ele>61</ele>
        <time>2024-04-25T17:05:54Z</time>
      </trkpt>
      <trkpt lat="46.73287" lon="-1.59929">
        <ele>61</ele>
        <time>2024-04-25T17:05:55Z</time>
      </trkpt>
      <trkpt lat="46.73289" lon="-1.59922">
        <ele>61</ele>
        <time>2024-04-25T17:05:56Z</time>
      </trkpt>
      <trkpt lat="46.7329" lon="-1.59915">
        <ele>60.8</ele>
        <time>2024-04-25T17:05:57Z</time>
      </trkpt>
      <trkpt lat="46.73292" lon="-1.59908">
        <ele>60.8</ele>
        <time>2024-04-25T17:05:58Z</time>
      </trkpt>
      <trkpt lat="46.73294" lon="-1.59901">
        <ele>60.8</ele>
        <time>2024-04-25T17:05:59Z</time>
      </trkpt>
      <trkpt lat="46.73297" lon="-1.59892">
        <ele>60.8</ele>
        <time>2024-04-25T17:06:00Z</time>
      </trkpt>
      <trkpt lat="46.73298" lon="-1.59889">
        <ele>60.6</ele>
        <time>2024-04-25T17:06:01Z</time>
      </trkpt>
      <trkpt lat="46.733" lon="-1.59883">
        <ele>60.6</ele>
        <time>2024-04-25T17:06:02Z</time>
      </trkpt>
      <trkpt lat="46.73303" lon="-1.59877">
        <ele>60.6</ele>
        <time>2024-04-25T17:06:04Z</time>
      </trkpt>
      <trkpt lat="46.73305" lon="-1.59871">
        <ele>60.6</ele>
        <time>2024-04-25T17:06:05Z</time>
      </trkpt>
      <trkpt lat="46.73308" lon="-1.59865">
        <ele>60.8</ele>
        <time>2024-04-25T17:06:06Z</time>
      </trkpt>
      <trkpt lat="46.7331" lon="-1.5986">
        <ele>60.8</ele>
        <time>2024-04-25T17:06:07Z</time>
      </trkpt>
      <trkpt lat="46.73313" lon="-1.59854">
        <ele>61</ele>
        <time>2024-04-25T17:06:08Z</time>
      </trkpt>
      <trkpt lat="46.73316" lon="-1.59849">
        <ele>61</ele>
        <time>2024-04-25T17:06:09Z</time>
      </trkpt>
      <trkpt lat="46.73319" lon="-1.59844">
        <ele>61.2</ele>
        <time>2024-04-25T17:06:10Z</time>
      </trkpt>
      <trkpt lat="46.73323" lon="-1.5984">
        <ele>61.2</ele>
        <time>2024-04-25T17:06:11Z</time>
      </trkpt>
      <trkpt lat="46.73327" lon="-1.59836">
        <ele>61.2</ele>
        <time>2024-04-25T17:06:12Z</time>
      </trkpt>
      <trkpt lat="46.7333" lon="-1.59832">
        <ele>61</ele>
        <time>2024-04-25T17:06:13Z</time>
      </trkpt>
      <trkpt lat="46.73336" lon="-1.59825">
        <ele>61</ele>
        <time>2024-04-25T17:06:14Z</time>
      </trkpt>
      <trkpt lat="46.73337" lon="-1.59822">
        <ele>61</ele>
        <time>2024-04-25T17:06:15Z</time>
      </trkpt>
      <trkpt lat="46.7334" lon="-1.59817">
        <ele>61</ele>
        <time>2024-04-25T17:06:16Z</time>
      </trkpt>
      <trkpt lat="46.73342" lon="-1.59811">
        <ele>61</ele>
        <time>2024-04-25T17:06:17Z</time>
      </trkpt>
      <trkpt lat="46.73344" lon="-1.59805">
        <ele>61</ele>
        <time>2024-04-25T17:06:18Z</time>
      </trkpt>
      <trkpt lat="46.73346" lon="-1.59799">
        <ele>61.2</ele>
        <time>2024-04-25T17:06:19Z</time>
      </trkpt>
      <trkpt lat="46.7335" lon="-1.59791">
        <ele>61.2</ele>
        <time>2024-04-25T17:06:20Z</time>
      </trkpt>
      <trkpt lat="46.73351" lon="-1.59789">
        <ele>61.4</ele>
        <time>2024-04-25T17:06:21Z</time>
      </trkpt>
      <trkpt lat="46.73355" lon="-1.59785">
        <ele>61.4</ele>
        <time>2024-04-25T17:06:22Z</time>
      </trkpt>
      <trkpt lat="46.73357" lon="-1.59784">
        <ele>61.4</ele>
        <time>2024-04-25T17:06:23Z</time>
      </trkpt>
      <trkpt lat="46.7336" lon="-1.59782">
        <ele>61.4</ele>
        <time>2024-04-25T17:06:24Z</time>
      </trkpt>
      <trkpt lat="46.73364" lon="-1.59782">
        <ele>61.4</ele>
        <time>2024-04-25T17:06:25Z</time>
      </trkpt>
      <trkpt lat="46.73368" lon="-1.59782">
        <ele>61.2</ele>
        <time>2024-04-25T17:06:26Z</time>
      </trkpt>
      <trkpt lat="46.73372" lon="-1.59784">
        <ele>61.2</ele>
        <time>2024-04-25T17:06:27Z</time>
      </trkpt>
      <trkpt lat="46.73376" lon="-1.59785">
        <ele>61.4</ele>
        <time>2024-04-25T17:06:28Z</time>
      </trkpt>
      <trkpt lat="46.7338" lon="-1.59786">
        <ele>61.4</ele>
        <time>2024-04-25T17:06:29Z</time>
      </trkpt>
      <trkpt lat="46.73384" lon="-1.59787">
        <ele>61.6</ele>
        <time>2024-04-25T17:06:30Z</time>
      </trkpt>
      <trkpt lat="46.73385" lon="-1.59787">
        <ele>61.6</ele>
        <time>2024-04-25T17:06:31Z</time>
      </trkpt>
      <trkpt lat="46.73388" lon="-1.59785">
        <ele>61.8</ele>
        <time>2024-04-25T17:06:32Z</time>
      </trkpt>
      <trkpt lat="46.73389" lon="-1.59783">
        <ele>62</ele>
        <time>2024-04-25T17:06:33Z</time>
      </trkpt>
      <trkpt lat="46.73391" lon="-1.5978">
        <ele>62</ele>
        <time>2024-04-25T17:06:34Z</time>
      </trkpt>
      <trkpt lat="46.73392" lon="-1.59775">
        <ele>62</ele>
        <time>2024-04-25T17:06:35Z</time>
      </trkpt>
      <trkpt lat="46.73395" lon="-1.59768">
        <ele>62</ele>
        <time>2024-04-25T17:06:36Z</time>
      </trkpt>
      <trkpt lat="46.73396" lon="-1.59765">
        <ele>62</ele>
        <time>2024-04-25T17:06:37Z</time>
      </trkpt>
      <trkpt lat="46.73398" lon="-1.59759">
        <ele>62</ele>
        <time>2024-04-25T17:06:38Z</time>
      </trkpt>
      <trkpt lat="46.734" lon="-1.59754">
        <ele>62</ele>
        <time>2024-04-25T17:06:39Z</time>
      </trkpt>
      <trkpt lat="46.73401" lon="-1.59748">
        <ele>62</ele>
        <time>2024-04-25T17:06:40Z</time>
      </trkpt>
      <trkpt lat="46.73402" lon="-1.59743">
        <ele>62</ele>
        <time>2024-04-25T17:06:41Z</time>
      </trkpt>
      <trkpt lat="46.73403" lon="-1.59738">
        <ele>62</ele>
        <time>2024-04-25T17:06:42Z</time>
      </trkpt>
      <trkpt lat="46.73404" lon="-1.59733">
        <ele>62</ele>
        <time>2024-04-25T17:06:43Z</time>
      </trkpt>
      <trkpt lat="46.73406" lon="-1.59727">
        <ele>62</ele>
        <time>2024-04-25T17:06:44Z</time>
      </trkpt>
      <trkpt lat="46.73408" lon="-1.59721">
        <ele>62</ele>
        <time>2024-04-25T17:06:45Z</time>
      </trkpt>
      <trkpt lat="46.7341" lon="-1.59715">
        <ele>62</ele>
        <time>2024-04-25T17:06:46Z</time>
      </trkpt>
      <trkpt lat="46.73413" lon="-1.59706">
        <ele>62</ele>
        <time>2024-04-25T17:06:47Z</time>
      </trkpt>
      <trkpt lat="46.73414" lon="-1.59702">
        <ele>62</ele>
        <time>2024-04-25T17:06:48Z</time>
      </trkpt>
      <trkpt lat="46.73416" lon="-1.59696">
        <ele>62</ele>
        <time>2024-04-25T17:06:49Z</time>
      </trkpt>
      <trkpt lat="46.73418" lon="-1.59689">
        <ele>62</ele>
        <time>2024-04-25T17:06:50Z</time>
      </trkpt>
      <trkpt lat="46.73421" lon="-1.5968">
        <ele>62</ele>
        <time>2024-04-25T17:06:51Z</time>
      </trkpt>
      <trkpt lat="46.73422" lon="-1.59676">
        <ele>62</ele>
        <time>2024-04-25T17:06:52Z</time>
      </trkpt>
      <trkpt lat="46.73424" lon="-1.59666">
        <ele>62</ele>
        <time>2024-04-25T17:06:53Z</time>
      </trkpt>
      <trkpt lat="46.73425" lon="-1.59663">
        <ele>62</ele>
        <time>2024-04-25T17:06:54Z</time>
      </trkpt>
      <trkpt lat="46.73426" lon="-1.59656">
        <ele>62</ele>
        <time>2024-04-25T17:06:55Z</time>
      </trkpt>
      <trkpt lat="46.73427" lon="-1.59649">
        <ele>62</ele>
        <time>2024-04-25T17:06:56Z</time>
      </trkpt>
      <trkpt lat="46.73428" lon="-1.59642">
        <ele>62</ele>
        <time>2024-04-25T17:06:57Z</time>
      </trkpt>
      <trkpt lat="46.73429" lon="-1.59635">
        <ele>62</ele>
        <time>2024-04-25T17:06:58Z</time>
      </trkpt>
      <trkpt lat="46.7343" lon="-1.59629">
        <ele>62</ele>
        <time>2024-04-25T17:06:59Z</time>
      </trkpt>
      <trkpt lat="46.73431" lon="-1.59623">
        <ele>62</ele>
        <time>2024-04-25T17:07:00Z</time>
      </trkpt>
      <trkpt lat="46.73432" lon="-1.59616">
        <ele>62</ele>
        <time>2024-04-25T17:07:01Z</time>
      </trkpt>
      <trkpt lat="46.73433" lon="-1.59609">
        <ele>62</ele>
        <time>2024-04-25T17:07:02Z</time>
      </trkpt>
      <trkpt lat="46.73435" lon="-1.59602">
        <ele>62</ele>
        <time>2024-04-25T17:07:03Z</time>
      </trkpt>
      <trkpt lat="46.73436" lon="-1.59596">
        <ele>62.2</ele>
        <time>2024-04-25T17:07:04Z</time>
      </trkpt>
      <trkpt lat="46.73438" lon="-1.59589">
        <ele>62.2</ele>
        <time>2024-04-25T17:07:05Z</time>
      </trkpt>
      <trkpt lat="46.7344" lon="-1.59584">
        <ele>62.2</ele>
        <time>2024-04-25T17:07:06Z</time>
      </trkpt>
      <trkpt lat="46.73444" lon="-1.59581">
        <ele>62.2</ele>
        <time>2024-04-25T17:07:07Z</time>
      </trkpt>
      <trkpt lat="46.73448" lon="-1.59578">
        <ele>62.4</ele>
        <time>2024-04-25T17:07:08Z</time>
      </trkpt>
      <trkpt lat="46.73452" lon="-1.59576">
        <ele>62.6</ele>
        <time>2024-04-25T17:07:09Z</time>
      </trkpt>
      <trkpt lat="46.73456" lon="-1.59574">
        <ele>62.6</ele>
        <time>2024-04-25T17:07:10Z</time>
      </trkpt>
      <trkpt lat="46.7346" lon="-1.59571">
        <ele>62.8</ele>
        <time>2024-04-25T17:07:11Z</time>
      </trkpt>
      <trkpt lat="46.73463" lon="-1.59568">
        <ele>63</ele>
        <time>2024-04-25T17:07:12Z</time>
      </trkpt>
      <trkpt lat="46.73465" lon="-1.59564">
        <ele>63</ele>
        <time>2024-04-25T17:07:13Z</time>
      </trkpt>
      <trkpt lat="46.73467" lon="-1.59558">
        <ele>63.2</ele>
        <time>2024-04-25T17:07:14Z</time>
      </trkpt>
      <trkpt lat="46.73468" lon="-1.59553">
        <ele>63.4</ele>
        <time>2024-04-25T17:07:15Z</time>
      </trkpt>
      <trkpt lat="46.7347" lon="-1.59546">
        <ele>63.4</ele>
        <time>2024-04-25T17:07:16Z</time>
      </trkpt>
      <trkpt lat="46.73471" lon="-1.5954">
        <ele>63.4</ele>
        <time>2024-04-25T17:07:17Z</time>
      </trkpt>
      <trkpt lat="46.73473" lon="-1.59534">
        <ele>63.4</ele>
        <time>2024-04-25T17:07:18Z</time>
      </trkpt>
      <trkpt lat="46.73475" lon="-1.59527">
        <ele>63.4</ele>
        <time>2024-04-25T17:07:19Z</time>
      </trkpt>
      <trkpt lat="46.73477" lon="-1.59521">
        <ele>63.6</ele>
        <time>2024-04-25T17:07:20Z</time>
      </trkpt>
      <trkpt lat="46.73478" lon="-1.59514">
        <ele>63.6</ele>
        <time>2024-04-25T17:07:21Z</time>
      </trkpt>
      <trkpt lat="46.7348" lon="-1.59508">
        <ele>63.6</ele>
        <time>2024-04-25T17:07:22Z</time>
      </trkpt>
      <trkpt lat="46.73481" lon="-1.59502">
        <ele>63.6</ele>
        <time>2024-04-25T17:07:23Z</time>
      </trkpt>
      <trkpt lat="46.73482" lon="-1.59495">
        <ele>63.8</ele>
        <time>2024-04-25T17:07:24Z</time>
      </trkpt>
      <trkpt lat="46.73483" lon="-1.59486">
        <ele>63.8</ele>
        <time>2024-04-25T17:07:25Z</time>
      </trkpt>
      <trkpt lat="46.73484" lon="-1.59478">
        <ele>64</ele>
        <time>2024-04-25T17:07:26Z</time>
      </trkpt>
      <trkpt lat="46.73485" lon="-1.59474">
        <ele>64.2</ele>
        <time>2024-04-25T17:07:27Z</time>
      </trkpt>
      <trkpt lat="46.73486" lon="-1.59468">
        <ele>64.4</ele>
        <time>2024-04-25T17:07:28Z</time>
      </trkpt>
      <trkpt lat="46.73488" lon="-1.59464">
        <ele>64.6</ele>
        <time>2024-04-25T17:07:29Z</time>
      </trkpt>
      <trkpt lat="46.7349" lon="-1.5946">
        <ele>64.8</ele>
        <time>2024-04-25T17:07:30Z</time>
      </trkpt>
      <trkpt lat="46.73493" lon="-1.59459">
        <ele>65</ele>
        <time>2024-04-25T17:07:31Z</time>
      </trkpt>
      <trkpt lat="46.73495" lon="-1.59457">
        <ele>65.2</ele>
        <time>2024-04-25T17:07:32Z</time>
      </trkpt>
      <trkpt lat="46.73498" lon="-1.59455">
        <ele>65.2</ele>
        <time>2024-04-25T17:07:33Z</time>
      </trkpt>
      <trkpt lat="46.73499" lon="-1.59452">
        <ele>65.2</ele>
        <time>2024-04-25T17:07:34Z</time>
      </trkpt>
      <trkpt lat="46.73499" lon="-1.59449">
        <ele>65.4</ele>
        <time>2024-04-25T17:07:35Z</time>
      </trkpt>
      <trkpt lat="46.73498" lon="-1.59445">
        <ele>65.4</ele>
        <time>2024-04-25T17:07:36Z</time>
      </trkpt>
      <trkpt lat="46.73496" lon="-1.59441">
        <ele>65.4</ele>
        <time>2024-04-25T17:07:37Z</time>
      </trkpt>
      <trkpt lat="46.73494" lon="-1.59436">
        <ele>65.4</ele>
        <time>2024-04-25T17:07:38Z</time>
      </trkpt>
      <trkpt lat="46.73492" lon="-1.59432">
        <ele>65.4</ele>
        <time>2024-04-25T17:07:39Z</time>
      </trkpt>
      <trkpt lat="46.7349" lon="-1.59427">
        <ele>65.4</ele>
        <time>2024-04-25T17:07:40Z</time>
      </trkpt>
      <trkpt lat="46.73488" lon="-1.59422">
        <ele>65.4</ele>
        <time>2024-04-25T17:07:41Z</time>
      </trkpt>
      <trkpt lat="46.73487" lon="-1.59418">
        <ele>65.4</ele>
        <time>2024-04-25T17:07:42Z</time>
      </trkpt>
      <trkpt lat="46.73485" lon="-1.59414">
        <ele>65.4</ele>
        <time>2024-04-25T17:07:43Z</time>
      </trkpt>
      <trkpt lat="46.73484" lon="-1.5941">
        <ele>65.4</ele>
        <time>2024-04-25T17:07:44Z</time>
      </trkpt>
      <trkpt lat="46.73484" lon="-1.59406">
        <ele>65.2</ele>
        <time>2024-04-25T17:07:45Z</time>
      </trkpt>
      <trkpt lat="46.73484" lon="-1.59402">
        <ele>65.2</ele>
        <time>2024-04-25T17:07:46Z</time>
      </trkpt>
      <trkpt lat="46.73484" lon="-1.59397">
        <ele>65.2</ele>
        <time>2024-04-25T17:07:47Z</time>
      </trkpt>
      <trkpt lat="46.73483" lon="-1.59392">
        <ele>65.2</ele>
        <time>2024-04-25T17:07:48Z</time>
      </trkpt>
      <trkpt lat="46.73482" lon="-1.59387">
        <ele>65.2</ele>
        <time>2024-04-25T17:07:50Z</time>
      </trkpt>
      <trkpt lat="46.73481" lon="-1.59382">
        <ele>65</ele>
        <time>2024-04-25T17:07:51Z</time>
      </trkpt>
      <trkpt lat="46.73479" lon="-1.59377">
        <ele>65</ele>
        <time>2024-04-25T17:07:52Z</time>
      </trkpt>
      <trkpt lat="46.73477" lon="-1.59371">
        <ele>65</ele>
        <time>2024-04-25T17:07:53Z</time>
      </trkpt>
      <trkpt lat="46.73476" lon="-1.59366">
        <ele>64.8</ele>
        <time>2024-04-25T17:07:54Z</time>
      </trkpt>
      <trkpt lat="46.73477" lon="-1.59362">
        <ele>64.8</ele>
        <time>2024-04-25T17:07:55Z</time>
      </trkpt>
      <trkpt lat="46.73478" lon="-1.59359">
        <ele>64.6</ele>
        <time>2024-04-25T17:07:56Z</time>
      </trkpt>
      <trkpt lat="46.7348" lon="-1.59357">
        <ele>64.6</ele>
        <time>2024-04-25T17:07:57Z</time>
      </trkpt>
      <trkpt lat="46.73483" lon="-1.59354">
        <ele>64.6</ele>
        <time>2024-04-25T17:07:58Z</time>
      </trkpt>
      <trkpt lat="46.73487" lon="-1.59352">
        <ele>64.6</ele>
        <time>2024-04-25T17:07:59Z</time>
      </trkpt>
      <trkpt lat="46.7349" lon="-1.5935">
        <ele>64.6</ele>
        <time>2024-04-25T17:08:00Z</time>
      </trkpt>
      <trkpt lat="46.73494" lon="-1.59348">
        <ele>64.6</ele>
        <time>2024-04-25T17:08:01Z</time>
      </trkpt>
      <trkpt lat="46.73498" lon="-1.59346">
        <ele>64.6</ele>
        <time>2024-04-25T17:08:02Z</time>
      </trkpt>
      <trkpt lat="46.73501" lon="-1.59344">
        <ele>64.6</ele>
        <time>2024-04-25T17:08:03Z</time>
      </trkpt>
      <trkpt lat="46.73507" lon="-1.59341">
        <ele>64.6</ele>
        <time>2024-04-25T17:08:04Z</time>
      </trkpt>
      <trkpt lat="46.73509" lon="-1.59339">
        <ele>64.6</ele>
        <time>2024-04-25T17:08:05Z</time>
      </trkpt>
      <trkpt lat="46.73512" lon="-1.59337">
        <ele>64.6</ele>
        <time>2024-04-25T17:08:06Z</time>
      </trkpt>
      <trkpt lat="46.73516" lon="-1.59335">
        <ele>64.8</ele>
        <time>2024-04-25T17:08:07Z</time>
      </trkpt>
      <trkpt lat="46.7352" lon="-1.59334">
        <ele>64.8</ele>
        <time>2024-04-25T17:08:08Z</time>
      </trkpt>
      <trkpt lat="46.73523" lon="-1.59333">
        <ele>65</ele>
        <time>2024-04-25T17:08:09Z</time>
      </trkpt>
      <trkpt lat="46.73526" lon="-1.59333">
        <ele>65</ele>
        <time>2024-04-25T17:08:10Z</time>
      </trkpt>
      <trkpt lat="46.73529" lon="-1.59332">
        <ele>65</ele>
        <time>2024-04-25T17:08:11Z</time>
      </trkpt>
      <trkpt lat="46.73532" lon="-1.59332">
        <ele>65</ele>
        <time>2024-04-25T17:08:12Z</time>
      </trkpt>
      <trkpt lat="46.73535" lon="-1.5933">
        <ele>65.2</ele>
        <time>2024-04-25T17:08:13Z</time>
      </trkpt>
      <trkpt lat="46.73538" lon="-1.59329">
        <ele>65.2</ele>
        <time>2024-04-25T17:08:14Z</time>
      </trkpt>
      <trkpt lat="46.73542" lon="-1.59326">
        <ele>65.2</ele>
        <time>2024-04-25T17:08:15Z</time>
      </trkpt>
      <trkpt lat="46.73544" lon="-1.59325">
        <ele>65.4</ele>
        <time>2024-04-25T17:08:16Z</time>
      </trkpt>
      <trkpt lat="46.73546" lon="-1.59322">
        <ele>65.4</ele>
        <time>2024-04-25T17:08:17Z</time>
      </trkpt>
      <trkpt lat="46.73547" lon="-1.59319">
        <ele>65.6</ele>
        <time>2024-04-25T17:08:18Z</time>
      </trkpt>
      <trkpt lat="46.73548" lon="-1.59316">
        <ele>65.6</ele>
        <time>2024-04-25T17:08:19Z</time>
      </trkpt>
      <trkpt lat="46.73548" lon="-1.59312">
        <ele>65.6</ele>
        <time>2024-04-25T17:08:20Z</time>
      </trkpt>
      <trkpt lat="46.73548" lon="-1.59307">
        <ele>65.8</ele>
        <time>2024-04-25T17:08:21Z</time>
      </trkpt>
      <trkpt lat="46.73548" lon="-1.59302">
        <ele>65.8</ele>
        <time>2024-04-25T17:08:22Z</time>
      </trkpt>
      <trkpt lat="46.73547" lon="-1.59295">
        <ele>65.8</ele>
        <time>2024-04-25T17:08:23Z</time>
      </trkpt>
      <trkpt lat="46.73547" lon="-1.59293">
        <ele>65.8</ele>
        <time>2024-04-25T17:08:24Z</time>
      </trkpt>
      <trkpt lat="46.73544" lon="-1.59287">
        <ele>65.6</ele>
        <time>2024-04-25T17:08:25Z</time>
      </trkpt>
      <trkpt lat="46.73543" lon="-1.59285">
        <ele>65.6</ele>
        <time>2024-04-25T17:08:26Z</time>
      </trkpt>
      <trkpt lat="46.73541" lon="-1.5928">
        <ele>65.6</ele>
        <time>2024-04-25T17:08:27Z</time>
      </trkpt>
      <trkpt lat="46.73538" lon="-1.59276">
        <ele>65.4</ele>
        <time>2024-04-25T17:08:28Z</time>
      </trkpt>
      <trkpt lat="46.73536" lon="-1.59271">
        <ele>65.4</ele>
        <time>2024-04-25T17:08:29Z</time>
      </trkpt>
      <trkpt lat="46.73532" lon="-1.59263">
        <ele>65.2</ele>
        <time>2024-04-25T17:08:30Z</time>
      </trkpt>
      <trkpt lat="46.73531" lon="-1.59261">
        <ele>65</ele>
        <time>2024-04-25T17:08:31Z</time>
      </trkpt>
      <trkpt lat="46.7353" lon="-1.59255">
        <ele>64.8</ele>
        <time>2024-04-25T17:08:32Z</time>
      </trkpt>
      <trkpt lat="46.7353" lon="-1.5925">
        <ele>64.8</ele>
        <time>2024-04-25T17:08:33Z</time>
      </trkpt>
      <trkpt lat="46.73532" lon="-1.59245">
        <ele>64.8</ele>
        <time>2024-04-25T17:08:34Z</time>
      </trkpt>
      <trkpt lat="46.73535" lon="-1.59242">
        <ele>64.8</ele>
        <time>2024-04-25T17:08:35Z</time>
      </trkpt>
      <trkpt lat="46.7354" lon="-1.59241">
        <ele>64.8</ele>
        <time>2024-04-25T17:08:36Z</time>
      </trkpt>
      <trkpt lat="46.73547" lon="-1.59239">
        <ele>64.8</ele>
        <time>2024-04-25T17:08:37Z</time>
      </trkpt>
      <trkpt lat="46.73549" lon="-1.59239">
        <ele>65</ele>
        <time>2024-04-25T17:08:38Z</time>
      </trkpt>
      <trkpt lat="46.73553" lon="-1.59238">
        <ele>65</ele>
        <time>2024-04-25T17:08:39Z</time>
      </trkpt>
      <trkpt lat="46.73558" lon="-1.59238">
        <ele>65</ele>
        <time>2024-04-25T17:08:40Z</time>
      </trkpt>
      <trkpt lat="46.73562" lon="-1.59237">
        <ele>65.2</ele>
        <time>2024-04-25T17:08:41Z</time>
      </trkpt>
      <trkpt lat="46.73566" lon="-1.59236">
        <ele>65.2</ele>
        <time>2024-04-25T17:08:42Z</time>
      </trkpt>
      <trkpt lat="46.7357" lon="-1.59235">
        <ele>65.2</ele>
        <time>2024-04-25T17:08:43Z</time>
      </trkpt>
      <trkpt lat="46.73575" lon="-1.59234">
        <ele>65.4</ele>
        <time>2024-04-25T17:08:44Z</time>
      </trkpt>
      <trkpt lat="46.73579" lon="-1.59233">
        <ele>65.4</ele>
        <time>2024-04-25T17:08:45Z</time>
      </trkpt>
      <trkpt lat="46.73583" lon="-1.59232">
        <ele>65.4</ele>
        <time>2024-04-25T17:08:46Z</time>
      </trkpt>
      <trkpt lat="46.73587" lon="-1.59231">
        <ele>65.6</ele>
        <time>2024-04-25T17:08:47Z</time>
      </trkpt>
      <trkpt lat="46.73591" lon="-1.5923">
        <ele>65.6</ele>
        <time>2024-04-25T17:08:48Z</time>
      </trkpt>
      <trkpt lat="46.73596" lon="-1.59229">
        <ele>65.6</ele>
        <time>2024-04-25T17:08:49Z</time>
      </trkpt>
      <trkpt lat="46.736" lon="-1.59227">
        <ele>65.8</ele>
        <time>2024-04-25T17:08:50Z</time>
      </trkpt>
      <trkpt lat="46.73604" lon="-1.59226">
        <ele>65.8</ele>
        <time>2024-04-25T17:08:51Z</time>
      </trkpt>
      <trkpt lat="46.73608" lon="-1.59225">
        <ele>65.8</ele>
        <time>2024-04-25T17:08:52Z</time>
      </trkpt>
      <trkpt lat="46.73612" lon="-1.59224">
        <ele>65.8</ele>
        <time>2024-04-25T17:08:53Z</time>
      </trkpt>
      <trkpt lat="46.73617" lon="-1.59223">
        <ele>65.8</ele>
        <time>2024-04-25T17:08:54Z</time>
      </trkpt>
      <trkpt lat="46.73623" lon="-1.59222">
        <ele>66</ele>
        <time>2024-04-25T17:08:55Z</time>
      </trkpt>
      <trkpt lat="46.73625" lon="-1.59222">
        <ele>66</ele>
        <time>2024-04-25T17:08:56Z</time>
      </trkpt>
      <trkpt lat="46.7363" lon="-1.59221">
        <ele>66</ele>
        <time>2024-04-25T17:08:57Z</time>
      </trkpt>
      <trkpt lat="46.73635" lon="-1.5922">
        <ele>66.2</ele>
        <time>2024-04-25T17:08:58Z</time>
      </trkpt>
      <trkpt lat="46.73639" lon="-1.59219">
        <ele>66.2</ele>
        <time>2024-04-25T17:08:59Z</time>
      </trkpt>
      <trkpt lat="46.73644" lon="-1.59218">
        <ele>66.2</ele>
        <time>2024-04-25T17:09:00Z</time>
      </trkpt>
      <trkpt lat="46.73648" lon="-1.59217">
        <ele>66.2</ele>
        <time>2024-04-25T17:09:01Z</time>
      </trkpt>
      <trkpt lat="46.73653" lon="-1.59217">
        <ele>66.2</ele>
        <time>2024-04-25T17:09:02Z</time>
      </trkpt>
      <trkpt lat="46.73658" lon="-1.59216">
        <ele>66.2</ele>
        <time>2024-04-25T17:09:03Z</time>
      </trkpt>
      <trkpt lat="46.73662" lon="-1.59215">
        <ele>66.2</ele>
        <time>2024-04-25T17:09:04Z</time>
      </trkpt>
      <trkpt lat="46.73667" lon="-1.59213">
        <ele>66.2</ele>
        <time>2024-04-25T17:09:05Z</time>
      </trkpt>
      <trkpt lat="46.73671" lon="-1.5921">
        <ele>66.2</ele>
        <time>2024-04-25T17:09:06Z</time>
      </trkpt>
      <trkpt lat="46.73674" lon="-1.59206">
        <ele>66.2</ele>
        <time>2024-04-25T17:09:07Z</time>
      </trkpt>
      <trkpt lat="46.73677" lon="-1.59201">
        <ele>66.4</ele>
        <time>2024-04-25T17:09:08Z</time>
      </trkpt>
      <trkpt lat="46.73679" lon="-1.59195">
        <ele>66.4</ele>
        <time>2024-04-25T17:09:09Z</time>
      </trkpt>
      <trkpt lat="46.73682" lon="-1.5919">
        <ele>66.4</ele>
        <time>2024-04-25T17:09:10Z</time>
      </trkpt>
      <trkpt lat="46.73685" lon="-1.59184">
        <ele>66.4</ele>
        <time>2024-04-25T17:09:11Z</time>
      </trkpt>
      <trkpt lat="46.73688" lon="-1.5918">
        <ele>66.6</ele>
        <time>2024-04-25T17:09:12Z</time>
      </trkpt>
      <trkpt lat="46.73694" lon="-1.59173">
        <ele>66.8</ele>
        <time>2024-04-25T17:09:13Z</time>
      </trkpt>
      <trkpt lat="46.73696" lon="-1.59171">
        <ele>67</ele>
        <time>2024-04-25T17:09:14Z</time>
      </trkpt>
      <trkpt lat="46.73699" lon="-1.59167">
        <ele>67.2</ele>
        <time>2024-04-25T17:09:15Z</time>
      </trkpt>
      <trkpt lat="46.73702" lon="-1.59164">
        <ele>67.2</ele>
        <time>2024-04-25T17:09:16Z</time>
      </trkpt>
      <trkpt lat="46.73705" lon="-1.59161">
        <ele>67.4</ele>
        <time>2024-04-25T17:09:17Z</time>
      </trkpt>
      <trkpt lat="46.73709" lon="-1.5916">
        <ele>67.4</ele>
        <time>2024-04-25T17:09:18Z</time>
      </trkpt>
      <trkpt lat="46.73713" lon="-1.59159">
        <ele>67.4</ele>
        <time>2024-04-25T17:09:19Z</time>
      </trkpt>
      <trkpt lat="46.73716" lon="-1.5916">
        <ele>67.4</ele>
        <time>2024-04-25T17:09:20Z</time>
      </trkpt>
      <trkpt lat="46.7372" lon="-1.59161">
        <ele>67.4</ele>
        <time>2024-04-25T17:09:21Z</time>
      </trkpt>
      <trkpt lat="46.73723" lon="-1.59164">
        <ele>67.4</ele>
        <time>2024-04-25T17:09:22Z</time>
      </trkpt>
      <trkpt lat="46.73726" lon="-1.59166">
        <ele>67.4</ele>
        <time>2024-04-25T17:09:23Z</time>
      </trkpt>
      <trkpt lat="46.73729" lon="-1.5917">
        <ele>67.6</ele>
        <time>2024-04-25T17:09:24Z</time>
      </trkpt>
      <trkpt lat="46.73732" lon="-1.59173">
        <ele>67.6</ele>
        <time>2024-04-25T17:09:25Z</time>
      </trkpt>
      <trkpt lat="46.73735" lon="-1.59177">
        <ele>67.6</ele>
        <time>2024-04-25T17:09:26Z</time>
      </trkpt>
      <trkpt lat="46.73739" lon="-1.5918">
        <ele>67.6</ele>
        <time>2024-04-25T17:09:27Z</time>
      </trkpt>
      <trkpt lat="46.73742" lon="-1.59183">
        <ele>67.6</ele>
        <time>2024-04-25T17:09:28Z</time>
      </trkpt>
      <trkpt lat="46.73746" lon="-1.59187">
        <ele>67.6</ele>
        <time>2024-04-25T17:09:29Z</time>
      </trkpt>
      <trkpt lat="46.7375" lon="-1.59189">
        <ele>67.6</ele>
        <time>2024-04-25T17:09:30Z</time>
      </trkpt>
      <trkpt lat="46.73753" lon="-1.59191">
        <ele>67.6</ele>
        <time>2024-04-25T17:09:31Z</time>
      </trkpt>
      <trkpt lat="46.73756" lon="-1.59193">
        <ele>67.6</ele>
        <time>2024-04-25T17:09:32Z</time>
      </trkpt>
      <trkpt lat="46.7376" lon="-1.59195">
        <ele>67.6</ele>
        <time>2024-04-25T17:09:33Z</time>
      </trkpt>
      <trkpt lat="46.73763" lon="-1.59197">
        <ele>67.6</ele>
        <time>2024-04-25T17:09:34Z</time>
      </trkpt>
      <trkpt lat="46.73766" lon="-1.59199">
        <ele>67.6</ele>
        <time>2024-04-25T17:09:35Z</time>
      </trkpt>
      <trkpt lat="46.73769" lon="-1.592">
        <ele>67.6</ele>
        <time>2024-04-25T17:09:36Z</time>
      </trkpt>
      <trkpt lat="46.73773" lon="-1.59201">
        <ele>67.6</ele>
        <time>2024-04-25T17:09:38Z</time>
      </trkpt>
      <trkpt lat="46.73777" lon="-1.59201">
        <ele>67.6</ele>
        <time>2024-04-25T17:09:39Z</time>
      </trkpt>
      <trkpt lat="46.73781" lon="-1.59201">
        <ele>67.6</ele>
        <time>2024-04-25T17:09:40Z</time>
      </trkpt>
      <trkpt lat="46.73785" lon="-1.59201">
        <ele>67.6</ele>
        <time>2024-04-25T17:09:41Z</time>
      </trkpt>
      <trkpt lat="46.7379" lon="-1.592">
        <ele>67.6</ele>
        <time>2024-04-25T17:09:42Z</time>
      </trkpt>
      <trkpt lat="46.73794" lon="-1.59199">
        <ele>67.6</ele>
        <time>2024-04-25T17:09:43Z</time>
      </trkpt>
      <trkpt lat="46.73799" lon="-1.59199">
        <ele>67.6</ele>
        <time>2024-04-25T17:09:44Z</time>
      </trkpt>
      <trkpt lat="46.73803" lon="-1.59198">
        <ele>67.6</ele>
        <time>2024-04-25T17:09:45Z</time>
      </trkpt>
      <trkpt lat="46.73808" lon="-1.59198">
        <ele>67.6</ele>
        <time>2024-04-25T17:09:46Z</time>
      </trkpt>
      <trkpt lat="46.73812" lon="-1.59198">
        <ele>67.6</ele>
        <time>2024-04-25T17:09:47Z</time>
      </trkpt>
      <trkpt lat="46.73816" lon="-1.59197">
        <ele>67.6</ele>
        <time>2024-04-25T17:09:48Z</time>
      </trkpt>
      <trkpt lat="46.7382" lon="-1.59196">
        <ele>67.6</ele>
        <time>2024-04-25T17:09:49Z</time>
      </trkpt>
      <trkpt lat="46.73823" lon="-1.59194">
        <ele>67.8</ele>
        <time>2024-04-25T17:09:50Z</time>
      </trkpt>
      <trkpt lat="46.73827" lon="-1.59191">
        <ele>67.8</ele>
        <time>2024-04-25T17:09:51Z</time>
      </trkpt>
      <trkpt lat="46.7383" lon="-1.59188">
        <ele>67.8</ele>
        <time>2024-04-25T17:09:52Z</time>
      </trkpt>
      <trkpt lat="46.73834" lon="-1.59185">
        <ele>67.8</ele>
        <time>2024-04-25T17:09:53Z</time>
      </trkpt>
      <trkpt lat="46.73838" lon="-1.59182">
        <ele>68</ele>
        <time>2024-04-25T17:09:54Z</time>
      </trkpt>
      <trkpt lat="46.73842" lon="-1.59179">
        <ele>68</ele>
        <time>2024-04-25T17:09:55Z</time>
      </trkpt>
      <trkpt lat="46.73845" lon="-1.59175">
        <ele>68.2</ele>
        <time>2024-04-25T17:09:56Z</time>
      </trkpt>
      <trkpt lat="46.73849" lon="-1.59171">
        <ele>68.2</ele>
        <time>2024-04-25T17:09:57Z</time>
      </trkpt>
      <trkpt lat="46.73853" lon="-1.59167">
        <ele>68.4</ele>
        <time>2024-04-25T17:09:58Z</time>
      </trkpt>
      <trkpt lat="46.73856" lon="-1.59164">
        <ele>68.4</ele>
        <time>2024-04-25T17:09:59Z</time>
      </trkpt>
      <trkpt lat="46.73859" lon="-1.5916">
        <ele>68.6</ele>
        <time>2024-04-25T17:10:00Z</time>
      </trkpt>
      <trkpt lat="46.73863" lon="-1.59156">
        <ele>68.6</ele>
        <time>2024-04-25T17:10:01Z</time>
      </trkpt>
      <trkpt lat="46.73866" lon="-1.59153">
        <ele>68.8</ele>
        <time>2024-04-25T17:10:02Z</time>
      </trkpt>
      <trkpt lat="46.7387" lon="-1.59149">
        <ele>68.8</ele>
        <time>2024-04-25T17:10:03Z</time>
      </trkpt>
      <trkpt lat="46.73873" lon="-1.59146">
        <ele>68.8</ele>
        <time>2024-04-25T17:10:04Z</time>
      </trkpt>
      <trkpt lat="46.73877" lon="-1.59143">
        <ele>69</ele>
        <time>2024-04-25T17:10:05Z</time>
      </trkpt>
      <trkpt lat="46.73881" lon="-1.5914">
        <ele>69</ele>
        <time>2024-04-25T17:10:06Z</time>
      </trkpt>
      <trkpt lat="46.73885" lon="-1.59138">
        <ele>69</ele>
        <time>2024-04-25T17:10:07Z</time>
      </trkpt>
      <trkpt lat="46.73889" lon="-1.59135">
        <ele>69</ele>
        <time>2024-04-25T17:10:08Z</time>
      </trkpt>
      <trkpt lat="46.73896" lon="-1.59132">
        <ele>69</ele>
        <time>2024-04-25T17:10:09Z</time>
      </trkpt>
      <trkpt lat="46.73898" lon="-1.59131">
        <ele>69</ele>
        <time>2024-04-25T17:10:10Z</time>
      </trkpt>
      <trkpt lat="46.73902" lon="-1.59129">
        <ele>69.2</ele>
        <time>2024-04-25T17:10:11Z</time>
      </trkpt>
      <trkpt lat="46.73905" lon="-1.59127">
        <ele>69.2</ele>
        <time>2024-04-25T17:10:12Z</time>
      </trkpt>
      <trkpt lat="46.73909" lon="-1.59124">
        <ele>69.2</ele>
        <time>2024-04-25T17:10:13Z</time>
      </trkpt>
      <trkpt lat="46.73915" lon="-1.59121">
        <ele>69.2</ele>
        <time>2024-04-25T17:10:14Z</time>
      </trkpt>
      <trkpt lat="46.73917" lon="-1.5912">
        <ele>69.4</ele>
        <time>2024-04-25T17:10:15Z</time>
      </trkpt>
      <trkpt lat="46.73921" lon="-1.59119">
        <ele>69.4</ele>
        <time>2024-04-25T17:10:16Z</time>
      </trkpt>
      <trkpt lat="46.73927" lon="-1.59118">
        <ele>69.4</ele>
        <time>2024-04-25T17:10:17Z</time>
      </trkpt>
      <trkpt lat="46.73929" lon="-1.59118">
        <ele>69.6</ele>
        <time>2024-04-25T17:10:18Z</time>
      </trkpt>
      <trkpt lat="46.73935" lon="-1.59117">
        <ele>69.6</ele>
        <time>2024-04-25T17:10:19Z</time>
      </trkpt>
      <trkpt lat="46.73937" lon="-1.59117">
        <ele>69.6</ele>
        <time>2024-04-25T17:10:20Z</time>
      </trkpt>
      <trkpt lat="46.73942" lon="-1.59116">
        <ele>69.8</ele>
        <time>2024-04-25T17:10:21Z</time>
      </trkpt>
      <trkpt lat="46.73946" lon="-1.59116">
        <ele>69.8</ele>
        <time>2024-04-25T17:10:22Z</time>
      </trkpt>
      <trkpt lat="46.7395" lon="-1.59114">
        <ele>70</ele>
        <time>2024-04-25T17:10:23Z</time>
      </trkpt>
      <trkpt lat="46.73953" lon="-1.59113">
        <ele>70</ele>
        <time>2024-04-25T17:10:24Z</time>
      </trkpt>
      <trkpt lat="46.73957" lon="-1.59111">
        <ele>70.2</ele>
        <time>2024-04-25T17:10:25Z</time>
      </trkpt>
      <trkpt lat="46.7396" lon="-1.59109">
        <ele>70.4</ele>
        <time>2024-04-25T17:10:26Z</time>
      </trkpt>
      <trkpt lat="46.73964" lon="-1.59107">
        <ele>70.4</ele>
        <time>2024-04-25T17:10:27Z</time>
      </trkpt>
      <trkpt lat="46.73967" lon="-1.59104">
        <ele>70.6</ele>
        <time>2024-04-25T17:10:28Z</time>
      </trkpt>
      <trkpt lat="46.7397" lon="-1.59101">
        <ele>70.8</ele>
        <time>2024-04-25T17:10:29Z</time>
      </trkpt>
      <trkpt lat="46.73974" lon="-1.59099">
        <ele>71</ele>
        <time>2024-04-25T17:10:30Z</time>
      </trkpt>
      <trkpt lat="46.73977" lon="-1.59097">
        <ele>71.2</ele>
        <time>2024-04-25T17:10:31Z</time>
      </trkpt>
      <trkpt lat="46.73981" lon="-1.59096">
        <ele>71.4</ele>
        <time>2024-04-25T17:10:32Z</time>
      </trkpt>
      <trkpt lat="46.73985" lon="-1.59096">
        <ele>71.4</ele>
        <time>2024-04-25T17:10:33Z</time>
      </trkpt>
      <trkpt lat="46.73988" lon="-1.59096">
        <ele>71.6</ele>
        <time>2024-04-25T17:10:34Z</time>
      </trkpt>
      <trkpt lat="46.73993" lon="-1.59095">
        <ele>71.6</ele>
        <time>2024-04-25T17:10:35Z</time>
      </trkpt>
      <trkpt lat="46.73995" lon="-1.59095">
        <ele>71.6</ele>
        <time>2024-04-25T17:10:36Z</time>
      </trkpt>
      <trkpt lat="46.73998" lon="-1.59095">
        <ele>71.8</ele>
        <time>2024-04-25T17:10:37Z</time>
      </trkpt>
      <trkpt lat="46.74" lon="-1.59095">
        <ele>71.8</ele>
        <time>2024-04-25T17:10:38Z</time>
      </trkpt>
      <trkpt lat="46.74003" lon="-1.59095">
        <ele>71.8</ele>
        <time>2024-04-25T17:10:39Z</time>
      </trkpt>
      <trkpt lat="46.74005" lon="-1.59094">
        <ele>71.8</ele>
        <time>2024-04-25T17:10:40Z</time>
      </trkpt>
      <trkpt lat="46.74008" lon="-1.59093">
        <ele>71.8</ele>
        <time>2024-04-25T17:10:41Z</time>
      </trkpt>
      <trkpt lat="46.74011" lon="-1.59091">
        <ele>71.8</ele>
        <time>2024-04-25T17:10:42Z</time>
      </trkpt>
      <trkpt lat="46.74016" lon="-1.59089">
        <ele>72</ele>
        <time>2024-04-25T17:10:43Z</time>
      </trkpt>
      <trkpt lat="46.74018" lon="-1.59088">
        <ele>72</ele>
        <time>2024-04-25T17:10:44Z</time>
      </trkpt>
      <trkpt lat="46.74022" lon="-1.59087">
        <ele>72</ele>
        <time>2024-04-25T17:10:45Z</time>
      </trkpt>
      <trkpt lat="46.74027" lon="-1.59089">
        <ele>72</ele>
        <time>2024-04-25T17:10:46Z</time>
      </trkpt>
      <trkpt lat="46.74028" lon="-1.59091">
        <ele>71.8</ele>
        <time>2024-04-25T17:10:47Z</time>
      </trkpt>
      <trkpt lat="46.7403" lon="-1.59096">
        <ele>71.4</ele>
        <time>2024-04-25T17:10:48Z</time>
      </trkpt>
      <trkpt lat="46.74031" lon="-1.59103">
        <ele>71.4</ele>
        <time>2024-04-25T17:10:49Z</time>
      </trkpt>
      <trkpt lat="46.74032" lon="-1.5911">
        <ele>71.2</ele>
        <time>2024-04-25T17:10:50Z</time>
      </trkpt>
      <trkpt lat="46.74032" lon="-1.59118">
        <ele>71</ele>
        <time>2024-04-25T17:10:51Z</time>
      </trkpt>
      <trkpt lat="46.74032" lon="-1.59126">
        <ele>71</ele>
        <time>2024-04-25T17:10:52Z</time>
      </trkpt>
      <trkpt lat="46.74032" lon="-1.59133">
        <ele>71.2</ele>
        <time>2024-04-25T17:10:53Z</time>
      </trkpt>
      <trkpt lat="46.74031" lon="-1.59143">
        <ele>71.2</ele>
        <time>2024-04-25T17:10:54Z</time>
      </trkpt>
      <trkpt lat="46.74031" lon="-1.59151">
        <ele>71.2</ele>
        <time>2024-04-25T17:10:55Z</time>
      </trkpt>
      <trkpt lat="46.74031" lon="-1.59158">
        <ele>71.2</ele>
        <time>2024-04-25T17:10:56Z</time>
      </trkpt>
      <trkpt lat="46.74031" lon="-1.59163">
        <ele>71.2</ele>
        <time>2024-04-25T17:10:57Z</time>
      </trkpt>
      <trkpt lat="46.74032" lon="-1.59168">
        <ele>71.2</ele>
        <time>2024-04-25T17:10:58Z</time>
      </trkpt>
      <trkpt lat="46.74035" lon="-1.59171">
        <ele>71.2</ele>
        <time>2024-04-25T17:10:59Z</time>
      </trkpt>
      <trkpt lat="46.74039" lon="-1.59173">
        <ele>71.4</ele>
        <time>2024-04-25T17:11:00Z</time>
      </trkpt>
      <trkpt lat="46.74043" lon="-1.59173">
        <ele>71.4</ele>
        <time>2024-04-25T17:11:01Z</time>
      </trkpt>
      <trkpt lat="46.74048" lon="-1.59174">
        <ele>71.4</ele>
        <time>2024-04-25T17:11:02Z</time>
      </trkpt>
      <trkpt lat="46.74054" lon="-1.59174">
        <ele>71.4</ele>
        <time>2024-04-25T17:11:03Z</time>
      </trkpt>
      <trkpt lat="46.74059" lon="-1.59175">
        <ele>71.4</ele>
        <time>2024-04-25T17:11:04Z</time>
      </trkpt>
      <trkpt lat="46.74063" lon="-1.59176">
        <ele>71.6</ele>
        <time>2024-04-25T17:11:05Z</time>
      </trkpt>
      <trkpt lat="46.74068" lon="-1.59177">
        <ele>71.6</ele>
        <time>2024-04-25T17:11:06Z</time>
      </trkpt>
      <trkpt lat="46.74073" lon="-1.59178">
        <ele>71.8</ele>
        <time>2024-04-25T17:11:07Z</time>
      </trkpt>
      <trkpt lat="46.74077" lon="-1.59179">
        <ele>71.8</ele>
        <time>2024-04-25T17:11:08Z</time>
      </trkpt>
      <trkpt lat="46.74081" lon="-1.5918">
        <ele>71.8</ele>
        <time>2024-04-25T17:11:09Z</time>
      </trkpt>
      <trkpt lat="46.74085" lon="-1.59181">
        <ele>71.8</ele>
        <time>2024-04-25T17:11:10Z</time>
      </trkpt>
      <trkpt lat="46.74088" lon="-1.59184">
        <ele>71.8</ele>
        <time>2024-04-25T17:11:11Z</time>
      </trkpt>
      <trkpt lat="46.7409" lon="-1.59189">
        <ele>71.8</ele>
        <time>2024-04-25T17:11:12Z</time>
      </trkpt>
      <trkpt lat="46.7409" lon="-1.59194">
        <ele>71.8</ele>
        <time>2024-04-25T17:11:13Z</time>
      </trkpt>
      <trkpt lat="46.7409" lon="-1.59201">
        <ele>71.8</ele>
        <time>2024-04-25T17:11:14Z</time>
      </trkpt>
      <trkpt lat="46.74088" lon="-1.59208">
        <ele>71.6</ele>
        <time>2024-04-25T17:11:15Z</time>
      </trkpt>
      <trkpt lat="46.74087" lon="-1.59216">
        <ele>71.6</ele>
        <time>2024-04-25T17:11:16Z</time>
      </trkpt>
      <trkpt lat="46.74085" lon="-1.59223">
        <ele>71.8</ele>
        <time>2024-04-25T17:11:17Z</time>
      </trkpt>
      <trkpt lat="46.74084" lon="-1.59231">
        <ele>72</ele>
        <time>2024-04-25T17:11:19Z</time>
      </trkpt>
      <trkpt lat="46.74083" lon="-1.59238">
        <ele>72</ele>
        <time>2024-04-25T17:11:20Z</time>
      </trkpt>
      <trkpt lat="46.74082" lon="-1.59245">
        <ele>72</ele>
        <time>2024-04-25T17:11:21Z</time>
      </trkpt>
      <trkpt lat="46.74081" lon="-1.59251">
        <ele>72.2</ele>
        <time>2024-04-25T17:11:22Z</time>
      </trkpt>
      <trkpt lat="46.7408" lon="-1.59258">
        <ele>72</ele>
        <time>2024-04-25T17:11:23Z</time>
      </trkpt>
      <trkpt lat="46.74079" lon="-1.59265">
        <ele>72</ele>
        <time>2024-04-25T17:11:24Z</time>
      </trkpt>
      <trkpt lat="46.74078" lon="-1.59273">
        <ele>72</ele>
        <time>2024-04-25T17:11:25Z</time>
      </trkpt>
      <trkpt lat="46.74077" lon="-1.5928">
        <ele>72</ele>
        <time>2024-04-25T17:11:26Z</time>
      </trkpt>
      <trkpt lat="46.74076" lon="-1.59287">
        <ele>72</ele>
        <time>2024-04-25T17:11:27Z</time>
      </trkpt>
      <trkpt lat="46.74075" lon="-1.59294">
        <ele>72</ele>
        <time>2024-04-25T17:11:28Z</time>
      </trkpt>
      <trkpt lat="46.74074" lon="-1.59301">
        <ele>72</ele>
        <time>2024-04-25T17:11:29Z</time>
      </trkpt>
      <trkpt lat="46.74073" lon="-1.59308">
        <ele>72</ele>
        <time>2024-04-25T17:11:30Z</time>
      </trkpt>
      <trkpt lat="46.74072" lon="-1.59316">
        <ele>72</ele>
        <time>2024-04-25T17:11:31Z</time>
      </trkpt>
      <trkpt lat="46.74071" lon="-1.59323">
        <ele>72</ele>
        <time>2024-04-25T17:11:32Z</time>
      </trkpt>
      <trkpt lat="46.7407" lon="-1.5933">
        <ele>72</ele>
        <time>2024-04-25T17:11:33Z</time>
      </trkpt>
      <trkpt lat="46.74069" lon="-1.59337">
        <ele>71.8</ele>
        <time>2024-04-25T17:11:34Z</time>
      </trkpt>
      <trkpt lat="46.74069" lon="-1.59343">
        <ele>71.8</ele>
        <time>2024-04-25T17:11:35Z</time>
      </trkpt>
      <trkpt lat="46.74068" lon="-1.59349">
        <ele>71.8</ele>
        <time>2024-04-25T17:11:36Z</time>
      </trkpt>
      <trkpt lat="46.74068" lon="-1.59355">
        <ele>71.8</ele>
        <time>2024-04-25T17:11:37Z</time>
      </trkpt>
      <trkpt lat="46.74067" lon="-1.5936">
        <ele>71.8</ele>
        <time>2024-04-25T17:11:38Z</time>
      </trkpt>
      <trkpt lat="46.74067" lon="-1.59365">
        <ele>71.8</ele>
        <time>2024-04-25T17:11:39Z</time>
      </trkpt>
      <trkpt lat="46.74069" lon="-1.59368">
        <ele>71.8</ele>
        <time>2024-04-25T17:11:40Z</time>
      </trkpt>
      <trkpt lat="46.74072" lon="-1.5937">
        <ele>71.8</ele>
        <time>2024-04-25T17:11:41Z</time>
      </trkpt>
      <trkpt lat="46.74075" lon="-1.59369">
        <ele>71.8</ele>
        <time>2024-04-25T17:11:42Z</time>
      </trkpt>
      <trkpt lat="46.7408" lon="-1.59367">
        <ele>71.8</ele>
        <time>2024-04-25T17:11:43Z</time>
      </trkpt>
      <trkpt lat="46.74085" lon="-1.59364">
        <ele>71.8</ele>
        <time>2024-04-25T17:11:44Z</time>
      </trkpt>
      <trkpt lat="46.74091" lon="-1.59362">
        <ele>71.8</ele>
        <time>2024-04-25T17:11:45Z</time>
      </trkpt>
      <trkpt lat="46.74096" lon="-1.59359">
        <ele>71.8</ele>
        <time>2024-04-25T17:11:46Z</time>
      </trkpt>
      <trkpt lat="46.74104" lon="-1.59356">
        <ele>72</ele>
        <time>2024-04-25T17:11:47Z</time>
      </trkpt>
      <trkpt lat="46.74106" lon="-1.59355">
        <ele>72</ele>
        <time>2024-04-25T17:11:48Z</time>
      </trkpt>
      <trkpt lat="46.74112" lon="-1.59353">
        <ele>72</ele>
        <time>2024-04-25T17:11:49Z</time>
      </trkpt>
      <trkpt lat="46.74117" lon="-1.59351">
        <ele>72.2</ele>
        <time>2024-04-25T17:11:50Z</time>
      </trkpt>
      <trkpt lat="46.74122" lon="-1.59349">
        <ele>72.2</ele>
        <time>2024-04-25T17:11:51Z</time>
      </trkpt>
      <trkpt lat="46.74127" lon="-1.59347">
        <ele>72.2</ele>
        <time>2024-04-25T17:11:52Z</time>
      </trkpt>
      <trkpt lat="46.74132" lon="-1.59346">
        <ele>72.2</ele>
        <time>2024-04-25T17:11:53Z</time>
      </trkpt>
      <trkpt lat="46.74137" lon="-1.59344">
        <ele>72.2</ele>
        <time>2024-04-25T17:11:54Z</time>
      </trkpt>
      <trkpt lat="46.74142" lon="-1.59343">
        <ele>72.2</ele>
        <time>2024-04-25T17:11:55Z</time>
      </trkpt>
      <trkpt lat="46.74147" lon="-1.59341">
        <ele>72.4</ele>
        <time>2024-04-25T17:11:56Z</time>
      </trkpt>
      <trkpt lat="46.74151" lon="-1.59339">
        <ele>72.4</ele>
        <time>2024-04-25T17:11:57Z</time>
      </trkpt>
      <trkpt lat="46.74156" lon="-1.59337">
        <ele>72.4</ele>
        <time>2024-04-25T17:11:58Z</time>
      </trkpt>
      <trkpt lat="46.74161" lon="-1.59335">
        <ele>72.4</ele>
        <time>2024-04-25T17:11:59Z</time>
      </trkpt>
      <trkpt lat="46.74166" lon="-1.59333">
        <ele>72.4</ele>
        <time>2024-04-25T17:12:00Z</time>
      </trkpt>
      <trkpt lat="46.7417" lon="-1.59331">
        <ele>72.4</ele>
        <time>2024-04-25T17:12:01Z</time>
      </trkpt>
      <trkpt lat="46.74175" lon="-1.59329">
        <ele>72.4</ele>
        <time>2024-04-25T17:12:02Z</time>
      </trkpt>
      <trkpt lat="46.7418" lon="-1.59327">
        <ele>72.6</ele>
        <time>2024-04-25T17:12:03Z</time>
      </trkpt>
      <trkpt lat="46.74184" lon="-1.59325">
        <ele>72.6</ele>
        <time>2024-04-25T17:12:04Z</time>
      </trkpt>
      <trkpt lat="46.74189" lon="-1.59323">
        <ele>72.6</ele>
        <time>2024-04-25T17:12:05Z</time>
      </trkpt>
      <trkpt lat="46.74195" lon="-1.59321">
        <ele>72.6</ele>
        <time>2024-04-25T17:12:06Z</time>
      </trkpt>
      <trkpt lat="46.74201" lon="-1.5932">
        <ele>72.6</ele>
        <time>2024-04-25T17:12:07Z</time>
      </trkpt>
      <trkpt lat="46.74206" lon="-1.59318">
        <ele>72.6</ele>
        <time>2024-04-25T17:12:08Z</time>
      </trkpt>
      <trkpt lat="46.74211" lon="-1.59316">
        <ele>72.6</ele>
        <time>2024-04-25T17:12:09Z</time>
      </trkpt>
      <trkpt lat="46.74219" lon="-1.59313">
        <ele>72.6</ele>
        <time>2024-04-25T17:12:10Z</time>
      </trkpt>
      <trkpt lat="46.74221" lon="-1.59312">
        <ele>72.6</ele>
        <time>2024-04-25T17:12:11Z</time>
      </trkpt>
      <trkpt lat="46.74226" lon="-1.5931">
        <ele>72.6</ele>
        <time>2024-04-25T17:12:12Z</time>
      </trkpt>
      <trkpt lat="46.74234" lon="-1.59307">
        <ele>72.6</ele>
        <time>2024-04-25T17:12:13Z</time>
      </trkpt>
      <trkpt lat="46.74236" lon="-1.59306">
        <ele>72.6</ele>
        <time>2024-04-25T17:12:14Z</time>
      </trkpt>
      <trkpt lat="46.74244" lon="-1.59304">
        <ele>72.6</ele>
        <time>2024-04-25T17:12:15Z</time>
      </trkpt>
      <trkpt lat="46.74247" lon="-1.59304">
        <ele>72.6</ele>
        <time>2024-04-25T17:12:16Z</time>
      </trkpt>
      <trkpt lat="46.74252" lon="-1.59303">
        <ele>72.8</ele>
        <time>2024-04-25T17:12:17Z</time>
      </trkpt>
      <trkpt lat="46.74257" lon="-1.59303">
        <ele>72.8</ele>
        <time>2024-04-25T17:12:18Z</time>
      </trkpt>
      <trkpt lat="46.74262" lon="-1.59304">
        <ele>72.8</ele>
        <time>2024-04-25T17:12:19Z</time>
      </trkpt>
      <trkpt lat="46.74267" lon="-1.59305">
        <ele>73</ele>
        <time>2024-04-25T17:12:20Z</time>
      </trkpt>
      <trkpt lat="46.74272" lon="-1.59306">
        <ele>73</ele>
        <time>2024-04-25T17:12:21Z</time>
      </trkpt>
      <trkpt lat="46.74277" lon="-1.59307">
        <ele>73</ele>
        <time>2024-04-25T17:12:22Z</time>
      </trkpt>
      <trkpt lat="46.74282" lon="-1.59309">
        <ele>73</ele>
        <time>2024-04-25T17:12:23Z</time>
      </trkpt>
      <trkpt lat="46.74287" lon="-1.5931">
        <ele>73</ele>
        <time>2024-04-25T17:12:24Z</time>
      </trkpt>
      <trkpt lat="46.74292" lon="-1.59312">
        <ele>73</ele>
        <time>2024-04-25T17:12:25Z</time>
      </trkpt>
      <trkpt lat="46.74297" lon="-1.59314">
        <ele>73</ele>
        <time>2024-04-25T17:12:26Z</time>
      </trkpt>
      <trkpt lat="46.74302" lon="-1.59315">
        <ele>73</ele>
        <time>2024-04-25T17:12:27Z</time>
      </trkpt>
      <trkpt lat="46.74307" lon="-1.59316">
        <ele>73</ele>
        <time>2024-04-25T17:12:28Z</time>
      </trkpt>
      <trkpt lat="46.74312" lon="-1.59318">
        <ele>73</ele>
        <time>2024-04-25T17:12:29Z</time>
      </trkpt>
      <trkpt lat="46.74317" lon="-1.5932">
        <ele>73</ele>
        <time>2024-04-25T17:12:30Z</time>
      </trkpt>
      <trkpt lat="46.74324" lon="-1.59321">
        <ele>73</ele>
        <time>2024-04-25T17:12:31Z</time>
      </trkpt>
      <trkpt lat="46.74331" lon="-1.59323">
        <ele>73</ele>
        <time>2024-04-25T17:12:32Z</time>
      </trkpt>
      <trkpt lat="46.74337" lon="-1.59324">
        <ele>73</ele>
        <time>2024-04-25T17:12:33Z</time>
      </trkpt>
      <trkpt lat="46.74341" lon="-1.59325">
        <ele>73</ele>
        <time>2024-04-25T17:12:34Z</time>
      </trkpt>
      <trkpt lat="46.74346" lon="-1.59326">
        <ele>73</ele>
        <time>2024-04-25T17:12:35Z</time>
      </trkpt>
      <trkpt lat="46.7435" lon="-1.59327">
        <ele>73</ele>
        <time>2024-04-25T17:12:36Z</time>
      </trkpt>
      <trkpt lat="46.74353" lon="-1.59328">
        <ele>73</ele>
        <time>2024-04-25T17:12:37Z</time>
      </trkpt>
      <trkpt lat="46.74357" lon="-1.59329">
        <ele>72.8</ele>
        <time>2024-04-25T17:12:38Z</time>
      </trkpt>
      <trkpt lat="46.74361" lon="-1.5933">
        <ele>72.8</ele>
        <time>2024-04-25T17:12:39Z</time>
      </trkpt>
      <trkpt lat="46.74364" lon="-1.59331">
        <ele>72.6</ele>
        <time>2024-04-25T17:12:40Z</time>
      </trkpt>
      <trkpt lat="46.7437" lon="-1.59328">
        <ele>72.6</ele>
        <time>2024-04-25T17:12:41Z</time>
      </trkpt>
      <trkpt lat="46.74371" lon="-1.59326">
        <ele>72.4</ele>
        <time>2024-04-25T17:12:42Z</time>
      </trkpt>
      <trkpt lat="46.74375" lon="-1.5932">
        <ele>72.2</ele>
        <time>2024-04-25T17:12:43Z</time>
      </trkpt>
      <trkpt lat="46.74378" lon="-1.59312">
        <ele>72</ele>
        <time>2024-04-25T17:12:44Z</time>
      </trkpt>
      <trkpt lat="46.7438" lon="-1.59304">
        <ele>72</ele>
        <time>2024-04-25T17:12:45Z</time>
      </trkpt>
      <trkpt lat="46.74381" lon="-1.59295">
        <ele>71.8</ele>
        <time>2024-04-25T17:12:46Z</time>
      </trkpt>
      <trkpt lat="46.74383" lon="-1.59287">
        <ele>71.8</ele>
        <time>2024-04-25T17:12:47Z</time>
      </trkpt>
      <trkpt lat="46.74384" lon="-1.59279">
        <ele>71.8</ele>
        <time>2024-04-25T17:12:48Z</time>
      </trkpt>
      <trkpt lat="46.74385" lon="-1.59271">
        <ele>72</ele>
        <time>2024-04-25T17:12:49Z</time>
      </trkpt>
      <trkpt lat="46.74386" lon="-1.59264">
        <ele>72</ele>
        <time>2024-04-25T17:12:50Z</time>
      </trkpt>
      <trkpt lat="46.74388" lon="-1.59257">
        <ele>72</ele>
        <time>2024-04-25T17:12:52Z</time>
      </trkpt>
      <trkpt lat="46.74389" lon="-1.5925">
        <ele>72</ele>
        <time>2024-04-25T17:12:53Z</time>
      </trkpt>
      <trkpt lat="46.74391" lon="-1.59243">
        <ele>72</ele>
        <time>2024-04-25T17:12:54Z</time>
      </trkpt>
      <trkpt lat="46.74393" lon="-1.59237">
        <ele>72</ele>
        <time>2024-04-25T17:12:55Z</time>
      </trkpt>
      <trkpt lat="46.74394" lon="-1.5923">
        <ele>72</ele>
        <time>2024-04-25T17:12:56Z</time>
      </trkpt>
      <trkpt lat="46.74396" lon="-1.59223">
        <ele>72</ele>
        <time>2024-04-25T17:12:57Z</time>
      </trkpt>
      <trkpt lat="46.74398" lon="-1.59216">
        <ele>72</ele>
        <time>2024-04-25T17:12:58Z</time>
      </trkpt>
      <trkpt lat="46.744" lon="-1.59209">
        <ele>72</ele>
        <time>2024-04-25T17:12:59Z</time>
      </trkpt>
      <trkpt lat="46.74402" lon="-1.59202">
        <ele>72</ele>
        <time>2024-04-25T17:13:00Z</time>
      </trkpt>
      <trkpt lat="46.74404" lon="-1.59194">
        <ele>72</ele>
        <time>2024-04-25T17:13:01Z</time>
      </trkpt>
      <trkpt lat="46.74406" lon="-1.59187">
        <ele>72</ele>
        <time>2024-04-25T17:13:02Z</time>
      </trkpt>
      <trkpt lat="46.74407" lon="-1.5918">
        <ele>72</ele>
        <time>2024-04-25T17:13:03Z</time>
      </trkpt>
      <trkpt lat="46.74409" lon="-1.59172">
        <ele>72</ele>
        <time>2024-04-25T17:13:04Z</time>
      </trkpt>
      <trkpt lat="46.74411" lon="-1.59164">
        <ele>72</ele>
        <time>2024-04-25T17:13:05Z</time>
      </trkpt>
      <trkpt lat="46.74414" lon="-1.59156">
        <ele>72</ele>
        <time>2024-04-25T17:13:06Z</time>
      </trkpt>
      <trkpt lat="46.74416" lon="-1.59149">
        <ele>72</ele>
        <time>2024-04-25T17:13:07Z</time>
      </trkpt>
      <trkpt lat="46.74418" lon="-1.59141">
        <ele>72</ele>
        <time>2024-04-25T17:13:08Z</time>
      </trkpt>
      <trkpt lat="46.7442" lon="-1.59134">
        <ele>72</ele>
        <time>2024-04-25T17:13:09Z</time>
      </trkpt>
      <trkpt lat="46.74422" lon="-1.59126">
        <ele>72</ele>
        <time>2024-04-25T17:13:10Z</time>
      </trkpt>
      <trkpt lat="46.74424" lon="-1.59119">
        <ele>72</ele>
        <time>2024-04-25T17:13:11Z</time>
      </trkpt>
      <trkpt lat="46.74427" lon="-1.59112">
        <ele>72</ele>
        <time>2024-04-25T17:13:12Z</time>
      </trkpt>
      <trkpt lat="46.74429" lon="-1.59105">
        <ele>72</ele>
        <time>2024-04-25T17:13:13Z</time>
      </trkpt>
      <trkpt lat="46.74431" lon="-1.59097">
        <ele>72</ele>
        <time>2024-04-25T17:13:14Z</time>
      </trkpt>
      <trkpt lat="46.74433" lon="-1.5909">
        <ele>72</ele>
        <time>2024-04-25T17:13:15Z</time>
      </trkpt>
      <trkpt lat="46.74435" lon="-1.59083">
        <ele>72</ele>
        <time>2024-04-25T17:13:16Z</time>
      </trkpt>
      <trkpt lat="46.74436" lon="-1.59076">
        <ele>72</ele>
        <time>2024-04-25T17:13:17Z</time>
      </trkpt>
      <trkpt lat="46.74438" lon="-1.5907">
        <ele>72</ele>
        <time>2024-04-25T17:13:18Z</time>
      </trkpt>
      <trkpt lat="46.7444" lon="-1.59063">
        <ele>72</ele>
        <time>2024-04-25T17:13:19Z</time>
      </trkpt>
      <trkpt lat="46.74442" lon="-1.59057">
        <ele>72</ele>
        <time>2024-04-25T17:13:20Z</time>
      </trkpt>
      <trkpt lat="46.74444" lon="-1.59052">
        <ele>72</ele>
        <time>2024-04-25T17:13:21Z</time>
      </trkpt>
      <trkpt lat="46.74447" lon="-1.5905">
        <ele>71.8</ele>
        <time>2024-04-25T17:13:22Z</time>
      </trkpt>
      <trkpt lat="46.7445" lon="-1.59051">
        <ele>71.8</ele>
        <time>2024-04-25T17:13:23Z</time>
      </trkpt>
      <trkpt lat="46.74454" lon="-1.59055">
        <ele>71.8</ele>
        <time>2024-04-25T17:13:24Z</time>
      </trkpt>
      <trkpt lat="46.74456" lon="-1.5906">
        <ele>71.8</ele>
        <time>2024-04-25T17:13:25Z</time>
      </trkpt>
      <trkpt lat="46.74459" lon="-1.59067">
        <ele>71.8</ele>
        <time>2024-04-25T17:13:26Z</time>
      </trkpt>
      <trkpt lat="46.74461" lon="-1.59074">
        <ele>72</ele>
        <time>2024-04-25T17:13:27Z</time>
      </trkpt>
      <trkpt lat="46.74462" lon="-1.59081">
        <ele>72</ele>
        <time>2024-04-25T17:13:28Z</time>
      </trkpt>
      <trkpt lat="46.74463" lon="-1.59089">
        <ele>72</ele>
        <time>2024-04-25T17:13:29Z</time>
      </trkpt>
      <trkpt lat="46.74464" lon="-1.59096">
        <ele>72</ele>
        <time>2024-04-25T17:13:30Z</time>
      </trkpt>
      <trkpt lat="46.74465" lon="-1.59103">
        <ele>72.2</ele>
        <time>2024-04-25T17:13:31Z</time>
      </trkpt>
      <trkpt lat="46.74467" lon="-1.59109">
        <ele>72.2</ele>
        <time>2024-04-25T17:13:32Z</time>
      </trkpt>
      <trkpt lat="46.74469" lon="-1.59115">
        <ele>72.4</ele>
        <time>2024-04-25T17:13:33Z</time>
      </trkpt>
      <trkpt lat="46.74472" lon="-1.59121">
        <ele>72.4</ele>
        <time>2024-04-25T17:13:34Z</time>
      </trkpt>
      <trkpt lat="46.74475" lon="-1.59127">
        <ele>72.6</ele>
        <time>2024-04-25T17:13:35Z</time>
      </trkpt>
      <trkpt lat="46.74477" lon="-1.59133">
        <ele>72.8</ele>
        <time>2024-04-25T17:13:36Z</time>
      </trkpt>
      <trkpt lat="46.7448" lon="-1.59139">
        <ele>72.8</ele>
        <time>2024-04-25T17:13:37Z</time>
      </trkpt>
      <trkpt lat="46.74483" lon="-1.59144">
        <ele>73</ele>
        <time>2024-04-25T17:13:38Z</time>
      </trkpt>
      <trkpt lat="46.74486" lon="-1.5915">
        <ele>72.8</ele>
        <time>2024-04-25T17:13:39Z</time>
      </trkpt>
      <trkpt lat="46.74488" lon="-1.59155">
        <ele>72.8</ele>
        <time>2024-04-25T17:13:40Z</time>
      </trkpt>
      <trkpt lat="46.74491" lon="-1.5916">
        <ele>72.8</ele>
        <time>2024-04-25T17:13:41Z</time>
      </trkpt>
      <trkpt lat="46.74494" lon="-1.59162">
        <ele>72.8</ele>
        <time>2024-04-25T17:13:42Z</time>
      </trkpt>
      <trkpt lat="46.74497" lon="-1.59161">
        <ele>72.8</ele>
        <time>2024-04-25T17:13:43Z</time>
      </trkpt>
      <trkpt lat="46.745" lon="-1.59158">
        <ele>72.8</ele>
        <time>2024-04-25T17:13:44Z</time>
      </trkpt>
      <trkpt lat="46.74503" lon="-1.59153">
        <ele>72.8</ele>
        <time>2024-04-25T17:13:45Z</time>
      </trkpt>
      <trkpt lat="46.74506" lon="-1.59147">
        <ele>72.6</ele>
        <time>2024-04-25T17:13:46Z</time>
      </trkpt>
      <trkpt lat="46.74511" lon="-1.59138">
        <ele>72.6</ele>
        <time>2024-04-25T17:13:47Z</time>
      </trkpt>
      <trkpt lat="46.74512" lon="-1.59134">
        <ele>72.6</ele>
        <time>2024-04-25T17:13:48Z</time>
      </trkpt>
      <trkpt lat="46.74515" lon="-1.59128">
        <ele>72.6</ele>
        <time>2024-04-25T17:13:49Z</time>
      </trkpt>
      <trkpt lat="46.74518" lon="-1.59122">
        <ele>72.6</ele>
        <time>2024-04-25T17:13:50Z</time>
      </trkpt>
      <trkpt lat="46.74522" lon="-1.59113">
        <ele>72.6</ele>
        <time>2024-04-25T17:13:51Z</time>
      </trkpt>
      <trkpt lat="46.74523" lon="-1.5911">
        <ele>72.6</ele>
        <time>2024-04-25T17:13:52Z</time>
      </trkpt>
      <trkpt lat="46.74526" lon="-1.59104">
        <ele>72.6</ele>
        <time>2024-04-25T17:13:53Z</time>
      </trkpt>
      <trkpt lat="46.74529" lon="-1.59099">
        <ele>72.6</ele>
        <time>2024-04-25T17:13:54Z</time>
      </trkpt>
      <trkpt lat="46.74531" lon="-1.59093">
        <ele>72.6</ele>
        <time>2024-04-25T17:13:55Z</time>
      </trkpt>
      <trkpt lat="46.74534" lon="-1.59088">
        <ele>72.6</ele>
        <time>2024-04-25T17:13:56Z</time>
      </trkpt>
      <trkpt lat="46.74537" lon="-1.59082">
        <ele>72.4</ele>
        <time>2024-04-25T17:13:57Z</time>
      </trkpt>
      <trkpt lat="46.7454" lon="-1.59076">
        <ele>72.4</ele>
        <time>2024-04-25T17:13:58Z</time>
      </trkpt>
      <trkpt lat="46.74543" lon="-1.5907">
        <ele>72.2</ele>
        <time>2024-04-25T17:13:59Z</time>
      </trkpt>
      <trkpt lat="46.74546" lon="-1.59065">
        <ele>72.2</ele>
        <time>2024-04-25T17:14:00Z</time>
      </trkpt>
      <trkpt lat="46.7455" lon="-1.59056">
        <ele>72.2</ele>
        <time>2024-04-25T17:14:01Z</time>
      </trkpt>
      <trkpt lat="46.74551" lon="-1.59054">
        <ele>72.2</ele>
        <time>2024-04-25T17:14:02Z</time>
      </trkpt>
      <trkpt lat="46.74554" lon="-1.59048">
        <ele>72.2</ele>
        <time>2024-04-25T17:14:03Z</time>
      </trkpt>
      <trkpt lat="46.74557" lon="-1.59042">
        <ele>72.2</ele>
        <time>2024-04-25T17:14:04Z</time>
      </trkpt>
      <trkpt lat="46.7456" lon="-1.59036">
        <ele>72</ele>
        <time>2024-04-25T17:14:05Z</time>
      </trkpt>
      <trkpt lat="46.74562" lon="-1.59031">
        <ele>72</ele>
        <time>2024-04-25T17:14:06Z</time>
      </trkpt>
      <trkpt lat="46.74565" lon="-1.59026">
        <ele>72</ele>
        <time>2024-04-25T17:14:07Z</time>
      </trkpt>
      <trkpt lat="46.74567" lon="-1.59021">
        <ele>72</ele>
        <time>2024-04-25T17:14:08Z</time>
      </trkpt>
      <trkpt lat="46.7457" lon="-1.59015">
        <ele>72</ele>
        <time>2024-04-25T17:14:09Z</time>
      </trkpt>
      <trkpt lat="46.74572" lon="-1.5901">
        <ele>72</ele>
        <time>2024-04-25T17:14:10Z</time>
      </trkpt>
      <trkpt lat="46.74574" lon="-1.59005">
        <ele>71.8</ele>
        <time>2024-04-25T17:14:11Z</time>
      </trkpt>
      <trkpt lat="46.74576" lon="-1.59">
        <ele>71.8</ele>
        <time>2024-04-25T17:14:12Z</time>
      </trkpt>
      <trkpt lat="46.74578" lon="-1.58995">
        <ele>71.8</ele>
        <time>2024-04-25T17:14:13Z</time>
      </trkpt>
      <trkpt lat="46.74582" lon="-1.58989">
        <ele>71.8</ele>
        <time>2024-04-25T17:14:14Z</time>
      </trkpt>
      <trkpt lat="46.74585" lon="-1.58983">
        <ele>71.8</ele>
        <time>2024-04-25T17:14:15Z</time>
      </trkpt>
      <trkpt lat="46.74589" lon="-1.58975">
        <ele>71.6</ele>
        <time>2024-04-25T17:14:16Z</time>
      </trkpt>
      <trkpt lat="46.7459" lon="-1.58972">
        <ele>71.6</ele>
        <time>2024-04-25T17:14:17Z</time>
      </trkpt>
      <trkpt lat="46.74592" lon="-1.58967">
        <ele>71.6</ele>
        <time>2024-04-25T17:14:18Z</time>
      </trkpt>
      <trkpt lat="46.74594" lon="-1.58963">
        <ele>71.6</ele>
        <time>2024-04-25T17:14:19Z</time>
      </trkpt>
      <trkpt lat="46.74596" lon="-1.58959">
        <ele>71.6</ele>
        <time>2024-04-25T17:14:20Z</time>
      </trkpt>
      <trkpt lat="46.74597" lon="-1.58955">
        <ele>71.6</ele>
        <time>2024-04-25T17:14:21Z</time>
      </trkpt>
      <trkpt lat="46.746" lon="-1.58952">
        <ele>71.8</ele>
        <time>2024-04-25T17:14:22Z</time>
      </trkpt>
      <trkpt lat="46.74602" lon="-1.58952">
        <ele>71.8</ele>
        <time>2024-04-25T17:14:23Z</time>
      </trkpt>
      <trkpt lat="46.74605" lon="-1.58954">
        <ele>71.8</ele>
        <time>2024-04-25T17:14:24Z</time>
      </trkpt>
      <trkpt lat="46.74607" lon="-1.58959">
        <ele>71.8</ele>
        <time>2024-04-25T17:14:25Z</time>
      </trkpt>
      <trkpt lat="46.74609" lon="-1.58965">
        <ele>71.8</ele>
        <time>2024-04-25T17:14:26Z</time>
      </trkpt>
      <trkpt lat="46.74612" lon="-1.58971">
        <ele>71.8</ele>
        <time>2024-04-25T17:14:27Z</time>
      </trkpt>
      <trkpt lat="46.74614" lon="-1.58978">
        <ele>71.8</ele>
        <time>2024-04-25T17:14:28Z</time>
      </trkpt>
      <trkpt lat="46.74617" lon="-1.58984">
        <ele>71.8</ele>
        <time>2024-04-25T17:14:29Z</time>
      </trkpt>
      <trkpt lat="46.7462" lon="-1.5899">
        <ele>71.8</ele>
        <time>2024-04-25T17:14:30Z</time>
      </trkpt>
      <trkpt lat="46.74622" lon="-1.58995">
        <ele>71.8</ele>
        <time>2024-04-25T17:14:31Z</time>
      </trkpt>
      <trkpt lat="46.74625" lon="-1.59">
        <ele>71.8</ele>
        <time>2024-04-25T17:14:32Z</time>
      </trkpt>
      <trkpt lat="46.74627" lon="-1.59005">
        <ele>71.8</ele>
        <time>2024-04-25T17:14:33Z</time>
      </trkpt>
      <trkpt lat="46.7463" lon="-1.5901">
        <ele>71.8</ele>
        <time>2024-04-25T17:14:34Z</time>
      </trkpt>
      <trkpt lat="46.74633" lon="-1.59016">
        <ele>71.8</ele>
        <time>2024-04-25T17:14:35Z</time>
      </trkpt>
      <trkpt lat="46.74635" lon="-1.59022">
        <ele>71.8</ele>
        <time>2024-04-25T17:14:37Z</time>
      </trkpt>
      <trkpt lat="46.74638" lon="-1.59028">
        <ele>71.8</ele>
        <time>2024-04-25T17:14:38Z</time>
      </trkpt>
      <trkpt lat="46.7464" lon="-1.59034">
        <ele>71.8</ele>
        <time>2024-04-25T17:14:39Z</time>
      </trkpt>
      <trkpt lat="46.74643" lon="-1.5904">
        <ele>71.6</ele>
        <time>2024-04-25T17:14:40Z</time>
      </trkpt>
      <trkpt lat="46.74645" lon="-1.59047">
        <ele>71.6</ele>
        <time>2024-04-25T17:14:41Z</time>
      </trkpt>
      <trkpt lat="46.74647" lon="-1.59053">
        <ele>71.4</ele>
        <time>2024-04-25T17:14:42Z</time>
      </trkpt>
      <trkpt lat="46.74649" lon="-1.59059">
        <ele>71.4</ele>
        <time>2024-04-25T17:14:43Z</time>
      </trkpt>
      <trkpt lat="46.74651" lon="-1.59065">
        <ele>71.4</ele>
        <time>2024-04-25T17:14:44Z</time>
      </trkpt>
      <trkpt lat="46.74653" lon="-1.5907">
        <ele>71.4</ele>
        <time>2024-04-25T17:14:45Z</time>
      </trkpt>
      <trkpt lat="46.74655" lon="-1.59075">
        <ele>71.4</ele>
        <time>2024-04-25T17:14:46Z</time>
      </trkpt>
      <trkpt lat="46.74657" lon="-1.59077">
        <ele>71.4</ele>
        <time>2024-04-25T17:14:47Z</time>
      </trkpt>
      <trkpt lat="46.7466" lon="-1.59077">
        <ele>71.2</ele>
        <time>2024-04-25T17:14:48Z</time>
      </trkpt>
      <trkpt lat="46.74664" lon="-1.59074">
        <ele>71.2</ele>
        <time>2024-04-25T17:14:49Z</time>
      </trkpt>
      <trkpt lat="46.74667" lon="-1.5907">
        <ele>71.2</ele>
        <time>2024-04-25T17:14:50Z</time>
      </trkpt>
      <trkpt lat="46.74671" lon="-1.59065">
        <ele>71.2</ele>
        <time>2024-04-25T17:14:51Z</time>
      </trkpt>
      <trkpt lat="46.74674" lon="-1.5906">
        <ele>71</ele>
        <time>2024-04-25T17:14:52Z</time>
      </trkpt>
      <trkpt lat="46.74678" lon="-1.59055">
        <ele>71</ele>
        <time>2024-04-25T17:14:53Z</time>
      </trkpt>
      <trkpt lat="46.74681" lon="-1.5905">
        <ele>70.8</ele>
        <time>2024-04-25T17:14:54Z</time>
      </trkpt>
      <trkpt lat="46.74685" lon="-1.59044">
        <ele>70.8</ele>
        <time>2024-04-25T17:14:55Z</time>
      </trkpt>
      <trkpt lat="46.74688" lon="-1.59038">
        <ele>70.8</ele>
        <time>2024-04-25T17:14:56Z</time>
      </trkpt>
      <trkpt lat="46.74691" lon="-1.59031">
        <ele>70.6</ele>
        <time>2024-04-25T17:14:57Z</time>
      </trkpt>
      <trkpt lat="46.74693" lon="-1.59025">
        <ele>70.6</ele>
        <time>2024-04-25T17:14:58Z</time>
      </trkpt>
      <trkpt lat="46.74696" lon="-1.59017">
        <ele>70.6</ele>
        <time>2024-04-25T17:14:59Z</time>
      </trkpt>
      <trkpt lat="46.74698" lon="-1.5901">
        <ele>70.6</ele>
        <time>2024-04-25T17:15:00Z</time>
      </trkpt>
      <trkpt lat="46.747" lon="-1.59003">
        <ele>70.6</ele>
        <time>2024-04-25T17:15:01Z</time>
      </trkpt>
      <trkpt lat="46.74702" lon="-1.58995">
        <ele>70.4</ele>
        <time>2024-04-25T17:15:02Z</time>
      </trkpt>
      <trkpt lat="46.74703" lon="-1.58988">
        <ele>70.2</ele>
        <time>2024-04-25T17:15:03Z</time>
      </trkpt>
      <trkpt lat="46.74704" lon="-1.5898">
        <ele>70.2</ele>
        <time>2024-04-25T17:15:04Z</time>
      </trkpt>
      <trkpt lat="46.74704" lon="-1.58972">
        <ele>70.2</ele>
        <time>2024-04-25T17:15:05Z</time>
      </trkpt>
      <trkpt lat="46.74705" lon="-1.58964">
        <ele>70.2</ele>
        <time>2024-04-25T17:15:06Z</time>
      </trkpt>
      <trkpt lat="46.74705" lon="-1.58957">
        <ele>70</ele>
        <time>2024-04-25T17:15:07Z</time>
      </trkpt>
      <trkpt lat="46.74704" lon="-1.58949">
        <ele>70</ele>
        <time>2024-04-25T17:15:08Z</time>
      </trkpt>
      <trkpt lat="46.74704" lon="-1.58942">
        <ele>70.2</ele>
        <time>2024-04-25T17:15:09Z</time>
      </trkpt>
      <trkpt lat="46.74704" lon="-1.58936">
        <ele>70.2</ele>
        <time>2024-04-25T17:15:10Z</time>
      </trkpt>
      <trkpt lat="46.74704" lon="-1.5893">
        <ele>70.2</ele>
        <time>2024-04-25T17:15:11Z</time>
      </trkpt>
      <trkpt lat="46.74704" lon="-1.58925">
        <ele>70.2</ele>
        <time>2024-04-25T17:15:12Z</time>
      </trkpt>
      <trkpt lat="46.74705" lon="-1.58919">
        <ele>70.4</ele>
        <time>2024-04-25T17:15:13Z</time>
      </trkpt>
      <trkpt lat="46.74705" lon="-1.58914">
        <ele>70.4</ele>
        <time>2024-04-25T17:15:14Z</time>
      </trkpt>
      <trkpt lat="46.74706" lon="-1.58908">
        <ele>70.6</ele>
        <time>2024-04-25T17:15:15Z</time>
      </trkpt>
      <trkpt lat="46.74706" lon="-1.58902">
        <ele>70.6</ele>
        <time>2024-04-25T17:15:16Z</time>
      </trkpt>
      <trkpt lat="46.74707" lon="-1.58896">
        <ele>70.8</ele>
        <time>2024-04-25T17:15:17Z</time>
      </trkpt>
      <trkpt lat="46.74707" lon="-1.5889">
        <ele>70.8</ele>
        <time>2024-04-25T17:15:18Z</time>
      </trkpt>
      <trkpt lat="46.74708" lon="-1.58884">
        <ele>71</ele>
        <time>2024-04-25T17:15:19Z</time>
      </trkpt>
      <trkpt lat="46.74708" lon="-1.58878">
        <ele>71</ele>
        <time>2024-04-25T17:15:20Z</time>
      </trkpt>
      <trkpt lat="46.74709" lon="-1.58873">
        <ele>71</ele>
        <time>2024-04-25T17:15:21Z</time>
      </trkpt>
      <trkpt lat="46.74709" lon="-1.58869">
        <ele>71</ele>
        <time>2024-04-25T17:15:22Z</time>
      </trkpt>
      <trkpt lat="46.74709" lon="-1.58865">
        <ele>71.2</ele>
        <time>2024-04-25T17:15:23Z</time>
      </trkpt>
      <trkpt lat="46.74709" lon="-1.58862">
        <ele>71.2</ele>
        <time>2024-04-25T17:15:24Z</time>
      </trkpt>
      <trkpt lat="46.74709" lon="-1.58859">
        <ele>71.2</ele>
        <time>2024-04-25T17:15:25Z</time>
      </trkpt>
      <trkpt lat="46.74708" lon="-1.58856">
        <ele>71.2</ele>
        <time>2024-04-25T17:15:26Z</time>
      </trkpt>
      <trkpt lat="46.74707" lon="-1.58852">
        <ele>71.4</ele>
        <time>2024-04-25T17:15:27Z</time>
      </trkpt>
      <trkpt lat="46.74706" lon="-1.58848">
        <ele>71.4</ele>
        <time>2024-04-25T17:15:28Z</time>
      </trkpt>
      <trkpt lat="46.74705" lon="-1.58841">
        <ele>71.4</ele>
        <time>2024-04-25T17:15:29Z</time>
      </trkpt>
      <trkpt lat="46.74705" lon="-1.58838">
        <ele>71.4</ele>
        <time>2024-04-25T17:15:30Z</time>
      </trkpt>
      <trkpt lat="46.74704" lon="-1.58832">
        <ele>71.4</ele>
        <time>2024-04-25T17:15:31Z</time>
      </trkpt>
      <trkpt lat="46.74703" lon="-1.58826">
        <ele>71.4</ele>
        <time>2024-04-25T17:15:32Z</time>
      </trkpt>
      <trkpt lat="46.74702" lon="-1.5882">
        <ele>71.4</ele>
        <time>2024-04-25T17:15:33Z</time>
      </trkpt>
      <trkpt lat="46.74702" lon="-1.58814">
        <ele>71.4</ele>
        <time>2024-04-25T17:15:34Z</time>
      </trkpt>
      <trkpt lat="46.74701" lon="-1.58808">
        <ele>71.4</ele>
        <time>2024-04-25T17:15:35Z</time>
      </trkpt>
      <trkpt lat="46.747" lon="-1.58803">
        <ele>71.4</ele>
        <time>2024-04-25T17:15:36Z</time>
      </trkpt>
      <trkpt lat="46.747" lon="-1.58797">
        <ele>71.4</ele>
        <time>2024-04-25T17:15:37Z</time>
      </trkpt>
      <trkpt lat="46.74699" lon="-1.58791">
        <ele>71.4</ele>
        <time>2024-04-25T17:15:38Z</time>
      </trkpt>
      <trkpt lat="46.74699" lon="-1.58786">
        <ele>71.4</ele>
        <time>2024-04-25T17:15:39Z</time>
      </trkpt>
      <trkpt lat="46.74699" lon="-1.5878">
        <ele>71.2</ele>
        <time>2024-04-25T17:15:40Z</time>
      </trkpt>
      <trkpt lat="46.74698" lon="-1.58771">
        <ele>71.2</ele>
        <time>2024-04-25T17:15:41Z</time>
      </trkpt>
      <trkpt lat="46.74698" lon="-1.58768">
        <ele>71.2</ele>
        <time>2024-04-25T17:15:42Z</time>
      </trkpt>
      <trkpt lat="46.74697" lon="-1.58762">
        <ele>71</ele>
        <time>2024-04-25T17:15:43Z</time>
      </trkpt>
      <trkpt lat="46.74697" lon="-1.58756">
        <ele>71</ele>
        <time>2024-04-25T17:15:44Z</time>
      </trkpt>
      <trkpt lat="46.74696" lon="-1.58749">
        <ele>70.8</ele>
        <time>2024-04-25T17:15:45Z</time>
      </trkpt>
      <trkpt lat="46.74695" lon="-1.58742">
        <ele>70.4</ele>
        <time>2024-04-25T17:15:46Z</time>
      </trkpt>
      <trkpt lat="46.74695" lon="-1.58735">
        <ele>70.2</ele>
        <time>2024-04-25T17:15:47Z</time>
      </trkpt>
      <trkpt lat="46.74694" lon="-1.58726">
        <ele>70</ele>
        <time>2024-04-25T17:15:48Z</time>
      </trkpt>
      <trkpt lat="46.74693" lon="-1.58718">
        <ele>69.8</ele>
        <time>2024-04-25T17:15:49Z</time>
      </trkpt>
      <trkpt lat="46.74692" lon="-1.5871">
        <ele>69.8</ele>
        <time>2024-04-25T17:15:50Z</time>
      </trkpt>
      <trkpt lat="46.7469" lon="-1.58698">
        <ele>69.6</ele>
        <time>2024-04-25T17:15:51Z</time>
      </trkpt>
      <trkpt lat="46.7469" lon="-1.58694">
        <ele>69.4</ele>
        <time>2024-04-25T17:15:52Z</time>
      </trkpt>
      <trkpt lat="46.74689" lon="-1.58686">
        <ele>69.2</ele>
        <time>2024-04-25T17:15:53Z</time>
      </trkpt>
      <trkpt lat="46.74688" lon="-1.58678">
        <ele>69</ele>
        <time>2024-04-25T17:15:54Z</time>
      </trkpt>
      <trkpt lat="46.74686" lon="-1.58666">
        <ele>68.8</ele>
        <time>2024-04-25T17:15:55Z</time>
      </trkpt>
      <trkpt lat="46.74686" lon="-1.58662">
        <ele>68.6</ele>
        <time>2024-04-25T17:15:56Z</time>
      </trkpt>
      <trkpt lat="46.74685" lon="-1.58654">
        <ele>68.4</ele>
        <time>2024-04-25T17:15:57Z</time>
      </trkpt>
      <trkpt lat="46.74683" lon="-1.58642">
        <ele>68.2</ele>
        <time>2024-04-25T17:15:58Z</time>
      </trkpt>
      <trkpt lat="46.74682" lon="-1.58635">
        <ele>68.2</ele>
        <time>2024-04-25T17:15:59Z</time>
      </trkpt>
      <trkpt lat="46.74681" lon="-1.58625">
        <ele>68.2</ele>
        <time>2024-04-25T17:16:00Z</time>
      </trkpt>
      <trkpt lat="46.74679" lon="-1.58616">
        <ele>68.2</ele>
        <time>2024-04-25T17:16:01Z</time>
      </trkpt>
      <trkpt lat="46.74678" lon="-1.58608">
        <ele>68.2</ele>
        <time>2024-04-25T17:16:02Z</time>
      </trkpt>
      <trkpt lat="46.74677" lon="-1.58601">
        <ele>68.4</ele>
        <time>2024-04-25T17:16:03Z</time>
      </trkpt>
      <trkpt lat="46.74677" lon="-1.58595">
        <ele>68.4</ele>
        <time>2024-04-25T17:16:04Z</time>
      </trkpt>
      <trkpt lat="46.74676" lon="-1.58589">
        <ele>68.6</ele>
        <time>2024-04-25T17:16:05Z</time>
      </trkpt>
      <trkpt lat="46.74676" lon="-1.58583">
        <ele>68.6</ele>
        <time>2024-04-25T17:16:06Z</time>
      </trkpt>
      <trkpt lat="46.74676" lon="-1.58577">
        <ele>68.8</ele>
        <time>2024-04-25T17:16:07Z</time>
      </trkpt>
      <trkpt lat="46.74675" lon="-1.58572">
        <ele>68.8</ele>
        <time>2024-04-25T17:16:08Z</time>
      </trkpt>
      <trkpt lat="46.74675" lon="-1.58566">
        <ele>69</ele>
        <time>2024-04-25T17:16:09Z</time>
      </trkpt>
      <trkpt lat="46.74674" lon="-1.58558">
        <ele>69.2</ele>
        <time>2024-04-25T17:16:10Z</time>
      </trkpt>
      <trkpt lat="46.74674" lon="-1.58555">
        <ele>69.4</ele>
        <time>2024-04-25T17:16:11Z</time>
      </trkpt>
      <trkpt lat="46.74673" lon="-1.5855">
        <ele>69.6</ele>
        <time>2024-04-25T17:16:12Z</time>
      </trkpt>
      <trkpt lat="46.74672" lon="-1.58545">
        <ele>69.8</ele>
        <time>2024-04-25T17:16:13Z</time>
      </trkpt>
      <trkpt lat="46.74671" lon="-1.5854">
        <ele>69.8</ele>
        <time>2024-04-25T17:16:14Z</time>
      </trkpt>
      <trkpt lat="46.7467" lon="-1.58535">
        <ele>70</ele>
        <time>2024-04-25T17:16:15Z</time>
      </trkpt>
      <trkpt lat="46.74668" lon="-1.58529">
        <ele>70.2</ele>
        <time>2024-04-25T17:16:16Z</time>
      </trkpt>
      <trkpt lat="46.74667" lon="-1.58523">
        <ele>70.4</ele>
        <time>2024-04-25T17:16:17Z</time>
      </trkpt>
      <trkpt lat="46.74666" lon="-1.58517">
        <ele>70.4</ele>
        <time>2024-04-25T17:16:18Z</time>
      </trkpt>
      <trkpt lat="46.74665" lon="-1.58511">
        <ele>70.6</ele>
        <time>2024-04-25T17:16:19Z</time>
      </trkpt>
      <trkpt lat="46.74664" lon="-1.58505">
        <ele>70.6</ele>
        <time>2024-04-25T17:16:20Z</time>
      </trkpt>
      <trkpt lat="46.74662" lon="-1.585">
        <ele>70.6</ele>
        <time>2024-04-25T17:16:22Z</time>
      </trkpt>
      <trkpt lat="46.74661" lon="-1.58494">
        <ele>70.8</ele>
        <time>2024-04-25T17:16:23Z</time>
      </trkpt>
      <trkpt lat="46.7466" lon="-1.58489">
        <ele>70.8</ele>
        <time>2024-04-25T17:16:24Z</time>
      </trkpt>
      <trkpt lat="46.7466" lon="-1.58483">
        <ele>70.8</ele>
        <time>2024-04-25T17:16:25Z</time>
      </trkpt>
      <trkpt lat="46.74659" lon="-1.58478">
        <ele>70.8</ele>
        <time>2024-04-25T17:16:26Z</time>
      </trkpt>
      <trkpt lat="46.74658" lon="-1.58473">
        <ele>71</ele>
        <time>2024-04-25T17:16:27Z</time>
      </trkpt>
      <trkpt lat="46.74657" lon="-1.58468">
        <ele>71</ele>
        <time>2024-04-25T17:16:28Z</time>
      </trkpt>
      <trkpt lat="46.74657" lon="-1.58463">
        <ele>71</ele>
        <time>2024-04-25T17:16:29Z</time>
      </trkpt>
      <trkpt lat="46.74656" lon="-1.58459">
        <ele>71</ele>
        <time>2024-04-25T17:16:30Z</time>
      </trkpt>
      <trkpt lat="46.74656" lon="-1.58454">
        <ele>71</ele>
        <time>2024-04-25T17:16:31Z</time>
      </trkpt>
      <trkpt lat="46.74656" lon="-1.58449">
        <ele>71.2</ele>
        <time>2024-04-25T17:16:32Z</time>
      </trkpt>
      <trkpt lat="46.74657" lon="-1.58444">
        <ele>71.2</ele>
        <time>2024-04-25T17:16:33Z</time>
      </trkpt>
      <trkpt lat="46.74659" lon="-1.5844">
        <ele>71.2</ele>
        <time>2024-04-25T17:16:34Z</time>
      </trkpt>
      <trkpt lat="46.74662" lon="-1.58436">
        <ele>71.4</ele>
        <time>2024-04-25T17:16:35Z</time>
      </trkpt>
      <trkpt lat="46.74664" lon="-1.58432">
        <ele>71.4</ele>
        <time>2024-04-25T17:16:36Z</time>
      </trkpt>
      <trkpt lat="46.74667" lon="-1.58428">
        <ele>71.4</ele>
        <time>2024-04-25T17:16:37Z</time>
      </trkpt>
      <trkpt lat="46.7467" lon="-1.58425">
        <ele>71.4</ele>
        <time>2024-04-25T17:16:38Z</time>
      </trkpt>
      <trkpt lat="46.74673" lon="-1.58421">
        <ele>71.4</ele>
        <time>2024-04-25T17:16:39Z</time>
      </trkpt>
      <trkpt lat="46.74677" lon="-1.58417">
        <ele>71.4</ele>
        <time>2024-04-25T17:16:40Z</time>
      </trkpt>
      <trkpt lat="46.7468" lon="-1.58412">
        <ele>71.4</ele>
        <time>2024-04-25T17:16:41Z</time>
      </trkpt>
      <trkpt lat="46.74683" lon="-1.58408">
        <ele>71.4</ele>
        <time>2024-04-25T17:16:42Z</time>
      </trkpt>
      <trkpt lat="46.74687" lon="-1.58402">
        <ele>71.4</ele>
        <time>2024-04-25T17:16:43Z</time>
      </trkpt>
      <trkpt lat="46.74691" lon="-1.58396">
        <ele>71.4</ele>
        <time>2024-04-25T17:16:44Z</time>
      </trkpt>
      <trkpt lat="46.74695" lon="-1.58391">
        <ele>71.4</ele>
        <time>2024-04-25T17:16:45Z</time>
      </trkpt>
      <trkpt lat="46.74699" lon="-1.58385">
        <ele>71.4</ele>
        <time>2024-04-25T17:16:46Z</time>
      </trkpt>
      <trkpt lat="46.74703" lon="-1.58379">
        <ele>71.4</ele>
        <time>2024-04-25T17:16:47Z</time>
      </trkpt>
      <trkpt lat="46.74706" lon="-1.58373">
        <ele>71.4</ele>
        <time>2024-04-25T17:16:48Z</time>
      </trkpt>
      <trkpt lat="46.7471" lon="-1.58368">
        <ele>71.2</ele>
        <time>2024-04-25T17:16:49Z</time>
      </trkpt>
      <trkpt lat="46.74713" lon="-1.58362">
        <ele>71.2</ele>
        <time>2024-04-25T17:16:50Z</time>
      </trkpt>
      <trkpt lat="46.74717" lon="-1.58357">
        <ele>71.2</ele>
        <time>2024-04-25T17:16:51Z</time>
      </trkpt>
      <trkpt lat="46.74721" lon="-1.58352">
        <ele>71.2</ele>
        <time>2024-04-25T17:16:52Z</time>
      </trkpt>
      <trkpt lat="46.74725" lon="-1.58348">
        <ele>71.2</ele>
        <time>2024-04-25T17:16:53Z</time>
      </trkpt>
      <trkpt lat="46.74728" lon="-1.58344">
        <ele>71.2</ele>
        <time>2024-04-25T17:16:54Z</time>
      </trkpt>
      <trkpt lat="46.74732" lon="-1.5834">
        <ele>71.2</ele>
        <time>2024-04-25T17:16:55Z</time>
      </trkpt>
      <trkpt lat="46.74735" lon="-1.58336">
        <ele>71.2</ele>
        <time>2024-04-25T17:16:56Z</time>
      </trkpt>
      <trkpt lat="46.74739" lon="-1.58333">
        <ele>71.2</ele>
        <time>2024-04-25T17:16:57Z</time>
      </trkpt>
      <trkpt lat="46.74743" lon="-1.5833">
        <ele>71</ele>
        <time>2024-04-25T17:16:58Z</time>
      </trkpt>
      <trkpt lat="46.74747" lon="-1.58327">
        <ele>71</ele>
        <time>2024-04-25T17:16:59Z</time>
      </trkpt>
      <trkpt lat="46.74751" lon="-1.58324">
        <ele>71</ele>
        <time>2024-04-25T17:17:00Z</time>
      </trkpt>
      <trkpt lat="46.74755" lon="-1.5832">
        <ele>71</ele>
        <time>2024-04-25T17:17:01Z</time>
      </trkpt>
      <trkpt lat="46.74759" lon="-1.58317">
        <ele>71</ele>
        <time>2024-04-25T17:17:02Z</time>
      </trkpt>
      <trkpt lat="46.74762" lon="-1.58314">
        <ele>71</ele>
        <time>2024-04-25T17:17:03Z</time>
      </trkpt>
      <trkpt lat="46.74766" lon="-1.58311">
        <ele>71</ele>
        <time>2024-04-25T17:17:04Z</time>
      </trkpt>
      <trkpt lat="46.74769" lon="-1.58309">
        <ele>71</ele>
        <time>2024-04-25T17:17:05Z</time>
      </trkpt>
      <trkpt lat="46.74772" lon="-1.58305">
        <ele>70.8</ele>
        <time>2024-04-25T17:17:06Z</time>
      </trkpt>
      <trkpt lat="46.74775" lon="-1.58302">
        <ele>71</ele>
        <time>2024-04-25T17:17:07Z</time>
      </trkpt>
      <trkpt lat="46.74778" lon="-1.58298">
        <ele>70.8</ele>
        <time>2024-04-25T17:17:08Z</time>
      </trkpt>
      <trkpt lat="46.74782" lon="-1.58294">
        <ele>70.8</ele>
        <time>2024-04-25T17:17:09Z</time>
      </trkpt>
      <trkpt lat="46.74785" lon="-1.58291">
        <ele>70.8</ele>
        <time>2024-04-25T17:17:10Z</time>
      </trkpt>
      <trkpt lat="46.74789" lon="-1.58287">
        <ele>70.8</ele>
        <time>2024-04-25T17:17:11Z</time>
      </trkpt>
      <trkpt lat="46.74793" lon="-1.58283">
        <ele>71</ele>
        <time>2024-04-25T17:17:12Z</time>
      </trkpt>
      <trkpt lat="46.74797" lon="-1.58279">
        <ele>71</ele>
        <time>2024-04-25T17:17:13Z</time>
      </trkpt>
      <trkpt lat="46.74801" lon="-1.58275">
        <ele>71</ele>
        <time>2024-04-25T17:17:14Z</time>
      </trkpt>
      <trkpt lat="46.74806" lon="-1.58272">
        <ele>71</ele>
        <time>2024-04-25T17:17:15Z</time>
      </trkpt>
      <trkpt lat="46.7481" lon="-1.58268">
        <ele>71</ele>
        <time>2024-04-25T17:17:16Z</time>
      </trkpt>
      <trkpt lat="46.74814" lon="-1.58265">
        <ele>71</ele>
        <time>2024-04-25T17:17:17Z</time>
      </trkpt>
      <trkpt lat="46.74818" lon="-1.58261">
        <ele>71</ele>
        <time>2024-04-25T17:17:18Z</time>
      </trkpt>
      <trkpt lat="46.74822" lon="-1.58258">
        <ele>71</ele>
        <time>2024-04-25T17:17:19Z</time>
      </trkpt>
      <trkpt lat="46.74826" lon="-1.58254">
        <ele>71</ele>
        <time>2024-04-25T17:17:20Z</time>
      </trkpt>
      <trkpt lat="46.7483" lon="-1.5825">
        <ele>70.8</ele>
        <time>2024-04-25T17:17:21Z</time>
      </trkpt>
      <trkpt lat="46.74834" lon="-1.58247">
        <ele>70.8</ele>
        <time>2024-04-25T17:17:22Z</time>
      </trkpt>
      <trkpt lat="46.74838" lon="-1.58243">
        <ele>70.6</ele>
        <time>2024-04-25T17:17:23Z</time>
      </trkpt>
      <trkpt lat="46.74842" lon="-1.58239">
        <ele>70.6</ele>
        <time>2024-04-25T17:17:24Z</time>
      </trkpt>
      <trkpt lat="46.74846" lon="-1.58235">
        <ele>70.6</ele>
        <time>2024-04-25T17:17:25Z</time>
      </trkpt>
      <trkpt lat="46.7485" lon="-1.58231">
        <ele>70.4</ele>
        <time>2024-04-25T17:17:26Z</time>
      </trkpt>
      <trkpt lat="46.74854" lon="-1.58227">
        <ele>70.4</ele>
        <time>2024-04-25T17:17:27Z</time>
      </trkpt>
      <trkpt lat="46.74858" lon="-1.58224">
        <ele>70.4</ele>
        <time>2024-04-25T17:17:28Z</time>
      </trkpt>
      <trkpt lat="46.74862" lon="-1.5822">
        <ele>70.4</ele>
        <time>2024-04-25T17:17:29Z</time>
      </trkpt>
      <trkpt lat="46.74868" lon="-1.58214">
        <ele>70.4</ele>
        <time>2024-04-25T17:17:30Z</time>
      </trkpt>
      <trkpt lat="46.7487" lon="-1.58213">
        <ele>70.4</ele>
        <time>2024-04-25T17:17:31Z</time>
      </trkpt>
      <trkpt lat="46.74874" lon="-1.58209">
        <ele>70.2</ele>
        <time>2024-04-25T17:17:32Z</time>
      </trkpt>
      <trkpt lat="46.74878" lon="-1.58205">
        <ele>70.2</ele>
        <time>2024-04-25T17:17:33Z</time>
      </trkpt>
      <trkpt lat="46.74882" lon="-1.58201">
        <ele>70.2</ele>
        <time>2024-04-25T17:17:34Z</time>
      </trkpt>
      <trkpt lat="46.74886" lon="-1.58197">
        <ele>70.2</ele>
        <time>2024-04-25T17:17:35Z</time>
      </trkpt>
      <trkpt lat="46.7489" lon="-1.58193">
        <ele>70.2</ele>
        <time>2024-04-25T17:17:36Z</time>
      </trkpt>
      <trkpt lat="46.74894" lon="-1.58189">
        <ele>70.2</ele>
        <time>2024-04-25T17:17:37Z</time>
      </trkpt>
      <trkpt lat="46.74898" lon="-1.58186">
        <ele>70.2</ele>
        <time>2024-04-25T17:17:38Z</time>
      </trkpt>
      <trkpt lat="46.74902" lon="-1.58182">
        <ele>70.2</ele>
        <time>2024-04-25T17:17:39Z</time>
      </trkpt>
      <trkpt lat="46.74906" lon="-1.58179">
        <ele>70.2</ele>
        <time>2024-04-25T17:17:40Z</time>
      </trkpt>
      <trkpt lat="46.74909" lon="-1.58176">
        <ele>70</ele>
        <time>2024-04-25T17:17:41Z</time>
      </trkpt>
      <trkpt lat="46.74912" lon="-1.58173">
        <ele>70</ele>
        <time>2024-04-25T17:17:42Z</time>
      </trkpt>
      <trkpt lat="46.74915" lon="-1.58169">
        <ele>69.8</ele>
        <time>2024-04-25T17:17:43Z</time>
      </trkpt>
      <trkpt lat="46.74922" lon="-1.58162">
        <ele>69.8</ele>
        <time>2024-04-25T17:17:44Z</time>
      </trkpt>
      <trkpt lat="46.74924" lon="-1.5816">
        <ele>69.8</ele>
        <time>2024-04-25T17:17:45Z</time>
      </trkpt>
      <trkpt lat="46.74927" lon="-1.58155">
        <ele>69.6</ele>
        <time>2024-04-25T17:17:46Z</time>
      </trkpt>
      <trkpt lat="46.74927" lon="-1.5815">
        <ele>69.6</ele>
        <time>2024-04-25T17:17:47Z</time>
      </trkpt>
      <trkpt lat="46.74925" lon="-1.58141">
        <ele>69.4</ele>
        <time>2024-04-25T17:17:48Z</time>
      </trkpt>
      <trkpt lat="46.74923" lon="-1.58139">
        <ele>69.4</ele>
        <time>2024-04-25T17:17:49Z</time>
      </trkpt>
      <trkpt lat="46.7492" lon="-1.58133">
        <ele>69.4</ele>
        <time>2024-04-25T17:17:50Z</time>
      </trkpt>
      <trkpt lat="46.74917" lon="-1.58128">
        <ele>69.2</ele>
        <time>2024-04-25T17:17:51Z</time>
      </trkpt>
      <trkpt lat="46.74914" lon="-1.58123">
        <ele>69.2</ele>
        <time>2024-04-25T17:17:52Z</time>
      </trkpt>
      <trkpt lat="46.74911" lon="-1.58118">
        <ele>69</ele>
        <time>2024-04-25T17:17:53Z</time>
      </trkpt>
      <trkpt lat="46.74909" lon="-1.58113">
        <ele>69</ele>
        <time>2024-04-25T17:17:54Z</time>
      </trkpt>
      <trkpt lat="46.74906" lon="-1.58107">
        <ele>69.2</ele>
        <time>2024-04-25T17:17:55Z</time>
      </trkpt>
      <trkpt lat="46.74904" lon="-1.58102">
        <ele>69.2</ele>
        <time>2024-04-25T17:17:56Z</time>
      </trkpt>
      <trkpt lat="46.74901" lon="-1.58097">
        <ele>69.2</ele>
        <time>2024-04-25T17:17:57Z</time>
      </trkpt>
      <trkpt lat="46.74899" lon="-1.58092">
        <ele>69</ele>
        <time>2024-04-25T17:17:58Z</time>
      </trkpt>
      <trkpt lat="46.74896" lon="-1.58084">
        <ele>69</ele>
        <time>2024-04-25T17:17:59Z</time>
      </trkpt>
      <trkpt lat="46.74896" lon="-1.58082">
        <ele>69</ele>
        <time>2024-04-25T17:18:00Z</time>
      </trkpt>
      <trkpt lat="46.74896" lon="-1.58076">
        <ele>69</ele>
        <time>2024-04-25T17:18:01Z</time>
      </trkpt>
      <trkpt lat="46.74898" lon="-1.58072">
        <ele>69</ele>
        <time>2024-04-25T17:18:02Z</time>
      </trkpt>
      <trkpt lat="46.74904" lon="-1.58067">
        <ele>68.8</ele>
        <time>2024-04-25T17:18:03Z</time>
      </trkpt>
      <trkpt lat="46.74906" lon="-1.58066">
        <ele>68.8</ele>
        <time>2024-04-25T17:18:04Z</time>
      </trkpt>
      <trkpt lat="46.7491" lon="-1.58064">
        <ele>68.8</ele>
        <time>2024-04-25T17:18:05Z</time>
      </trkpt>
      <trkpt lat="46.74914" lon="-1.58063">
        <ele>68.8</ele>
        <time>2024-04-25T17:18:07Z</time>
      </trkpt>
      <trkpt lat="46.74919" lon="-1.58061">
        <ele>68.6</ele>
        <time>2024-04-25T17:18:08Z</time>
      </trkpt>
      <trkpt lat="46.74923" lon="-1.58059">
        <ele>68.6</ele>
        <time>2024-04-25T17:18:09Z</time>
      </trkpt>
      <trkpt lat="46.74928" lon="-1.58056">
        <ele>68.6</ele>
        <time>2024-04-25T17:18:10Z</time>
      </trkpt>
      <trkpt lat="46.74932" lon="-1.58053">
        <ele>68.6</ele>
        <time>2024-04-25T17:18:11Z</time>
      </trkpt>
      <trkpt lat="46.74937" lon="-1.58049">
        <ele>68.6</ele>
        <time>2024-04-25T17:18:12Z</time>
      </trkpt>
      <trkpt lat="46.74941" lon="-1.58045">
        <ele>68.4</ele>
        <time>2024-04-25T17:18:13Z</time>
      </trkpt>
      <trkpt lat="46.74946" lon="-1.58042">
        <ele>68.2</ele>
        <time>2024-04-25T17:18:14Z</time>
      </trkpt>
      <trkpt lat="46.74954" lon="-1.58037">
        <ele>68</ele>
        <time>2024-04-25T17:18:15Z</time>
      </trkpt>
      <trkpt lat="46.74957" lon="-1.58035">
        <ele>67.8</ele>
        <time>2024-04-25T17:18:16Z</time>
      </trkpt>
      <trkpt lat="46.74962" lon="-1.58032">
        <ele>67.6</ele>
        <time>2024-04-25T17:18:17Z</time>
      </trkpt>
      <trkpt lat="46.74967" lon="-1.58029">
        <ele>67.4</ele>
        <time>2024-04-25T17:18:18Z</time>
      </trkpt>
      <trkpt lat="46.74973" lon="-1.58026">
        <ele>67.2</ele>
        <time>2024-04-25T17:18:19Z</time>
      </trkpt>
      <trkpt lat="46.74978" lon="-1.58023">
        <ele>67.2</ele>
        <time>2024-04-25T17:18:20Z</time>
      </trkpt>
      <trkpt lat="46.74983" lon="-1.5802">
        <ele>67.2</ele>
        <time>2024-04-25T17:18:21Z</time>
      </trkpt>
      <trkpt lat="46.74988" lon="-1.58018">
        <ele>67</ele>
        <time>2024-04-25T17:18:22Z</time>
      </trkpt>
      <trkpt lat="46.74993" lon="-1.58016">
        <ele>67</ele>
        <time>2024-04-25T17:18:23Z</time>
      </trkpt>
      <trkpt lat="46.74998" lon="-1.58014">
        <ele>67</ele>
        <time>2024-04-25T17:18:24Z</time>
      </trkpt>
      <trkpt lat="46.75003" lon="-1.58011">
        <ele>67</ele>
        <time>2024-04-25T17:18:25Z</time>
      </trkpt>
      <trkpt lat="46.75008" lon="-1.58009">
        <ele>66.8</ele>
        <time>2024-04-25T17:18:26Z</time>
      </trkpt>
      <trkpt lat="46.75013" lon="-1.58007">
        <ele>66.8</ele>
        <time>2024-04-25T17:18:27Z</time>
      </trkpt>
      <trkpt lat="46.75018" lon="-1.58005">
        <ele>66.6</ele>
        <time>2024-04-25T17:18:28Z</time>
      </trkpt>
      <trkpt lat="46.75023" lon="-1.58002">
        <ele>66.6</ele>
        <time>2024-04-25T17:18:29Z</time>
      </trkpt>
      <trkpt lat="46.75027" lon="-1.58">
        <ele>66.6</ele>
        <time>2024-04-25T17:18:30Z</time>
      </trkpt>
      <trkpt lat="46.75032" lon="-1.57997">
        <ele>66.4</ele>
        <time>2024-04-25T17:18:31Z</time>
      </trkpt>
      <trkpt lat="46.75036" lon="-1.57993">
        <ele>66.4</ele>
        <time>2024-04-25T17:18:32Z</time>
      </trkpt>
      <trkpt lat="46.7504" lon="-1.57988">
        <ele>66.4</ele>
        <time>2024-04-25T17:18:33Z</time>
      </trkpt>
      <trkpt lat="46.75043" lon="-1.57981">
        <ele>66.2</ele>
        <time>2024-04-25T17:18:34Z</time>
      </trkpt>
      <trkpt lat="46.75045" lon="-1.57974">
        <ele>66.2</ele>
        <time>2024-04-25T17:18:35Z</time>
      </trkpt>
      <trkpt lat="46.75047" lon="-1.57967">
        <ele>66</ele>
        <time>2024-04-25T17:18:36Z</time>
      </trkpt>
      <trkpt lat="46.75048" lon="-1.5796">
        <ele>66</ele>
        <time>2024-04-25T17:18:37Z</time>
      </trkpt>
      <trkpt lat="46.7505" lon="-1.57953">
        <ele>66</ele>
        <time>2024-04-25T17:18:38Z</time>
      </trkpt>
      <trkpt lat="46.75051" lon="-1.57945">
        <ele>65.8</ele>
        <time>2024-04-25T17:18:39Z</time>
      </trkpt>
      <trkpt lat="46.75053" lon="-1.57938">
        <ele>65.8</ele>
        <time>2024-04-25T17:18:40Z</time>
      </trkpt>
      <trkpt lat="46.75055" lon="-1.57931">
        <ele>65.8</ele>
        <time>2024-04-25T17:18:41Z</time>
      </trkpt>
      <trkpt lat="46.75057" lon="-1.57924">
        <ele>65.6</ele>
        <time>2024-04-25T17:18:42Z</time>
      </trkpt>
      <trkpt lat="46.75059" lon="-1.57917">
        <ele>65.6</ele>
        <time>2024-04-25T17:18:43Z</time>
      </trkpt>
      <trkpt lat="46.75061" lon="-1.5791">
        <ele>65.6</ele>
        <time>2024-04-25T17:18:44Z</time>
      </trkpt>
      <trkpt lat="46.75064" lon="-1.57904">
        <ele>65.6</ele>
        <time>2024-04-25T17:18:45Z</time>
      </trkpt>
      <trkpt lat="46.75066" lon="-1.57899">
        <ele>65.6</ele>
        <time>2024-04-25T17:18:46Z</time>
      </trkpt>
      <trkpt lat="46.75069" lon="-1.57894">
        <ele>65.6</ele>
        <time>2024-04-25T17:18:47Z</time>
      </trkpt>
      <trkpt lat="46.75072" lon="-1.5789">
        <ele>65.6</ele>
        <time>2024-04-25T17:18:48Z</time>
      </trkpt>
      <trkpt lat="46.75075" lon="-1.57885">
        <ele>65.4</ele>
        <time>2024-04-25T17:18:49Z</time>
      </trkpt>
      <trkpt lat="46.75077" lon="-1.5788">
        <ele>65.2</ele>
        <time>2024-04-25T17:18:50Z</time>
      </trkpt>
      <trkpt lat="46.75078" lon="-1.57873">
        <ele>64.8</ele>
        <time>2024-04-25T17:18:51Z</time>
      </trkpt>
      <trkpt lat="46.75079" lon="-1.57865">
        <ele>64.6</ele>
        <time>2024-04-25T17:18:52Z</time>
      </trkpt>
      <trkpt lat="46.7508" lon="-1.57856">
        <ele>64.2</ele>
        <time>2024-04-25T17:18:53Z</time>
      </trkpt>
      <trkpt lat="46.75079" lon="-1.57847">
        <ele>64</ele>
        <time>2024-04-25T17:18:54Z</time>
      </trkpt>
      <trkpt lat="46.75078" lon="-1.57837">
        <ele>63.6</ele>
        <time>2024-04-25T17:18:55Z</time>
      </trkpt>
      <trkpt lat="46.75077" lon="-1.57828">
        <ele>63.6</ele>
        <time>2024-04-25T17:18:56Z</time>
      </trkpt>
      <trkpt lat="46.75075" lon="-1.5782">
        <ele>63.2</ele>
        <time>2024-04-25T17:18:57Z</time>
      </trkpt>
      <trkpt lat="46.75073" lon="-1.57811">
        <ele>63.2</ele>
        <time>2024-04-25T17:18:58Z</time>
      </trkpt>
      <trkpt lat="46.75072" lon="-1.57803">
        <ele>63</ele>
        <time>2024-04-25T17:18:59Z</time>
      </trkpt>
      <trkpt lat="46.7507" lon="-1.57795">
        <ele>62.8</ele>
        <time>2024-04-25T17:19:00Z</time>
      </trkpt>
      <trkpt lat="46.75069" lon="-1.57788">
        <ele>62.6</ele>
        <time>2024-04-25T17:19:01Z</time>
      </trkpt>
      <trkpt lat="46.75068" lon="-1.57781">
        <ele>62.6</ele>
        <time>2024-04-25T17:19:02Z</time>
      </trkpt>
      <trkpt lat="46.75068" lon="-1.57773">
        <ele>62.4</ele>
        <time>2024-04-25T17:19:03Z</time>
      </trkpt>
      <trkpt lat="46.75068" lon="-1.57766">
        <ele>62.4</ele>
        <time>2024-04-25T17:19:04Z</time>
      </trkpt>
      <trkpt lat="46.75068" lon="-1.5776">
        <ele>62.4</ele>
        <time>2024-04-25T17:19:05Z</time>
      </trkpt>
      <trkpt lat="46.75069" lon="-1.57753">
        <ele>62.4</ele>
        <time>2024-04-25T17:19:06Z</time>
      </trkpt>
      <trkpt lat="46.75069" lon="-1.57747">
        <ele>62.4</ele>
        <time>2024-04-25T17:19:07Z</time>
      </trkpt>
      <trkpt lat="46.75071" lon="-1.57741">
        <ele>62.4</ele>
        <time>2024-04-25T17:19:08Z</time>
      </trkpt>
      <trkpt lat="46.75074" lon="-1.57737">
        <ele>62.6</ele>
        <time>2024-04-25T17:19:09Z</time>
      </trkpt>
      <trkpt lat="46.75078" lon="-1.57735">
        <ele>62.6</ele>
        <time>2024-04-25T17:19:10Z</time>
      </trkpt>
      <trkpt lat="46.75082" lon="-1.57735">
        <ele>62.6</ele>
        <time>2024-04-25T17:19:11Z</time>
      </trkpt>
      <trkpt lat="46.75087" lon="-1.57736">
        <ele>62.6</ele>
        <time>2024-04-25T17:19:12Z</time>
      </trkpt>
      <trkpt lat="46.75092" lon="-1.57738">
        <ele>62.6</ele>
        <time>2024-04-25T17:19:13Z</time>
      </trkpt>
      <trkpt lat="46.75098" lon="-1.5774">
        <ele>62.6</ele>
        <time>2024-04-25T17:19:14Z</time>
      </trkpt>
      <trkpt lat="46.75103" lon="-1.57742">
        <ele>62.6</ele>
        <time>2024-04-25T17:19:15Z</time>
      </trkpt>
      <trkpt lat="46.75108" lon="-1.57743">
        <ele>62.6</ele>
        <time>2024-04-25T17:19:16Z</time>
      </trkpt>
      <trkpt lat="46.75113" lon="-1.57745">
        <ele>62.6</ele>
        <time>2024-04-25T17:19:17Z</time>
      </trkpt>
      <trkpt lat="46.75117" lon="-1.57746">
        <ele>62.6</ele>
        <time>2024-04-25T17:19:18Z</time>
      </trkpt>
      <trkpt lat="46.75122" lon="-1.57748">
        <ele>62.6</ele>
        <time>2024-04-25T17:19:19Z</time>
      </trkpt>
      <trkpt lat="46.75126" lon="-1.57749">
        <ele>62.6</ele>
        <time>2024-04-25T17:19:20Z</time>
      </trkpt>
      <trkpt lat="46.7513" lon="-1.57749">
        <ele>62.6</ele>
        <time>2024-04-25T17:19:21Z</time>
      </trkpt>
      <trkpt lat="46.75135" lon="-1.5775">
        <ele>62.6</ele>
        <time>2024-04-25T17:19:22Z</time>
      </trkpt>
      <trkpt lat="46.7514" lon="-1.57751">
        <ele>62.6</ele>
        <time>2024-04-25T17:19:23Z</time>
      </trkpt>
      <trkpt lat="46.75144" lon="-1.57752">
        <ele>62.6</ele>
        <time>2024-04-25T17:19:24Z</time>
      </trkpt>
      <trkpt lat="46.75149" lon="-1.57754">
        <ele>62.6</ele>
        <time>2024-04-25T17:19:25Z</time>
      </trkpt>
      <trkpt lat="46.75157" lon="-1.57756">
        <ele>62.6</ele>
        <time>2024-04-25T17:19:26Z</time>
      </trkpt>
      <trkpt lat="46.75164" lon="-1.57758">
        <ele>62.4</ele>
        <time>2024-04-25T17:19:27Z</time>
      </trkpt>
      <trkpt lat="46.7517" lon="-1.5776">
        <ele>62.4</ele>
        <time>2024-04-25T17:19:28Z</time>
      </trkpt>
      <trkpt lat="46.75175" lon="-1.57761">
        <ele>62.2</ele>
        <time>2024-04-25T17:19:29Z</time>
      </trkpt>
      <trkpt lat="46.75181" lon="-1.57763">
        <ele>62.2</ele>
        <time>2024-04-25T17:19:30Z</time>
      </trkpt>
      <trkpt lat="46.75186" lon="-1.57764">
        <ele>62</ele>
        <time>2024-04-25T17:19:31Z</time>
      </trkpt>
      <trkpt lat="46.75191" lon="-1.57765">
        <ele>62</ele>
        <time>2024-04-25T17:19:32Z</time>
      </trkpt>
      <trkpt lat="46.75195" lon="-1.57766">
        <ele>62</ele>
        <time>2024-04-25T17:19:33Z</time>
      </trkpt>
      <trkpt lat="46.75203" lon="-1.57766">
        <ele>61.8</ele>
        <time>2024-04-25T17:19:34Z</time>
      </trkpt>
      <trkpt lat="46.75205" lon="-1.57766">
        <ele>61.8</ele>
        <time>2024-04-25T17:19:35Z</time>
      </trkpt>
      <trkpt lat="46.75212" lon="-1.57766">
        <ele>61.6</ele>
        <time>2024-04-25T17:19:36Z</time>
      </trkpt>
      <trkpt lat="46.75214" lon="-1.57767">
        <ele>61.4</ele>
        <time>2024-04-25T17:19:37Z</time>
      </trkpt>
      <trkpt lat="46.75218" lon="-1.57767">
        <ele>61.4</ele>
        <time>2024-04-25T17:19:38Z</time>
      </trkpt>
      <trkpt lat="46.75223" lon="-1.57768">
        <ele>61.2</ele>
        <time>2024-04-25T17:19:39Z</time>
      </trkpt>
      <trkpt lat="46.75228" lon="-1.57769">
        <ele>61.2</ele>
        <time>2024-04-25T17:19:40Z</time>
      </trkpt>
      <trkpt lat="46.75237" lon="-1.57771">
        <ele>61</ele>
        <time>2024-04-25T17:19:41Z</time>
      </trkpt>
      <trkpt lat="46.7524" lon="-1.57772">
        <ele>60.8</ele>
        <time>2024-04-25T17:19:42Z</time>
      </trkpt>
      <trkpt lat="46.75248" lon="-1.57775">
        <ele>60.6</ele>
        <time>2024-04-25T17:19:43Z</time>
      </trkpt>
      <trkpt lat="46.75252" lon="-1.57776">
        <ele>60.4</ele>
        <time>2024-04-25T17:19:44Z</time>
      </trkpt>
      <trkpt lat="46.75258" lon="-1.57778">
        <ele>60.2</ele>
        <time>2024-04-25T17:19:45Z</time>
      </trkpt>
      <trkpt lat="46.75265" lon="-1.5778">
        <ele>60</ele>
        <time>2024-04-25T17:19:46Z</time>
      </trkpt>
      <trkpt lat="46.75271" lon="-1.57781">
        <ele>60</ele>
        <time>2024-04-25T17:19:47Z</time>
      </trkpt>
      <trkpt lat="46.75278" lon="-1.57783">
        <ele>59.8</ele>
        <time>2024-04-25T17:19:49Z</time>
      </trkpt>
      <trkpt lat="46.75284" lon="-1.57784">
        <ele>59.8</ele>
        <time>2024-04-25T17:19:50Z</time>
      </trkpt>
      <trkpt lat="46.7529" lon="-1.57786">
        <ele>59.8</ele>
        <time>2024-04-25T17:19:51Z</time>
      </trkpt>
      <trkpt lat="46.75297" lon="-1.57787">
        <ele>59.8</ele>
        <time>2024-04-25T17:19:52Z</time>
      </trkpt>
      <trkpt lat="46.75303" lon="-1.57788">
        <ele>60</ele>
        <time>2024-04-25T17:19:53Z</time>
      </trkpt>
      <trkpt lat="46.75308" lon="-1.5779">
        <ele>60.2</ele>
        <time>2024-04-25T17:19:54Z</time>
      </trkpt>
      <trkpt lat="46.75314" lon="-1.57791">
        <ele>60.4</ele>
        <time>2024-04-25T17:19:55Z</time>
      </trkpt>
      <trkpt lat="46.75319" lon="-1.57792">
        <ele>60.6</ele>
        <time>2024-04-25T17:19:56Z</time>
      </trkpt>
      <trkpt lat="46.75325" lon="-1.57794">
        <ele>60.8</ele>
        <time>2024-04-25T17:19:57Z</time>
      </trkpt>
      <trkpt lat="46.7533" lon="-1.57795">
        <ele>60.8</ele>
        <time>2024-04-25T17:19:58Z</time>
      </trkpt>
      <trkpt lat="46.75335" lon="-1.57796">
        <ele>61</ele>
        <time>2024-04-25T17:19:59Z</time>
      </trkpt>
      <trkpt lat="46.7534" lon="-1.57797">
        <ele>61.2</ele>
        <time>2024-04-25T17:20:00Z</time>
      </trkpt>
      <trkpt lat="46.75344" lon="-1.57798">
        <ele>61.4</ele>
        <time>2024-04-25T17:20:01Z</time>
      </trkpt>
      <trkpt lat="46.75349" lon="-1.578">
        <ele>61.4</ele>
        <time>2024-04-25T17:20:02Z</time>
      </trkpt>
      <trkpt lat="46.75354" lon="-1.57801">
        <ele>61.6</ele>
        <time>2024-04-25T17:20:03Z</time>
      </trkpt>
      <trkpt lat="46.75359" lon="-1.57802">
        <ele>61.8</ele>
        <time>2024-04-25T17:20:04Z</time>
      </trkpt>
      <trkpt lat="46.75363" lon="-1.57803">
        <ele>62</ele>
        <time>2024-04-25T17:20:05Z</time>
      </trkpt>
      <trkpt lat="46.75368" lon="-1.57804">
        <ele>62.2</ele>
        <time>2024-04-25T17:20:06Z</time>
      </trkpt>
      <trkpt lat="46.75373" lon="-1.57805">
        <ele>62.4</ele>
        <time>2024-04-25T17:20:07Z</time>
      </trkpt>
      <trkpt lat="46.75378" lon="-1.57807">
        <ele>62.4</ele>
        <time>2024-04-25T17:20:08Z</time>
      </trkpt>
      <trkpt lat="46.75383" lon="-1.57808">
        <ele>62.6</ele>
        <time>2024-04-25T17:20:09Z</time>
      </trkpt>
      <trkpt lat="46.75388" lon="-1.57809">
        <ele>62.6</ele>
        <time>2024-04-25T17:20:10Z</time>
      </trkpt>
      <trkpt lat="46.75393" lon="-1.5781">
        <ele>62.6</ele>
        <time>2024-04-25T17:20:11Z</time>
      </trkpt>
      <trkpt lat="46.75398" lon="-1.57811">
        <ele>62.8</ele>
        <time>2024-04-25T17:20:12Z</time>
      </trkpt>
      <trkpt lat="46.75403" lon="-1.57812">
        <ele>62.8</ele>
        <time>2024-04-25T17:20:13Z</time>
      </trkpt>
      <trkpt lat="46.75407" lon="-1.57813">
        <ele>63</ele>
        <time>2024-04-25T17:20:14Z</time>
      </trkpt>
      <trkpt lat="46.75412" lon="-1.57814">
        <ele>63</ele>
        <time>2024-04-25T17:20:15Z</time>
      </trkpt>
      <trkpt lat="46.75416" lon="-1.57815">
        <ele>63.2</ele>
        <time>2024-04-25T17:20:16Z</time>
      </trkpt>
      <trkpt lat="46.75421" lon="-1.57816">
        <ele>63.2</ele>
        <time>2024-04-25T17:20:17Z</time>
      </trkpt>
      <trkpt lat="46.75426" lon="-1.57817">
        <ele>63.2</ele>
        <time>2024-04-25T17:20:18Z</time>
      </trkpt>
      <trkpt lat="46.7543" lon="-1.57819">
        <ele>63.2</ele>
        <time>2024-04-25T17:20:19Z</time>
      </trkpt>
      <trkpt lat="46.75435" lon="-1.5782">
        <ele>63.2</ele>
        <time>2024-04-25T17:20:20Z</time>
      </trkpt>
      <trkpt lat="46.7544" lon="-1.57821">
        <ele>63.4</ele>
        <time>2024-04-25T17:20:21Z</time>
      </trkpt>
      <trkpt lat="46.75445" lon="-1.57822">
        <ele>63.4</ele>
        <time>2024-04-25T17:20:22Z</time>
      </trkpt>
      <trkpt lat="46.75449" lon="-1.57824">
        <ele>63.4</ele>
        <time>2024-04-25T17:20:23Z</time>
      </trkpt>
      <trkpt lat="46.75454" lon="-1.57826">
        <ele>63.4</ele>
        <time>2024-04-25T17:20:24Z</time>
      </trkpt>
      <trkpt lat="46.75459" lon="-1.57829">
        <ele>63.6</ele>
        <time>2024-04-25T17:20:25Z</time>
      </trkpt>
      <trkpt lat="46.75463" lon="-1.57831">
        <ele>63.6</ele>
        <time>2024-04-25T17:20:26Z</time>
      </trkpt>
      <trkpt lat="46.75468" lon="-1.57834">
        <ele>63.6</ele>
        <time>2024-04-25T17:20:27Z</time>
      </trkpt>
      <trkpt lat="46.75472" lon="-1.57837">
        <ele>63.6</ele>
        <time>2024-04-25T17:20:28Z</time>
      </trkpt>
      <trkpt lat="46.75476" lon="-1.5784">
        <ele>63.6</ele>
        <time>2024-04-25T17:20:29Z</time>
      </trkpt>
      <trkpt lat="46.7548" lon="-1.57844">
        <ele>63.6</ele>
        <time>2024-04-25T17:20:30Z</time>
      </trkpt>
      <trkpt lat="46.75484" lon="-1.57847">
        <ele>63.6</ele>
        <time>2024-04-25T17:20:31Z</time>
      </trkpt>
      <trkpt lat="46.75488" lon="-1.57851">
        <ele>63.4</ele>
        <time>2024-04-25T17:20:32Z</time>
      </trkpt>
      <trkpt lat="46.75491" lon="-1.57854">
        <ele>63.4</ele>
        <time>2024-04-25T17:20:33Z</time>
      </trkpt>
      <trkpt lat="46.75495" lon="-1.57858">
        <ele>63.4</ele>
        <time>2024-04-25T17:20:34Z</time>
      </trkpt>
      <trkpt lat="46.75498" lon="-1.57862">
        <ele>63.4</ele>
        <time>2024-04-25T17:20:35Z</time>
      </trkpt>
      <trkpt lat="46.75501" lon="-1.57865">
        <ele>63.4</ele>
        <time>2024-04-25T17:20:36Z</time>
      </trkpt>
      <trkpt lat="46.75504" lon="-1.57869">
        <ele>63.4</ele>
        <time>2024-04-25T17:20:37Z</time>
      </trkpt>
      <trkpt lat="46.75508" lon="-1.57873">
        <ele>63.4</ele>
        <time>2024-04-25T17:20:38Z</time>
      </trkpt>
      <trkpt lat="46.75511" lon="-1.57877">
        <ele>63.4</ele>
        <time>2024-04-25T17:20:39Z</time>
      </trkpt>
      <trkpt lat="46.75513" lon="-1.57881">
        <ele>63.4</ele>
        <time>2024-04-25T17:20:40Z</time>
      </trkpt>
      <trkpt lat="46.75516" lon="-1.57885">
        <ele>63.4</ele>
        <time>2024-04-25T17:20:41Z</time>
      </trkpt>
      <trkpt lat="46.7552" lon="-1.57889">
        <ele>63.2</ele>
        <time>2024-04-25T17:20:42Z</time>
      </trkpt>
      <trkpt lat="46.75524" lon="-1.57891">
        <ele>63.2</ele>
        <time>2024-04-25T17:20:43Z</time>
      </trkpt>
      <trkpt lat="46.75529" lon="-1.57891">
        <ele>63</ele>
        <time>2024-04-25T17:20:44Z</time>
      </trkpt>
      <trkpt lat="46.75534" lon="-1.57889">
        <ele>63</ele>
        <time>2024-04-25T17:20:45Z</time>
      </trkpt>
      <trkpt lat="46.7554" lon="-1.57886">
        <ele>62.8</ele>
        <time>2024-04-25T17:20:46Z</time>
      </trkpt>
      <trkpt lat="46.75545" lon="-1.57881">
        <ele>62.6</ele>
        <time>2024-04-25T17:20:47Z</time>
      </trkpt>
      <trkpt lat="46.7555" lon="-1.57877">
        <ele>62.6</ele>
        <time>2024-04-25T17:20:48Z</time>
      </trkpt>
      <trkpt lat="46.75555" lon="-1.57873">
        <ele>62.4</ele>
        <time>2024-04-25T17:20:49Z</time>
      </trkpt>
      <trkpt lat="46.75561" lon="-1.57869">
        <ele>62.4</ele>
        <time>2024-04-25T17:20:50Z</time>
      </trkpt>
      <trkpt lat="46.75566" lon="-1.57865">
        <ele>62.2</ele>
        <time>2024-04-25T17:20:51Z</time>
      </trkpt>
      <trkpt lat="46.75571" lon="-1.57861">
        <ele>62.2</ele>
        <time>2024-04-25T17:20:52Z</time>
      </trkpt>
      <trkpt lat="46.75576" lon="-1.57858">
        <ele>62.2</ele>
        <time>2024-04-25T17:20:53Z</time>
      </trkpt>
      <trkpt lat="46.7558" lon="-1.57854">
        <ele>62</ele>
        <time>2024-04-25T17:20:54Z</time>
      </trkpt>
      <trkpt lat="46.75585" lon="-1.57851">
        <ele>62</ele>
        <time>2024-04-25T17:20:55Z</time>
      </trkpt>
      <trkpt lat="46.7559" lon="-1.57848">
        <ele>61.8</ele>
        <time>2024-04-25T17:20:56Z</time>
      </trkpt>
      <trkpt lat="46.75595" lon="-1.57845">
        <ele>61.6</ele>
        <time>2024-04-25T17:20:57Z</time>
      </trkpt>
      <trkpt lat="46.75599" lon="-1.57842">
        <ele>61.4</ele>
        <time>2024-04-25T17:20:58Z</time>
      </trkpt>
      <trkpt lat="46.75604" lon="-1.57838">
        <ele>61.2</ele>
        <time>2024-04-25T17:20:59Z</time>
      </trkpt>
      <trkpt lat="46.75609" lon="-1.57835">
        <ele>61</ele>
        <time>2024-04-25T17:21:00Z</time>
      </trkpt>
      <trkpt lat="46.75614" lon="-1.57832">
        <ele>60.8</ele>
        <time>2024-04-25T17:21:01Z</time>
      </trkpt>
      <trkpt lat="46.75619" lon="-1.57827">
        <ele>60.8</ele>
        <time>2024-04-25T17:21:02Z</time>
      </trkpt>
      <trkpt lat="46.75621" lon="-1.57821">
        <ele>60.6</ele>
        <time>2024-04-25T17:21:03Z</time>
      </trkpt>
      <trkpt lat="46.75621" lon="-1.57814">
        <ele>60.4</ele>
        <time>2024-04-25T17:21:04Z</time>
      </trkpt>
      <trkpt lat="46.7562" lon="-1.57807">
        <ele>60.4</ele>
        <time>2024-04-25T17:21:05Z</time>
      </trkpt>
      <trkpt lat="46.75615" lon="-1.57798">
        <ele>60.6</ele>
        <time>2024-04-25T17:21:06Z</time>
      </trkpt>
      <trkpt lat="46.75611" lon="-1.57789">
        <ele>60.8</ele>
        <time>2024-04-25T17:21:07Z</time>
      </trkpt>
      <trkpt lat="46.75607" lon="-1.57782">
        <ele>60.8</ele>
        <time>2024-04-25T17:21:08Z</time>
      </trkpt>
      <trkpt lat="46.75604" lon="-1.57776">
        <ele>61</ele>
        <time>2024-04-25T17:21:09Z</time>
      </trkpt>
      <trkpt lat="46.75601" lon="-1.57769">
        <ele>61.2</ele>
        <time>2024-04-25T17:21:10Z</time>
      </trkpt>
      <trkpt lat="46.75598" lon="-1.57764">
        <ele>61.2</ele>
        <time>2024-04-25T17:21:11Z</time>
      </trkpt>
      <trkpt lat="46.75595" lon="-1.57756">
        <ele>61.4</ele>
        <time>2024-04-25T17:21:12Z</time>
      </trkpt>
      <trkpt lat="46.75593" lon="-1.57753">
        <ele>61.6</ele>
        <time>2024-04-25T17:21:13Z</time>
      </trkpt>
      <trkpt lat="46.75591" lon="-1.57748">
        <ele>61.8</ele>
        <time>2024-04-25T17:21:14Z</time>
      </trkpt>
      <trkpt lat="46.75588" lon="-1.57739">
        <ele>61.8</ele>
        <time>2024-04-25T17:21:15Z</time>
      </trkpt>
      <trkpt lat="46.75587" lon="-1.57736">
        <ele>62</ele>
        <time>2024-04-25T17:21:16Z</time>
      </trkpt>
      <trkpt lat="46.75584" lon="-1.5773">
        <ele>62</ele>
        <time>2024-04-25T17:21:17Z</time>
      </trkpt>
      <trkpt lat="46.75581" lon="-1.57724">
        <ele>61.8</ele>
        <time>2024-04-25T17:21:18Z</time>
      </trkpt>
      <trkpt lat="46.75578" lon="-1.57717">
        <ele>61.8</ele>
        <time>2024-04-25T17:21:19Z</time>
      </trkpt>
      <trkpt lat="46.75574" lon="-1.5771">
        <ele>61.6</ele>
        <time>2024-04-25T17:21:20Z</time>
      </trkpt>
      <trkpt lat="46.75572" lon="-1.57703">
        <ele>61.6</ele>
        <time>2024-04-25T17:21:21Z</time>
      </trkpt>
      <trkpt lat="46.75569" lon="-1.57696">
        <ele>61.6</ele>
        <time>2024-04-25T17:21:22Z</time>
      </trkpt>
      <trkpt lat="46.75566" lon="-1.57689">
        <ele>61.6</ele>
        <time>2024-04-25T17:21:23Z</time>
      </trkpt>
      <trkpt lat="46.75564" lon="-1.57682">
        <ele>61.6</ele>
        <time>2024-04-25T17:21:24Z</time>
      </trkpt>
      <trkpt lat="46.75561" lon="-1.57676">
        <ele>61.6</ele>
        <time>2024-04-25T17:21:25Z</time>
      </trkpt>
      <trkpt lat="46.75558" lon="-1.5767">
        <ele>61.6</ele>
        <time>2024-04-25T17:21:27Z</time>
      </trkpt>
      <trkpt lat="46.75556" lon="-1.57664">
        <ele>61.6</ele>
        <time>2024-04-25T17:21:28Z</time>
      </trkpt>
      <trkpt lat="46.75554" lon="-1.57654">
        <ele>61.6</ele>
        <time>2024-04-25T17:21:29Z</time>
      </trkpt>
      <trkpt lat="46.75554" lon="-1.57651">
        <ele>61.6</ele>
        <time>2024-04-25T17:21:30Z</time>
      </trkpt>
      <trkpt lat="46.75555" lon="-1.57641">
        <ele>61.6</ele>
        <time>2024-04-25T17:21:31Z</time>
      </trkpt>
      <trkpt lat="46.75556" lon="-1.57638">
        <ele>61.8</ele>
        <time>2024-04-25T17:21:32Z</time>
      </trkpt>
      <trkpt lat="46.75559" lon="-1.57633">
        <ele>61.8</ele>
        <time>2024-04-25T17:21:33Z</time>
      </trkpt>
      <trkpt lat="46.75564" lon="-1.57627">
        <ele>61.8</ele>
        <time>2024-04-25T17:21:34Z</time>
      </trkpt>
      <trkpt lat="46.75568" lon="-1.57622">
        <ele>62</ele>
        <time>2024-04-25T17:21:35Z</time>
      </trkpt>
      <trkpt lat="46.75573" lon="-1.57618">
        <ele>62</ele>
        <time>2024-04-25T17:21:36Z</time>
      </trkpt>
      <trkpt lat="46.75578" lon="-1.57613">
        <ele>62</ele>
        <time>2024-04-25T17:21:37Z</time>
      </trkpt>
      <trkpt lat="46.75582" lon="-1.57609">
        <ele>62</ele>
        <time>2024-04-25T17:21:38Z</time>
      </trkpt>
      <trkpt lat="46.75586" lon="-1.57605">
        <ele>62</ele>
        <time>2024-04-25T17:21:39Z</time>
      </trkpt>
      <trkpt lat="46.7559" lon="-1.57601">
        <ele>62</ele>
        <time>2024-04-25T17:21:40Z</time>
      </trkpt>
      <trkpt lat="46.75594" lon="-1.57598">
        <ele>62.2</ele>
        <time>2024-04-25T17:21:41Z</time>
      </trkpt>
      <trkpt lat="46.75598" lon="-1.57594">
        <ele>62</ele>
        <time>2024-04-25T17:21:42Z</time>
      </trkpt>
      <trkpt lat="46.75602" lon="-1.5759">
        <ele>62</ele>
        <time>2024-04-25T17:21:43Z</time>
      </trkpt>
      <trkpt lat="46.75606" lon="-1.57583">
        <ele>62</ele>
        <time>2024-04-25T17:21:44Z</time>
      </trkpt>
      <trkpt lat="46.75608" lon="-1.5758">
        <ele>62</ele>
        <time>2024-04-25T17:21:45Z</time>
      </trkpt>
      <trkpt lat="46.75609" lon="-1.57574">
        <ele>61.8</ele>
        <time>2024-04-25T17:21:46Z</time>
      </trkpt>
      <trkpt lat="46.75611" lon="-1.57568">
        <ele>61.6</ele>
        <time>2024-04-25T17:21:47Z</time>
      </trkpt>
      <trkpt lat="46.75613" lon="-1.57561">
        <ele>61.6</ele>
        <time>2024-04-25T17:21:48Z</time>
      </trkpt>
      <trkpt lat="46.75615" lon="-1.57556">
        <ele>61.6</ele>
        <time>2024-04-25T17:21:49Z</time>
      </trkpt>
      <trkpt lat="46.75618" lon="-1.57551">
        <ele>61.6</ele>
        <time>2024-04-25T17:21:50Z</time>
      </trkpt>
      <trkpt lat="46.75622" lon="-1.57547">
        <ele>61.6</ele>
        <time>2024-04-25T17:21:51Z</time>
      </trkpt>
      <trkpt lat="46.75626" lon="-1.57543">
        <ele>61.6</ele>
        <time>2024-04-25T17:21:52Z</time>
      </trkpt>
      <trkpt lat="46.75629" lon="-1.57539">
        <ele>61.4</ele>
        <time>2024-04-25T17:21:53Z</time>
      </trkpt>
      <trkpt lat="46.75633" lon="-1.57535">
        <ele>61.4</ele>
        <time>2024-04-25T17:21:54Z</time>
      </trkpt>
      <trkpt lat="46.75639" lon="-1.57529">
        <ele>61.4</ele>
        <time>2024-04-25T17:21:55Z</time>
      </trkpt>
      <trkpt lat="46.7564" lon="-1.57527">
        <ele>61.2</ele>
        <time>2024-04-25T17:21:56Z</time>
      </trkpt>
      <trkpt lat="46.75644" lon="-1.57523">
        <ele>61.2</ele>
        <time>2024-04-25T17:21:57Z</time>
      </trkpt>
      <trkpt lat="46.75647" lon="-1.57519">
        <ele>61</ele>
        <time>2024-04-25T17:21:58Z</time>
      </trkpt>
      <trkpt lat="46.7565" lon="-1.57514">
        <ele>60.8</ele>
        <time>2024-04-25T17:21:59Z</time>
      </trkpt>
      <trkpt lat="46.75654" lon="-1.57509">
        <ele>60.6</ele>
        <time>2024-04-25T17:22:00Z</time>
      </trkpt>
      <trkpt lat="46.75658" lon="-1.57505">
        <ele>60.4</ele>
        <time>2024-04-25T17:22:01Z</time>
      </trkpt>
      <trkpt lat="46.75662" lon="-1.57502">
        <ele>60.4</ele>
        <time>2024-04-25T17:22:02Z</time>
      </trkpt>
      <trkpt lat="46.75666" lon="-1.57498">
        <ele>60.2</ele>
        <time>2024-04-25T17:22:03Z</time>
      </trkpt>
      <trkpt lat="46.7567" lon="-1.57495">
        <ele>60</ele>
        <time>2024-04-25T17:22:04Z</time>
      </trkpt>
      <trkpt lat="46.75673" lon="-1.57491">
        <ele>59.8</ele>
        <time>2024-04-25T17:22:05Z</time>
      </trkpt>
      <trkpt lat="46.75676" lon="-1.57487">
        <ele>59.6</ele>
        <time>2024-04-25T17:22:06Z</time>
      </trkpt>
      <trkpt lat="46.75678" lon="-1.57482">
        <ele>59.4</ele>
        <time>2024-04-25T17:22:07Z</time>
      </trkpt>
      <trkpt lat="46.75679" lon="-1.57477">
        <ele>59.4</ele>
        <time>2024-04-25T17:22:08Z</time>
      </trkpt>
      <trkpt lat="46.7568" lon="-1.57472">
        <ele>59.4</ele>
        <time>2024-04-25T17:22:09Z</time>
      </trkpt>
      <trkpt lat="46.7568" lon="-1.57469">
        <ele>59.6</ele>
        <time>2024-04-25T17:22:10Z</time>
      </trkpt>
      <trkpt lat="46.75679" lon="-1.57464">
        <ele>59.8</ele>
        <time>2024-04-25T17:22:11Z</time>
      </trkpt>
      <trkpt lat="46.75679" lon="-1.57462">
        <ele>59.8</ele>
        <time>2024-04-25T17:22:12Z</time>
      </trkpt>
      <trkpt lat="46.75679" lon="-1.5746">
        <ele>59.2</ele>
        <time>2024-04-25T17:22:13Z</time>
      </trkpt>
      <trkpt lat="46.75678" lon="-1.57454">
        <ele>58.6</ele>
        <time>2024-04-25T17:22:14Z</time>
      </trkpt>
      <trkpt lat="46.75678" lon="-1.57446">
        <ele>58.2</ele>
        <time>2024-04-25T17:22:15Z</time>
      </trkpt>
      <trkpt lat="46.75677" lon="-1.57437">
        <ele>57.6</ele>
        <time>2024-04-25T17:22:16Z</time>
      </trkpt>
      <trkpt lat="46.75677" lon="-1.57427">
        <ele>57</ele>
        <time>2024-04-25T17:22:17Z</time>
      </trkpt>
      <trkpt lat="46.75678" lon="-1.57418">
        <ele>56.6</ele>
        <time>2024-04-25T17:22:18Z</time>
      </trkpt>
      <trkpt lat="46.75681" lon="-1.57409">
        <ele>56</ele>
        <time>2024-04-25T17:22:19Z</time>
      </trkpt>
      <trkpt lat="46.75682" lon="-1.57401">
        <ele>55.6</ele>
        <time>2024-04-25T17:22:20Z</time>
      </trkpt>
      <trkpt lat="46.75681" lon="-1.57393">
        <ele>55</ele>
        <time>2024-04-25T17:22:21Z</time>
      </trkpt>
      <trkpt lat="46.75679" lon="-1.57385">
        <ele>54.6</ele>
        <time>2024-04-25T17:22:22Z</time>
      </trkpt>
      <trkpt lat="46.75679" lon="-1.57378">
        <ele>54</ele>
        <time>2024-04-25T17:22:23Z</time>
      </trkpt>
      <trkpt lat="46.75681" lon="-1.57371">
        <ele>53.6</ele>
        <time>2024-04-25T17:22:24Z</time>
      </trkpt>
      <trkpt lat="46.75685" lon="-1.57366">
        <ele>53.4</ele>
        <time>2024-04-25T17:22:25Z</time>
      </trkpt>
      <trkpt lat="46.75689" lon="-1.57361">
        <ele>53.4</ele>
        <time>2024-04-25T17:22:26Z</time>
      </trkpt>
      <trkpt lat="46.75694" lon="-1.57357">
        <ele>53.2</ele>
        <time>2024-04-25T17:22:27Z</time>
      </trkpt>
      <trkpt lat="46.75698" lon="-1.57353">
        <ele>52.6</ele>
        <time>2024-04-25T17:22:28Z</time>
      </trkpt>
      <trkpt lat="46.75703" lon="-1.57348">
        <ele>52</ele>
        <time>2024-04-25T17:22:29Z</time>
      </trkpt>
      <trkpt lat="46.75709" lon="-1.57342">
        <ele>51.2</ele>
        <time>2024-04-25T17:22:30Z</time>
      </trkpt>
      <trkpt lat="46.75714" lon="-1.57334">
        <ele>50.4</ele>
        <time>2024-04-25T17:22:31Z</time>
      </trkpt>
      <trkpt lat="46.75717" lon="-1.57325">
        <ele>49.6</ele>
        <time>2024-04-25T17:22:32Z</time>
      </trkpt>
      <trkpt lat="46.75716" lon="-1.57316">
        <ele>48.6</ele>
        <time>2024-04-25T17:22:33Z</time>
      </trkpt>
      <trkpt lat="46.75713" lon="-1.57311">
        <ele>48.4</ele>
        <time>2024-04-25T17:22:34Z</time>
      </trkpt>
      <trkpt lat="46.75708" lon="-1.57307">
        <ele>48</ele>
        <time>2024-04-25T17:22:35Z</time>
      </trkpt>
      <trkpt lat="46.75704" lon="-1.57302">
        <ele>47.4</ele>
        <time>2024-04-25T17:22:36Z</time>
      </trkpt>
      <trkpt lat="46.757" lon="-1.57297">
        <ele>47</ele>
        <time>2024-04-25T17:22:37Z</time>
      </trkpt>
      <trkpt lat="46.75696" lon="-1.57291">
        <ele>46.6</ele>
        <time>2024-04-25T17:22:38Z</time>
      </trkpt>
      <trkpt lat="46.75692" lon="-1.57284">
        <ele>45.6</ele>
        <time>2024-04-25T17:22:39Z</time>
      </trkpt>
      <trkpt lat="46.75688" lon="-1.57276">
        <ele>44.4</ele>
        <time>2024-04-25T17:22:40Z</time>
      </trkpt>
      <trkpt lat="46.75681" lon="-1.57267">
        <ele>43.2</ele>
        <time>2024-04-25T17:22:41Z</time>
      </trkpt>
      <trkpt lat="46.75675" lon="-1.57262">
        <ele>42.6</ele>
        <time>2024-04-25T17:22:42Z</time>
      </trkpt>
      <trkpt lat="46.7567" lon="-1.57261">
        <ele>42.4</ele>
        <time>2024-04-25T17:22:43Z</time>
      </trkpt>
      <trkpt lat="46.75665" lon="-1.57263">
        <ele>42.2</ele>
        <time>2024-04-25T17:22:44Z</time>
      </trkpt>
      <trkpt lat="46.75662" lon="-1.57265">
        <ele>42.2</ele>
        <time>2024-04-25T17:22:45Z</time>
      </trkpt>
      <trkpt lat="46.75659" lon="-1.57268">
        <ele>42.4</ele>
        <time>2024-04-25T17:22:46Z</time>
      </trkpt>
      <trkpt lat="46.75656" lon="-1.5727">
        <ele>42.4</ele>
        <time>2024-04-25T17:22:47Z</time>
      </trkpt>
      <trkpt lat="46.75654" lon="-1.57272">
        <ele>42.6</ele>
        <time>2024-04-25T17:22:48Z</time>
      </trkpt>
      <trkpt lat="46.75652" lon="-1.57274">
        <ele>42.8</ele>
        <time>2024-04-25T17:22:49Z</time>
      </trkpt>
      <trkpt lat="46.75651" lon="-1.57277">
        <ele>43</ele>
        <time>2024-04-25T17:22:50Z</time>
      </trkpt>
      <trkpt lat="46.75649" lon="-1.57279">
        <ele>43.2</ele>
        <time>2024-04-25T17:22:51Z</time>
      </trkpt>
      <trkpt lat="46.75647" lon="-1.57281">
        <ele>43.2</ele>
        <time>2024-04-25T17:22:52Z</time>
      </trkpt>
      <trkpt lat="46.75645" lon="-1.57283">
        <ele>43.4</ele>
        <time>2024-04-25T17:22:53Z</time>
      </trkpt>
      <trkpt lat="46.75643" lon="-1.57285">
        <ele>43.4</ele>
        <time>2024-04-25T17:22:54Z</time>
      </trkpt>
      <trkpt lat="46.75642" lon="-1.57287">
        <ele>43.4</ele>
        <time>2024-04-25T17:22:55Z</time>
      </trkpt>
      <trkpt lat="46.75641" lon="-1.5729">
        <ele>43.6</ele>
        <time>2024-04-25T17:22:56Z</time>
      </trkpt>
      <trkpt lat="46.7564" lon="-1.57293">
        <ele>43.6</ele>
        <time>2024-04-25T17:22:57Z</time>
      </trkpt>
      <trkpt lat="46.7564" lon="-1.57297">
        <ele>43.8</ele>
        <time>2024-04-25T17:22:58Z</time>
      </trkpt>
      <trkpt lat="46.7564" lon="-1.57302">
        <ele>44</ele>
        <time>2024-04-25T17:22:59Z</time>
      </trkpt>
      <trkpt lat="46.75639" lon="-1.57306">
        <ele>44.2</ele>
        <time>2024-04-25T17:23:00Z</time>
      </trkpt>
      <trkpt lat="46.75638" lon="-1.57309">
        <ele>44.6</ele>
        <time>2024-04-25T17:23:01Z</time>
      </trkpt>
      <trkpt lat="46.75637" lon="-1.57313">
        <ele>44.8</ele>
        <time>2024-04-25T17:23:02Z</time>
      </trkpt>
      <trkpt lat="46.75635" lon="-1.57318">
        <ele>45</ele>
        <time>2024-04-25T17:23:04Z</time>
      </trkpt>
      <trkpt lat="46.75634" lon="-1.5732">
        <ele>45</ele>
        <time>2024-04-25T17:23:05Z</time>
      </trkpt>
      <trkpt lat="46.75633" lon="-1.57324">
        <ele>45.2</ele>
        <time>2024-04-25T17:23:06Z</time>
      </trkpt>
      <trkpt lat="46.75632" lon="-1.57327">
        <ele>45.4</ele>
        <time>2024-04-25T17:23:07Z</time>
      </trkpt>
      <trkpt lat="46.75631" lon="-1.5733">
        <ele>45.6</ele>
        <time>2024-04-25T17:23:08Z</time>
      </trkpt>
      <trkpt lat="46.75631" lon="-1.57334">
        <ele>45.8</ele>
        <time>2024-04-25T17:23:09Z</time>
      </trkpt>
      <trkpt lat="46.75631" lon="-1.57337">
        <ele>46</ele>
        <time>2024-04-25T17:23:10Z</time>
      </trkpt>
      <trkpt lat="46.75631" lon="-1.5734">
        <ele>46.4</ele>
        <time>2024-04-25T17:23:11Z</time>
      </trkpt>
      <trkpt lat="46.75632" lon="-1.57344">
        <ele>46.6</ele>
        <time>2024-04-25T17:23:12Z</time>
      </trkpt>
      <trkpt lat="46.75632" lon="-1.57347">
        <ele>47</ele>
        <time>2024-04-25T17:23:13Z</time>
      </trkpt>
      <trkpt lat="46.75633" lon="-1.5735">
        <ele>47.4</ele>
        <time>2024-04-25T17:23:14Z</time>
      </trkpt>
      <trkpt lat="46.75633" lon="-1.57353">
        <ele>47.8</ele>
        <time>2024-04-25T17:23:15Z</time>
      </trkpt>
      <trkpt lat="46.75634" lon="-1.57357">
        <ele>48.2</ele>
        <time>2024-04-25T17:23:16Z</time>
      </trkpt>
      <trkpt lat="46.75635" lon="-1.5736">
        <ele>48.4</ele>
        <time>2024-04-25T17:23:17Z</time>
      </trkpt>
      <trkpt lat="46.75635" lon="-1.57363">
        <ele>48.8</ele>
        <time>2024-04-25T17:23:18Z</time>
      </trkpt>
      <trkpt lat="46.75636" lon="-1.57366">
        <ele>49.2</ele>
        <time>2024-04-25T17:23:19Z</time>
      </trkpt>
      <trkpt lat="46.75636" lon="-1.5737">
        <ele>49.4</ele>
        <time>2024-04-25T17:23:20Z</time>
      </trkpt>
      <trkpt lat="46.75636" lon="-1.57371">
        <ele>49.8</ele>
        <time>2024-04-25T17:23:21Z</time>
      </trkpt>
      <trkpt lat="46.75637" lon="-1.57374">
        <ele>50</ele>
        <time>2024-04-25T17:23:22Z</time>
      </trkpt>
      <trkpt lat="46.75638" lon="-1.57376">
        <ele>50.2</ele>
        <time>2024-04-25T17:23:23Z</time>
      </trkpt>
      <trkpt lat="46.75638" lon="-1.57379">
        <ele>50.6</ele>
        <time>2024-04-25T17:23:24Z</time>
      </trkpt>
      <trkpt lat="46.75639" lon="-1.57381">
        <ele>50.8</ele>
        <time>2024-04-25T17:23:25Z</time>
      </trkpt>
      <trkpt lat="46.75639" lon="-1.57384">
        <ele>51.2</ele>
        <time>2024-04-25T17:23:26Z</time>
      </trkpt>
      <trkpt lat="46.75639" lon="-1.57387">
        <ele>51.4</ele>
        <time>2024-04-25T17:23:27Z</time>
      </trkpt>
      <trkpt lat="46.75638" lon="-1.57389">
        <ele>51.8</ele>
        <time>2024-04-25T17:23:28Z</time>
      </trkpt>
      <trkpt lat="46.75638" lon="-1.57391">
        <ele>52</ele>
        <time>2024-04-25T17:23:29Z</time>
      </trkpt>
      <trkpt lat="46.75637" lon="-1.57393">
        <ele>52.2</ele>
        <time>2024-04-25T17:23:30Z</time>
      </trkpt>
      <trkpt lat="46.75636" lon="-1.57396">
        <ele>52.4</ele>
        <time>2024-04-25T17:23:31Z</time>
      </trkpt>
      <trkpt lat="46.75635" lon="-1.57398">
        <ele>52.8</ele>
        <time>2024-04-25T17:23:32Z</time>
      </trkpt>
      <trkpt lat="46.75635" lon="-1.574">
        <ele>53</ele>
        <time>2024-04-25T17:23:33Z</time>
      </trkpt>
      <trkpt lat="46.75634" lon="-1.57403">
        <ele>53.2</ele>
        <time>2024-04-25T17:23:34Z</time>
      </trkpt>
      <trkpt lat="46.75633" lon="-1.57405">
        <ele>53.4</ele>
        <time>2024-04-25T17:23:35Z</time>
      </trkpt>
      <trkpt lat="46.75632" lon="-1.57408">
        <ele>53.6</ele>
        <time>2024-04-25T17:23:36Z</time>
      </trkpt>
      <trkpt lat="46.75631" lon="-1.57411">
        <ele>54</ele>
        <time>2024-04-25T17:23:37Z</time>
      </trkpt>
      <trkpt lat="46.75631" lon="-1.57414">
        <ele>54.2</ele>
        <time>2024-04-25T17:23:38Z</time>
      </trkpt>
      <trkpt lat="46.75632" lon="-1.57417">
        <ele>54.6</ele>
        <time>2024-04-25T17:23:39Z</time>
      </trkpt>
      <trkpt lat="46.75633" lon="-1.57419">
        <ele>54.8</ele>
        <time>2024-04-25T17:23:40Z</time>
      </trkpt>
      <trkpt lat="46.75634" lon="-1.57422">
        <ele>55</ele>
        <time>2024-04-25T17:23:41Z</time>
      </trkpt>
      <trkpt lat="46.75635" lon="-1.57424">
        <ele>55.2</ele>
        <time>2024-04-25T17:23:42Z</time>
      </trkpt>
      <trkpt lat="46.75636" lon="-1.57427">
        <ele>55.4</ele>
        <time>2024-04-25T17:23:43Z</time>
      </trkpt>
      <trkpt lat="46.75637" lon="-1.5743">
        <ele>55.8</ele>
        <time>2024-04-25T17:23:44Z</time>
      </trkpt>
      <trkpt lat="46.75638" lon="-1.57433">
        <ele>56</ele>
        <time>2024-04-25T17:23:45Z</time>
      </trkpt>
      <trkpt lat="46.75639" lon="-1.57435">
        <ele>56.4</ele>
        <time>2024-04-25T17:23:46Z</time>
      </trkpt>
      <trkpt lat="46.75641" lon="-1.57437">
        <ele>56.6</ele>
        <time>2024-04-25T17:23:47Z</time>
      </trkpt>
      <trkpt lat="46.75642" lon="-1.57439">
        <ele>56.8</ele>
        <time>2024-04-25T17:23:48Z</time>
      </trkpt>
      <trkpt lat="46.75643" lon="-1.57441">
        <ele>56.8</ele>
        <time>2024-04-25T17:23:49Z</time>
      </trkpt>
      <trkpt lat="46.75645" lon="-1.57443">
        <ele>57</ele>
        <time>2024-04-25T17:23:50Z</time>
      </trkpt>
      <trkpt lat="46.75646" lon="-1.57445">
        <ele>57</ele>
        <time>2024-04-25T17:23:51Z</time>
      </trkpt>
      <trkpt lat="46.75648" lon="-1.57447">
        <ele>57</ele>
        <time>2024-04-25T17:23:52Z</time>
      </trkpt>
      <trkpt lat="46.75649" lon="-1.5745">
        <ele>57.2</ele>
        <time>2024-04-25T17:23:53Z</time>
      </trkpt>
      <trkpt lat="46.75651" lon="-1.57453">
        <ele>57.4</ele>
        <time>2024-04-25T17:23:54Z</time>
      </trkpt>
      <trkpt lat="46.75652" lon="-1.57455">
        <ele>57.8</ele>
        <time>2024-04-25T17:23:55Z</time>
      </trkpt>
      <trkpt lat="46.75652" lon="-1.57457">
        <ele>58</ele>
        <time>2024-04-25T17:23:56Z</time>
      </trkpt>
      <trkpt lat="46.75653" lon="-1.57459">
        <ele>58.2</ele>
        <time>2024-04-25T17:23:57Z</time>
      </trkpt>
      <trkpt lat="46.75654" lon="-1.57461">
        <ele>58.2</ele>
        <time>2024-04-25T17:23:58Z</time>
      </trkpt>
      <trkpt lat="46.75655" lon="-1.57462">
        <ele>58.4</ele>
        <time>2024-04-25T17:23:59Z</time>
      </trkpt>
      <trkpt lat="46.75656" lon="-1.57462">
        <ele>58.6</ele>
        <time>2024-04-25T17:24:00Z</time>
      </trkpt>
      <trkpt lat="46.75657" lon="-1.57462">
        <ele>58.6</ele>
        <time>2024-04-25T17:24:01Z</time>
      </trkpt>
      <trkpt lat="46.75658" lon="-1.57463">
        <ele>58.6</ele>
        <time>2024-04-25T17:24:02Z</time>
      </trkpt>
      <trkpt lat="46.7566" lon="-1.57463">
        <ele>58.8</ele>
        <time>2024-04-25T17:24:03Z</time>
      </trkpt>
      <trkpt lat="46.75661" lon="-1.57464">
        <ele>58.8</ele>
        <time>2024-04-25T17:24:04Z</time>
      </trkpt>
      <trkpt lat="46.75662" lon="-1.57464">
        <ele>58.8</ele>
        <time>2024-04-25T17:24:05Z</time>
      </trkpt>
      <trkpt lat="46.75663" lon="-1.57465">
        <ele>58.8</ele>
        <time>2024-04-25T17:24:06Z</time>
      </trkpt>
      <trkpt lat="46.75665" lon="-1.57466">
        <ele>58.8</ele>
        <time>2024-04-25T17:24:07Z</time>
      </trkpt>
      <trkpt lat="46.75666" lon="-1.57467">
        <ele>59</ele>
        <time>2024-04-25T17:24:08Z</time>
      </trkpt>
      <trkpt lat="46.75668" lon="-1.57468">
        <ele>59</ele>
        <time>2024-04-25T17:24:09Z</time>
      </trkpt>
      <trkpt lat="46.75669" lon="-1.57469">
        <ele>59</ele>
        <time>2024-04-25T17:24:10Z</time>
      </trkpt>
      <trkpt lat="46.75671" lon="-1.5747">
        <ele>59</ele>
        <time>2024-04-25T17:24:11Z</time>
      </trkpt>
      <trkpt lat="46.75672" lon="-1.5747">
        <ele>59</ele>
        <time>2024-04-25T17:24:12Z</time>
      </trkpt>
      <trkpt lat="46.75674" lon="-1.57469">
        <ele>59.4</ele>
        <time>2024-04-25T17:24:13Z</time>
      </trkpt>
      <trkpt lat="46.75674" lon="-1.57467">
        <ele>59.6</ele>
        <time>2024-04-25T17:24:14Z</time>
      </trkpt>
      <trkpt lat="46.75674" lon="-1.57465">
        <ele>59.8</ele>
        <time>2024-04-25T17:24:15Z</time>
      </trkpt>
      <trkpt lat="46.75674" lon="-1.57464">
        <ele>59.8</ele>
        <time>2024-04-25T17:24:16Z</time>
      </trkpt>
      <trkpt lat="46.75674" lon="-1.57462">
        <ele>60</ele>
        <time>2024-04-25T17:24:17Z</time>
      </trkpt>
      <trkpt lat="46.75674" lon="-1.57459">
        <ele>59.6</ele>
        <time>2024-04-25T17:24:18Z</time>
      </trkpt>
      <trkpt lat="46.75674" lon="-1.57453">
        <ele>59.2</ele>
        <time>2024-04-25T17:24:19Z</time>
      </trkpt>
      <trkpt lat="46.75674" lon="-1.57446">
        <ele>58.8</ele>
        <time>2024-04-25T17:24:20Z</time>
      </trkpt>
      <trkpt lat="46.75674" lon="-1.57438">
        <ele>58.4</ele>
        <time>2024-04-25T17:24:21Z</time>
      </trkpt>
      <trkpt lat="46.75674" lon="-1.5743">
        <ele>57.8</ele>
        <time>2024-04-25T17:24:22Z</time>
      </trkpt>
      <trkpt lat="46.75675" lon="-1.57421">
        <ele>57.4</ele>
        <time>2024-04-25T17:24:23Z</time>
      </trkpt>
      <trkpt lat="46.75676" lon="-1.57413">
        <ele>56.8</ele>
        <time>2024-04-25T17:24:24Z</time>
      </trkpt>
      <trkpt lat="46.75679" lon="-1.57404">
        <ele>56.2</ele>
        <time>2024-04-25T17:24:25Z</time>
      </trkpt>
      <trkpt lat="46.7568" lon="-1.57396">
        <ele>55.6</ele>
        <time>2024-04-25T17:24:26Z</time>
      </trkpt>
      <trkpt lat="46.75679" lon="-1.57388">
        <ele>55.2</ele>
        <time>2024-04-25T17:24:27Z</time>
      </trkpt>
      <trkpt lat="46.75678" lon="-1.57381">
        <ele>54.8</ele>
        <time>2024-04-25T17:24:28Z</time>
      </trkpt>
      <trkpt lat="46.75678" lon="-1.57374">
        <ele>54.4</ele>
        <time>2024-04-25T17:24:29Z</time>
      </trkpt>
      <trkpt lat="46.7568" lon="-1.57368">
        <ele>53.8</ele>
        <time>2024-04-25T17:24:30Z</time>
      </trkpt>
      <trkpt lat="46.75683" lon="-1.57364">
        <ele>53.6</ele>
        <time>2024-04-25T17:24:31Z</time>
      </trkpt>
      <trkpt lat="46.75687" lon="-1.57359">
        <ele>53.4</ele>
        <time>2024-04-25T17:24:32Z</time>
      </trkpt>
      <trkpt lat="46.75691" lon="-1.57355">
        <ele>53.4</ele>
        <time>2024-04-25T17:24:33Z</time>
      </trkpt>
      <trkpt lat="46.75695" lon="-1.57352">
        <ele>53.2</ele>
        <time>2024-04-25T17:24:34Z</time>
      </trkpt>
      <trkpt lat="46.75699" lon="-1.57348">
        <ele>52.6</ele>
        <time>2024-04-25T17:24:35Z</time>
      </trkpt>
      <trkpt lat="46.75704" lon="-1.57343">
        <ele>52</ele>
        <time>2024-04-25T17:24:36Z</time>
      </trkpt>
      <trkpt lat="46.75709" lon="-1.57336">
        <ele>51.2</ele>
        <time>2024-04-25T17:24:38Z</time>
      </trkpt>
      <trkpt lat="46.75713" lon="-1.57328">
        <ele>50.2</ele>
        <time>2024-04-25T17:24:39Z</time>
      </trkpt>
      <trkpt lat="46.75715" lon="-1.57318">
        <ele>49.2</ele>
        <time>2024-04-25T17:24:40Z</time>
      </trkpt>
      <trkpt lat="46.75713" lon="-1.57311">
        <ele>48.4</ele>
        <time>2024-04-25T17:24:41Z</time>
      </trkpt>
      <trkpt lat="46.75709" lon="-1.57305">
        <ele>48</ele>
        <time>2024-04-25T17:24:42Z</time>
      </trkpt>
      <trkpt lat="46.75705" lon="-1.57301">
        <ele>47.8</ele>
        <time>2024-04-25T17:24:43Z</time>
      </trkpt>
      <trkpt lat="46.75701" lon="-1.57296">
        <ele>47.2</ele>
        <time>2024-04-25T17:24:44Z</time>
      </trkpt>
      <trkpt lat="46.75698" lon="-1.5729">
        <ele>47</ele>
        <time>2024-04-25T17:24:45Z</time>
      </trkpt>
      <trkpt lat="46.75695" lon="-1.57284">
        <ele>46.6</ele>
        <time>2024-04-25T17:24:46Z</time>
      </trkpt>
      <trkpt lat="46.75693" lon="-1.57277">
        <ele>45.8</ele>
        <time>2024-04-25T17:24:47Z</time>
      </trkpt>
      <trkpt lat="46.7569" lon="-1.57271">
        <ele>44.8</ele>
        <time>2024-04-25T17:24:48Z</time>
      </trkpt>
      <trkpt lat="46.75686" lon="-1.57263">
        <ele>43.8</ele>
        <time>2024-04-25T17:24:49Z</time>
      </trkpt>
      <trkpt lat="46.75684" lon="-1.57261">
        <ele>43.2</ele>
        <time>2024-04-25T17:24:50Z</time>
      </trkpt>
      <trkpt lat="46.75681" lon="-1.57258">
        <ele>42.8</ele>
        <time>2024-04-25T17:24:51Z</time>
      </trkpt>
      <trkpt lat="46.75678" lon="-1.57258">
        <ele>42.6</ele>
        <time>2024-04-25T17:24:52Z</time>
      </trkpt>
      <trkpt lat="46.75677" lon="-1.57258">
        <ele>42.4</ele>
        <time>2024-04-25T17:24:53Z</time>
      </trkpt>
      <trkpt lat="46.75676" lon="-1.57259">
        <ele>42.4</ele>
        <time>2024-04-25T17:24:54Z</time>
      </trkpt>
      <trkpt lat="46.75676" lon="-1.57259">
        <ele>42.2</ele>
        <time>2024-04-25T17:24:55Z</time>
      </trkpt>
      <trkpt lat="46.75676" lon="-1.57259">
        <ele>42.2</ele>
        <time>2024-04-25T17:24:56Z</time>
      </trkpt>
      <trkpt lat="46.75676" lon="-1.5726">
        <ele>42.2</ele>
        <time>2024-04-25T17:24:57Z</time>
      </trkpt>
      <trkpt lat="46.75677" lon="-1.5726">
        <ele>42.2</ele>
        <time>2024-04-25T17:24:58Z</time>
      </trkpt>
      <trkpt lat="46.75677" lon="-1.5726">
        <ele>42.2</ele>
        <time>2024-04-25T17:24:59Z</time>
      </trkpt>
      <trkpt lat="46.75677" lon="-1.5726">
        <ele>42.2</ele>
        <time>2024-04-25T17:25:00Z</time>
      </trkpt>
      <trkpt lat="46.75677" lon="-1.5726">
        <ele>42.2</ele>
        <time>2024-04-25T17:25:01Z</time>
      </trkpt>
      <trkpt lat="46.75677" lon="-1.5726">
        <ele>42</ele>
        <time>2024-04-25T17:25:02Z</time>
      </trkpt>
      <trkpt lat="46.75677" lon="-1.5726">
        <ele>42.2</ele>
        <time>2024-04-25T17:25:03Z</time>
      </trkpt>
      <trkpt lat="46.75677" lon="-1.57259">
        <ele>42</ele>
        <time>2024-04-25T17:25:04Z</time>
      </trkpt>
      <trkpt lat="46.75677" lon="-1.57259">
        <ele>42</ele>
        <time>2024-04-25T17:25:05Z</time>
      </trkpt>
      <trkpt lat="46.75677" lon="-1.57259">
        <ele>42</ele>
        <time>2024-04-25T17:25:06Z</time>
      </trkpt>
      <trkpt lat="46.75677" lon="-1.57259">
        <ele>41.8</ele>
        <time>2024-04-25T17:25:07Z</time>
      </trkpt>
      <trkpt lat="46.75677" lon="-1.57259">
        <ele>41.8</ele>
        <time>2024-04-25T17:25:08Z</time>
      </trkpt>
      <trkpt lat="46.75677" lon="-1.57259">
        <ele>41.6</ele>
        <time>2024-04-25T17:25:09Z</time>
      </trkpt>
      <trkpt lat="46.75676" lon="-1.57258">
        <ele>41.6</ele>
        <time>2024-04-25T17:25:10Z</time>
      </trkpt>
      <trkpt lat="46.75676" lon="-1.57258">
        <ele>41.6</ele>
        <time>2024-04-25T17:25:11Z</time>
      </trkpt>
      <trkpt lat="46.75676" lon="-1.57258">
        <ele>41.6</ele>
        <time>2024-04-25T17:25:12Z</time>
      </trkpt>
      <trkpt lat="46.75676" lon="-1.57258">
        <ele>41.4</ele>
        <time>2024-04-25T17:25:13Z</time>
      </trkpt>
      <trkpt lat="46.75676" lon="-1.57258">
        <ele>41.4</ele>
        <time>2024-04-25T17:25:14Z</time>
      </trkpt>
      <trkpt lat="46.75676" lon="-1.57258">
        <ele>41.4</ele>
        <time>2024-04-25T17:25:15Z</time>
      </trkpt>
      <trkpt lat="46.75676" lon="-1.57258">
        <ele>41.4</ele>
        <time>2024-04-25T17:25:16Z</time>
      </trkpt>
      <trkpt lat="46.75676" lon="-1.57257">
        <ele>41.4</ele>
        <time>2024-04-25T17:25:17Z</time>
      </trkpt>
      <trkpt lat="46.75676" lon="-1.57257">
        <ele>41.4</ele>
        <time>2024-04-25T17:25:18Z</time>
      </trkpt>
      <trkpt lat="46.75676" lon="-1.57257">
        <ele>41.4</ele>
        <time>2024-04-25T17:25:19Z</time>
      </trkpt>
      <trkpt lat="46.75676" lon="-1.57257">
        <ele>41.4</ele>
        <time>2024-04-25T17:25:20Z</time>
      </trkpt>
      <trkpt lat="46.75676" lon="-1.57257">
        <ele>41.4</ele>
        <time>2024-04-25T17:25:21Z</time>
      </trkpt>
      <trkpt lat="46.75676" lon="-1.57257">
        <ele>41.6</ele>
        <time>2024-04-25T17:25:22Z</time>
      </trkpt>
      <trkpt lat="46.75675" lon="-1.57256">
        <ele>41.6</ele>
        <time>2024-04-25T17:25:23Z</time>
      </trkpt>
      <trkpt lat="46.75675" lon="-1.57256">
        <ele>41.6</ele>
        <time>2024-04-25T17:25:24Z</time>
      </trkpt>
      <trkpt lat="46.75675" lon="-1.57256">
        <ele>41.6</ele>
        <time>2024-04-25T17:25:25Z</time>
      </trkpt>
      <trkpt lat="46.75675" lon="-1.57256">
        <ele>41.6</ele>
        <time>2024-04-25T17:25:26Z</time>
      </trkpt>
      <trkpt lat="46.75675" lon="-1.57256">
        <ele>41.8</ele>
        <time>2024-04-25T17:25:27Z</time>
      </trkpt>
      <trkpt lat="46.75675" lon="-1.57256">
        <ele>41.8</ele>
        <time>2024-04-25T17:25:28Z</time>
      </trkpt>
      <trkpt lat="46.75675" lon="-1.57256">
        <ele>41.8</ele>
        <time>2024-04-25T17:25:29Z</time>
      </trkpt>
      <trkpt lat="46.75673" lon="-1.57257">
        <ele>42</ele>
        <time>2024-04-25T17:25:30Z</time>
      </trkpt>
      <trkpt lat="46.75672" lon="-1.57259">
        <ele>42</ele>
        <time>2024-04-25T17:25:31Z</time>
      </trkpt>
      <trkpt lat="46.7567" lon="-1.5726">
        <ele>42.2</ele>
        <time>2024-04-25T17:25:32Z</time>
      </trkpt>
      <trkpt lat="46.75668" lon="-1.57262">
        <ele>42.4</ele>
        <time>2024-04-25T17:25:33Z</time>
      </trkpt>
      <trkpt lat="46.75666" lon="-1.57263">
        <ele>42.4</ele>
        <time>2024-04-25T17:25:34Z</time>
      </trkpt>
      <trkpt lat="46.75665" lon="-1.57264">
        <ele>42.6</ele>
        <time>2024-04-25T17:25:35Z</time>
      </trkpt>
      <trkpt lat="46.75663" lon="-1.57265">
        <ele>42.6</ele>
        <time>2024-04-25T17:25:36Z</time>
      </trkpt>
      <trkpt lat="46.75661" lon="-1.57265">
        <ele>42.8</ele>
        <time>2024-04-25T17:25:37Z</time>
      </trkpt>
      <trkpt lat="46.7566" lon="-1.57266">
        <ele>42.8</ele>
        <time>2024-04-25T17:25:38Z</time>
      </trkpt>
      <trkpt lat="46.75659" lon="-1.57265">
        <ele>43</ele>
        <time>2024-04-25T17:25:39Z</time>
      </trkpt>
      <trkpt lat="46.75659" lon="-1.57265">
        <ele>43</ele>
        <time>2024-04-25T17:25:40Z</time>
      </trkpt>
      <trkpt lat="46.75658" lon="-1.57265">
        <ele>43</ele>
        <time>2024-04-25T17:25:41Z</time>
      </trkpt>
      <trkpt lat="46.75658" lon="-1.57264">
        <ele>43</ele>
        <time>2024-04-25T17:25:42Z</time>
      </trkpt>
      <trkpt lat="46.75658" lon="-1.57264">
        <ele>43</ele>
        <time>2024-04-25T17:25:43Z</time>
      </trkpt>
      <trkpt lat="46.75658" lon="-1.57264">
        <ele>43.2</ele>
        <time>2024-04-25T17:25:44Z</time>
      </trkpt>
      <trkpt lat="46.75658" lon="-1.57264">
        <ele>43.2</ele>
        <time>2024-04-25T17:25:45Z</time>
      </trkpt>
      <trkpt lat="46.75658" lon="-1.57264">
        <ele>43.2</ele>
        <time>2024-04-25T17:25:46Z</time>
      </trkpt>
      <trkpt lat="46.75658" lon="-1.57264">
        <ele>43.2</ele>
        <time>2024-04-25T17:25:47Z</time>
      </trkpt>
      <trkpt lat="46.75658" lon="-1.57264">
        <ele>43.2</ele>
        <time>2024-04-25T17:25:48Z</time>
      </trkpt>
      <trkpt lat="46.75658" lon="-1.57264">
        <ele>43.2</ele>
        <time>2024-04-25T17:25:49Z</time>
      </trkpt>
      <trkpt lat="46.75658" lon="-1.57263">
        <ele>43.2</ele>
        <time>2024-04-25T17:25:50Z</time>
      </trkpt>
      <trkpt lat="46.75657" lon="-1.57263">
        <ele>43.2</ele>
        <time>2024-04-25T17:25:51Z</time>
      </trkpt>
      <trkpt lat="46.75657" lon="-1.57264">
        <ele>43.2</ele>
        <time>2024-04-25T17:25:52Z</time>
      </trkpt>
      <trkpt lat="46.75657" lon="-1.57264">
        <ele>43.2</ele>
        <time>2024-04-25T17:25:53Z</time>
      </trkpt>
      <trkpt lat="46.75657" lon="-1.57264">
        <ele>43.2</ele>
        <time>2024-04-25T17:25:54Z</time>
      </trkpt>
      <trkpt lat="46.75657" lon="-1.57264">
        <ele>43.2</ele>
        <time>2024-04-25T17:25:55Z</time>
      </trkpt>
      <trkpt lat="46.75656" lon="-1.57264">
        <ele>43.2</ele>
        <time>2024-04-25T17:25:56Z</time>
      </trkpt>
      <trkpt lat="46.75656" lon="-1.57264">
        <ele>43.2</ele>
        <time>2024-04-25T17:25:57Z</time>
      </trkpt>
      <trkpt lat="46.75656" lon="-1.57264">
        <ele>43.2</ele>
        <time>2024-04-25T17:25:58Z</time>
      </trkpt>
      <trkpt lat="46.75656" lon="-1.57264">
        <ele>43.2</ele>
        <time>2024-04-25T17:25:59Z</time>
      </trkpt>
      <trkpt lat="46.75656" lon="-1.57264">
        <ele>43.2</ele>
        <time>2024-04-25T17:26:00Z</time>
      </trkpt>
      <trkpt lat="46.75656" lon="-1.57264">
        <ele>43.2</ele>
        <time>2024-04-25T17:26:01Z</time>
      </trkpt>
      <trkpt lat="46.75656" lon="-1.57264">
        <ele>43.2</ele>
        <time>2024-04-25T17:26:02Z</time>
      </trkpt>
      <trkpt lat="46.75656" lon="-1.57264">
        <ele>43.2</ele>
        <time>2024-04-25T17:26:03Z</time>
      </trkpt>
      <trkpt lat="46.75655" lon="-1.57264">
        <ele>43.2</ele>
        <time>2024-04-25T17:26:04Z</time>
      </trkpt>
      <trkpt lat="46.75655" lon="-1.57264">
        <ele>43.2</ele>
        <time>2024-04-25T17:26:05Z</time>
      </trkpt>
      <trkpt lat="46.75655" lon="-1.57264">
        <ele>43.2</ele>
        <time>2024-04-25T17:26:06Z</time>
      </trkpt>
      <trkpt lat="46.75655" lon="-1.57264">
        <ele>43.2</ele>
        <time>2024-04-25T17:26:07Z</time>
      </trkpt>
      <trkpt lat="46.75655" lon="-1.57264">
        <ele>43.2</ele>
        <time>2024-04-25T17:26:08Z</time>
      </trkpt>
      <trkpt lat="46.75655" lon="-1.57264">
        <ele>43.2</ele>
        <time>2024-04-25T17:26:09Z</time>
      </trkpt>
      <trkpt lat="46.75655" lon="-1.57264">
        <ele>43.2</ele>
        <time>2024-04-25T17:26:10Z</time>
      </trkpt>
      <trkpt lat="46.75655" lon="-1.57264">
        <ele>43.2</ele>
        <time>2024-04-25T17:26:11Z</time>
      </trkpt>
      <trkpt lat="46.75655" lon="-1.57264">
        <ele>43.2</ele>
        <time>2024-04-25T17:26:13Z</time>
      </trkpt>
      <trkpt lat="46.75655" lon="-1.57264">
        <ele>43.2</ele>
        <time>2024-04-25T17:26:14Z</time>
      </trkpt>
      <trkpt lat="46.75655" lon="-1.57263">
        <ele>43.2</ele>
        <time>2024-04-25T17:26:15Z</time>
      </trkpt>
      <trkpt lat="46.75655" lon="-1.57263">
        <ele>43.2</ele>
        <time>2024-04-25T17:26:16Z</time>
      </trkpt>
      <trkpt lat="46.75655" lon="-1.57263">
        <ele>43.2</ele>
        <time>2024-04-25T17:26:17Z</time>
      </trkpt>
      <trkpt lat="46.75654" lon="-1.57264">
        <ele>43.2</ele>
        <time>2024-04-25T17:26:18Z</time>
      </trkpt>
      <trkpt lat="46.75654" lon="-1.57265">
        <ele>43.2</ele>
        <time>2024-04-25T17:26:19Z</time>
      </trkpt>
      <trkpt lat="46.75653" lon="-1.57266">
        <ele>43.2</ele>
        <time>2024-04-25T17:26:20Z</time>
      </trkpt>
      <trkpt lat="46.75652" lon="-1.57267">
        <ele>43.2</ele>
        <time>2024-04-25T17:26:21Z</time>
      </trkpt>
      <trkpt lat="46.75651" lon="-1.57268">
        <ele>43.2</ele>
        <time>2024-04-25T17:26:22Z</time>
      </trkpt>
      <trkpt lat="46.75651" lon="-1.57269">
        <ele>43.2</ele>
        <time>2024-04-25T17:26:23Z</time>
      </trkpt>
      <trkpt lat="46.7565" lon="-1.57271">
        <ele>43.4</ele>
        <time>2024-04-25T17:26:24Z</time>
      </trkpt>
      <trkpt lat="46.75648" lon="-1.57272">
        <ele>43.4</ele>
        <time>2024-04-25T17:26:25Z</time>
      </trkpt>
      <trkpt lat="46.75647" lon="-1.57274">
        <ele>43.4</ele>
        <time>2024-04-25T17:26:26Z</time>
      </trkpt>
      <trkpt lat="46.75646" lon="-1.57275">
        <ele>43.6</ele>
        <time>2024-04-25T17:26:27Z</time>
      </trkpt>
      <trkpt lat="46.75644" lon="-1.57276">
        <ele>43.6</ele>
        <time>2024-04-25T17:26:28Z</time>
      </trkpt>
      <trkpt lat="46.75643" lon="-1.57277">
        <ele>43.6</ele>
        <time>2024-04-25T17:26:29Z</time>
      </trkpt>
      <trkpt lat="46.75641" lon="-1.5728">
        <ele>43.8</ele>
        <time>2024-04-25T17:26:30Z</time>
      </trkpt>
      <trkpt lat="46.75641" lon="-1.57281">
        <ele>43.8</ele>
        <time>2024-04-25T17:26:31Z</time>
      </trkpt>
      <trkpt lat="46.7564" lon="-1.57284">
        <ele>44</ele>
        <time>2024-04-25T17:26:32Z</time>
      </trkpt>
      <trkpt lat="46.75639" lon="-1.57286">
        <ele>44</ele>
        <time>2024-04-25T17:26:33Z</time>
      </trkpt>
      <trkpt lat="46.75639" lon="-1.57289">
        <ele>44.2</ele>
        <time>2024-04-25T17:26:34Z</time>
      </trkpt>
      <trkpt lat="46.75638" lon="-1.57292">
        <ele>44.2</ele>
        <time>2024-04-25T17:26:35Z</time>
      </trkpt>
      <trkpt lat="46.75638" lon="-1.57296">
        <ele>44.4</ele>
        <time>2024-04-25T17:26:36Z</time>
      </trkpt>
      <trkpt lat="46.75638" lon="-1.57299">
        <ele>44.6</ele>
        <time>2024-04-25T17:26:37Z</time>
      </trkpt>
      <trkpt lat="46.75638" lon="-1.57302">
        <ele>44.8</ele>
        <time>2024-04-25T17:26:38Z</time>
      </trkpt>
      <trkpt lat="46.75637" lon="-1.57306">
        <ele>45</ele>
        <time>2024-04-25T17:26:39Z</time>
      </trkpt>
      <trkpt lat="46.75636" lon="-1.57309">
        <ele>45</ele>
        <time>2024-04-25T17:26:40Z</time>
      </trkpt>
      <trkpt lat="46.75635" lon="-1.57312">
        <ele>45.2</ele>
        <time>2024-04-25T17:26:41Z</time>
      </trkpt>
      <trkpt lat="46.75635" lon="-1.57315">
        <ele>45.4</ele>
        <time>2024-04-25T17:26:42Z</time>
      </trkpt>
      <trkpt lat="46.75634" lon="-1.57318">
        <ele>45.4</ele>
        <time>2024-04-25T17:26:43Z</time>
      </trkpt>
      <trkpt lat="46.75634" lon="-1.5732">
        <ele>45.6</ele>
        <time>2024-04-25T17:26:44Z</time>
      </trkpt>
      <trkpt lat="46.75633" lon="-1.57323">
        <ele>45.6</ele>
        <time>2024-04-25T17:26:45Z</time>
      </trkpt>
      <trkpt lat="46.75632" lon="-1.57325">
        <ele>45.8</ele>
        <time>2024-04-25T17:26:46Z</time>
      </trkpt>
      <trkpt lat="46.75632" lon="-1.57327">
        <ele>45.8</ele>
        <time>2024-04-25T17:26:47Z</time>
      </trkpt>
      <trkpt lat="46.75631" lon="-1.5733">
        <ele>46</ele>
        <time>2024-04-25T17:26:48Z</time>
      </trkpt>
      <trkpt lat="46.75631" lon="-1.57332">
        <ele>46.2</ele>
        <time>2024-04-25T17:26:49Z</time>
      </trkpt>
      <trkpt lat="46.75631" lon="-1.57335">
        <ele>46.4</ele>
        <time>2024-04-25T17:26:50Z</time>
      </trkpt>
      <trkpt lat="46.75631" lon="-1.57338">
        <ele>46.6</ele>
        <time>2024-04-25T17:26:51Z</time>
      </trkpt>
      <trkpt lat="46.75631" lon="-1.57342">
        <ele>47</ele>
        <time>2024-04-25T17:26:52Z</time>
      </trkpt>
      <trkpt lat="46.75632" lon="-1.57346">
        <ele>47.4</ele>
        <time>2024-04-25T17:26:53Z</time>
      </trkpt>
      <trkpt lat="46.75632" lon="-1.5735">
        <ele>47.6</ele>
        <time>2024-04-25T17:26:54Z</time>
      </trkpt>
      <trkpt lat="46.75633" lon="-1.57354">
        <ele>48</ele>
        <time>2024-04-25T17:26:55Z</time>
      </trkpt>
      <trkpt lat="46.75633" lon="-1.57358">
        <ele>48.4</ele>
        <time>2024-04-25T17:26:56Z</time>
      </trkpt>
      <trkpt lat="46.75634" lon="-1.57361">
        <ele>48.8</ele>
        <time>2024-04-25T17:26:57Z</time>
      </trkpt>
      <trkpt lat="46.75634" lon="-1.57365">
        <ele>49</ele>
        <time>2024-04-25T17:26:58Z</time>
      </trkpt>
      <trkpt lat="46.75635" lon="-1.57368">
        <ele>49.4</ele>
        <time>2024-04-25T17:26:59Z</time>
      </trkpt>
      <trkpt lat="46.75636" lon="-1.57371">
        <ele>49.8</ele>
        <time>2024-04-25T17:27:00Z</time>
      </trkpt>
      <trkpt lat="46.75636" lon="-1.57374">
        <ele>50</ele>
        <time>2024-04-25T17:27:01Z</time>
      </trkpt>
      <trkpt lat="46.75637" lon="-1.57377">
        <ele>50.4</ele>
        <time>2024-04-25T17:27:02Z</time>
      </trkpt>
      <trkpt lat="46.75638" lon="-1.57379">
        <ele>50.6</ele>
        <time>2024-04-25T17:27:03Z</time>
      </trkpt>
      <trkpt lat="46.75639" lon="-1.57382">
        <ele>51</ele>
        <time>2024-04-25T17:27:04Z</time>
      </trkpt>
      <trkpt lat="46.75639" lon="-1.57385">
        <ele>51.4</ele>
        <time>2024-04-25T17:27:05Z</time>
      </trkpt>
      <trkpt lat="46.75639" lon="-1.57389">
        <ele>51.6</ele>
        <time>2024-04-25T17:27:06Z</time>
      </trkpt>
      <trkpt lat="46.75638" lon="-1.57392">
        <ele>52</ele>
        <time>2024-04-25T17:27:07Z</time>
      </trkpt>
      <trkpt lat="46.75637" lon="-1.57395">
        <ele>52.2</ele>
        <time>2024-04-25T17:27:08Z</time>
      </trkpt>
      <trkpt lat="46.75636" lon="-1.57398">
        <ele>52.4</ele>
        <time>2024-04-25T17:27:09Z</time>
      </trkpt>
      <trkpt lat="46.75635" lon="-1.57402">
        <ele>52.6</ele>
        <time>2024-04-25T17:27:10Z</time>
      </trkpt>
      <trkpt lat="46.75633" lon="-1.57405">
        <ele>53</ele>
        <time>2024-04-25T17:27:11Z</time>
      </trkpt>
      <trkpt lat="46.75632" lon="-1.57411">
        <ele>53.4</ele>
        <time>2024-04-25T17:27:12Z</time>
      </trkpt>
      <trkpt lat="46.75632" lon="-1.57413">
        <ele>53.8</ele>
        <time>2024-04-25T17:27:13Z</time>
      </trkpt>
      <trkpt lat="46.75632" lon="-1.57416">
        <ele>54.2</ele>
        <time>2024-04-25T17:27:14Z</time>
      </trkpt>
      <trkpt lat="46.75633" lon="-1.5742">
        <ele>54.4</ele>
        <time>2024-04-25T17:27:15Z</time>
      </trkpt>
      <trkpt lat="46.75634" lon="-1.57423">
        <ele>54.8</ele>
        <time>2024-04-25T17:27:16Z</time>
      </trkpt>
      <trkpt lat="46.75635" lon="-1.57427">
        <ele>55.2</ele>
        <time>2024-04-25T17:27:17Z</time>
      </trkpt>
      <trkpt lat="46.75636" lon="-1.5743">
        <ele>55.6</ele>
        <time>2024-04-25T17:27:18Z</time>
      </trkpt>
      <trkpt lat="46.75637" lon="-1.57433">
        <ele>55.8</ele>
        <time>2024-04-25T17:27:19Z</time>
      </trkpt>
      <trkpt lat="46.75638" lon="-1.57437">
        <ele>56.2</ele>
        <time>2024-04-25T17:27:20Z</time>
      </trkpt>
      <trkpt lat="46.75639" lon="-1.5744">
        <ele>56.4</ele>
        <time>2024-04-25T17:27:21Z</time>
      </trkpt>
      <trkpt lat="46.7564" lon="-1.57443">
        <ele>56.8</ele>
        <time>2024-04-25T17:27:22Z</time>
      </trkpt>
      <trkpt lat="46.75641" lon="-1.57446">
        <ele>57</ele>
        <time>2024-04-25T17:27:23Z</time>
      </trkpt>
      <trkpt lat="46.75642" lon="-1.57448">
        <ele>57.2</ele>
        <time>2024-04-25T17:27:24Z</time>
      </trkpt>
      <trkpt lat="46.75644" lon="-1.57451">
        <ele>57.4</ele>
        <time>2024-04-25T17:27:25Z</time>
      </trkpt>
      <trkpt lat="46.75645" lon="-1.57454">
        <ele>57.6</ele>
        <time>2024-04-25T17:27:26Z</time>
      </trkpt>
      <trkpt lat="46.75647" lon="-1.57457">
        <ele>57.8</ele>
        <time>2024-04-25T17:27:27Z</time>
      </trkpt>
      <trkpt lat="46.75649" lon="-1.57459">
        <ele>58</ele>
        <time>2024-04-25T17:27:28Z</time>
      </trkpt>
      <trkpt lat="46.75651" lon="-1.57462">
        <ele>58.2</ele>
        <time>2024-04-25T17:27:29Z</time>
      </trkpt>
      <trkpt lat="46.75653" lon="-1.57464">
        <ele>58.4</ele>
        <time>2024-04-25T17:27:30Z</time>
      </trkpt>
      <trkpt lat="46.75655" lon="-1.57466">
        <ele>58.4</ele>
        <time>2024-04-25T17:27:31Z</time>
      </trkpt>
      <trkpt lat="46.75657" lon="-1.57466">
        <ele>58.6</ele>
        <time>2024-04-25T17:27:32Z</time>
      </trkpt>
      <trkpt lat="46.75659" lon="-1.57466">
        <ele>58.6</ele>
        <time>2024-04-25T17:27:33Z</time>
      </trkpt>
      <trkpt lat="46.75661" lon="-1.57466">
        <ele>58.6</ele>
        <time>2024-04-25T17:27:34Z</time>
      </trkpt>
      <trkpt lat="46.75663" lon="-1.57466">
        <ele>58.8</ele>
        <time>2024-04-25T17:27:35Z</time>
      </trkpt>
      <trkpt lat="46.75665" lon="-1.57466">
        <ele>58.8</ele>
        <time>2024-04-25T17:27:36Z</time>
      </trkpt>
      <trkpt lat="46.75666" lon="-1.57467">
        <ele>58.8</ele>
        <time>2024-04-25T17:27:37Z</time>
      </trkpt>
      <trkpt lat="46.75668" lon="-1.57467">
        <ele>58.8</ele>
        <time>2024-04-25T17:27:38Z</time>
      </trkpt>
      <trkpt lat="46.75669" lon="-1.57468">
        <ele>58.8</ele>
        <time>2024-04-25T17:27:39Z</time>
      </trkpt>
      <trkpt lat="46.7567" lon="-1.5747">
        <ele>59</ele>
        <time>2024-04-25T17:27:40Z</time>
      </trkpt>
      <trkpt lat="46.75671" lon="-1.57471">
        <ele>59</ele>
        <time>2024-04-25T17:27:41Z</time>
      </trkpt>
      <trkpt lat="46.75673" lon="-1.57471">
        <ele>59</ele>
        <time>2024-04-25T17:27:42Z</time>
      </trkpt>
      <trkpt lat="46.75674" lon="-1.5747">
        <ele>59</ele>
        <time>2024-04-25T17:27:43Z</time>
      </trkpt>
      <trkpt lat="46.75675" lon="-1.57469">
        <ele>59.2</ele>
        <time>2024-04-25T17:27:44Z</time>
      </trkpt>
      <trkpt lat="46.75676" lon="-1.57467">
        <ele>59.6</ele>
        <time>2024-04-25T17:27:45Z</time>
      </trkpt>
      <trkpt lat="46.75676" lon="-1.57466">
        <ele>59.8</ele>
        <time>2024-04-25T17:27:46Z</time>
      </trkpt>
      <trkpt lat="46.75676" lon="-1.57465">
        <ele>59.8</ele>
        <time>2024-04-25T17:27:47Z</time>
      </trkpt>
      <trkpt lat="46.75676" lon="-1.57465">
        <ele>60</ele>
        <time>2024-04-25T17:27:49Z</time>
      </trkpt>
      <trkpt lat="46.75676" lon="-1.57465">
        <ele>60</ele>
        <time>2024-04-25T17:27:50Z</time>
      </trkpt>
      <trkpt lat="46.75676" lon="-1.57465">
        <ele>60.2</ele>
        <time>2024-04-25T17:27:51Z</time>
      </trkpt>
      <trkpt lat="46.75676" lon="-1.57465">
        <ele>60.2</ele>
        <time>2024-04-25T17:27:52Z</time>
      </trkpt>
      <trkpt lat="46.75676" lon="-1.57466">
        <ele>60.2</ele>
        <time>2024-04-25T17:27:53Z</time>
      </trkpt>
      <trkpt lat="46.75676" lon="-1.57466">
        <ele>60.2</ele>
        <time>2024-04-25T17:27:54Z</time>
      </trkpt>
      <trkpt lat="46.75676" lon="-1.57466">
        <ele>60.2</ele>
        <time>2024-04-25T17:27:55Z</time>
      </trkpt>
      <trkpt lat="46.75676" lon="-1.57466">
        <ele>60.2</ele>
        <time>2024-04-25T17:27:56Z</time>
      </trkpt>
      <trkpt lat="46.75676" lon="-1.57466">
        <ele>60.2</ele>
        <time>2024-04-25T17:27:57Z</time>
      </trkpt>
      <trkpt lat="46.75676" lon="-1.57466">
        <ele>60.2</ele>
        <time>2024-04-25T17:27:58Z</time>
      </trkpt>
      <trkpt lat="46.75676" lon="-1.57466">
        <ele>60.2</ele>
        <time>2024-04-25T17:27:59Z</time>
      </trkpt>
      <trkpt lat="46.75676" lon="-1.57466">
        <ele>60.4</ele>
        <time>2024-04-25T17:28:00Z</time>
      </trkpt>
      <trkpt lat="46.75676" lon="-1.57466">
        <ele>60.4</ele>
        <time>2024-04-25T17:28:01Z</time>
      </trkpt>
      <trkpt lat="46.75676" lon="-1.57466">
        <ele>60.4</ele>
        <time>2024-04-25T17:28:02Z</time>
      </trkpt>
      <trkpt lat="46.75675" lon="-1.57466">
        <ele>60.4</ele>
        <time>2024-04-25T17:28:03Z</time>
      </trkpt>
      <trkpt lat="46.75675" lon="-1.57466">
        <ele>60.4</ele>
        <time>2024-04-25T17:28:04Z</time>
      </trkpt>
      <trkpt lat="46.75675" lon="-1.57466">
        <ele>60.4</ele>
        <time>2024-04-25T17:28:05Z</time>
      </trkpt>
      <trkpt lat="46.75675" lon="-1.57466">
        <ele>60.4</ele>
        <time>2024-04-25T17:28:06Z</time>
      </trkpt>
      <trkpt lat="46.75675" lon="-1.57466">
        <ele>60.4</ele>
        <time>2024-04-25T17:28:07Z</time>
      </trkpt>
      <trkpt lat="46.75675" lon="-1.57466">
        <ele>60.4</ele>
        <time>2024-04-25T17:28:08Z</time>
      </trkpt>
      <trkpt lat="46.75675" lon="-1.57466">
        <ele>60.4</ele>
        <time>2024-04-25T17:28:09Z</time>
      </trkpt>
      <trkpt lat="46.75675" lon="-1.57466">
        <ele>60.4</ele>
        <time>2024-04-25T17:28:10Z</time>
      </trkpt>
      <trkpt lat="46.75675" lon="-1.57466">
        <ele>60.4</ele>
        <time>2024-04-25T17:28:11Z</time>
      </trkpt>
      <trkpt lat="46.75675" lon="-1.57466">
        <ele>60.4</ele>
        <time>2024-04-25T17:28:12Z</time>
      </trkpt>
      <trkpt lat="46.75675" lon="-1.57466">
        <ele>60.4</ele>
        <time>2024-04-25T17:28:13Z</time>
      </trkpt>
      <trkpt lat="46.75675" lon="-1.57466">
        <ele>60.4</ele>
        <time>2024-04-25T17:28:14Z</time>
      </trkpt>
      <trkpt lat="46.75675" lon="-1.57466">
        <ele>60.4</ele>
        <time>2024-04-25T17:28:15Z</time>
      </trkpt>
      <trkpt lat="46.75675" lon="-1.57466">
        <ele>60.4</ele>
        <time>2024-04-25T17:28:16Z</time>
      </trkpt>
      <trkpt lat="46.75675" lon="-1.57466">
        <ele>60.4</ele>
        <time>2024-04-25T17:28:17Z</time>
      </trkpt>
      <trkpt lat="46.75675" lon="-1.57466">
        <ele>60.4</ele>
        <time>2024-04-25T17:28:18Z</time>
      </trkpt>
      <trkpt lat="46.75675" lon="-1.57466">
        <ele>60.4</ele>
        <time>2024-04-25T17:28:19Z</time>
      </trkpt>
      <trkpt lat="46.75675" lon="-1.57466">
        <ele>60.4</ele>
        <time>2024-04-25T17:28:20Z</time>
      </trkpt>
      <trkpt lat="46.75675" lon="-1.57466">
        <ele>60.4</ele>
        <time>2024-04-25T17:28:21Z</time>
      </trkpt>
      <trkpt lat="46.75675" lon="-1.57464">
        <ele>60.2</ele>
        <time>2024-04-25T17:28:22Z</time>
      </trkpt>
      <trkpt lat="46.75675" lon="-1.57461">
        <ele>59.6</ele>
        <time>2024-04-25T17:28:23Z</time>
      </trkpt>
      <trkpt lat="46.75674" lon="-1.57455">
        <ele>59</ele>
        <time>2024-04-25T17:28:24Z</time>
      </trkpt>
      <trkpt lat="46.75674" lon="-1.57448">
        <ele>58.8</ele>
        <time>2024-04-25T17:28:25Z</time>
      </trkpt>
      <trkpt lat="46.75674" lon="-1.57441">
        <ele>58.2</ele>
        <time>2024-04-25T17:28:26Z</time>
      </trkpt>
      <trkpt lat="46.75674" lon="-1.57433">
        <ele>57.6</ele>
        <time>2024-04-25T17:28:27Z</time>
      </trkpt>
      <trkpt lat="46.75676" lon="-1.57424">
        <ele>57</ele>
        <time>2024-04-25T17:28:28Z</time>
      </trkpt>
      <trkpt lat="46.75678" lon="-1.57415">
        <ele>56.6</ele>
        <time>2024-04-25T17:28:29Z</time>
      </trkpt>
      <trkpt lat="46.7568" lon="-1.57406">
        <ele>56</ele>
        <time>2024-04-25T17:28:30Z</time>
      </trkpt>
      <trkpt lat="46.75681" lon="-1.57398">
        <ele>55.4</ele>
        <time>2024-04-25T17:28:31Z</time>
      </trkpt>
      <trkpt lat="46.75678" lon="-1.5739">
        <ele>55</ele>
        <time>2024-04-25T17:28:32Z</time>
      </trkpt>
      <trkpt lat="46.75676" lon="-1.57387">
        <ele>54.6</ele>
        <time>2024-04-25T17:28:33Z</time>
      </trkpt>
      <trkpt lat="46.75673" lon="-1.57383">
        <ele>54</ele>
        <time>2024-04-25T17:28:34Z</time>
      </trkpt>
      <trkpt lat="46.7567" lon="-1.57378">
        <ele>53.6</ele>
        <time>2024-04-25T17:28:35Z</time>
      </trkpt>
      <trkpt lat="46.7567" lon="-1.57372">
        <ele>53.2</ele>
        <time>2024-04-25T17:28:36Z</time>
      </trkpt>
      <trkpt lat="46.75671" lon="-1.57366">
        <ele>52.8</ele>
        <time>2024-04-25T17:28:37Z</time>
      </trkpt>
      <trkpt lat="46.75673" lon="-1.57361">
        <ele>52.4</ele>
        <time>2024-04-25T17:28:38Z</time>
      </trkpt>
      <trkpt lat="46.75675" lon="-1.57355">
        <ele>52.2</ele>
        <time>2024-04-25T17:28:39Z</time>
      </trkpt>
      <trkpt lat="46.75677" lon="-1.5735">
        <ele>51.8</ele>
        <time>2024-04-25T17:28:40Z</time>
      </trkpt>
      <trkpt lat="46.75679" lon="-1.57345">
        <ele>51.6</ele>
        <time>2024-04-25T17:28:41Z</time>
      </trkpt>
      <trkpt lat="46.7568" lon="-1.57341">
        <ele>51.4</ele>
        <time>2024-04-25T17:28:42Z</time>
      </trkpt>
      <trkpt lat="46.75681" lon="-1.57338">
        <ele>51.2</ele>
        <time>2024-04-25T17:28:43Z</time>
      </trkpt>
      <trkpt lat="46.75682" lon="-1.57337">
        <ele>51</ele>
        <time>2024-04-25T17:28:44Z</time>
      </trkpt>
      <trkpt lat="46.75682" lon="-1.57336">
        <ele>51</ele>
        <time>2024-04-25T17:28:45Z</time>
      </trkpt>
      <trkpt lat="46.75682" lon="-1.57336">
        <ele>50.8</ele>
        <time>2024-04-25T17:28:46Z</time>
      </trkpt>
      <trkpt lat="46.75682" lon="-1.57336">
        <ele>50.8</ele>
        <time>2024-04-25T17:28:47Z</time>
      </trkpt>
      <trkpt lat="46.75682" lon="-1.57336">
        <ele>50.8</ele>
        <time>2024-04-25T17:28:48Z</time>
      </trkpt>
      <trkpt lat="46.75682" lon="-1.57336">
        <ele>50.8</ele>
        <time>2024-04-25T17:28:49Z</time>
      </trkpt>
      <trkpt lat="46.75681" lon="-1.57337">
        <ele>50.6</ele>
        <time>2024-04-25T17:28:50Z</time>
      </trkpt>
      <trkpt lat="46.75681" lon="-1.57337">
        <ele>50.6</ele>
        <time>2024-04-25T17:28:51Z</time>
      </trkpt>
      <trkpt lat="46.75681" lon="-1.57337">
        <ele>50.4</ele>
        <time>2024-04-25T17:28:52Z</time>
      </trkpt>
      <trkpt lat="46.75682" lon="-1.57338">
        <ele>50.4</ele>
        <time>2024-04-25T17:28:53Z</time>
      </trkpt>
      <trkpt lat="46.75682" lon="-1.57338">
        <ele>50.4</ele>
        <time>2024-04-25T17:28:54Z</time>
      </trkpt>
      <trkpt lat="46.75683" lon="-1.57338">
        <ele>50.4</ele>
        <time>2024-04-25T17:28:55Z</time>
      </trkpt>
      <trkpt lat="46.75683" lon="-1.57338">
        <ele>50.6</ele>
        <time>2024-04-25T17:28:56Z</time>
      </trkpt>
      <trkpt lat="46.75684" lon="-1.57339">
        <ele>50.6</ele>
        <time>2024-04-25T17:28:57Z</time>
      </trkpt>
      <trkpt lat="46.75685" lon="-1.5734">
        <ele>50.6</ele>
        <time>2024-04-25T17:28:58Z</time>
      </trkpt>
      <trkpt lat="46.75686" lon="-1.57341">
        <ele>50.8</ele>
        <time>2024-04-25T17:28:59Z</time>
      </trkpt>
      <trkpt lat="46.75686" lon="-1.57342">
        <ele>51</ele>
        <time>2024-04-25T17:29:00Z</time>
      </trkpt>
      <trkpt lat="46.75686" lon="-1.57343">
        <ele>51</ele>
        <time>2024-04-25T17:29:01Z</time>
      </trkpt>
      <trkpt lat="46.75685" lon="-1.57344">
        <ele>51</ele>
        <time>2024-04-25T17:29:02Z</time>
      </trkpt>
      <trkpt lat="46.75684" lon="-1.57345">
        <ele>51</ele>
        <time>2024-04-25T17:29:03Z</time>
      </trkpt>
      <trkpt lat="46.75683" lon="-1.57345">
        <ele>51.2</ele>
        <time>2024-04-25T17:29:04Z</time>
      </trkpt>
      <trkpt lat="46.75682" lon="-1.57346">
        <ele>51.2</ele>
        <time>2024-04-25T17:29:05Z</time>
      </trkpt>
      <trkpt lat="46.75681" lon="-1.57347">
        <ele>51.4</ele>
        <time>2024-04-25T17:29:06Z</time>
      </trkpt>
      <trkpt lat="46.7568" lon="-1.57348">
        <ele>51.4</ele>
        <time>2024-04-25T17:29:07Z</time>
      </trkpt>
      <trkpt lat="46.75679" lon="-1.57349">
        <ele>51.4</ele>
        <time>2024-04-25T17:29:08Z</time>
      </trkpt>
      <trkpt lat="46.75677" lon="-1.57351">
        <ele>51.6</ele>
        <time>2024-04-25T17:29:09Z</time>
      </trkpt>
      <trkpt lat="46.75676" lon="-1.57354">
        <ele>51.8</ele>
        <time>2024-04-25T17:29:10Z</time>
      </trkpt>
      <trkpt lat="46.75675" lon="-1.57357">
        <ele>51.8</ele>
        <time>2024-04-25T17:29:11Z</time>
      </trkpt>
      <trkpt lat="46.75674" lon="-1.5736">
        <ele>52</ele>
        <time>2024-04-25T17:29:12Z</time>
      </trkpt>
      <trkpt lat="46.75673" lon="-1.57364">
        <ele>52.2</ele>
        <time>2024-04-25T17:29:13Z</time>
      </trkpt>
      <trkpt lat="46.75673" lon="-1.57368">
        <ele>52.4</ele>
        <time>2024-04-25T17:29:14Z</time>
      </trkpt>
      <trkpt lat="46.75673" lon="-1.57371">
        <ele>52.4</ele>
        <time>2024-04-25T17:29:15Z</time>
      </trkpt>
      <trkpt lat="46.75673" lon="-1.57373">
        <ele>52.6</ele>
        <time>2024-04-25T17:29:16Z</time>
      </trkpt>
      <trkpt lat="46.75673" lon="-1.57374">
        <ele>52.8</ele>
        <time>2024-04-25T17:29:17Z</time>
      </trkpt>
      <trkpt lat="46.75673" lon="-1.57374">
        <ele>52.8</ele>
        <time>2024-04-25T17:29:18Z</time>
      </trkpt>
      <trkpt lat="46.75673" lon="-1.57373">
        <ele>52.8</ele>
        <time>2024-04-25T17:29:19Z</time>
      </trkpt>
      <trkpt lat="46.75672" lon="-1.57372">
        <ele>52.8</ele>
        <time>2024-04-25T17:29:20Z</time>
      </trkpt>
      <trkpt lat="46.75672" lon="-1.57371">
        <ele>52.8</ele>
        <time>2024-04-25T17:29:21Z</time>
      </trkpt>
      <trkpt lat="46.75672" lon="-1.5737">
        <ele>52.8</ele>
        <time>2024-04-25T17:29:22Z</time>
      </trkpt>
      <trkpt lat="46.75672" lon="-1.5737">
        <ele>52.8</ele>
        <time>2024-04-25T17:29:23Z</time>
      </trkpt>
      <trkpt lat="46.75672" lon="-1.5737">
        <ele>52.8</ele>
        <time>2024-04-25T17:29:25Z</time>
      </trkpt>
      <trkpt lat="46.75672" lon="-1.57369">
        <ele>52.8</ele>
        <time>2024-04-25T17:29:26Z</time>
      </trkpt>
      <trkpt lat="46.75672" lon="-1.57369">
        <ele>52.8</ele>
        <time>2024-04-25T17:29:27Z</time>
      </trkpt>
      <trkpt lat="46.75672" lon="-1.57369">
        <ele>52.8</ele>
        <time>2024-04-25T17:29:28Z</time>
      </trkpt>
      <trkpt lat="46.75672" lon="-1.57369">
        <ele>52.8</ele>
        <time>2024-04-25T17:29:29Z</time>
      </trkpt>
      <trkpt lat="46.75672" lon="-1.57369">
        <ele>52.8</ele>
        <time>2024-04-25T17:29:30Z</time>
      </trkpt>
      <trkpt lat="46.75672" lon="-1.57369">
        <ele>53</ele>
        <time>2024-04-25T17:29:31Z</time>
      </trkpt>
      <trkpt lat="46.75672" lon="-1.57369">
        <ele>53</ele>
        <time>2024-04-25T17:29:32Z</time>
      </trkpt>
      <trkpt lat="46.75672" lon="-1.57369">
        <ele>53</ele>
        <time>2024-04-25T17:29:33Z</time>
      </trkpt>
      <trkpt lat="46.75672" lon="-1.57369">
        <ele>53</ele>
        <time>2024-04-25T17:29:34Z</time>
      </trkpt>
      <trkpt lat="46.75672" lon="-1.57369">
        <ele>53</ele>
        <time>2024-04-25T17:29:35Z</time>
      </trkpt>
      <trkpt lat="46.75672" lon="-1.57369">
        <ele>53</ele>
        <time>2024-04-25T17:29:36Z</time>
      </trkpt>
      <trkpt lat="46.75672" lon="-1.57369">
        <ele>53</ele>
        <time>2024-04-25T17:29:37Z</time>
      </trkpt>
      <trkpt lat="46.75672" lon="-1.57369">
        <ele>53</ele>
        <time>2024-04-25T17:29:38Z</time>
      </trkpt>
      <trkpt lat="46.75672" lon="-1.57369">
        <ele>53</ele>
        <time>2024-04-25T17:29:39Z</time>
      </trkpt>
      <trkpt lat="46.75672" lon="-1.57369">
        <ele>53</ele>
        <time>2024-04-25T17:29:40Z</time>
      </trkpt>
      <trkpt lat="46.75672" lon="-1.57369">
        <ele>53</ele>
        <time>2024-04-25T17:29:41Z</time>
      </trkpt>
      <trkpt lat="46.75672" lon="-1.57369">
        <ele>53</ele>
        <time>2024-04-25T17:29:42Z</time>
      </trkpt>
      <trkpt lat="46.75672" lon="-1.57369">
        <ele>53</ele>
        <time>2024-04-25T17:29:43Z</time>
      </trkpt>
      <trkpt lat="46.75672" lon="-1.57369">
        <ele>53</ele>
        <time>2024-04-25T17:29:44Z</time>
      </trkpt>
      <trkpt lat="46.75672" lon="-1.57369">
        <ele>53</ele>
        <time>2024-04-25T17:29:45Z</time>
      </trkpt>
      <trkpt lat="46.75672" lon="-1.57369">
        <ele>53</ele>
        <time>2024-04-25T17:29:46Z</time>
      </trkpt>
      <trkpt lat="46.75672" lon="-1.57369">
        <ele>53</ele>
        <time>2024-04-25T17:29:47Z</time>
      </trkpt>
      <trkpt lat="46.75672" lon="-1.57367">
        <ele>53</ele>
        <time>2024-04-25T17:29:48Z</time>
      </trkpt>
      <trkpt lat="46.75673" lon="-1.57364">
        <ele>52.8</ele>
        <time>2024-04-25T17:29:49Z</time>
      </trkpt>
      <trkpt lat="46.75674" lon="-1.5736">
        <ele>52.6</ele>
        <time>2024-04-25T17:29:50Z</time>
      </trkpt>
      <trkpt lat="46.75676" lon="-1.57354">
        <ele>52.4</ele>
        <time>2024-04-25T17:29:51Z</time>
      </trkpt>
      <trkpt lat="46.75679" lon="-1.57345">
        <ele>52</ele>
        <time>2024-04-25T17:29:52Z</time>
      </trkpt>
      <trkpt lat="46.7568" lon="-1.57341">
        <ele>51.8</ele>
        <time>2024-04-25T17:29:53Z</time>
      </trkpt>
      <trkpt lat="46.75682" lon="-1.57331">
        <ele>51.4</ele>
        <time>2024-04-25T17:29:54Z</time>
      </trkpt>
      <trkpt lat="46.75683" lon="-1.57328">
        <ele>51.2</ele>
        <time>2024-04-25T17:29:55Z</time>
      </trkpt>
      <trkpt lat="46.75683" lon="-1.57322">
        <ele>50.6</ele>
        <time>2024-04-25T17:29:56Z</time>
      </trkpt>
      <trkpt lat="46.75683" lon="-1.57317">
        <ele>50.2</ele>
        <time>2024-04-25T17:29:57Z</time>
      </trkpt>
      <trkpt lat="46.75682" lon="-1.57312">
        <ele>49.8</ele>
        <time>2024-04-25T17:29:58Z</time>
      </trkpt>
      <trkpt lat="46.75681" lon="-1.57308">
        <ele>49.4</ele>
        <time>2024-04-25T17:29:59Z</time>
      </trkpt>
      <trkpt lat="46.75679" lon="-1.57304">
        <ele>49</ele>
        <time>2024-04-25T17:30:00Z</time>
      </trkpt>
      <trkpt lat="46.75677" lon="-1.57301">
        <ele>48.4</ele>
        <time>2024-04-25T17:30:01Z</time>
      </trkpt>
      <trkpt lat="46.75676" lon="-1.573">
        <ele>48.2</ele>
        <time>2024-04-25T17:30:02Z</time>
      </trkpt>
      <trkpt lat="46.75675" lon="-1.57299">
        <ele>48</ele>
        <time>2024-04-25T17:30:03Z</time>
      </trkpt>
      <trkpt lat="46.75675" lon="-1.57299">
        <ele>47.8</ele>
        <time>2024-04-25T17:30:04Z</time>
      </trkpt>
      <trkpt lat="46.75675" lon="-1.57299">
        <ele>47.6</ele>
        <time>2024-04-25T17:30:05Z</time>
      </trkpt>
      <trkpt lat="46.75675" lon="-1.57299">
        <ele>47.4</ele>
        <time>2024-04-25T17:30:06Z</time>
      </trkpt>
      <trkpt lat="46.75675" lon="-1.57299">
        <ele>47.4</ele>
        <time>2024-04-25T17:30:07Z</time>
      </trkpt>
      <trkpt lat="46.75675" lon="-1.57299">
        <ele>47.2</ele>
        <time>2024-04-25T17:30:08Z</time>
      </trkpt>
      <trkpt lat="46.75676" lon="-1.57299">
        <ele>47.2</ele>
        <time>2024-04-25T17:30:09Z</time>
      </trkpt>
      <trkpt lat="46.75676" lon="-1.57299">
        <ele>47.2</ele>
        <time>2024-04-25T17:30:10Z</time>
      </trkpt>
      <trkpt lat="46.75676" lon="-1.57299">
        <ele>47.2</ele>
        <time>2024-04-25T17:30:11Z</time>
      </trkpt>
      <trkpt lat="46.75676" lon="-1.57299">
        <ele>47.2</ele>
        <time>2024-04-25T17:30:12Z</time>
      </trkpt>
      <trkpt lat="46.75676" lon="-1.57299">
        <ele>47.2</ele>
        <time>2024-04-25T17:30:13Z</time>
      </trkpt>
      <trkpt lat="46.75676" lon="-1.57299">
        <ele>47.2</ele>
        <time>2024-04-25T17:30:14Z</time>
      </trkpt>
      <trkpt lat="46.75676" lon="-1.57299">
        <ele>47.2</ele>
        <time>2024-04-25T17:30:15Z</time>
      </trkpt>
      <trkpt lat="46.75677" lon="-1.57299">
        <ele>47.2</ele>
        <time>2024-04-25T17:30:16Z</time>
      </trkpt>
      <trkpt lat="46.75677" lon="-1.57299">
        <ele>47.2</ele>
        <time>2024-04-25T17:30:17Z</time>
      </trkpt>
      <trkpt lat="46.75678" lon="-1.573">
        <ele>47.4</ele>
        <time>2024-04-25T17:30:18Z</time>
      </trkpt>
      <trkpt lat="46.75678" lon="-1.57301">
        <ele>47.4</ele>
        <time>2024-04-25T17:30:19Z</time>
      </trkpt>
      <trkpt lat="46.75679" lon="-1.57303">
        <ele>47.6</ele>
        <time>2024-04-25T17:30:20Z</time>
      </trkpt>
      <trkpt lat="46.7568" lon="-1.57304">
        <ele>47.6</ele>
        <time>2024-04-25T17:30:21Z</time>
      </trkpt>
      <trkpt lat="46.7568" lon="-1.57305">
        <ele>47.8</ele>
        <time>2024-04-25T17:30:22Z</time>
      </trkpt>
      <trkpt lat="46.75681" lon="-1.57307">
        <ele>48</ele>
        <time>2024-04-25T17:30:23Z</time>
      </trkpt>
      <trkpt lat="46.75682" lon="-1.57308">
        <ele>48.2</ele>
        <time>2024-04-25T17:30:24Z</time>
      </trkpt>
      <trkpt lat="46.75682" lon="-1.5731">
        <ele>48.2</ele>
        <time>2024-04-25T17:30:25Z</time>
      </trkpt>
      <trkpt lat="46.75682" lon="-1.57311">
        <ele>48.4</ele>
        <time>2024-04-25T17:30:26Z</time>
      </trkpt>
      <trkpt lat="46.75682" lon="-1.57312">
        <ele>48.6</ele>
        <time>2024-04-25T17:30:27Z</time>
      </trkpt>
      <trkpt lat="46.75682" lon="-1.57314">
        <ele>48.8</ele>
        <time>2024-04-25T17:30:28Z</time>
      </trkpt>
      <trkpt lat="46.75682" lon="-1.57315">
        <ele>48.8</ele>
        <time>2024-04-25T17:30:29Z</time>
      </trkpt>
      <trkpt lat="46.75682" lon="-1.57317">
        <ele>49</ele>
        <time>2024-04-25T17:30:30Z</time>
      </trkpt>
      <trkpt lat="46.75682" lon="-1.57318">
        <ele>49</ele>
        <time>2024-04-25T17:30:31Z</time>
      </trkpt>
      <trkpt lat="46.75682" lon="-1.57319">
        <ele>49.2</ele>
        <time>2024-04-25T17:30:32Z</time>
      </trkpt>
      <trkpt lat="46.75682" lon="-1.57321">
        <ele>49.4</ele>
        <time>2024-04-25T17:30:33Z</time>
      </trkpt>
      <trkpt lat="46.75682" lon="-1.57322">
        <ele>49.4</ele>
        <time>2024-04-25T17:30:34Z</time>
      </trkpt>
      <trkpt lat="46.75682" lon="-1.57323">
        <ele>49.4</ele>
        <time>2024-04-25T17:30:35Z</time>
      </trkpt>
      <trkpt lat="46.75681" lon="-1.57324">
        <ele>49.4</ele>
        <time>2024-04-25T17:30:36Z</time>
      </trkpt>
      <trkpt lat="46.75681" lon="-1.57325">
        <ele>49.6</ele>
        <time>2024-04-25T17:30:37Z</time>
      </trkpt>
      <trkpt lat="46.75681" lon="-1.57326">
        <ele>49.6</ele>
        <time>2024-04-25T17:30:38Z</time>
      </trkpt>
      <trkpt lat="46.7568" lon="-1.57326">
        <ele>49.8</ele>
        <time>2024-04-25T17:30:39Z</time>
      </trkpt>
      <trkpt lat="46.7568" lon="-1.57326">
        <ele>49.8</ele>
        <time>2024-04-25T17:30:40Z</time>
      </trkpt>
      <trkpt lat="46.7568" lon="-1.57326">
        <ele>50</ele>
        <time>2024-04-25T17:30:41Z</time>
      </trkpt>
      <trkpt lat="46.7568" lon="-1.57326">
        <ele>50</ele>
        <time>2024-04-25T17:30:42Z</time>
      </trkpt>
      <trkpt lat="46.7568" lon="-1.57326">
        <ele>50</ele>
        <time>2024-04-25T17:30:43Z</time>
      </trkpt>
      <trkpt lat="46.7568" lon="-1.57326">
        <ele>50</ele>
        <time>2024-04-25T17:30:44Z</time>
      </trkpt>
      <trkpt lat="46.7568" lon="-1.57327">
        <ele>50</ele>
        <time>2024-04-25T17:30:45Z</time>
      </trkpt>
      <trkpt lat="46.7568" lon="-1.57327">
        <ele>50</ele>
        <time>2024-04-25T17:30:46Z</time>
      </trkpt>
      <trkpt lat="46.75681" lon="-1.57328">
        <ele>50.2</ele>
        <time>2024-04-25T17:30:47Z</time>
      </trkpt>
      <trkpt lat="46.75681" lon="-1.5733">
        <ele>50.2</ele>
        <time>2024-04-25T17:30:48Z</time>
      </trkpt>
      <trkpt lat="46.7568" lon="-1.57331">
        <ele>50.4</ele>
        <time>2024-04-25T17:30:49Z</time>
      </trkpt>
      <trkpt lat="46.7568" lon="-1.57332">
        <ele>50.4</ele>
        <time>2024-04-25T17:30:50Z</time>
      </trkpt>
      <trkpt lat="46.75679" lon="-1.57333">
        <ele>50.6</ele>
        <time>2024-04-25T17:30:51Z</time>
      </trkpt>
      <trkpt lat="46.75679" lon="-1.57334">
        <ele>50.6</ele>
        <time>2024-04-25T17:30:52Z</time>
      </trkpt>
      <trkpt lat="46.75679" lon="-1.57334">
        <ele>50.6</ele>
        <time>2024-04-25T17:30:53Z</time>
      </trkpt>
      <trkpt lat="46.75679" lon="-1.57335">
        <ele>50.8</ele>
        <time>2024-04-25T17:30:54Z</time>
      </trkpt>
      <trkpt lat="46.75679" lon="-1.57335">
        <ele>50.8</ele>
        <time>2024-04-25T17:30:55Z</time>
      </trkpt>
      <trkpt lat="46.75679" lon="-1.57336">
        <ele>50.8</ele>
        <time>2024-04-25T17:30:56Z</time>
      </trkpt>
      <trkpt lat="46.75678" lon="-1.57337">
        <ele>51</ele>
        <time>2024-04-25T17:30:57Z</time>
      </trkpt>
      <trkpt lat="46.75678" lon="-1.57337">
        <ele>51</ele>
        <time>2024-04-25T17:30:58Z</time>
      </trkpt>
      <trkpt lat="46.75678" lon="-1.57337">
        <ele>51</ele>
        <time>2024-04-25T17:30:59Z</time>
      </trkpt>
      <trkpt lat="46.75678" lon="-1.57337">
        <ele>51</ele>
        <time>2024-04-25T17:31:00Z</time>
      </trkpt>
      <trkpt lat="46.75678" lon="-1.57337">
        <ele>51</ele>
        <time>2024-04-25T17:31:01Z</time>
      </trkpt>
      <trkpt lat="46.75678" lon="-1.57337">
        <ele>51</ele>
        <time>2024-04-25T17:31:02Z</time>
      </trkpt>
      <trkpt lat="46.75678" lon="-1.57337">
        <ele>51</ele>
        <time>2024-04-25T17:31:03Z</time>
      </trkpt>
      <trkpt lat="46.75678" lon="-1.57337">
        <ele>51</ele>
        <time>2024-04-25T17:31:05Z</time>
      </trkpt>
      <trkpt lat="46.75678" lon="-1.57338">
        <ele>51</ele>
        <time>2024-04-25T17:31:06Z</time>
      </trkpt>
      <trkpt lat="46.75678" lon="-1.57338">
        <ele>51</ele>
        <time>2024-04-25T17:31:07Z</time>
      </trkpt>
      <trkpt lat="46.75679" lon="-1.57338">
        <ele>51</ele>
        <time>2024-04-25T17:31:08Z</time>
      </trkpt>
      <trkpt lat="46.75679" lon="-1.57338">
        <ele>51</ele>
        <time>2024-04-25T17:31:09Z</time>
      </trkpt>
      <trkpt lat="46.75679" lon="-1.57338">
        <ele>51</ele>
        <time>2024-04-25T17:31:10Z</time>
      </trkpt>
      <trkpt lat="46.75679" lon="-1.57338">
        <ele>51</ele>
        <time>2024-04-25T17:31:11Z</time>
      </trkpt>
      <trkpt lat="46.75679" lon="-1.57338">
        <ele>51</ele>
        <time>2024-04-25T17:31:12Z</time>
      </trkpt>
      <trkpt lat="46.75679" lon="-1.57338">
        <ele>51</ele>
        <time>2024-04-25T17:31:13Z</time>
      </trkpt>
      <trkpt lat="46.75679" lon="-1.57338">
        <ele>51</ele>
        <time>2024-04-25T17:31:14Z</time>
      </trkpt>
      <trkpt lat="46.75679" lon="-1.57338">
        <ele>51</ele>
        <time>2024-04-25T17:31:15Z</time>
      </trkpt>
      <trkpt lat="46.75679" lon="-1.57338">
        <ele>51</ele>
        <time>2024-04-25T17:31:16Z</time>
      </trkpt>
      <trkpt lat="46.75679" lon="-1.57338">
        <ele>51.2</ele>
        <time>2024-04-25T17:31:17Z</time>
      </trkpt>
      <trkpt lat="46.75679" lon="-1.57338">
        <ele>51.2</ele>
        <time>2024-04-25T17:31:18Z</time>
      </trkpt>
      <trkpt lat="46.75679" lon="-1.57338">
        <ele>51.2</ele>
        <time>2024-04-25T17:31:19Z</time>
      </trkpt>
      <trkpt lat="46.75679" lon="-1.57338">
        <ele>51.2</ele>
        <time>2024-04-25T17:31:20Z</time>
      </trkpt>
      <trkpt lat="46.75679" lon="-1.57338">
        <ele>51.2</ele>
        <time>2024-04-25T17:31:21Z</time>
      </trkpt>
      <trkpt lat="46.75679" lon="-1.57338">
        <ele>51</ele>
        <time>2024-04-25T17:31:22Z</time>
      </trkpt>
      <trkpt lat="46.75679" lon="-1.57338">
        <ele>51</ele>
        <time>2024-04-25T17:31:23Z</time>
      </trkpt>
      <trkpt lat="46.7568" lon="-1.57338">
        <ele>51</ele>
        <time>2024-04-25T17:31:24Z</time>
      </trkpt>
      <trkpt lat="46.7568" lon="-1.57338">
        <ele>51</ele>
        <time>2024-04-25T17:31:25Z</time>
      </trkpt>
      <trkpt lat="46.7568" lon="-1.57338">
        <ele>51</ele>
        <time>2024-04-25T17:31:26Z</time>
      </trkpt>
      <trkpt lat="46.7568" lon="-1.57338">
        <ele>51</ele>
        <time>2024-04-25T17:31:27Z</time>
      </trkpt>
      <trkpt lat="46.7568" lon="-1.57339">
        <ele>51</ele>
        <time>2024-04-25T17:31:28Z</time>
      </trkpt>
      <trkpt lat="46.7568" lon="-1.57339">
        <ele>51</ele>
        <time>2024-04-25T17:31:29Z</time>
      </trkpt>
      <trkpt lat="46.7568" lon="-1.57339">
        <ele>51</ele>
        <time>2024-04-25T17:31:30Z</time>
      </trkpt>
      <trkpt lat="46.7568" lon="-1.5734">
        <ele>51</ele>
        <time>2024-04-25T17:31:31Z</time>
      </trkpt>
      <trkpt lat="46.7568" lon="-1.57341">
        <ele>51</ele>
        <time>2024-04-25T17:31:32Z</time>
      </trkpt>
      <trkpt lat="46.7568" lon="-1.57343">
        <ele>51.2</ele>
        <time>2024-04-25T17:31:33Z</time>
      </trkpt>
      <trkpt lat="46.7568" lon="-1.57346">
        <ele>51.2</ele>
        <time>2024-04-25T17:31:34Z</time>
      </trkpt>
      <trkpt lat="46.7568" lon="-1.57349">
        <ele>51.4</ele>
        <time>2024-04-25T17:31:35Z</time>
      </trkpt>
      <trkpt lat="46.75679" lon="-1.57352">
        <ele>51.4</ele>
        <time>2024-04-25T17:31:36Z</time>
      </trkpt>
      <trkpt lat="46.75678" lon="-1.57356">
        <ele>51.6</ele>
        <time>2024-04-25T17:31:37Z</time>
      </trkpt>
      <trkpt lat="46.75677" lon="-1.5736">
        <ele>51.8</ele>
        <time>2024-04-25T17:31:38Z</time>
      </trkpt>
      <trkpt lat="46.75676" lon="-1.57363">
        <ele>52</ele>
        <time>2024-04-25T17:31:39Z</time>
      </trkpt>
      <trkpt lat="46.75675" lon="-1.57366">
        <ele>52.2</ele>
        <time>2024-04-25T17:31:40Z</time>
      </trkpt>
      <trkpt lat="46.75675" lon="-1.57369">
        <ele>52.4</ele>
        <time>2024-04-25T17:31:41Z</time>
      </trkpt>
      <trkpt lat="46.75676" lon="-1.57371">
        <ele>52.6</ele>
        <time>2024-04-25T17:31:42Z</time>
      </trkpt>
      <trkpt lat="46.75676" lon="-1.57372">
        <ele>52.6</ele>
        <time>2024-04-25T17:31:43Z</time>
      </trkpt>
      <trkpt lat="46.75676" lon="-1.57373">
        <ele>52.8</ele>
        <time>2024-04-25T17:31:44Z</time>
      </trkpt>
      <trkpt lat="46.75676" lon="-1.57373">
        <ele>53</ele>
        <time>2024-04-25T17:31:45Z</time>
      </trkpt>
      <trkpt lat="46.75676" lon="-1.57373">
        <ele>53</ele>
        <time>2024-04-25T17:31:46Z</time>
      </trkpt>
      <trkpt lat="46.75675" lon="-1.57372">
        <ele>53</ele>
        <time>2024-04-25T17:31:47Z</time>
      </trkpt>
      <trkpt lat="46.75675" lon="-1.57371">
        <ele>53</ele>
        <time>2024-04-25T17:31:48Z</time>
      </trkpt>
      <trkpt lat="46.75674" lon="-1.5737">
        <ele>53</ele>
        <time>2024-04-25T17:31:49Z</time>
      </trkpt>
      <trkpt lat="46.75674" lon="-1.57367">
        <ele>52.8</ele>
        <time>2024-04-25T17:31:50Z</time>
      </trkpt>
      <trkpt lat="46.75676" lon="-1.57361">
        <ele>52.6</ele>
        <time>2024-04-25T17:31:51Z</time>
      </trkpt>
      <trkpt lat="46.75676" lon="-1.57359">
        <ele>52.4</ele>
        <time>2024-04-25T17:31:52Z</time>
      </trkpt>
      <trkpt lat="46.75678" lon="-1.57353">
        <ele>52</ele>
        <time>2024-04-25T17:31:53Z</time>
      </trkpt>
      <trkpt lat="46.7568" lon="-1.57347">
        <ele>51.8</ele>
        <time>2024-04-25T17:31:54Z</time>
      </trkpt>
      <trkpt lat="46.75682" lon="-1.5734">
        <ele>51.6</ele>
        <time>2024-04-25T17:31:55Z</time>
      </trkpt>
      <trkpt lat="46.75683" lon="-1.57332">
        <ele>51.4</ele>
        <time>2024-04-25T17:31:56Z</time>
      </trkpt>
      <trkpt lat="46.75683" lon="-1.57322">
        <ele>50.8</ele>
        <time>2024-04-25T17:31:57Z</time>
      </trkpt>
      <trkpt lat="46.75683" lon="-1.57319">
        <ele>50.2</ele>
        <time>2024-04-25T17:31:58Z</time>
      </trkpt>
      <trkpt lat="46.75682" lon="-1.57313">
        <ele>49.8</ele>
        <time>2024-04-25T17:31:59Z</time>
      </trkpt>
      <trkpt lat="46.7568" lon="-1.57308">
        <ele>49.4</ele>
        <time>2024-04-25T17:32:00Z</time>
      </trkpt>
      <trkpt lat="46.75677" lon="-1.57304">
        <ele>49</ele>
        <time>2024-04-25T17:32:01Z</time>
      </trkpt>
      <trkpt lat="46.75676" lon="-1.57301">
        <ele>48.6</ele>
        <time>2024-04-25T17:32:02Z</time>
      </trkpt>
      <trkpt lat="46.75676" lon="-1.57299">
        <ele>48.2</ele>
        <time>2024-04-25T17:32:03Z</time>
      </trkpt>
      <trkpt lat="46.75676" lon="-1.57299">
        <ele>48</ele>
        <time>2024-04-25T17:32:04Z</time>
      </trkpt>
      <trkpt lat="46.75677" lon="-1.573">
        <ele>48</ele>
        <time>2024-04-25T17:32:05Z</time>
      </trkpt>
      <trkpt lat="46.75677" lon="-1.57301">
        <ele>48</ele>
        <time>2024-04-25T17:32:06Z</time>
      </trkpt>
      <trkpt lat="46.75678" lon="-1.57303">
        <ele>48</ele>
        <time>2024-04-25T17:32:07Z</time>
      </trkpt>
      <trkpt lat="46.75679" lon="-1.57305">
        <ele>48</ele>
        <time>2024-04-25T17:32:08Z</time>
      </trkpt>
      <trkpt lat="46.7568" lon="-1.57307">
        <ele>48.2</ele>
        <time>2024-04-25T17:32:09Z</time>
      </trkpt>
      <trkpt lat="46.75681" lon="-1.57309">
        <ele>48.2</ele>
        <time>2024-04-25T17:32:10Z</time>
      </trkpt>
      <trkpt lat="46.75681" lon="-1.57311">
        <ele>48.4</ele>
        <time>2024-04-25T17:32:11Z</time>
      </trkpt>
      <trkpt lat="46.75681" lon="-1.57312">
        <ele>48.6</ele>
        <time>2024-04-25T17:32:12Z</time>
      </trkpt>
      <trkpt lat="46.75681" lon="-1.57313">
        <ele>48.6</ele>
        <time>2024-04-25T17:32:13Z</time>
      </trkpt>
      <trkpt lat="46.75681" lon="-1.57313">
        <ele>48.6</ele>
        <time>2024-04-25T17:32:14Z</time>
      </trkpt>
      <trkpt lat="46.75681" lon="-1.57312">
        <ele>48.8</ele>
        <time>2024-04-25T17:32:15Z</time>
      </trkpt>
      <trkpt lat="46.75681" lon="-1.57312">
        <ele>48.8</ele>
        <time>2024-04-25T17:32:16Z</time>
      </trkpt>
      <trkpt lat="46.75681" lon="-1.57312">
        <ele>48.8</ele>
        <time>2024-04-25T17:32:17Z</time>
      </trkpt>
      <trkpt lat="46.7568" lon="-1.57311">
        <ele>48.8</ele>
        <time>2024-04-25T17:32:18Z</time>
      </trkpt>
      <trkpt lat="46.7568" lon="-1.57311">
        <ele>48.8</ele>
        <time>2024-04-25T17:32:19Z</time>
      </trkpt>
      <trkpt lat="46.7568" lon="-1.57311">
        <ele>48.8</ele>
        <time>2024-04-25T17:32:20Z</time>
      </trkpt>
      <trkpt lat="46.7568" lon="-1.57311">
        <ele>48.8</ele>
        <time>2024-04-25T17:32:21Z</time>
      </trkpt>
      <trkpt lat="46.7568" lon="-1.57311">
        <ele>48.8</ele>
        <time>2024-04-25T17:32:22Z</time>
      </trkpt>
      <trkpt lat="46.7568" lon="-1.57311">
        <ele>48.8</ele>
        <time>2024-04-25T17:32:23Z</time>
      </trkpt>
      <trkpt lat="46.75679" lon="-1.57311">
        <ele>48.8</ele>
        <time>2024-04-25T17:32:24Z</time>
      </trkpt>
      <trkpt lat="46.75679" lon="-1.57311">
        <ele>48.8</ele>
        <time>2024-04-25T17:32:25Z</time>
      </trkpt>
      <trkpt lat="46.75679" lon="-1.57311">
        <ele>48.8</ele>
        <time>2024-04-25T17:32:26Z</time>
      </trkpt>
      <trkpt lat="46.75679" lon="-1.5731">
        <ele>48.8</ele>
        <time>2024-04-25T17:32:27Z</time>
      </trkpt>
      <trkpt lat="46.75679" lon="-1.57311">
        <ele>48.8</ele>
        <time>2024-04-25T17:32:28Z</time>
      </trkpt>
      <trkpt lat="46.75679" lon="-1.57311">
        <ele>48.8</ele>
        <time>2024-04-25T17:32:29Z</time>
      </trkpt>
      <trkpt lat="46.75679" lon="-1.57312">
        <ele>48.8</ele>
        <time>2024-04-25T17:32:30Z</time>
      </trkpt>
      <trkpt lat="46.75679" lon="-1.57314">
        <ele>48.8</ele>
        <time>2024-04-25T17:32:31Z</time>
      </trkpt>
      <trkpt lat="46.7568" lon="-1.57316">
        <ele>48.8</ele>
        <time>2024-04-25T17:32:32Z</time>
      </trkpt>
      <trkpt lat="46.7568" lon="-1.57318">
        <ele>49</ele>
        <time>2024-04-25T17:32:33Z</time>
      </trkpt>
      <trkpt lat="46.7568" lon="-1.5732">
        <ele>49.2</ele>
        <time>2024-04-25T17:32:34Z</time>
      </trkpt>
      <trkpt lat="46.75681" lon="-1.57322">
        <ele>49.2</ele>
        <time>2024-04-25T17:32:35Z</time>
      </trkpt>
      <trkpt lat="46.75681" lon="-1.57324">
        <ele>49.4</ele>
        <time>2024-04-25T17:32:36Z</time>
      </trkpt>
      <trkpt lat="46.75681" lon="-1.57326">
        <ele>49.4</ele>
        <time>2024-04-25T17:32:37Z</time>
      </trkpt>
      <trkpt lat="46.75681" lon="-1.57327">
        <ele>49.6</ele>
        <time>2024-04-25T17:32:39Z</time>
      </trkpt>
      <trkpt lat="46.75681" lon="-1.57327">
        <ele>49.8</ele>
        <time>2024-04-25T17:32:40Z</time>
      </trkpt>
      <trkpt lat="46.7568" lon="-1.57327">
        <ele>49.8</ele>
        <time>2024-04-25T17:32:41Z</time>
      </trkpt>
      <trkpt lat="46.7568" lon="-1.57327">
        <ele>49.8</ele>
        <time>2024-04-25T17:32:42Z</time>
      </trkpt>
      <trkpt lat="46.7568" lon="-1.57327">
        <ele>49.8</ele>
        <time>2024-04-25T17:32:43Z</time>
      </trkpt>
      <trkpt lat="46.7568" lon="-1.57327">
        <ele>50</ele>
        <time>2024-04-25T17:32:44Z</time>
      </trkpt>
      <trkpt lat="46.7568" lon="-1.57327">
        <ele>50</ele>
        <time>2024-04-25T17:32:45Z</time>
      </trkpt>
      <trkpt lat="46.7568" lon="-1.57327">
        <ele>50</ele>
        <time>2024-04-25T17:32:46Z</time>
      </trkpt>
      <trkpt lat="46.7568" lon="-1.57327">
        <ele>50</ele>
        <time>2024-04-25T17:32:47Z</time>
      </trkpt>
      <trkpt lat="46.7568" lon="-1.57327">
        <ele>50</ele>
        <time>2024-04-25T17:32:48Z</time>
      </trkpt>
      <trkpt lat="46.7568" lon="-1.57327">
        <ele>50</ele>
        <time>2024-04-25T17:32:49Z</time>
      </trkpt>
      <trkpt lat="46.7568" lon="-1.57327">
        <ele>50</ele>
        <time>2024-04-25T17:32:50Z</time>
      </trkpt>
      <trkpt lat="46.7568" lon="-1.57327">
        <ele>50</ele>
        <time>2024-04-25T17:32:51Z</time>
      </trkpt>
      <trkpt lat="46.75679" lon="-1.57328">
        <ele>50</ele>
        <time>2024-04-25T17:32:52Z</time>
      </trkpt>
      <trkpt lat="46.75679" lon="-1.57328">
        <ele>50</ele>
        <time>2024-04-25T17:32:53Z</time>
      </trkpt>
      <trkpt lat="46.75679" lon="-1.57328">
        <ele>50</ele>
        <time>2024-04-25T17:32:54Z</time>
      </trkpt>
      <trkpt lat="46.75679" lon="-1.57328">
        <ele>50</ele>
        <time>2024-04-25T17:32:55Z</time>
      </trkpt>
      <trkpt lat="46.75679" lon="-1.57328">
        <ele>50</ele>
        <time>2024-04-25T17:32:56Z</time>
      </trkpt>
      <trkpt lat="46.75679" lon="-1.57328">
        <ele>50</ele>
        <time>2024-04-25T17:32:57Z</time>
      </trkpt>
      <trkpt lat="46.75679" lon="-1.57329">
        <ele>50</ele>
        <time>2024-04-25T17:32:58Z</time>
      </trkpt>
      <trkpt lat="46.75679" lon="-1.57329">
        <ele>50</ele>
        <time>2024-04-25T17:32:59Z</time>
      </trkpt>
      <trkpt lat="46.75679" lon="-1.57329">
        <ele>50</ele>
        <time>2024-04-25T17:33:00Z</time>
      </trkpt>
      <trkpt lat="46.75679" lon="-1.57329">
        <ele>50</ele>
        <time>2024-04-25T17:33:01Z</time>
      </trkpt>
      <trkpt lat="46.75679" lon="-1.57329">
        <ele>50</ele>
        <time>2024-04-25T17:33:02Z</time>
      </trkpt>
      <trkpt lat="46.75679" lon="-1.57329">
        <ele>50</ele>
        <time>2024-04-25T17:33:03Z</time>
      </trkpt>
      <trkpt lat="46.75679" lon="-1.57329">
        <ele>50</ele>
        <time>2024-04-25T17:33:04Z</time>
      </trkpt>
      <trkpt lat="46.75679" lon="-1.5733">
        <ele>50</ele>
        <time>2024-04-25T17:33:05Z</time>
      </trkpt>
      <trkpt lat="46.75679" lon="-1.5733">
        <ele>50</ele>
        <time>2024-04-25T17:33:06Z</time>
      </trkpt>
      <trkpt lat="46.75679" lon="-1.5733">
        <ele>50</ele>
        <time>2024-04-25T17:33:07Z</time>
      </trkpt>
      <trkpt lat="46.75679" lon="-1.5733">
        <ele>50</ele>
        <time>2024-04-25T17:33:08Z</time>
      </trkpt>
      <trkpt lat="46.75679" lon="-1.5733">
        <ele>50</ele>
        <time>2024-04-25T17:33:09Z</time>
      </trkpt>
      <trkpt lat="46.75679" lon="-1.5733">
        <ele>50</ele>
        <time>2024-04-25T17:33:10Z</time>
      </trkpt>
      <trkpt lat="46.75679" lon="-1.5733">
        <ele>50</ele>
        <time>2024-04-25T17:33:11Z</time>
      </trkpt>
      <trkpt lat="46.75679" lon="-1.5733">
        <ele>50</ele>
        <time>2024-04-25T17:33:12Z</time>
      </trkpt>
      <trkpt lat="46.75679" lon="-1.5733">
        <ele>50</ele>
        <time>2024-04-25T17:33:13Z</time>
      </trkpt>
      <trkpt lat="46.75679" lon="-1.5733">
        <ele>50</ele>
        <time>2024-04-25T17:33:14Z</time>
      </trkpt>
      <trkpt lat="46.75679" lon="-1.5733">
        <ele>50</ele>
        <time>2024-04-25T17:33:15Z</time>
      </trkpt>
      <trkpt lat="46.75679" lon="-1.5733">
        <ele>50</ele>
        <time>2024-04-25T17:33:16Z</time>
      </trkpt>
      <trkpt lat="46.75679" lon="-1.5733">
        <ele>50</ele>
        <time>2024-04-25T17:33:17Z</time>
      </trkpt>
      <trkpt lat="46.75679" lon="-1.5733">
        <ele>50</ele>
        <time>2024-04-25T17:33:18Z</time>
      </trkpt>
      <trkpt lat="46.75679" lon="-1.5733">
        <ele>50</ele>
        <time>2024-04-25T17:33:19Z</time>
      </trkpt>
      <trkpt lat="46.75679" lon="-1.5733">
        <ele>50</ele>
        <time>2024-04-25T17:33:20Z</time>
      </trkpt>
      <trkpt lat="46.75679" lon="-1.5733">
        <ele>50</ele>
        <time>2024-04-25T17:33:21Z</time>
      </trkpt>
      <trkpt lat="46.75679" lon="-1.5733">
        <ele>50</ele>
        <time>2024-04-25T17:33:22Z</time>
      </trkpt>
      <trkpt lat="46.75679" lon="-1.5733">
        <ele>50</ele>
        <time>2024-04-25T17:33:23Z</time>
      </trkpt>
      <trkpt lat="46.75679" lon="-1.5733">
        <ele>50</ele>
        <time>2024-04-25T17:33:24Z</time>
      </trkpt>
      <trkpt lat="46.75679" lon="-1.5733">
        <ele>50</ele>
        <time>2024-04-25T17:33:25Z</time>
      </trkpt>
      <trkpt lat="46.75679" lon="-1.5733">
        <ele>50</ele>
        <time>2024-04-25T17:33:26Z</time>
      </trkpt>
      <trkpt lat="46.7568" lon="-1.57331">
        <ele>50</ele>
        <time>2024-04-25T17:33:27Z</time>
      </trkpt>
      <trkpt lat="46.7568" lon="-1.57331">
        <ele>50.2</ele>
        <time>2024-04-25T17:33:28Z</time>
      </trkpt>
      <trkpt lat="46.75681" lon="-1.57332">
        <ele>50.2</ele>
        <time>2024-04-25T17:33:29Z</time>
      </trkpt>
      <trkpt lat="46.75681" lon="-1.57333">
        <ele>50.2</ele>
        <time>2024-04-25T17:33:30Z</time>
      </trkpt>
      <trkpt lat="46.75682" lon="-1.57333">
        <ele>50.4</ele>
        <time>2024-04-25T17:33:31Z</time>
      </trkpt>
      <trkpt lat="46.75682" lon="-1.57334">
        <ele>50.4</ele>
        <time>2024-04-25T17:33:32Z</time>
      </trkpt>
      <trkpt lat="46.75682" lon="-1.57334">
        <ele>50.4</ele>
        <time>2024-04-25T17:33:33Z</time>
      </trkpt>
      <trkpt lat="46.75682" lon="-1.57334">
        <ele>50.4</ele>
        <time>2024-04-25T17:33:34Z</time>
      </trkpt>
      <trkpt lat="46.75682" lon="-1.57334">
        <ele>50.4</ele>
        <time>2024-04-25T17:33:35Z</time>
      </trkpt>
      <trkpt lat="46.75682" lon="-1.57334">
        <ele>50.4</ele>
        <time>2024-04-25T17:33:36Z</time>
      </trkpt>
      <trkpt lat="46.75682" lon="-1.57334">
        <ele>50.4</ele>
        <time>2024-04-25T17:33:37Z</time>
      </trkpt>
      <trkpt lat="46.75682" lon="-1.57334">
        <ele>50.2</ele>
        <time>2024-04-25T17:33:38Z</time>
      </trkpt>
      <trkpt lat="46.75682" lon="-1.57334">
        <ele>50.2</ele>
        <time>2024-04-25T17:33:39Z</time>
      </trkpt>
      <trkpt lat="46.75682" lon="-1.57334">
        <ele>50.2</ele>
        <time>2024-04-25T17:33:40Z</time>
      </trkpt>
      <trkpt lat="46.75682" lon="-1.57334">
        <ele>50</ele>
        <time>2024-04-25T17:33:41Z</time>
      </trkpt>
      <trkpt lat="46.75682" lon="-1.57334">
        <ele>50</ele>
        <time>2024-04-25T17:33:42Z</time>
      </trkpt>
      <trkpt lat="46.75682" lon="-1.57334">
        <ele>50</ele>
        <time>2024-04-25T17:33:43Z</time>
      </trkpt>
      <trkpt lat="46.75682" lon="-1.57334">
        <ele>50</ele>
        <time>2024-04-25T17:33:44Z</time>
      </trkpt>
      <trkpt lat="46.75682" lon="-1.57334">
        <ele>50</ele>
        <time>2024-04-25T17:33:45Z</time>
      </trkpt>
      <trkpt lat="46.75682" lon="-1.57334">
        <ele>50</ele>
        <time>2024-04-25T17:33:46Z</time>
      </trkpt>
      <trkpt lat="46.75682" lon="-1.57334">
        <ele>50</ele>
        <time>2024-04-25T17:33:47Z</time>
      </trkpt>
      <trkpt lat="46.75682" lon="-1.57334">
        <ele>49.8</ele>
        <time>2024-04-25T17:33:48Z</time>
      </trkpt>
      <trkpt lat="46.75682" lon="-1.57334">
        <ele>49.8</ele>
        <time>2024-04-25T17:33:49Z</time>
      </trkpt>
      <trkpt lat="46.75683" lon="-1.57334">
        <ele>49.8</ele>
        <time>2024-04-25T17:33:50Z</time>
      </trkpt>
      <trkpt lat="46.75683" lon="-1.57334">
        <ele>49.8</ele>
        <time>2024-04-25T17:33:51Z</time>
      </trkpt>
      <trkpt lat="46.75683" lon="-1.57334">
        <ele>49.8</ele>
        <time>2024-04-25T17:33:52Z</time>
      </trkpt>
      <trkpt lat="46.75683" lon="-1.57334">
        <ele>49.8</ele>
        <time>2024-04-25T17:33:53Z</time>
      </trkpt>
      <trkpt lat="46.75683" lon="-1.57334">
        <ele>49.8</ele>
        <time>2024-04-25T17:33:54Z</time>
      </trkpt>
      <trkpt lat="46.75683" lon="-1.57334">
        <ele>49.8</ele>
        <time>2024-04-25T17:33:55Z</time>
      </trkpt>
      <trkpt lat="46.75683" lon="-1.57334">
        <ele>49.8</ele>
        <time>2024-04-25T17:33:56Z</time>
      </trkpt>
      <trkpt lat="46.75683" lon="-1.57334">
        <ele>49.8</ele>
        <time>2024-04-25T17:33:57Z</time>
      </trkpt>
      <trkpt lat="46.75683" lon="-1.57334">
        <ele>49.8</ele>
        <time>2024-04-25T17:33:58Z</time>
      </trkpt>
      <trkpt lat="46.75683" lon="-1.57334">
        <ele>50</ele>
        <time>2024-04-25T17:33:59Z</time>
      </trkpt>
      <trkpt lat="46.75683" lon="-1.57334">
        <ele>50</ele>
        <time>2024-04-25T17:34:00Z</time>
      </trkpt>
      <trkpt lat="46.75683" lon="-1.57334">
        <ele>50</ele>
        <time>2024-04-25T17:34:01Z</time>
      </trkpt>
      <trkpt lat="46.75683" lon="-1.57334">
        <ele>50</ele>
        <time>2024-04-25T17:34:02Z</time>
      </trkpt>
      <trkpt lat="46.75683" lon="-1.57334">
        <ele>50</ele>
        <time>2024-04-25T17:34:03Z</time>
      </trkpt>
      <trkpt lat="46.75683" lon="-1.57334">
        <ele>50</ele>
        <time>2024-04-25T17:34:04Z</time>
      </trkpt>
      <trkpt lat="46.75683" lon="-1.57334">
        <ele>50</ele>
        <time>2024-04-25T17:34:05Z</time>
      </trkpt>
      <trkpt lat="46.75683" lon="-1.57334">
        <ele>50</ele>
        <time>2024-04-25T17:34:06Z</time>
      </trkpt>
      <trkpt lat="46.75683" lon="-1.57334">
        <ele>50</ele>
        <time>2024-04-25T17:34:07Z</time>
      </trkpt>
      <trkpt lat="46.75683" lon="-1.57334">
        <ele>50</ele>
        <time>2024-04-25T17:34:08Z</time>
      </trkpt>
      <trkpt lat="46.75683" lon="-1.57334">
        <ele>50</ele>
        <time>2024-04-25T17:34:09Z</time>
      </trkpt>
      <trkpt lat="46.75683" lon="-1.57334">
        <ele>50</ele>
        <time>2024-04-25T17:34:10Z</time>
      </trkpt>
      <trkpt lat="46.75683" lon="-1.57334">
        <ele>50</ele>
        <time>2024-04-25T17:34:11Z</time>
      </trkpt>
      <trkpt lat="46.75683" lon="-1.57334">
        <ele>50</ele>
        <time>2024-04-25T17:34:12Z</time>
      </trkpt>
      <trkpt lat="46.75683" lon="-1.57334">
        <ele>50</ele>
        <time>2024-04-25T17:34:14Z</time>
      </trkpt>
      <trkpt lat="46.75683" lon="-1.57334">
        <ele>50</ele>
        <time>2024-04-25T17:34:15Z</time>
      </trkpt>
      <trkpt lat="46.75683" lon="-1.57334">
        <ele>50</ele>
        <time>2024-04-25T17:34:16Z</time>
      </trkpt>
      <trkpt lat="46.75683" lon="-1.57334">
        <ele>50</ele>
        <time>2024-04-25T17:34:17Z</time>
      </trkpt>
      <trkpt lat="46.75683" lon="-1.57334">
        <ele>50</ele>
        <time>2024-04-25T17:34:18Z</time>
      </trkpt>
      <trkpt lat="46.75683" lon="-1.57334">
        <ele>50</ele>
        <time>2024-04-25T17:34:19Z</time>
      </trkpt>
      <trkpt lat="46.75683" lon="-1.57335">
        <ele>50</ele>
        <time>2024-04-25T17:34:20Z</time>
      </trkpt>
      <trkpt lat="46.75684" lon="-1.57335">
        <ele>50</ele>
        <time>2024-04-25T17:34:21Z</time>
      </trkpt>
      <trkpt lat="46.75684" lon="-1.57335">
        <ele>50</ele>
        <time>2024-04-25T17:34:22Z</time>
      </trkpt>
      <trkpt lat="46.75684" lon="-1.57335">
        <ele>50</ele>
        <time>2024-04-25T17:34:23Z</time>
      </trkpt>
      <trkpt lat="46.75684" lon="-1.57335">
        <ele>50</ele>
        <time>2024-04-25T17:34:24Z</time>
      </trkpt>
      <trkpt lat="46.75684" lon="-1.57335">
        <ele>50</ele>
        <time>2024-04-25T17:34:25Z</time>
      </trkpt>
      <trkpt lat="46.75684" lon="-1.57335">
        <ele>50</ele>
        <time>2024-04-25T17:34:26Z</time>
      </trkpt>
      <trkpt lat="46.75684" lon="-1.57335">
        <ele>50</ele>
        <time>2024-04-25T17:34:27Z</time>
      </trkpt>
      <trkpt lat="46.75684" lon="-1.57335">
        <ele>50</ele>
        <time>2024-04-25T17:34:28Z</time>
      </trkpt>
      <trkpt lat="46.75684" lon="-1.57335">
        <ele>50</ele>
        <time>2024-04-25T17:34:29Z</time>
      </trkpt>
      <trkpt lat="46.75684" lon="-1.57335">
        <ele>50</ele>
        <time>2024-04-25T17:34:30Z</time>
      </trkpt>
      <trkpt lat="46.75684" lon="-1.57335">
        <ele>50</ele>
        <time>2024-04-25T17:34:31Z</time>
      </trkpt>
      <trkpt lat="46.75684" lon="-1.57335">
        <ele>50</ele>
        <time>2024-04-25T17:34:32Z</time>
      </trkpt>
      <trkpt lat="46.75684" lon="-1.57335">
        <ele>50</ele>
        <time>2024-04-25T17:34:33Z</time>
      </trkpt>
      <trkpt lat="46.75684" lon="-1.57335">
        <ele>50</ele>
        <time>2024-04-25T17:34:34Z</time>
      </trkpt>
      <trkpt lat="46.75684" lon="-1.57335">
        <ele>50</ele>
        <time>2024-04-25T17:34:35Z</time>
      </trkpt>
      <trkpt lat="46.75684" lon="-1.57335">
        <ele>50</ele>
        <time>2024-04-25T17:34:36Z</time>
      </trkpt>
      <trkpt lat="46.75684" lon="-1.57335">
        <ele>50</ele>
        <time>2024-04-25T17:34:37Z</time>
      </trkpt>
      <trkpt lat="46.75684" lon="-1.57335">
        <ele>50</ele>
        <time>2024-04-25T17:34:38Z</time>
      </trkpt>
      <trkpt lat="46.75684" lon="-1.57335">
        <ele>50</ele>
        <time>2024-04-25T17:34:39Z</time>
      </trkpt>
      <trkpt lat="46.75684" lon="-1.57335">
        <ele>50</ele>
        <time>2024-04-25T17:34:40Z</time>
      </trkpt>
      <trkpt lat="46.75684" lon="-1.57335">
        <ele>50</ele>
        <time>2024-04-25T17:34:41Z</time>
      </trkpt>
      <trkpt lat="46.75684" lon="-1.57335">
        <ele>50</ele>
        <time>2024-04-25T17:34:42Z</time>
      </trkpt>
      <trkpt lat="46.75684" lon="-1.57335">
        <ele>50</ele>
        <time>2024-04-25T17:34:43Z</time>
      </trkpt>
      <trkpt lat="46.75684" lon="-1.57335">
        <ele>50</ele>
        <time>2024-04-25T17:34:44Z</time>
      </trkpt>
      <trkpt lat="46.75684" lon="-1.57335">
        <ele>50</ele>
        <time>2024-04-25T17:34:45Z</time>
      </trkpt>
      <trkpt lat="46.75684" lon="-1.57335">
        <ele>50</ele>
        <time>2024-04-25T17:34:46Z</time>
      </trkpt>
      <trkpt lat="46.75684" lon="-1.57335">
        <ele>50</ele>
        <time>2024-04-25T17:34:47Z</time>
      </trkpt>
      <trkpt lat="46.75684" lon="-1.57335">
        <ele>50</ele>
        <time>2024-04-25T17:34:48Z</time>
      </trkpt>
      <trkpt lat="46.75684" lon="-1.57335">
        <ele>50</ele>
        <time>2024-04-25T17:34:49Z</time>
      </trkpt>
      <trkpt lat="46.75684" lon="-1.57335">
        <ele>50</ele>
        <time>2024-04-25T17:34:50Z</time>
      </trkpt>
      <trkpt lat="46.75684" lon="-1.57335">
        <ele>50</ele>
        <time>2024-04-25T17:34:51Z</time>
      </trkpt>
      <trkpt lat="46.75684" lon="-1.57335">
        <ele>50</ele>
        <time>2024-04-25T17:34:52Z</time>
      </trkpt>
      <trkpt lat="46.75684" lon="-1.57335">
        <ele>50</ele>
        <time>2024-04-25T17:34:53Z</time>
      </trkpt>
      <trkpt lat="46.75684" lon="-1.57335">
        <ele>50</ele>
        <time>2024-04-25T17:34:54Z</time>
      </trkpt>
      <trkpt lat="46.75683" lon="-1.57335">
        <ele>50</ele>
        <time>2024-04-25T17:34:55Z</time>
      </trkpt>
      <trkpt lat="46.75683" lon="-1.57335">
        <ele>50</ele>
        <time>2024-04-25T17:34:56Z</time>
      </trkpt>
      <trkpt lat="46.75683" lon="-1.57335">
        <ele>50</ele>
        <time>2024-04-25T17:34:57Z</time>
      </trkpt>
      <trkpt lat="46.75683" lon="-1.57335">
        <ele>50</ele>
        <time>2024-04-25T17:34:58Z</time>
      </trkpt>
      <trkpt lat="46.75683" lon="-1.57335">
        <ele>50</ele>
        <time>2024-04-25T17:34:59Z</time>
      </trkpt>
      <trkpt lat="46.75683" lon="-1.57335">
        <ele>50</ele>
        <time>2024-04-25T17:35:00Z</time>
      </trkpt>
      <trkpt lat="46.75683" lon="-1.57335">
        <ele>50</ele>
        <time>2024-04-25T17:35:01Z</time>
      </trkpt>
      <trkpt lat="46.75683" lon="-1.57335">
        <ele>50</ele>
        <time>2024-04-25T17:35:02Z</time>
      </trkpt>
      <trkpt lat="46.75683" lon="-1.57335">
        <ele>50</ele>
        <time>2024-04-25T17:35:03Z</time>
      </trkpt>
      <trkpt lat="46.75683" lon="-1.57335">
        <ele>50</ele>
        <time>2024-04-25T17:35:04Z</time>
      </trkpt>
      <trkpt lat="46.75683" lon="-1.57335">
        <ele>50</ele>
        <time>2024-04-25T17:35:05Z</time>
      </trkpt>
      <trkpt lat="46.75683" lon="-1.57335">
        <ele>50</ele>
        <time>2024-04-25T17:35:06Z</time>
      </trkpt>
      <trkpt lat="46.75683" lon="-1.57335">
        <ele>50</ele>
        <time>2024-04-25T17:35:07Z</time>
      </trkpt>
      <trkpt lat="46.75683" lon="-1.57335">
        <ele>50</ele>
        <time>2024-04-25T17:35:08Z</time>
      </trkpt>
      <trkpt lat="46.75683" lon="-1.57335">
        <ele>50</ele>
        <time>2024-04-25T17:35:09Z</time>
      </trkpt>
      <trkpt lat="46.75683" lon="-1.57335">
        <ele>50</ele>
        <time>2024-04-25T17:35:10Z</time>
      </trkpt>
      <trkpt lat="46.75683" lon="-1.57335">
        <ele>50</ele>
        <time>2024-04-25T17:35:11Z</time>
      </trkpt>
      <trkpt lat="46.75683" lon="-1.57335">
        <ele>50</ele>
        <time>2024-04-25T17:35:12Z</time>
      </trkpt>
      <trkpt lat="46.75683" lon="-1.57335">
        <ele>50</ele>
        <time>2024-04-25T17:35:13Z</time>
      </trkpt>
      <trkpt lat="46.75683" lon="-1.57335">
        <ele>50</ele>
        <time>2024-04-25T17:35:14Z</time>
      </trkpt>
      <trkpt lat="46.75683" lon="-1.57335">
        <ele>50</ele>
        <time>2024-04-25T17:35:15Z</time>
      </trkpt>
      <trkpt lat="46.75683" lon="-1.57335">
        <ele>50</ele>
        <time>2024-04-25T17:35:16Z</time>
      </trkpt>
      <trkpt lat="46.75683" lon="-1.57335">
        <ele>50</ele>
        <time>2024-04-25T17:35:17Z</time>
      </trkpt>
      <trkpt lat="46.75683" lon="-1.57335">
        <ele>50</ele>
        <time>2024-04-25T17:35:18Z</time>
      </trkpt>
      <trkpt lat="46.75683" lon="-1.57335">
        <ele>50</ele>
        <time>2024-04-25T17:35:19Z</time>
      </trkpt>
      <trkpt lat="46.75683" lon="-1.57335">
        <ele>50</ele>
        <time>2024-04-25T17:35:20Z</time>
      </trkpt>
      <trkpt lat="46.75683" lon="-1.57336">
        <ele>50</ele>
        <time>2024-04-25T17:35:21Z</time>
      </trkpt>
      <trkpt lat="46.75683" lon="-1.57336">
        <ele>50</ele>
        <time>2024-04-25T17:35:22Z</time>
      </trkpt>
      <trkpt lat="46.75682" lon="-1.57336">
        <ele>50</ele>
        <time>2024-04-25T17:35:23Z</time>
      </trkpt>
      <trkpt lat="46.75682" lon="-1.57336">
        <ele>50</ele>
        <time>2024-04-25T17:35:24Z</time>
      </trkpt>
      <trkpt lat="46.75682" lon="-1.57336">
        <ele>50</ele>
        <time>2024-04-25T17:35:25Z</time>
      </trkpt>
      <trkpt lat="46.75682" lon="-1.57336">
        <ele>50</ele>
        <time>2024-04-25T17:35:26Z</time>
      </trkpt>
      <trkpt lat="46.75682" lon="-1.57336">
        <ele>50</ele>
        <time>2024-04-25T17:35:27Z</time>
      </trkpt>
      <trkpt lat="46.75682" lon="-1.57336">
        <ele>50</ele>
        <time>2024-04-25T17:35:28Z</time>
      </trkpt>
      <trkpt lat="46.75682" lon="-1.57336">
        <ele>50</ele>
        <time>2024-04-25T17:35:29Z</time>
      </trkpt>
      <trkpt lat="46.75682" lon="-1.57336">
        <ele>50</ele>
        <time>2024-04-25T17:35:30Z</time>
      </trkpt>
      <trkpt lat="46.75682" lon="-1.57336">
        <ele>50</ele>
        <time>2024-04-25T17:35:31Z</time>
      </trkpt>
      <trkpt lat="46.75682" lon="-1.57336">
        <ele>50</ele>
        <time>2024-04-25T17:35:32Z</time>
      </trkpt>
      <trkpt lat="46.75682" lon="-1.57336">
        <ele>50</ele>
        <time>2024-04-25T17:35:33Z</time>
      </trkpt>
      <trkpt lat="46.75682" lon="-1.57336">
        <ele>50</ele>
        <time>2024-04-25T17:35:34Z</time>
      </trkpt>
      <trkpt lat="46.75682" lon="-1.57336">
        <ele>50</ele>
        <time>2024-04-25T17:35:35Z</time>
      </trkpt>
      <trkpt lat="46.75682" lon="-1.57336">
        <ele>50</ele>
        <time>2024-04-25T17:35:36Z</time>
      </trkpt>
      <trkpt lat="46.75682" lon="-1.57336">
        <ele>50</ele>
        <time>2024-04-25T17:35:37Z</time>
      </trkpt>
      <trkpt lat="46.75682" lon="-1.57336">
        <ele>50</ele>
        <time>2024-04-25T17:35:38Z</time>
      </trkpt>
      <trkpt lat="46.75682" lon="-1.57336">
        <ele>50</ele>
        <time>2024-04-25T17:35:39Z</time>
      </trkpt>
      <trkpt lat="46.75682" lon="-1.57336">
        <ele>50</ele>
        <time>2024-04-25T17:35:40Z</time>
      </trkpt>
      <trkpt lat="46.75682" lon="-1.57336">
        <ele>50</ele>
        <time>2024-04-25T17:35:41Z</time>
      </trkpt>
      <trkpt lat="46.75682" lon="-1.57336">
        <ele>50.2</ele>
        <time>2024-04-25T17:35:42Z</time>
      </trkpt>
      <trkpt lat="46.75682" lon="-1.57335">
        <ele>50.2</ele>
        <time>2024-04-25T17:35:43Z</time>
      </trkpt>
      <trkpt lat="46.75682" lon="-1.57335">
        <ele>50.2</ele>
        <time>2024-04-25T17:35:44Z</time>
      </trkpt>
      <trkpt lat="46.75682" lon="-1.57335">
        <ele>50.4</ele>
        <time>2024-04-25T17:35:45Z</time>
      </trkpt>
      <trkpt lat="46.75682" lon="-1.57335">
        <ele>50.4</ele>
        <time>2024-04-25T17:35:46Z</time>
      </trkpt>
      <trkpt lat="46.75682" lon="-1.57335">
        <ele>50.4</ele>
        <time>2024-04-25T17:35:47Z</time>
      </trkpt>
      <trkpt lat="46.75682" lon="-1.57335">
        <ele>50.4</ele>
        <time>2024-04-25T17:35:49Z</time>
      </trkpt>
      <trkpt lat="46.75682" lon="-1.57336">
        <ele>50.4</ele>
        <time>2024-04-25T17:35:50Z</time>
      </trkpt>
      <trkpt lat="46.75682" lon="-1.57336">
        <ele>50.4</ele>
        <time>2024-04-25T17:35:51Z</time>
      </trkpt>
      <trkpt lat="46.75682" lon="-1.57336">
        <ele>50.4</ele>
        <time>2024-04-25T17:35:52Z</time>
      </trkpt>
      <trkpt lat="46.75682" lon="-1.57336">
        <ele>50.4</ele>
        <time>2024-04-25T17:35:53Z</time>
      </trkpt>
      <trkpt lat="46.75682" lon="-1.57335">
        <ele>50.4</ele>
        <time>2024-04-25T17:35:54Z</time>
      </trkpt>
      <trkpt lat="46.75683" lon="-1.57335">
        <ele>50.4</ele>
        <time>2024-04-25T17:35:55Z</time>
      </trkpt>
      <trkpt lat="46.75683" lon="-1.57335">
        <ele>50.4</ele>
        <time>2024-04-25T17:35:56Z</time>
      </trkpt>
      <trkpt lat="46.75683" lon="-1.57335">
        <ele>50.4</ele>
        <time>2024-04-25T17:35:57Z</time>
      </trkpt>
      <trkpt lat="46.75683" lon="-1.57335">
        <ele>50.4</ele>
        <time>2024-04-25T17:35:58Z</time>
      </trkpt>
      <trkpt lat="46.75683" lon="-1.57335">
        <ele>50.4</ele>
        <time>2024-04-25T17:35:59Z</time>
      </trkpt>
      <trkpt lat="46.75683" lon="-1.57335">
        <ele>50.4</ele>
        <time>2024-04-25T17:36:00Z</time>
      </trkpt>
      <trkpt lat="46.75683" lon="-1.57335">
        <ele>50.4</ele>
        <time>2024-04-25T17:36:01Z</time>
      </trkpt>
      <trkpt lat="46.75683" lon="-1.57335">
        <ele>50.4</ele>
        <time>2024-04-25T17:36:02Z</time>
      </trkpt>
      <trkpt lat="46.75684" lon="-1.57336">
        <ele>50.4</ele>
        <time>2024-04-25T17:36:03Z</time>
      </trkpt>
      <trkpt lat="46.75685" lon="-1.57336">
        <ele>50.6</ele>
        <time>2024-04-25T17:36:04Z</time>
      </trkpt>
      <trkpt lat="46.75686" lon="-1.57337">
        <ele>50.6</ele>
        <time>2024-04-25T17:36:05Z</time>
      </trkpt>
      <trkpt lat="46.75688" lon="-1.57339">
        <ele>50.6</ele>
        <time>2024-04-25T17:36:06Z</time>
      </trkpt>
      <trkpt lat="46.7569" lon="-1.57341">
        <ele>50.8</ele>
        <time>2024-04-25T17:36:07Z</time>
      </trkpt>
      <trkpt lat="46.75692" lon="-1.57344">
        <ele>50.8</ele>
        <time>2024-04-25T17:36:08Z</time>
      </trkpt>
      <trkpt lat="46.75693" lon="-1.57347">
        <ele>51</ele>
        <time>2024-04-25T17:36:09Z</time>
      </trkpt>
      <trkpt lat="46.75695" lon="-1.57348">
        <ele>51.2</ele>
        <time>2024-04-25T17:36:10Z</time>
      </trkpt>
      <trkpt lat="46.75696" lon="-1.5735">
        <ele>51.4</ele>
        <time>2024-04-25T17:36:11Z</time>
      </trkpt>
      <trkpt lat="46.75698" lon="-1.57351">
        <ele>51.4</ele>
        <time>2024-04-25T17:36:12Z</time>
      </trkpt>
      <trkpt lat="46.757" lon="-1.57352">
        <ele>51.6</ele>
        <time>2024-04-25T17:36:13Z</time>
      </trkpt>
      <trkpt lat="46.75702" lon="-1.57353">
        <ele>51.8</ele>
        <time>2024-04-25T17:36:14Z</time>
      </trkpt>
      <trkpt lat="46.75704" lon="-1.57353">
        <ele>51.8</ele>
        <time>2024-04-25T17:36:15Z</time>
      </trkpt>
      <trkpt lat="46.75706" lon="-1.57352">
        <ele>51.8</ele>
        <time>2024-04-25T17:36:16Z</time>
      </trkpt>
      <trkpt lat="46.75708" lon="-1.57352">
        <ele>52</ele>
        <time>2024-04-25T17:36:17Z</time>
      </trkpt>
      <trkpt lat="46.75709" lon="-1.57352">
        <ele>52</ele>
        <time>2024-04-25T17:36:18Z</time>
      </trkpt>
      <trkpt lat="46.7571" lon="-1.57353">
        <ele>52</ele>
        <time>2024-04-25T17:36:19Z</time>
      </trkpt>
      <trkpt lat="46.75711" lon="-1.57353">
        <ele>52</ele>
        <time>2024-04-25T17:36:20Z</time>
      </trkpt>
      <trkpt lat="46.75712" lon="-1.57353">
        <ele>52</ele>
        <time>2024-04-25T17:36:21Z</time>
      </trkpt>
      <trkpt lat="46.75713" lon="-1.57353">
        <ele>52</ele>
        <time>2024-04-25T17:36:22Z</time>
      </trkpt>
      <trkpt lat="46.75713" lon="-1.57353">
        <ele>52</ele>
        <time>2024-04-25T17:36:23Z</time>
      </trkpt>
      <trkpt lat="46.75714" lon="-1.57354">
        <ele>52</ele>
        <time>2024-04-25T17:36:24Z</time>
      </trkpt>
      <trkpt lat="46.75714" lon="-1.57354">
        <ele>52</ele>
        <time>2024-04-25T17:36:25Z</time>
      </trkpt>
      <trkpt lat="46.75714" lon="-1.57354">
        <ele>52</ele>
        <time>2024-04-25T17:36:26Z</time>
      </trkpt>
      <trkpt lat="46.75714" lon="-1.57354">
        <ele>52</ele>
        <time>2024-04-25T17:36:27Z</time>
      </trkpt>
      <trkpt lat="46.75714" lon="-1.57354">
        <ele>52</ele>
        <time>2024-04-25T17:36:28Z</time>
      </trkpt>
      <trkpt lat="46.75714" lon="-1.57354">
        <ele>52</ele>
        <time>2024-04-25T17:36:29Z</time>
      </trkpt>
      <trkpt lat="46.75714" lon="-1.57354">
        <ele>52</ele>
        <time>2024-04-25T17:36:30Z</time>
      </trkpt>
      <trkpt lat="46.75715" lon="-1.57355">
        <ele>52</ele>
        <time>2024-04-25T17:36:31Z</time>
      </trkpt>
      <trkpt lat="46.75715" lon="-1.57356">
        <ele>52</ele>
        <time>2024-04-25T17:36:32Z</time>
      </trkpt>
      <trkpt lat="46.75717" lon="-1.57359">
        <ele>52.2</ele>
        <time>2024-04-25T17:36:33Z</time>
      </trkpt>
      <trkpt lat="46.75717" lon="-1.5736">
        <ele>52.2</ele>
        <time>2024-04-25T17:36:34Z</time>
      </trkpt>
      <trkpt lat="46.75719" lon="-1.57362">
        <ele>52.2</ele>
        <time>2024-04-25T17:36:35Z</time>
      </trkpt>
      <trkpt lat="46.7572" lon="-1.57365">
        <ele>52.4</ele>
        <time>2024-04-25T17:36:36Z</time>
      </trkpt>
      <trkpt lat="46.75722" lon="-1.57368">
        <ele>52.4</ele>
        <time>2024-04-25T17:36:37Z</time>
      </trkpt>
      <trkpt lat="46.75723" lon="-1.57371">
        <ele>52.6</ele>
        <time>2024-04-25T17:36:38Z</time>
      </trkpt>
      <trkpt lat="46.75725" lon="-1.57374">
        <ele>52.6</ele>
        <time>2024-04-25T17:36:39Z</time>
      </trkpt>
      <trkpt lat="46.75726" lon="-1.57376">
        <ele>52.8</ele>
        <time>2024-04-25T17:36:40Z</time>
      </trkpt>
      <trkpt lat="46.75728" lon="-1.57377">
        <ele>52.8</ele>
        <time>2024-04-25T17:36:41Z</time>
      </trkpt>
      <trkpt lat="46.7573" lon="-1.57378">
        <ele>53</ele>
        <time>2024-04-25T17:36:42Z</time>
      </trkpt>
      <trkpt lat="46.75732" lon="-1.57377">
        <ele>53</ele>
        <time>2024-04-25T17:36:43Z</time>
      </trkpt>
      <trkpt lat="46.75733" lon="-1.57376">
        <ele>52.8</ele>
        <time>2024-04-25T17:36:44Z</time>
      </trkpt>
      <trkpt lat="46.75733" lon="-1.57375">
        <ele>52.8</ele>
        <time>2024-04-25T17:36:45Z</time>
      </trkpt>
      <trkpt lat="46.75734" lon="-1.57372">
        <ele>52.6</ele>
        <time>2024-04-25T17:36:46Z</time>
      </trkpt>
      <trkpt lat="46.75734" lon="-1.5737">
        <ele>52.6</ele>
        <time>2024-04-25T17:36:47Z</time>
      </trkpt>
      <trkpt lat="46.75735" lon="-1.57368">
        <ele>52.4</ele>
        <time>2024-04-25T17:36:48Z</time>
      </trkpt>
      <trkpt lat="46.75735" lon="-1.57366">
        <ele>52.2</ele>
        <time>2024-04-25T17:36:49Z</time>
      </trkpt>
      <trkpt lat="46.75736" lon="-1.57363">
        <ele>52</ele>
        <time>2024-04-25T17:36:50Z</time>
      </trkpt>
      <trkpt lat="46.75738" lon="-1.5736">
        <ele>51.6</ele>
        <time>2024-04-25T17:36:51Z</time>
      </trkpt>
      <trkpt lat="46.75739" lon="-1.57356">
        <ele>51.2</ele>
        <time>2024-04-25T17:36:52Z</time>
      </trkpt>
      <trkpt lat="46.7574" lon="-1.57353">
        <ele>50.8</ele>
        <time>2024-04-25T17:36:53Z</time>
      </trkpt>
      <trkpt lat="46.75741" lon="-1.57349">
        <ele>50.4</ele>
        <time>2024-04-25T17:36:54Z</time>
      </trkpt>
      <trkpt lat="46.75742" lon="-1.57346">
        <ele>50</ele>
        <time>2024-04-25T17:36:55Z</time>
      </trkpt>
      <trkpt lat="46.75743" lon="-1.57344">
        <ele>49.6</ele>
        <time>2024-04-25T17:36:56Z</time>
      </trkpt>
      <trkpt lat="46.75745" lon="-1.57341">
        <ele>49.2</ele>
        <time>2024-04-25T17:36:57Z</time>
      </trkpt>
      <trkpt lat="46.75747" lon="-1.5734">
        <ele>48.8</ele>
        <time>2024-04-25T17:36:58Z</time>
      </trkpt>
      <trkpt lat="46.7575" lon="-1.5734">
        <ele>48.4</ele>
        <time>2024-04-25T17:36:59Z</time>
      </trkpt>
      <trkpt lat="46.75754" lon="-1.57339">
        <ele>48.2</ele>
        <time>2024-04-25T17:37:00Z</time>
      </trkpt>
      <trkpt lat="46.75758" lon="-1.5734">
        <ele>48</ele>
        <time>2024-04-25T17:37:01Z</time>
      </trkpt>
      <trkpt lat="46.75761" lon="-1.57342">
        <ele>47.8</ele>
        <time>2024-04-25T17:37:02Z</time>
      </trkpt>
      <trkpt lat="46.75763" lon="-1.57343">
        <ele>47.8</ele>
        <time>2024-04-25T17:37:03Z</time>
      </trkpt>
      <trkpt lat="46.75768" lon="-1.57345">
        <ele>47.8</ele>
        <time>2024-04-25T17:37:04Z</time>
      </trkpt>
      <trkpt lat="46.75769" lon="-1.57346">
        <ele>47.6</ele>
        <time>2024-04-25T17:37:05Z</time>
      </trkpt>
      <trkpt lat="46.75772" lon="-1.57346">
        <ele>47.4</ele>
        <time>2024-04-25T17:37:06Z</time>
      </trkpt>
      <trkpt lat="46.75776" lon="-1.57346">
        <ele>47.2</ele>
        <time>2024-04-25T17:37:07Z</time>
      </trkpt>
      <trkpt lat="46.75779" lon="-1.57347">
        <ele>47</ele>
        <time>2024-04-25T17:37:08Z</time>
      </trkpt>
      <trkpt lat="46.75782" lon="-1.57347">
        <ele>46.8</ele>
        <time>2024-04-25T17:37:09Z</time>
      </trkpt>
      <trkpt lat="46.75785" lon="-1.57348">
        <ele>46.8</ele>
        <time>2024-04-25T17:37:10Z</time>
      </trkpt>
      <trkpt lat="46.75788" lon="-1.57349">
        <ele>46.8</ele>
        <time>2024-04-25T17:37:11Z</time>
      </trkpt>
      <trkpt lat="46.7579" lon="-1.57351">
        <ele>46.8</ele>
        <time>2024-04-25T17:37:12Z</time>
      </trkpt>
      <trkpt lat="46.75792" lon="-1.57352">
        <ele>46.8</ele>
        <time>2024-04-25T17:37:13Z</time>
      </trkpt>
      <trkpt lat="46.75795" lon="-1.57353">
        <ele>46.8</ele>
        <time>2024-04-25T17:37:14Z</time>
      </trkpt>
      <trkpt lat="46.75797" lon="-1.57353">
        <ele>46.8</ele>
        <time>2024-04-25T17:37:15Z</time>
      </trkpt>
      <trkpt lat="46.75799" lon="-1.57352">
        <ele>46.6</ele>
        <time>2024-04-25T17:37:16Z</time>
      </trkpt>
      <trkpt lat="46.75801" lon="-1.57352">
        <ele>46.2</ele>
        <time>2024-04-25T17:37:17Z</time>
      </trkpt>
      <trkpt lat="46.75803" lon="-1.57352">
        <ele>45.8</ele>
        <time>2024-04-25T17:37:18Z</time>
      </trkpt>
      <trkpt lat="46.75806" lon="-1.57352">
        <ele>45.4</ele>
        <time>2024-04-25T17:37:19Z</time>
      </trkpt>
      <trkpt lat="46.75808" lon="-1.57352">
        <ele>45.2</ele>
        <time>2024-04-25T17:37:20Z</time>
      </trkpt>
      <trkpt lat="46.7581" lon="-1.57352">
        <ele>44.8</ele>
        <time>2024-04-25T17:37:21Z</time>
      </trkpt>
      <trkpt lat="46.75813" lon="-1.57351">
        <ele>44.4</ele>
        <time>2024-04-25T17:37:22Z</time>
      </trkpt>
      <trkpt lat="46.75815" lon="-1.5735">
        <ele>43.8</ele>
        <time>2024-04-25T17:37:24Z</time>
      </trkpt>
      <trkpt lat="46.75819" lon="-1.57348">
        <ele>43</ele>
        <time>2024-04-25T17:37:25Z</time>
      </trkpt>
      <trkpt lat="46.75822" lon="-1.57346">
        <ele>42.2</ele>
        <time>2024-04-25T17:37:26Z</time>
      </trkpt>
      <trkpt lat="46.75827" lon="-1.57344">
        <ele>41.2</ele>
        <time>2024-04-25T17:37:27Z</time>
      </trkpt>
      <trkpt lat="46.75831" lon="-1.57344">
        <ele>40.2</ele>
        <time>2024-04-25T17:37:28Z</time>
      </trkpt>
      <trkpt lat="46.75835" lon="-1.57345">
        <ele>39.4</ele>
        <time>2024-04-25T17:37:29Z</time>
      </trkpt>
      <trkpt lat="46.75838" lon="-1.57347">
        <ele>39</ele>
        <time>2024-04-25T17:37:30Z</time>
      </trkpt>
      <trkpt lat="46.75842" lon="-1.57348">
        <ele>38.6</ele>
        <time>2024-04-25T17:37:31Z</time>
      </trkpt>
      <trkpt lat="46.75846" lon="-1.57349">
        <ele>38.4</ele>
        <time>2024-04-25T17:37:32Z</time>
      </trkpt>
      <trkpt lat="46.75849" lon="-1.57351">
        <ele>38</ele>
        <time>2024-04-25T17:37:33Z</time>
      </trkpt>
      <trkpt lat="46.75853" lon="-1.57352">
        <ele>37.8</ele>
        <time>2024-04-25T17:37:34Z</time>
      </trkpt>
      <trkpt lat="46.75856" lon="-1.57353">
        <ele>37.8</ele>
        <time>2024-04-25T17:37:35Z</time>
      </trkpt>
      <trkpt lat="46.75858" lon="-1.57354">
        <ele>37.6</ele>
        <time>2024-04-25T17:37:36Z</time>
      </trkpt>
      <trkpt lat="46.75861" lon="-1.57354">
        <ele>37.6</ele>
        <time>2024-04-25T17:37:37Z</time>
      </trkpt>
      <trkpt lat="46.75864" lon="-1.57354">
        <ele>37.4</ele>
        <time>2024-04-25T17:37:38Z</time>
      </trkpt>
      <trkpt lat="46.75866" lon="-1.57354">
        <ele>37.2</ele>
        <time>2024-04-25T17:37:39Z</time>
      </trkpt>
      <trkpt lat="46.75869" lon="-1.57354">
        <ele>37</ele>
        <time>2024-04-25T17:37:40Z</time>
      </trkpt>
      <trkpt lat="46.75872" lon="-1.57354">
        <ele>36.8</ele>
        <time>2024-04-25T17:37:41Z</time>
      </trkpt>
      <trkpt lat="46.75874" lon="-1.57355">
        <ele>36.6</ele>
        <time>2024-04-25T17:37:42Z</time>
      </trkpt>
      <trkpt lat="46.75875" lon="-1.57357">
        <ele>36.4</ele>
        <time>2024-04-25T17:37:43Z</time>
      </trkpt>
      <trkpt lat="46.75876" lon="-1.5736">
        <ele>36.2</ele>
        <time>2024-04-25T17:37:44Z</time>
      </trkpt>
      <trkpt lat="46.75876" lon="-1.57363">
        <ele>36.2</ele>
        <time>2024-04-25T17:37:45Z</time>
      </trkpt>
      <trkpt lat="46.75876" lon="-1.57367">
        <ele>36.2</ele>
        <time>2024-04-25T17:37:46Z</time>
      </trkpt>
      <trkpt lat="46.75876" lon="-1.5737">
        <ele>36.2</ele>
        <time>2024-04-25T17:37:47Z</time>
      </trkpt>
      <trkpt lat="46.75876" lon="-1.57374">
        <ele>36.4</ele>
        <time>2024-04-25T17:37:48Z</time>
      </trkpt>
      <trkpt lat="46.75876" lon="-1.57377">
        <ele>36.4</ele>
        <time>2024-04-25T17:37:49Z</time>
      </trkpt>
      <trkpt lat="46.75877" lon="-1.5738">
        <ele>36.4</ele>
        <time>2024-04-25T17:37:50Z</time>
      </trkpt>
      <trkpt lat="46.75877" lon="-1.57383">
        <ele>36.6</ele>
        <time>2024-04-25T17:37:51Z</time>
      </trkpt>
      <trkpt lat="46.75877" lon="-1.57386">
        <ele>36.8</ele>
        <time>2024-04-25T17:37:52Z</time>
      </trkpt>
      <trkpt lat="46.75878" lon="-1.5739">
        <ele>37</ele>
        <time>2024-04-25T17:37:53Z</time>
      </trkpt>
      <trkpt lat="46.75878" lon="-1.57392">
        <ele>37.2</ele>
        <time>2024-04-25T17:37:54Z</time>
      </trkpt>
      <trkpt lat="46.75879" lon="-1.57395">
        <ele>37.4</ele>
        <time>2024-04-25T17:37:55Z</time>
      </trkpt>
      <trkpt lat="46.7588" lon="-1.57398">
        <ele>37.6</ele>
        <time>2024-04-25T17:37:56Z</time>
      </trkpt>
      <trkpt lat="46.75881" lon="-1.57401">
        <ele>37.6</ele>
        <time>2024-04-25T17:37:57Z</time>
      </trkpt>
      <trkpt lat="46.75882" lon="-1.57405">
        <ele>37.8</ele>
        <time>2024-04-25T17:37:58Z</time>
      </trkpt>
      <trkpt lat="46.75882" lon="-1.57408">
        <ele>38</ele>
        <time>2024-04-25T17:37:59Z</time>
      </trkpt>
      <trkpt lat="46.75883" lon="-1.57411">
        <ele>38.2</ele>
        <time>2024-04-25T17:38:00Z</time>
      </trkpt>
      <trkpt lat="46.75884" lon="-1.57415">
        <ele>38.4</ele>
        <time>2024-04-25T17:38:01Z</time>
      </trkpt>
      <trkpt lat="46.75884" lon="-1.57418">
        <ele>38.6</ele>
        <time>2024-04-25T17:38:02Z</time>
      </trkpt>
      <trkpt lat="46.75885" lon="-1.57422">
        <ele>39</ele>
        <time>2024-04-25T17:38:03Z</time>
      </trkpt>
      <trkpt lat="46.75886" lon="-1.57426">
        <ele>39.2</ele>
        <time>2024-04-25T17:38:04Z</time>
      </trkpt>
      <trkpt lat="46.75886" lon="-1.57432">
        <ele>39.4</ele>
        <time>2024-04-25T17:38:05Z</time>
      </trkpt>
      <trkpt lat="46.75886" lon="-1.57434">
        <ele>39.6</ele>
        <time>2024-04-25T17:38:06Z</time>
      </trkpt>
      <trkpt lat="46.75887" lon="-1.57438">
        <ele>39.6</ele>
        <time>2024-04-25T17:38:07Z</time>
      </trkpt>
      <trkpt lat="46.75887" lon="-1.57444">
        <ele>39.8</ele>
        <time>2024-04-25T17:38:08Z</time>
      </trkpt>
      <trkpt lat="46.75887" lon="-1.57446">
        <ele>39.8</ele>
        <time>2024-04-25T17:38:09Z</time>
      </trkpt>
      <trkpt lat="46.75887" lon="-1.5745">
        <ele>40</ele>
        <time>2024-04-25T17:38:10Z</time>
      </trkpt>
      <trkpt lat="46.75887" lon="-1.57454">
        <ele>40.2</ele>
        <time>2024-04-25T17:38:11Z</time>
      </trkpt>
      <trkpt lat="46.75887" lon="-1.57461">
        <ele>40.4</ele>
        <time>2024-04-25T17:38:12Z</time>
      </trkpt>
      <trkpt lat="46.75887" lon="-1.57463">
        <ele>40.4</ele>
        <time>2024-04-25T17:38:13Z</time>
      </trkpt>
      <trkpt lat="46.75887" lon="-1.57467">
        <ele>40.6</ele>
        <time>2024-04-25T17:38:14Z</time>
      </trkpt>
      <trkpt lat="46.75886" lon="-1.57472">
        <ele>40.6</ele>
        <time>2024-04-25T17:38:15Z</time>
      </trkpt>
      <trkpt lat="46.75886" lon="-1.57476">
        <ele>41</ele>
        <time>2024-04-25T17:38:16Z</time>
      </trkpt>
      <trkpt lat="46.75885" lon="-1.5748">
        <ele>41</ele>
        <time>2024-04-25T17:38:17Z</time>
      </trkpt>
      <trkpt lat="46.75885" lon="-1.57485">
        <ele>41.2</ele>
        <time>2024-04-25T17:38:18Z</time>
      </trkpt>
      <trkpt lat="46.75884" lon="-1.5749">
        <ele>41.2</ele>
        <time>2024-04-25T17:38:19Z</time>
      </trkpt>
      <trkpt lat="46.75882" lon="-1.57497">
        <ele>41.4</ele>
        <time>2024-04-25T17:38:20Z</time>
      </trkpt>
      <trkpt lat="46.75881" lon="-1.575">
        <ele>41.6</ele>
        <time>2024-04-25T17:38:21Z</time>
      </trkpt>
      <trkpt lat="46.7588" lon="-1.57504">
        <ele>41.6</ele>
        <time>2024-04-25T17:38:22Z</time>
      </trkpt>
      <trkpt lat="46.75878" lon="-1.57509">
        <ele>41.8</ele>
        <time>2024-04-25T17:38:23Z</time>
      </trkpt>
      <trkpt lat="46.75876" lon="-1.57513">
        <ele>42</ele>
        <time>2024-04-25T17:38:24Z</time>
      </trkpt>
      <trkpt lat="46.75875" lon="-1.57517">
        <ele>42</ele>
        <time>2024-04-25T17:38:25Z</time>
      </trkpt>
      <trkpt lat="46.75873" lon="-1.57522">
        <ele>42.2</ele>
        <time>2024-04-25T17:38:26Z</time>
      </trkpt>
      <trkpt lat="46.75872" lon="-1.57526">
        <ele>42.2</ele>
        <time>2024-04-25T17:38:27Z</time>
      </trkpt>
      <trkpt lat="46.7587" lon="-1.57531">
        <ele>42.4</ele>
        <time>2024-04-25T17:38:28Z</time>
      </trkpt>
      <trkpt lat="46.75869" lon="-1.57536">
        <ele>42.6</ele>
        <time>2024-04-25T17:38:29Z</time>
      </trkpt>
      <trkpt lat="46.75868" lon="-1.57541">
        <ele>42.6</ele>
        <time>2024-04-25T17:38:30Z</time>
      </trkpt>
      <trkpt lat="46.75867" lon="-1.57546">
        <ele>42.8</ele>
        <time>2024-04-25T17:38:31Z</time>
      </trkpt>
      <trkpt lat="46.75866" lon="-1.57551">
        <ele>42.8</ele>
        <time>2024-04-25T17:38:32Z</time>
      </trkpt>
      <trkpt lat="46.75866" lon="-1.57556">
        <ele>42.8</ele>
        <time>2024-04-25T17:38:33Z</time>
      </trkpt>
      <trkpt lat="46.75865" lon="-1.57561">
        <ele>43</ele>
        <time>2024-04-25T17:38:34Z</time>
      </trkpt>
      <trkpt lat="46.75865" lon="-1.57566">
        <ele>43</ele>
        <time>2024-04-25T17:38:35Z</time>
      </trkpt>
      <trkpt lat="46.75865" lon="-1.57573">
        <ele>43</ele>
        <time>2024-04-25T17:38:36Z</time>
      </trkpt>
      <trkpt lat="46.75865" lon="-1.57581">
        <ele>43.2</ele>
        <time>2024-04-25T17:38:37Z</time>
      </trkpt>
      <trkpt lat="46.75866" lon="-1.57584">
        <ele>43.2</ele>
        <time>2024-04-25T17:38:38Z</time>
      </trkpt>
      <trkpt lat="46.75867" lon="-1.5759">
        <ele>43.4</ele>
        <time>2024-04-25T17:38:39Z</time>
      </trkpt>
      <trkpt lat="46.75869" lon="-1.57594">
        <ele>43.6</ele>
        <time>2024-04-25T17:38:40Z</time>
      </trkpt>
      <trkpt lat="46.75872" lon="-1.57597">
        <ele>43.6</ele>
        <time>2024-04-25T17:38:41Z</time>
      </trkpt>
      <trkpt lat="46.75875" lon="-1.576">
        <ele>43.8</ele>
        <time>2024-04-25T17:38:42Z</time>
      </trkpt>
      <trkpt lat="46.75878" lon="-1.57602">
        <ele>43.8</ele>
        <time>2024-04-25T17:38:43Z</time>
      </trkpt>
      <trkpt lat="46.75881" lon="-1.57603">
        <ele>44</ele>
        <time>2024-04-25T17:38:44Z</time>
      </trkpt>
      <trkpt lat="46.75884" lon="-1.57604">
        <ele>44.4</ele>
        <time>2024-04-25T17:38:45Z</time>
      </trkpt>
      <trkpt lat="46.75887" lon="-1.57604">
        <ele>44.6</ele>
        <time>2024-04-25T17:38:46Z</time>
      </trkpt>
      <trkpt lat="46.75889" lon="-1.57605">
        <ele>45</ele>
        <time>2024-04-25T17:38:47Z</time>
      </trkpt>
      <trkpt lat="46.75892" lon="-1.57606">
        <ele>45.2</ele>
        <time>2024-04-25T17:38:48Z</time>
      </trkpt>
      <trkpt lat="46.75894" lon="-1.57607">
        <ele>45.6</ele>
        <time>2024-04-25T17:38:49Z</time>
      </trkpt>
      <trkpt lat="46.75897" lon="-1.57609">
        <ele>45.8</ele>
        <time>2024-04-25T17:38:50Z</time>
      </trkpt>
      <trkpt lat="46.759" lon="-1.5761">
        <ele>46.2</ele>
        <time>2024-04-25T17:38:51Z</time>
      </trkpt>
      <trkpt lat="46.75902" lon="-1.57612">
        <ele>46.6</ele>
        <time>2024-04-25T17:38:52Z</time>
      </trkpt>
      <trkpt lat="46.75904" lon="-1.57613">
        <ele>47</ele>
        <time>2024-04-25T17:38:53Z</time>
      </trkpt>
      <trkpt lat="46.75906" lon="-1.57615">
        <ele>47.4</ele>
        <time>2024-04-25T17:38:54Z</time>
      </trkpt>
      <trkpt lat="46.75908" lon="-1.57617">
        <ele>47.6</ele>
        <time>2024-04-25T17:38:55Z</time>
      </trkpt>
      <trkpt lat="46.75911" lon="-1.5762">
        <ele>48</ele>
        <time>2024-04-25T17:38:56Z</time>
      </trkpt>
      <trkpt lat="46.75913" lon="-1.57622">
        <ele>48.2</ele>
        <time>2024-04-25T17:38:57Z</time>
      </trkpt>
      <trkpt lat="46.75915" lon="-1.57624">
        <ele>48.6</ele>
        <time>2024-04-25T17:38:58Z</time>
      </trkpt>
      <trkpt lat="46.75917" lon="-1.57627">
        <ele>49</ele>
        <time>2024-04-25T17:39:00Z</time>
      </trkpt>
      <trkpt lat="46.75918" lon="-1.57629">
        <ele>49.2</ele>
        <time>2024-04-25T17:39:01Z</time>
      </trkpt>
      <trkpt lat="46.7592" lon="-1.57632">
        <ele>49.6</ele>
        <time>2024-04-25T17:39:02Z</time>
      </trkpt>
      <trkpt lat="46.75922" lon="-1.57635">
        <ele>50</ele>
        <time>2024-04-25T17:39:03Z</time>
      </trkpt>
      <trkpt lat="46.75923" lon="-1.57638">
        <ele>50.2</ele>
        <time>2024-04-25T17:39:04Z</time>
      </trkpt>
      <trkpt lat="46.75924" lon="-1.57641">
        <ele>50.6</ele>
        <time>2024-04-25T17:39:05Z</time>
      </trkpt>
      <trkpt lat="46.75926" lon="-1.57644">
        <ele>50.8</ele>
        <time>2024-04-25T17:39:06Z</time>
      </trkpt>
      <trkpt lat="46.75927" lon="-1.57648">
        <ele>51</ele>
        <time>2024-04-25T17:39:07Z</time>
      </trkpt>
      <trkpt lat="46.75927" lon="-1.57651">
        <ele>51.2</ele>
        <time>2024-04-25T17:39:08Z</time>
      </trkpt>
      <trkpt lat="46.75927" lon="-1.57655">
        <ele>51.4</ele>
        <time>2024-04-25T17:39:09Z</time>
      </trkpt>
      <trkpt lat="46.75927" lon="-1.57659">
        <ele>51.6</ele>
        <time>2024-04-25T17:39:10Z</time>
      </trkpt>
      <trkpt lat="46.75926" lon="-1.57664">
        <ele>51.8</ele>
        <time>2024-04-25T17:39:11Z</time>
      </trkpt>
      <trkpt lat="46.75925" lon="-1.57667">
        <ele>51.8</ele>
        <time>2024-04-25T17:39:12Z</time>
      </trkpt>
      <trkpt lat="46.75923" lon="-1.57671">
        <ele>52</ele>
        <time>2024-04-25T17:39:13Z</time>
      </trkpt>
      <trkpt lat="46.75921" lon="-1.57674">
        <ele>52</ele>
        <time>2024-04-25T17:39:14Z</time>
      </trkpt>
      <trkpt lat="46.75919" lon="-1.57677">
        <ele>52.2</ele>
        <time>2024-04-25T17:39:15Z</time>
      </trkpt>
      <trkpt lat="46.75917" lon="-1.5768">
        <ele>52.2</ele>
        <time>2024-04-25T17:39:16Z</time>
      </trkpt>
      <trkpt lat="46.75915" lon="-1.57684">
        <ele>52.2</ele>
        <time>2024-04-25T17:39:17Z</time>
      </trkpt>
      <trkpt lat="46.75913" lon="-1.57687">
        <ele>52.2</ele>
        <time>2024-04-25T17:39:18Z</time>
      </trkpt>
      <trkpt lat="46.7591" lon="-1.5769">
        <ele>52.2</ele>
        <time>2024-04-25T17:39:19Z</time>
      </trkpt>
      <trkpt lat="46.75908" lon="-1.57694">
        <ele>52.2</ele>
        <time>2024-04-25T17:39:20Z</time>
      </trkpt>
      <trkpt lat="46.75907" lon="-1.57698">
        <ele>52.2</ele>
        <time>2024-04-25T17:39:21Z</time>
      </trkpt>
      <trkpt lat="46.75905" lon="-1.57702">
        <ele>52.2</ele>
        <time>2024-04-25T17:39:22Z</time>
      </trkpt>
      <trkpt lat="46.75903" lon="-1.57707">
        <ele>52.4</ele>
        <time>2024-04-25T17:39:23Z</time>
      </trkpt>
      <trkpt lat="46.75902" lon="-1.57711">
        <ele>52.4</ele>
        <time>2024-04-25T17:39:24Z</time>
      </trkpt>
      <trkpt lat="46.759" lon="-1.57716">
        <ele>52.4</ele>
        <time>2024-04-25T17:39:25Z</time>
      </trkpt>
      <trkpt lat="46.75898" lon="-1.5772">
        <ele>52.4</ele>
        <time>2024-04-25T17:39:26Z</time>
      </trkpt>
      <trkpt lat="46.75897" lon="-1.57725">
        <ele>52.4</ele>
        <time>2024-04-25T17:39:27Z</time>
      </trkpt>
      <trkpt lat="46.75896" lon="-1.57729">
        <ele>52.6</ele>
        <time>2024-04-25T17:39:28Z</time>
      </trkpt>
      <trkpt lat="46.75894" lon="-1.57734">
        <ele>52.6</ele>
        <time>2024-04-25T17:39:29Z</time>
      </trkpt>
      <trkpt lat="46.75893" lon="-1.57739">
        <ele>52.6</ele>
        <time>2024-04-25T17:39:30Z</time>
      </trkpt>
      <trkpt lat="46.75891" lon="-1.57743">
        <ele>52.8</ele>
        <time>2024-04-25T17:39:31Z</time>
      </trkpt>
      <trkpt lat="46.7589" lon="-1.57747">
        <ele>52.8</ele>
        <time>2024-04-25T17:39:32Z</time>
      </trkpt>
      <trkpt lat="46.75888" lon="-1.57752">
        <ele>53</ele>
        <time>2024-04-25T17:39:33Z</time>
      </trkpt>
      <trkpt lat="46.75887" lon="-1.57756">
        <ele>53.2</ele>
        <time>2024-04-25T17:39:34Z</time>
      </trkpt>
      <trkpt lat="46.75886" lon="-1.57761">
        <ele>53.2</ele>
        <time>2024-04-25T17:39:35Z</time>
      </trkpt>
      <trkpt lat="46.75884" lon="-1.57765">
        <ele>53.4</ele>
        <time>2024-04-25T17:39:36Z</time>
      </trkpt>
      <trkpt lat="46.75883" lon="-1.57769">
        <ele>53.4</ele>
        <time>2024-04-25T17:39:37Z</time>
      </trkpt>
      <trkpt lat="46.75881" lon="-1.57774">
        <ele>53.4</ele>
        <time>2024-04-25T17:39:38Z</time>
      </trkpt>
      <trkpt lat="46.7588" lon="-1.57778">
        <ele>53.4</ele>
        <time>2024-04-25T17:39:39Z</time>
      </trkpt>
      <trkpt lat="46.75878" lon="-1.57783">
        <ele>53.4</ele>
        <time>2024-04-25T17:39:40Z</time>
      </trkpt>
      <trkpt lat="46.75877" lon="-1.57788">
        <ele>53.4</ele>
        <time>2024-04-25T17:39:41Z</time>
      </trkpt>
      <trkpt lat="46.75875" lon="-1.57792">
        <ele>53.6</ele>
        <time>2024-04-25T17:39:42Z</time>
      </trkpt>
      <trkpt lat="46.75874" lon="-1.57797">
        <ele>53.6</ele>
        <time>2024-04-25T17:39:43Z</time>
      </trkpt>
      <trkpt lat="46.75872" lon="-1.57801">
        <ele>53.6</ele>
        <time>2024-04-25T17:39:44Z</time>
      </trkpt>
      <trkpt lat="46.75871" lon="-1.57806">
        <ele>53.8</ele>
        <time>2024-04-25T17:39:45Z</time>
      </trkpt>
      <trkpt lat="46.7587" lon="-1.5781">
        <ele>54</ele>
        <time>2024-04-25T17:39:46Z</time>
      </trkpt>
      <trkpt lat="46.75868" lon="-1.57815">
        <ele>54</ele>
        <time>2024-04-25T17:39:47Z</time>
      </trkpt>
      <trkpt lat="46.75867" lon="-1.57819">
        <ele>54</ele>
        <time>2024-04-25T17:39:48Z</time>
      </trkpt>
      <trkpt lat="46.75866" lon="-1.57824">
        <ele>53.8</ele>
        <time>2024-04-25T17:39:49Z</time>
      </trkpt>
      <trkpt lat="46.75864" lon="-1.57828">
        <ele>53.8</ele>
        <time>2024-04-25T17:39:50Z</time>
      </trkpt>
      <trkpt lat="46.75863" lon="-1.57833">
        <ele>53.8</ele>
        <time>2024-04-25T17:39:51Z</time>
      </trkpt>
      <trkpt lat="46.75861" lon="-1.57837">
        <ele>54</ele>
        <time>2024-04-25T17:39:52Z</time>
      </trkpt>
      <trkpt lat="46.7586" lon="-1.57842">
        <ele>54.2</ele>
        <time>2024-04-25T17:39:53Z</time>
      </trkpt>
      <trkpt lat="46.7586" lon="-1.57846">
        <ele>54.2</ele>
        <time>2024-04-25T17:39:54Z</time>
      </trkpt>
      <trkpt lat="46.75859" lon="-1.57851">
        <ele>54.2</ele>
        <time>2024-04-25T17:39:55Z</time>
      </trkpt>
      <trkpt lat="46.75858" lon="-1.57855">
        <ele>54.4</ele>
        <time>2024-04-25T17:39:56Z</time>
      </trkpt>
      <trkpt lat="46.75857" lon="-1.5786">
        <ele>54.6</ele>
        <time>2024-04-25T17:39:57Z</time>
      </trkpt>
      <trkpt lat="46.75857" lon="-1.57864">
        <ele>54.8</ele>
        <time>2024-04-25T17:39:58Z</time>
      </trkpt>
      <trkpt lat="46.75856" lon="-1.57871">
        <ele>55</ele>
        <time>2024-04-25T17:39:59Z</time>
      </trkpt>
      <trkpt lat="46.75856" lon="-1.57874">
        <ele>55</ele>
        <time>2024-04-25T17:40:00Z</time>
      </trkpt>
      <trkpt lat="46.75855" lon="-1.57881">
        <ele>55.2</ele>
        <time>2024-04-25T17:40:01Z</time>
      </trkpt>
      <trkpt lat="46.75855" lon="-1.57883">
        <ele>55.4</ele>
        <time>2024-04-25T17:40:02Z</time>
      </trkpt>
      <trkpt lat="46.75854" lon="-1.57888">
        <ele>55.6</ele>
        <time>2024-04-25T17:40:03Z</time>
      </trkpt>
      <trkpt lat="46.75854" lon="-1.57892">
        <ele>55.6</ele>
        <time>2024-04-25T17:40:04Z</time>
      </trkpt>
      <trkpt lat="46.75854" lon="-1.57897">
        <ele>55.8</ele>
        <time>2024-04-25T17:40:05Z</time>
      </trkpt>
      <trkpt lat="46.75853" lon="-1.57902">
        <ele>56</ele>
        <time>2024-04-25T17:40:06Z</time>
      </trkpt>
      <trkpt lat="46.75853" lon="-1.57906">
        <ele>56.2</ele>
        <time>2024-04-25T17:40:07Z</time>
      </trkpt>
      <trkpt lat="46.75852" lon="-1.57913">
        <ele>56.4</ele>
        <time>2024-04-25T17:40:08Z</time>
      </trkpt>
      <trkpt lat="46.75852" lon="-1.57915">
        <ele>56.6</ele>
        <time>2024-04-25T17:40:09Z</time>
      </trkpt>
      <trkpt lat="46.75851" lon="-1.57919">
        <ele>56.6</ele>
        <time>2024-04-25T17:40:10Z</time>
      </trkpt>
      <trkpt lat="46.75851" lon="-1.57924">
        <ele>56.8</ele>
        <time>2024-04-25T17:40:11Z</time>
      </trkpt>
      <trkpt lat="46.7585" lon="-1.57929">
        <ele>56.8</ele>
        <time>2024-04-25T17:40:12Z</time>
      </trkpt>
      <trkpt lat="46.7585" lon="-1.57936">
        <ele>57</ele>
        <time>2024-04-25T17:40:13Z</time>
      </trkpt>
      <trkpt lat="46.75849" lon="-1.57942">
        <ele>57</ele>
        <time>2024-04-25T17:40:14Z</time>
      </trkpt>
      <trkpt lat="46.75848" lon="-1.57947">
        <ele>57.2</ele>
        <time>2024-04-25T17:40:15Z</time>
      </trkpt>
      <trkpt lat="46.75848" lon="-1.57952">
        <ele>57.4</ele>
        <time>2024-04-25T17:40:16Z</time>
      </trkpt>
      <trkpt lat="46.75847" lon="-1.57957">
        <ele>57.4</ele>
        <time>2024-04-25T17:40:17Z</time>
      </trkpt>
      <trkpt lat="46.75847" lon="-1.57962">
        <ele>57.6</ele>
        <time>2024-04-25T17:40:18Z</time>
      </trkpt>
      <trkpt lat="46.75846" lon="-1.57967">
        <ele>57.8</ele>
        <time>2024-04-25T17:40:19Z</time>
      </trkpt>
      <trkpt lat="46.75846" lon="-1.57971">
        <ele>58</ele>
        <time>2024-04-25T17:40:20Z</time>
      </trkpt>
      <trkpt lat="46.75845" lon="-1.57976">
        <ele>58</ele>
        <time>2024-04-25T17:40:21Z</time>
      </trkpt>
      <trkpt lat="46.75845" lon="-1.57983">
        <ele>58.2</ele>
        <time>2024-04-25T17:40:22Z</time>
      </trkpt>
      <trkpt lat="46.75844" lon="-1.57985">
        <ele>58.2</ele>
        <time>2024-04-25T17:40:23Z</time>
      </trkpt>
      <trkpt lat="46.75844" lon="-1.5799">
        <ele>58.4</ele>
        <time>2024-04-25T17:40:24Z</time>
      </trkpt>
      <trkpt lat="46.75843" lon="-1.57995">
        <ele>58.4</ele>
        <time>2024-04-25T17:40:25Z</time>
      </trkpt>
      <trkpt lat="46.75843" lon="-1.57999">
        <ele>58.6</ele>
        <time>2024-04-25T17:40:26Z</time>
      </trkpt>
      <trkpt lat="46.75842" lon="-1.58004">
        <ele>58.8</ele>
        <time>2024-04-25T17:40:27Z</time>
      </trkpt>
      <trkpt lat="46.75842" lon="-1.58009">
        <ele>59</ele>
        <time>2024-04-25T17:40:28Z</time>
      </trkpt>
      <trkpt lat="46.75842" lon="-1.58014">
        <ele>59.2</ele>
        <time>2024-04-25T17:40:29Z</time>
      </trkpt>
      <trkpt lat="46.75841" lon="-1.58018">
        <ele>59.4</ele>
        <time>2024-04-25T17:40:30Z</time>
      </trkpt>
      <trkpt lat="46.75841" lon="-1.58023">
        <ele>59.4</ele>
        <time>2024-04-25T17:40:31Z</time>
      </trkpt>
      <trkpt lat="46.75841" lon="-1.58028">
        <ele>59.6</ele>
        <time>2024-04-25T17:40:32Z</time>
      </trkpt>
      <trkpt lat="46.7584" lon="-1.58032">
        <ele>59.6</ele>
        <time>2024-04-25T17:40:33Z</time>
      </trkpt>
      <trkpt lat="46.7584" lon="-1.58037">
        <ele>59.8</ele>
        <time>2024-04-25T17:40:34Z</time>
      </trkpt>
      <trkpt lat="46.75839" lon="-1.58042">
        <ele>60</ele>
        <time>2024-04-25T17:40:36Z</time>
      </trkpt>
      <trkpt lat="46.75839" lon="-1.58046">
        <ele>60</ele>
        <time>2024-04-25T17:40:37Z</time>
      </trkpt>
      <trkpt lat="46.75838" lon="-1.58051">
        <ele>60.2</ele>
        <time>2024-04-25T17:40:38Z</time>
      </trkpt>
      <trkpt lat="46.75838" lon="-1.58056">
        <ele>60.4</ele>
        <time>2024-04-25T17:40:39Z</time>
      </trkpt>
      <trkpt lat="46.75837" lon="-1.5806">
        <ele>60.6</ele>
        <time>2024-04-25T17:40:40Z</time>
      </trkpt>
      <trkpt lat="46.75837" lon="-1.58065">
        <ele>60.8</ele>
        <time>2024-04-25T17:40:41Z</time>
      </trkpt>
      <trkpt lat="46.75837" lon="-1.5807">
        <ele>61.2</ele>
        <time>2024-04-25T17:40:42Z</time>
      </trkpt>
      <trkpt lat="46.75836" lon="-1.58075">
        <ele>61.4</ele>
        <time>2024-04-25T17:40:43Z</time>
      </trkpt>
      <trkpt lat="46.75836" lon="-1.5808">
        <ele>61.4</ele>
        <time>2024-04-25T17:40:44Z</time>
      </trkpt>
      <trkpt lat="46.75835" lon="-1.58085">
        <ele>61.6</ele>
        <time>2024-04-25T17:40:45Z</time>
      </trkpt>
      <trkpt lat="46.75834" lon="-1.5809">
        <ele>61.6</ele>
        <time>2024-04-25T17:40:46Z</time>
      </trkpt>
      <trkpt lat="46.75834" lon="-1.58094">
        <ele>61.8</ele>
        <time>2024-04-25T17:40:47Z</time>
      </trkpt>
      <trkpt lat="46.75833" lon="-1.58099">
        <ele>62</ele>
        <time>2024-04-25T17:40:48Z</time>
      </trkpt>
      <trkpt lat="46.75832" lon="-1.58104">
        <ele>62.2</ele>
        <time>2024-04-25T17:40:49Z</time>
      </trkpt>
      <trkpt lat="46.75831" lon="-1.58109">
        <ele>62.2</ele>
        <time>2024-04-25T17:40:50Z</time>
      </trkpt>
      <trkpt lat="46.75829" lon="-1.58113">
        <ele>62.2</ele>
        <time>2024-04-25T17:40:51Z</time>
      </trkpt>
      <trkpt lat="46.75828" lon="-1.58118">
        <ele>62.4</ele>
        <time>2024-04-25T17:40:52Z</time>
      </trkpt>
      <trkpt lat="46.75827" lon="-1.58123">
        <ele>62.4</ele>
        <time>2024-04-25T17:40:53Z</time>
      </trkpt>
      <trkpt lat="46.75825" lon="-1.58128">
        <ele>62.4</ele>
        <time>2024-04-25T17:40:54Z</time>
      </trkpt>
      <trkpt lat="46.75824" lon="-1.58133">
        <ele>62.6</ele>
        <time>2024-04-25T17:40:55Z</time>
      </trkpt>
      <trkpt lat="46.75823" lon="-1.58138">
        <ele>62.6</ele>
        <time>2024-04-25T17:40:56Z</time>
      </trkpt>
      <trkpt lat="46.75822" lon="-1.58143">
        <ele>62.6</ele>
        <time>2024-04-25T17:40:57Z</time>
      </trkpt>
      <trkpt lat="46.7582" lon="-1.58148">
        <ele>62.6</ele>
        <time>2024-04-25T17:40:58Z</time>
      </trkpt>
      <trkpt lat="46.75819" lon="-1.58153">
        <ele>62.6</ele>
        <time>2024-04-25T17:40:59Z</time>
      </trkpt>
      <trkpt lat="46.75818" lon="-1.58158">
        <ele>62.6</ele>
        <time>2024-04-25T17:41:00Z</time>
      </trkpt>
      <trkpt lat="46.75817" lon="-1.58163">
        <ele>62.6</ele>
        <time>2024-04-25T17:41:01Z</time>
      </trkpt>
      <trkpt lat="46.75815" lon="-1.58168">
        <ele>62.8</ele>
        <time>2024-04-25T17:41:02Z</time>
      </trkpt>
      <trkpt lat="46.75814" lon="-1.58174">
        <ele>62.8</ele>
        <time>2024-04-25T17:41:03Z</time>
      </trkpt>
      <trkpt lat="46.75812" lon="-1.58179">
        <ele>62.8</ele>
        <time>2024-04-25T17:41:04Z</time>
      </trkpt>
      <trkpt lat="46.75811" lon="-1.58185">
        <ele>62.8</ele>
        <time>2024-04-25T17:41:05Z</time>
      </trkpt>
      <trkpt lat="46.75809" lon="-1.5819">
        <ele>62.8</ele>
        <time>2024-04-25T17:41:06Z</time>
      </trkpt>
      <trkpt lat="46.75808" lon="-1.58196">
        <ele>62.8</ele>
        <time>2024-04-25T17:41:07Z</time>
      </trkpt>
      <trkpt lat="46.75807" lon="-1.58202">
        <ele>62.8</ele>
        <time>2024-04-25T17:41:08Z</time>
      </trkpt>
      <trkpt lat="46.75806" lon="-1.58208">
        <ele>62.6</ele>
        <time>2024-04-25T17:41:09Z</time>
      </trkpt>
      <trkpt lat="46.75805" lon="-1.58214">
        <ele>62.6</ele>
        <time>2024-04-25T17:41:10Z</time>
      </trkpt>
      <trkpt lat="46.75804" lon="-1.5822">
        <ele>62.6</ele>
        <time>2024-04-25T17:41:11Z</time>
      </trkpt>
      <trkpt lat="46.75803" lon="-1.58226">
        <ele>62.4</ele>
        <time>2024-04-25T17:41:12Z</time>
      </trkpt>
      <trkpt lat="46.75802" lon="-1.58232">
        <ele>62.4</ele>
        <time>2024-04-25T17:41:13Z</time>
      </trkpt>
      <trkpt lat="46.75801" lon="-1.58238">
        <ele>62.4</ele>
        <time>2024-04-25T17:41:14Z</time>
      </trkpt>
      <trkpt lat="46.758" lon="-1.58244">
        <ele>62.4</ele>
        <time>2024-04-25T17:41:15Z</time>
      </trkpt>
      <trkpt lat="46.75799" lon="-1.5825">
        <ele>62.4</ele>
        <time>2024-04-25T17:41:16Z</time>
      </trkpt>
      <trkpt lat="46.75798" lon="-1.58255">
        <ele>62.4</ele>
        <time>2024-04-25T17:41:17Z</time>
      </trkpt>
      <trkpt lat="46.75798" lon="-1.5826">
        <ele>62.4</ele>
        <time>2024-04-25T17:41:18Z</time>
      </trkpt>
      <trkpt lat="46.75797" lon="-1.58266">
        <ele>62.6</ele>
        <time>2024-04-25T17:41:19Z</time>
      </trkpt>
      <trkpt lat="46.75798" lon="-1.5827">
        <ele>62.6</ele>
        <time>2024-04-25T17:41:20Z</time>
      </trkpt>
      <trkpt lat="46.75799" lon="-1.58275">
        <ele>62.6</ele>
        <time>2024-04-25T17:41:21Z</time>
      </trkpt>
      <trkpt lat="46.75802" lon="-1.58277">
        <ele>62.6</ele>
        <time>2024-04-25T17:41:22Z</time>
      </trkpt>
      <trkpt lat="46.75805" lon="-1.58279">
        <ele>62.6</ele>
        <time>2024-04-25T17:41:23Z</time>
      </trkpt>
      <trkpt lat="46.75809" lon="-1.58281">
        <ele>62.6</ele>
        <time>2024-04-25T17:41:24Z</time>
      </trkpt>
      <trkpt lat="46.75814" lon="-1.58281">
        <ele>62.6</ele>
        <time>2024-04-25T17:41:25Z</time>
      </trkpt>
      <trkpt lat="46.75818" lon="-1.58282">
        <ele>62.6</ele>
        <time>2024-04-25T17:41:26Z</time>
      </trkpt>
      <trkpt lat="46.75822" lon="-1.58283">
        <ele>62.6</ele>
        <time>2024-04-25T17:41:27Z</time>
      </trkpt>
      <trkpt lat="46.75826" lon="-1.58284">
        <ele>62.6</ele>
        <time>2024-04-25T17:41:28Z</time>
      </trkpt>
      <trkpt lat="46.7583" lon="-1.58286">
        <ele>62.4</ele>
        <time>2024-04-25T17:41:29Z</time>
      </trkpt>
      <trkpt lat="46.75836" lon="-1.58288">
        <ele>62.6</ele>
        <time>2024-04-25T17:41:30Z</time>
      </trkpt>
      <trkpt lat="46.75838" lon="-1.58289">
        <ele>62.6</ele>
        <time>2024-04-25T17:41:31Z</time>
      </trkpt>
      <trkpt lat="46.75842" lon="-1.58292">
        <ele>62.6</ele>
        <time>2024-04-25T17:41:32Z</time>
      </trkpt>
      <trkpt lat="46.75846" lon="-1.58294">
        <ele>62.6</ele>
        <time>2024-04-25T17:41:33Z</time>
      </trkpt>
      <trkpt lat="46.7585" lon="-1.58296">
        <ele>62.6</ele>
        <time>2024-04-25T17:41:34Z</time>
      </trkpt>
      <trkpt lat="46.75854" lon="-1.58298">
        <ele>62.6</ele>
        <time>2024-04-25T17:41:35Z</time>
      </trkpt>
      <trkpt lat="46.75857" lon="-1.58301">
        <ele>62.8</ele>
        <time>2024-04-25T17:41:36Z</time>
      </trkpt>
      <trkpt lat="46.75861" lon="-1.58303">
        <ele>62.8</ele>
        <time>2024-04-25T17:41:37Z</time>
      </trkpt>
      <trkpt lat="46.75865" lon="-1.58305">
        <ele>63</ele>
        <time>2024-04-25T17:41:38Z</time>
      </trkpt>
      <trkpt lat="46.75868" lon="-1.58308">
        <ele>63</ele>
        <time>2024-04-25T17:41:39Z</time>
      </trkpt>
      <trkpt lat="46.75872" lon="-1.5831">
        <ele>63.2</ele>
        <time>2024-04-25T17:41:40Z</time>
      </trkpt>
      <trkpt lat="46.75875" lon="-1.58312">
        <ele>63.2</ele>
        <time>2024-04-25T17:41:41Z</time>
      </trkpt>
      <trkpt lat="46.75878" lon="-1.58315">
        <ele>63.4</ele>
        <time>2024-04-25T17:41:42Z</time>
      </trkpt>
      <trkpt lat="46.75883" lon="-1.5832">
        <ele>63.4</ele>
        <time>2024-04-25T17:41:43Z</time>
      </trkpt>
      <trkpt lat="46.75885" lon="-1.58322">
        <ele>63.6</ele>
        <time>2024-04-25T17:41:44Z</time>
      </trkpt>
      <trkpt lat="46.75888" lon="-1.58325">
        <ele>63.6</ele>
        <time>2024-04-25T17:41:45Z</time>
      </trkpt>
      <trkpt lat="46.75893" lon="-1.5833">
        <ele>63.8</ele>
        <time>2024-04-25T17:41:46Z</time>
      </trkpt>
      <trkpt lat="46.75895" lon="-1.58332">
        <ele>63.8</ele>
        <time>2024-04-25T17:41:47Z</time>
      </trkpt>
      <trkpt lat="46.75902" lon="-1.58338">
        <ele>63.8</ele>
        <time>2024-04-25T17:41:48Z</time>
      </trkpt>
      <trkpt lat="46.75905" lon="-1.5834">
        <ele>64</ele>
        <time>2024-04-25T17:41:49Z</time>
      </trkpt>
      <trkpt lat="46.7591" lon="-1.58345">
        <ele>64</ele>
        <time>2024-04-25T17:41:50Z</time>
      </trkpt>
      <trkpt lat="46.75915" lon="-1.58349">
        <ele>64</ele>
        <time>2024-04-25T17:41:51Z</time>
      </trkpt>
      <trkpt lat="46.75919" lon="-1.58353">
        <ele>64.2</ele>
        <time>2024-04-25T17:41:52Z</time>
      </trkpt>
      <trkpt lat="46.75923" lon="-1.58356">
        <ele>64.4</ele>
        <time>2024-04-25T17:41:53Z</time>
      </trkpt>
      <trkpt lat="46.75927" lon="-1.58359">
        <ele>64.6</ele>
        <time>2024-04-25T17:41:54Z</time>
      </trkpt>
      <trkpt lat="46.75932" lon="-1.58364">
        <ele>64.6</ele>
        <time>2024-04-25T17:41:55Z</time>
      </trkpt>
      <trkpt lat="46.75934" lon="-1.58366">
        <ele>64.8</ele>
        <time>2024-04-25T17:41:56Z</time>
      </trkpt>
      <trkpt lat="46.75938" lon="-1.58369">
        <ele>64.8</ele>
        <time>2024-04-25T17:41:57Z</time>
      </trkpt>
      <trkpt lat="46.75941" lon="-1.58373">
        <ele>64.8</ele>
        <time>2024-04-25T17:41:58Z</time>
      </trkpt>
      <trkpt lat="46.75944" lon="-1.58376">
        <ele>64.8</ele>
        <time>2024-04-25T17:41:59Z</time>
      </trkpt>
      <trkpt lat="46.75948" lon="-1.5838">
        <ele>65</ele>
        <time>2024-04-25T17:42:00Z</time>
      </trkpt>
      <trkpt lat="46.75951" lon="-1.58384">
        <ele>65</ele>
        <time>2024-04-25T17:42:01Z</time>
      </trkpt>
      <trkpt lat="46.75955" lon="-1.58387">
        <ele>65</ele>
        <time>2024-04-25T17:42:02Z</time>
      </trkpt>
      <trkpt lat="46.7596" lon="-1.58393">
        <ele>65.2</ele>
        <time>2024-04-25T17:42:03Z</time>
      </trkpt>
      <trkpt lat="46.75961" lon="-1.58395">
        <ele>65.2</ele>
        <time>2024-04-25T17:42:04Z</time>
      </trkpt>
      <trkpt lat="46.75965" lon="-1.58399">
        <ele>65.2</ele>
        <time>2024-04-25T17:42:05Z</time>
      </trkpt>
      <trkpt lat="46.75968" lon="-1.58404">
        <ele>65.2</ele>
        <time>2024-04-25T17:42:06Z</time>
      </trkpt>
      <trkpt lat="46.75972" lon="-1.58408">
        <ele>65.2</ele>
        <time>2024-04-25T17:42:07Z</time>
      </trkpt>
      <trkpt lat="46.75975" lon="-1.58412">
        <ele>65.2</ele>
        <time>2024-04-25T17:42:08Z</time>
      </trkpt>
      <trkpt lat="46.75979" lon="-1.58416">
        <ele>65.4</ele>
        <time>2024-04-25T17:42:10Z</time>
      </trkpt>
      <trkpt lat="46.75982" lon="-1.5842">
        <ele>65.4</ele>
        <time>2024-04-25T17:42:11Z</time>
      </trkpt>
      <trkpt lat="46.75985" lon="-1.58424">
        <ele>65.4</ele>
        <time>2024-04-25T17:42:12Z</time>
      </trkpt>
      <trkpt lat="46.75989" lon="-1.58427">
        <ele>65.6</ele>
        <time>2024-04-25T17:42:13Z</time>
      </trkpt>
      <trkpt lat="46.75992" lon="-1.58431">
        <ele>65.6</ele>
        <time>2024-04-25T17:42:14Z</time>
      </trkpt>
      <trkpt lat="46.75996" lon="-1.58435">
        <ele>65.6</ele>
        <time>2024-04-25T17:42:15Z</time>
      </trkpt>
      <trkpt lat="46.75999" lon="-1.58439">
        <ele>65.6</ele>
        <time>2024-04-25T17:42:16Z</time>
      </trkpt>
      <trkpt lat="46.76003" lon="-1.58443">
        <ele>65.6</ele>
        <time>2024-04-25T17:42:17Z</time>
      </trkpt>
      <trkpt lat="46.76006" lon="-1.58447">
        <ele>65.6</ele>
        <time>2024-04-25T17:42:18Z</time>
      </trkpt>
      <trkpt lat="46.7601" lon="-1.58451">
        <ele>65.6</ele>
        <time>2024-04-25T17:42:19Z</time>
      </trkpt>
      <trkpt lat="46.76014" lon="-1.58455">
        <ele>65.8</ele>
        <time>2024-04-25T17:42:20Z</time>
      </trkpt>
      <trkpt lat="46.76018" lon="-1.58458">
        <ele>65.8</ele>
        <time>2024-04-25T17:42:21Z</time>
      </trkpt>
      <trkpt lat="46.76022" lon="-1.58461">
        <ele>65.8</ele>
        <time>2024-04-25T17:42:22Z</time>
      </trkpt>
      <trkpt lat="46.76026" lon="-1.58464">
        <ele>65.8</ele>
        <time>2024-04-25T17:42:23Z</time>
      </trkpt>
      <trkpt lat="46.7603" lon="-1.58467">
        <ele>65.6</ele>
        <time>2024-04-25T17:42:24Z</time>
      </trkpt>
      <trkpt lat="46.76034" lon="-1.5847">
        <ele>65.6</ele>
        <time>2024-04-25T17:42:25Z</time>
      </trkpt>
      <trkpt lat="46.76039" lon="-1.58472">
        <ele>65.6</ele>
        <time>2024-04-25T17:42:26Z</time>
      </trkpt>
      <trkpt lat="46.76043" lon="-1.58474">
        <ele>65.6</ele>
        <time>2024-04-25T17:42:27Z</time>
      </trkpt>
      <trkpt lat="46.76047" lon="-1.58476">
        <ele>65.6</ele>
        <time>2024-04-25T17:42:28Z</time>
      </trkpt>
      <trkpt lat="46.76052" lon="-1.58478">
        <ele>65.6</ele>
        <time>2024-04-25T17:42:29Z</time>
      </trkpt>
      <trkpt lat="46.76056" lon="-1.5848">
        <ele>65.6</ele>
        <time>2024-04-25T17:42:30Z</time>
      </trkpt>
      <trkpt lat="46.76061" lon="-1.58482">
        <ele>65.6</ele>
        <time>2024-04-25T17:42:31Z</time>
      </trkpt>
      <trkpt lat="46.76065" lon="-1.58484">
        <ele>65.4</ele>
        <time>2024-04-25T17:42:32Z</time>
      </trkpt>
      <trkpt lat="46.7607" lon="-1.58486">
        <ele>65.4</ele>
        <time>2024-04-25T17:42:33Z</time>
      </trkpt>
      <trkpt lat="46.76074" lon="-1.58487">
        <ele>65.4</ele>
        <time>2024-04-25T17:42:34Z</time>
      </trkpt>
      <trkpt lat="46.76079" lon="-1.58489">
        <ele>65.2</ele>
        <time>2024-04-25T17:42:35Z</time>
      </trkpt>
      <trkpt lat="46.76084" lon="-1.5849">
        <ele>65.2</ele>
        <time>2024-04-25T17:42:36Z</time>
      </trkpt>
      <trkpt lat="46.76088" lon="-1.58492">
        <ele>65.2</ele>
        <time>2024-04-25T17:42:37Z</time>
      </trkpt>
      <trkpt lat="46.76093" lon="-1.58493">
        <ele>65.2</ele>
        <time>2024-04-25T17:42:38Z</time>
      </trkpt>
      <trkpt lat="46.76098" lon="-1.58495">
        <ele>65</ele>
        <time>2024-04-25T17:42:39Z</time>
      </trkpt>
      <trkpt lat="46.76102" lon="-1.58497">
        <ele>65</ele>
        <time>2024-04-25T17:42:40Z</time>
      </trkpt>
      <trkpt lat="46.76107" lon="-1.58499">
        <ele>64.8</ele>
        <time>2024-04-25T17:42:41Z</time>
      </trkpt>
      <trkpt lat="46.76112" lon="-1.58501">
        <ele>64.8</ele>
        <time>2024-04-25T17:42:42Z</time>
      </trkpt>
      <trkpt lat="46.76117" lon="-1.58504">
        <ele>64.8</ele>
        <time>2024-04-25T17:42:43Z</time>
      </trkpt>
      <trkpt lat="46.76121" lon="-1.58507">
        <ele>64.8</ele>
        <time>2024-04-25T17:42:44Z</time>
      </trkpt>
      <trkpt lat="46.76126" lon="-1.5851">
        <ele>64.6</ele>
        <time>2024-04-25T17:42:45Z</time>
      </trkpt>
      <trkpt lat="46.76131" lon="-1.58513">
        <ele>64.6</ele>
        <time>2024-04-25T17:42:46Z</time>
      </trkpt>
      <trkpt lat="46.76135" lon="-1.58516">
        <ele>64.6</ele>
        <time>2024-04-25T17:42:47Z</time>
      </trkpt>
      <trkpt lat="46.7614" lon="-1.58519">
        <ele>64.6</ele>
        <time>2024-04-25T17:42:48Z</time>
      </trkpt>
      <trkpt lat="46.76145" lon="-1.58522">
        <ele>64.4</ele>
        <time>2024-04-25T17:42:49Z</time>
      </trkpt>
      <trkpt lat="46.76149" lon="-1.58525">
        <ele>64.4</ele>
        <time>2024-04-25T17:42:50Z</time>
      </trkpt>
      <trkpt lat="46.76154" lon="-1.58528">
        <ele>64.2</ele>
        <time>2024-04-25T17:42:51Z</time>
      </trkpt>
      <trkpt lat="46.76159" lon="-1.58531">
        <ele>64.2</ele>
        <time>2024-04-25T17:42:52Z</time>
      </trkpt>
      <trkpt lat="46.76163" lon="-1.58534">
        <ele>64.2</ele>
        <time>2024-04-25T17:42:53Z</time>
      </trkpt>
      <trkpt lat="46.76168" lon="-1.58537">
        <ele>64.2</ele>
        <time>2024-04-25T17:42:54Z</time>
      </trkpt>
      <trkpt lat="46.76172" lon="-1.5854">
        <ele>64.2</ele>
        <time>2024-04-25T17:42:55Z</time>
      </trkpt>
      <trkpt lat="46.76177" lon="-1.58544">
        <ele>64</ele>
        <time>2024-04-25T17:42:56Z</time>
      </trkpt>
      <trkpt lat="46.76181" lon="-1.58547">
        <ele>64</ele>
        <time>2024-04-25T17:42:57Z</time>
      </trkpt>
      <trkpt lat="46.76186" lon="-1.5855">
        <ele>64</ele>
        <time>2024-04-25T17:42:58Z</time>
      </trkpt>
      <trkpt lat="46.7619" lon="-1.58554">
        <ele>64</ele>
        <time>2024-04-25T17:42:59Z</time>
      </trkpt>
      <trkpt lat="46.76195" lon="-1.58557">
        <ele>64.2</ele>
        <time>2024-04-25T17:43:00Z</time>
      </trkpt>
      <trkpt lat="46.76199" lon="-1.5856">
        <ele>64</ele>
        <time>2024-04-25T17:43:01Z</time>
      </trkpt>
      <trkpt lat="46.76204" lon="-1.58563">
        <ele>64</ele>
        <time>2024-04-25T17:43:02Z</time>
      </trkpt>
      <trkpt lat="46.76208" lon="-1.58565">
        <ele>64</ele>
        <time>2024-04-25T17:43:03Z</time>
      </trkpt>
      <trkpt lat="46.76212" lon="-1.58568">
        <ele>64</ele>
        <time>2024-04-25T17:43:04Z</time>
      </trkpt>
      <trkpt lat="46.76216" lon="-1.58571">
        <ele>64</ele>
        <time>2024-04-25T17:43:05Z</time>
      </trkpt>
      <trkpt lat="46.76221" lon="-1.58574">
        <ele>64</ele>
        <time>2024-04-25T17:43:06Z</time>
      </trkpt>
      <trkpt lat="46.76225" lon="-1.58576">
        <ele>64</ele>
        <time>2024-04-25T17:43:07Z</time>
      </trkpt>
      <trkpt lat="46.76229" lon="-1.58579">
        <ele>64</ele>
        <time>2024-04-25T17:43:08Z</time>
      </trkpt>
      <trkpt lat="46.76236" lon="-1.58583">
        <ele>64</ele>
        <time>2024-04-25T17:43:09Z</time>
      </trkpt>
      <trkpt lat="46.76239" lon="-1.58584">
        <ele>64</ele>
        <time>2024-04-25T17:43:10Z</time>
      </trkpt>
      <trkpt lat="46.76244" lon="-1.58586">
        <ele>64</ele>
        <time>2024-04-25T17:43:11Z</time>
      </trkpt>
      <trkpt lat="46.76249" lon="-1.58589">
        <ele>64</ele>
        <time>2024-04-25T17:43:12Z</time>
      </trkpt>
      <trkpt lat="46.76254" lon="-1.58592">
        <ele>64</ele>
        <time>2024-04-25T17:43:13Z</time>
      </trkpt>
      <trkpt lat="46.76258" lon="-1.58594">
        <ele>64</ele>
        <time>2024-04-25T17:43:14Z</time>
      </trkpt>
      <trkpt lat="46.76263" lon="-1.58597">
        <ele>63.8</ele>
        <time>2024-04-25T17:43:15Z</time>
      </trkpt>
      <trkpt lat="46.76268" lon="-1.586">
        <ele>63.8</ele>
        <time>2024-04-25T17:43:16Z</time>
      </trkpt>
      <trkpt lat="46.76273" lon="-1.58603">
        <ele>63.8</ele>
        <time>2024-04-25T17:43:17Z</time>
      </trkpt>
      <trkpt lat="46.76277" lon="-1.58606">
        <ele>63.8</ele>
        <time>2024-04-25T17:43:18Z</time>
      </trkpt>
      <trkpt lat="46.76282" lon="-1.58609">
        <ele>63.8</ele>
        <time>2024-04-25T17:43:19Z</time>
      </trkpt>
      <trkpt lat="46.76286" lon="-1.58612">
        <ele>63.6</ele>
        <time>2024-04-25T17:43:20Z</time>
      </trkpt>
      <trkpt lat="46.76291" lon="-1.58615">
        <ele>63.6</ele>
        <time>2024-04-25T17:43:21Z</time>
      </trkpt>
      <trkpt lat="46.76297" lon="-1.5862">
        <ele>63.6</ele>
        <time>2024-04-25T17:43:22Z</time>
      </trkpt>
      <trkpt lat="46.76303" lon="-1.58624">
        <ele>63.6</ele>
        <time>2024-04-25T17:43:23Z</time>
      </trkpt>
      <trkpt lat="46.76308" lon="-1.58627">
        <ele>63.6</ele>
        <time>2024-04-25T17:43:24Z</time>
      </trkpt>
      <trkpt lat="46.76313" lon="-1.5863">
        <ele>63.6</ele>
        <time>2024-04-25T17:43:25Z</time>
      </trkpt>
      <trkpt lat="46.7632" lon="-1.58635">
        <ele>63.6</ele>
        <time>2024-04-25T17:43:26Z</time>
      </trkpt>
      <trkpt lat="46.76322" lon="-1.58636">
        <ele>63.4</ele>
        <time>2024-04-25T17:43:27Z</time>
      </trkpt>
      <trkpt lat="46.76326" lon="-1.58639">
        <ele>63.4</ele>
        <time>2024-04-25T17:43:28Z</time>
      </trkpt>
      <trkpt lat="46.7633" lon="-1.58642">
        <ele>63.4</ele>
        <time>2024-04-25T17:43:29Z</time>
      </trkpt>
      <trkpt lat="46.76334" lon="-1.58643">
        <ele>63.4</ele>
        <time>2024-04-25T17:43:30Z</time>
      </trkpt>
      <trkpt lat="46.76339" lon="-1.58645">
        <ele>63.4</ele>
        <time>2024-04-25T17:43:31Z</time>
      </trkpt>
      <trkpt lat="46.76343" lon="-1.58648">
        <ele>63.4</ele>
        <time>2024-04-25T17:43:32Z</time>
      </trkpt>
      <trkpt lat="46.76349" lon="-1.58653">
        <ele>63.4</ele>
        <time>2024-04-25T17:43:33Z</time>
      </trkpt>
      <trkpt lat="46.7635" lon="-1.58655">
        <ele>63.4</ele>
        <time>2024-04-25T17:43:34Z</time>
      </trkpt>
      <trkpt lat="46.76354" lon="-1.5866">
        <ele>63.4</ele>
        <time>2024-04-25T17:43:35Z</time>
      </trkpt>
      <trkpt lat="46.76357" lon="-1.58665">
        <ele>63.4</ele>
        <time>2024-04-25T17:43:36Z</time>
      </trkpt>
      <trkpt lat="46.7636" lon="-1.5867">
        <ele>63.4</ele>
        <time>2024-04-25T17:43:37Z</time>
      </trkpt>
      <trkpt lat="46.76365" lon="-1.58678">
        <ele>63.4</ele>
        <time>2024-04-25T17:43:38Z</time>
      </trkpt>
      <trkpt lat="46.76366" lon="-1.5868">
        <ele>63.4</ele>
        <time>2024-04-25T17:43:39Z</time>
      </trkpt>
      <trkpt lat="46.7637" lon="-1.58685">
        <ele>63.4</ele>
        <time>2024-04-25T17:43:40Z</time>
      </trkpt>
      <trkpt lat="46.76374" lon="-1.5869">
        <ele>63.4</ele>
        <time>2024-04-25T17:43:41Z</time>
      </trkpt>
      <trkpt lat="46.76377" lon="-1.58693">
        <ele>63.2</ele>
        <time>2024-04-25T17:43:42Z</time>
      </trkpt>
      <trkpt lat="46.76384" lon="-1.58698">
        <ele>63.2</ele>
        <time>2024-04-25T17:43:44Z</time>
      </trkpt>
      <trkpt lat="46.76386" lon="-1.587">
        <ele>63.2</ele>
        <time>2024-04-25T17:43:45Z</time>
      </trkpt>
      <trkpt lat="46.7639" lon="-1.58703">
        <ele>63.2</ele>
        <time>2024-04-25T17:43:46Z</time>
      </trkpt>
      <trkpt lat="46.76395" lon="-1.58705">
        <ele>63.2</ele>
        <time>2024-04-25T17:43:47Z</time>
      </trkpt>
      <trkpt lat="46.76399" lon="-1.58708">
        <ele>63.2</ele>
        <time>2024-04-25T17:43:48Z</time>
      </trkpt>
      <trkpt lat="46.76404" lon="-1.5871">
        <ele>63.2</ele>
        <time>2024-04-25T17:43:49Z</time>
      </trkpt>
      <trkpt lat="46.76408" lon="-1.58712">
        <ele>63</ele>
        <time>2024-04-25T17:43:50Z</time>
      </trkpt>
      <trkpt lat="46.76413" lon="-1.58714">
        <ele>63.2</ele>
        <time>2024-04-25T17:43:51Z</time>
      </trkpt>
      <trkpt lat="46.76418" lon="-1.58716">
        <ele>63</ele>
        <time>2024-04-25T17:43:52Z</time>
      </trkpt>
      <trkpt lat="46.76422" lon="-1.58718">
        <ele>63</ele>
        <time>2024-04-25T17:43:53Z</time>
      </trkpt>
      <trkpt lat="46.76427" lon="-1.5872">
        <ele>63</ele>
        <time>2024-04-25T17:43:54Z</time>
      </trkpt>
      <trkpt lat="46.76432" lon="-1.58721">
        <ele>63</ele>
        <time>2024-04-25T17:43:55Z</time>
      </trkpt>
      <trkpt lat="46.76436" lon="-1.58724">
        <ele>63</ele>
        <time>2024-04-25T17:43:56Z</time>
      </trkpt>
      <trkpt lat="46.7644" lon="-1.58726">
        <ele>62.8</ele>
        <time>2024-04-25T17:43:57Z</time>
      </trkpt>
      <trkpt lat="46.76445" lon="-1.58728">
        <ele>62.8</ele>
        <time>2024-04-25T17:43:58Z</time>
      </trkpt>
      <trkpt lat="46.76449" lon="-1.5873">
        <ele>62.8</ele>
        <time>2024-04-25T17:43:59Z</time>
      </trkpt>
      <trkpt lat="46.76454" lon="-1.58731">
        <ele>62.8</ele>
        <time>2024-04-25T17:44:00Z</time>
      </trkpt>
      <trkpt lat="46.76458" lon="-1.58733">
        <ele>62.8</ele>
        <time>2024-04-25T17:44:01Z</time>
      </trkpt>
      <trkpt lat="46.76463" lon="-1.58735">
        <ele>62.8</ele>
        <time>2024-04-25T17:44:02Z</time>
      </trkpt>
      <trkpt lat="46.76467" lon="-1.58737">
        <ele>62.8</ele>
        <time>2024-04-25T17:44:03Z</time>
      </trkpt>
      <trkpt lat="46.76472" lon="-1.58739">
        <ele>62.6</ele>
        <time>2024-04-25T17:44:04Z</time>
      </trkpt>
      <trkpt lat="46.76477" lon="-1.58741">
        <ele>62.6</ele>
        <time>2024-04-25T17:44:05Z</time>
      </trkpt>
      <trkpt lat="46.76481" lon="-1.58743">
        <ele>62.6</ele>
        <time>2024-04-25T17:44:06Z</time>
      </trkpt>
      <trkpt lat="46.76486" lon="-1.58746">
        <ele>62.6</ele>
        <time>2024-04-25T17:44:07Z</time>
      </trkpt>
      <trkpt lat="46.7649" lon="-1.58749">
        <ele>62.6</ele>
        <time>2024-04-25T17:44:08Z</time>
      </trkpt>
      <trkpt lat="46.76497" lon="-1.58752">
        <ele>62.6</ele>
        <time>2024-04-25T17:44:09Z</time>
      </trkpt>
      <trkpt lat="46.76499" lon="-1.58754">
        <ele>62.6</ele>
        <time>2024-04-25T17:44:10Z</time>
      </trkpt>
      <trkpt lat="46.76504" lon="-1.58756">
        <ele>62.6</ele>
        <time>2024-04-25T17:44:11Z</time>
      </trkpt>
      <trkpt lat="46.76508" lon="-1.58759">
        <ele>62.6</ele>
        <time>2024-04-25T17:44:12Z</time>
      </trkpt>
      <trkpt lat="46.76513" lon="-1.58762">
        <ele>62.6</ele>
        <time>2024-04-25T17:44:13Z</time>
      </trkpt>
      <trkpt lat="46.76518" lon="-1.58765">
        <ele>62.4</ele>
        <time>2024-04-25T17:44:14Z</time>
      </trkpt>
      <trkpt lat="46.76522" lon="-1.58768">
        <ele>62.4</ele>
        <time>2024-04-25T17:44:15Z</time>
      </trkpt>
      <trkpt lat="46.76527" lon="-1.58772">
        <ele>62.4</ele>
        <time>2024-04-25T17:44:16Z</time>
      </trkpt>
      <trkpt lat="46.76531" lon="-1.58775">
        <ele>62.4</ele>
        <time>2024-04-25T17:44:17Z</time>
      </trkpt>
      <trkpt lat="46.76535" lon="-1.58779">
        <ele>62.4</ele>
        <time>2024-04-25T17:44:18Z</time>
      </trkpt>
      <trkpt lat="46.76539" lon="-1.58782">
        <ele>62.2</ele>
        <time>2024-04-25T17:44:19Z</time>
      </trkpt>
      <trkpt lat="46.76543" lon="-1.58785">
        <ele>62.2</ele>
        <time>2024-04-25T17:44:20Z</time>
      </trkpt>
      <trkpt lat="46.76546" lon="-1.58789">
        <ele>62.2</ele>
        <time>2024-04-25T17:44:21Z</time>
      </trkpt>
      <trkpt lat="46.7655" lon="-1.58792">
        <ele>62.2</ele>
        <time>2024-04-25T17:44:22Z</time>
      </trkpt>
      <trkpt lat="46.76553" lon="-1.58795">
        <ele>62.2</ele>
        <time>2024-04-25T17:44:23Z</time>
      </trkpt>
      <trkpt lat="46.76556" lon="-1.58796">
        <ele>62.2</ele>
        <time>2024-04-25T17:44:24Z</time>
      </trkpt>
      <trkpt lat="46.76559" lon="-1.58795">
        <ele>62.2</ele>
        <time>2024-04-25T17:44:25Z</time>
      </trkpt>
      <trkpt lat="46.76562" lon="-1.58793">
        <ele>62.2</ele>
        <time>2024-04-25T17:44:26Z</time>
      </trkpt>
      <trkpt lat="46.76618" lon="-1.5889">
        <ele>62.2</ele>
      </trkpt>
      <trkpt lat="46.76674" lon="-1.58925">
        <ele>62</ele>
      </trkpt>
      <trkpt lat="46.76688" lon="-1.58766">
        <ele>61.8</ele>
      </trkpt>
      <trkpt lat="46.77123" lon="-1.58822">
        <ele>53</ele>
      </trkpt>
      <trkpt lat="46.77067" lon="-1.59165">
        <ele>56.5</ele>
      </trkpt>
      <trkpt lat="46.77335" lon="-1.59255">
        <ele>56</ele>
      </trkpt>
      <trkpt lat="46.77549" lon="-1.59324">
        <ele>53.6</ele>
      </trkpt>
      <trkpt lat="46.77638" lon="-1.59435">
        <ele>53</ele>
      </trkpt>
      <trkpt lat="46.78026" lon="-1.59148">
        <ele>36.4</ele>
      </trkpt>
      <trkpt lat="46.78084" lon="-1.59255">
        <ele>31.8</ele>
      </trkpt>
      <trkpt lat="46.78005" lon="-1.59444">
        <ele>29.7</ele>
      </trkpt>
      <trkpt lat="46.77973" lon="-1.5977">
        <ele>24.5</ele>
      </trkpt>
      <trkpt lat="46.77926" lon="-1.59851">
        <ele>27.5</ele>
      </trkpt>
      <trkpt lat="46.77799" lon="-1.60272">
        <ele>31</ele>
      </trkpt>
      <trkpt lat="46.77691" lon="-1.60469">
        <ele>35.1</ele>
      </trkpt>
      <trkpt lat="46.77732" lon="-1.60491">
        <ele>33.8</ele>
      </trkpt>
      <trkpt lat="46.77748" lon="-1.60495">
        <ele>36</ele>
        <time>2024-05-10T07:33:17Z</time>
        <extensions>
          <gpxtpx:TrackPointExtension xmlns:gpxtpx="http://www.garmin.com/xmlschemas/TrackPointExtension/v1">
            <gpxtpx:hr>113</gpxtpx:hr>
          </gpxtpx:TrackPointExtension>
        </extensions>
      </trkpt>
      <trkpt lat="46.77744" lon="-1.60493">
        <ele>36</ele>
        <time>2024-05-10T07:33:16Z</time>
        <extensions>
          <gpxtpx:TrackPointExtension xmlns:gpxtpx="http://www.garmin.com/xmlschemas/TrackPointExtension/v1">
            <gpxtpx:hr>113</gpxtpx:hr>
          </gpxtpx:TrackPointExtension>
        </extensions>
      </trkpt>
      <trkpt lat="46.77741" lon="-1.60492">
        <ele>36</ele>
        <time>2024-05-10T07:33:15Z</time>
        <extensions>
          <gpxtpx:TrackPointExtension xmlns:gpxtpx="http://www.garmin.com/xmlschemas/TrackPointExtension/v1">
            <gpxtpx:hr>112</gpxtpx:hr>
          </gpxtpx:TrackPointExtension>
        </extensions>
      </trkpt>
      <trkpt lat="46.77738" lon="-1.60492">
        <ele>36</ele>
        <time>2024-05-10T07:33:14Z</time>
        <extensions>
          <gpxtpx:TrackPointExtension xmlns:gpxtpx="http://www.garmin.com/xmlschemas/TrackPointExtension/v1">
            <gpxtpx:hr>112</gpxtpx:hr>
          </gpxtpx:TrackPointExtension>
        </extensions>
      </trkpt>
      <trkpt lat="46.77737" lon="-1.60494">
        <ele>36</ele>
        <time>2024-05-10T07:33:13Z</time>
        <extensions>
          <gpxtpx:TrackPointExtension xmlns:gpxtpx="http://www.garmin.com/xmlschemas/TrackPointExtension/v1">
            <gpxtpx:hr>112</gpxtpx:hr>
          </gpxtpx:TrackPointExtension>
        </extensions>
      </trkpt>
      <trkpt lat="46.77737" lon="-1.60498">
        <ele>35.8</ele>
        <time>2024-05-10T07:33:12Z</time>
        <extensions>
          <gpxtpx:TrackPointExtension xmlns:gpxtpx="http://www.garmin.com/xmlschemas/TrackPointExtension/v1">
            <gpxtpx:hr>112</gpxtpx:hr>
          </gpxtpx:TrackPointExtension>
        </extensions>
      </trkpt>
      <trkpt lat="46.77738" lon="-1.60502">
        <ele>35.8</ele>
        <time>2024-05-10T07:33:11Z</time>
        <extensions>
          <gpxtpx:TrackPointExtension xmlns:gpxtpx="http://www.garmin.com/xmlschemas/TrackPointExtension/v1">
            <gpxtpx:hr>111</gpxtpx:hr>
          </gpxtpx:TrackPointExtension>
        </extensions>
      </trkpt>
      <trkpt lat="46.77739" lon="-1.60507">
        <ele>35.6</ele>
        <time>2024-05-10T07:33:10Z</time>
        <extensions>
          <gpxtpx:TrackPointExtension xmlns:gpxtpx="http://www.garmin.com/xmlschemas/TrackPointExtension/v1">
            <gpxtpx:hr>111</gpxtpx:hr>
          </gpxtpx:TrackPointExtension>
        </extensions>
      </trkpt>
      <trkpt lat="46.7774" lon="-1.60511">
        <ele>35.6</ele>
        <time>2024-05-10T07:33:09Z</time>
        <extensions>
          <gpxtpx:TrackPointExtension xmlns:gpxtpx="http://www.garmin.com/xmlschemas/TrackPointExtension/v1">
            <gpxtpx:hr>112</gpxtpx:hr>
          </gpxtpx:TrackPointExtension>
        </extensions>
      </trkpt>
      <trkpt lat="46.77741" lon="-1.60516">
        <ele>35.4</ele>
        <time>2024-05-10T07:33:08Z</time>
        <extensions>
          <gpxtpx:TrackPointExtension xmlns:gpxtpx="http://www.garmin.com/xmlschemas/TrackPointExtension/v1">
            <gpxtpx:hr>112</gpxtpx:hr>
          </gpxtpx:TrackPointExtension>
        </extensions>
      </trkpt>
      <trkpt lat="46.77742" lon="-1.6052">
        <ele>35.4</ele>
        <time>2024-05-10T07:33:07Z</time>
        <extensions>
          <gpxtpx:TrackPointExtension xmlns:gpxtpx="http://www.garmin.com/xmlschemas/TrackPointExtension/v1">
            <gpxtpx:hr>111</gpxtpx:hr>
          </gpxtpx:TrackPointExtension>
        </extensions>
      </trkpt>
      <trkpt lat="46.77744" lon="-1.60525">
        <ele>35.2</ele>
        <time>2024-05-10T07:33:06Z</time>
        <extensions>
          <gpxtpx:TrackPointExtension xmlns:gpxtpx="http://www.garmin.com/xmlschemas/TrackPointExtension/v1">
            <gpxtpx:hr>110</gpxtpx:hr>
          </gpxtpx:TrackPointExtension>
        </extensions>
      </trkpt>
      <trkpt lat="46.77744" lon="-1.6053">
        <ele>35.2</ele>
        <time>2024-05-10T07:33:05Z</time>
        <extensions>
          <gpxtpx:TrackPointExtension xmlns:gpxtpx="http://www.garmin.com/xmlschemas/TrackPointExtension/v1">
            <gpxtpx:hr>109</gpxtpx:hr>
          </gpxtpx:TrackPointExtension>
        </extensions>
      </trkpt>
      <trkpt lat="46.77745" lon="-1.60535">
        <ele>35</ele>
        <time>2024-05-10T07:33:04Z</time>
        <extensions>
          <gpxtpx:TrackPointExtension xmlns:gpxtpx="http://www.garmin.com/xmlschemas/TrackPointExtension/v1">
            <gpxtpx:hr>108</gpxtpx:hr>
          </gpxtpx:TrackPointExtension>
        </extensions>
      </trkpt>
      <trkpt lat="46.77746" lon="-1.60539">
        <ele>35</ele>
        <time>2024-05-10T07:33:03Z</time>
        <extensions>
          <gpxtpx:TrackPointExtension xmlns:gpxtpx="http://www.garmin.com/xmlschemas/TrackPointExtension/v1">
            <gpxtpx:hr>108</gpxtpx:hr>
          </gpxtpx:TrackPointExtension>
        </extensions>
      </trkpt>
      <trkpt lat="46.77747" lon="-1.60543">
        <ele>35</ele>
        <time>2024-05-10T07:33:02Z</time>
        <extensions>
          <gpxtpx:TrackPointExtension xmlns:gpxtpx="http://www.garmin.com/xmlschemas/TrackPointExtension/v1">
            <gpxtpx:hr>107</gpxtpx:hr>
          </gpxtpx:TrackPointExtension>
        </extensions>
      </trkpt>
      <trkpt lat="46.77748" lon="-1.60547">
        <ele>34.8</ele>
        <time>2024-05-10T07:33:01Z</time>
        <extensions>
          <gpxtpx:TrackPointExtension xmlns:gpxtpx="http://www.garmin.com/xmlschemas/TrackPointExtension/v1">
            <gpxtpx:hr>106</gpxtpx:hr>
          </gpxtpx:TrackPointExtension>
        </extensions>
      </trkpt>
      <trkpt lat="46.77748" lon="-1.60549">
        <ele>34.8</ele>
        <time>2024-05-10T07:33:00Z</time>
        <extensions>
          <gpxtpx:TrackPointExtension xmlns:gpxtpx="http://www.garmin.com/xmlschemas/TrackPointExtension/v1">
            <gpxtpx:hr>107</gpxtpx:hr>
          </gpxtpx:TrackPointExtension>
        </extensions>
      </trkpt>
      <trkpt lat="46.77749" lon="-1.6055">
        <ele>34.8</ele>
        <time>2024-05-10T07:32:59Z</time>
        <extensions>
          <gpxtpx:TrackPointExtension xmlns:gpxtpx="http://www.garmin.com/xmlschemas/TrackPointExtension/v1">
            <gpxtpx:hr>107</gpxtpx:hr>
          </gpxtpx:TrackPointExtension>
        </extensions>
      </trkpt>
      <trkpt lat="46.77749" lon="-1.6055">
        <ele>34.8</ele>
        <time>2024-05-10T07:32:58Z</time>
        <extensions>
          <gpxtpx:TrackPointExtension xmlns:gpxtpx="http://www.garmin.com/xmlschemas/TrackPointExtension/v1">
            <gpxtpx:hr>107</gpxtpx:hr>
          </gpxtpx:TrackPointExtension>
        </extensions>
      </trkpt>
      <trkpt lat="46.77749" lon="-1.6055">
        <ele>34.8</ele>
        <time>2024-05-10T07:32:57Z</time>
        <extensions>
          <gpxtpx:TrackPointExtension xmlns:gpxtpx="http://www.garmin.com/xmlschemas/TrackPointExtension/v1">
            <gpxtpx:hr>108</gpxtpx:hr>
          </gpxtpx:TrackPointExtension>
        </extensions>
      </trkpt>
      <trkpt lat="46.77749" lon="-1.6055">
        <ele>34.8</ele>
        <time>2024-05-10T07:32:56Z</time>
        <extensions>
          <gpxtpx:TrackPointExtension xmlns:gpxtpx="http://www.garmin.com/xmlschemas/TrackPointExtension/v1">
            <gpxtpx:hr>108</gpxtpx:hr>
          </gpxtpx:TrackPointExtension>
        </extensions>
      </trkpt>
      <trkpt lat="46.77749" lon="-1.6055">
        <ele>34.8</ele>
        <time>2024-05-10T07:32:55Z</time>
        <extensions>
          <gpxtpx:TrackPointExtension xmlns:gpxtpx="http://www.garmin.com/xmlschemas/TrackPointExtension/v1">
            <gpxtpx:hr>108</gpxtpx:hr>
          </gpxtpx:TrackPointExtension>
        </extensions>
      </trkpt>
      <trkpt lat="46.77749" lon="-1.60551">
        <ele>34.8</ele>
        <time>2024-05-10T07:32:54Z</time>
        <extensions>
          <gpxtpx:TrackPointExtension xmlns:gpxtpx="http://www.garmin.com/xmlschemas/TrackPointExtension/v1">
            <gpxtpx:hr>108</gpxtpx:hr>
          </gpxtpx:TrackPointExtension>
        </extensions>
      </trkpt>
      <trkpt lat="46.77749" lon="-1.60551">
        <ele>34.8</ele>
        <time>2024-05-10T07:32:53Z</time>
        <extensions>
          <gpxtpx:TrackPointExtension xmlns:gpxtpx="http://www.garmin.com/xmlschemas/TrackPointExtension/v1">
            <gpxtpx:hr>108</gpxtpx:hr>
          </gpxtpx:TrackPointExtension>
        </extensions>
      </trkpt>
      <trkpt lat="46.77749" lon="-1.60551">
        <ele>34.8</ele>
        <time>2024-05-10T07:32:52Z</time>
        <extensions>
          <gpxtpx:TrackPointExtension xmlns:gpxtpx="http://www.garmin.com/xmlschemas/TrackPointExtension/v1">
            <gpxtpx:hr>109</gpxtpx:hr>
          </gpxtpx:TrackPointExtension>
        </extensions>
      </trkpt>
      <trkpt lat="46.77749" lon="-1.60551">
        <ele>34.8</ele>
        <time>2024-05-10T07:32:51Z</time>
        <extensions>
          <gpxtpx:TrackPointExtension xmlns:gpxtpx="http://www.garmin.com/xmlschemas/TrackPointExtension/v1">
            <gpxtpx:hr>109</gpxtpx:hr>
          </gpxtpx:TrackPointExtension>
        </extensions>
      </trkpt>
      <trkpt lat="46.77749" lon="-1.60551">
        <ele>34.8</ele>
        <time>2024-05-10T07:32:50Z</time>
        <extensions>
          <gpxtpx:TrackPointExtension xmlns:gpxtpx="http://www.garmin.com/xmlschemas/TrackPointExtension/v1">
            <gpxtpx:hr>109</gpxtpx:hr>
          </gpxtpx:TrackPointExtension>
        </extensions>
      </trkpt>
      <trkpt lat="46.77749" lon="-1.60551">
        <ele>34.8</ele>
        <time>2024-05-10T07:32:49Z</time>
        <extensions>
          <gpxtpx:TrackPointExtension xmlns:gpxtpx="http://www.garmin.com/xmlschemas/TrackPointExtension/v1">
            <gpxtpx:hr>109</gpxtpx:hr>
          </gpxtpx:TrackPointExtension>
        </extensions>
      </trkpt>
      <trkpt lat="46.77749" lon="-1.60551">
        <ele>34.8</ele>
        <time>2024-05-10T07:32:48Z</time>
        <extensions>
          <gpxtpx:TrackPointExtension xmlns:gpxtpx="http://www.garmin.com/xmlschemas/TrackPointExtension/v1">
            <gpxtpx:hr>110</gpxtpx:hr>
          </gpxtpx:TrackPointExtension>
        </extensions>
      </trkpt>
      <trkpt lat="46.77749" lon="-1.60551">
        <ele>34.8</ele>
        <time>2024-05-10T07:32:47Z</time>
        <extensions>
          <gpxtpx:TrackPointExtension xmlns:gpxtpx="http://www.garmin.com/xmlschemas/TrackPointExtension/v1">
            <gpxtpx:hr>110</gpxtpx:hr>
          </gpxtpx:TrackPointExtension>
        </extensions>
      </trkpt>
      <trkpt lat="46.77749" lon="-1.60551">
        <ele>34.8</ele>
        <time>2024-05-10T07:32:46Z</time>
        <extensions>
          <gpxtpx:TrackPointExtension xmlns:gpxtpx="http://www.garmin.com/xmlschemas/TrackPointExtension/v1">
            <gpxtpx:hr>110</gpxtpx:hr>
          </gpxtpx:TrackPointExtension>
        </extensions>
      </trkpt>
      <trkpt lat="46.77749" lon="-1.60551">
        <ele>34.8</ele>
        <time>2024-05-10T07:32:45Z</time>
        <extensions>
          <gpxtpx:TrackPointExtension xmlns:gpxtpx="http://www.garmin.com/xmlschemas/TrackPointExtension/v1">
            <gpxtpx:hr>110</gpxtpx:hr>
          </gpxtpx:TrackPointExtension>
        </extensions>
      </trkpt>
      <trkpt lat="46.77749" lon="-1.60551">
        <ele>34.8</ele>
        <time>2024-05-10T07:32:44Z</time>
        <extensions>
          <gpxtpx:TrackPointExtension xmlns:gpxtpx="http://www.garmin.com/xmlschemas/TrackPointExtension/v1">
            <gpxtpx:hr>111</gpxtpx:hr>
          </gpxtpx:TrackPointExtension>
        </extensions>
      </trkpt>
      <trkpt lat="46.77749" lon="-1.60551">
        <ele>34.8</ele>
        <time>2024-05-10T07:32:43Z</time>
        <extensions>
          <gpxtpx:TrackPointExtension xmlns:gpxtpx="http://www.garmin.com/xmlschemas/TrackPointExtension/v1">
            <gpxtpx:hr>111</gpxtpx:hr>
          </gpxtpx:TrackPointExtension>
        </extensions>
      </trkpt>
      <trkpt lat="46.77749" lon="-1.60551">
        <ele>34.8</ele>
        <time>2024-05-10T07:32:42Z</time>
        <extensions>
          <gpxtpx:TrackPointExtension xmlns:gpxtpx="http://www.garmin.com/xmlschemas/TrackPointExtension/v1">
            <gpxtpx:hr>112</gpxtpx:hr>
          </gpxtpx:TrackPointExtension>
        </extensions>
      </trkpt>
      <trkpt lat="46.77749" lon="-1.60551">
        <ele>34.8</ele>
        <time>2024-05-10T07:32:41Z</time>
        <extensions>
          <gpxtpx:TrackPointExtension xmlns:gpxtpx="http://www.garmin.com/xmlschemas/TrackPointExtension/v1">
            <gpxtpx:hr>112</gpxtpx:hr>
          </gpxtpx:TrackPointExtension>
        </extensions>
      </trkpt>
      <trkpt lat="46.77749" lon="-1.60551">
        <ele>34.8</ele>
        <time>2024-05-10T07:32:40Z</time>
        <extensions>
          <gpxtpx:TrackPointExtension xmlns:gpxtpx="http://www.garmin.com/xmlschemas/TrackPointExtension/v1">
            <gpxtpx:hr>112</gpxtpx:hr>
          </gpxtpx:TrackPointExtension>
        </extensions>
      </trkpt>
      <trkpt lat="46.77749" lon="-1.60551">
        <ele>34.8</ele>
        <time>2024-05-10T07:32:39Z</time>
        <extensions>
          <gpxtpx:TrackPointExtension xmlns:gpxtpx="http://www.garmin.com/xmlschemas/TrackPointExtension/v1">
            <gpxtpx:hr>113</gpxtpx:hr>
          </gpxtpx:TrackPointExtension>
        </extensions>
      </trkpt>
      <trkpt lat="46.77749" lon="-1.60551">
        <ele>34.8</ele>
        <time>2024-05-10T07:32:38Z</time>
        <extensions>
          <gpxtpx:TrackPointExtension xmlns:gpxtpx="http://www.garmin.com/xmlschemas/TrackPointExtension/v1">
            <gpxtpx:hr>113</gpxtpx:hr>
          </gpxtpx:TrackPointExtension>
        </extensions>
      </trkpt>
      <trkpt lat="46.77749" lon="-1.60551">
        <ele>34.8</ele>
        <time>2024-05-10T07:32:37Z</time>
        <extensions>
          <gpxtpx:TrackPointExtension xmlns:gpxtpx="http://www.garmin.com/xmlschemas/TrackPointExtension/v1">
            <gpxtpx:hr>113</gpxtpx:hr>
          </gpxtpx:TrackPointExtension>
        </extensions>
      </trkpt>
      <trkpt lat="46.77749" lon="-1.60551">
        <ele>34.8</ele>
        <time>2024-05-10T07:32:36Z</time>
        <extensions>
          <gpxtpx:TrackPointExtension xmlns:gpxtpx="http://www.garmin.com/xmlschemas/TrackPointExtension/v1">
            <gpxtpx:hr>113</gpxtpx:hr>
          </gpxtpx:TrackPointExtension>
        </extensions>
      </trkpt>
      <trkpt lat="46.77749" lon="-1.60551">
        <ele>34.8</ele>
        <time>2024-05-10T07:32:35Z</time>
        <extensions>
          <gpxtpx:TrackPointExtension xmlns:gpxtpx="http://www.garmin.com/xmlschemas/TrackPointExtension/v1">
            <gpxtpx:hr>113</gpxtpx:hr>
          </gpxtpx:TrackPointExtension>
        </extensions>
      </trkpt>
      <trkpt lat="46.77749" lon="-1.60551">
        <ele>34.8</ele>
        <time>2024-05-10T07:32:34Z</time>
        <extensions>
          <gpxtpx:TrackPointExtension xmlns:gpxtpx="http://www.garmin.com/xmlschemas/TrackPointExtension/v1">
            <gpxtpx:hr>113</gpxtpx:hr>
          </gpxtpx:TrackPointExtension>
        </extensions>
      </trkpt>
      <trkpt lat="46.77749" lon="-1.60551">
        <ele>34.8</ele>
        <time>2024-05-10T07:32:33Z</time>
        <extensions>
          <gpxtpx:TrackPointExtension xmlns:gpxtpx="http://www.garmin.com/xmlschemas/TrackPointExtension/v1">
            <gpxtpx:hr>113</gpxtpx:hr>
          </gpxtpx:TrackPointExtension>
        </extensions>
      </trkpt>
      <trkpt lat="46.77749" lon="-1.60551">
        <ele>34.8</ele>
        <time>2024-05-10T07:32:32Z</time>
        <extensions>
          <gpxtpx:TrackPointExtension xmlns:gpxtpx="http://www.garmin.com/xmlschemas/TrackPointExtension/v1">
            <gpxtpx:hr>114</gpxtpx:hr>
          </gpxtpx:TrackPointExtension>
        </extensions>
      </trkpt>
      <trkpt lat="46.77749" lon="-1.60551">
        <ele>34.8</ele>
        <time>2024-05-10T07:32:31Z</time>
        <extensions>
          <gpxtpx:TrackPointExtension xmlns:gpxtpx="http://www.garmin.com/xmlschemas/TrackPointExtension/v1">
            <gpxtpx:hr>114</gpxtpx:hr>
          </gpxtpx:TrackPointExtension>
        </extensions>
      </trkpt>
      <trkpt lat="46.77749" lon="-1.60551">
        <ele>34.8</ele>
        <time>2024-05-10T07:32:30Z</time>
        <extensions>
          <gpxtpx:TrackPointExtension xmlns:gpxtpx="http://www.garmin.com/xmlschemas/TrackPointExtension/v1">
            <gpxtpx:hr>115</gpxtpx:hr>
          </gpxtpx:TrackPointExtension>
        </extensions>
      </trkpt>
      <trkpt lat="46.77749" lon="-1.60551">
        <ele>34.8</ele>
        <time>2024-05-10T07:32:29Z</time>
        <extensions>
          <gpxtpx:TrackPointExtension xmlns:gpxtpx="http://www.garmin.com/xmlschemas/TrackPointExtension/v1">
            <gpxtpx:hr>115</gpxtpx:hr>
          </gpxtpx:TrackPointExtension>
        </extensions>
      </trkpt>
      <trkpt lat="46.77749" lon="-1.60551">
        <ele>34.8</ele>
        <time>2024-05-10T07:32:28Z</time>
        <extensions>
          <gpxtpx:TrackPointExtension xmlns:gpxtpx="http://www.garmin.com/xmlschemas/TrackPointExtension/v1">
            <gpxtpx:hr>116</gpxtpx:hr>
          </gpxtpx:TrackPointExtension>
        </extensions>
      </trkpt>
      <trkpt lat="46.77749" lon="-1.60551">
        <ele>34.8</ele>
        <time>2024-05-10T07:32:27Z</time>
        <extensions>
          <gpxtpx:TrackPointExtension xmlns:gpxtpx="http://www.garmin.com/xmlschemas/TrackPointExtension/v1">
            <gpxtpx:hr>116</gpxtpx:hr>
          </gpxtpx:TrackPointExtension>
        </extensions>
      </trkpt>
      <trkpt lat="46.77749" lon="-1.60551">
        <ele>34.8</ele>
        <time>2024-05-10T07:32:26Z</time>
        <extensions>
          <gpxtpx:TrackPointExtension xmlns:gpxtpx="http://www.garmin.com/xmlschemas/TrackPointExtension/v1">
            <gpxtpx:hr>117</gpxtpx:hr>
          </gpxtpx:TrackPointExtension>
        </extensions>
      </trkpt>
      <trkpt lat="46.77749" lon="-1.60551">
        <ele>34.8</ele>
        <time>2024-05-10T07:32:25Z</time>
        <extensions>
          <gpxtpx:TrackPointExtension xmlns:gpxtpx="http://www.garmin.com/xmlschemas/TrackPointExtension/v1">
            <gpxtpx:hr>118</gpxtpx:hr>
          </gpxtpx:TrackPointExtension>
        </extensions>
      </trkpt>
      <trkpt lat="46.77749" lon="-1.60551">
        <ele>35</ele>
        <time>2024-05-10T07:32:24Z</time>
        <extensions>
          <gpxtpx:TrackPointExtension xmlns:gpxtpx="http://www.garmin.com/xmlschemas/TrackPointExtension/v1">
            <gpxtpx:hr>119</gpxtpx:hr>
          </gpxtpx:TrackPointExtension>
        </extensions>
      </trkpt>
      <trkpt lat="46.77749" lon="-1.60551">
        <ele>35</ele>
        <time>2024-05-10T07:32:23Z</time>
        <extensions>
          <gpxtpx:TrackPointExtension xmlns:gpxtpx="http://www.garmin.com/xmlschemas/TrackPointExtension/v1">
            <gpxtpx:hr>119</gpxtpx:hr>
          </gpxtpx:TrackPointExtension>
        </extensions>
      </trkpt>
      <trkpt lat="46.7775" lon="-1.60551">
        <ele>35</ele>
        <time>2024-05-10T07:32:22Z</time>
        <extensions>
          <gpxtpx:TrackPointExtension xmlns:gpxtpx="http://www.garmin.com/xmlschemas/TrackPointExtension/v1">
            <gpxtpx:hr>120</gpxtpx:hr>
          </gpxtpx:TrackPointExtension>
        </extensions>
      </trkpt>
      <trkpt lat="46.7775" lon="-1.60551">
        <ele>35</ele>
        <time>2024-05-10T07:32:21Z</time>
        <extensions>
          <gpxtpx:TrackPointExtension xmlns:gpxtpx="http://www.garmin.com/xmlschemas/TrackPointExtension/v1">
            <gpxtpx:hr>121</gpxtpx:hr>
          </gpxtpx:TrackPointExtension>
        </extensions>
      </trkpt>
      <trkpt lat="46.7775" lon="-1.60551">
        <ele>35</ele>
        <time>2024-05-10T07:32:20Z</time>
        <extensions>
          <gpxtpx:TrackPointExtension xmlns:gpxtpx="http://www.garmin.com/xmlschemas/TrackPointExtension/v1">
            <gpxtpx:hr>121</gpxtpx:hr>
          </gpxtpx:TrackPointExtension>
        </extensions>
      </trkpt>
      <trkpt lat="46.7775" lon="-1.60551">
        <ele>35</ele>
        <time>2024-05-10T07:32:19Z</time>
        <extensions>
          <gpxtpx:TrackPointExtension xmlns:gpxtpx="http://www.garmin.com/xmlschemas/TrackPointExtension/v1">
            <gpxtpx:hr>121</gpxtpx:hr>
          </gpxtpx:TrackPointExtension>
        </extensions>
      </trkpt>
      <trkpt lat="46.7775" lon="-1.60551">
        <ele>34.8</ele>
        <time>2024-05-10T07:32:18Z</time>
        <extensions>
          <gpxtpx:TrackPointExtension xmlns:gpxtpx="http://www.garmin.com/xmlschemas/TrackPointExtension/v1">
            <gpxtpx:hr>121</gpxtpx:hr>
          </gpxtpx:TrackPointExtension>
        </extensions>
      </trkpt>
      <trkpt lat="46.7775" lon="-1.60551">
        <ele>34.8</ele>
        <time>2024-05-10T07:32:17Z</time>
        <extensions>
          <gpxtpx:TrackPointExtension xmlns:gpxtpx="http://www.garmin.com/xmlschemas/TrackPointExtension/v1">
            <gpxtpx:hr>121</gpxtpx:hr>
          </gpxtpx:TrackPointExtension>
        </extensions>
      </trkpt>
      <trkpt lat="46.7775" lon="-1.60551">
        <ele>34.8</ele>
        <time>2024-05-10T07:32:16Z</time>
        <extensions>
          <gpxtpx:TrackPointExtension xmlns:gpxtpx="http://www.garmin.com/xmlschemas/TrackPointExtension/v1">
            <gpxtpx:hr>120</gpxtpx:hr>
          </gpxtpx:TrackPointExtension>
        </extensions>
      </trkpt>
      <trkpt lat="46.7775" lon="-1.60552">
        <ele>34.8</ele>
        <time>2024-05-10T07:32:15Z</time>
        <extensions>
          <gpxtpx:TrackPointExtension xmlns:gpxtpx="http://www.garmin.com/xmlschemas/TrackPointExtension/v1">
            <gpxtpx:hr>120</gpxtpx:hr>
          </gpxtpx:TrackPointExtension>
        </extensions>
      </trkpt>
      <trkpt lat="46.7775" lon="-1.60552">
        <ele>34.8</ele>
        <time>2024-05-10T07:32:14Z</time>
        <extensions>
          <gpxtpx:TrackPointExtension xmlns:gpxtpx="http://www.garmin.com/xmlschemas/TrackPointExtension/v1">
            <gpxtpx:hr>120</gpxtpx:hr>
          </gpxtpx:TrackPointExtension>
        </extensions>
      </trkpt>
      <trkpt lat="46.7775" lon="-1.60552">
        <ele>34.8</ele>
        <time>2024-05-10T07:32:13Z</time>
        <extensions>
          <gpxtpx:TrackPointExtension xmlns:gpxtpx="http://www.garmin.com/xmlschemas/TrackPointExtension/v1">
            <gpxtpx:hr>119</gpxtpx:hr>
          </gpxtpx:TrackPointExtension>
        </extensions>
      </trkpt>
      <trkpt lat="46.7775" lon="-1.60552">
        <ele>34.8</ele>
        <time>2024-05-10T07:32:12Z</time>
        <extensions>
          <gpxtpx:TrackPointExtension xmlns:gpxtpx="http://www.garmin.com/xmlschemas/TrackPointExtension/v1">
            <gpxtpx:hr>119</gpxtpx:hr>
          </gpxtpx:TrackPointExtension>
        </extensions>
      </trkpt>
      <trkpt lat="46.7775" lon="-1.60552">
        <ele>34.8</ele>
        <time>2024-05-10T07:32:11Z</time>
        <extensions>
          <gpxtpx:TrackPointExtension xmlns:gpxtpx="http://www.garmin.com/xmlschemas/TrackPointExtension/v1">
            <gpxtpx:hr>118</gpxtpx:hr>
          </gpxtpx:TrackPointExtension>
        </extensions>
      </trkpt>
      <trkpt lat="46.7775" lon="-1.60552">
        <ele>34.8</ele>
        <time>2024-05-10T07:32:10Z</time>
        <extensions>
          <gpxtpx:TrackPointExtension xmlns:gpxtpx="http://www.garmin.com/xmlschemas/TrackPointExtension/v1">
            <gpxtpx:hr>119</gpxtpx:hr>
          </gpxtpx:TrackPointExtension>
        </extensions>
      </trkpt>
      <trkpt lat="46.7775" lon="-1.60551">
        <ele>34.6</ele>
        <time>2024-05-10T07:32:09Z</time>
        <extensions>
          <gpxtpx:TrackPointExtension xmlns:gpxtpx="http://www.garmin.com/xmlschemas/TrackPointExtension/v1">
            <gpxtpx:hr>119</gpxtpx:hr>
          </gpxtpx:TrackPointExtension>
        </extensions>
      </trkpt>
      <trkpt lat="46.7775" lon="-1.60551">
        <ele>34.6</ele>
        <time>2024-05-10T07:32:08Z</time>
        <extensions>
          <gpxtpx:TrackPointExtension xmlns:gpxtpx="http://www.garmin.com/xmlschemas/TrackPointExtension/v1">
            <gpxtpx:hr>120</gpxtpx:hr>
          </gpxtpx:TrackPointExtension>
        </extensions>
      </trkpt>
      <trkpt lat="46.7775" lon="-1.60551">
        <ele>34.6</ele>
        <time>2024-05-10T07:32:07Z</time>
        <extensions>
          <gpxtpx:TrackPointExtension xmlns:gpxtpx="http://www.garmin.com/xmlschemas/TrackPointExtension/v1">
            <gpxtpx:hr>121</gpxtpx:hr>
          </gpxtpx:TrackPointExtension>
        </extensions>
      </trkpt>
      <trkpt lat="46.7775" lon="-1.60551">
        <ele>34.6</ele>
        <time>2024-05-10T07:32:06Z</time>
        <extensions>
          <gpxtpx:TrackPointExtension xmlns:gpxtpx="http://www.garmin.com/xmlschemas/TrackPointExtension/v1">
            <gpxtpx:hr>122</gpxtpx:hr>
          </gpxtpx:TrackPointExtension>
        </extensions>
      </trkpt>
      <trkpt lat="46.7775" lon="-1.6055">
        <ele>34.6</ele>
        <time>2024-05-10T07:32:05Z</time>
        <extensions>
          <gpxtpx:TrackPointExtension xmlns:gpxtpx="http://www.garmin.com/xmlschemas/TrackPointExtension/v1">
            <gpxtpx:hr>123</gpxtpx:hr>
          </gpxtpx:TrackPointExtension>
        </extensions>
      </trkpt>
      <trkpt lat="46.7775" lon="-1.6055">
        <ele>34.6</ele>
        <time>2024-05-10T07:32:03Z</time>
        <extensions>
          <gpxtpx:TrackPointExtension xmlns:gpxtpx="http://www.garmin.com/xmlschemas/TrackPointExtension/v1">
            <gpxtpx:hr>124</gpxtpx:hr>
          </gpxtpx:TrackPointExtension>
        </extensions>
      </trkpt>
      <trkpt lat="46.7775" lon="-1.60551">
        <ele>34.4</ele>
        <time>2024-05-10T07:32:02Z</time>
        <extensions>
          <gpxtpx:TrackPointExtension xmlns:gpxtpx="http://www.garmin.com/xmlschemas/TrackPointExtension/v1">
            <gpxtpx:hr>125</gpxtpx:hr>
          </gpxtpx:TrackPointExtension>
        </extensions>
      </trkpt>
      <trkpt lat="46.7775" lon="-1.60552">
        <ele>34.4</ele>
        <time>2024-05-10T07:32:01Z</time>
        <extensions>
          <gpxtpx:TrackPointExtension xmlns:gpxtpx="http://www.garmin.com/xmlschemas/TrackPointExtension/v1">
            <gpxtpx:hr>125</gpxtpx:hr>
          </gpxtpx:TrackPointExtension>
        </extensions>
      </trkpt>
      <trkpt lat="46.77751" lon="-1.60554">
        <ele>34.2</ele>
        <time>2024-05-10T07:32:00Z</time>
        <extensions>
          <gpxtpx:TrackPointExtension xmlns:gpxtpx="http://www.garmin.com/xmlschemas/TrackPointExtension/v1">
            <gpxtpx:hr>126</gpxtpx:hr>
          </gpxtpx:TrackPointExtension>
        </extensions>
      </trkpt>
      <trkpt lat="46.77751" lon="-1.60557">
        <ele>34.2</ele>
        <time>2024-05-10T07:31:59Z</time>
        <extensions>
          <gpxtpx:TrackPointExtension xmlns:gpxtpx="http://www.garmin.com/xmlschemas/TrackPointExtension/v1">
            <gpxtpx:hr>126</gpxtpx:hr>
          </gpxtpx:TrackPointExtension>
        </extensions>
      </trkpt>
      <trkpt lat="46.77752" lon="-1.60559">
        <ele>34.2</ele>
        <time>2024-05-10T07:31:58Z</time>
        <extensions>
          <gpxtpx:TrackPointExtension xmlns:gpxtpx="http://www.garmin.com/xmlschemas/TrackPointExtension/v1">
            <gpxtpx:hr>126</gpxtpx:hr>
          </gpxtpx:TrackPointExtension>
        </extensions>
      </trkpt>
      <trkpt lat="46.77752" lon="-1.60561">
        <ele>34</ele>
        <time>2024-05-10T07:31:57Z</time>
        <extensions>
          <gpxtpx:TrackPointExtension xmlns:gpxtpx="http://www.garmin.com/xmlschemas/TrackPointExtension/v1">
            <gpxtpx:hr>126</gpxtpx:hr>
          </gpxtpx:TrackPointExtension>
        </extensions>
      </trkpt>
      <trkpt lat="46.77753" lon="-1.60565">
        <ele>34</ele>
        <time>2024-05-10T07:31:56Z</time>
        <extensions>
          <gpxtpx:TrackPointExtension xmlns:gpxtpx="http://www.garmin.com/xmlschemas/TrackPointExtension/v1">
            <gpxtpx:hr>126</gpxtpx:hr>
          </gpxtpx:TrackPointExtension>
        </extensions>
      </trkpt>
      <trkpt lat="46.77754" lon="-1.60568">
        <ele>33.8</ele>
        <time>2024-05-10T07:31:55Z</time>
        <extensions>
          <gpxtpx:TrackPointExtension xmlns:gpxtpx="http://www.garmin.com/xmlschemas/TrackPointExtension/v1">
            <gpxtpx:hr>126</gpxtpx:hr>
          </gpxtpx:TrackPointExtension>
        </extensions>
      </trkpt>
      <trkpt lat="46.77754" lon="-1.60572">
        <ele>33.8</ele>
        <time>2024-05-10T07:31:54Z</time>
        <extensions>
          <gpxtpx:TrackPointExtension xmlns:gpxtpx="http://www.garmin.com/xmlschemas/TrackPointExtension/v1">
            <gpxtpx:hr>128</gpxtpx:hr>
          </gpxtpx:TrackPointExtension>
        </extensions>
      </trkpt>
      <trkpt lat="46.77754" lon="-1.60573">
        <ele>33.8</ele>
        <time>2024-05-10T07:31:53Z</time>
        <extensions>
          <gpxtpx:TrackPointExtension xmlns:gpxtpx="http://www.garmin.com/xmlschemas/TrackPointExtension/v1">
            <gpxtpx:hr>129</gpxtpx:hr>
          </gpxtpx:TrackPointExtension>
        </extensions>
      </trkpt>
      <trkpt lat="46.77755" lon="-1.60578">
        <ele>33.6</ele>
        <time>2024-05-10T07:31:52Z</time>
        <extensions>
          <gpxtpx:TrackPointExtension xmlns:gpxtpx="http://www.garmin.com/xmlschemas/TrackPointExtension/v1">
            <gpxtpx:hr>129</gpxtpx:hr>
          </gpxtpx:TrackPointExtension>
        </extensions>
      </trkpt>
      <trkpt lat="46.77756" lon="-1.60581">
        <ele>33.6</ele>
        <time>2024-05-10T07:31:51Z</time>
        <extensions>
          <gpxtpx:TrackPointExtension xmlns:gpxtpx="http://www.garmin.com/xmlschemas/TrackPointExtension/v1">
            <gpxtpx:hr>129</gpxtpx:hr>
          </gpxtpx:TrackPointExtension>
        </extensions>
      </trkpt>
      <trkpt lat="46.77756" lon="-1.60584">
        <ele>33.4</ele>
        <time>2024-05-10T07:31:50Z</time>
        <extensions>
          <gpxtpx:TrackPointExtension xmlns:gpxtpx="http://www.garmin.com/xmlschemas/TrackPointExtension/v1">
            <gpxtpx:hr>130</gpxtpx:hr>
          </gpxtpx:TrackPointExtension>
        </extensions>
      </trkpt>
      <trkpt lat="46.77757" lon="-1.60587">
        <ele>33.4</ele>
        <time>2024-05-10T07:31:49Z</time>
        <extensions>
          <gpxtpx:TrackPointExtension xmlns:gpxtpx="http://www.garmin.com/xmlschemas/TrackPointExtension/v1">
            <gpxtpx:hr>130</gpxtpx:hr>
          </gpxtpx:TrackPointExtension>
        </extensions>
      </trkpt>
      <trkpt lat="46.77757" lon="-1.6059">
        <ele>33.2</ele>
        <time>2024-05-10T07:31:48Z</time>
        <extensions>
          <gpxtpx:TrackPointExtension xmlns:gpxtpx="http://www.garmin.com/xmlschemas/TrackPointExtension/v1">
            <gpxtpx:hr>131</gpxtpx:hr>
          </gpxtpx:TrackPointExtension>
        </extensions>
      </trkpt>
      <trkpt lat="46.77758" lon="-1.60593">
        <ele>33</ele>
        <time>2024-05-10T07:31:47Z</time>
        <extensions>
          <gpxtpx:TrackPointExtension xmlns:gpxtpx="http://www.garmin.com/xmlschemas/TrackPointExtension/v1">
            <gpxtpx:hr>131</gpxtpx:hr>
          </gpxtpx:TrackPointExtension>
        </extensions>
      </trkpt>
      <trkpt lat="46.77759" lon="-1.60597">
        <ele>33</ele>
        <time>2024-05-10T07:31:46Z</time>
        <extensions>
          <gpxtpx:TrackPointExtension xmlns:gpxtpx="http://www.garmin.com/xmlschemas/TrackPointExtension/v1">
            <gpxtpx:hr>131</gpxtpx:hr>
          </gpxtpx:TrackPointExtension>
        </extensions>
      </trkpt>
      <trkpt lat="46.77759" lon="-1.606">
        <ele>32.8</ele>
        <time>2024-05-10T07:31:45Z</time>
        <extensions>
          <gpxtpx:TrackPointExtension xmlns:gpxtpx="http://www.garmin.com/xmlschemas/TrackPointExtension/v1">
            <gpxtpx:hr>131</gpxtpx:hr>
          </gpxtpx:TrackPointExtension>
        </extensions>
      </trkpt>
      <trkpt lat="46.7776" lon="-1.60602">
        <ele>32.6</ele>
        <time>2024-05-10T07:31:44Z</time>
        <extensions>
          <gpxtpx:TrackPointExtension xmlns:gpxtpx="http://www.garmin.com/xmlschemas/TrackPointExtension/v1">
            <gpxtpx:hr>131</gpxtpx:hr>
          </gpxtpx:TrackPointExtension>
        </extensions>
      </trkpt>
      <trkpt lat="46.77761" lon="-1.60607">
        <ele>32.6</ele>
        <time>2024-05-10T07:31:43Z</time>
        <extensions>
          <gpxtpx:TrackPointExtension xmlns:gpxtpx="http://www.garmin.com/xmlschemas/TrackPointExtension/v1">
            <gpxtpx:hr>131</gpxtpx:hr>
          </gpxtpx:TrackPointExtension>
        </extensions>
      </trkpt>
      <trkpt lat="46.77762" lon="-1.60611">
        <ele>32.4</ele>
        <time>2024-05-10T07:31:42Z</time>
        <extensions>
          <gpxtpx:TrackPointExtension xmlns:gpxtpx="http://www.garmin.com/xmlschemas/TrackPointExtension/v1">
            <gpxtpx:hr>131</gpxtpx:hr>
          </gpxtpx:TrackPointExtension>
        </extensions>
      </trkpt>
      <trkpt lat="46.77763" lon="-1.60615">
        <ele>32.4</ele>
        <time>2024-05-10T07:31:41Z</time>
        <extensions>
          <gpxtpx:TrackPointExtension xmlns:gpxtpx="http://www.garmin.com/xmlschemas/TrackPointExtension/v1">
            <gpxtpx:hr>130</gpxtpx:hr>
          </gpxtpx:TrackPointExtension>
        </extensions>
      </trkpt>
      <trkpt lat="46.77763" lon="-1.60619">
        <ele>32.2</ele>
        <time>2024-05-10T07:31:40Z</time>
        <extensions>
          <gpxtpx:TrackPointExtension xmlns:gpxtpx="http://www.garmin.com/xmlschemas/TrackPointExtension/v1">
            <gpxtpx:hr>130</gpxtpx:hr>
          </gpxtpx:TrackPointExtension>
        </extensions>
      </trkpt>
      <trkpt lat="46.77764" lon="-1.60623">
        <ele>32</ele>
        <time>2024-05-10T07:31:39Z</time>
        <extensions>
          <gpxtpx:TrackPointExtension xmlns:gpxtpx="http://www.garmin.com/xmlschemas/TrackPointExtension/v1">
            <gpxtpx:hr>129</gpxtpx:hr>
          </gpxtpx:TrackPointExtension>
        </extensions>
      </trkpt>
      <trkpt lat="46.77765" lon="-1.60627">
        <ele>31.8</ele>
        <time>2024-05-10T07:31:38Z</time>
        <extensions>
          <gpxtpx:TrackPointExtension xmlns:gpxtpx="http://www.garmin.com/xmlschemas/TrackPointExtension/v1">
            <gpxtpx:hr>129</gpxtpx:hr>
          </gpxtpx:TrackPointExtension>
        </extensions>
      </trkpt>
      <trkpt lat="46.77765" lon="-1.60631">
        <ele>31.8</ele>
        <time>2024-05-10T07:31:37Z</time>
        <extensions>
          <gpxtpx:TrackPointExtension xmlns:gpxtpx="http://www.garmin.com/xmlschemas/TrackPointExtension/v1">
            <gpxtpx:hr>128</gpxtpx:hr>
          </gpxtpx:TrackPointExtension>
        </extensions>
      </trkpt>
      <trkpt lat="46.77766" lon="-1.60635">
        <ele>31.6</ele>
        <time>2024-05-10T07:31:36Z</time>
        <extensions>
          <gpxtpx:TrackPointExtension xmlns:gpxtpx="http://www.garmin.com/xmlschemas/TrackPointExtension/v1">
            <gpxtpx:hr>128</gpxtpx:hr>
          </gpxtpx:TrackPointExtension>
        </extensions>
      </trkpt>
      <trkpt lat="46.77767" lon="-1.60639">
        <ele>31.4</ele>
        <time>2024-05-10T07:31:35Z</time>
        <extensions>
          <gpxtpx:TrackPointExtension xmlns:gpxtpx="http://www.garmin.com/xmlschemas/TrackPointExtension/v1">
            <gpxtpx:hr>127</gpxtpx:hr>
          </gpxtpx:TrackPointExtension>
        </extensions>
      </trkpt>
      <trkpt lat="46.77767" lon="-1.60643">
        <ele>31</ele>
        <time>2024-05-10T07:31:34Z</time>
        <extensions>
          <gpxtpx:TrackPointExtension xmlns:gpxtpx="http://www.garmin.com/xmlschemas/TrackPointExtension/v1">
            <gpxtpx:hr>127</gpxtpx:hr>
          </gpxtpx:TrackPointExtension>
        </extensions>
      </trkpt>
      <trkpt lat="46.77768" lon="-1.60647">
        <ele>30.8</ele>
        <time>2024-05-10T07:31:33Z</time>
        <extensions>
          <gpxtpx:TrackPointExtension xmlns:gpxtpx="http://www.garmin.com/xmlschemas/TrackPointExtension/v1">
            <gpxtpx:hr>127</gpxtpx:hr>
          </gpxtpx:TrackPointExtension>
        </extensions>
      </trkpt>
      <trkpt lat="46.77769" lon="-1.60651">
        <ele>30.8</ele>
        <time>2024-05-10T07:31:32Z</time>
        <extensions>
          <gpxtpx:TrackPointExtension xmlns:gpxtpx="http://www.garmin.com/xmlschemas/TrackPointExtension/v1">
            <gpxtpx:hr>127</gpxtpx:hr>
          </gpxtpx:TrackPointExtension>
        </extensions>
      </trkpt>
      <trkpt lat="46.77769" lon="-1.60656">
        <ele>30.6</ele>
        <time>2024-05-10T07:31:31Z</time>
        <extensions>
          <gpxtpx:TrackPointExtension xmlns:gpxtpx="http://www.garmin.com/xmlschemas/TrackPointExtension/v1">
            <gpxtpx:hr>128</gpxtpx:hr>
          </gpxtpx:TrackPointExtension>
        </extensions>
      </trkpt>
      <trkpt lat="46.7777" lon="-1.6066">
        <ele>30.4</ele>
        <time>2024-05-10T07:31:30Z</time>
        <extensions>
          <gpxtpx:TrackPointExtension xmlns:gpxtpx="http://www.garmin.com/xmlschemas/TrackPointExtension/v1">
            <gpxtpx:hr>128</gpxtpx:hr>
          </gpxtpx:TrackPointExtension>
        </extensions>
      </trkpt>
      <trkpt lat="46.7777" lon="-1.60663">
        <ele>30.4</ele>
        <time>2024-05-10T07:31:29Z</time>
        <extensions>
          <gpxtpx:TrackPointExtension xmlns:gpxtpx="http://www.garmin.com/xmlschemas/TrackPointExtension/v1">
            <gpxtpx:hr>128</gpxtpx:hr>
          </gpxtpx:TrackPointExtension>
        </extensions>
      </trkpt>
      <trkpt lat="46.77771" lon="-1.60667">
        <ele>30.2</ele>
        <time>2024-05-10T07:31:28Z</time>
        <extensions>
          <gpxtpx:TrackPointExtension xmlns:gpxtpx="http://www.garmin.com/xmlschemas/TrackPointExtension/v1">
            <gpxtpx:hr>128</gpxtpx:hr>
          </gpxtpx:TrackPointExtension>
        </extensions>
      </trkpt>
      <trkpt lat="46.77771" lon="-1.6067">
        <ele>30</ele>
        <time>2024-05-10T07:31:27Z</time>
        <extensions>
          <gpxtpx:TrackPointExtension xmlns:gpxtpx="http://www.garmin.com/xmlschemas/TrackPointExtension/v1">
            <gpxtpx:hr>129</gpxtpx:hr>
          </gpxtpx:TrackPointExtension>
        </extensions>
      </trkpt>
      <trkpt lat="46.77772" lon="-1.60674">
        <ele>30</ele>
        <time>2024-05-10T07:31:26Z</time>
        <extensions>
          <gpxtpx:TrackPointExtension xmlns:gpxtpx="http://www.garmin.com/xmlschemas/TrackPointExtension/v1">
            <gpxtpx:hr>129</gpxtpx:hr>
          </gpxtpx:TrackPointExtension>
        </extensions>
      </trkpt>
      <trkpt lat="46.77772" lon="-1.60677">
        <ele>29.8</ele>
        <time>2024-05-10T07:31:25Z</time>
        <extensions>
          <gpxtpx:TrackPointExtension xmlns:gpxtpx="http://www.garmin.com/xmlschemas/TrackPointExtension/v1">
            <gpxtpx:hr>129</gpxtpx:hr>
          </gpxtpx:TrackPointExtension>
        </extensions>
      </trkpt>
      <trkpt lat="46.77773" lon="-1.6068">
        <ele>29.8</ele>
        <time>2024-05-10T07:31:24Z</time>
        <extensions>
          <gpxtpx:TrackPointExtension xmlns:gpxtpx="http://www.garmin.com/xmlschemas/TrackPointExtension/v1">
            <gpxtpx:hr>130</gpxtpx:hr>
          </gpxtpx:TrackPointExtension>
        </extensions>
      </trkpt>
      <trkpt lat="46.77774" lon="-1.60684">
        <ele>29.6</ele>
        <time>2024-05-10T07:31:23Z</time>
        <extensions>
          <gpxtpx:TrackPointExtension xmlns:gpxtpx="http://www.garmin.com/xmlschemas/TrackPointExtension/v1">
            <gpxtpx:hr>130</gpxtpx:hr>
          </gpxtpx:TrackPointExtension>
        </extensions>
      </trkpt>
      <trkpt lat="46.77774" lon="-1.60687">
        <ele>29.4</ele>
        <time>2024-05-10T07:31:22Z</time>
        <extensions>
          <gpxtpx:TrackPointExtension xmlns:gpxtpx="http://www.garmin.com/xmlschemas/TrackPointExtension/v1">
            <gpxtpx:hr>130</gpxtpx:hr>
          </gpxtpx:TrackPointExtension>
        </extensions>
      </trkpt>
      <trkpt lat="46.77775" lon="-1.6069">
        <ele>29.4</ele>
        <time>2024-05-10T07:31:21Z</time>
        <extensions>
          <gpxtpx:TrackPointExtension xmlns:gpxtpx="http://www.garmin.com/xmlschemas/TrackPointExtension/v1">
            <gpxtpx:hr>131</gpxtpx:hr>
          </gpxtpx:TrackPointExtension>
        </extensions>
      </trkpt>
      <trkpt lat="46.77775" lon="-1.60693">
        <ele>29.2</ele>
        <time>2024-05-10T07:31:20Z</time>
        <extensions>
          <gpxtpx:TrackPointExtension xmlns:gpxtpx="http://www.garmin.com/xmlschemas/TrackPointExtension/v1">
            <gpxtpx:hr>131</gpxtpx:hr>
          </gpxtpx:TrackPointExtension>
        </extensions>
      </trkpt>
      <trkpt lat="46.77776" lon="-1.60696">
        <ele>29</ele>
        <time>2024-05-10T07:31:19Z</time>
        <extensions>
          <gpxtpx:TrackPointExtension xmlns:gpxtpx="http://www.garmin.com/xmlschemas/TrackPointExtension/v1">
            <gpxtpx:hr>131</gpxtpx:hr>
          </gpxtpx:TrackPointExtension>
        </extensions>
      </trkpt>
      <trkpt lat="46.77776" lon="-1.60699">
        <ele>28.8</ele>
        <time>2024-05-10T07:31:18Z</time>
        <extensions>
          <gpxtpx:TrackPointExtension xmlns:gpxtpx="http://www.garmin.com/xmlschemas/TrackPointExtension/v1">
            <gpxtpx:hr>131</gpxtpx:hr>
          </gpxtpx:TrackPointExtension>
        </extensions>
      </trkpt>
      <trkpt lat="46.77777" lon="-1.60703">
        <ele>28.6</ele>
        <time>2024-05-10T07:31:17Z</time>
        <extensions>
          <gpxtpx:TrackPointExtension xmlns:gpxtpx="http://www.garmin.com/xmlschemas/TrackPointExtension/v1">
            <gpxtpx:hr>130</gpxtpx:hr>
          </gpxtpx:TrackPointExtension>
        </extensions>
      </trkpt>
      <trkpt lat="46.77778" lon="-1.60706">
        <ele>28.4</ele>
        <time>2024-05-10T07:31:16Z</time>
        <extensions>
          <gpxtpx:TrackPointExtension xmlns:gpxtpx="http://www.garmin.com/xmlschemas/TrackPointExtension/v1">
            <gpxtpx:hr>130</gpxtpx:hr>
          </gpxtpx:TrackPointExtension>
        </extensions>
      </trkpt>
      <trkpt lat="46.77778" lon="-1.6071">
        <ele>28</ele>
        <time>2024-05-10T07:31:15Z</time>
        <extensions>
          <gpxtpx:TrackPointExtension xmlns:gpxtpx="http://www.garmin.com/xmlschemas/TrackPointExtension/v1">
            <gpxtpx:hr>129</gpxtpx:hr>
          </gpxtpx:TrackPointExtension>
        </extensions>
      </trkpt>
      <trkpt lat="46.77779" lon="-1.60714">
        <ele>27.8</ele>
        <time>2024-05-10T07:31:14Z</time>
        <extensions>
          <gpxtpx:TrackPointExtension xmlns:gpxtpx="http://www.garmin.com/xmlschemas/TrackPointExtension/v1">
            <gpxtpx:hr>129</gpxtpx:hr>
          </gpxtpx:TrackPointExtension>
        </extensions>
      </trkpt>
      <trkpt lat="46.7778" lon="-1.60717">
        <ele>27.6</ele>
        <time>2024-05-10T07:31:13Z</time>
        <extensions>
          <gpxtpx:TrackPointExtension xmlns:gpxtpx="http://www.garmin.com/xmlschemas/TrackPointExtension/v1">
            <gpxtpx:hr>128</gpxtpx:hr>
          </gpxtpx:TrackPointExtension>
        </extensions>
      </trkpt>
      <trkpt lat="46.77781" lon="-1.60721">
        <ele>27.4</ele>
        <time>2024-05-10T07:31:12Z</time>
        <extensions>
          <gpxtpx:TrackPointExtension xmlns:gpxtpx="http://www.garmin.com/xmlschemas/TrackPointExtension/v1">
            <gpxtpx:hr>128</gpxtpx:hr>
          </gpxtpx:TrackPointExtension>
        </extensions>
      </trkpt>
      <trkpt lat="46.77782" lon="-1.60725">
        <ele>27.2</ele>
        <time>2024-05-10T07:31:11Z</time>
        <extensions>
          <gpxtpx:TrackPointExtension xmlns:gpxtpx="http://www.garmin.com/xmlschemas/TrackPointExtension/v1">
            <gpxtpx:hr>127</gpxtpx:hr>
          </gpxtpx:TrackPointExtension>
        </extensions>
      </trkpt>
      <trkpt lat="46.77783" lon="-1.60729">
        <ele>27</ele>
        <time>2024-05-10T07:31:10Z</time>
        <extensions>
          <gpxtpx:TrackPointExtension xmlns:gpxtpx="http://www.garmin.com/xmlschemas/TrackPointExtension/v1">
            <gpxtpx:hr>127</gpxtpx:hr>
          </gpxtpx:TrackPointExtension>
        </extensions>
      </trkpt>
      <trkpt lat="46.77785" lon="-1.60732">
        <ele>26.8</ele>
        <time>2024-05-10T07:31:09Z</time>
        <extensions>
          <gpxtpx:TrackPointExtension xmlns:gpxtpx="http://www.garmin.com/xmlschemas/TrackPointExtension/v1">
            <gpxtpx:hr>126</gpxtpx:hr>
          </gpxtpx:TrackPointExtension>
        </extensions>
      </trkpt>
      <trkpt lat="46.77786" lon="-1.60736">
        <ele>26.6</ele>
        <time>2024-05-10T07:31:08Z</time>
        <extensions>
          <gpxtpx:TrackPointExtension xmlns:gpxtpx="http://www.garmin.com/xmlschemas/TrackPointExtension/v1">
            <gpxtpx:hr>126</gpxtpx:hr>
          </gpxtpx:TrackPointExtension>
        </extensions>
      </trkpt>
      <trkpt lat="46.77788" lon="-1.6074">
        <ele>26.4</ele>
        <time>2024-05-10T07:31:07Z</time>
        <extensions>
          <gpxtpx:TrackPointExtension xmlns:gpxtpx="http://www.garmin.com/xmlschemas/TrackPointExtension/v1">
            <gpxtpx:hr>126</gpxtpx:hr>
          </gpxtpx:TrackPointExtension>
        </extensions>
      </trkpt>
      <trkpt lat="46.7779" lon="-1.60745">
        <ele>26.2</ele>
        <time>2024-05-10T07:31:06Z</time>
        <extensions>
          <gpxtpx:TrackPointExtension xmlns:gpxtpx="http://www.garmin.com/xmlschemas/TrackPointExtension/v1">
            <gpxtpx:hr>125</gpxtpx:hr>
          </gpxtpx:TrackPointExtension>
        </extensions>
      </trkpt>
      <trkpt lat="46.77791" lon="-1.60749">
        <ele>26</ele>
        <time>2024-05-10T07:31:05Z</time>
        <extensions>
          <gpxtpx:TrackPointExtension xmlns:gpxtpx="http://www.garmin.com/xmlschemas/TrackPointExtension/v1">
            <gpxtpx:hr>125</gpxtpx:hr>
          </gpxtpx:TrackPointExtension>
        </extensions>
      </trkpt>
      <trkpt lat="46.77793" lon="-1.60753">
        <ele>25.8</ele>
        <time>2024-05-10T07:31:04Z</time>
        <extensions>
          <gpxtpx:TrackPointExtension xmlns:gpxtpx="http://www.garmin.com/xmlschemas/TrackPointExtension/v1">
            <gpxtpx:hr>125</gpxtpx:hr>
          </gpxtpx:TrackPointExtension>
        </extensions>
      </trkpt>
      <trkpt lat="46.77794" lon="-1.60757">
        <ele>25.6</ele>
        <time>2024-05-10T07:31:03Z</time>
        <extensions>
          <gpxtpx:TrackPointExtension xmlns:gpxtpx="http://www.garmin.com/xmlschemas/TrackPointExtension/v1">
            <gpxtpx:hr>125</gpxtpx:hr>
          </gpxtpx:TrackPointExtension>
        </extensions>
      </trkpt>
      <trkpt lat="46.77796" lon="-1.60761">
        <ele>25.4</ele>
        <time>2024-05-10T07:31:02Z</time>
        <extensions>
          <gpxtpx:TrackPointExtension xmlns:gpxtpx="http://www.garmin.com/xmlschemas/TrackPointExtension/v1">
            <gpxtpx:hr>126</gpxtpx:hr>
          </gpxtpx:TrackPointExtension>
        </extensions>
      </trkpt>
      <trkpt lat="46.77797" lon="-1.60765">
        <ele>25.4</ele>
        <time>2024-05-10T07:31:01Z</time>
        <extensions>
          <gpxtpx:TrackPointExtension xmlns:gpxtpx="http://www.garmin.com/xmlschemas/TrackPointExtension/v1">
            <gpxtpx:hr>127</gpxtpx:hr>
          </gpxtpx:TrackPointExtension>
        </extensions>
      </trkpt>
      <trkpt lat="46.77798" lon="-1.60769">
        <ele>25.2</ele>
        <time>2024-05-10T07:31:00Z</time>
        <extensions>
          <gpxtpx:TrackPointExtension xmlns:gpxtpx="http://www.garmin.com/xmlschemas/TrackPointExtension/v1">
            <gpxtpx:hr>128</gpxtpx:hr>
          </gpxtpx:TrackPointExtension>
        </extensions>
      </trkpt>
      <trkpt lat="46.778" lon="-1.60772">
        <ele>25</ele>
        <time>2024-05-10T07:30:59Z</time>
        <extensions>
          <gpxtpx:TrackPointExtension xmlns:gpxtpx="http://www.garmin.com/xmlschemas/TrackPointExtension/v1">
            <gpxtpx:hr>128</gpxtpx:hr>
          </gpxtpx:TrackPointExtension>
        </extensions>
      </trkpt>
      <trkpt lat="46.77801" lon="-1.60776">
        <ele>25</ele>
        <time>2024-05-10T07:30:58Z</time>
        <extensions>
          <gpxtpx:TrackPointExtension xmlns:gpxtpx="http://www.garmin.com/xmlschemas/TrackPointExtension/v1">
            <gpxtpx:hr>129</gpxtpx:hr>
          </gpxtpx:TrackPointExtension>
        </extensions>
      </trkpt>
      <trkpt lat="46.77802" lon="-1.6078">
        <ele>25</ele>
        <time>2024-05-10T07:30:57Z</time>
        <extensions>
          <gpxtpx:TrackPointExtension xmlns:gpxtpx="http://www.garmin.com/xmlschemas/TrackPointExtension/v1">
            <gpxtpx:hr>130</gpxtpx:hr>
          </gpxtpx:TrackPointExtension>
        </extensions>
      </trkpt>
      <trkpt lat="46.77802" lon="-1.60783">
        <ele>25</ele>
        <time>2024-05-10T07:30:56Z</time>
        <extensions>
          <gpxtpx:TrackPointExtension xmlns:gpxtpx="http://www.garmin.com/xmlschemas/TrackPointExtension/v1">
            <gpxtpx:hr>130</gpxtpx:hr>
          </gpxtpx:TrackPointExtension>
        </extensions>
      </trkpt>
      <trkpt lat="46.77803" lon="-1.60786">
        <ele>24.8</ele>
        <time>2024-05-10T07:30:55Z</time>
        <extensions>
          <gpxtpx:TrackPointExtension xmlns:gpxtpx="http://www.garmin.com/xmlschemas/TrackPointExtension/v1">
            <gpxtpx:hr>131</gpxtpx:hr>
          </gpxtpx:TrackPointExtension>
        </extensions>
      </trkpt>
      <trkpt lat="46.77803" lon="-1.60789">
        <ele>24.8</ele>
        <time>2024-05-10T07:30:54Z</time>
        <extensions>
          <gpxtpx:TrackPointExtension xmlns:gpxtpx="http://www.garmin.com/xmlschemas/TrackPointExtension/v1">
            <gpxtpx:hr>131</gpxtpx:hr>
          </gpxtpx:TrackPointExtension>
        </extensions>
      </trkpt>
      <trkpt lat="46.77803" lon="-1.60792">
        <ele>24.8</ele>
        <time>2024-05-10T07:30:53Z</time>
        <extensions>
          <gpxtpx:TrackPointExtension xmlns:gpxtpx="http://www.garmin.com/xmlschemas/TrackPointExtension/v1">
            <gpxtpx:hr>131</gpxtpx:hr>
          </gpxtpx:TrackPointExtension>
        </extensions>
      </trkpt>
      <trkpt lat="46.77803" lon="-1.60795">
        <ele>24.8</ele>
        <time>2024-05-10T07:30:52Z</time>
        <extensions>
          <gpxtpx:TrackPointExtension xmlns:gpxtpx="http://www.garmin.com/xmlschemas/TrackPointExtension/v1">
            <gpxtpx:hr>132</gpxtpx:hr>
          </gpxtpx:TrackPointExtension>
        </extensions>
      </trkpt>
      <trkpt lat="46.77803" lon="-1.60798">
        <ele>24.8</ele>
        <time>2024-05-10T07:30:51Z</time>
        <extensions>
          <gpxtpx:TrackPointExtension xmlns:gpxtpx="http://www.garmin.com/xmlschemas/TrackPointExtension/v1">
            <gpxtpx:hr>132</gpxtpx:hr>
          </gpxtpx:TrackPointExtension>
        </extensions>
      </trkpt>
      <trkpt lat="46.77802" lon="-1.60802">
        <ele>24.8</ele>
        <time>2024-05-10T07:30:50Z</time>
        <extensions>
          <gpxtpx:TrackPointExtension xmlns:gpxtpx="http://www.garmin.com/xmlschemas/TrackPointExtension/v1">
            <gpxtpx:hr>132</gpxtpx:hr>
          </gpxtpx:TrackPointExtension>
        </extensions>
      </trkpt>
      <trkpt lat="46.77801" lon="-1.60807">
        <ele>24.8</ele>
        <time>2024-05-10T07:30:49Z</time>
        <extensions>
          <gpxtpx:TrackPointExtension xmlns:gpxtpx="http://www.garmin.com/xmlschemas/TrackPointExtension/v1">
            <gpxtpx:hr>132</gpxtpx:hr>
          </gpxtpx:TrackPointExtension>
        </extensions>
      </trkpt>
      <trkpt lat="46.77799" lon="-1.60812">
        <ele>24.8</ele>
        <time>2024-05-10T07:30:48Z</time>
        <extensions>
          <gpxtpx:TrackPointExtension xmlns:gpxtpx="http://www.garmin.com/xmlschemas/TrackPointExtension/v1">
            <gpxtpx:hr>132</gpxtpx:hr>
          </gpxtpx:TrackPointExtension>
        </extensions>
      </trkpt>
      <trkpt lat="46.77798" lon="-1.60817">
        <ele>24.8</ele>
        <time>2024-05-10T07:30:47Z</time>
        <extensions>
          <gpxtpx:TrackPointExtension xmlns:gpxtpx="http://www.garmin.com/xmlschemas/TrackPointExtension/v1">
            <gpxtpx:hr>132</gpxtpx:hr>
          </gpxtpx:TrackPointExtension>
        </extensions>
      </trkpt>
      <trkpt lat="46.77796" lon="-1.60822">
        <ele>24.8</ele>
        <time>2024-05-10T07:30:46Z</time>
        <extensions>
          <gpxtpx:TrackPointExtension xmlns:gpxtpx="http://www.garmin.com/xmlschemas/TrackPointExtension/v1">
            <gpxtpx:hr>132</gpxtpx:hr>
          </gpxtpx:TrackPointExtension>
        </extensions>
      </trkpt>
      <trkpt lat="46.77794" lon="-1.60828">
        <ele>25</ele>
        <time>2024-05-10T07:30:45Z</time>
        <extensions>
          <gpxtpx:TrackPointExtension xmlns:gpxtpx="http://www.garmin.com/xmlschemas/TrackPointExtension/v1">
            <gpxtpx:hr>132</gpxtpx:hr>
          </gpxtpx:TrackPointExtension>
        </extensions>
      </trkpt>
      <trkpt lat="46.77792" lon="-1.60833">
        <ele>25</ele>
        <time>2024-05-10T07:30:44Z</time>
        <extensions>
          <gpxtpx:TrackPointExtension xmlns:gpxtpx="http://www.garmin.com/xmlschemas/TrackPointExtension/v1">
            <gpxtpx:hr>132</gpxtpx:hr>
          </gpxtpx:TrackPointExtension>
        </extensions>
      </trkpt>
      <trkpt lat="46.7779" lon="-1.60838">
        <ele>25</ele>
        <time>2024-05-10T07:30:43Z</time>
        <extensions>
          <gpxtpx:TrackPointExtension xmlns:gpxtpx="http://www.garmin.com/xmlschemas/TrackPointExtension/v1">
            <gpxtpx:hr>131</gpxtpx:hr>
          </gpxtpx:TrackPointExtension>
        </extensions>
      </trkpt>
      <trkpt lat="46.77789" lon="-1.60844">
        <ele>25.2</ele>
        <time>2024-05-10T07:30:42Z</time>
        <extensions>
          <gpxtpx:TrackPointExtension xmlns:gpxtpx="http://www.garmin.com/xmlschemas/TrackPointExtension/v1">
            <gpxtpx:hr>133</gpxtpx:hr>
          </gpxtpx:TrackPointExtension>
        </extensions>
      </trkpt>
      <trkpt lat="46.77788" lon="-1.60849">
        <ele>25.2</ele>
        <time>2024-05-10T07:30:41Z</time>
        <extensions>
          <gpxtpx:TrackPointExtension xmlns:gpxtpx="http://www.garmin.com/xmlschemas/TrackPointExtension/v1">
            <gpxtpx:hr>133</gpxtpx:hr>
          </gpxtpx:TrackPointExtension>
        </extensions>
      </trkpt>
      <trkpt lat="46.77787" lon="-1.60854">
        <ele>25.4</ele>
        <time>2024-05-10T07:30:40Z</time>
        <extensions>
          <gpxtpx:TrackPointExtension xmlns:gpxtpx="http://www.garmin.com/xmlschemas/TrackPointExtension/v1">
            <gpxtpx:hr>134</gpxtpx:hr>
          </gpxtpx:TrackPointExtension>
        </extensions>
      </trkpt>
      <trkpt lat="46.77788" lon="-1.60859">
        <ele>25.4</ele>
        <time>2024-05-10T07:30:39Z</time>
        <extensions>
          <gpxtpx:TrackPointExtension xmlns:gpxtpx="http://www.garmin.com/xmlschemas/TrackPointExtension/v1">
            <gpxtpx:hr>135</gpxtpx:hr>
          </gpxtpx:TrackPointExtension>
        </extensions>
      </trkpt>
      <trkpt lat="46.77789" lon="-1.60864">
        <ele>25.4</ele>
        <time>2024-05-10T07:30:38Z</time>
        <extensions>
          <gpxtpx:TrackPointExtension xmlns:gpxtpx="http://www.garmin.com/xmlschemas/TrackPointExtension/v1">
            <gpxtpx:hr>136</gpxtpx:hr>
          </gpxtpx:TrackPointExtension>
        </extensions>
      </trkpt>
      <trkpt lat="46.7779" lon="-1.60868">
        <ele>25.6</ele>
        <time>2024-05-10T07:30:37Z</time>
        <extensions>
          <gpxtpx:TrackPointExtension xmlns:gpxtpx="http://www.garmin.com/xmlschemas/TrackPointExtension/v1">
            <gpxtpx:hr>137</gpxtpx:hr>
          </gpxtpx:TrackPointExtension>
        </extensions>
      </trkpt>
      <trkpt lat="46.77792" lon="-1.60873">
        <ele>25.6</ele>
        <time>2024-05-10T07:30:36Z</time>
        <extensions>
          <gpxtpx:TrackPointExtension xmlns:gpxtpx="http://www.garmin.com/xmlschemas/TrackPointExtension/v1">
            <gpxtpx:hr>137</gpxtpx:hr>
          </gpxtpx:TrackPointExtension>
        </extensions>
      </trkpt>
      <trkpt lat="46.77794" lon="-1.60879">
        <ele>25.8</ele>
        <time>2024-05-10T07:30:35Z</time>
        <extensions>
          <gpxtpx:TrackPointExtension xmlns:gpxtpx="http://www.garmin.com/xmlschemas/TrackPointExtension/v1">
            <gpxtpx:hr>137</gpxtpx:hr>
          </gpxtpx:TrackPointExtension>
        </extensions>
      </trkpt>
      <trkpt lat="46.77795" lon="-1.60882">
        <ele>26</ele>
        <time>2024-05-10T07:30:34Z</time>
        <extensions>
          <gpxtpx:TrackPointExtension xmlns:gpxtpx="http://www.garmin.com/xmlschemas/TrackPointExtension/v1">
            <gpxtpx:hr>138</gpxtpx:hr>
          </gpxtpx:TrackPointExtension>
        </extensions>
      </trkpt>
      <trkpt lat="46.77796" lon="-1.60884">
        <ele>26</ele>
        <time>2024-05-10T07:30:33Z</time>
        <extensions>
          <gpxtpx:TrackPointExtension xmlns:gpxtpx="http://www.garmin.com/xmlschemas/TrackPointExtension/v1">
            <gpxtpx:hr>139</gpxtpx:hr>
          </gpxtpx:TrackPointExtension>
        </extensions>
      </trkpt>
      <trkpt lat="46.77797" lon="-1.6089">
        <ele>26.2</ele>
        <time>2024-05-10T07:30:32Z</time>
        <extensions>
          <gpxtpx:TrackPointExtension xmlns:gpxtpx="http://www.garmin.com/xmlschemas/TrackPointExtension/v1">
            <gpxtpx:hr>139</gpxtpx:hr>
          </gpxtpx:TrackPointExtension>
        </extensions>
      </trkpt>
      <trkpt lat="46.77799" lon="-1.60895">
        <ele>26.4</ele>
        <time>2024-05-10T07:30:31Z</time>
        <extensions>
          <gpxtpx:TrackPointExtension xmlns:gpxtpx="http://www.garmin.com/xmlschemas/TrackPointExtension/v1">
            <gpxtpx:hr>139</gpxtpx:hr>
          </gpxtpx:TrackPointExtension>
        </extensions>
      </trkpt>
      <trkpt lat="46.778" lon="-1.60901">
        <ele>26.6</ele>
        <time>2024-05-10T07:30:30Z</time>
        <extensions>
          <gpxtpx:TrackPointExtension xmlns:gpxtpx="http://www.garmin.com/xmlschemas/TrackPointExtension/v1">
            <gpxtpx:hr>139</gpxtpx:hr>
          </gpxtpx:TrackPointExtension>
        </extensions>
      </trkpt>
      <trkpt lat="46.77801" lon="-1.60906">
        <ele>26.8</ele>
        <time>2024-05-10T07:30:29Z</time>
        <extensions>
          <gpxtpx:TrackPointExtension xmlns:gpxtpx="http://www.garmin.com/xmlschemas/TrackPointExtension/v1">
            <gpxtpx:hr>139</gpxtpx:hr>
          </gpxtpx:TrackPointExtension>
        </extensions>
      </trkpt>
      <trkpt lat="46.77802" lon="-1.60912">
        <ele>27.2</ele>
        <time>2024-05-10T07:30:28Z</time>
        <extensions>
          <gpxtpx:TrackPointExtension xmlns:gpxtpx="http://www.garmin.com/xmlschemas/TrackPointExtension/v1">
            <gpxtpx:hr>140</gpxtpx:hr>
          </gpxtpx:TrackPointExtension>
        </extensions>
      </trkpt>
      <trkpt lat="46.77803" lon="-1.60916">
        <ele>27.6</ele>
        <time>2024-05-10T07:30:27Z</time>
        <extensions>
          <gpxtpx:TrackPointExtension xmlns:gpxtpx="http://www.garmin.com/xmlschemas/TrackPointExtension/v1">
            <gpxtpx:hr>140</gpxtpx:hr>
          </gpxtpx:TrackPointExtension>
        </extensions>
      </trkpt>
      <trkpt lat="46.77803" lon="-1.60919">
        <ele>27.8</ele>
        <time>2024-05-10T07:30:26Z</time>
        <extensions>
          <gpxtpx:TrackPointExtension xmlns:gpxtpx="http://www.garmin.com/xmlschemas/TrackPointExtension/v1">
            <gpxtpx:hr>140</gpxtpx:hr>
          </gpxtpx:TrackPointExtension>
        </extensions>
      </trkpt>
      <trkpt lat="46.77802" lon="-1.60921">
        <ele>28</ele>
        <time>2024-05-10T07:30:25Z</time>
        <extensions>
          <gpxtpx:TrackPointExtension xmlns:gpxtpx="http://www.garmin.com/xmlschemas/TrackPointExtension/v1">
            <gpxtpx:hr>140</gpxtpx:hr>
          </gpxtpx:TrackPointExtension>
        </extensions>
      </trkpt>
      <trkpt lat="46.77801" lon="-1.60923">
        <ele>28</ele>
        <time>2024-05-10T07:30:24Z</time>
        <extensions>
          <gpxtpx:TrackPointExtension xmlns:gpxtpx="http://www.garmin.com/xmlschemas/TrackPointExtension/v1">
            <gpxtpx:hr>140</gpxtpx:hr>
          </gpxtpx:TrackPointExtension>
        </extensions>
      </trkpt>
      <trkpt lat="46.77799" lon="-1.60924">
        <ele>28</ele>
        <time>2024-05-10T07:30:22Z</time>
        <extensions>
          <gpxtpx:TrackPointExtension xmlns:gpxtpx="http://www.garmin.com/xmlschemas/TrackPointExtension/v1">
            <gpxtpx:hr>140</gpxtpx:hr>
          </gpxtpx:TrackPointExtension>
        </extensions>
      </trkpt>
      <trkpt lat="46.77797" lon="-1.60926">
        <ele>28</ele>
        <time>2024-05-10T07:30:21Z</time>
        <extensions>
          <gpxtpx:TrackPointExtension xmlns:gpxtpx="http://www.garmin.com/xmlschemas/TrackPointExtension/v1">
            <gpxtpx:hr>140</gpxtpx:hr>
          </gpxtpx:TrackPointExtension>
        </extensions>
      </trkpt>
      <trkpt lat="46.77794" lon="-1.60928">
        <ele>28.2</ele>
        <time>2024-05-10T07:30:20Z</time>
        <extensions>
          <gpxtpx:TrackPointExtension xmlns:gpxtpx="http://www.garmin.com/xmlschemas/TrackPointExtension/v1">
            <gpxtpx:hr>140</gpxtpx:hr>
          </gpxtpx:TrackPointExtension>
        </extensions>
      </trkpt>
      <trkpt lat="46.77792" lon="-1.6093">
        <ele>28.2</ele>
        <time>2024-05-10T07:30:19Z</time>
        <extensions>
          <gpxtpx:TrackPointExtension xmlns:gpxtpx="http://www.garmin.com/xmlschemas/TrackPointExtension/v1">
            <gpxtpx:hr>140</gpxtpx:hr>
          </gpxtpx:TrackPointExtension>
        </extensions>
      </trkpt>
      <trkpt lat="46.77789" lon="-1.60933">
        <ele>28.2</ele>
        <time>2024-05-10T07:30:18Z</time>
        <extensions>
          <gpxtpx:TrackPointExtension xmlns:gpxtpx="http://www.garmin.com/xmlschemas/TrackPointExtension/v1">
            <gpxtpx:hr>140</gpxtpx:hr>
          </gpxtpx:TrackPointExtension>
        </extensions>
      </trkpt>
      <trkpt lat="46.77787" lon="-1.60935">
        <ele>28.2</ele>
        <time>2024-05-10T07:30:17Z</time>
        <extensions>
          <gpxtpx:TrackPointExtension xmlns:gpxtpx="http://www.garmin.com/xmlschemas/TrackPointExtension/v1">
            <gpxtpx:hr>140</gpxtpx:hr>
          </gpxtpx:TrackPointExtension>
        </extensions>
      </trkpt>
      <trkpt lat="46.77785" lon="-1.60938">
        <ele>28.2</ele>
        <time>2024-05-10T07:30:16Z</time>
        <extensions>
          <gpxtpx:TrackPointExtension xmlns:gpxtpx="http://www.garmin.com/xmlschemas/TrackPointExtension/v1">
            <gpxtpx:hr>140</gpxtpx:hr>
          </gpxtpx:TrackPointExtension>
        </extensions>
      </trkpt>
      <trkpt lat="46.77783" lon="-1.60942">
        <ele>28</ele>
        <time>2024-05-10T07:30:15Z</time>
        <extensions>
          <gpxtpx:TrackPointExtension xmlns:gpxtpx="http://www.garmin.com/xmlschemas/TrackPointExtension/v1">
            <gpxtpx:hr>141</gpxtpx:hr>
          </gpxtpx:TrackPointExtension>
        </extensions>
      </trkpt>
      <trkpt lat="46.77782" lon="-1.60945">
        <ele>28</ele>
        <time>2024-05-10T07:30:14Z</time>
        <extensions>
          <gpxtpx:TrackPointExtension xmlns:gpxtpx="http://www.garmin.com/xmlschemas/TrackPointExtension/v1">
            <gpxtpx:hr>141</gpxtpx:hr>
          </gpxtpx:TrackPointExtension>
        </extensions>
      </trkpt>
      <trkpt lat="46.77782" lon="-1.60948">
        <ele>28</ele>
        <time>2024-05-10T07:30:13Z</time>
        <extensions>
          <gpxtpx:TrackPointExtension xmlns:gpxtpx="http://www.garmin.com/xmlschemas/TrackPointExtension/v1">
            <gpxtpx:hr>141</gpxtpx:hr>
          </gpxtpx:TrackPointExtension>
        </extensions>
      </trkpt>
      <trkpt lat="46.77783" lon="-1.60952">
        <ele>27.8</ele>
        <time>2024-05-10T07:30:12Z</time>
        <extensions>
          <gpxtpx:TrackPointExtension xmlns:gpxtpx="http://www.garmin.com/xmlschemas/TrackPointExtension/v1">
            <gpxtpx:hr>140</gpxtpx:hr>
          </gpxtpx:TrackPointExtension>
        </extensions>
      </trkpt>
      <trkpt lat="46.77784" lon="-1.60955">
        <ele>27.6</ele>
        <time>2024-05-10T07:30:11Z</time>
        <extensions>
          <gpxtpx:TrackPointExtension xmlns:gpxtpx="http://www.garmin.com/xmlschemas/TrackPointExtension/v1">
            <gpxtpx:hr>140</gpxtpx:hr>
          </gpxtpx:TrackPointExtension>
        </extensions>
      </trkpt>
      <trkpt lat="46.77785" lon="-1.60957">
        <ele>27.4</ele>
        <time>2024-05-10T07:30:10Z</time>
        <extensions>
          <gpxtpx:TrackPointExtension xmlns:gpxtpx="http://www.garmin.com/xmlschemas/TrackPointExtension/v1">
            <gpxtpx:hr>140</gpxtpx:hr>
          </gpxtpx:TrackPointExtension>
        </extensions>
      </trkpt>
      <trkpt lat="46.77786" lon="-1.60959">
        <ele>27.2</ele>
        <time>2024-05-10T07:30:09Z</time>
        <extensions>
          <gpxtpx:TrackPointExtension xmlns:gpxtpx="http://www.garmin.com/xmlschemas/TrackPointExtension/v1">
            <gpxtpx:hr>138</gpxtpx:hr>
          </gpxtpx:TrackPointExtension>
        </extensions>
      </trkpt>
      <trkpt lat="46.77788" lon="-1.6096">
        <ele>27</ele>
        <time>2024-05-10T07:30:08Z</time>
        <extensions>
          <gpxtpx:TrackPointExtension xmlns:gpxtpx="http://www.garmin.com/xmlschemas/TrackPointExtension/v1">
            <gpxtpx:hr>138</gpxtpx:hr>
          </gpxtpx:TrackPointExtension>
        </extensions>
      </trkpt>
      <trkpt lat="46.7779" lon="-1.60959">
        <ele>27</ele>
        <time>2024-05-10T07:30:07Z</time>
        <extensions>
          <gpxtpx:TrackPointExtension xmlns:gpxtpx="http://www.garmin.com/xmlschemas/TrackPointExtension/v1">
            <gpxtpx:hr>137</gpxtpx:hr>
          </gpxtpx:TrackPointExtension>
        </extensions>
      </trkpt>
      <trkpt lat="46.77791" lon="-1.60959">
        <ele>26.8</ele>
        <time>2024-05-10T07:30:06Z</time>
        <extensions>
          <gpxtpx:TrackPointExtension xmlns:gpxtpx="http://www.garmin.com/xmlschemas/TrackPointExtension/v1">
            <gpxtpx:hr>137</gpxtpx:hr>
          </gpxtpx:TrackPointExtension>
        </extensions>
      </trkpt>
      <trkpt lat="46.77793" lon="-1.60958">
        <ele>26.8</ele>
        <time>2024-05-10T07:30:05Z</time>
        <extensions>
          <gpxtpx:TrackPointExtension xmlns:gpxtpx="http://www.garmin.com/xmlschemas/TrackPointExtension/v1">
            <gpxtpx:hr>136</gpxtpx:hr>
          </gpxtpx:TrackPointExtension>
        </extensions>
      </trkpt>
      <trkpt lat="46.77794" lon="-1.60957">
        <ele>26.6</ele>
        <time>2024-05-10T07:30:04Z</time>
        <extensions>
          <gpxtpx:TrackPointExtension xmlns:gpxtpx="http://www.garmin.com/xmlschemas/TrackPointExtension/v1">
            <gpxtpx:hr>136</gpxtpx:hr>
          </gpxtpx:TrackPointExtension>
        </extensions>
      </trkpt>
      <trkpt lat="46.77796" lon="-1.60956">
        <ele>26.6</ele>
        <time>2024-05-10T07:30:03Z</time>
        <extensions>
          <gpxtpx:TrackPointExtension xmlns:gpxtpx="http://www.garmin.com/xmlschemas/TrackPointExtension/v1">
            <gpxtpx:hr>132</gpxtpx:hr>
          </gpxtpx:TrackPointExtension>
        </extensions>
      </trkpt>
      <trkpt lat="46.77798" lon="-1.60956">
        <ele>26.4</ele>
        <time>2024-05-10T07:30:02Z</time>
        <extensions>
          <gpxtpx:TrackPointExtension xmlns:gpxtpx="http://www.garmin.com/xmlschemas/TrackPointExtension/v1">
            <gpxtpx:hr>132</gpxtpx:hr>
          </gpxtpx:TrackPointExtension>
        </extensions>
      </trkpt>
      <trkpt lat="46.778" lon="-1.60958">
        <ele>26.2</ele>
        <time>2024-05-10T07:30:01Z</time>
        <extensions>
          <gpxtpx:TrackPointExtension xmlns:gpxtpx="http://www.garmin.com/xmlschemas/TrackPointExtension/v1">
            <gpxtpx:hr>131</gpxtpx:hr>
          </gpxtpx:TrackPointExtension>
        </extensions>
      </trkpt>
      <trkpt lat="46.77803" lon="-1.6096">
        <ele>25.8</ele>
        <time>2024-05-10T07:30:00Z</time>
        <extensions>
          <gpxtpx:TrackPointExtension xmlns:gpxtpx="http://www.garmin.com/xmlschemas/TrackPointExtension/v1">
            <gpxtpx:hr>130</gpxtpx:hr>
          </gpxtpx:TrackPointExtension>
        </extensions>
      </trkpt>
      <trkpt lat="46.77805" lon="-1.60962">
        <ele>25.4</ele>
        <time>2024-05-10T07:29:59Z</time>
        <extensions>
          <gpxtpx:TrackPointExtension xmlns:gpxtpx="http://www.garmin.com/xmlschemas/TrackPointExtension/v1">
            <gpxtpx:hr>129</gpxtpx:hr>
          </gpxtpx:TrackPointExtension>
        </extensions>
      </trkpt>
      <trkpt lat="46.77805" lon="-1.60963">
        <ele>25.2</ele>
        <time>2024-05-10T07:29:58Z</time>
        <extensions>
          <gpxtpx:TrackPointExtension xmlns:gpxtpx="http://www.garmin.com/xmlschemas/TrackPointExtension/v1">
            <gpxtpx:hr>129</gpxtpx:hr>
          </gpxtpx:TrackPointExtension>
        </extensions>
      </trkpt>
      <trkpt lat="46.77807" lon="-1.60967">
        <ele>25</ele>
        <time>2024-05-10T07:29:57Z</time>
        <extensions>
          <gpxtpx:TrackPointExtension xmlns:gpxtpx="http://www.garmin.com/xmlschemas/TrackPointExtension/v1">
            <gpxtpx:hr>128</gpxtpx:hr>
          </gpxtpx:TrackPointExtension>
        </extensions>
      </trkpt>
      <trkpt lat="46.77806" lon="-1.6097">
        <ele>24.6</ele>
        <time>2024-05-10T07:29:56Z</time>
        <extensions>
          <gpxtpx:TrackPointExtension xmlns:gpxtpx="http://www.garmin.com/xmlschemas/TrackPointExtension/v1">
            <gpxtpx:hr>127</gpxtpx:hr>
          </gpxtpx:TrackPointExtension>
        </extensions>
      </trkpt>
      <trkpt lat="46.77805" lon="-1.60972">
        <ele>24.4</ele>
        <time>2024-05-10T07:29:55Z</time>
        <extensions>
          <gpxtpx:TrackPointExtension xmlns:gpxtpx="http://www.garmin.com/xmlschemas/TrackPointExtension/v1">
            <gpxtpx:hr>127</gpxtpx:hr>
          </gpxtpx:TrackPointExtension>
        </extensions>
      </trkpt>
      <trkpt lat="46.77802" lon="-1.60977">
        <ele>24.4</ele>
        <time>2024-05-10T07:29:54Z</time>
        <extensions>
          <gpxtpx:TrackPointExtension xmlns:gpxtpx="http://www.garmin.com/xmlschemas/TrackPointExtension/v1">
            <gpxtpx:hr>127</gpxtpx:hr>
          </gpxtpx:TrackPointExtension>
        </extensions>
      </trkpt>
      <trkpt lat="46.77801" lon="-1.60981">
        <ele>24.4</ele>
        <time>2024-05-10T07:29:53Z</time>
        <extensions>
          <gpxtpx:TrackPointExtension xmlns:gpxtpx="http://www.garmin.com/xmlschemas/TrackPointExtension/v1">
            <gpxtpx:hr>127</gpxtpx:hr>
          </gpxtpx:TrackPointExtension>
        </extensions>
      </trkpt>
      <trkpt lat="46.77799" lon="-1.60985">
        <ele>24.2</ele>
        <time>2024-05-10T07:29:52Z</time>
        <extensions>
          <gpxtpx:TrackPointExtension xmlns:gpxtpx="http://www.garmin.com/xmlschemas/TrackPointExtension/v1">
            <gpxtpx:hr>127</gpxtpx:hr>
          </gpxtpx:TrackPointExtension>
        </extensions>
      </trkpt>
      <trkpt lat="46.77797" lon="-1.6099">
        <ele>24.2</ele>
        <time>2024-05-10T07:29:51Z</time>
        <extensions>
          <gpxtpx:TrackPointExtension xmlns:gpxtpx="http://www.garmin.com/xmlschemas/TrackPointExtension/v1">
            <gpxtpx:hr>128</gpxtpx:hr>
          </gpxtpx:TrackPointExtension>
        </extensions>
      </trkpt>
      <trkpt lat="46.77795" lon="-1.60995">
        <ele>24</ele>
        <time>2024-05-10T07:29:50Z</time>
        <extensions>
          <gpxtpx:TrackPointExtension xmlns:gpxtpx="http://www.garmin.com/xmlschemas/TrackPointExtension/v1">
            <gpxtpx:hr>128</gpxtpx:hr>
          </gpxtpx:TrackPointExtension>
        </extensions>
      </trkpt>
      <trkpt lat="46.77793" lon="-1.61001">
        <ele>24</ele>
        <time>2024-05-10T07:29:49Z</time>
        <extensions>
          <gpxtpx:TrackPointExtension xmlns:gpxtpx="http://www.garmin.com/xmlschemas/TrackPointExtension/v1">
            <gpxtpx:hr>128</gpxtpx:hr>
          </gpxtpx:TrackPointExtension>
        </extensions>
      </trkpt>
      <trkpt lat="46.77791" lon="-1.61006">
        <ele>23.8</ele>
        <time>2024-05-10T07:29:48Z</time>
        <extensions>
          <gpxtpx:TrackPointExtension xmlns:gpxtpx="http://www.garmin.com/xmlschemas/TrackPointExtension/v1">
            <gpxtpx:hr>129</gpxtpx:hr>
          </gpxtpx:TrackPointExtension>
        </extensions>
      </trkpt>
      <trkpt lat="46.77789" lon="-1.61011">
        <ele>23.8</ele>
        <time>2024-05-10T07:29:47Z</time>
        <extensions>
          <gpxtpx:TrackPointExtension xmlns:gpxtpx="http://www.garmin.com/xmlschemas/TrackPointExtension/v1">
            <gpxtpx:hr>128</gpxtpx:hr>
          </gpxtpx:TrackPointExtension>
        </extensions>
      </trkpt>
      <trkpt lat="46.77786" lon="-1.61016">
        <ele>23.8</ele>
        <time>2024-05-10T07:29:46Z</time>
        <extensions>
          <gpxtpx:TrackPointExtension xmlns:gpxtpx="http://www.garmin.com/xmlschemas/TrackPointExtension/v1">
            <gpxtpx:hr>129</gpxtpx:hr>
          </gpxtpx:TrackPointExtension>
        </extensions>
      </trkpt>
      <trkpt lat="46.77782" lon="-1.61019">
        <ele>23.8</ele>
        <time>2024-05-10T07:29:45Z</time>
        <extensions>
          <gpxtpx:TrackPointExtension xmlns:gpxtpx="http://www.garmin.com/xmlschemas/TrackPointExtension/v1">
            <gpxtpx:hr>129</gpxtpx:hr>
          </gpxtpx:TrackPointExtension>
        </extensions>
      </trkpt>
      <trkpt lat="46.77779" lon="-1.61022">
        <ele>24</ele>
        <time>2024-05-10T07:29:44Z</time>
        <extensions>
          <gpxtpx:TrackPointExtension xmlns:gpxtpx="http://www.garmin.com/xmlschemas/TrackPointExtension/v1">
            <gpxtpx:hr>129</gpxtpx:hr>
          </gpxtpx:TrackPointExtension>
        </extensions>
      </trkpt>
      <trkpt lat="46.77776" lon="-1.61023">
        <ele>24</ele>
        <time>2024-05-10T07:29:43Z</time>
        <extensions>
          <gpxtpx:TrackPointExtension xmlns:gpxtpx="http://www.garmin.com/xmlschemas/TrackPointExtension/v1">
            <gpxtpx:hr>130</gpxtpx:hr>
          </gpxtpx:TrackPointExtension>
        </extensions>
      </trkpt>
      <trkpt lat="46.77774" lon="-1.61024">
        <ele>24.2</ele>
        <time>2024-05-10T07:29:42Z</time>
        <extensions>
          <gpxtpx:TrackPointExtension xmlns:gpxtpx="http://www.garmin.com/xmlschemas/TrackPointExtension/v1">
            <gpxtpx:hr>131</gpxtpx:hr>
          </gpxtpx:TrackPointExtension>
        </extensions>
      </trkpt>
      <trkpt lat="46.7777" lon="-1.61024">
        <ele>24.4</ele>
        <time>2024-05-10T07:29:41Z</time>
        <extensions>
          <gpxtpx:TrackPointExtension xmlns:gpxtpx="http://www.garmin.com/xmlschemas/TrackPointExtension/v1">
            <gpxtpx:hr>132</gpxtpx:hr>
          </gpxtpx:TrackPointExtension>
        </extensions>
      </trkpt>
      <trkpt lat="46.77768" lon="-1.61023">
        <ele>24.4</ele>
        <time>2024-05-10T07:29:40Z</time>
        <extensions>
          <gpxtpx:TrackPointExtension xmlns:gpxtpx="http://www.garmin.com/xmlschemas/TrackPointExtension/v1">
            <gpxtpx:hr>132</gpxtpx:hr>
          </gpxtpx:TrackPointExtension>
        </extensions>
      </trkpt>
      <trkpt lat="46.77766" lon="-1.61023">
        <ele>24.6</ele>
        <time>2024-05-10T07:29:39Z</time>
        <extensions>
          <gpxtpx:TrackPointExtension xmlns:gpxtpx="http://www.garmin.com/xmlschemas/TrackPointExtension/v1">
            <gpxtpx:hr>132</gpxtpx:hr>
          </gpxtpx:TrackPointExtension>
        </extensions>
      </trkpt>
      <trkpt lat="46.77764" lon="-1.61022">
        <ele>24.8</ele>
        <time>2024-05-10T07:29:38Z</time>
        <extensions>
          <gpxtpx:TrackPointExtension xmlns:gpxtpx="http://www.garmin.com/xmlschemas/TrackPointExtension/v1">
            <gpxtpx:hr>132</gpxtpx:hr>
          </gpxtpx:TrackPointExtension>
        </extensions>
      </trkpt>
      <trkpt lat="46.77762" lon="-1.61021">
        <ele>25</ele>
        <time>2024-05-10T07:29:37Z</time>
        <extensions>
          <gpxtpx:TrackPointExtension xmlns:gpxtpx="http://www.garmin.com/xmlschemas/TrackPointExtension/v1">
            <gpxtpx:hr>132</gpxtpx:hr>
          </gpxtpx:TrackPointExtension>
        </extensions>
      </trkpt>
      <trkpt lat="46.77759" lon="-1.61019">
        <ele>25.4</ele>
        <time>2024-05-10T07:29:36Z</time>
        <extensions>
          <gpxtpx:TrackPointExtension xmlns:gpxtpx="http://www.garmin.com/xmlschemas/TrackPointExtension/v1">
            <gpxtpx:hr>134</gpxtpx:hr>
          </gpxtpx:TrackPointExtension>
        </extensions>
      </trkpt>
      <trkpt lat="46.77757" lon="-1.61018">
        <ele>25.8</ele>
        <time>2024-05-10T07:29:35Z</time>
        <extensions>
          <gpxtpx:TrackPointExtension xmlns:gpxtpx="http://www.garmin.com/xmlschemas/TrackPointExtension/v1">
            <gpxtpx:hr>134</gpxtpx:hr>
          </gpxtpx:TrackPointExtension>
        </extensions>
      </trkpt>
      <trkpt lat="46.77756" lon="-1.61016">
        <ele>26</ele>
        <time>2024-05-10T07:29:34Z</time>
        <extensions>
          <gpxtpx:TrackPointExtension xmlns:gpxtpx="http://www.garmin.com/xmlschemas/TrackPointExtension/v1">
            <gpxtpx:hr>135</gpxtpx:hr>
          </gpxtpx:TrackPointExtension>
        </extensions>
      </trkpt>
      <trkpt lat="46.77754" lon="-1.61014">
        <ele>26.2</ele>
        <time>2024-05-10T07:29:33Z</time>
        <extensions>
          <gpxtpx:TrackPointExtension xmlns:gpxtpx="http://www.garmin.com/xmlschemas/TrackPointExtension/v1">
            <gpxtpx:hr>135</gpxtpx:hr>
          </gpxtpx:TrackPointExtension>
        </extensions>
      </trkpt>
      <trkpt lat="46.77752" lon="-1.61011">
        <ele>26.6</ele>
        <time>2024-05-10T07:29:32Z</time>
        <extensions>
          <gpxtpx:TrackPointExtension xmlns:gpxtpx="http://www.garmin.com/xmlschemas/TrackPointExtension/v1">
            <gpxtpx:hr>135</gpxtpx:hr>
          </gpxtpx:TrackPointExtension>
        </extensions>
      </trkpt>
      <trkpt lat="46.77749" lon="-1.61009">
        <ele>26.8</ele>
        <time>2024-05-10T07:29:31Z</time>
        <extensions>
          <gpxtpx:TrackPointExtension xmlns:gpxtpx="http://www.garmin.com/xmlschemas/TrackPointExtension/v1">
            <gpxtpx:hr>135</gpxtpx:hr>
          </gpxtpx:TrackPointExtension>
        </extensions>
      </trkpt>
      <trkpt lat="46.77747" lon="-1.61009">
        <ele>27</ele>
        <time>2024-05-10T07:29:30Z</time>
        <extensions>
          <gpxtpx:TrackPointExtension xmlns:gpxtpx="http://www.garmin.com/xmlschemas/TrackPointExtension/v1">
            <gpxtpx:hr>135</gpxtpx:hr>
          </gpxtpx:TrackPointExtension>
        </extensions>
      </trkpt>
      <trkpt lat="46.77744" lon="-1.61009">
        <ele>27.2</ele>
        <time>2024-05-10T07:29:29Z</time>
        <extensions>
          <gpxtpx:TrackPointExtension xmlns:gpxtpx="http://www.garmin.com/xmlschemas/TrackPointExtension/v1">
            <gpxtpx:hr>136</gpxtpx:hr>
          </gpxtpx:TrackPointExtension>
        </extensions>
      </trkpt>
      <trkpt lat="46.77742" lon="-1.61011">
        <ele>27.4</ele>
        <time>2024-05-10T07:29:28Z</time>
        <extensions>
          <gpxtpx:TrackPointExtension xmlns:gpxtpx="http://www.garmin.com/xmlschemas/TrackPointExtension/v1">
            <gpxtpx:hr>136</gpxtpx:hr>
          </gpxtpx:TrackPointExtension>
        </extensions>
      </trkpt>
      <trkpt lat="46.77739" lon="-1.61013">
        <ele>27.4</ele>
        <time>2024-05-10T07:29:27Z</time>
        <extensions>
          <gpxtpx:TrackPointExtension xmlns:gpxtpx="http://www.garmin.com/xmlschemas/TrackPointExtension/v1">
            <gpxtpx:hr>137</gpxtpx:hr>
          </gpxtpx:TrackPointExtension>
        </extensions>
      </trkpt>
      <trkpt lat="46.77737" lon="-1.61016">
        <ele>27.6</ele>
        <time>2024-05-10T07:29:26Z</time>
        <extensions>
          <gpxtpx:TrackPointExtension xmlns:gpxtpx="http://www.garmin.com/xmlschemas/TrackPointExtension/v1">
            <gpxtpx:hr>137</gpxtpx:hr>
          </gpxtpx:TrackPointExtension>
        </extensions>
      </trkpt>
      <trkpt lat="46.77735" lon="-1.61019">
        <ele>27.6</ele>
        <time>2024-05-10T07:29:25Z</time>
        <extensions>
          <gpxtpx:TrackPointExtension xmlns:gpxtpx="http://www.garmin.com/xmlschemas/TrackPointExtension/v1">
            <gpxtpx:hr>139</gpxtpx:hr>
          </gpxtpx:TrackPointExtension>
        </extensions>
      </trkpt>
      <trkpt lat="46.77734" lon="-1.61022">
        <ele>27.8</ele>
        <time>2024-05-10T07:29:24Z</time>
        <extensions>
          <gpxtpx:TrackPointExtension xmlns:gpxtpx="http://www.garmin.com/xmlschemas/TrackPointExtension/v1">
            <gpxtpx:hr>139</gpxtpx:hr>
          </gpxtpx:TrackPointExtension>
        </extensions>
      </trkpt>
      <trkpt lat="46.77733" lon="-1.61024">
        <ele>28</ele>
        <time>2024-05-10T07:29:23Z</time>
        <extensions>
          <gpxtpx:TrackPointExtension xmlns:gpxtpx="http://www.garmin.com/xmlschemas/TrackPointExtension/v1">
            <gpxtpx:hr>139</gpxtpx:hr>
          </gpxtpx:TrackPointExtension>
        </extensions>
      </trkpt>
      <trkpt lat="46.77732" lon="-1.61025">
        <ele>28.2</ele>
        <time>2024-05-10T07:29:22Z</time>
        <extensions>
          <gpxtpx:TrackPointExtension xmlns:gpxtpx="http://www.garmin.com/xmlschemas/TrackPointExtension/v1">
            <gpxtpx:hr>139</gpxtpx:hr>
          </gpxtpx:TrackPointExtension>
        </extensions>
      </trkpt>
      <trkpt lat="46.77731" lon="-1.61025">
        <ele>28.4</ele>
        <time>2024-05-10T07:29:21Z</time>
        <extensions>
          <gpxtpx:TrackPointExtension xmlns:gpxtpx="http://www.garmin.com/xmlschemas/TrackPointExtension/v1">
            <gpxtpx:hr>138</gpxtpx:hr>
          </gpxtpx:TrackPointExtension>
        </extensions>
      </trkpt>
      <trkpt lat="46.7773" lon="-1.61024">
        <ele>28.6</ele>
        <time>2024-05-10T07:29:20Z</time>
        <extensions>
          <gpxtpx:TrackPointExtension xmlns:gpxtpx="http://www.garmin.com/xmlschemas/TrackPointExtension/v1">
            <gpxtpx:hr>137</gpxtpx:hr>
          </gpxtpx:TrackPointExtension>
        </extensions>
      </trkpt>
      <trkpt lat="46.77729" lon="-1.61022">
        <ele>28.8</ele>
        <time>2024-05-10T07:29:19Z</time>
        <extensions>
          <gpxtpx:TrackPointExtension xmlns:gpxtpx="http://www.garmin.com/xmlschemas/TrackPointExtension/v1">
            <gpxtpx:hr>137</gpxtpx:hr>
          </gpxtpx:TrackPointExtension>
        </extensions>
      </trkpt>
      <trkpt lat="46.77728" lon="-1.6102">
        <ele>28.8</ele>
        <time>2024-05-10T07:29:18Z</time>
        <extensions>
          <gpxtpx:TrackPointExtension xmlns:gpxtpx="http://www.garmin.com/xmlschemas/TrackPointExtension/v1">
            <gpxtpx:hr>137</gpxtpx:hr>
          </gpxtpx:TrackPointExtension>
        </extensions>
      </trkpt>
      <trkpt lat="46.77728" lon="-1.61018">
        <ele>28.8</ele>
        <time>2024-05-10T07:29:17Z</time>
        <extensions>
          <gpxtpx:TrackPointExtension xmlns:gpxtpx="http://www.garmin.com/xmlschemas/TrackPointExtension/v1">
            <gpxtpx:hr>136</gpxtpx:hr>
          </gpxtpx:TrackPointExtension>
        </extensions>
      </trkpt>
      <trkpt lat="46.77728" lon="-1.61017">
        <ele>28.8</ele>
        <time>2024-05-10T07:29:16Z</time>
        <extensions>
          <gpxtpx:TrackPointExtension xmlns:gpxtpx="http://www.garmin.com/xmlschemas/TrackPointExtension/v1">
            <gpxtpx:hr>136</gpxtpx:hr>
          </gpxtpx:TrackPointExtension>
        </extensions>
      </trkpt>
      <trkpt lat="46.77727" lon="-1.61016">
        <ele>28.8</ele>
        <time>2024-05-10T07:29:15Z</time>
        <extensions>
          <gpxtpx:TrackPointExtension xmlns:gpxtpx="http://www.garmin.com/xmlschemas/TrackPointExtension/v1">
            <gpxtpx:hr>137</gpxtpx:hr>
          </gpxtpx:TrackPointExtension>
        </extensions>
      </trkpt>
      <trkpt lat="46.77726" lon="-1.61017">
        <ele>28.8</ele>
        <time>2024-05-10T07:29:14Z</time>
        <extensions>
          <gpxtpx:TrackPointExtension xmlns:gpxtpx="http://www.garmin.com/xmlschemas/TrackPointExtension/v1">
            <gpxtpx:hr>136</gpxtpx:hr>
          </gpxtpx:TrackPointExtension>
        </extensions>
      </trkpt>
      <trkpt lat="46.77725" lon="-1.6102">
        <ele>28.8</ele>
        <time>2024-05-10T07:29:13Z</time>
        <extensions>
          <gpxtpx:TrackPointExtension xmlns:gpxtpx="http://www.garmin.com/xmlschemas/TrackPointExtension/v1">
            <gpxtpx:hr>136</gpxtpx:hr>
          </gpxtpx:TrackPointExtension>
        </extensions>
      </trkpt>
      <trkpt lat="46.77725" lon="-1.61023">
        <ele>28.6</ele>
        <time>2024-05-10T07:29:12Z</time>
        <extensions>
          <gpxtpx:TrackPointExtension xmlns:gpxtpx="http://www.garmin.com/xmlschemas/TrackPointExtension/v1">
            <gpxtpx:hr>135</gpxtpx:hr>
          </gpxtpx:TrackPointExtension>
        </extensions>
      </trkpt>
      <trkpt lat="46.77725" lon="-1.61027">
        <ele>28.4</ele>
        <time>2024-05-10T07:29:11Z</time>
        <extensions>
          <gpxtpx:TrackPointExtension xmlns:gpxtpx="http://www.garmin.com/xmlschemas/TrackPointExtension/v1">
            <gpxtpx:hr>135</gpxtpx:hr>
          </gpxtpx:TrackPointExtension>
        </extensions>
      </trkpt>
      <trkpt lat="46.77724" lon="-1.6103">
        <ele>28.2</ele>
        <time>2024-05-10T07:29:10Z</time>
        <extensions>
          <gpxtpx:TrackPointExtension xmlns:gpxtpx="http://www.garmin.com/xmlschemas/TrackPointExtension/v1">
            <gpxtpx:hr>134</gpxtpx:hr>
          </gpxtpx:TrackPointExtension>
        </extensions>
      </trkpt>
      <trkpt lat="46.77724" lon="-1.61034">
        <ele>28</ele>
        <time>2024-05-10T07:29:09Z</time>
        <extensions>
          <gpxtpx:TrackPointExtension xmlns:gpxtpx="http://www.garmin.com/xmlschemas/TrackPointExtension/v1">
            <gpxtpx:hr>133</gpxtpx:hr>
          </gpxtpx:TrackPointExtension>
        </extensions>
      </trkpt>
      <trkpt lat="46.77722" lon="-1.61038">
        <ele>27.8</ele>
        <time>2024-05-10T07:29:08Z</time>
        <extensions>
          <gpxtpx:TrackPointExtension xmlns:gpxtpx="http://www.garmin.com/xmlschemas/TrackPointExtension/v1">
            <gpxtpx:hr>133</gpxtpx:hr>
          </gpxtpx:TrackPointExtension>
        </extensions>
      </trkpt>
      <trkpt lat="46.77721" lon="-1.61041">
        <ele>27.6</ele>
        <time>2024-05-10T07:29:07Z</time>
        <extensions>
          <gpxtpx:TrackPointExtension xmlns:gpxtpx="http://www.garmin.com/xmlschemas/TrackPointExtension/v1">
            <gpxtpx:hr>131</gpxtpx:hr>
          </gpxtpx:TrackPointExtension>
        </extensions>
      </trkpt>
      <trkpt lat="46.77719" lon="-1.61044">
        <ele>27.4</ele>
        <time>2024-05-10T07:29:06Z</time>
        <extensions>
          <gpxtpx:TrackPointExtension xmlns:gpxtpx="http://www.garmin.com/xmlschemas/TrackPointExtension/v1">
            <gpxtpx:hr>131</gpxtpx:hr>
          </gpxtpx:TrackPointExtension>
        </extensions>
      </trkpt>
      <trkpt lat="46.77717" lon="-1.61047">
        <ele>27.4</ele>
        <time>2024-05-10T07:29:05Z</time>
        <extensions>
          <gpxtpx:TrackPointExtension xmlns:gpxtpx="http://www.garmin.com/xmlschemas/TrackPointExtension/v1">
            <gpxtpx:hr>130</gpxtpx:hr>
          </gpxtpx:TrackPointExtension>
        </extensions>
      </trkpt>
      <trkpt lat="46.77716" lon="-1.61049">
        <ele>27.2</ele>
        <time>2024-05-10T07:29:04Z</time>
        <extensions>
          <gpxtpx:TrackPointExtension xmlns:gpxtpx="http://www.garmin.com/xmlschemas/TrackPointExtension/v1">
            <gpxtpx:hr>130</gpxtpx:hr>
          </gpxtpx:TrackPointExtension>
        </extensions>
      </trkpt>
      <trkpt lat="46.77716" lon="-1.61051">
        <ele>27</ele>
        <time>2024-05-10T07:29:03Z</time>
        <extensions>
          <gpxtpx:TrackPointExtension xmlns:gpxtpx="http://www.garmin.com/xmlschemas/TrackPointExtension/v1">
            <gpxtpx:hr>129</gpxtpx:hr>
          </gpxtpx:TrackPointExtension>
        </extensions>
      </trkpt>
      <trkpt lat="46.77717" lon="-1.61053">
        <ele>26.8</ele>
        <time>2024-05-10T07:29:02Z</time>
        <extensions>
          <gpxtpx:TrackPointExtension xmlns:gpxtpx="http://www.garmin.com/xmlschemas/TrackPointExtension/v1">
            <gpxtpx:hr>128</gpxtpx:hr>
          </gpxtpx:TrackPointExtension>
        </extensions>
      </trkpt>
      <trkpt lat="46.77718" lon="-1.61055">
        <ele>26.6</ele>
        <time>2024-05-10T07:29:01Z</time>
        <extensions>
          <gpxtpx:TrackPointExtension xmlns:gpxtpx="http://www.garmin.com/xmlschemas/TrackPointExtension/v1">
            <gpxtpx:hr>128</gpxtpx:hr>
          </gpxtpx:TrackPointExtension>
        </extensions>
      </trkpt>
      <trkpt lat="46.77718" lon="-1.61057">
        <ele>26.2</ele>
        <time>2024-05-10T07:29:00Z</time>
        <extensions>
          <gpxtpx:TrackPointExtension xmlns:gpxtpx="http://www.garmin.com/xmlschemas/TrackPointExtension/v1">
            <gpxtpx:hr>127</gpxtpx:hr>
          </gpxtpx:TrackPointExtension>
        </extensions>
      </trkpt>
      <trkpt lat="46.77718" lon="-1.61059">
        <ele>26</ele>
        <time>2024-05-10T07:28:59Z</time>
        <extensions>
          <gpxtpx:TrackPointExtension xmlns:gpxtpx="http://www.garmin.com/xmlschemas/TrackPointExtension/v1">
            <gpxtpx:hr>126</gpxtpx:hr>
          </gpxtpx:TrackPointExtension>
        </extensions>
      </trkpt>
      <trkpt lat="46.77718" lon="-1.61061">
        <ele>25.8</ele>
        <time>2024-05-10T07:28:58Z</time>
        <extensions>
          <gpxtpx:TrackPointExtension xmlns:gpxtpx="http://www.garmin.com/xmlschemas/TrackPointExtension/v1">
            <gpxtpx:hr>125</gpxtpx:hr>
          </gpxtpx:TrackPointExtension>
        </extensions>
      </trkpt>
      <trkpt lat="46.77719" lon="-1.61062">
        <ele>25.6</ele>
        <time>2024-05-10T07:28:57Z</time>
        <extensions>
          <gpxtpx:TrackPointExtension xmlns:gpxtpx="http://www.garmin.com/xmlschemas/TrackPointExtension/v1">
            <gpxtpx:hr>124</gpxtpx:hr>
          </gpxtpx:TrackPointExtension>
        </extensions>
      </trkpt>
      <trkpt lat="46.7772" lon="-1.61063">
        <ele>25.4</ele>
        <time>2024-05-10T07:28:56Z</time>
        <extensions>
          <gpxtpx:TrackPointExtension xmlns:gpxtpx="http://www.garmin.com/xmlschemas/TrackPointExtension/v1">
            <gpxtpx:hr>124</gpxtpx:hr>
          </gpxtpx:TrackPointExtension>
        </extensions>
      </trkpt>
      <trkpt lat="46.77722" lon="-1.61063">
        <ele>25.2</ele>
        <time>2024-05-10T07:28:55Z</time>
        <extensions>
          <gpxtpx:TrackPointExtension xmlns:gpxtpx="http://www.garmin.com/xmlschemas/TrackPointExtension/v1">
            <gpxtpx:hr>123</gpxtpx:hr>
          </gpxtpx:TrackPointExtension>
        </extensions>
      </trkpt>
      <trkpt lat="46.77724" lon="-1.61063">
        <ele>25</ele>
        <time>2024-05-10T07:28:54Z</time>
        <extensions>
          <gpxtpx:TrackPointExtension xmlns:gpxtpx="http://www.garmin.com/xmlschemas/TrackPointExtension/v1">
            <gpxtpx:hr>123</gpxtpx:hr>
          </gpxtpx:TrackPointExtension>
        </extensions>
      </trkpt>
      <trkpt lat="46.77725" lon="-1.61064">
        <ele>24.6</ele>
        <time>2024-05-10T07:28:53Z</time>
        <extensions>
          <gpxtpx:TrackPointExtension xmlns:gpxtpx="http://www.garmin.com/xmlschemas/TrackPointExtension/v1">
            <gpxtpx:hr>122</gpxtpx:hr>
          </gpxtpx:TrackPointExtension>
        </extensions>
      </trkpt>
      <trkpt lat="46.77726" lon="-1.61066">
        <ele>24.4</ele>
        <time>2024-05-10T07:28:52Z</time>
        <extensions>
          <gpxtpx:TrackPointExtension xmlns:gpxtpx="http://www.garmin.com/xmlschemas/TrackPointExtension/v1">
            <gpxtpx:hr>122</gpxtpx:hr>
          </gpxtpx:TrackPointExtension>
        </extensions>
      </trkpt>
      <trkpt lat="46.77728" lon="-1.61069">
        <ele>24.2</ele>
        <time>2024-05-10T07:28:51Z</time>
        <extensions>
          <gpxtpx:TrackPointExtension xmlns:gpxtpx="http://www.garmin.com/xmlschemas/TrackPointExtension/v1">
            <gpxtpx:hr>121</gpxtpx:hr>
          </gpxtpx:TrackPointExtension>
        </extensions>
      </trkpt>
      <trkpt lat="46.77729" lon="-1.61073">
        <ele>24.2</ele>
        <time>2024-05-10T07:28:50Z</time>
        <extensions>
          <gpxtpx:TrackPointExtension xmlns:gpxtpx="http://www.garmin.com/xmlschemas/TrackPointExtension/v1">
            <gpxtpx:hr>120</gpxtpx:hr>
          </gpxtpx:TrackPointExtension>
        </extensions>
      </trkpt>
      <trkpt lat="46.77731" lon="-1.61077">
        <ele>24</ele>
        <time>2024-05-10T07:28:49Z</time>
        <extensions>
          <gpxtpx:TrackPointExtension xmlns:gpxtpx="http://www.garmin.com/xmlschemas/TrackPointExtension/v1">
            <gpxtpx:hr>119</gpxtpx:hr>
          </gpxtpx:TrackPointExtension>
        </extensions>
      </trkpt>
      <trkpt lat="46.77732" lon="-1.61081">
        <ele>24</ele>
        <time>2024-05-10T07:28:48Z</time>
        <extensions>
          <gpxtpx:TrackPointExtension xmlns:gpxtpx="http://www.garmin.com/xmlschemas/TrackPointExtension/v1">
            <gpxtpx:hr>119</gpxtpx:hr>
          </gpxtpx:TrackPointExtension>
        </extensions>
      </trkpt>
      <trkpt lat="46.77733" lon="-1.61086">
        <ele>24</ele>
        <time>2024-05-10T07:28:47Z</time>
        <extensions>
          <gpxtpx:TrackPointExtension xmlns:gpxtpx="http://www.garmin.com/xmlschemas/TrackPointExtension/v1">
            <gpxtpx:hr>119</gpxtpx:hr>
          </gpxtpx:TrackPointExtension>
        </extensions>
      </trkpt>
      <trkpt lat="46.77733" lon="-1.61091">
        <ele>24</ele>
        <time>2024-05-10T07:28:46Z</time>
        <extensions>
          <gpxtpx:TrackPointExtension xmlns:gpxtpx="http://www.garmin.com/xmlschemas/TrackPointExtension/v1">
            <gpxtpx:hr>119</gpxtpx:hr>
          </gpxtpx:TrackPointExtension>
        </extensions>
      </trkpt>
      <trkpt lat="46.77731" lon="-1.61095">
        <ele>24.2</ele>
        <time>2024-05-10T07:28:45Z</time>
        <extensions>
          <gpxtpx:TrackPointExtension xmlns:gpxtpx="http://www.garmin.com/xmlschemas/TrackPointExtension/v1">
            <gpxtpx:hr>120</gpxtpx:hr>
          </gpxtpx:TrackPointExtension>
        </extensions>
      </trkpt>
      <trkpt lat="46.77728" lon="-1.61098">
        <ele>24.2</ele>
        <time>2024-05-10T07:28:44Z</time>
        <extensions>
          <gpxtpx:TrackPointExtension xmlns:gpxtpx="http://www.garmin.com/xmlschemas/TrackPointExtension/v1">
            <gpxtpx:hr>121</gpxtpx:hr>
          </gpxtpx:TrackPointExtension>
        </extensions>
      </trkpt>
      <trkpt lat="46.77725" lon="-1.61099">
        <ele>24.4</ele>
        <time>2024-05-10T07:28:43Z</time>
        <extensions>
          <gpxtpx:TrackPointExtension xmlns:gpxtpx="http://www.garmin.com/xmlschemas/TrackPointExtension/v1">
            <gpxtpx:hr>122</gpxtpx:hr>
          </gpxtpx:TrackPointExtension>
        </extensions>
      </trkpt>
      <trkpt lat="46.77723" lon="-1.61099">
        <ele>24.6</ele>
        <time>2024-05-10T07:28:42Z</time>
        <extensions>
          <gpxtpx:TrackPointExtension xmlns:gpxtpx="http://www.garmin.com/xmlschemas/TrackPointExtension/v1">
            <gpxtpx:hr>122</gpxtpx:hr>
          </gpxtpx:TrackPointExtension>
        </extensions>
      </trkpt>
      <trkpt lat="46.77718" lon="-1.61097">
        <ele>24.8</ele>
        <time>2024-05-10T07:28:41Z</time>
        <extensions>
          <gpxtpx:TrackPointExtension xmlns:gpxtpx="http://www.garmin.com/xmlschemas/TrackPointExtension/v1">
            <gpxtpx:hr>122</gpxtpx:hr>
          </gpxtpx:TrackPointExtension>
        </extensions>
      </trkpt>
      <trkpt lat="46.77716" lon="-1.61095">
        <ele>25</ele>
        <time>2024-05-10T07:28:40Z</time>
        <extensions>
          <gpxtpx:TrackPointExtension xmlns:gpxtpx="http://www.garmin.com/xmlschemas/TrackPointExtension/v1">
            <gpxtpx:hr>122</gpxtpx:hr>
          </gpxtpx:TrackPointExtension>
        </extensions>
      </trkpt>
      <trkpt lat="46.77714" lon="-1.61094">
        <ele>25.2</ele>
        <time>2024-05-10T07:28:39Z</time>
        <extensions>
          <gpxtpx:TrackPointExtension xmlns:gpxtpx="http://www.garmin.com/xmlschemas/TrackPointExtension/v1">
            <gpxtpx:hr>122</gpxtpx:hr>
          </gpxtpx:TrackPointExtension>
        </extensions>
      </trkpt>
      <trkpt lat="46.77713" lon="-1.61093">
        <ele>25.4</ele>
        <time>2024-05-10T07:28:38Z</time>
        <extensions>
          <gpxtpx:TrackPointExtension xmlns:gpxtpx="http://www.garmin.com/xmlschemas/TrackPointExtension/v1">
            <gpxtpx:hr>121</gpxtpx:hr>
          </gpxtpx:TrackPointExtension>
        </extensions>
      </trkpt>
      <trkpt lat="46.7771" lon="-1.61093">
        <ele>25.6</ele>
        <time>2024-05-10T07:28:37Z</time>
        <extensions>
          <gpxtpx:TrackPointExtension xmlns:gpxtpx="http://www.garmin.com/xmlschemas/TrackPointExtension/v1">
            <gpxtpx:hr>121</gpxtpx:hr>
          </gpxtpx:TrackPointExtension>
        </extensions>
      </trkpt>
      <trkpt lat="46.77708" lon="-1.61093">
        <ele>25.6</ele>
        <time>2024-05-10T07:28:36Z</time>
        <extensions>
          <gpxtpx:TrackPointExtension xmlns:gpxtpx="http://www.garmin.com/xmlschemas/TrackPointExtension/v1">
            <gpxtpx:hr>122</gpxtpx:hr>
          </gpxtpx:TrackPointExtension>
        </extensions>
      </trkpt>
      <trkpt lat="46.77705" lon="-1.61093">
        <ele>25.8</ele>
        <time>2024-05-10T07:28:35Z</time>
        <extensions>
          <gpxtpx:TrackPointExtension xmlns:gpxtpx="http://www.garmin.com/xmlschemas/TrackPointExtension/v1">
            <gpxtpx:hr>122</gpxtpx:hr>
          </gpxtpx:TrackPointExtension>
        </extensions>
      </trkpt>
      <trkpt lat="46.77704" lon="-1.61093">
        <ele>26</ele>
        <time>2024-05-10T07:28:34Z</time>
        <extensions>
          <gpxtpx:TrackPointExtension xmlns:gpxtpx="http://www.garmin.com/xmlschemas/TrackPointExtension/v1">
            <gpxtpx:hr>123</gpxtpx:hr>
          </gpxtpx:TrackPointExtension>
        </extensions>
      </trkpt>
      <trkpt lat="46.77702" lon="-1.61093">
        <ele>26.2</ele>
        <time>2024-05-10T07:28:33Z</time>
        <extensions>
          <gpxtpx:TrackPointExtension xmlns:gpxtpx="http://www.garmin.com/xmlschemas/TrackPointExtension/v1">
            <gpxtpx:hr>124</gpxtpx:hr>
          </gpxtpx:TrackPointExtension>
        </extensions>
      </trkpt>
      <trkpt lat="46.77701" lon="-1.61093">
        <ele>26.2</ele>
        <time>2024-05-10T07:28:32Z</time>
        <extensions>
          <gpxtpx:TrackPointExtension xmlns:gpxtpx="http://www.garmin.com/xmlschemas/TrackPointExtension/v1">
            <gpxtpx:hr>125</gpxtpx:hr>
          </gpxtpx:TrackPointExtension>
        </extensions>
      </trkpt>
      <trkpt lat="46.77699" lon="-1.61092">
        <ele>26.4</ele>
        <time>2024-05-10T07:28:30Z</time>
        <extensions>
          <gpxtpx:TrackPointExtension xmlns:gpxtpx="http://www.garmin.com/xmlschemas/TrackPointExtension/v1">
            <gpxtpx:hr>125</gpxtpx:hr>
          </gpxtpx:TrackPointExtension>
        </extensions>
      </trkpt>
      <trkpt lat="46.77698" lon="-1.61092">
        <ele>26.6</ele>
        <time>2024-05-10T07:28:29Z</time>
        <extensions>
          <gpxtpx:TrackPointExtension xmlns:gpxtpx="http://www.garmin.com/xmlschemas/TrackPointExtension/v1">
            <gpxtpx:hr>125</gpxtpx:hr>
          </gpxtpx:TrackPointExtension>
        </extensions>
      </trkpt>
      <trkpt lat="46.77696" lon="-1.61092">
        <ele>26.8</ele>
        <time>2024-05-10T07:28:28Z</time>
        <extensions>
          <gpxtpx:TrackPointExtension xmlns:gpxtpx="http://www.garmin.com/xmlschemas/TrackPointExtension/v1">
            <gpxtpx:hr>125</gpxtpx:hr>
          </gpxtpx:TrackPointExtension>
        </extensions>
      </trkpt>
      <trkpt lat="46.77695" lon="-1.61093">
        <ele>27</ele>
        <time>2024-05-10T07:28:27Z</time>
        <extensions>
          <gpxtpx:TrackPointExtension xmlns:gpxtpx="http://www.garmin.com/xmlschemas/TrackPointExtension/v1">
            <gpxtpx:hr>124</gpxtpx:hr>
          </gpxtpx:TrackPointExtension>
        </extensions>
      </trkpt>
      <trkpt lat="46.77693" lon="-1.61093">
        <ele>27.2</ele>
        <time>2024-05-10T07:28:26Z</time>
        <extensions>
          <gpxtpx:TrackPointExtension xmlns:gpxtpx="http://www.garmin.com/xmlschemas/TrackPointExtension/v1">
            <gpxtpx:hr>124</gpxtpx:hr>
          </gpxtpx:TrackPointExtension>
        </extensions>
      </trkpt>
      <trkpt lat="46.7769" lon="-1.61092">
        <ele>27.2</ele>
        <time>2024-05-10T07:28:25Z</time>
        <extensions>
          <gpxtpx:TrackPointExtension xmlns:gpxtpx="http://www.garmin.com/xmlschemas/TrackPointExtension/v1">
            <gpxtpx:hr>124</gpxtpx:hr>
          </gpxtpx:TrackPointExtension>
        </extensions>
      </trkpt>
      <trkpt lat="46.77688" lon="-1.61091">
        <ele>27.6</ele>
        <time>2024-05-10T07:28:24Z</time>
        <extensions>
          <gpxtpx:TrackPointExtension xmlns:gpxtpx="http://www.garmin.com/xmlschemas/TrackPointExtension/v1">
            <gpxtpx:hr>124</gpxtpx:hr>
          </gpxtpx:TrackPointExtension>
        </extensions>
      </trkpt>
      <trkpt lat="46.77686" lon="-1.6109">
        <ele>27.8</ele>
        <time>2024-05-10T07:28:23Z</time>
        <extensions>
          <gpxtpx:TrackPointExtension xmlns:gpxtpx="http://www.garmin.com/xmlschemas/TrackPointExtension/v1">
            <gpxtpx:hr>124</gpxtpx:hr>
          </gpxtpx:TrackPointExtension>
        </extensions>
      </trkpt>
      <trkpt lat="46.77684" lon="-1.61089">
        <ele>28</ele>
        <time>2024-05-10T07:28:22Z</time>
        <extensions>
          <gpxtpx:TrackPointExtension xmlns:gpxtpx="http://www.garmin.com/xmlschemas/TrackPointExtension/v1">
            <gpxtpx:hr>125</gpxtpx:hr>
          </gpxtpx:TrackPointExtension>
        </extensions>
      </trkpt>
      <trkpt lat="46.77683" lon="-1.61087">
        <ele>28.2</ele>
        <time>2024-05-10T07:28:21Z</time>
        <extensions>
          <gpxtpx:TrackPointExtension xmlns:gpxtpx="http://www.garmin.com/xmlschemas/TrackPointExtension/v1">
            <gpxtpx:hr>126</gpxtpx:hr>
          </gpxtpx:TrackPointExtension>
        </extensions>
      </trkpt>
      <trkpt lat="46.77681" lon="-1.61085">
        <ele>28.4</ele>
        <time>2024-05-10T07:28:20Z</time>
        <extensions>
          <gpxtpx:TrackPointExtension xmlns:gpxtpx="http://www.garmin.com/xmlschemas/TrackPointExtension/v1">
            <gpxtpx:hr>127</gpxtpx:hr>
          </gpxtpx:TrackPointExtension>
        </extensions>
      </trkpt>
      <trkpt lat="46.77679" lon="-1.61084">
        <ele>28.6</ele>
        <time>2024-05-10T07:28:19Z</time>
        <extensions>
          <gpxtpx:TrackPointExtension xmlns:gpxtpx="http://www.garmin.com/xmlschemas/TrackPointExtension/v1">
            <gpxtpx:hr>128</gpxtpx:hr>
          </gpxtpx:TrackPointExtension>
        </extensions>
      </trkpt>
      <trkpt lat="46.77677" lon="-1.61086">
        <ele>28.8</ele>
        <time>2024-05-10T07:28:18Z</time>
        <extensions>
          <gpxtpx:TrackPointExtension xmlns:gpxtpx="http://www.garmin.com/xmlschemas/TrackPointExtension/v1">
            <gpxtpx:hr>129</gpxtpx:hr>
          </gpxtpx:TrackPointExtension>
        </extensions>
      </trkpt>
      <trkpt lat="46.77675" lon="-1.61088">
        <ele>29</ele>
        <time>2024-05-10T07:28:17Z</time>
        <extensions>
          <gpxtpx:TrackPointExtension xmlns:gpxtpx="http://www.garmin.com/xmlschemas/TrackPointExtension/v1">
            <gpxtpx:hr>129</gpxtpx:hr>
          </gpxtpx:TrackPointExtension>
        </extensions>
      </trkpt>
      <trkpt lat="46.77672" lon="-1.61089">
        <ele>29.2</ele>
        <time>2024-05-10T07:28:16Z</time>
        <extensions>
          <gpxtpx:TrackPointExtension xmlns:gpxtpx="http://www.garmin.com/xmlschemas/TrackPointExtension/v1">
            <gpxtpx:hr>128</gpxtpx:hr>
          </gpxtpx:TrackPointExtension>
        </extensions>
      </trkpt>
      <trkpt lat="46.7767" lon="-1.61091">
        <ele>29.4</ele>
        <time>2024-05-10T07:28:15Z</time>
        <extensions>
          <gpxtpx:TrackPointExtension xmlns:gpxtpx="http://www.garmin.com/xmlschemas/TrackPointExtension/v1">
            <gpxtpx:hr>128</gpxtpx:hr>
          </gpxtpx:TrackPointExtension>
        </extensions>
      </trkpt>
      <trkpt lat="46.77668" lon="-1.61093">
        <ele>29.6</ele>
        <time>2024-05-10T07:28:14Z</time>
        <extensions>
          <gpxtpx:TrackPointExtension xmlns:gpxtpx="http://www.garmin.com/xmlschemas/TrackPointExtension/v1">
            <gpxtpx:hr>128</gpxtpx:hr>
          </gpxtpx:TrackPointExtension>
        </extensions>
      </trkpt>
      <trkpt lat="46.77664" lon="-1.61096">
        <ele>29.8</ele>
        <time>2024-05-10T07:28:13Z</time>
        <extensions>
          <gpxtpx:TrackPointExtension xmlns:gpxtpx="http://www.garmin.com/xmlschemas/TrackPointExtension/v1">
            <gpxtpx:hr>128</gpxtpx:hr>
          </gpxtpx:TrackPointExtension>
        </extensions>
      </trkpt>
      <trkpt lat="46.77661" lon="-1.61099">
        <ele>29.8</ele>
        <time>2024-05-10T07:28:12Z</time>
        <extensions>
          <gpxtpx:TrackPointExtension xmlns:gpxtpx="http://www.garmin.com/xmlschemas/TrackPointExtension/v1">
            <gpxtpx:hr>129</gpxtpx:hr>
          </gpxtpx:TrackPointExtension>
        </extensions>
      </trkpt>
      <trkpt lat="46.77658" lon="-1.61102">
        <ele>30</ele>
        <time>2024-05-10T07:28:11Z</time>
        <extensions>
          <gpxtpx:TrackPointExtension xmlns:gpxtpx="http://www.garmin.com/xmlschemas/TrackPointExtension/v1">
            <gpxtpx:hr>129</gpxtpx:hr>
          </gpxtpx:TrackPointExtension>
        </extensions>
      </trkpt>
      <trkpt lat="46.77655" lon="-1.61104">
        <ele>30</ele>
        <time>2024-05-10T07:28:10Z</time>
        <extensions>
          <gpxtpx:TrackPointExtension xmlns:gpxtpx="http://www.garmin.com/xmlschemas/TrackPointExtension/v1">
            <gpxtpx:hr>129</gpxtpx:hr>
          </gpxtpx:TrackPointExtension>
        </extensions>
      </trkpt>
      <trkpt lat="46.77652" lon="-1.61106">
        <ele>30</ele>
        <time>2024-05-10T07:28:09Z</time>
        <extensions>
          <gpxtpx:TrackPointExtension xmlns:gpxtpx="http://www.garmin.com/xmlschemas/TrackPointExtension/v1">
            <gpxtpx:hr>129</gpxtpx:hr>
          </gpxtpx:TrackPointExtension>
        </extensions>
      </trkpt>
      <trkpt lat="46.77651" lon="-1.61109">
        <ele>30</ele>
        <time>2024-05-10T07:28:08Z</time>
        <extensions>
          <gpxtpx:TrackPointExtension xmlns:gpxtpx="http://www.garmin.com/xmlschemas/TrackPointExtension/v1">
            <gpxtpx:hr>129</gpxtpx:hr>
          </gpxtpx:TrackPointExtension>
        </extensions>
      </trkpt>
      <trkpt lat="46.77652" lon="-1.61112">
        <ele>30</ele>
        <time>2024-05-10T07:28:07Z</time>
        <extensions>
          <gpxtpx:TrackPointExtension xmlns:gpxtpx="http://www.garmin.com/xmlschemas/TrackPointExtension/v1">
            <gpxtpx:hr>129</gpxtpx:hr>
          </gpxtpx:TrackPointExtension>
        </extensions>
      </trkpt>
      <trkpt lat="46.77653" lon="-1.61115">
        <ele>29.8</ele>
        <time>2024-05-10T07:28:06Z</time>
        <extensions>
          <gpxtpx:TrackPointExtension xmlns:gpxtpx="http://www.garmin.com/xmlschemas/TrackPointExtension/v1">
            <gpxtpx:hr>129</gpxtpx:hr>
          </gpxtpx:TrackPointExtension>
        </extensions>
      </trkpt>
      <trkpt lat="46.77656" lon="-1.61117">
        <ele>29.6</ele>
        <time>2024-05-10T07:28:05Z</time>
        <extensions>
          <gpxtpx:TrackPointExtension xmlns:gpxtpx="http://www.garmin.com/xmlschemas/TrackPointExtension/v1">
            <gpxtpx:hr>128</gpxtpx:hr>
          </gpxtpx:TrackPointExtension>
        </extensions>
      </trkpt>
      <trkpt lat="46.77659" lon="-1.61119">
        <ele>29.6</ele>
        <time>2024-05-10T07:28:04Z</time>
        <extensions>
          <gpxtpx:TrackPointExtension xmlns:gpxtpx="http://www.garmin.com/xmlschemas/TrackPointExtension/v1">
            <gpxtpx:hr>128</gpxtpx:hr>
          </gpxtpx:TrackPointExtension>
        </extensions>
      </trkpt>
      <trkpt lat="46.77661" lon="-1.6112">
        <ele>29.4</ele>
        <time>2024-05-10T07:28:03Z</time>
        <extensions>
          <gpxtpx:TrackPointExtension xmlns:gpxtpx="http://www.garmin.com/xmlschemas/TrackPointExtension/v1">
            <gpxtpx:hr>128</gpxtpx:hr>
          </gpxtpx:TrackPointExtension>
        </extensions>
      </trkpt>
      <trkpt lat="46.77666" lon="-1.61122">
        <ele>29.4</ele>
        <time>2024-05-10T07:28:02Z</time>
        <extensions>
          <gpxtpx:TrackPointExtension xmlns:gpxtpx="http://www.garmin.com/xmlschemas/TrackPointExtension/v1">
            <gpxtpx:hr>128</gpxtpx:hr>
          </gpxtpx:TrackPointExtension>
        </extensions>
      </trkpt>
      <trkpt lat="46.77667" lon="-1.61123">
        <ele>29.4</ele>
        <time>2024-05-10T07:28:01Z</time>
        <extensions>
          <gpxtpx:TrackPointExtension xmlns:gpxtpx="http://www.garmin.com/xmlschemas/TrackPointExtension/v1">
            <gpxtpx:hr>129</gpxtpx:hr>
          </gpxtpx:TrackPointExtension>
        </extensions>
      </trkpt>
      <trkpt lat="46.77669" lon="-1.61127">
        <ele>29.4</ele>
        <time>2024-05-10T07:28:00Z</time>
        <extensions>
          <gpxtpx:TrackPointExtension xmlns:gpxtpx="http://www.garmin.com/xmlschemas/TrackPointExtension/v1">
            <gpxtpx:hr>131</gpxtpx:hr>
          </gpxtpx:TrackPointExtension>
        </extensions>
      </trkpt>
      <trkpt lat="46.77669" lon="-1.61129">
        <ele>29.6</ele>
        <time>2024-05-10T07:27:59Z</time>
        <extensions>
          <gpxtpx:TrackPointExtension xmlns:gpxtpx="http://www.garmin.com/xmlschemas/TrackPointExtension/v1">
            <gpxtpx:hr>131</gpxtpx:hr>
          </gpxtpx:TrackPointExtension>
        </extensions>
      </trkpt>
      <trkpt lat="46.77668" lon="-1.61135">
        <ele>29.6</ele>
        <time>2024-05-10T07:27:58Z</time>
        <extensions>
          <gpxtpx:TrackPointExtension xmlns:gpxtpx="http://www.garmin.com/xmlschemas/TrackPointExtension/v1">
            <gpxtpx:hr>131</gpxtpx:hr>
          </gpxtpx:TrackPointExtension>
        </extensions>
      </trkpt>
      <trkpt lat="46.77667" lon="-1.61137">
        <ele>29.8</ele>
        <time>2024-05-10T07:27:57Z</time>
        <extensions>
          <gpxtpx:TrackPointExtension xmlns:gpxtpx="http://www.garmin.com/xmlschemas/TrackPointExtension/v1">
            <gpxtpx:hr>132</gpxtpx:hr>
          </gpxtpx:TrackPointExtension>
        </extensions>
      </trkpt>
      <trkpt lat="46.77665" lon="-1.61143">
        <ele>30</ele>
        <time>2024-05-10T07:27:56Z</time>
        <extensions>
          <gpxtpx:TrackPointExtension xmlns:gpxtpx="http://www.garmin.com/xmlschemas/TrackPointExtension/v1">
            <gpxtpx:hr>132</gpxtpx:hr>
          </gpxtpx:TrackPointExtension>
        </extensions>
      </trkpt>
      <trkpt lat="46.77664" lon="-1.61146">
        <ele>30.2</ele>
        <time>2024-05-10T07:27:55Z</time>
        <extensions>
          <gpxtpx:TrackPointExtension xmlns:gpxtpx="http://www.garmin.com/xmlschemas/TrackPointExtension/v1">
            <gpxtpx:hr>132</gpxtpx:hr>
          </gpxtpx:TrackPointExtension>
        </extensions>
      </trkpt>
      <trkpt lat="46.77662" lon="-1.61149">
        <ele>30.2</ele>
        <time>2024-05-10T07:27:54Z</time>
        <extensions>
          <gpxtpx:TrackPointExtension xmlns:gpxtpx="http://www.garmin.com/xmlschemas/TrackPointExtension/v1">
            <gpxtpx:hr>132</gpxtpx:hr>
          </gpxtpx:TrackPointExtension>
        </extensions>
      </trkpt>
      <trkpt lat="46.77661" lon="-1.6115">
        <ele>30.4</ele>
        <time>2024-05-10T07:27:53Z</time>
        <extensions>
          <gpxtpx:TrackPointExtension xmlns:gpxtpx="http://www.garmin.com/xmlschemas/TrackPointExtension/v1">
            <gpxtpx:hr>132</gpxtpx:hr>
          </gpxtpx:TrackPointExtension>
        </extensions>
      </trkpt>
      <trkpt lat="46.77659" lon="-1.61149">
        <ele>30.4</ele>
        <time>2024-05-10T07:27:52Z</time>
        <extensions>
          <gpxtpx:TrackPointExtension xmlns:gpxtpx="http://www.garmin.com/xmlschemas/TrackPointExtension/v1">
            <gpxtpx:hr>132</gpxtpx:hr>
          </gpxtpx:TrackPointExtension>
        </extensions>
      </trkpt>
      <trkpt lat="46.77656" lon="-1.61148">
        <ele>30.6</ele>
        <time>2024-05-10T07:27:51Z</time>
        <extensions>
          <gpxtpx:TrackPointExtension xmlns:gpxtpx="http://www.garmin.com/xmlschemas/TrackPointExtension/v1">
            <gpxtpx:hr>132</gpxtpx:hr>
          </gpxtpx:TrackPointExtension>
        </extensions>
      </trkpt>
      <trkpt lat="46.77653" lon="-1.61147">
        <ele>30.6</ele>
        <time>2024-05-10T07:27:50Z</time>
        <extensions>
          <gpxtpx:TrackPointExtension xmlns:gpxtpx="http://www.garmin.com/xmlschemas/TrackPointExtension/v1">
            <gpxtpx:hr>131</gpxtpx:hr>
          </gpxtpx:TrackPointExtension>
        </extensions>
      </trkpt>
      <trkpt lat="46.77651" lon="-1.61146">
        <ele>30.6</ele>
        <time>2024-05-10T07:27:49Z</time>
        <extensions>
          <gpxtpx:TrackPointExtension xmlns:gpxtpx="http://www.garmin.com/xmlschemas/TrackPointExtension/v1">
            <gpxtpx:hr>131</gpxtpx:hr>
          </gpxtpx:TrackPointExtension>
        </extensions>
      </trkpt>
      <trkpt lat="46.77649" lon="-1.61146">
        <ele>30.6</ele>
        <time>2024-05-10T07:27:48Z</time>
        <extensions>
          <gpxtpx:TrackPointExtension xmlns:gpxtpx="http://www.garmin.com/xmlschemas/TrackPointExtension/v1">
            <gpxtpx:hr>131</gpxtpx:hr>
          </gpxtpx:TrackPointExtension>
        </extensions>
      </trkpt>
      <trkpt lat="46.77647" lon="-1.61148">
        <ele>30.4</ele>
        <time>2024-05-10T07:27:47Z</time>
        <extensions>
          <gpxtpx:TrackPointExtension xmlns:gpxtpx="http://www.garmin.com/xmlschemas/TrackPointExtension/v1">
            <gpxtpx:hr>132</gpxtpx:hr>
          </gpxtpx:TrackPointExtension>
        </extensions>
      </trkpt>
      <trkpt lat="46.77646" lon="-1.6115">
        <ele>30.4</ele>
        <time>2024-05-10T07:27:46Z</time>
        <extensions>
          <gpxtpx:TrackPointExtension xmlns:gpxtpx="http://www.garmin.com/xmlschemas/TrackPointExtension/v1">
            <gpxtpx:hr>132</gpxtpx:hr>
          </gpxtpx:TrackPointExtension>
        </extensions>
      </trkpt>
      <trkpt lat="46.77645" lon="-1.61154">
        <ele>30.4</ele>
        <time>2024-05-10T07:27:45Z</time>
        <extensions>
          <gpxtpx:TrackPointExtension xmlns:gpxtpx="http://www.garmin.com/xmlschemas/TrackPointExtension/v1">
            <gpxtpx:hr>132</gpxtpx:hr>
          </gpxtpx:TrackPointExtension>
        </extensions>
      </trkpt>
      <trkpt lat="46.77644" lon="-1.61157">
        <ele>30.2</ele>
        <time>2024-05-10T07:27:44Z</time>
        <extensions>
          <gpxtpx:TrackPointExtension xmlns:gpxtpx="http://www.garmin.com/xmlschemas/TrackPointExtension/v1">
            <gpxtpx:hr>133</gpxtpx:hr>
          </gpxtpx:TrackPointExtension>
        </extensions>
      </trkpt>
      <trkpt lat="46.77644" lon="-1.61161">
        <ele>30.2</ele>
        <time>2024-05-10T07:27:43Z</time>
        <extensions>
          <gpxtpx:TrackPointExtension xmlns:gpxtpx="http://www.garmin.com/xmlschemas/TrackPointExtension/v1">
            <gpxtpx:hr>133</gpxtpx:hr>
          </gpxtpx:TrackPointExtension>
        </extensions>
      </trkpt>
      <trkpt lat="46.77643" lon="-1.61164">
        <ele>30.2</ele>
        <time>2024-05-10T07:27:42Z</time>
        <extensions>
          <gpxtpx:TrackPointExtension xmlns:gpxtpx="http://www.garmin.com/xmlschemas/TrackPointExtension/v1">
            <gpxtpx:hr>133</gpxtpx:hr>
          </gpxtpx:TrackPointExtension>
        </extensions>
      </trkpt>
      <trkpt lat="46.77642" lon="-1.61168">
        <ele>30</ele>
        <time>2024-05-10T07:27:41Z</time>
        <extensions>
          <gpxtpx:TrackPointExtension xmlns:gpxtpx="http://www.garmin.com/xmlschemas/TrackPointExtension/v1">
            <gpxtpx:hr>133</gpxtpx:hr>
          </gpxtpx:TrackPointExtension>
        </extensions>
      </trkpt>
      <trkpt lat="46.77641" lon="-1.61172">
        <ele>30</ele>
        <time>2024-05-10T07:27:40Z</time>
        <extensions>
          <gpxtpx:TrackPointExtension xmlns:gpxtpx="http://www.garmin.com/xmlschemas/TrackPointExtension/v1">
            <gpxtpx:hr>133</gpxtpx:hr>
          </gpxtpx:TrackPointExtension>
        </extensions>
      </trkpt>
      <trkpt lat="46.7764" lon="-1.61175">
        <ele>30</ele>
        <time>2024-05-10T07:27:39Z</time>
        <extensions>
          <gpxtpx:TrackPointExtension xmlns:gpxtpx="http://www.garmin.com/xmlschemas/TrackPointExtension/v1">
            <gpxtpx:hr>134</gpxtpx:hr>
          </gpxtpx:TrackPointExtension>
        </extensions>
      </trkpt>
      <trkpt lat="46.77638" lon="-1.61181">
        <ele>29.8</ele>
        <time>2024-05-10T07:27:38Z</time>
        <extensions>
          <gpxtpx:TrackPointExtension xmlns:gpxtpx="http://www.garmin.com/xmlschemas/TrackPointExtension/v1">
            <gpxtpx:hr>134</gpxtpx:hr>
          </gpxtpx:TrackPointExtension>
        </extensions>
      </trkpt>
      <trkpt lat="46.77637" lon="-1.61185">
        <ele>29.8</ele>
        <time>2024-05-10T07:27:37Z</time>
        <extensions>
          <gpxtpx:TrackPointExtension xmlns:gpxtpx="http://www.garmin.com/xmlschemas/TrackPointExtension/v1">
            <gpxtpx:hr>134</gpxtpx:hr>
          </gpxtpx:TrackPointExtension>
        </extensions>
      </trkpt>
      <trkpt lat="46.77637" lon="-1.61189">
        <ele>29.8</ele>
        <time>2024-05-10T07:27:36Z</time>
        <extensions>
          <gpxtpx:TrackPointExtension xmlns:gpxtpx="http://www.garmin.com/xmlschemas/TrackPointExtension/v1">
            <gpxtpx:hr>134</gpxtpx:hr>
          </gpxtpx:TrackPointExtension>
        </extensions>
      </trkpt>
      <trkpt lat="46.77637" lon="-1.61192">
        <ele>29.8</ele>
        <time>2024-05-10T07:27:35Z</time>
        <extensions>
          <gpxtpx:TrackPointExtension xmlns:gpxtpx="http://www.garmin.com/xmlschemas/TrackPointExtension/v1">
            <gpxtpx:hr>134</gpxtpx:hr>
          </gpxtpx:TrackPointExtension>
        </extensions>
      </trkpt>
      <trkpt lat="46.77638" lon="-1.61193">
        <ele>29.8</ele>
        <time>2024-05-10T07:27:34Z</time>
        <extensions>
          <gpxtpx:TrackPointExtension xmlns:gpxtpx="http://www.garmin.com/xmlschemas/TrackPointExtension/v1">
            <gpxtpx:hr>135</gpxtpx:hr>
          </gpxtpx:TrackPointExtension>
        </extensions>
      </trkpt>
      <trkpt lat="46.7764" lon="-1.61194">
        <ele>29.8</ele>
        <time>2024-05-10T07:27:33Z</time>
        <extensions>
          <gpxtpx:TrackPointExtension xmlns:gpxtpx="http://www.garmin.com/xmlschemas/TrackPointExtension/v1">
            <gpxtpx:hr>135</gpxtpx:hr>
          </gpxtpx:TrackPointExtension>
        </extensions>
      </trkpt>
      <trkpt lat="46.77642" lon="-1.61192">
        <ele>29.8</ele>
        <time>2024-05-10T07:27:32Z</time>
        <extensions>
          <gpxtpx:TrackPointExtension xmlns:gpxtpx="http://www.garmin.com/xmlschemas/TrackPointExtension/v1">
            <gpxtpx:hr>135</gpxtpx:hr>
          </gpxtpx:TrackPointExtension>
        </extensions>
      </trkpt>
      <trkpt lat="46.77644" lon="-1.6119">
        <ele>29.8</ele>
        <time>2024-05-10T07:27:31Z</time>
        <extensions>
          <gpxtpx:TrackPointExtension xmlns:gpxtpx="http://www.garmin.com/xmlschemas/TrackPointExtension/v1">
            <gpxtpx:hr>136</gpxtpx:hr>
          </gpxtpx:TrackPointExtension>
        </extensions>
      </trkpt>
      <trkpt lat="46.77646" lon="-1.61188">
        <ele>29.8</ele>
        <time>2024-05-10T07:27:30Z</time>
        <extensions>
          <gpxtpx:TrackPointExtension xmlns:gpxtpx="http://www.garmin.com/xmlschemas/TrackPointExtension/v1">
            <gpxtpx:hr>136</gpxtpx:hr>
          </gpxtpx:TrackPointExtension>
        </extensions>
      </trkpt>
      <trkpt lat="46.77648" lon="-1.61186">
        <ele>29.8</ele>
        <time>2024-05-10T07:27:29Z</time>
        <extensions>
          <gpxtpx:TrackPointExtension xmlns:gpxtpx="http://www.garmin.com/xmlschemas/TrackPointExtension/v1">
            <gpxtpx:hr>136</gpxtpx:hr>
          </gpxtpx:TrackPointExtension>
        </extensions>
      </trkpt>
      <trkpt lat="46.7765" lon="-1.61184">
        <ele>29.8</ele>
        <time>2024-05-10T07:27:28Z</time>
        <extensions>
          <gpxtpx:TrackPointExtension xmlns:gpxtpx="http://www.garmin.com/xmlschemas/TrackPointExtension/v1">
            <gpxtpx:hr>136</gpxtpx:hr>
          </gpxtpx:TrackPointExtension>
        </extensions>
      </trkpt>
      <trkpt lat="46.77652" lon="-1.61182">
        <ele>29.6</ele>
        <time>2024-05-10T07:27:27Z</time>
        <extensions>
          <gpxtpx:TrackPointExtension xmlns:gpxtpx="http://www.garmin.com/xmlschemas/TrackPointExtension/v1">
            <gpxtpx:hr>136</gpxtpx:hr>
          </gpxtpx:TrackPointExtension>
        </extensions>
      </trkpt>
      <trkpt lat="46.77653" lon="-1.61181">
        <ele>29.6</ele>
        <time>2024-05-10T07:27:26Z</time>
        <extensions>
          <gpxtpx:TrackPointExtension xmlns:gpxtpx="http://www.garmin.com/xmlschemas/TrackPointExtension/v1">
            <gpxtpx:hr>136</gpxtpx:hr>
          </gpxtpx:TrackPointExtension>
        </extensions>
      </trkpt>
      <trkpt lat="46.77655" lon="-1.61179">
        <ele>29.6</ele>
        <time>2024-05-10T07:27:25Z</time>
        <extensions>
          <gpxtpx:TrackPointExtension xmlns:gpxtpx="http://www.garmin.com/xmlschemas/TrackPointExtension/v1">
            <gpxtpx:hr>136</gpxtpx:hr>
          </gpxtpx:TrackPointExtension>
        </extensions>
      </trkpt>
      <trkpt lat="46.77658" lon="-1.61177">
        <ele>29.4</ele>
        <time>2024-05-10T07:27:24Z</time>
        <extensions>
          <gpxtpx:TrackPointExtension xmlns:gpxtpx="http://www.garmin.com/xmlschemas/TrackPointExtension/v1">
            <gpxtpx:hr>136</gpxtpx:hr>
          </gpxtpx:TrackPointExtension>
        </extensions>
      </trkpt>
      <trkpt lat="46.7766" lon="-1.61176">
        <ele>29.4</ele>
        <time>2024-05-10T07:27:23Z</time>
        <extensions>
          <gpxtpx:TrackPointExtension xmlns:gpxtpx="http://www.garmin.com/xmlschemas/TrackPointExtension/v1">
            <gpxtpx:hr>136</gpxtpx:hr>
          </gpxtpx:TrackPointExtension>
        </extensions>
      </trkpt>
      <trkpt lat="46.77662" lon="-1.61176">
        <ele>29.2</ele>
        <time>2024-05-10T07:27:22Z</time>
        <extensions>
          <gpxtpx:TrackPointExtension xmlns:gpxtpx="http://www.garmin.com/xmlschemas/TrackPointExtension/v1">
            <gpxtpx:hr>136</gpxtpx:hr>
          </gpxtpx:TrackPointExtension>
        </extensions>
      </trkpt>
      <trkpt lat="46.77664" lon="-1.61176">
        <ele>29</ele>
        <time>2024-05-10T07:27:21Z</time>
        <extensions>
          <gpxtpx:TrackPointExtension xmlns:gpxtpx="http://www.garmin.com/xmlschemas/TrackPointExtension/v1">
            <gpxtpx:hr>135</gpxtpx:hr>
          </gpxtpx:TrackPointExtension>
        </extensions>
      </trkpt>
      <trkpt lat="46.77667" lon="-1.61178">
        <ele>28.8</ele>
        <time>2024-05-10T07:27:20Z</time>
        <extensions>
          <gpxtpx:TrackPointExtension xmlns:gpxtpx="http://www.garmin.com/xmlschemas/TrackPointExtension/v1">
            <gpxtpx:hr>135</gpxtpx:hr>
          </gpxtpx:TrackPointExtension>
        </extensions>
      </trkpt>
      <trkpt lat="46.77669" lon="-1.61179">
        <ele>28.6</ele>
        <time>2024-05-10T07:27:19Z</time>
        <extensions>
          <gpxtpx:TrackPointExtension xmlns:gpxtpx="http://www.garmin.com/xmlschemas/TrackPointExtension/v1">
            <gpxtpx:hr>135</gpxtpx:hr>
          </gpxtpx:TrackPointExtension>
        </extensions>
      </trkpt>
      <trkpt lat="46.7767" lon="-1.61182">
        <ele>28.6</ele>
        <time>2024-05-10T07:27:18Z</time>
        <extensions>
          <gpxtpx:TrackPointExtension xmlns:gpxtpx="http://www.garmin.com/xmlschemas/TrackPointExtension/v1">
            <gpxtpx:hr>135</gpxtpx:hr>
          </gpxtpx:TrackPointExtension>
        </extensions>
      </trkpt>
      <trkpt lat="46.7767" lon="-1.61185">
        <ele>28.4</ele>
        <time>2024-05-10T07:27:17Z</time>
        <extensions>
          <gpxtpx:TrackPointExtension xmlns:gpxtpx="http://www.garmin.com/xmlschemas/TrackPointExtension/v1">
            <gpxtpx:hr>135</gpxtpx:hr>
          </gpxtpx:TrackPointExtension>
        </extensions>
      </trkpt>
      <trkpt lat="46.7767" lon="-1.61187">
        <ele>28.4</ele>
        <time>2024-05-10T07:27:16Z</time>
        <extensions>
          <gpxtpx:TrackPointExtension xmlns:gpxtpx="http://www.garmin.com/xmlschemas/TrackPointExtension/v1">
            <gpxtpx:hr>135</gpxtpx:hr>
          </gpxtpx:TrackPointExtension>
        </extensions>
      </trkpt>
      <trkpt lat="46.77669" lon="-1.6119">
        <ele>28.4</ele>
        <time>2024-05-10T07:27:15Z</time>
        <extensions>
          <gpxtpx:TrackPointExtension xmlns:gpxtpx="http://www.garmin.com/xmlschemas/TrackPointExtension/v1">
            <gpxtpx:hr>135</gpxtpx:hr>
          </gpxtpx:TrackPointExtension>
        </extensions>
      </trkpt>
      <trkpt lat="46.77669" lon="-1.61192">
        <ele>28.2</ele>
        <time>2024-05-10T07:27:14Z</time>
        <extensions>
          <gpxtpx:TrackPointExtension xmlns:gpxtpx="http://www.garmin.com/xmlschemas/TrackPointExtension/v1">
            <gpxtpx:hr>135</gpxtpx:hr>
          </gpxtpx:TrackPointExtension>
        </extensions>
      </trkpt>
      <trkpt lat="46.7767" lon="-1.61193">
        <ele>28</ele>
        <time>2024-05-10T07:27:13Z</time>
        <extensions>
          <gpxtpx:TrackPointExtension xmlns:gpxtpx="http://www.garmin.com/xmlschemas/TrackPointExtension/v1">
            <gpxtpx:hr>135</gpxtpx:hr>
          </gpxtpx:TrackPointExtension>
        </extensions>
      </trkpt>
      <trkpt lat="46.77671" lon="-1.61195">
        <ele>28</ele>
        <time>2024-05-10T07:27:12Z</time>
        <extensions>
          <gpxtpx:TrackPointExtension xmlns:gpxtpx="http://www.garmin.com/xmlschemas/TrackPointExtension/v1">
            <gpxtpx:hr>135</gpxtpx:hr>
          </gpxtpx:TrackPointExtension>
        </extensions>
      </trkpt>
      <trkpt lat="46.77672" lon="-1.61196">
        <ele>27.8</ele>
        <time>2024-05-10T07:27:11Z</time>
        <extensions>
          <gpxtpx:TrackPointExtension xmlns:gpxtpx="http://www.garmin.com/xmlschemas/TrackPointExtension/v1">
            <gpxtpx:hr>134</gpxtpx:hr>
          </gpxtpx:TrackPointExtension>
        </extensions>
      </trkpt>
      <trkpt lat="46.77673" lon="-1.61197">
        <ele>27.6</ele>
        <time>2024-05-10T07:27:10Z</time>
        <extensions>
          <gpxtpx:TrackPointExtension xmlns:gpxtpx="http://www.garmin.com/xmlschemas/TrackPointExtension/v1">
            <gpxtpx:hr>133</gpxtpx:hr>
          </gpxtpx:TrackPointExtension>
        </extensions>
      </trkpt>
      <trkpt lat="46.77675" lon="-1.61198">
        <ele>27.4</ele>
        <time>2024-05-10T07:27:09Z</time>
        <extensions>
          <gpxtpx:TrackPointExtension xmlns:gpxtpx="http://www.garmin.com/xmlschemas/TrackPointExtension/v1">
            <gpxtpx:hr>133</gpxtpx:hr>
          </gpxtpx:TrackPointExtension>
        </extensions>
      </trkpt>
      <trkpt lat="46.77676" lon="-1.612">
        <ele>27.4</ele>
        <time>2024-05-10T07:27:08Z</time>
        <extensions>
          <gpxtpx:TrackPointExtension xmlns:gpxtpx="http://www.garmin.com/xmlschemas/TrackPointExtension/v1">
            <gpxtpx:hr>132</gpxtpx:hr>
          </gpxtpx:TrackPointExtension>
        </extensions>
      </trkpt>
      <trkpt lat="46.77677" lon="-1.61202">
        <ele>27.2</ele>
        <time>2024-05-10T07:27:07Z</time>
        <extensions>
          <gpxtpx:TrackPointExtension xmlns:gpxtpx="http://www.garmin.com/xmlschemas/TrackPointExtension/v1">
            <gpxtpx:hr>132</gpxtpx:hr>
          </gpxtpx:TrackPointExtension>
        </extensions>
      </trkpt>
      <trkpt lat="46.77678" lon="-1.61205">
        <ele>27</ele>
        <time>2024-05-10T07:27:06Z</time>
        <extensions>
          <gpxtpx:TrackPointExtension xmlns:gpxtpx="http://www.garmin.com/xmlschemas/TrackPointExtension/v1">
            <gpxtpx:hr>132</gpxtpx:hr>
          </gpxtpx:TrackPointExtension>
        </extensions>
      </trkpt>
      <trkpt lat="46.77679" lon="-1.61208">
        <ele>26.8</ele>
        <time>2024-05-10T07:27:05Z</time>
        <extensions>
          <gpxtpx:TrackPointExtension xmlns:gpxtpx="http://www.garmin.com/xmlschemas/TrackPointExtension/v1">
            <gpxtpx:hr>131</gpxtpx:hr>
          </gpxtpx:TrackPointExtension>
        </extensions>
      </trkpt>
      <trkpt lat="46.77679" lon="-1.61211">
        <ele>26.6</ele>
        <time>2024-05-10T07:27:04Z</time>
        <extensions>
          <gpxtpx:TrackPointExtension xmlns:gpxtpx="http://www.garmin.com/xmlschemas/TrackPointExtension/v1">
            <gpxtpx:hr>131</gpxtpx:hr>
          </gpxtpx:TrackPointExtension>
        </extensions>
      </trkpt>
      <trkpt lat="46.7768" lon="-1.61213">
        <ele>26.6</ele>
        <time>2024-05-10T07:27:03Z</time>
        <extensions>
          <gpxtpx:TrackPointExtension xmlns:gpxtpx="http://www.garmin.com/xmlschemas/TrackPointExtension/v1">
            <gpxtpx:hr>130</gpxtpx:hr>
          </gpxtpx:TrackPointExtension>
        </extensions>
      </trkpt>
      <trkpt lat="46.77682" lon="-1.61214">
        <ele>26.4</ele>
        <time>2024-05-10T07:27:02Z</time>
        <extensions>
          <gpxtpx:TrackPointExtension xmlns:gpxtpx="http://www.garmin.com/xmlschemas/TrackPointExtension/v1">
            <gpxtpx:hr>130</gpxtpx:hr>
          </gpxtpx:TrackPointExtension>
        </extensions>
      </trkpt>
      <trkpt lat="46.77684" lon="-1.61213">
        <ele>26.2</ele>
        <time>2024-05-10T07:27:01Z</time>
        <extensions>
          <gpxtpx:TrackPointExtension xmlns:gpxtpx="http://www.garmin.com/xmlschemas/TrackPointExtension/v1">
            <gpxtpx:hr>129</gpxtpx:hr>
          </gpxtpx:TrackPointExtension>
        </extensions>
      </trkpt>
      <trkpt lat="46.77687" lon="-1.61212">
        <ele>26.2</ele>
        <time>2024-05-10T07:27:00Z</time>
        <extensions>
          <gpxtpx:TrackPointExtension xmlns:gpxtpx="http://www.garmin.com/xmlschemas/TrackPointExtension/v1">
            <gpxtpx:hr>129</gpxtpx:hr>
          </gpxtpx:TrackPointExtension>
        </extensions>
      </trkpt>
      <trkpt lat="46.7769" lon="-1.61211">
        <ele>26</ele>
        <time>2024-05-10T07:26:59Z</time>
        <extensions>
          <gpxtpx:TrackPointExtension xmlns:gpxtpx="http://www.garmin.com/xmlschemas/TrackPointExtension/v1">
            <gpxtpx:hr>128</gpxtpx:hr>
          </gpxtpx:TrackPointExtension>
        </extensions>
      </trkpt>
      <trkpt lat="46.77693" lon="-1.61211">
        <ele>26</ele>
        <time>2024-05-10T07:26:58Z</time>
        <extensions>
          <gpxtpx:TrackPointExtension xmlns:gpxtpx="http://www.garmin.com/xmlschemas/TrackPointExtension/v1">
            <gpxtpx:hr>128</gpxtpx:hr>
          </gpxtpx:TrackPointExtension>
        </extensions>
      </trkpt>
      <trkpt lat="46.77696" lon="-1.61212">
        <ele>25.8</ele>
        <time>2024-05-10T07:26:57Z</time>
        <extensions>
          <gpxtpx:TrackPointExtension xmlns:gpxtpx="http://www.garmin.com/xmlschemas/TrackPointExtension/v1">
            <gpxtpx:hr>128</gpxtpx:hr>
          </gpxtpx:TrackPointExtension>
        </extensions>
      </trkpt>
      <trkpt lat="46.77697" lon="-1.61215">
        <ele>25.6</ele>
        <time>2024-05-10T07:26:56Z</time>
        <extensions>
          <gpxtpx:TrackPointExtension xmlns:gpxtpx="http://www.garmin.com/xmlschemas/TrackPointExtension/v1">
            <gpxtpx:hr>129</gpxtpx:hr>
          </gpxtpx:TrackPointExtension>
        </extensions>
      </trkpt>
      <trkpt lat="46.77698" lon="-1.61219">
        <ele>25.6</ele>
        <time>2024-05-10T07:26:55Z</time>
        <extensions>
          <gpxtpx:TrackPointExtension xmlns:gpxtpx="http://www.garmin.com/xmlschemas/TrackPointExtension/v1">
            <gpxtpx:hr>129</gpxtpx:hr>
          </gpxtpx:TrackPointExtension>
        </extensions>
      </trkpt>
      <trkpt lat="46.777" lon="-1.61222">
        <ele>25.4</ele>
        <time>2024-05-10T07:26:54Z</time>
        <extensions>
          <gpxtpx:TrackPointExtension xmlns:gpxtpx="http://www.garmin.com/xmlschemas/TrackPointExtension/v1">
            <gpxtpx:hr>129</gpxtpx:hr>
          </gpxtpx:TrackPointExtension>
        </extensions>
      </trkpt>
      <trkpt lat="46.77701" lon="-1.61225">
        <ele>25.4</ele>
        <time>2024-05-10T07:26:53Z</time>
        <extensions>
          <gpxtpx:TrackPointExtension xmlns:gpxtpx="http://www.garmin.com/xmlschemas/TrackPointExtension/v1">
            <gpxtpx:hr>129</gpxtpx:hr>
          </gpxtpx:TrackPointExtension>
        </extensions>
      </trkpt>
      <trkpt lat="46.77702" lon="-1.61228">
        <ele>25.2</ele>
        <time>2024-05-10T07:26:52Z</time>
        <extensions>
          <gpxtpx:TrackPointExtension xmlns:gpxtpx="http://www.garmin.com/xmlschemas/TrackPointExtension/v1">
            <gpxtpx:hr>129</gpxtpx:hr>
          </gpxtpx:TrackPointExtension>
        </extensions>
      </trkpt>
      <trkpt lat="46.77703" lon="-1.6123">
        <ele>25.2</ele>
        <time>2024-05-10T07:26:51Z</time>
        <extensions>
          <gpxtpx:TrackPointExtension xmlns:gpxtpx="http://www.garmin.com/xmlschemas/TrackPointExtension/v1">
            <gpxtpx:hr>128</gpxtpx:hr>
          </gpxtpx:TrackPointExtension>
        </extensions>
      </trkpt>
      <trkpt lat="46.77704" lon="-1.61232">
        <ele>25</ele>
        <time>2024-05-10T07:26:50Z</time>
        <extensions>
          <gpxtpx:TrackPointExtension xmlns:gpxtpx="http://www.garmin.com/xmlschemas/TrackPointExtension/v1">
            <gpxtpx:hr>128</gpxtpx:hr>
          </gpxtpx:TrackPointExtension>
        </extensions>
      </trkpt>
      <trkpt lat="46.77704" lon="-1.61232">
        <ele>25</ele>
        <time>2024-05-10T07:26:49Z</time>
        <extensions>
          <gpxtpx:TrackPointExtension xmlns:gpxtpx="http://www.garmin.com/xmlschemas/TrackPointExtension/v1">
            <gpxtpx:hr>125</gpxtpx:hr>
          </gpxtpx:TrackPointExtension>
        </extensions>
      </trkpt>
      <trkpt lat="46.77704" lon="-1.61233">
        <ele>25</ele>
        <time>2024-05-10T07:26:48Z</time>
        <extensions>
          <gpxtpx:TrackPointExtension xmlns:gpxtpx="http://www.garmin.com/xmlschemas/TrackPointExtension/v1">
            <gpxtpx:hr>124</gpxtpx:hr>
          </gpxtpx:TrackPointExtension>
        </extensions>
      </trkpt>
      <trkpt lat="46.77704" lon="-1.61233">
        <ele>24.8</ele>
        <time>2024-05-10T07:26:47Z</time>
        <extensions>
          <gpxtpx:TrackPointExtension xmlns:gpxtpx="http://www.garmin.com/xmlschemas/TrackPointExtension/v1">
            <gpxtpx:hr>124</gpxtpx:hr>
          </gpxtpx:TrackPointExtension>
        </extensions>
      </trkpt>
      <trkpt lat="46.77704" lon="-1.61233">
        <ele>24.8</ele>
        <time>2024-05-10T07:26:45Z</time>
        <extensions>
          <gpxtpx:TrackPointExtension xmlns:gpxtpx="http://www.garmin.com/xmlschemas/TrackPointExtension/v1">
            <gpxtpx:hr>124</gpxtpx:hr>
          </gpxtpx:TrackPointExtension>
        </extensions>
      </trkpt>
      <trkpt lat="46.77704" lon="-1.61233">
        <ele>24.8</ele>
        <time>2024-05-10T07:26:44Z</time>
        <extensions>
          <gpxtpx:TrackPointExtension xmlns:gpxtpx="http://www.garmin.com/xmlschemas/TrackPointExtension/v1">
            <gpxtpx:hr>124</gpxtpx:hr>
          </gpxtpx:TrackPointExtension>
        </extensions>
      </trkpt>
      <trkpt lat="46.77704" lon="-1.61233">
        <ele>24.8</ele>
        <time>2024-05-10T07:26:43Z</time>
        <extensions>
          <gpxtpx:TrackPointExtension xmlns:gpxtpx="http://www.garmin.com/xmlschemas/TrackPointExtension/v1">
            <gpxtpx:hr>125</gpxtpx:hr>
          </gpxtpx:TrackPointExtension>
        </extensions>
      </trkpt>
      <trkpt lat="46.77704" lon="-1.61233">
        <ele>24.6</ele>
        <time>2024-05-10T07:26:42Z</time>
        <extensions>
          <gpxtpx:TrackPointExtension xmlns:gpxtpx="http://www.garmin.com/xmlschemas/TrackPointExtension/v1">
            <gpxtpx:hr>127</gpxtpx:hr>
          </gpxtpx:TrackPointExtension>
        </extensions>
      </trkpt>
      <trkpt lat="46.77705" lon="-1.61234">
        <ele>24.6</ele>
        <time>2024-05-10T07:26:41Z</time>
        <extensions>
          <gpxtpx:TrackPointExtension xmlns:gpxtpx="http://www.garmin.com/xmlschemas/TrackPointExtension/v1">
            <gpxtpx:hr>127</gpxtpx:hr>
          </gpxtpx:TrackPointExtension>
        </extensions>
      </trkpt>
      <trkpt lat="46.77705" lon="-1.61235">
        <ele>24.4</ele>
        <time>2024-05-10T07:26:40Z</time>
        <extensions>
          <gpxtpx:TrackPointExtension xmlns:gpxtpx="http://www.garmin.com/xmlschemas/TrackPointExtension/v1">
            <gpxtpx:hr>128</gpxtpx:hr>
          </gpxtpx:TrackPointExtension>
        </extensions>
      </trkpt>
      <trkpt lat="46.77705" lon="-1.61236">
        <ele>24.2</ele>
        <time>2024-05-10T07:26:39Z</time>
        <extensions>
          <gpxtpx:TrackPointExtension xmlns:gpxtpx="http://www.garmin.com/xmlschemas/TrackPointExtension/v1">
            <gpxtpx:hr>129</gpxtpx:hr>
          </gpxtpx:TrackPointExtension>
        </extensions>
      </trkpt>
      <trkpt lat="46.77706" lon="-1.61237">
        <ele>24.2</ele>
        <time>2024-05-10T07:26:38Z</time>
        <extensions>
          <gpxtpx:TrackPointExtension xmlns:gpxtpx="http://www.garmin.com/xmlschemas/TrackPointExtension/v1">
            <gpxtpx:hr>130</gpxtpx:hr>
          </gpxtpx:TrackPointExtension>
        </extensions>
      </trkpt>
      <trkpt lat="46.77706" lon="-1.61238">
        <ele>24</ele>
        <time>2024-05-10T07:26:37Z</time>
        <extensions>
          <gpxtpx:TrackPointExtension xmlns:gpxtpx="http://www.garmin.com/xmlschemas/TrackPointExtension/v1">
            <gpxtpx:hr>130</gpxtpx:hr>
          </gpxtpx:TrackPointExtension>
        </extensions>
      </trkpt>
      <trkpt lat="46.77706" lon="-1.61238">
        <ele>23.8</ele>
        <time>2024-05-10T07:26:36Z</time>
        <extensions>
          <gpxtpx:TrackPointExtension xmlns:gpxtpx="http://www.garmin.com/xmlschemas/TrackPointExtension/v1">
            <gpxtpx:hr>130</gpxtpx:hr>
          </gpxtpx:TrackPointExtension>
        </extensions>
      </trkpt>
      <trkpt lat="46.77706" lon="-1.61239">
        <ele>23.8</ele>
        <time>2024-05-10T07:26:35Z</time>
        <extensions>
          <gpxtpx:TrackPointExtension xmlns:gpxtpx="http://www.garmin.com/xmlschemas/TrackPointExtension/v1">
            <gpxtpx:hr>130</gpxtpx:hr>
          </gpxtpx:TrackPointExtension>
        </extensions>
      </trkpt>
      <trkpt lat="46.77706" lon="-1.6124">
        <ele>23.6</ele>
        <time>2024-05-10T07:26:34Z</time>
        <extensions>
          <gpxtpx:TrackPointExtension xmlns:gpxtpx="http://www.garmin.com/xmlschemas/TrackPointExtension/v1">
            <gpxtpx:hr>130</gpxtpx:hr>
          </gpxtpx:TrackPointExtension>
        </extensions>
      </trkpt>
      <trkpt lat="46.77707" lon="-1.6124">
        <ele>23.4</ele>
        <time>2024-05-10T07:26:33Z</time>
        <extensions>
          <gpxtpx:TrackPointExtension xmlns:gpxtpx="http://www.garmin.com/xmlschemas/TrackPointExtension/v1">
            <gpxtpx:hr>130</gpxtpx:hr>
          </gpxtpx:TrackPointExtension>
        </extensions>
      </trkpt>
      <trkpt lat="46.77707" lon="-1.6124">
        <ele>23.4</ele>
        <time>2024-05-10T07:26:32Z</time>
        <extensions>
          <gpxtpx:TrackPointExtension xmlns:gpxtpx="http://www.garmin.com/xmlschemas/TrackPointExtension/v1">
            <gpxtpx:hr>130</gpxtpx:hr>
          </gpxtpx:TrackPointExtension>
        </extensions>
      </trkpt>
      <trkpt lat="46.77707" lon="-1.61241">
        <ele>23.2</ele>
        <time>2024-05-10T07:26:31Z</time>
        <extensions>
          <gpxtpx:TrackPointExtension xmlns:gpxtpx="http://www.garmin.com/xmlschemas/TrackPointExtension/v1">
            <gpxtpx:hr>131</gpxtpx:hr>
          </gpxtpx:TrackPointExtension>
        </extensions>
      </trkpt>
      <trkpt lat="46.77707" lon="-1.61241">
        <ele>23.2</ele>
        <time>2024-05-10T07:26:30Z</time>
        <extensions>
          <gpxtpx:TrackPointExtension xmlns:gpxtpx="http://www.garmin.com/xmlschemas/TrackPointExtension/v1">
            <gpxtpx:hr>131</gpxtpx:hr>
          </gpxtpx:TrackPointExtension>
        </extensions>
      </trkpt>
      <trkpt lat="46.77707" lon="-1.61241">
        <ele>23.2</ele>
        <time>2024-05-10T07:26:29Z</time>
        <extensions>
          <gpxtpx:TrackPointExtension xmlns:gpxtpx="http://www.garmin.com/xmlschemas/TrackPointExtension/v1">
            <gpxtpx:hr>131</gpxtpx:hr>
          </gpxtpx:TrackPointExtension>
        </extensions>
      </trkpt>
      <trkpt lat="46.77706" lon="-1.61241">
        <ele>23.2</ele>
        <time>2024-05-10T07:26:28Z</time>
        <extensions>
          <gpxtpx:TrackPointExtension xmlns:gpxtpx="http://www.garmin.com/xmlschemas/TrackPointExtension/v1">
            <gpxtpx:hr>130</gpxtpx:hr>
          </gpxtpx:TrackPointExtension>
        </extensions>
      </trkpt>
      <trkpt lat="46.77706" lon="-1.61242">
        <ele>23.2</ele>
        <time>2024-05-10T07:26:27Z</time>
        <extensions>
          <gpxtpx:TrackPointExtension xmlns:gpxtpx="http://www.garmin.com/xmlschemas/TrackPointExtension/v1">
            <gpxtpx:hr>130</gpxtpx:hr>
          </gpxtpx:TrackPointExtension>
        </extensions>
      </trkpt>
      <trkpt lat="46.77705" lon="-1.61243">
        <ele>23.2</ele>
        <time>2024-05-10T07:26:26Z</time>
        <extensions>
          <gpxtpx:TrackPointExtension xmlns:gpxtpx="http://www.garmin.com/xmlschemas/TrackPointExtension/v1">
            <gpxtpx:hr>130</gpxtpx:hr>
          </gpxtpx:TrackPointExtension>
        </extensions>
      </trkpt>
      <trkpt lat="46.77704" lon="-1.61245">
        <ele>23.2</ele>
        <time>2024-05-10T07:26:25Z</time>
        <extensions>
          <gpxtpx:TrackPointExtension xmlns:gpxtpx="http://www.garmin.com/xmlschemas/TrackPointExtension/v1">
            <gpxtpx:hr>129</gpxtpx:hr>
          </gpxtpx:TrackPointExtension>
        </extensions>
      </trkpt>
      <trkpt lat="46.77703" lon="-1.61247">
        <ele>23.4</ele>
        <time>2024-05-10T07:26:24Z</time>
        <extensions>
          <gpxtpx:TrackPointExtension xmlns:gpxtpx="http://www.garmin.com/xmlschemas/TrackPointExtension/v1">
            <gpxtpx:hr>129</gpxtpx:hr>
          </gpxtpx:TrackPointExtension>
        </extensions>
      </trkpt>
      <trkpt lat="46.77702" lon="-1.61249">
        <ele>23.4</ele>
        <time>2024-05-10T07:26:23Z</time>
        <extensions>
          <gpxtpx:TrackPointExtension xmlns:gpxtpx="http://www.garmin.com/xmlschemas/TrackPointExtension/v1">
            <gpxtpx:hr>129</gpxtpx:hr>
          </gpxtpx:TrackPointExtension>
        </extensions>
      </trkpt>
      <trkpt lat="46.77702" lon="-1.61251">
        <ele>23.4</ele>
        <time>2024-05-10T07:26:22Z</time>
        <extensions>
          <gpxtpx:TrackPointExtension xmlns:gpxtpx="http://www.garmin.com/xmlschemas/TrackPointExtension/v1">
            <gpxtpx:hr>129</gpxtpx:hr>
          </gpxtpx:TrackPointExtension>
        </extensions>
      </trkpt>
      <trkpt lat="46.77701" lon="-1.61252">
        <ele>23.4</ele>
        <time>2024-05-10T07:26:21Z</time>
        <extensions>
          <gpxtpx:TrackPointExtension xmlns:gpxtpx="http://www.garmin.com/xmlschemas/TrackPointExtension/v1">
            <gpxtpx:hr>131</gpxtpx:hr>
          </gpxtpx:TrackPointExtension>
        </extensions>
      </trkpt>
      <trkpt lat="46.777" lon="-1.61256">
        <ele>23.6</ele>
        <time>2024-05-10T07:26:20Z</time>
        <extensions>
          <gpxtpx:TrackPointExtension xmlns:gpxtpx="http://www.garmin.com/xmlschemas/TrackPointExtension/v1">
            <gpxtpx:hr>131</gpxtpx:hr>
          </gpxtpx:TrackPointExtension>
        </extensions>
      </trkpt>
      <trkpt lat="46.77699" lon="-1.61259">
        <ele>23.6</ele>
        <time>2024-05-10T07:26:19Z</time>
        <extensions>
          <gpxtpx:TrackPointExtension xmlns:gpxtpx="http://www.garmin.com/xmlschemas/TrackPointExtension/v1">
            <gpxtpx:hr>131</gpxtpx:hr>
          </gpxtpx:TrackPointExtension>
        </extensions>
      </trkpt>
      <trkpt lat="46.77798" lon="-1.61036">
        <ele>21.3</ele>
      </trkpt>
      <trkpt lat="46.77848" lon="-1.60973">
        <ele>20.4</ele>
      </trkpt>
      <trkpt lat="46.77882" lon="-1.60967">
        <ele>19.3</ele>
      </trkpt>
      <trkpt lat="46.77952" lon="-1.61042">
        <ele>18.6</ele>
      </trkpt>
      <trkpt lat="46.78014" lon="-1.61089">
        <ele>19.9</ele>
      </trkpt>
      <trkpt lat="46.78014" lon="-1.61179">
        <ele>19.3</ele>
      </trkpt>
      <trkpt lat="46.78061" lon="-1.61186">
        <ele>22.4</ele>
      </trkpt>
      <trkpt lat="46.78131" lon="-1.61104">
        <ele>26.9</ele>
      </trkpt>
      <trkpt lat="46.78123" lon="-1.60858">
        <ele>27</ele>
      </trkpt>
      <trkpt lat="46.7819" lon="-1.60707">
        <ele>24.9</ele>
      </trkpt>
      <trkpt lat="46.78216" lon="-1.60685">
        <ele>26.2</ele>
        <time>2024-05-10T07:36:28Z</time>
        <extensions>
          <gpxtpx:TrackPointExtension xmlns:gpxtpx="http://www.garmin.com/xmlschemas/TrackPointExtension/v1">
            <gpxtpx:hr>148</gpxtpx:hr>
          </gpxtpx:TrackPointExtension>
        </extensions>
      </trkpt>
      <trkpt lat="46.78217" lon="-1.60684">
        <ele>26.6</ele>
        <time>2024-05-10T07:36:29Z</time>
        <extensions>
          <gpxtpx:TrackPointExtension xmlns:gpxtpx="http://www.garmin.com/xmlschemas/TrackPointExtension/v1">
            <gpxtpx:hr>148</gpxtpx:hr>
          </gpxtpx:TrackPointExtension>
        </extensions>
      </trkpt>
      <trkpt lat="46.78218" lon="-1.60683">
        <ele>27</ele>
        <time>2024-05-10T07:36:30Z</time>
        <extensions>
          <gpxtpx:TrackPointExtension xmlns:gpxtpx="http://www.garmin.com/xmlschemas/TrackPointExtension/v1">
            <gpxtpx:hr>148</gpxtpx:hr>
          </gpxtpx:TrackPointExtension>
        </extensions>
      </trkpt>
      <trkpt lat="46.7822" lon="-1.60681">
        <ele>27.2</ele>
        <time>2024-05-10T07:36:31Z</time>
        <extensions>
          <gpxtpx:TrackPointExtension xmlns:gpxtpx="http://www.garmin.com/xmlschemas/TrackPointExtension/v1">
            <gpxtpx:hr>148</gpxtpx:hr>
          </gpxtpx:TrackPointExtension>
        </extensions>
      </trkpt>
      <trkpt lat="46.78221" lon="-1.60679">
        <ele>27.6</ele>
        <time>2024-05-10T07:36:32Z</time>
        <extensions>
          <gpxtpx:TrackPointExtension xmlns:gpxtpx="http://www.garmin.com/xmlschemas/TrackPointExtension/v1">
            <gpxtpx:hr>149</gpxtpx:hr>
          </gpxtpx:TrackPointExtension>
        </extensions>
      </trkpt>
      <trkpt lat="46.78222" lon="-1.60677">
        <ele>27.8</ele>
        <time>2024-05-10T07:36:33Z</time>
        <extensions>
          <gpxtpx:TrackPointExtension xmlns:gpxtpx="http://www.garmin.com/xmlschemas/TrackPointExtension/v1">
            <gpxtpx:hr>150</gpxtpx:hr>
          </gpxtpx:TrackPointExtension>
        </extensions>
      </trkpt>
      <trkpt lat="46.78223" lon="-1.60674">
        <ele>28.2</ele>
        <time>2024-05-10T07:36:34Z</time>
        <extensions>
          <gpxtpx:TrackPointExtension xmlns:gpxtpx="http://www.garmin.com/xmlschemas/TrackPointExtension/v1">
            <gpxtpx:hr>150</gpxtpx:hr>
          </gpxtpx:TrackPointExtension>
        </extensions>
      </trkpt>
      <trkpt lat="46.78225" lon="-1.60672">
        <ele>28.4</ele>
        <time>2024-05-10T07:36:35Z</time>
        <extensions>
          <gpxtpx:TrackPointExtension xmlns:gpxtpx="http://www.garmin.com/xmlschemas/TrackPointExtension/v1">
            <gpxtpx:hr>151</gpxtpx:hr>
          </gpxtpx:TrackPointExtension>
        </extensions>
      </trkpt>
      <trkpt lat="46.78226" lon="-1.6067">
        <ele>28.6</ele>
        <time>2024-05-10T07:36:36Z</time>
        <extensions>
          <gpxtpx:TrackPointExtension xmlns:gpxtpx="http://www.garmin.com/xmlschemas/TrackPointExtension/v1">
            <gpxtpx:hr>152</gpxtpx:hr>
          </gpxtpx:TrackPointExtension>
        </extensions>
      </trkpt>
      <trkpt lat="46.78228" lon="-1.60667">
        <ele>29</ele>
        <time>2024-05-10T07:36:37Z</time>
        <extensions>
          <gpxtpx:TrackPointExtension xmlns:gpxtpx="http://www.garmin.com/xmlschemas/TrackPointExtension/v1">
            <gpxtpx:hr>154</gpxtpx:hr>
          </gpxtpx:TrackPointExtension>
        </extensions>
      </trkpt>
      <trkpt lat="46.78229" lon="-1.60665">
        <ele>29.2</ele>
        <time>2024-05-10T07:36:38Z</time>
        <extensions>
          <gpxtpx:TrackPointExtension xmlns:gpxtpx="http://www.garmin.com/xmlschemas/TrackPointExtension/v1">
            <gpxtpx:hr>154</gpxtpx:hr>
          </gpxtpx:TrackPointExtension>
        </extensions>
      </trkpt>
      <trkpt lat="46.78231" lon="-1.60663">
        <ele>29.6</ele>
        <time>2024-05-10T07:36:39Z</time>
        <extensions>
          <gpxtpx:TrackPointExtension xmlns:gpxtpx="http://www.garmin.com/xmlschemas/TrackPointExtension/v1">
            <gpxtpx:hr>155</gpxtpx:hr>
          </gpxtpx:TrackPointExtension>
        </extensions>
      </trkpt>
      <trkpt lat="46.78232" lon="-1.60661">
        <ele>29.8</ele>
        <time>2024-05-10T07:36:40Z</time>
        <extensions>
          <gpxtpx:TrackPointExtension xmlns:gpxtpx="http://www.garmin.com/xmlschemas/TrackPointExtension/v1">
            <gpxtpx:hr>155</gpxtpx:hr>
          </gpxtpx:TrackPointExtension>
        </extensions>
      </trkpt>
      <trkpt lat="46.78234" lon="-1.6066">
        <ele>30.2</ele>
        <time>2024-05-10T07:36:41Z</time>
        <extensions>
          <gpxtpx:TrackPointExtension xmlns:gpxtpx="http://www.garmin.com/xmlschemas/TrackPointExtension/v1">
            <gpxtpx:hr>155</gpxtpx:hr>
          </gpxtpx:TrackPointExtension>
        </extensions>
      </trkpt>
      <trkpt lat="46.78235" lon="-1.60659">
        <ele>30.4</ele>
        <time>2024-05-10T07:36:42Z</time>
        <extensions>
          <gpxtpx:TrackPointExtension xmlns:gpxtpx="http://www.garmin.com/xmlschemas/TrackPointExtension/v1">
            <gpxtpx:hr>156</gpxtpx:hr>
          </gpxtpx:TrackPointExtension>
        </extensions>
      </trkpt>
      <trkpt lat="46.78236" lon="-1.60658">
        <ele>30.6</ele>
        <time>2024-05-10T07:36:43Z</time>
        <extensions>
          <gpxtpx:TrackPointExtension xmlns:gpxtpx="http://www.garmin.com/xmlschemas/TrackPointExtension/v1">
            <gpxtpx:hr>157</gpxtpx:hr>
          </gpxtpx:TrackPointExtension>
        </extensions>
      </trkpt>
      <trkpt lat="46.78238" lon="-1.60657">
        <ele>31</ele>
        <time>2024-05-10T07:36:44Z</time>
        <extensions>
          <gpxtpx:TrackPointExtension xmlns:gpxtpx="http://www.garmin.com/xmlschemas/TrackPointExtension/v1">
            <gpxtpx:hr>157</gpxtpx:hr>
          </gpxtpx:TrackPointExtension>
        </extensions>
      </trkpt>
      <trkpt lat="46.7824" lon="-1.60656">
        <ele>31.2</ele>
        <time>2024-05-10T07:36:45Z</time>
        <extensions>
          <gpxtpx:TrackPointExtension xmlns:gpxtpx="http://www.garmin.com/xmlschemas/TrackPointExtension/v1">
            <gpxtpx:hr>158</gpxtpx:hr>
          </gpxtpx:TrackPointExtension>
        </extensions>
      </trkpt>
      <trkpt lat="46.78242" lon="-1.60654">
        <ele>31.4</ele>
        <time>2024-05-10T07:36:46Z</time>
        <extensions>
          <gpxtpx:TrackPointExtension xmlns:gpxtpx="http://www.garmin.com/xmlschemas/TrackPointExtension/v1">
            <gpxtpx:hr>158</gpxtpx:hr>
          </gpxtpx:TrackPointExtension>
        </extensions>
      </trkpt>
      <trkpt lat="46.78244" lon="-1.60652">
        <ele>31.8</ele>
        <time>2024-05-10T07:36:47Z</time>
        <extensions>
          <gpxtpx:TrackPointExtension xmlns:gpxtpx="http://www.garmin.com/xmlschemas/TrackPointExtension/v1">
            <gpxtpx:hr>158</gpxtpx:hr>
          </gpxtpx:TrackPointExtension>
        </extensions>
      </trkpt>
      <trkpt lat="46.78246" lon="-1.6065">
        <ele>32</ele>
        <time>2024-05-10T07:36:48Z</time>
        <extensions>
          <gpxtpx:TrackPointExtension xmlns:gpxtpx="http://www.garmin.com/xmlschemas/TrackPointExtension/v1">
            <gpxtpx:hr>158</gpxtpx:hr>
          </gpxtpx:TrackPointExtension>
        </extensions>
      </trkpt>
      <trkpt lat="46.78247" lon="-1.60648">
        <ele>32</ele>
        <time>2024-05-10T07:36:49Z</time>
        <extensions>
          <gpxtpx:TrackPointExtension xmlns:gpxtpx="http://www.garmin.com/xmlschemas/TrackPointExtension/v1">
            <gpxtpx:hr>158</gpxtpx:hr>
          </gpxtpx:TrackPointExtension>
        </extensions>
      </trkpt>
      <trkpt lat="46.78249" lon="-1.60645">
        <ele>32.2</ele>
        <time>2024-05-10T07:36:50Z</time>
        <extensions>
          <gpxtpx:TrackPointExtension xmlns:gpxtpx="http://www.garmin.com/xmlschemas/TrackPointExtension/v1">
            <gpxtpx:hr>158</gpxtpx:hr>
          </gpxtpx:TrackPointExtension>
        </extensions>
      </trkpt>
      <trkpt lat="46.78251" lon="-1.60643">
        <ele>32.2</ele>
        <time>2024-05-10T07:36:51Z</time>
        <extensions>
          <gpxtpx:TrackPointExtension xmlns:gpxtpx="http://www.garmin.com/xmlschemas/TrackPointExtension/v1">
            <gpxtpx:hr>158</gpxtpx:hr>
          </gpxtpx:TrackPointExtension>
        </extensions>
      </trkpt>
      <trkpt lat="46.78252" lon="-1.6064">
        <ele>32.2</ele>
        <time>2024-05-10T07:36:52Z</time>
        <extensions>
          <gpxtpx:TrackPointExtension xmlns:gpxtpx="http://www.garmin.com/xmlschemas/TrackPointExtension/v1">
            <gpxtpx:hr>158</gpxtpx:hr>
          </gpxtpx:TrackPointExtension>
        </extensions>
      </trkpt>
      <trkpt lat="46.78254" lon="-1.60638">
        <ele>32.2</ele>
        <time>2024-05-10T07:36:53Z</time>
        <extensions>
          <gpxtpx:TrackPointExtension xmlns:gpxtpx="http://www.garmin.com/xmlschemas/TrackPointExtension/v1">
            <gpxtpx:hr>159</gpxtpx:hr>
          </gpxtpx:TrackPointExtension>
        </extensions>
      </trkpt>
      <trkpt lat="46.78256" lon="-1.60635">
        <ele>32.4</ele>
        <time>2024-05-10T07:36:54Z</time>
        <extensions>
          <gpxtpx:TrackPointExtension xmlns:gpxtpx="http://www.garmin.com/xmlschemas/TrackPointExtension/v1">
            <gpxtpx:hr>159</gpxtpx:hr>
          </gpxtpx:TrackPointExtension>
        </extensions>
      </trkpt>
      <trkpt lat="46.78258" lon="-1.60633">
        <ele>32.4</ele>
        <time>2024-05-10T07:36:55Z</time>
        <extensions>
          <gpxtpx:TrackPointExtension xmlns:gpxtpx="http://www.garmin.com/xmlschemas/TrackPointExtension/v1">
            <gpxtpx:hr>159</gpxtpx:hr>
          </gpxtpx:TrackPointExtension>
        </extensions>
      </trkpt>
      <trkpt lat="46.78259" lon="-1.6063">
        <ele>32.6</ele>
        <time>2024-05-10T07:36:56Z</time>
        <extensions>
          <gpxtpx:TrackPointExtension xmlns:gpxtpx="http://www.garmin.com/xmlschemas/TrackPointExtension/v1">
            <gpxtpx:hr>159</gpxtpx:hr>
          </gpxtpx:TrackPointExtension>
        </extensions>
      </trkpt>
      <trkpt lat="46.78261" lon="-1.60628">
        <ele>32.8</ele>
        <time>2024-05-10T07:36:57Z</time>
        <extensions>
          <gpxtpx:TrackPointExtension xmlns:gpxtpx="http://www.garmin.com/xmlschemas/TrackPointExtension/v1">
            <gpxtpx:hr>158</gpxtpx:hr>
          </gpxtpx:TrackPointExtension>
        </extensions>
      </trkpt>
      <trkpt lat="46.78262" lon="-1.60625">
        <ele>33</ele>
        <time>2024-05-10T07:36:58Z</time>
        <extensions>
          <gpxtpx:TrackPointExtension xmlns:gpxtpx="http://www.garmin.com/xmlschemas/TrackPointExtension/v1">
            <gpxtpx:hr>158</gpxtpx:hr>
          </gpxtpx:TrackPointExtension>
        </extensions>
      </trkpt>
      <trkpt lat="46.78264" lon="-1.60622">
        <ele>33.2</ele>
        <time>2024-05-10T07:36:59Z</time>
        <extensions>
          <gpxtpx:TrackPointExtension xmlns:gpxtpx="http://www.garmin.com/xmlschemas/TrackPointExtension/v1">
            <gpxtpx:hr>158</gpxtpx:hr>
          </gpxtpx:TrackPointExtension>
        </extensions>
      </trkpt>
      <trkpt lat="46.78265" lon="-1.60619">
        <ele>33.2</ele>
        <time>2024-05-10T07:37:00Z</time>
        <extensions>
          <gpxtpx:TrackPointExtension xmlns:gpxtpx="http://www.garmin.com/xmlschemas/TrackPointExtension/v1">
            <gpxtpx:hr>158</gpxtpx:hr>
          </gpxtpx:TrackPointExtension>
        </extensions>
      </trkpt>
      <trkpt lat="46.78267" lon="-1.60617">
        <ele>33.4</ele>
        <time>2024-05-10T07:37:01Z</time>
        <extensions>
          <gpxtpx:TrackPointExtension xmlns:gpxtpx="http://www.garmin.com/xmlschemas/TrackPointExtension/v1">
            <gpxtpx:hr>157</gpxtpx:hr>
          </gpxtpx:TrackPointExtension>
        </extensions>
      </trkpt>
      <trkpt lat="46.78268" lon="-1.60614">
        <ele>33.6</ele>
        <time>2024-05-10T07:37:02Z</time>
        <extensions>
          <gpxtpx:TrackPointExtension xmlns:gpxtpx="http://www.garmin.com/xmlschemas/TrackPointExtension/v1">
            <gpxtpx:hr>157</gpxtpx:hr>
          </gpxtpx:TrackPointExtension>
        </extensions>
      </trkpt>
      <trkpt lat="46.7827" lon="-1.60611">
        <ele>33.6</ele>
        <time>2024-05-10T07:37:03Z</time>
        <extensions>
          <gpxtpx:TrackPointExtension xmlns:gpxtpx="http://www.garmin.com/xmlschemas/TrackPointExtension/v1">
            <gpxtpx:hr>156</gpxtpx:hr>
          </gpxtpx:TrackPointExtension>
        </extensions>
      </trkpt>
      <trkpt lat="46.78271" lon="-1.60608">
        <ele>33.8</ele>
        <time>2024-05-10T07:37:04Z</time>
        <extensions>
          <gpxtpx:TrackPointExtension xmlns:gpxtpx="http://www.garmin.com/xmlschemas/TrackPointExtension/v1">
            <gpxtpx:hr>156</gpxtpx:hr>
          </gpxtpx:TrackPointExtension>
        </extensions>
      </trkpt>
      <trkpt lat="46.78273" lon="-1.60605">
        <ele>34</ele>
        <time>2024-05-10T07:37:05Z</time>
        <extensions>
          <gpxtpx:TrackPointExtension xmlns:gpxtpx="http://www.garmin.com/xmlschemas/TrackPointExtension/v1">
            <gpxtpx:hr>156</gpxtpx:hr>
          </gpxtpx:TrackPointExtension>
        </extensions>
      </trkpt>
      <trkpt lat="46.78274" lon="-1.60603">
        <ele>34.2</ele>
        <time>2024-05-10T07:37:06Z</time>
        <extensions>
          <gpxtpx:TrackPointExtension xmlns:gpxtpx="http://www.garmin.com/xmlschemas/TrackPointExtension/v1">
            <gpxtpx:hr>156</gpxtpx:hr>
          </gpxtpx:TrackPointExtension>
        </extensions>
      </trkpt>
      <trkpt lat="46.78275" lon="-1.606">
        <ele>34.4</ele>
        <time>2024-05-10T07:37:07Z</time>
        <extensions>
          <gpxtpx:TrackPointExtension xmlns:gpxtpx="http://www.garmin.com/xmlschemas/TrackPointExtension/v1">
            <gpxtpx:hr>156</gpxtpx:hr>
          </gpxtpx:TrackPointExtension>
        </extensions>
      </trkpt>
      <trkpt lat="46.78277" lon="-1.60598">
        <ele>34.6</ele>
        <time>2024-05-10T07:37:08Z</time>
        <extensions>
          <gpxtpx:TrackPointExtension xmlns:gpxtpx="http://www.garmin.com/xmlschemas/TrackPointExtension/v1">
            <gpxtpx:hr>156</gpxtpx:hr>
          </gpxtpx:TrackPointExtension>
        </extensions>
      </trkpt>
      <trkpt lat="46.78278" lon="-1.60595">
        <ele>34.6</ele>
        <time>2024-05-10T07:37:09Z</time>
        <extensions>
          <gpxtpx:TrackPointExtension xmlns:gpxtpx="http://www.garmin.com/xmlschemas/TrackPointExtension/v1">
            <gpxtpx:hr>156</gpxtpx:hr>
          </gpxtpx:TrackPointExtension>
        </extensions>
      </trkpt>
      <trkpt lat="46.78279" lon="-1.60592">
        <ele>34.8</ele>
        <time>2024-05-10T07:37:10Z</time>
        <extensions>
          <gpxtpx:TrackPointExtension xmlns:gpxtpx="http://www.garmin.com/xmlschemas/TrackPointExtension/v1">
            <gpxtpx:hr>155</gpxtpx:hr>
          </gpxtpx:TrackPointExtension>
        </extensions>
      </trkpt>
      <trkpt lat="46.7828" lon="-1.6059">
        <ele>35</ele>
        <time>2024-05-10T07:37:11Z</time>
        <extensions>
          <gpxtpx:TrackPointExtension xmlns:gpxtpx="http://www.garmin.com/xmlschemas/TrackPointExtension/v1">
            <gpxtpx:hr>155</gpxtpx:hr>
          </gpxtpx:TrackPointExtension>
        </extensions>
      </trkpt>
      <trkpt lat="46.78281" lon="-1.60587">
        <ele>35.2</ele>
        <time>2024-05-10T07:37:12Z</time>
        <extensions>
          <gpxtpx:TrackPointExtension xmlns:gpxtpx="http://www.garmin.com/xmlschemas/TrackPointExtension/v1">
            <gpxtpx:hr>155</gpxtpx:hr>
          </gpxtpx:TrackPointExtension>
        </extensions>
      </trkpt>
      <trkpt lat="46.78282" lon="-1.60584">
        <ele>35.4</ele>
        <time>2024-05-10T07:37:13Z</time>
        <extensions>
          <gpxtpx:TrackPointExtension xmlns:gpxtpx="http://www.garmin.com/xmlschemas/TrackPointExtension/v1">
            <gpxtpx:hr>155</gpxtpx:hr>
          </gpxtpx:TrackPointExtension>
        </extensions>
      </trkpt>
      <trkpt lat="46.78283" lon="-1.60581">
        <ele>35.4</ele>
        <time>2024-05-10T07:37:14Z</time>
        <extensions>
          <gpxtpx:TrackPointExtension xmlns:gpxtpx="http://www.garmin.com/xmlschemas/TrackPointExtension/v1">
            <gpxtpx:hr>155</gpxtpx:hr>
          </gpxtpx:TrackPointExtension>
        </extensions>
      </trkpt>
      <trkpt lat="46.78284" lon="-1.60578">
        <ele>35.6</ele>
        <time>2024-05-10T07:37:15Z</time>
        <extensions>
          <gpxtpx:TrackPointExtension xmlns:gpxtpx="http://www.garmin.com/xmlschemas/TrackPointExtension/v1">
            <gpxtpx:hr>154</gpxtpx:hr>
          </gpxtpx:TrackPointExtension>
        </extensions>
      </trkpt>
      <trkpt lat="46.78286" lon="-1.60575">
        <ele>35.8</ele>
        <time>2024-05-10T07:37:16Z</time>
        <extensions>
          <gpxtpx:TrackPointExtension xmlns:gpxtpx="http://www.garmin.com/xmlschemas/TrackPointExtension/v1">
            <gpxtpx:hr>153</gpxtpx:hr>
          </gpxtpx:TrackPointExtension>
        </extensions>
      </trkpt>
      <trkpt lat="46.78287" lon="-1.60572">
        <ele>36</ele>
        <time>2024-05-10T07:37:17Z</time>
        <extensions>
          <gpxtpx:TrackPointExtension xmlns:gpxtpx="http://www.garmin.com/xmlschemas/TrackPointExtension/v1">
            <gpxtpx:hr>153</gpxtpx:hr>
          </gpxtpx:TrackPointExtension>
        </extensions>
      </trkpt>
      <trkpt lat="46.78288" lon="-1.60569">
        <ele>36.2</ele>
        <time>2024-05-10T07:37:18Z</time>
        <extensions>
          <gpxtpx:TrackPointExtension xmlns:gpxtpx="http://www.garmin.com/xmlschemas/TrackPointExtension/v1">
            <gpxtpx:hr>153</gpxtpx:hr>
          </gpxtpx:TrackPointExtension>
        </extensions>
      </trkpt>
      <trkpt lat="46.78289" lon="-1.60567">
        <ele>36.4</ele>
        <time>2024-05-10T07:37:19Z</time>
        <extensions>
          <gpxtpx:TrackPointExtension xmlns:gpxtpx="http://www.garmin.com/xmlschemas/TrackPointExtension/v1">
            <gpxtpx:hr>153</gpxtpx:hr>
          </gpxtpx:TrackPointExtension>
        </extensions>
      </trkpt>
      <trkpt lat="46.7829" lon="-1.60564">
        <ele>36.6</ele>
        <time>2024-05-10T07:37:21Z</time>
        <extensions>
          <gpxtpx:TrackPointExtension xmlns:gpxtpx="http://www.garmin.com/xmlschemas/TrackPointExtension/v1">
            <gpxtpx:hr>153</gpxtpx:hr>
          </gpxtpx:TrackPointExtension>
        </extensions>
      </trkpt>
      <trkpt lat="46.78291" lon="-1.60561">
        <ele>36.8</ele>
        <time>2024-05-10T07:37:22Z</time>
        <extensions>
          <gpxtpx:TrackPointExtension xmlns:gpxtpx="http://www.garmin.com/xmlschemas/TrackPointExtension/v1">
            <gpxtpx:hr>153</gpxtpx:hr>
          </gpxtpx:TrackPointExtension>
        </extensions>
      </trkpt>
      <trkpt lat="46.78292" lon="-1.60558">
        <ele>37</ele>
        <time>2024-05-10T07:37:23Z</time>
        <extensions>
          <gpxtpx:TrackPointExtension xmlns:gpxtpx="http://www.garmin.com/xmlschemas/TrackPointExtension/v1">
            <gpxtpx:hr>153</gpxtpx:hr>
          </gpxtpx:TrackPointExtension>
        </extensions>
      </trkpt>
      <trkpt lat="46.78293" lon="-1.60555">
        <ele>37.2</ele>
        <time>2024-05-10T07:37:24Z</time>
        <extensions>
          <gpxtpx:TrackPointExtension xmlns:gpxtpx="http://www.garmin.com/xmlschemas/TrackPointExtension/v1">
            <gpxtpx:hr>153</gpxtpx:hr>
          </gpxtpx:TrackPointExtension>
        </extensions>
      </trkpt>
      <trkpt lat="46.78294" lon="-1.60551">
        <ele>37.2</ele>
        <time>2024-05-10T07:37:25Z</time>
        <extensions>
          <gpxtpx:TrackPointExtension xmlns:gpxtpx="http://www.garmin.com/xmlschemas/TrackPointExtension/v1">
            <gpxtpx:hr>153</gpxtpx:hr>
          </gpxtpx:TrackPointExtension>
        </extensions>
      </trkpt>
      <trkpt lat="46.78295" lon="-1.60548">
        <ele>37.4</ele>
        <time>2024-05-10T07:37:26Z</time>
        <extensions>
          <gpxtpx:TrackPointExtension xmlns:gpxtpx="http://www.garmin.com/xmlschemas/TrackPointExtension/v1">
            <gpxtpx:hr>153</gpxtpx:hr>
          </gpxtpx:TrackPointExtension>
        </extensions>
      </trkpt>
      <trkpt lat="46.78296" lon="-1.60545">
        <ele>37.4</ele>
        <time>2024-05-10T07:37:27Z</time>
        <extensions>
          <gpxtpx:TrackPointExtension xmlns:gpxtpx="http://www.garmin.com/xmlschemas/TrackPointExtension/v1">
            <gpxtpx:hr>152</gpxtpx:hr>
          </gpxtpx:TrackPointExtension>
        </extensions>
      </trkpt>
      <trkpt lat="46.78298" lon="-1.60541">
        <ele>37.4</ele>
        <time>2024-05-10T07:37:28Z</time>
        <extensions>
          <gpxtpx:TrackPointExtension xmlns:gpxtpx="http://www.garmin.com/xmlschemas/TrackPointExtension/v1">
            <gpxtpx:hr>152</gpxtpx:hr>
          </gpxtpx:TrackPointExtension>
        </extensions>
      </trkpt>
      <trkpt lat="46.78299" lon="-1.60537">
        <ele>37.4</ele>
        <time>2024-05-10T07:37:29Z</time>
        <extensions>
          <gpxtpx:TrackPointExtension xmlns:gpxtpx="http://www.garmin.com/xmlschemas/TrackPointExtension/v1">
            <gpxtpx:hr>152</gpxtpx:hr>
          </gpxtpx:TrackPointExtension>
        </extensions>
      </trkpt>
      <trkpt lat="46.783" lon="-1.60533">
        <ele>37.4</ele>
        <time>2024-05-10T07:37:30Z</time>
        <extensions>
          <gpxtpx:TrackPointExtension xmlns:gpxtpx="http://www.garmin.com/xmlschemas/TrackPointExtension/v1">
            <gpxtpx:hr>151</gpxtpx:hr>
          </gpxtpx:TrackPointExtension>
        </extensions>
      </trkpt>
      <trkpt lat="46.78301" lon="-1.60529">
        <ele>37.2</ele>
        <time>2024-05-10T07:37:31Z</time>
        <extensions>
          <gpxtpx:TrackPointExtension xmlns:gpxtpx="http://www.garmin.com/xmlschemas/TrackPointExtension/v1">
            <gpxtpx:hr>151</gpxtpx:hr>
          </gpxtpx:TrackPointExtension>
        </extensions>
      </trkpt>
      <trkpt lat="46.78305" lon="-1.60519">
        <ele>37.2</ele>
        <time>2024-05-10T07:37:32Z</time>
        <extensions>
          <gpxtpx:TrackPointExtension xmlns:gpxtpx="http://www.garmin.com/xmlschemas/TrackPointExtension/v1">
            <gpxtpx:hr>151</gpxtpx:hr>
          </gpxtpx:TrackPointExtension>
        </extensions>
      </trkpt>
      <trkpt lat="46.78306" lon="-1.60516">
        <ele>37.2</ele>
        <time>2024-05-10T07:37:33Z</time>
        <extensions>
          <gpxtpx:TrackPointExtension xmlns:gpxtpx="http://www.garmin.com/xmlschemas/TrackPointExtension/v1">
            <gpxtpx:hr>150</gpxtpx:hr>
          </gpxtpx:TrackPointExtension>
        </extensions>
      </trkpt>
      <trkpt lat="46.78308" lon="-1.6051">
        <ele>37.2</ele>
        <time>2024-05-10T07:37:34Z</time>
        <extensions>
          <gpxtpx:TrackPointExtension xmlns:gpxtpx="http://www.garmin.com/xmlschemas/TrackPointExtension/v1">
            <gpxtpx:hr>150</gpxtpx:hr>
          </gpxtpx:TrackPointExtension>
        </extensions>
      </trkpt>
      <trkpt lat="46.78311" lon="-1.60505">
        <ele>37</ele>
        <time>2024-05-10T07:37:35Z</time>
        <extensions>
          <gpxtpx:TrackPointExtension xmlns:gpxtpx="http://www.garmin.com/xmlschemas/TrackPointExtension/v1">
            <gpxtpx:hr>150</gpxtpx:hr>
          </gpxtpx:TrackPointExtension>
        </extensions>
      </trkpt>
      <trkpt lat="46.78313" lon="-1.605">
        <ele>36.8</ele>
        <time>2024-05-10T07:37:36Z</time>
        <extensions>
          <gpxtpx:TrackPointExtension xmlns:gpxtpx="http://www.garmin.com/xmlschemas/TrackPointExtension/v1">
            <gpxtpx:hr>150</gpxtpx:hr>
          </gpxtpx:TrackPointExtension>
        </extensions>
      </trkpt>
      <trkpt lat="46.78315" lon="-1.60494">
        <ele>36.8</ele>
        <time>2024-05-10T07:37:37Z</time>
        <extensions>
          <gpxtpx:TrackPointExtension xmlns:gpxtpx="http://www.garmin.com/xmlschemas/TrackPointExtension/v1">
            <gpxtpx:hr>149</gpxtpx:hr>
          </gpxtpx:TrackPointExtension>
        </extensions>
      </trkpt>
      <trkpt lat="46.78317" lon="-1.60489">
        <ele>36.6</ele>
        <time>2024-05-10T07:37:38Z</time>
        <extensions>
          <gpxtpx:TrackPointExtension xmlns:gpxtpx="http://www.garmin.com/xmlschemas/TrackPointExtension/v1">
            <gpxtpx:hr>149</gpxtpx:hr>
          </gpxtpx:TrackPointExtension>
        </extensions>
      </trkpt>
      <trkpt lat="46.78319" lon="-1.60484">
        <ele>36.4</ele>
        <time>2024-05-10T07:37:39Z</time>
        <extensions>
          <gpxtpx:TrackPointExtension xmlns:gpxtpx="http://www.garmin.com/xmlschemas/TrackPointExtension/v1">
            <gpxtpx:hr>148</gpxtpx:hr>
          </gpxtpx:TrackPointExtension>
        </extensions>
      </trkpt>
      <trkpt lat="46.78322" lon="-1.60479">
        <ele>36.2</ele>
        <time>2024-05-10T07:37:40Z</time>
        <extensions>
          <gpxtpx:TrackPointExtension xmlns:gpxtpx="http://www.garmin.com/xmlschemas/TrackPointExtension/v1">
            <gpxtpx:hr>148</gpxtpx:hr>
          </gpxtpx:TrackPointExtension>
        </extensions>
      </trkpt>
      <trkpt lat="46.78326" lon="-1.60473">
        <ele>36</ele>
        <time>2024-05-10T07:37:41Z</time>
        <extensions>
          <gpxtpx:TrackPointExtension xmlns:gpxtpx="http://www.garmin.com/xmlschemas/TrackPointExtension/v1">
            <gpxtpx:hr>148</gpxtpx:hr>
          </gpxtpx:TrackPointExtension>
        </extensions>
      </trkpt>
      <trkpt lat="46.7833" lon="-1.60468">
        <ele>35.8</ele>
        <time>2024-05-10T07:37:42Z</time>
        <extensions>
          <gpxtpx:TrackPointExtension xmlns:gpxtpx="http://www.garmin.com/xmlschemas/TrackPointExtension/v1">
            <gpxtpx:hr>147</gpxtpx:hr>
          </gpxtpx:TrackPointExtension>
        </extensions>
      </trkpt>
      <trkpt lat="46.78334" lon="-1.60463">
        <ele>35.6</ele>
        <time>2024-05-10T07:37:43Z</time>
        <extensions>
          <gpxtpx:TrackPointExtension xmlns:gpxtpx="http://www.garmin.com/xmlschemas/TrackPointExtension/v1">
            <gpxtpx:hr>147</gpxtpx:hr>
          </gpxtpx:TrackPointExtension>
        </extensions>
      </trkpt>
      <trkpt lat="46.78339" lon="-1.60457">
        <ele>35</ele>
        <time>2024-05-10T07:37:44Z</time>
        <extensions>
          <gpxtpx:TrackPointExtension xmlns:gpxtpx="http://www.garmin.com/xmlschemas/TrackPointExtension/v1">
            <gpxtpx:hr>146</gpxtpx:hr>
          </gpxtpx:TrackPointExtension>
        </extensions>
      </trkpt>
      <trkpt lat="46.78344" lon="-1.60452">
        <ele>34.6</ele>
        <time>2024-05-10T07:37:45Z</time>
        <extensions>
          <gpxtpx:TrackPointExtension xmlns:gpxtpx="http://www.garmin.com/xmlschemas/TrackPointExtension/v1">
            <gpxtpx:hr>145</gpxtpx:hr>
          </gpxtpx:TrackPointExtension>
        </extensions>
      </trkpt>
      <trkpt lat="46.78349" lon="-1.60445">
        <ele>34.2</ele>
        <time>2024-05-10T07:37:46Z</time>
        <extensions>
          <gpxtpx:TrackPointExtension xmlns:gpxtpx="http://www.garmin.com/xmlschemas/TrackPointExtension/v1">
            <gpxtpx:hr>145</gpxtpx:hr>
          </gpxtpx:TrackPointExtension>
        </extensions>
      </trkpt>
      <trkpt lat="46.78354" lon="-1.60439">
        <ele>33.8</ele>
        <time>2024-05-10T07:37:47Z</time>
        <extensions>
          <gpxtpx:TrackPointExtension xmlns:gpxtpx="http://www.garmin.com/xmlschemas/TrackPointExtension/v1">
            <gpxtpx:hr>144</gpxtpx:hr>
          </gpxtpx:TrackPointExtension>
        </extensions>
      </trkpt>
      <trkpt lat="46.78359" lon="-1.60432">
        <ele>33.6</ele>
        <time>2024-05-10T07:37:48Z</time>
        <extensions>
          <gpxtpx:TrackPointExtension xmlns:gpxtpx="http://www.garmin.com/xmlschemas/TrackPointExtension/v1">
            <gpxtpx:hr>143</gpxtpx:hr>
          </gpxtpx:TrackPointExtension>
        </extensions>
      </trkpt>
      <trkpt lat="46.78363" lon="-1.60424">
        <ele>33.4</ele>
        <time>2024-05-10T07:37:49Z</time>
        <extensions>
          <gpxtpx:TrackPointExtension xmlns:gpxtpx="http://www.garmin.com/xmlschemas/TrackPointExtension/v1">
            <gpxtpx:hr>143</gpxtpx:hr>
          </gpxtpx:TrackPointExtension>
        </extensions>
      </trkpt>
      <trkpt lat="46.78366" lon="-1.60417">
        <ele>33.2</ele>
        <time>2024-05-10T07:37:50Z</time>
        <extensions>
          <gpxtpx:TrackPointExtension xmlns:gpxtpx="http://www.garmin.com/xmlschemas/TrackPointExtension/v1">
            <gpxtpx:hr>142</gpxtpx:hr>
          </gpxtpx:TrackPointExtension>
        </extensions>
      </trkpt>
      <trkpt lat="46.7837" lon="-1.60406">
        <ele>33.2</ele>
        <time>2024-05-10T07:37:51Z</time>
        <extensions>
          <gpxtpx:TrackPointExtension xmlns:gpxtpx="http://www.garmin.com/xmlschemas/TrackPointExtension/v1">
            <gpxtpx:hr>142</gpxtpx:hr>
          </gpxtpx:TrackPointExtension>
        </extensions>
      </trkpt>
      <trkpt lat="46.78371" lon="-1.60402">
        <ele>33.2</ele>
        <time>2024-05-10T07:37:52Z</time>
        <extensions>
          <gpxtpx:TrackPointExtension xmlns:gpxtpx="http://www.garmin.com/xmlschemas/TrackPointExtension/v1">
            <gpxtpx:hr>141</gpxtpx:hr>
          </gpxtpx:TrackPointExtension>
        </extensions>
      </trkpt>
      <trkpt lat="46.78372" lon="-1.60396">
        <ele>33.4</ele>
        <time>2024-05-10T07:37:53Z</time>
        <extensions>
          <gpxtpx:TrackPointExtension xmlns:gpxtpx="http://www.garmin.com/xmlschemas/TrackPointExtension/v1">
            <gpxtpx:hr>141</gpxtpx:hr>
          </gpxtpx:TrackPointExtension>
        </extensions>
      </trkpt>
      <trkpt lat="46.78373" lon="-1.6039">
        <ele>33.6</ele>
        <time>2024-05-10T07:37:54Z</time>
        <extensions>
          <gpxtpx:TrackPointExtension xmlns:gpxtpx="http://www.garmin.com/xmlschemas/TrackPointExtension/v1">
            <gpxtpx:hr>141</gpxtpx:hr>
          </gpxtpx:TrackPointExtension>
        </extensions>
      </trkpt>
      <trkpt lat="46.78373" lon="-1.60385">
        <ele>34</ele>
        <time>2024-05-10T07:37:55Z</time>
        <extensions>
          <gpxtpx:TrackPointExtension xmlns:gpxtpx="http://www.garmin.com/xmlschemas/TrackPointExtension/v1">
            <gpxtpx:hr>140</gpxtpx:hr>
          </gpxtpx:TrackPointExtension>
        </extensions>
      </trkpt>
      <trkpt lat="46.78373" lon="-1.6038">
        <ele>34.2</ele>
        <time>2024-05-10T07:37:56Z</time>
        <extensions>
          <gpxtpx:TrackPointExtension xmlns:gpxtpx="http://www.garmin.com/xmlschemas/TrackPointExtension/v1">
            <gpxtpx:hr>139</gpxtpx:hr>
          </gpxtpx:TrackPointExtension>
        </extensions>
      </trkpt>
      <trkpt lat="46.78374" lon="-1.60372">
        <ele>34.6</ele>
        <time>2024-05-10T07:37:57Z</time>
        <extensions>
          <gpxtpx:TrackPointExtension xmlns:gpxtpx="http://www.garmin.com/xmlschemas/TrackPointExtension/v1">
            <gpxtpx:hr>139</gpxtpx:hr>
          </gpxtpx:TrackPointExtension>
        </extensions>
      </trkpt>
      <trkpt lat="46.78374" lon="-1.6037">
        <ele>34.8</ele>
        <time>2024-05-10T07:37:58Z</time>
        <extensions>
          <gpxtpx:TrackPointExtension xmlns:gpxtpx="http://www.garmin.com/xmlschemas/TrackPointExtension/v1">
            <gpxtpx:hr>138</gpxtpx:hr>
          </gpxtpx:TrackPointExtension>
        </extensions>
      </trkpt>
      <trkpt lat="46.78374" lon="-1.60365">
        <ele>35.2</ele>
        <time>2024-05-10T07:37:59Z</time>
        <extensions>
          <gpxtpx:TrackPointExtension xmlns:gpxtpx="http://www.garmin.com/xmlschemas/TrackPointExtension/v1">
            <gpxtpx:hr>137</gpxtpx:hr>
          </gpxtpx:TrackPointExtension>
        </extensions>
      </trkpt>
      <trkpt lat="46.78374" lon="-1.60359">
        <ele>35.4</ele>
        <time>2024-05-10T07:38:00Z</time>
        <extensions>
          <gpxtpx:TrackPointExtension xmlns:gpxtpx="http://www.garmin.com/xmlschemas/TrackPointExtension/v1">
            <gpxtpx:hr>136</gpxtpx:hr>
          </gpxtpx:TrackPointExtension>
        </extensions>
      </trkpt>
      <trkpt lat="46.78374" lon="-1.60354">
        <ele>35.6</ele>
        <time>2024-05-10T07:38:01Z</time>
        <extensions>
          <gpxtpx:TrackPointExtension xmlns:gpxtpx="http://www.garmin.com/xmlschemas/TrackPointExtension/v1">
            <gpxtpx:hr>135</gpxtpx:hr>
          </gpxtpx:TrackPointExtension>
        </extensions>
      </trkpt>
      <trkpt lat="46.78374" lon="-1.6035">
        <ele>36</ele>
        <time>2024-05-10T07:38:02Z</time>
        <extensions>
          <gpxtpx:TrackPointExtension xmlns:gpxtpx="http://www.garmin.com/xmlschemas/TrackPointExtension/v1">
            <gpxtpx:hr>134</gpxtpx:hr>
          </gpxtpx:TrackPointExtension>
        </extensions>
      </trkpt>
      <trkpt lat="46.78375" lon="-1.60346">
        <ele>36.2</ele>
        <time>2024-05-10T07:38:03Z</time>
        <extensions>
          <gpxtpx:TrackPointExtension xmlns:gpxtpx="http://www.garmin.com/xmlschemas/TrackPointExtension/v1">
            <gpxtpx:hr>133</gpxtpx:hr>
          </gpxtpx:TrackPointExtension>
        </extensions>
      </trkpt>
      <trkpt lat="46.78375" lon="-1.60342">
        <ele>36.4</ele>
        <time>2024-05-10T07:38:04Z</time>
        <extensions>
          <gpxtpx:TrackPointExtension xmlns:gpxtpx="http://www.garmin.com/xmlschemas/TrackPointExtension/v1">
            <gpxtpx:hr>133</gpxtpx:hr>
          </gpxtpx:TrackPointExtension>
        </extensions>
      </trkpt>
      <trkpt lat="46.78375" lon="-1.60338">
        <ele>36.8</ele>
        <time>2024-05-10T07:38:05Z</time>
        <extensions>
          <gpxtpx:TrackPointExtension xmlns:gpxtpx="http://www.garmin.com/xmlschemas/TrackPointExtension/v1">
            <gpxtpx:hr>133</gpxtpx:hr>
          </gpxtpx:TrackPointExtension>
        </extensions>
      </trkpt>
      <trkpt lat="46.78374" lon="-1.60333">
        <ele>37.2</ele>
        <time>2024-05-10T07:38:06Z</time>
        <extensions>
          <gpxtpx:TrackPointExtension xmlns:gpxtpx="http://www.garmin.com/xmlschemas/TrackPointExtension/v1">
            <gpxtpx:hr>133</gpxtpx:hr>
          </gpxtpx:TrackPointExtension>
        </extensions>
      </trkpt>
      <trkpt lat="46.78374" lon="-1.60329">
        <ele>37.4</ele>
        <time>2024-05-10T07:38:07Z</time>
        <extensions>
          <gpxtpx:TrackPointExtension xmlns:gpxtpx="http://www.garmin.com/xmlschemas/TrackPointExtension/v1">
            <gpxtpx:hr>133</gpxtpx:hr>
          </gpxtpx:TrackPointExtension>
        </extensions>
      </trkpt>
      <trkpt lat="46.78374" lon="-1.60322">
        <ele>37.8</ele>
        <time>2024-05-10T07:38:08Z</time>
        <extensions>
          <gpxtpx:TrackPointExtension xmlns:gpxtpx="http://www.garmin.com/xmlschemas/TrackPointExtension/v1">
            <gpxtpx:hr>134</gpxtpx:hr>
          </gpxtpx:TrackPointExtension>
        </extensions>
      </trkpt>
      <trkpt lat="46.78374" lon="-1.60319">
        <ele>38.2</ele>
        <time>2024-05-10T07:38:09Z</time>
        <extensions>
          <gpxtpx:TrackPointExtension xmlns:gpxtpx="http://www.garmin.com/xmlschemas/TrackPointExtension/v1">
            <gpxtpx:hr>134</gpxtpx:hr>
          </gpxtpx:TrackPointExtension>
        </extensions>
      </trkpt>
      <trkpt lat="46.78373" lon="-1.60314">
        <ele>38.6</ele>
        <time>2024-05-10T07:38:10Z</time>
        <extensions>
          <gpxtpx:TrackPointExtension xmlns:gpxtpx="http://www.garmin.com/xmlschemas/TrackPointExtension/v1">
            <gpxtpx:hr>134</gpxtpx:hr>
          </gpxtpx:TrackPointExtension>
        </extensions>
      </trkpt>
      <trkpt lat="46.78373" lon="-1.60309">
        <ele>38.8</ele>
        <time>2024-05-10T07:38:11Z</time>
        <extensions>
          <gpxtpx:TrackPointExtension xmlns:gpxtpx="http://www.garmin.com/xmlschemas/TrackPointExtension/v1">
            <gpxtpx:hr>136</gpxtpx:hr>
          </gpxtpx:TrackPointExtension>
        </extensions>
      </trkpt>
      <trkpt lat="46.78373" lon="-1.60304">
        <ele>39.2</ele>
        <time>2024-05-10T07:38:12Z</time>
        <extensions>
          <gpxtpx:TrackPointExtension xmlns:gpxtpx="http://www.garmin.com/xmlschemas/TrackPointExtension/v1">
            <gpxtpx:hr>136</gpxtpx:hr>
          </gpxtpx:TrackPointExtension>
        </extensions>
      </trkpt>
      <trkpt lat="46.78373" lon="-1.60298">
        <ele>39.6</ele>
        <time>2024-05-10T07:38:13Z</time>
        <extensions>
          <gpxtpx:TrackPointExtension xmlns:gpxtpx="http://www.garmin.com/xmlschemas/TrackPointExtension/v1">
            <gpxtpx:hr>137</gpxtpx:hr>
          </gpxtpx:TrackPointExtension>
        </extensions>
      </trkpt>
      <trkpt lat="46.78373" lon="-1.60293">
        <ele>40</ele>
        <time>2024-05-10T07:38:14Z</time>
        <extensions>
          <gpxtpx:TrackPointExtension xmlns:gpxtpx="http://www.garmin.com/xmlschemas/TrackPointExtension/v1">
            <gpxtpx:hr>137</gpxtpx:hr>
          </gpxtpx:TrackPointExtension>
        </extensions>
      </trkpt>
      <trkpt lat="46.78373" lon="-1.60288">
        <ele>40.2</ele>
        <time>2024-05-10T07:38:15Z</time>
        <extensions>
          <gpxtpx:TrackPointExtension xmlns:gpxtpx="http://www.garmin.com/xmlschemas/TrackPointExtension/v1">
            <gpxtpx:hr>137</gpxtpx:hr>
          </gpxtpx:TrackPointExtension>
        </extensions>
      </trkpt>
      <trkpt lat="46.78373" lon="-1.60283">
        <ele>40.6</ele>
        <time>2024-05-10T07:38:16Z</time>
        <extensions>
          <gpxtpx:TrackPointExtension xmlns:gpxtpx="http://www.garmin.com/xmlschemas/TrackPointExtension/v1">
            <gpxtpx:hr>139</gpxtpx:hr>
          </gpxtpx:TrackPointExtension>
        </extensions>
      </trkpt>
      <trkpt lat="46.78374" lon="-1.60278">
        <ele>40.8</ele>
        <time>2024-05-10T07:38:17Z</time>
        <extensions>
          <gpxtpx:TrackPointExtension xmlns:gpxtpx="http://www.garmin.com/xmlschemas/TrackPointExtension/v1">
            <gpxtpx:hr>139</gpxtpx:hr>
          </gpxtpx:TrackPointExtension>
        </extensions>
      </trkpt>
      <trkpt lat="46.78374" lon="-1.60273">
        <ele>41</ele>
        <time>2024-05-10T07:38:18Z</time>
        <extensions>
          <gpxtpx:TrackPointExtension xmlns:gpxtpx="http://www.garmin.com/xmlschemas/TrackPointExtension/v1">
            <gpxtpx:hr>139</gpxtpx:hr>
          </gpxtpx:TrackPointExtension>
        </extensions>
      </trkpt>
      <trkpt lat="46.78374" lon="-1.60268">
        <ele>41.4</ele>
        <time>2024-05-10T07:38:19Z</time>
        <extensions>
          <gpxtpx:TrackPointExtension xmlns:gpxtpx="http://www.garmin.com/xmlschemas/TrackPointExtension/v1">
            <gpxtpx:hr>139</gpxtpx:hr>
          </gpxtpx:TrackPointExtension>
        </extensions>
      </trkpt>
      <trkpt lat="46.78374" lon="-1.60263">
        <ele>41.6</ele>
        <time>2024-05-10T07:38:20Z</time>
        <extensions>
          <gpxtpx:TrackPointExtension xmlns:gpxtpx="http://www.garmin.com/xmlschemas/TrackPointExtension/v1">
            <gpxtpx:hr>140</gpxtpx:hr>
          </gpxtpx:TrackPointExtension>
        </extensions>
      </trkpt>
      <trkpt lat="46.78374" lon="-1.60258">
        <ele>41.8</ele>
        <time>2024-05-10T07:38:21Z</time>
        <extensions>
          <gpxtpx:TrackPointExtension xmlns:gpxtpx="http://www.garmin.com/xmlschemas/TrackPointExtension/v1">
            <gpxtpx:hr>141</gpxtpx:hr>
          </gpxtpx:TrackPointExtension>
        </extensions>
      </trkpt>
      <trkpt lat="46.78373" lon="-1.60254">
        <ele>42</ele>
        <time>2024-05-10T07:38:22Z</time>
        <extensions>
          <gpxtpx:TrackPointExtension xmlns:gpxtpx="http://www.garmin.com/xmlschemas/TrackPointExtension/v1">
            <gpxtpx:hr>141</gpxtpx:hr>
          </gpxtpx:TrackPointExtension>
        </extensions>
      </trkpt>
      <trkpt lat="46.78372" lon="-1.60251">
        <ele>42.2</ele>
        <time>2024-05-10T07:38:23Z</time>
        <extensions>
          <gpxtpx:TrackPointExtension xmlns:gpxtpx="http://www.garmin.com/xmlschemas/TrackPointExtension/v1">
            <gpxtpx:hr>141</gpxtpx:hr>
          </gpxtpx:TrackPointExtension>
        </extensions>
      </trkpt>
      <trkpt lat="46.78372" lon="-1.60249">
        <ele>42.4</ele>
        <time>2024-05-10T07:38:24Z</time>
        <extensions>
          <gpxtpx:TrackPointExtension xmlns:gpxtpx="http://www.garmin.com/xmlschemas/TrackPointExtension/v1">
            <gpxtpx:hr>141</gpxtpx:hr>
          </gpxtpx:TrackPointExtension>
        </extensions>
      </trkpt>
      <trkpt lat="46.78372" lon="-1.60248">
        <ele>42.6</ele>
        <time>2024-05-10T07:38:25Z</time>
        <extensions>
          <gpxtpx:TrackPointExtension xmlns:gpxtpx="http://www.garmin.com/xmlschemas/TrackPointExtension/v1">
            <gpxtpx:hr>142</gpxtpx:hr>
          </gpxtpx:TrackPointExtension>
        </extensions>
      </trkpt>
      <trkpt lat="46.78371" lon="-1.60248">
        <ele>42.8</ele>
        <time>2024-05-10T07:38:26Z</time>
        <extensions>
          <gpxtpx:TrackPointExtension xmlns:gpxtpx="http://www.garmin.com/xmlschemas/TrackPointExtension/v1">
            <gpxtpx:hr>142</gpxtpx:hr>
          </gpxtpx:TrackPointExtension>
        </extensions>
      </trkpt>
      <trkpt lat="46.78371" lon="-1.60248">
        <ele>42.8</ele>
        <time>2024-05-10T07:38:27Z</time>
        <extensions>
          <gpxtpx:TrackPointExtension xmlns:gpxtpx="http://www.garmin.com/xmlschemas/TrackPointExtension/v1">
            <gpxtpx:hr>142</gpxtpx:hr>
          </gpxtpx:TrackPointExtension>
        </extensions>
      </trkpt>
      <trkpt lat="46.78371" lon="-1.60249">
        <ele>43</ele>
        <time>2024-05-10T07:38:28Z</time>
        <extensions>
          <gpxtpx:TrackPointExtension xmlns:gpxtpx="http://www.garmin.com/xmlschemas/TrackPointExtension/v1">
            <gpxtpx:hr>142</gpxtpx:hr>
          </gpxtpx:TrackPointExtension>
        </extensions>
      </trkpt>
      <trkpt lat="46.78371" lon="-1.60249">
        <ele>43</ele>
        <time>2024-05-10T07:38:29Z</time>
        <extensions>
          <gpxtpx:TrackPointExtension xmlns:gpxtpx="http://www.garmin.com/xmlschemas/TrackPointExtension/v1">
            <gpxtpx:hr>142</gpxtpx:hr>
          </gpxtpx:TrackPointExtension>
        </extensions>
      </trkpt>
      <trkpt lat="46.78372" lon="-1.6025">
        <ele>43</ele>
        <time>2024-05-10T07:38:30Z</time>
        <extensions>
          <gpxtpx:TrackPointExtension xmlns:gpxtpx="http://www.garmin.com/xmlschemas/TrackPointExtension/v1">
            <gpxtpx:hr>142</gpxtpx:hr>
          </gpxtpx:TrackPointExtension>
        </extensions>
      </trkpt>
      <trkpt lat="46.78372" lon="-1.6025">
        <ele>43</ele>
        <time>2024-05-10T07:38:31Z</time>
        <extensions>
          <gpxtpx:TrackPointExtension xmlns:gpxtpx="http://www.garmin.com/xmlschemas/TrackPointExtension/v1">
            <gpxtpx:hr>141</gpxtpx:hr>
          </gpxtpx:TrackPointExtension>
        </extensions>
      </trkpt>
      <trkpt lat="46.78372" lon="-1.6025">
        <ele>43</ele>
        <time>2024-05-10T07:38:32Z</time>
        <extensions>
          <gpxtpx:TrackPointExtension xmlns:gpxtpx="http://www.garmin.com/xmlschemas/TrackPointExtension/v1">
            <gpxtpx:hr>141</gpxtpx:hr>
          </gpxtpx:TrackPointExtension>
        </extensions>
      </trkpt>
      <trkpt lat="46.78372" lon="-1.6025">
        <ele>43</ele>
        <time>2024-05-10T07:38:33Z</time>
        <extensions>
          <gpxtpx:TrackPointExtension xmlns:gpxtpx="http://www.garmin.com/xmlschemas/TrackPointExtension/v1">
            <gpxtpx:hr>142</gpxtpx:hr>
          </gpxtpx:TrackPointExtension>
        </extensions>
      </trkpt>
      <trkpt lat="46.78373" lon="-1.6025">
        <ele>43</ele>
        <time>2024-05-10T07:38:34Z</time>
        <extensions>
          <gpxtpx:TrackPointExtension xmlns:gpxtpx="http://www.garmin.com/xmlschemas/TrackPointExtension/v1">
            <gpxtpx:hr>142</gpxtpx:hr>
          </gpxtpx:TrackPointExtension>
        </extensions>
      </trkpt>
      <trkpt lat="46.78373" lon="-1.6025">
        <ele>43</ele>
        <time>2024-05-10T07:38:35Z</time>
        <extensions>
          <gpxtpx:TrackPointExtension xmlns:gpxtpx="http://www.garmin.com/xmlschemas/TrackPointExtension/v1">
            <gpxtpx:hr>142</gpxtpx:hr>
          </gpxtpx:TrackPointExtension>
        </extensions>
      </trkpt>
      <trkpt lat="46.78373" lon="-1.6025">
        <ele>43</ele>
        <time>2024-05-10T07:38:36Z</time>
        <extensions>
          <gpxtpx:TrackPointExtension xmlns:gpxtpx="http://www.garmin.com/xmlschemas/TrackPointExtension/v1">
            <gpxtpx:hr>142</gpxtpx:hr>
          </gpxtpx:TrackPointExtension>
        </extensions>
      </trkpt>
      <trkpt lat="46.78373" lon="-1.6025">
        <ele>43</ele>
        <time>2024-05-10T07:38:37Z</time>
        <extensions>
          <gpxtpx:TrackPointExtension xmlns:gpxtpx="http://www.garmin.com/xmlschemas/TrackPointExtension/v1">
            <gpxtpx:hr>140</gpxtpx:hr>
          </gpxtpx:TrackPointExtension>
        </extensions>
      </trkpt>
      <trkpt lat="46.78373" lon="-1.6025">
        <ele>43</ele>
        <time>2024-05-10T07:38:38Z</time>
        <extensions>
          <gpxtpx:TrackPointExtension xmlns:gpxtpx="http://www.garmin.com/xmlschemas/TrackPointExtension/v1">
            <gpxtpx:hr>137</gpxtpx:hr>
          </gpxtpx:TrackPointExtension>
        </extensions>
      </trkpt>
      <trkpt lat="46.78373" lon="-1.6025">
        <ele>43</ele>
        <time>2024-05-10T07:38:39Z</time>
        <extensions>
          <gpxtpx:TrackPointExtension xmlns:gpxtpx="http://www.garmin.com/xmlschemas/TrackPointExtension/v1">
            <gpxtpx:hr>137</gpxtpx:hr>
          </gpxtpx:TrackPointExtension>
        </extensions>
      </trkpt>
      <trkpt lat="46.78373" lon="-1.6025">
        <ele>43</ele>
        <time>2024-05-10T07:38:40Z</time>
        <extensions>
          <gpxtpx:TrackPointExtension xmlns:gpxtpx="http://www.garmin.com/xmlschemas/TrackPointExtension/v1">
            <gpxtpx:hr>136</gpxtpx:hr>
          </gpxtpx:TrackPointExtension>
        </extensions>
      </trkpt>
      <trkpt lat="46.78373" lon="-1.6025">
        <ele>43</ele>
        <time>2024-05-10T07:38:41Z</time>
        <extensions>
          <gpxtpx:TrackPointExtension xmlns:gpxtpx="http://www.garmin.com/xmlschemas/TrackPointExtension/v1">
            <gpxtpx:hr>136</gpxtpx:hr>
          </gpxtpx:TrackPointExtension>
        </extensions>
      </trkpt>
      <trkpt lat="46.78373" lon="-1.6025">
        <ele>43</ele>
        <time>2024-05-10T07:38:42Z</time>
        <extensions>
          <gpxtpx:TrackPointExtension xmlns:gpxtpx="http://www.garmin.com/xmlschemas/TrackPointExtension/v1">
            <gpxtpx:hr>137</gpxtpx:hr>
          </gpxtpx:TrackPointExtension>
        </extensions>
      </trkpt>
      <trkpt lat="46.78373" lon="-1.6025">
        <ele>43</ele>
        <time>2024-05-10T07:38:43Z</time>
        <extensions>
          <gpxtpx:TrackPointExtension xmlns:gpxtpx="http://www.garmin.com/xmlschemas/TrackPointExtension/v1">
            <gpxtpx:hr>139</gpxtpx:hr>
          </gpxtpx:TrackPointExtension>
        </extensions>
      </trkpt>
      <trkpt lat="46.78373" lon="-1.6025">
        <ele>43</ele>
        <time>2024-05-10T07:38:44Z</time>
        <extensions>
          <gpxtpx:TrackPointExtension xmlns:gpxtpx="http://www.garmin.com/xmlschemas/TrackPointExtension/v1">
            <gpxtpx:hr>139</gpxtpx:hr>
          </gpxtpx:TrackPointExtension>
        </extensions>
      </trkpt>
      <trkpt lat="46.78373" lon="-1.6025">
        <ele>43</ele>
        <time>2024-05-10T07:38:45Z</time>
        <extensions>
          <gpxtpx:TrackPointExtension xmlns:gpxtpx="http://www.garmin.com/xmlschemas/TrackPointExtension/v1">
            <gpxtpx:hr>140</gpxtpx:hr>
          </gpxtpx:TrackPointExtension>
        </extensions>
      </trkpt>
      <trkpt lat="46.78373" lon="-1.6025">
        <ele>43</ele>
        <time>2024-05-10T07:38:46Z</time>
        <extensions>
          <gpxtpx:TrackPointExtension xmlns:gpxtpx="http://www.garmin.com/xmlschemas/TrackPointExtension/v1">
            <gpxtpx:hr>140</gpxtpx:hr>
          </gpxtpx:TrackPointExtension>
        </extensions>
      </trkpt>
      <trkpt lat="46.78373" lon="-1.6025">
        <ele>43</ele>
        <time>2024-05-10T07:38:47Z</time>
        <extensions>
          <gpxtpx:TrackPointExtension xmlns:gpxtpx="http://www.garmin.com/xmlschemas/TrackPointExtension/v1">
            <gpxtpx:hr>140</gpxtpx:hr>
          </gpxtpx:TrackPointExtension>
        </extensions>
      </trkpt>
      <trkpt lat="46.78373" lon="-1.60249">
        <ele>43</ele>
        <time>2024-05-10T07:38:48Z</time>
        <extensions>
          <gpxtpx:TrackPointExtension xmlns:gpxtpx="http://www.garmin.com/xmlschemas/TrackPointExtension/v1">
            <gpxtpx:hr>140</gpxtpx:hr>
          </gpxtpx:TrackPointExtension>
        </extensions>
      </trkpt>
      <trkpt lat="46.78373" lon="-1.60249">
        <ele>43</ele>
        <time>2024-05-10T07:38:49Z</time>
        <extensions>
          <gpxtpx:TrackPointExtension xmlns:gpxtpx="http://www.garmin.com/xmlschemas/TrackPointExtension/v1">
            <gpxtpx:hr>140</gpxtpx:hr>
          </gpxtpx:TrackPointExtension>
        </extensions>
      </trkpt>
      <trkpt lat="46.78373" lon="-1.6025">
        <ele>43</ele>
        <time>2024-05-10T07:38:50Z</time>
        <extensions>
          <gpxtpx:TrackPointExtension xmlns:gpxtpx="http://www.garmin.com/xmlschemas/TrackPointExtension/v1">
            <gpxtpx:hr>140</gpxtpx:hr>
          </gpxtpx:TrackPointExtension>
        </extensions>
      </trkpt>
      <trkpt lat="46.78373" lon="-1.6025">
        <ele>43</ele>
        <time>2024-05-10T07:38:51Z</time>
        <extensions>
          <gpxtpx:TrackPointExtension xmlns:gpxtpx="http://www.garmin.com/xmlschemas/TrackPointExtension/v1">
            <gpxtpx:hr>140</gpxtpx:hr>
          </gpxtpx:TrackPointExtension>
        </extensions>
      </trkpt>
      <trkpt lat="46.78373" lon="-1.6025">
        <ele>43</ele>
        <time>2024-05-10T07:38:52Z</time>
        <extensions>
          <gpxtpx:TrackPointExtension xmlns:gpxtpx="http://www.garmin.com/xmlschemas/TrackPointExtension/v1">
            <gpxtpx:hr>140</gpxtpx:hr>
          </gpxtpx:TrackPointExtension>
        </extensions>
      </trkpt>
      <trkpt lat="46.78373" lon="-1.6025">
        <ele>43</ele>
        <time>2024-05-10T07:38:53Z</time>
        <extensions>
          <gpxtpx:TrackPointExtension xmlns:gpxtpx="http://www.garmin.com/xmlschemas/TrackPointExtension/v1">
            <gpxtpx:hr>139</gpxtpx:hr>
          </gpxtpx:TrackPointExtension>
        </extensions>
      </trkpt>
      <trkpt lat="46.78373" lon="-1.6025">
        <ele>43</ele>
        <time>2024-05-10T07:38:54Z</time>
        <extensions>
          <gpxtpx:TrackPointExtension xmlns:gpxtpx="http://www.garmin.com/xmlschemas/TrackPointExtension/v1">
            <gpxtpx:hr>139</gpxtpx:hr>
          </gpxtpx:TrackPointExtension>
        </extensions>
      </trkpt>
      <trkpt lat="46.78373" lon="-1.6025">
        <ele>43</ele>
        <time>2024-05-10T07:38:55Z</time>
        <extensions>
          <gpxtpx:TrackPointExtension xmlns:gpxtpx="http://www.garmin.com/xmlschemas/TrackPointExtension/v1">
            <gpxtpx:hr>138</gpxtpx:hr>
          </gpxtpx:TrackPointExtension>
        </extensions>
      </trkpt>
      <trkpt lat="46.78373" lon="-1.6025">
        <ele>43</ele>
        <time>2024-05-10T07:38:56Z</time>
        <extensions>
          <gpxtpx:TrackPointExtension xmlns:gpxtpx="http://www.garmin.com/xmlschemas/TrackPointExtension/v1">
            <gpxtpx:hr>137</gpxtpx:hr>
          </gpxtpx:TrackPointExtension>
        </extensions>
      </trkpt>
      <trkpt lat="46.78373" lon="-1.60249">
        <ele>43</ele>
        <time>2024-05-10T07:38:57Z</time>
        <extensions>
          <gpxtpx:TrackPointExtension xmlns:gpxtpx="http://www.garmin.com/xmlschemas/TrackPointExtension/v1">
            <gpxtpx:hr>136</gpxtpx:hr>
          </gpxtpx:TrackPointExtension>
        </extensions>
      </trkpt>
      <trkpt lat="46.78373" lon="-1.60249">
        <ele>43</ele>
        <time>2024-05-10T07:38:58Z</time>
        <extensions>
          <gpxtpx:TrackPointExtension xmlns:gpxtpx="http://www.garmin.com/xmlschemas/TrackPointExtension/v1">
            <gpxtpx:hr>135</gpxtpx:hr>
          </gpxtpx:TrackPointExtension>
        </extensions>
      </trkpt>
      <trkpt lat="46.78373" lon="-1.60249">
        <ele>43</ele>
        <time>2024-05-10T07:38:59Z</time>
        <extensions>
          <gpxtpx:TrackPointExtension xmlns:gpxtpx="http://www.garmin.com/xmlschemas/TrackPointExtension/v1">
            <gpxtpx:hr>134</gpxtpx:hr>
          </gpxtpx:TrackPointExtension>
        </extensions>
      </trkpt>
      <trkpt lat="46.78373" lon="-1.6025">
        <ele>43</ele>
        <time>2024-05-10T07:39:01Z</time>
        <extensions>
          <gpxtpx:TrackPointExtension xmlns:gpxtpx="http://www.garmin.com/xmlschemas/TrackPointExtension/v1">
            <gpxtpx:hr>133</gpxtpx:hr>
          </gpxtpx:TrackPointExtension>
        </extensions>
      </trkpt>
      <trkpt lat="46.78373" lon="-1.6025">
        <ele>43</ele>
        <time>2024-05-10T07:39:02Z</time>
        <extensions>
          <gpxtpx:TrackPointExtension xmlns:gpxtpx="http://www.garmin.com/xmlschemas/TrackPointExtension/v1">
            <gpxtpx:hr>133</gpxtpx:hr>
          </gpxtpx:TrackPointExtension>
        </extensions>
      </trkpt>
      <trkpt lat="46.78373" lon="-1.6025">
        <ele>43</ele>
        <time>2024-05-10T07:39:03Z</time>
        <extensions>
          <gpxtpx:TrackPointExtension xmlns:gpxtpx="http://www.garmin.com/xmlschemas/TrackPointExtension/v1">
            <gpxtpx:hr>132</gpxtpx:hr>
          </gpxtpx:TrackPointExtension>
        </extensions>
      </trkpt>
      <trkpt lat="46.78373" lon="-1.6025">
        <ele>43</ele>
        <time>2024-05-10T07:39:04Z</time>
        <extensions>
          <gpxtpx:TrackPointExtension xmlns:gpxtpx="http://www.garmin.com/xmlschemas/TrackPointExtension/v1">
            <gpxtpx:hr>132</gpxtpx:hr>
          </gpxtpx:TrackPointExtension>
        </extensions>
      </trkpt>
      <trkpt lat="46.78373" lon="-1.6025">
        <ele>43</ele>
        <time>2024-05-10T07:39:05Z</time>
        <extensions>
          <gpxtpx:TrackPointExtension xmlns:gpxtpx="http://www.garmin.com/xmlschemas/TrackPointExtension/v1">
            <gpxtpx:hr>131</gpxtpx:hr>
          </gpxtpx:TrackPointExtension>
        </extensions>
      </trkpt>
      <trkpt lat="46.78373" lon="-1.60249">
        <ele>43</ele>
        <time>2024-05-10T07:39:06Z</time>
        <extensions>
          <gpxtpx:TrackPointExtension xmlns:gpxtpx="http://www.garmin.com/xmlschemas/TrackPointExtension/v1">
            <gpxtpx:hr>130</gpxtpx:hr>
          </gpxtpx:TrackPointExtension>
        </extensions>
      </trkpt>
      <trkpt lat="46.78373" lon="-1.60249">
        <ele>43</ele>
        <time>2024-05-10T07:39:07Z</time>
        <extensions>
          <gpxtpx:TrackPointExtension xmlns:gpxtpx="http://www.garmin.com/xmlschemas/TrackPointExtension/v1">
            <gpxtpx:hr>129</gpxtpx:hr>
          </gpxtpx:TrackPointExtension>
        </extensions>
      </trkpt>
      <trkpt lat="46.78373" lon="-1.60249">
        <ele>43</ele>
        <time>2024-05-10T07:39:08Z</time>
        <extensions>
          <gpxtpx:TrackPointExtension xmlns:gpxtpx="http://www.garmin.com/xmlschemas/TrackPointExtension/v1">
            <gpxtpx:hr>127</gpxtpx:hr>
          </gpxtpx:TrackPointExtension>
        </extensions>
      </trkpt>
      <trkpt lat="46.78373" lon="-1.60249">
        <ele>43</ele>
        <time>2024-05-10T07:39:09Z</time>
        <extensions>
          <gpxtpx:TrackPointExtension xmlns:gpxtpx="http://www.garmin.com/xmlschemas/TrackPointExtension/v1">
            <gpxtpx:hr>126</gpxtpx:hr>
          </gpxtpx:TrackPointExtension>
        </extensions>
      </trkpt>
      <trkpt lat="46.78373" lon="-1.60249">
        <ele>43</ele>
        <time>2024-05-10T07:39:10Z</time>
        <extensions>
          <gpxtpx:TrackPointExtension xmlns:gpxtpx="http://www.garmin.com/xmlschemas/TrackPointExtension/v1">
            <gpxtpx:hr>125</gpxtpx:hr>
          </gpxtpx:TrackPointExtension>
        </extensions>
      </trkpt>
      <trkpt lat="46.78373" lon="-1.60249">
        <ele>43</ele>
        <time>2024-05-10T07:39:11Z</time>
        <extensions>
          <gpxtpx:TrackPointExtension xmlns:gpxtpx="http://www.garmin.com/xmlschemas/TrackPointExtension/v1">
            <gpxtpx:hr>123</gpxtpx:hr>
          </gpxtpx:TrackPointExtension>
        </extensions>
      </trkpt>
      <trkpt lat="46.78373" lon="-1.60249">
        <ele>43</ele>
        <time>2024-05-10T07:39:12Z</time>
        <extensions>
          <gpxtpx:TrackPointExtension xmlns:gpxtpx="http://www.garmin.com/xmlschemas/TrackPointExtension/v1">
            <gpxtpx:hr>122</gpxtpx:hr>
          </gpxtpx:TrackPointExtension>
        </extensions>
      </trkpt>
      <trkpt lat="46.78373" lon="-1.60249">
        <ele>43</ele>
        <time>2024-05-10T07:39:13Z</time>
        <extensions>
          <gpxtpx:TrackPointExtension xmlns:gpxtpx="http://www.garmin.com/xmlschemas/TrackPointExtension/v1">
            <gpxtpx:hr>121</gpxtpx:hr>
          </gpxtpx:TrackPointExtension>
        </extensions>
      </trkpt>
      <trkpt lat="46.78373" lon="-1.60249">
        <ele>43</ele>
        <time>2024-05-10T07:39:14Z</time>
        <extensions>
          <gpxtpx:TrackPointExtension xmlns:gpxtpx="http://www.garmin.com/xmlschemas/TrackPointExtension/v1">
            <gpxtpx:hr>120</gpxtpx:hr>
          </gpxtpx:TrackPointExtension>
        </extensions>
      </trkpt>
      <trkpt lat="46.78373" lon="-1.60249">
        <ele>43</ele>
        <time>2024-05-10T07:39:15Z</time>
        <extensions>
          <gpxtpx:TrackPointExtension xmlns:gpxtpx="http://www.garmin.com/xmlschemas/TrackPointExtension/v1">
            <gpxtpx:hr>119</gpxtpx:hr>
          </gpxtpx:TrackPointExtension>
        </extensions>
      </trkpt>
      <trkpt lat="46.78373" lon="-1.60249">
        <ele>43</ele>
        <time>2024-05-10T07:39:16Z</time>
        <extensions>
          <gpxtpx:TrackPointExtension xmlns:gpxtpx="http://www.garmin.com/xmlschemas/TrackPointExtension/v1">
            <gpxtpx:hr>120</gpxtpx:hr>
          </gpxtpx:TrackPointExtension>
        </extensions>
      </trkpt>
      <trkpt lat="46.78373" lon="-1.60249">
        <ele>43</ele>
        <time>2024-05-10T07:39:17Z</time>
        <extensions>
          <gpxtpx:TrackPointExtension xmlns:gpxtpx="http://www.garmin.com/xmlschemas/TrackPointExtension/v1">
            <gpxtpx:hr>120</gpxtpx:hr>
          </gpxtpx:TrackPointExtension>
        </extensions>
      </trkpt>
      <trkpt lat="46.78373" lon="-1.60249">
        <ele>43</ele>
        <time>2024-05-10T07:39:18Z</time>
        <extensions>
          <gpxtpx:TrackPointExtension xmlns:gpxtpx="http://www.garmin.com/xmlschemas/TrackPointExtension/v1">
            <gpxtpx:hr>119</gpxtpx:hr>
          </gpxtpx:TrackPointExtension>
        </extensions>
      </trkpt>
      <trkpt lat="46.78373" lon="-1.60249">
        <ele>43</ele>
        <time>2024-05-10T07:39:19Z</time>
        <extensions>
          <gpxtpx:TrackPointExtension xmlns:gpxtpx="http://www.garmin.com/xmlschemas/TrackPointExtension/v1">
            <gpxtpx:hr>119</gpxtpx:hr>
          </gpxtpx:TrackPointExtension>
        </extensions>
      </trkpt>
      <trkpt lat="46.78373" lon="-1.60249">
        <ele>43</ele>
        <time>2024-05-10T07:39:20Z</time>
        <extensions>
          <gpxtpx:TrackPointExtension xmlns:gpxtpx="http://www.garmin.com/xmlschemas/TrackPointExtension/v1">
            <gpxtpx:hr>118</gpxtpx:hr>
          </gpxtpx:TrackPointExtension>
        </extensions>
      </trkpt>
      <trkpt lat="46.78373" lon="-1.60249">
        <ele>43</ele>
        <time>2024-05-10T07:39:21Z</time>
        <extensions>
          <gpxtpx:TrackPointExtension xmlns:gpxtpx="http://www.garmin.com/xmlschemas/TrackPointExtension/v1">
            <gpxtpx:hr>118</gpxtpx:hr>
          </gpxtpx:TrackPointExtension>
        </extensions>
      </trkpt>
      <trkpt lat="46.78373" lon="-1.60249">
        <ele>43</ele>
        <time>2024-05-10T07:39:22Z</time>
        <extensions>
          <gpxtpx:TrackPointExtension xmlns:gpxtpx="http://www.garmin.com/xmlschemas/TrackPointExtension/v1">
            <gpxtpx:hr>117</gpxtpx:hr>
          </gpxtpx:TrackPointExtension>
        </extensions>
      </trkpt>
      <trkpt lat="46.78373" lon="-1.60249">
        <ele>43</ele>
        <time>2024-05-10T07:39:23Z</time>
        <extensions>
          <gpxtpx:TrackPointExtension xmlns:gpxtpx="http://www.garmin.com/xmlschemas/TrackPointExtension/v1">
            <gpxtpx:hr>117</gpxtpx:hr>
          </gpxtpx:TrackPointExtension>
        </extensions>
      </trkpt>
      <trkpt lat="46.78373" lon="-1.60249">
        <ele>43</ele>
        <time>2024-05-10T07:39:24Z</time>
        <extensions>
          <gpxtpx:TrackPointExtension xmlns:gpxtpx="http://www.garmin.com/xmlschemas/TrackPointExtension/v1">
            <gpxtpx:hr>116</gpxtpx:hr>
          </gpxtpx:TrackPointExtension>
        </extensions>
      </trkpt>
      <trkpt lat="46.78373" lon="-1.60249">
        <ele>43</ele>
        <time>2024-05-10T07:39:25Z</time>
        <extensions>
          <gpxtpx:TrackPointExtension xmlns:gpxtpx="http://www.garmin.com/xmlschemas/TrackPointExtension/v1">
            <gpxtpx:hr>115</gpxtpx:hr>
          </gpxtpx:TrackPointExtension>
        </extensions>
      </trkpt>
      <trkpt lat="46.78374" lon="-1.60247">
        <ele>43</ele>
        <time>2024-05-10T07:39:26Z</time>
        <extensions>
          <gpxtpx:TrackPointExtension xmlns:gpxtpx="http://www.garmin.com/xmlschemas/TrackPointExtension/v1">
            <gpxtpx:hr>115</gpxtpx:hr>
          </gpxtpx:TrackPointExtension>
        </extensions>
      </trkpt>
      <trkpt lat="46.78374" lon="-1.60245">
        <ele>43</ele>
        <time>2024-05-10T07:39:27Z</time>
        <extensions>
          <gpxtpx:TrackPointExtension xmlns:gpxtpx="http://www.garmin.com/xmlschemas/TrackPointExtension/v1">
            <gpxtpx:hr>114</gpxtpx:hr>
          </gpxtpx:TrackPointExtension>
        </extensions>
      </trkpt>
      <trkpt lat="46.78374" lon="-1.60241">
        <ele>43</ele>
        <time>2024-05-10T07:39:28Z</time>
        <extensions>
          <gpxtpx:TrackPointExtension xmlns:gpxtpx="http://www.garmin.com/xmlschemas/TrackPointExtension/v1">
            <gpxtpx:hr>115</gpxtpx:hr>
          </gpxtpx:TrackPointExtension>
        </extensions>
      </trkpt>
      <trkpt lat="46.78374" lon="-1.60236">
        <ele>43.2</ele>
        <time>2024-05-10T07:39:29Z</time>
        <extensions>
          <gpxtpx:TrackPointExtension xmlns:gpxtpx="http://www.garmin.com/xmlschemas/TrackPointExtension/v1">
            <gpxtpx:hr>115</gpxtpx:hr>
          </gpxtpx:TrackPointExtension>
        </extensions>
      </trkpt>
      <trkpt lat="46.78374" lon="-1.60231">
        <ele>43.2</ele>
        <time>2024-05-10T07:39:30Z</time>
        <extensions>
          <gpxtpx:TrackPointExtension xmlns:gpxtpx="http://www.garmin.com/xmlschemas/TrackPointExtension/v1">
            <gpxtpx:hr>115</gpxtpx:hr>
          </gpxtpx:TrackPointExtension>
        </extensions>
      </trkpt>
      <trkpt lat="46.78374" lon="-1.60226">
        <ele>43.4</ele>
        <time>2024-05-10T07:39:31Z</time>
        <extensions>
          <gpxtpx:TrackPointExtension xmlns:gpxtpx="http://www.garmin.com/xmlschemas/TrackPointExtension/v1">
            <gpxtpx:hr>116</gpxtpx:hr>
          </gpxtpx:TrackPointExtension>
        </extensions>
      </trkpt>
      <trkpt lat="46.78373" lon="-1.6022">
        <ele>43.4</ele>
        <time>2024-05-10T07:39:32Z</time>
        <extensions>
          <gpxtpx:TrackPointExtension xmlns:gpxtpx="http://www.garmin.com/xmlschemas/TrackPointExtension/v1">
            <gpxtpx:hr>116</gpxtpx:hr>
          </gpxtpx:TrackPointExtension>
        </extensions>
      </trkpt>
      <trkpt lat="46.78373" lon="-1.60215">
        <ele>43.6</ele>
        <time>2024-05-10T07:39:33Z</time>
        <extensions>
          <gpxtpx:TrackPointExtension xmlns:gpxtpx="http://www.garmin.com/xmlschemas/TrackPointExtension/v1">
            <gpxtpx:hr>116</gpxtpx:hr>
          </gpxtpx:TrackPointExtension>
        </extensions>
      </trkpt>
      <trkpt lat="46.78372" lon="-1.60209">
        <ele>43.6</ele>
        <time>2024-05-10T07:39:34Z</time>
        <extensions>
          <gpxtpx:TrackPointExtension xmlns:gpxtpx="http://www.garmin.com/xmlschemas/TrackPointExtension/v1">
            <gpxtpx:hr>116</gpxtpx:hr>
          </gpxtpx:TrackPointExtension>
        </extensions>
      </trkpt>
      <trkpt lat="46.78371" lon="-1.60204">
        <ele>43.8</ele>
        <time>2024-05-10T07:39:35Z</time>
        <extensions>
          <gpxtpx:TrackPointExtension xmlns:gpxtpx="http://www.garmin.com/xmlschemas/TrackPointExtension/v1">
            <gpxtpx:hr>115</gpxtpx:hr>
          </gpxtpx:TrackPointExtension>
        </extensions>
      </trkpt>
      <trkpt lat="46.7837" lon="-1.60198">
        <ele>43.8</ele>
        <time>2024-05-10T07:39:36Z</time>
        <extensions>
          <gpxtpx:TrackPointExtension xmlns:gpxtpx="http://www.garmin.com/xmlschemas/TrackPointExtension/v1">
            <gpxtpx:hr>115</gpxtpx:hr>
          </gpxtpx:TrackPointExtension>
        </extensions>
      </trkpt>
      <trkpt lat="46.78369" lon="-1.60192">
        <ele>44</ele>
        <time>2024-05-10T07:39:37Z</time>
        <extensions>
          <gpxtpx:TrackPointExtension xmlns:gpxtpx="http://www.garmin.com/xmlschemas/TrackPointExtension/v1">
            <gpxtpx:hr>115</gpxtpx:hr>
          </gpxtpx:TrackPointExtension>
        </extensions>
      </trkpt>
      <trkpt lat="46.78368" lon="-1.60187">
        <ele>44.2</ele>
        <time>2024-05-10T07:39:38Z</time>
        <extensions>
          <gpxtpx:TrackPointExtension xmlns:gpxtpx="http://www.garmin.com/xmlschemas/TrackPointExtension/v1">
            <gpxtpx:hr>115</gpxtpx:hr>
          </gpxtpx:TrackPointExtension>
        </extensions>
      </trkpt>
      <trkpt lat="46.78367" lon="-1.60181">
        <ele>44.2</ele>
        <time>2024-05-10T07:39:39Z</time>
        <extensions>
          <gpxtpx:TrackPointExtension xmlns:gpxtpx="http://www.garmin.com/xmlschemas/TrackPointExtension/v1">
            <gpxtpx:hr>116</gpxtpx:hr>
          </gpxtpx:TrackPointExtension>
        </extensions>
      </trkpt>
      <trkpt lat="46.78367" lon="-1.60172">
        <ele>44.4</ele>
        <time>2024-05-10T07:39:40Z</time>
        <extensions>
          <gpxtpx:TrackPointExtension xmlns:gpxtpx="http://www.garmin.com/xmlschemas/TrackPointExtension/v1">
            <gpxtpx:hr>117</gpxtpx:hr>
          </gpxtpx:TrackPointExtension>
        </extensions>
      </trkpt>
      <trkpt lat="46.78366" lon="-1.60169">
        <ele>44.6</ele>
        <time>2024-05-10T07:39:41Z</time>
        <extensions>
          <gpxtpx:TrackPointExtension xmlns:gpxtpx="http://www.garmin.com/xmlschemas/TrackPointExtension/v1">
            <gpxtpx:hr>118</gpxtpx:hr>
          </gpxtpx:TrackPointExtension>
        </extensions>
      </trkpt>
      <trkpt lat="46.78366" lon="-1.60163">
        <ele>44.6</ele>
        <time>2024-05-10T07:39:42Z</time>
        <extensions>
          <gpxtpx:TrackPointExtension xmlns:gpxtpx="http://www.garmin.com/xmlschemas/TrackPointExtension/v1">
            <gpxtpx:hr>119</gpxtpx:hr>
          </gpxtpx:TrackPointExtension>
        </extensions>
      </trkpt>
      <trkpt lat="46.78365" lon="-1.60154">
        <ele>44.8</ele>
        <time>2024-05-10T07:39:43Z</time>
        <extensions>
          <gpxtpx:TrackPointExtension xmlns:gpxtpx="http://www.garmin.com/xmlschemas/TrackPointExtension/v1">
            <gpxtpx:hr>119</gpxtpx:hr>
          </gpxtpx:TrackPointExtension>
        </extensions>
      </trkpt>
      <trkpt lat="46.78364" lon="-1.60151">
        <ele>44.8</ele>
        <time>2024-05-10T07:39:44Z</time>
        <extensions>
          <gpxtpx:TrackPointExtension xmlns:gpxtpx="http://www.garmin.com/xmlschemas/TrackPointExtension/v1">
            <gpxtpx:hr>120</gpxtpx:hr>
          </gpxtpx:TrackPointExtension>
        </extensions>
      </trkpt>
      <trkpt lat="46.78364" lon="-1.60145">
        <ele>45</ele>
        <time>2024-05-10T07:39:45Z</time>
        <extensions>
          <gpxtpx:TrackPointExtension xmlns:gpxtpx="http://www.garmin.com/xmlschemas/TrackPointExtension/v1">
            <gpxtpx:hr>120</gpxtpx:hr>
          </gpxtpx:TrackPointExtension>
        </extensions>
      </trkpt>
      <trkpt lat="46.78363" lon="-1.60136">
        <ele>45</ele>
        <time>2024-05-10T07:39:46Z</time>
        <extensions>
          <gpxtpx:TrackPointExtension xmlns:gpxtpx="http://www.garmin.com/xmlschemas/TrackPointExtension/v1">
            <gpxtpx:hr>121</gpxtpx:hr>
          </gpxtpx:TrackPointExtension>
        </extensions>
      </trkpt>
      <trkpt lat="46.78362" lon="-1.60133">
        <ele>45.2</ele>
        <time>2024-05-10T07:39:47Z</time>
        <extensions>
          <gpxtpx:TrackPointExtension xmlns:gpxtpx="http://www.garmin.com/xmlschemas/TrackPointExtension/v1">
            <gpxtpx:hr>121</gpxtpx:hr>
          </gpxtpx:TrackPointExtension>
        </extensions>
      </trkpt>
      <trkpt lat="46.78362" lon="-1.60127">
        <ele>45.2</ele>
        <time>2024-05-10T07:39:48Z</time>
        <extensions>
          <gpxtpx:TrackPointExtension xmlns:gpxtpx="http://www.garmin.com/xmlschemas/TrackPointExtension/v1">
            <gpxtpx:hr>122</gpxtpx:hr>
          </gpxtpx:TrackPointExtension>
        </extensions>
      </trkpt>
      <trkpt lat="46.78361" lon="-1.60121">
        <ele>45.4</ele>
        <time>2024-05-10T07:39:49Z</time>
        <extensions>
          <gpxtpx:TrackPointExtension xmlns:gpxtpx="http://www.garmin.com/xmlschemas/TrackPointExtension/v1">
            <gpxtpx:hr>123</gpxtpx:hr>
          </gpxtpx:TrackPointExtension>
        </extensions>
      </trkpt>
      <trkpt lat="46.7836" lon="-1.60115">
        <ele>45.4</ele>
        <time>2024-05-10T07:39:50Z</time>
        <extensions>
          <gpxtpx:TrackPointExtension xmlns:gpxtpx="http://www.garmin.com/xmlschemas/TrackPointExtension/v1">
            <gpxtpx:hr>123</gpxtpx:hr>
          </gpxtpx:TrackPointExtension>
        </extensions>
      </trkpt>
      <trkpt lat="46.78359" lon="-1.60109">
        <ele>45.6</ele>
        <time>2024-05-10T07:39:51Z</time>
        <extensions>
          <gpxtpx:TrackPointExtension xmlns:gpxtpx="http://www.garmin.com/xmlschemas/TrackPointExtension/v1">
            <gpxtpx:hr>124</gpxtpx:hr>
          </gpxtpx:TrackPointExtension>
        </extensions>
      </trkpt>
      <trkpt lat="46.78359" lon="-1.60103">
        <ele>45.8</ele>
        <time>2024-05-10T07:39:52Z</time>
        <extensions>
          <gpxtpx:TrackPointExtension xmlns:gpxtpx="http://www.garmin.com/xmlschemas/TrackPointExtension/v1">
            <gpxtpx:hr>124</gpxtpx:hr>
          </gpxtpx:TrackPointExtension>
        </extensions>
      </trkpt>
      <trkpt lat="46.78358" lon="-1.60097">
        <ele>46</ele>
        <time>2024-05-10T07:39:53Z</time>
        <extensions>
          <gpxtpx:TrackPointExtension xmlns:gpxtpx="http://www.garmin.com/xmlschemas/TrackPointExtension/v1">
            <gpxtpx:hr>125</gpxtpx:hr>
          </gpxtpx:TrackPointExtension>
        </extensions>
      </trkpt>
      <trkpt lat="46.78357" lon="-1.60091">
        <ele>46.2</ele>
        <time>2024-05-10T07:39:54Z</time>
        <extensions>
          <gpxtpx:TrackPointExtension xmlns:gpxtpx="http://www.garmin.com/xmlschemas/TrackPointExtension/v1">
            <gpxtpx:hr>125</gpxtpx:hr>
          </gpxtpx:TrackPointExtension>
        </extensions>
      </trkpt>
      <trkpt lat="46.78357" lon="-1.60085">
        <ele>46.4</ele>
        <time>2024-05-10T07:39:55Z</time>
        <extensions>
          <gpxtpx:TrackPointExtension xmlns:gpxtpx="http://www.garmin.com/xmlschemas/TrackPointExtension/v1">
            <gpxtpx:hr>125</gpxtpx:hr>
          </gpxtpx:TrackPointExtension>
        </extensions>
      </trkpt>
      <trkpt lat="46.78356" lon="-1.60079">
        <ele>46.6</ele>
        <time>2024-05-10T07:39:56Z</time>
        <extensions>
          <gpxtpx:TrackPointExtension xmlns:gpxtpx="http://www.garmin.com/xmlschemas/TrackPointExtension/v1">
            <gpxtpx:hr>125</gpxtpx:hr>
          </gpxtpx:TrackPointExtension>
        </extensions>
      </trkpt>
      <trkpt lat="46.78355" lon="-1.60073">
        <ele>46.6</ele>
        <time>2024-05-10T07:39:57Z</time>
        <extensions>
          <gpxtpx:TrackPointExtension xmlns:gpxtpx="http://www.garmin.com/xmlschemas/TrackPointExtension/v1">
            <gpxtpx:hr>126</gpxtpx:hr>
          </gpxtpx:TrackPointExtension>
        </extensions>
      </trkpt>
      <trkpt lat="46.78354" lon="-1.60067">
        <ele>46.8</ele>
        <time>2024-05-10T07:39:58Z</time>
        <extensions>
          <gpxtpx:TrackPointExtension xmlns:gpxtpx="http://www.garmin.com/xmlschemas/TrackPointExtension/v1">
            <gpxtpx:hr>126</gpxtpx:hr>
          </gpxtpx:TrackPointExtension>
        </extensions>
      </trkpt>
      <trkpt lat="46.78353" lon="-1.60061">
        <ele>47</ele>
        <time>2024-05-10T07:39:59Z</time>
        <extensions>
          <gpxtpx:TrackPointExtension xmlns:gpxtpx="http://www.garmin.com/xmlschemas/TrackPointExtension/v1">
            <gpxtpx:hr>127</gpxtpx:hr>
          </gpxtpx:TrackPointExtension>
        </extensions>
      </trkpt>
      <trkpt lat="46.78352" lon="-1.60055">
        <ele>47.2</ele>
        <time>2024-05-10T07:40:00Z</time>
        <extensions>
          <gpxtpx:TrackPointExtension xmlns:gpxtpx="http://www.garmin.com/xmlschemas/TrackPointExtension/v1">
            <gpxtpx:hr>128</gpxtpx:hr>
          </gpxtpx:TrackPointExtension>
        </extensions>
      </trkpt>
      <trkpt lat="46.78351" lon="-1.60049">
        <ele>47.4</ele>
        <time>2024-05-10T07:40:01Z</time>
        <extensions>
          <gpxtpx:TrackPointExtension xmlns:gpxtpx="http://www.garmin.com/xmlschemas/TrackPointExtension/v1">
            <gpxtpx:hr>128</gpxtpx:hr>
          </gpxtpx:TrackPointExtension>
        </extensions>
      </trkpt>
      <trkpt lat="46.7835" lon="-1.60044">
        <ele>47.6</ele>
        <time>2024-05-10T07:40:02Z</time>
        <extensions>
          <gpxtpx:TrackPointExtension xmlns:gpxtpx="http://www.garmin.com/xmlschemas/TrackPointExtension/v1">
            <gpxtpx:hr>128</gpxtpx:hr>
          </gpxtpx:TrackPointExtension>
        </extensions>
      </trkpt>
      <trkpt lat="46.78349" lon="-1.60038">
        <ele>47.6</ele>
        <time>2024-05-10T07:40:03Z</time>
        <extensions>
          <gpxtpx:TrackPointExtension xmlns:gpxtpx="http://www.garmin.com/xmlschemas/TrackPointExtension/v1">
            <gpxtpx:hr>129</gpxtpx:hr>
          </gpxtpx:TrackPointExtension>
        </extensions>
      </trkpt>
      <trkpt lat="46.78348" lon="-1.60032">
        <ele>47.8</ele>
        <time>2024-05-10T07:40:04Z</time>
        <extensions>
          <gpxtpx:TrackPointExtension xmlns:gpxtpx="http://www.garmin.com/xmlschemas/TrackPointExtension/v1">
            <gpxtpx:hr>130</gpxtpx:hr>
          </gpxtpx:TrackPointExtension>
        </extensions>
      </trkpt>
      <trkpt lat="46.78347" lon="-1.60026">
        <ele>48</ele>
        <time>2024-05-10T07:40:05Z</time>
        <extensions>
          <gpxtpx:TrackPointExtension xmlns:gpxtpx="http://www.garmin.com/xmlschemas/TrackPointExtension/v1">
            <gpxtpx:hr>131</gpxtpx:hr>
          </gpxtpx:TrackPointExtension>
        </extensions>
      </trkpt>
      <trkpt lat="46.78346" lon="-1.6002">
        <ele>48</ele>
        <time>2024-05-10T07:40:06Z</time>
        <extensions>
          <gpxtpx:TrackPointExtension xmlns:gpxtpx="http://www.garmin.com/xmlschemas/TrackPointExtension/v1">
            <gpxtpx:hr>132</gpxtpx:hr>
          </gpxtpx:TrackPointExtension>
        </extensions>
      </trkpt>
      <trkpt lat="46.78344" lon="-1.60014">
        <ele>48</ele>
        <time>2024-05-10T07:40:07Z</time>
        <extensions>
          <gpxtpx:TrackPointExtension xmlns:gpxtpx="http://www.garmin.com/xmlschemas/TrackPointExtension/v1">
            <gpxtpx:hr>133</gpxtpx:hr>
          </gpxtpx:TrackPointExtension>
        </extensions>
      </trkpt>
      <trkpt lat="46.78343" lon="-1.60009">
        <ele>48.2</ele>
        <time>2024-05-10T07:40:08Z</time>
        <extensions>
          <gpxtpx:TrackPointExtension xmlns:gpxtpx="http://www.garmin.com/xmlschemas/TrackPointExtension/v1">
            <gpxtpx:hr>133</gpxtpx:hr>
          </gpxtpx:TrackPointExtension>
        </extensions>
      </trkpt>
      <trkpt lat="46.78342" lon="-1.60003">
        <ele>48.2</ele>
        <time>2024-05-10T07:40:09Z</time>
        <extensions>
          <gpxtpx:TrackPointExtension xmlns:gpxtpx="http://www.garmin.com/xmlschemas/TrackPointExtension/v1">
            <gpxtpx:hr>134</gpxtpx:hr>
          </gpxtpx:TrackPointExtension>
        </extensions>
      </trkpt>
      <trkpt lat="46.7834" lon="-1.59998">
        <ele>48.2</ele>
        <time>2024-05-10T07:40:10Z</time>
        <extensions>
          <gpxtpx:TrackPointExtension xmlns:gpxtpx="http://www.garmin.com/xmlschemas/TrackPointExtension/v1">
            <gpxtpx:hr>135</gpxtpx:hr>
          </gpxtpx:TrackPointExtension>
        </extensions>
      </trkpt>
      <trkpt lat="46.78338" lon="-1.59992">
        <ele>48.4</ele>
        <time>2024-05-10T07:40:11Z</time>
        <extensions>
          <gpxtpx:TrackPointExtension xmlns:gpxtpx="http://www.garmin.com/xmlschemas/TrackPointExtension/v1">
            <gpxtpx:hr>136</gpxtpx:hr>
          </gpxtpx:TrackPointExtension>
        </extensions>
      </trkpt>
      <trkpt lat="46.78336" lon="-1.59986">
        <ele>48.6</ele>
        <time>2024-05-10T07:40:12Z</time>
        <extensions>
          <gpxtpx:TrackPointExtension xmlns:gpxtpx="http://www.garmin.com/xmlschemas/TrackPointExtension/v1">
            <gpxtpx:hr>136</gpxtpx:hr>
          </gpxtpx:TrackPointExtension>
        </extensions>
      </trkpt>
      <trkpt lat="46.78335" lon="-1.59981">
        <ele>48.8</ele>
        <time>2024-05-10T07:40:13Z</time>
        <extensions>
          <gpxtpx:TrackPointExtension xmlns:gpxtpx="http://www.garmin.com/xmlschemas/TrackPointExtension/v1">
            <gpxtpx:hr>136</gpxtpx:hr>
          </gpxtpx:TrackPointExtension>
        </extensions>
      </trkpt>
      <trkpt lat="46.78333" lon="-1.59975">
        <ele>49</ele>
        <time>2024-05-10T07:40:14Z</time>
        <extensions>
          <gpxtpx:TrackPointExtension xmlns:gpxtpx="http://www.garmin.com/xmlschemas/TrackPointExtension/v1">
            <gpxtpx:hr>137</gpxtpx:hr>
          </gpxtpx:TrackPointExtension>
        </extensions>
      </trkpt>
      <trkpt lat="46.78331" lon="-1.5997">
        <ele>49</ele>
        <time>2024-05-10T07:40:15Z</time>
        <extensions>
          <gpxtpx:TrackPointExtension xmlns:gpxtpx="http://www.garmin.com/xmlschemas/TrackPointExtension/v1">
            <gpxtpx:hr>137</gpxtpx:hr>
          </gpxtpx:TrackPointExtension>
        </extensions>
      </trkpt>
      <trkpt lat="46.78329" lon="-1.59964">
        <ele>49.2</ele>
        <time>2024-05-10T07:40:16Z</time>
        <extensions>
          <gpxtpx:TrackPointExtension xmlns:gpxtpx="http://www.garmin.com/xmlschemas/TrackPointExtension/v1">
            <gpxtpx:hr>137</gpxtpx:hr>
          </gpxtpx:TrackPointExtension>
        </extensions>
      </trkpt>
      <trkpt lat="46.78327" lon="-1.59959">
        <ele>49.2</ele>
        <time>2024-05-10T07:40:17Z</time>
        <extensions>
          <gpxtpx:TrackPointExtension xmlns:gpxtpx="http://www.garmin.com/xmlschemas/TrackPointExtension/v1">
            <gpxtpx:hr>137</gpxtpx:hr>
          </gpxtpx:TrackPointExtension>
        </extensions>
      </trkpt>
      <trkpt lat="46.78325" lon="-1.59953">
        <ele>49.2</ele>
        <time>2024-05-10T07:40:18Z</time>
        <extensions>
          <gpxtpx:TrackPointExtension xmlns:gpxtpx="http://www.garmin.com/xmlschemas/TrackPointExtension/v1">
            <gpxtpx:hr>137</gpxtpx:hr>
          </gpxtpx:TrackPointExtension>
        </extensions>
      </trkpt>
      <trkpt lat="46.78323" lon="-1.59947">
        <ele>49</ele>
        <time>2024-05-10T07:40:19Z</time>
        <extensions>
          <gpxtpx:TrackPointExtension xmlns:gpxtpx="http://www.garmin.com/xmlschemas/TrackPointExtension/v1">
            <gpxtpx:hr>137</gpxtpx:hr>
          </gpxtpx:TrackPointExtension>
        </extensions>
      </trkpt>
      <trkpt lat="46.78321" lon="-1.59942">
        <ele>49</ele>
        <time>2024-05-10T07:40:20Z</time>
        <extensions>
          <gpxtpx:TrackPointExtension xmlns:gpxtpx="http://www.garmin.com/xmlschemas/TrackPointExtension/v1">
            <gpxtpx:hr>137</gpxtpx:hr>
          </gpxtpx:TrackPointExtension>
        </extensions>
      </trkpt>
      <trkpt lat="46.78319" lon="-1.59936">
        <ele>49</ele>
        <time>2024-05-10T07:40:21Z</time>
        <extensions>
          <gpxtpx:TrackPointExtension xmlns:gpxtpx="http://www.garmin.com/xmlschemas/TrackPointExtension/v1">
            <gpxtpx:hr>137</gpxtpx:hr>
          </gpxtpx:TrackPointExtension>
        </extensions>
      </trkpt>
      <trkpt lat="46.78317" lon="-1.59931">
        <ele>48.8</ele>
        <time>2024-05-10T07:40:22Z</time>
        <extensions>
          <gpxtpx:TrackPointExtension xmlns:gpxtpx="http://www.garmin.com/xmlschemas/TrackPointExtension/v1">
            <gpxtpx:hr>136</gpxtpx:hr>
          </gpxtpx:TrackPointExtension>
        </extensions>
      </trkpt>
      <trkpt lat="46.78315" lon="-1.59925">
        <ele>48.8</ele>
        <time>2024-05-10T07:40:23Z</time>
        <extensions>
          <gpxtpx:TrackPointExtension xmlns:gpxtpx="http://www.garmin.com/xmlschemas/TrackPointExtension/v1">
            <gpxtpx:hr>136</gpxtpx:hr>
          </gpxtpx:TrackPointExtension>
        </extensions>
      </trkpt>
      <trkpt lat="46.78314" lon="-1.59919">
        <ele>48.8</ele>
        <time>2024-05-10T07:40:24Z</time>
        <extensions>
          <gpxtpx:TrackPointExtension xmlns:gpxtpx="http://www.garmin.com/xmlschemas/TrackPointExtension/v1">
            <gpxtpx:hr>136</gpxtpx:hr>
          </gpxtpx:TrackPointExtension>
        </extensions>
      </trkpt>
      <trkpt lat="46.78312" lon="-1.59913">
        <ele>48.8</ele>
        <time>2024-05-10T07:40:25Z</time>
        <extensions>
          <gpxtpx:TrackPointExtension xmlns:gpxtpx="http://www.garmin.com/xmlschemas/TrackPointExtension/v1">
            <gpxtpx:hr>136</gpxtpx:hr>
          </gpxtpx:TrackPointExtension>
        </extensions>
      </trkpt>
      <trkpt lat="46.78311" lon="-1.59907">
        <ele>48.8</ele>
        <time>2024-05-10T07:40:26Z</time>
        <extensions>
          <gpxtpx:TrackPointExtension xmlns:gpxtpx="http://www.garmin.com/xmlschemas/TrackPointExtension/v1">
            <gpxtpx:hr>135</gpxtpx:hr>
          </gpxtpx:TrackPointExtension>
        </extensions>
      </trkpt>
      <trkpt lat="46.7831" lon="-1.599">
        <ele>48.6</ele>
        <time>2024-05-10T07:40:27Z</time>
        <extensions>
          <gpxtpx:TrackPointExtension xmlns:gpxtpx="http://www.garmin.com/xmlschemas/TrackPointExtension/v1">
            <gpxtpx:hr>135</gpxtpx:hr>
          </gpxtpx:TrackPointExtension>
        </extensions>
      </trkpt>
      <trkpt lat="46.7831" lon="-1.59894">
        <ele>48.6</ele>
        <time>2024-05-10T07:40:28Z</time>
        <extensions>
          <gpxtpx:TrackPointExtension xmlns:gpxtpx="http://www.garmin.com/xmlschemas/TrackPointExtension/v1">
            <gpxtpx:hr>135</gpxtpx:hr>
          </gpxtpx:TrackPointExtension>
        </extensions>
      </trkpt>
      <trkpt lat="46.78309" lon="-1.59887">
        <ele>48.6</ele>
        <time>2024-05-10T07:40:29Z</time>
        <extensions>
          <gpxtpx:TrackPointExtension xmlns:gpxtpx="http://www.garmin.com/xmlschemas/TrackPointExtension/v1">
            <gpxtpx:hr>135</gpxtpx:hr>
          </gpxtpx:TrackPointExtension>
        </extensions>
      </trkpt>
      <trkpt lat="46.78309" lon="-1.5988">
        <ele>48.6</ele>
        <time>2024-05-10T07:40:31Z</time>
        <extensions>
          <gpxtpx:TrackPointExtension xmlns:gpxtpx="http://www.garmin.com/xmlschemas/TrackPointExtension/v1">
            <gpxtpx:hr>134</gpxtpx:hr>
          </gpxtpx:TrackPointExtension>
        </extensions>
      </trkpt>
      <trkpt lat="46.78309" lon="-1.59873">
        <ele>48.6</ele>
        <time>2024-05-10T07:40:32Z</time>
        <extensions>
          <gpxtpx:TrackPointExtension xmlns:gpxtpx="http://www.garmin.com/xmlschemas/TrackPointExtension/v1">
            <gpxtpx:hr>134</gpxtpx:hr>
          </gpxtpx:TrackPointExtension>
        </extensions>
      </trkpt>
      <trkpt lat="46.7831" lon="-1.59866">
        <ele>48.4</ele>
        <time>2024-05-10T07:40:33Z</time>
        <extensions>
          <gpxtpx:TrackPointExtension xmlns:gpxtpx="http://www.garmin.com/xmlschemas/TrackPointExtension/v1">
            <gpxtpx:hr>133</gpxtpx:hr>
          </gpxtpx:TrackPointExtension>
        </extensions>
      </trkpt>
      <trkpt lat="46.7831" lon="-1.59859">
        <ele>48.4</ele>
        <time>2024-05-10T07:40:34Z</time>
        <extensions>
          <gpxtpx:TrackPointExtension xmlns:gpxtpx="http://www.garmin.com/xmlschemas/TrackPointExtension/v1">
            <gpxtpx:hr>132</gpxtpx:hr>
          </gpxtpx:TrackPointExtension>
        </extensions>
      </trkpt>
      <trkpt lat="46.78311" lon="-1.59853">
        <ele>48.2</ele>
        <time>2024-05-10T07:40:35Z</time>
        <extensions>
          <gpxtpx:TrackPointExtension xmlns:gpxtpx="http://www.garmin.com/xmlschemas/TrackPointExtension/v1">
            <gpxtpx:hr>132</gpxtpx:hr>
          </gpxtpx:TrackPointExtension>
        </extensions>
      </trkpt>
      <trkpt lat="46.78312" lon="-1.59846">
        <ele>48.4</ele>
        <time>2024-05-10T07:40:36Z</time>
        <extensions>
          <gpxtpx:TrackPointExtension xmlns:gpxtpx="http://www.garmin.com/xmlschemas/TrackPointExtension/v1">
            <gpxtpx:hr>131</gpxtpx:hr>
          </gpxtpx:TrackPointExtension>
        </extensions>
      </trkpt>
      <trkpt lat="46.78313" lon="-1.59837">
        <ele>48.2</ele>
        <time>2024-05-10T07:40:37Z</time>
        <extensions>
          <gpxtpx:TrackPointExtension xmlns:gpxtpx="http://www.garmin.com/xmlschemas/TrackPointExtension/v1">
            <gpxtpx:hr>130</gpxtpx:hr>
          </gpxtpx:TrackPointExtension>
        </extensions>
      </trkpt>
      <trkpt lat="46.78314" lon="-1.59828">
        <ele>48</ele>
        <time>2024-05-10T07:40:38Z</time>
        <extensions>
          <gpxtpx:TrackPointExtension xmlns:gpxtpx="http://www.garmin.com/xmlschemas/TrackPointExtension/v1">
            <gpxtpx:hr>129</gpxtpx:hr>
          </gpxtpx:TrackPointExtension>
        </extensions>
      </trkpt>
      <trkpt lat="46.78315" lon="-1.59819">
        <ele>48</ele>
        <time>2024-05-10T07:40:39Z</time>
        <extensions>
          <gpxtpx:TrackPointExtension xmlns:gpxtpx="http://www.garmin.com/xmlschemas/TrackPointExtension/v1">
            <gpxtpx:hr>128</gpxtpx:hr>
          </gpxtpx:TrackPointExtension>
        </extensions>
      </trkpt>
      <trkpt lat="46.78316" lon="-1.59811">
        <ele>47.8</ele>
        <time>2024-05-10T07:40:40Z</time>
        <extensions>
          <gpxtpx:TrackPointExtension xmlns:gpxtpx="http://www.garmin.com/xmlschemas/TrackPointExtension/v1">
            <gpxtpx:hr>128</gpxtpx:hr>
          </gpxtpx:TrackPointExtension>
        </extensions>
      </trkpt>
      <trkpt lat="46.78317" lon="-1.59802">
        <ele>47.4</ele>
        <time>2024-05-10T07:40:41Z</time>
        <extensions>
          <gpxtpx:TrackPointExtension xmlns:gpxtpx="http://www.garmin.com/xmlschemas/TrackPointExtension/v1">
            <gpxtpx:hr>127</gpxtpx:hr>
          </gpxtpx:TrackPointExtension>
        </extensions>
      </trkpt>
      <trkpt lat="46.78318" lon="-1.59793">
        <ele>47</ele>
        <time>2024-05-10T07:40:42Z</time>
        <extensions>
          <gpxtpx:TrackPointExtension xmlns:gpxtpx="http://www.garmin.com/xmlschemas/TrackPointExtension/v1">
            <gpxtpx:hr>126</gpxtpx:hr>
          </gpxtpx:TrackPointExtension>
        </extensions>
      </trkpt>
      <trkpt lat="46.78319" lon="-1.59784">
        <ele>46.4</ele>
        <time>2024-05-10T07:40:43Z</time>
        <extensions>
          <gpxtpx:TrackPointExtension xmlns:gpxtpx="http://www.garmin.com/xmlschemas/TrackPointExtension/v1">
            <gpxtpx:hr>126</gpxtpx:hr>
          </gpxtpx:TrackPointExtension>
        </extensions>
      </trkpt>
      <trkpt lat="46.7832" lon="-1.59774">
        <ele>46</ele>
        <time>2024-05-10T07:40:44Z</time>
        <extensions>
          <gpxtpx:TrackPointExtension xmlns:gpxtpx="http://www.garmin.com/xmlschemas/TrackPointExtension/v1">
            <gpxtpx:hr>126</gpxtpx:hr>
          </gpxtpx:TrackPointExtension>
        </extensions>
      </trkpt>
      <trkpt lat="46.78321" lon="-1.59763">
        <ele>45.4</ele>
        <time>2024-05-10T07:40:45Z</time>
        <extensions>
          <gpxtpx:TrackPointExtension xmlns:gpxtpx="http://www.garmin.com/xmlschemas/TrackPointExtension/v1">
            <gpxtpx:hr>125</gpxtpx:hr>
          </gpxtpx:TrackPointExtension>
        </extensions>
      </trkpt>
      <trkpt lat="46.78322" lon="-1.59752">
        <ele>44.8</ele>
        <time>2024-05-10T07:40:46Z</time>
        <extensions>
          <gpxtpx:TrackPointExtension xmlns:gpxtpx="http://www.garmin.com/xmlschemas/TrackPointExtension/v1">
            <gpxtpx:hr>125</gpxtpx:hr>
          </gpxtpx:TrackPointExtension>
        </extensions>
      </trkpt>
      <trkpt lat="46.78323" lon="-1.5974">
        <ele>44.2</ele>
        <time>2024-05-10T07:40:47Z</time>
        <extensions>
          <gpxtpx:TrackPointExtension xmlns:gpxtpx="http://www.garmin.com/xmlschemas/TrackPointExtension/v1">
            <gpxtpx:hr>124</gpxtpx:hr>
          </gpxtpx:TrackPointExtension>
        </extensions>
      </trkpt>
      <trkpt lat="46.78324" lon="-1.59729">
        <ele>43.6</ele>
        <time>2024-05-10T07:40:48Z</time>
        <extensions>
          <gpxtpx:TrackPointExtension xmlns:gpxtpx="http://www.garmin.com/xmlschemas/TrackPointExtension/v1">
            <gpxtpx:hr>124</gpxtpx:hr>
          </gpxtpx:TrackPointExtension>
        </extensions>
      </trkpt>
      <trkpt lat="46.78325" lon="-1.59717">
        <ele>43</ele>
        <time>2024-05-10T07:40:49Z</time>
        <extensions>
          <gpxtpx:TrackPointExtension xmlns:gpxtpx="http://www.garmin.com/xmlschemas/TrackPointExtension/v1">
            <gpxtpx:hr>124</gpxtpx:hr>
          </gpxtpx:TrackPointExtension>
        </extensions>
      </trkpt>
      <trkpt lat="46.78326" lon="-1.59705">
        <ele>42.4</ele>
        <time>2024-05-10T07:40:50Z</time>
        <extensions>
          <gpxtpx:TrackPointExtension xmlns:gpxtpx="http://www.garmin.com/xmlschemas/TrackPointExtension/v1">
            <gpxtpx:hr>123</gpxtpx:hr>
          </gpxtpx:TrackPointExtension>
        </extensions>
      </trkpt>
      <trkpt lat="46.78328" lon="-1.59693">
        <ele>41.8</ele>
        <time>2024-05-10T07:40:51Z</time>
        <extensions>
          <gpxtpx:TrackPointExtension xmlns:gpxtpx="http://www.garmin.com/xmlschemas/TrackPointExtension/v1">
            <gpxtpx:hr>123</gpxtpx:hr>
          </gpxtpx:TrackPointExtension>
        </extensions>
      </trkpt>
      <trkpt lat="46.78329" lon="-1.59681">
        <ele>41</ele>
        <time>2024-05-10T07:40:52Z</time>
        <extensions>
          <gpxtpx:TrackPointExtension xmlns:gpxtpx="http://www.garmin.com/xmlschemas/TrackPointExtension/v1">
            <gpxtpx:hr>122</gpxtpx:hr>
          </gpxtpx:TrackPointExtension>
        </extensions>
      </trkpt>
      <trkpt lat="46.7833" lon="-1.5967">
        <ele>40.2</ele>
        <time>2024-05-10T07:40:53Z</time>
        <extensions>
          <gpxtpx:TrackPointExtension xmlns:gpxtpx="http://www.garmin.com/xmlschemas/TrackPointExtension/v1">
            <gpxtpx:hr>121</gpxtpx:hr>
          </gpxtpx:TrackPointExtension>
        </extensions>
      </trkpt>
      <trkpt lat="46.78331" lon="-1.59659">
        <ele>39.6</ele>
        <time>2024-05-10T07:40:54Z</time>
        <extensions>
          <gpxtpx:TrackPointExtension xmlns:gpxtpx="http://www.garmin.com/xmlschemas/TrackPointExtension/v1">
            <gpxtpx:hr>120</gpxtpx:hr>
          </gpxtpx:TrackPointExtension>
        </extensions>
      </trkpt>
      <trkpt lat="46.7833" lon="-1.59648">
        <ele>39.2</ele>
        <time>2024-05-10T07:40:55Z</time>
        <extensions>
          <gpxtpx:TrackPointExtension xmlns:gpxtpx="http://www.garmin.com/xmlschemas/TrackPointExtension/v1">
            <gpxtpx:hr>119</gpxtpx:hr>
          </gpxtpx:TrackPointExtension>
        </extensions>
      </trkpt>
      <trkpt lat="46.78329" lon="-1.59638">
        <ele>38.8</ele>
        <time>2024-05-10T07:40:56Z</time>
        <extensions>
          <gpxtpx:TrackPointExtension xmlns:gpxtpx="http://www.garmin.com/xmlschemas/TrackPointExtension/v1">
            <gpxtpx:hr>119</gpxtpx:hr>
          </gpxtpx:TrackPointExtension>
        </extensions>
      </trkpt>
      <trkpt lat="46.78326" lon="-1.59628">
        <ele>37.8</ele>
        <time>2024-05-10T07:40:57Z</time>
        <extensions>
          <gpxtpx:TrackPointExtension xmlns:gpxtpx="http://www.garmin.com/xmlschemas/TrackPointExtension/v1">
            <gpxtpx:hr>118</gpxtpx:hr>
          </gpxtpx:TrackPointExtension>
        </extensions>
      </trkpt>
      <trkpt lat="46.78323" lon="-1.59617">
        <ele>36.8</ele>
        <time>2024-05-10T07:40:58Z</time>
        <extensions>
          <gpxtpx:TrackPointExtension xmlns:gpxtpx="http://www.garmin.com/xmlschemas/TrackPointExtension/v1">
            <gpxtpx:hr>117</gpxtpx:hr>
          </gpxtpx:TrackPointExtension>
        </extensions>
      </trkpt>
      <trkpt lat="46.78319" lon="-1.59605">
        <ele>35.6</ele>
        <time>2024-05-10T07:40:59Z</time>
        <extensions>
          <gpxtpx:TrackPointExtension xmlns:gpxtpx="http://www.garmin.com/xmlschemas/TrackPointExtension/v1">
            <gpxtpx:hr>116</gpxtpx:hr>
          </gpxtpx:TrackPointExtension>
        </extensions>
      </trkpt>
      <trkpt lat="46.78316" lon="-1.59593">
        <ele>34.6</ele>
        <time>2024-05-10T07:41:00Z</time>
        <extensions>
          <gpxtpx:TrackPointExtension xmlns:gpxtpx="http://www.garmin.com/xmlschemas/TrackPointExtension/v1">
            <gpxtpx:hr>116</gpxtpx:hr>
          </gpxtpx:TrackPointExtension>
        </extensions>
      </trkpt>
      <trkpt lat="46.78313" lon="-1.5958">
        <ele>33.6</ele>
        <time>2024-05-10T07:41:01Z</time>
        <extensions>
          <gpxtpx:TrackPointExtension xmlns:gpxtpx="http://www.garmin.com/xmlschemas/TrackPointExtension/v1">
            <gpxtpx:hr>115</gpxtpx:hr>
          </gpxtpx:TrackPointExtension>
        </extensions>
      </trkpt>
      <trkpt lat="46.78312" lon="-1.59568">
        <ele>32.6</ele>
        <time>2024-05-10T07:41:02Z</time>
        <extensions>
          <gpxtpx:TrackPointExtension xmlns:gpxtpx="http://www.garmin.com/xmlschemas/TrackPointExtension/v1">
            <gpxtpx:hr>114</gpxtpx:hr>
          </gpxtpx:TrackPointExtension>
        </extensions>
      </trkpt>
      <trkpt lat="46.78311" lon="-1.59556">
        <ele>32</ele>
        <time>2024-05-10T07:41:03Z</time>
        <extensions>
          <gpxtpx:TrackPointExtension xmlns:gpxtpx="http://www.garmin.com/xmlschemas/TrackPointExtension/v1">
            <gpxtpx:hr>113</gpxtpx:hr>
          </gpxtpx:TrackPointExtension>
        </extensions>
      </trkpt>
      <trkpt lat="46.78311" lon="-1.59556">
        <ele>32</ele>
        <time>2024-05-10T07:41:03Z</time>
        <extensions>
          <gpxtpx:TrackPointExtension xmlns:gpxtpx="http://www.garmin.com/xmlschemas/TrackPointExtension/v1">
            <gpxtpx:hr>113</gpxtpx:hr>
          </gpxtpx:TrackPointExtension>
        </extensions>
      </trkpt>
      <trkpt lat="46.7831" lon="-1.59546">
        <ele>31.4</ele>
        <time>2024-05-10T07:41:04Z</time>
        <extensions>
          <gpxtpx:TrackPointExtension xmlns:gpxtpx="http://www.garmin.com/xmlschemas/TrackPointExtension/v1">
            <gpxtpx:hr>112</gpxtpx:hr>
          </gpxtpx:TrackPointExtension>
        </extensions>
      </trkpt>
      <trkpt lat="46.7831" lon="-1.59536">
        <ele>30.8</ele>
        <time>2024-05-10T07:41:05Z</time>
        <extensions>
          <gpxtpx:TrackPointExtension xmlns:gpxtpx="http://www.garmin.com/xmlschemas/TrackPointExtension/v1">
            <gpxtpx:hr>111</gpxtpx:hr>
          </gpxtpx:TrackPointExtension>
        </extensions>
      </trkpt>
      <trkpt lat="46.78318" lon="-1.59547">
        <ele>26.2</ele>
      </trkpt>
      <trkpt lat="46.78313" lon="-1.59545">
        <ele>28.6</ele>
        <time>2024-05-10T07:54:15Z</time>
        <extensions>
          <gpxtpx:TrackPointExtension xmlns:gpxtpx="http://www.garmin.com/xmlschemas/TrackPointExtension/v1">
            <gpxtpx:hr>131</gpxtpx:hr>
          </gpxtpx:TrackPointExtension>
        </extensions>
      </trkpt>
      <trkpt lat="46.78314" lon="-1.59548">
        <ele>28.8</ele>
        <time>2024-05-10T07:54:16Z</time>
        <extensions>
          <gpxtpx:TrackPointExtension xmlns:gpxtpx="http://www.garmin.com/xmlschemas/TrackPointExtension/v1">
            <gpxtpx:hr>131</gpxtpx:hr>
          </gpxtpx:TrackPointExtension>
        </extensions>
      </trkpt>
      <trkpt lat="46.78317" lon="-1.59549">
        <ele>29</ele>
        <time>2024-05-10T07:54:17Z</time>
        <extensions>
          <gpxtpx:TrackPointExtension xmlns:gpxtpx="http://www.garmin.com/xmlschemas/TrackPointExtension/v1">
            <gpxtpx:hr>131</gpxtpx:hr>
          </gpxtpx:TrackPointExtension>
        </extensions>
      </trkpt>
      <trkpt lat="46.78319" lon="-1.59548">
        <ele>29.2</ele>
        <time>2024-05-10T07:54:18Z</time>
        <extensions>
          <gpxtpx:TrackPointExtension xmlns:gpxtpx="http://www.garmin.com/xmlschemas/TrackPointExtension/v1">
            <gpxtpx:hr>131</gpxtpx:hr>
          </gpxtpx:TrackPointExtension>
        </extensions>
      </trkpt>
      <trkpt lat="46.78322" lon="-1.59547">
        <ele>29.4</ele>
        <time>2024-05-10T07:54:19Z</time>
        <extensions>
          <gpxtpx:TrackPointExtension xmlns:gpxtpx="http://www.garmin.com/xmlschemas/TrackPointExtension/v1">
            <gpxtpx:hr>131</gpxtpx:hr>
          </gpxtpx:TrackPointExtension>
        </extensions>
      </trkpt>
      <trkpt lat="46.78325" lon="-1.59546">
        <ele>29.4</ele>
        <time>2024-05-10T07:54:20Z</time>
        <extensions>
          <gpxtpx:TrackPointExtension xmlns:gpxtpx="http://www.garmin.com/xmlschemas/TrackPointExtension/v1">
            <gpxtpx:hr>132</gpxtpx:hr>
          </gpxtpx:TrackPointExtension>
        </extensions>
      </trkpt>
      <trkpt lat="46.78328" lon="-1.59544">
        <ele>29.6</ele>
        <time>2024-05-10T07:54:21Z</time>
        <extensions>
          <gpxtpx:TrackPointExtension xmlns:gpxtpx="http://www.garmin.com/xmlschemas/TrackPointExtension/v1">
            <gpxtpx:hr>132</gpxtpx:hr>
          </gpxtpx:TrackPointExtension>
        </extensions>
      </trkpt>
      <trkpt lat="46.78331" lon="-1.59542">
        <ele>29.6</ele>
        <time>2024-05-10T07:54:22Z</time>
        <extensions>
          <gpxtpx:TrackPointExtension xmlns:gpxtpx="http://www.garmin.com/xmlschemas/TrackPointExtension/v1">
            <gpxtpx:hr>133</gpxtpx:hr>
          </gpxtpx:TrackPointExtension>
        </extensions>
      </trkpt>
      <trkpt lat="46.78334" lon="-1.59541">
        <ele>29.8</ele>
        <time>2024-05-10T07:54:23Z</time>
        <extensions>
          <gpxtpx:TrackPointExtension xmlns:gpxtpx="http://www.garmin.com/xmlschemas/TrackPointExtension/v1">
            <gpxtpx:hr>133</gpxtpx:hr>
          </gpxtpx:TrackPointExtension>
        </extensions>
      </trkpt>
      <trkpt lat="46.78338" lon="-1.59539">
        <ele>29.8</ele>
        <time>2024-05-10T07:54:24Z</time>
        <extensions>
          <gpxtpx:TrackPointExtension xmlns:gpxtpx="http://www.garmin.com/xmlschemas/TrackPointExtension/v1">
            <gpxtpx:hr>134</gpxtpx:hr>
          </gpxtpx:TrackPointExtension>
        </extensions>
      </trkpt>
      <trkpt lat="46.7834" lon="-1.59538">
        <ele>29.8</ele>
        <time>2024-05-10T07:54:25Z</time>
        <extensions>
          <gpxtpx:TrackPointExtension xmlns:gpxtpx="http://www.garmin.com/xmlschemas/TrackPointExtension/v1">
            <gpxtpx:hr>135</gpxtpx:hr>
          </gpxtpx:TrackPointExtension>
        </extensions>
      </trkpt>
      <trkpt lat="46.78343" lon="-1.59538">
        <ele>29.8</ele>
        <time>2024-05-10T07:54:26Z</time>
        <extensions>
          <gpxtpx:TrackPointExtension xmlns:gpxtpx="http://www.garmin.com/xmlschemas/TrackPointExtension/v1">
            <gpxtpx:hr>135</gpxtpx:hr>
          </gpxtpx:TrackPointExtension>
        </extensions>
      </trkpt>
      <trkpt lat="46.78346" lon="-1.59538">
        <ele>29.8</ele>
        <time>2024-05-10T07:54:28Z</time>
        <extensions>
          <gpxtpx:TrackPointExtension xmlns:gpxtpx="http://www.garmin.com/xmlschemas/TrackPointExtension/v1">
            <gpxtpx:hr>136</gpxtpx:hr>
          </gpxtpx:TrackPointExtension>
        </extensions>
      </trkpt>
      <trkpt lat="46.78349" lon="-1.59539">
        <ele>29.8</ele>
        <time>2024-05-10T07:54:29Z</time>
        <extensions>
          <gpxtpx:TrackPointExtension xmlns:gpxtpx="http://www.garmin.com/xmlschemas/TrackPointExtension/v1">
            <gpxtpx:hr>136</gpxtpx:hr>
          </gpxtpx:TrackPointExtension>
        </extensions>
      </trkpt>
      <trkpt lat="46.78351" lon="-1.5954">
        <ele>29.8</ele>
        <time>2024-05-10T07:54:30Z</time>
        <extensions>
          <gpxtpx:TrackPointExtension xmlns:gpxtpx="http://www.garmin.com/xmlschemas/TrackPointExtension/v1">
            <gpxtpx:hr>137</gpxtpx:hr>
          </gpxtpx:TrackPointExtension>
        </extensions>
      </trkpt>
      <trkpt lat="46.78354" lon="-1.59541">
        <ele>30</ele>
        <time>2024-05-10T07:54:31Z</time>
        <extensions>
          <gpxtpx:TrackPointExtension xmlns:gpxtpx="http://www.garmin.com/xmlschemas/TrackPointExtension/v1">
            <gpxtpx:hr>137</gpxtpx:hr>
          </gpxtpx:TrackPointExtension>
        </extensions>
      </trkpt>
      <trkpt lat="46.78357" lon="-1.59543">
        <ele>30.2</ele>
        <time>2024-05-10T07:54:32Z</time>
        <extensions>
          <gpxtpx:TrackPointExtension xmlns:gpxtpx="http://www.garmin.com/xmlschemas/TrackPointExtension/v1">
            <gpxtpx:hr>138</gpxtpx:hr>
          </gpxtpx:TrackPointExtension>
        </extensions>
      </trkpt>
      <trkpt lat="46.7836" lon="-1.59545">
        <ele>30.4</ele>
        <time>2024-05-10T07:54:33Z</time>
        <extensions>
          <gpxtpx:TrackPointExtension xmlns:gpxtpx="http://www.garmin.com/xmlschemas/TrackPointExtension/v1">
            <gpxtpx:hr>139</gpxtpx:hr>
          </gpxtpx:TrackPointExtension>
        </extensions>
      </trkpt>
      <trkpt lat="46.78363" lon="-1.59546">
        <ele>30.4</ele>
        <time>2024-05-10T07:54:34Z</time>
        <extensions>
          <gpxtpx:TrackPointExtension xmlns:gpxtpx="http://www.garmin.com/xmlschemas/TrackPointExtension/v1">
            <gpxtpx:hr>139</gpxtpx:hr>
          </gpxtpx:TrackPointExtension>
        </extensions>
      </trkpt>
      <trkpt lat="46.78366" lon="-1.59547">
        <ele>30.6</ele>
        <time>2024-05-10T07:54:35Z</time>
        <extensions>
          <gpxtpx:TrackPointExtension xmlns:gpxtpx="http://www.garmin.com/xmlschemas/TrackPointExtension/v1">
            <gpxtpx:hr>140</gpxtpx:hr>
          </gpxtpx:TrackPointExtension>
        </extensions>
      </trkpt>
      <trkpt lat="46.78368" lon="-1.59548">
        <ele>30.8</ele>
        <time>2024-05-10T07:54:36Z</time>
        <extensions>
          <gpxtpx:TrackPointExtension xmlns:gpxtpx="http://www.garmin.com/xmlschemas/TrackPointExtension/v1">
            <gpxtpx:hr>140</gpxtpx:hr>
          </gpxtpx:TrackPointExtension>
        </extensions>
      </trkpt>
      <trkpt lat="46.78373" lon="-1.5955">
        <ele>30.8</ele>
        <time>2024-05-10T07:54:37Z</time>
        <extensions>
          <gpxtpx:TrackPointExtension xmlns:gpxtpx="http://www.garmin.com/xmlschemas/TrackPointExtension/v1">
            <gpxtpx:hr>140</gpxtpx:hr>
          </gpxtpx:TrackPointExtension>
        </extensions>
      </trkpt>
      <trkpt lat="46.78377" lon="-1.59551">
        <ele>31</ele>
        <time>2024-05-10T07:54:38Z</time>
        <extensions>
          <gpxtpx:TrackPointExtension xmlns:gpxtpx="http://www.garmin.com/xmlschemas/TrackPointExtension/v1">
            <gpxtpx:hr>141</gpxtpx:hr>
          </gpxtpx:TrackPointExtension>
        </extensions>
      </trkpt>
      <trkpt lat="46.7838" lon="-1.59552">
        <ele>31.2</ele>
        <time>2024-05-10T07:54:39Z</time>
        <extensions>
          <gpxtpx:TrackPointExtension xmlns:gpxtpx="http://www.garmin.com/xmlschemas/TrackPointExtension/v1">
            <gpxtpx:hr>141</gpxtpx:hr>
          </gpxtpx:TrackPointExtension>
        </extensions>
      </trkpt>
      <trkpt lat="46.78384" lon="-1.59553">
        <ele>31.2</ele>
        <time>2024-05-10T07:54:40Z</time>
        <extensions>
          <gpxtpx:TrackPointExtension xmlns:gpxtpx="http://www.garmin.com/xmlschemas/TrackPointExtension/v1">
            <gpxtpx:hr>141</gpxtpx:hr>
          </gpxtpx:TrackPointExtension>
        </extensions>
      </trkpt>
      <trkpt lat="46.78385" lon="-1.59553">
        <ele>31.4</ele>
        <time>2024-05-10T07:54:41Z</time>
        <extensions>
          <gpxtpx:TrackPointExtension xmlns:gpxtpx="http://www.garmin.com/xmlschemas/TrackPointExtension/v1">
            <gpxtpx:hr>141</gpxtpx:hr>
          </gpxtpx:TrackPointExtension>
        </extensions>
      </trkpt>
      <trkpt lat="46.78387" lon="-1.59554">
        <ele>31.6</ele>
        <time>2024-05-10T07:54:42Z</time>
        <extensions>
          <gpxtpx:TrackPointExtension xmlns:gpxtpx="http://www.garmin.com/xmlschemas/TrackPointExtension/v1">
            <gpxtpx:hr>141</gpxtpx:hr>
          </gpxtpx:TrackPointExtension>
        </extensions>
      </trkpt>
      <trkpt lat="46.7839" lon="-1.59554">
        <ele>31.8</ele>
        <time>2024-05-10T07:54:43Z</time>
        <extensions>
          <gpxtpx:TrackPointExtension xmlns:gpxtpx="http://www.garmin.com/xmlschemas/TrackPointExtension/v1">
            <gpxtpx:hr>142</gpxtpx:hr>
          </gpxtpx:TrackPointExtension>
        </extensions>
      </trkpt>
      <trkpt lat="46.78392" lon="-1.59554">
        <ele>32</ele>
        <time>2024-05-10T07:54:44Z</time>
        <extensions>
          <gpxtpx:TrackPointExtension xmlns:gpxtpx="http://www.garmin.com/xmlschemas/TrackPointExtension/v1">
            <gpxtpx:hr>142</gpxtpx:hr>
          </gpxtpx:TrackPointExtension>
        </extensions>
      </trkpt>
      <trkpt lat="46.78394" lon="-1.59554">
        <ele>32.2</ele>
        <time>2024-05-10T07:54:45Z</time>
        <extensions>
          <gpxtpx:TrackPointExtension xmlns:gpxtpx="http://www.garmin.com/xmlschemas/TrackPointExtension/v1">
            <gpxtpx:hr>143</gpxtpx:hr>
          </gpxtpx:TrackPointExtension>
        </extensions>
      </trkpt>
      <trkpt lat="46.78396" lon="-1.59554">
        <ele>32.4</ele>
        <time>2024-05-10T07:54:46Z</time>
        <extensions>
          <gpxtpx:TrackPointExtension xmlns:gpxtpx="http://www.garmin.com/xmlschemas/TrackPointExtension/v1">
            <gpxtpx:hr>144</gpxtpx:hr>
          </gpxtpx:TrackPointExtension>
        </extensions>
      </trkpt>
      <trkpt lat="46.78399" lon="-1.59554">
        <ele>32.6</ele>
        <time>2024-05-10T07:54:47Z</time>
        <extensions>
          <gpxtpx:TrackPointExtension xmlns:gpxtpx="http://www.garmin.com/xmlschemas/TrackPointExtension/v1">
            <gpxtpx:hr>145</gpxtpx:hr>
          </gpxtpx:TrackPointExtension>
        </extensions>
      </trkpt>
      <trkpt lat="46.78401" lon="-1.59553">
        <ele>33</ele>
        <time>2024-05-10T07:54:48Z</time>
        <extensions>
          <gpxtpx:TrackPointExtension xmlns:gpxtpx="http://www.garmin.com/xmlschemas/TrackPointExtension/v1">
            <gpxtpx:hr>146</gpxtpx:hr>
          </gpxtpx:TrackPointExtension>
        </extensions>
      </trkpt>
      <trkpt lat="46.78403" lon="-1.59552">
        <ele>33.2</ele>
        <time>2024-05-10T07:54:49Z</time>
        <extensions>
          <gpxtpx:TrackPointExtension xmlns:gpxtpx="http://www.garmin.com/xmlschemas/TrackPointExtension/v1">
            <gpxtpx:hr>146</gpxtpx:hr>
          </gpxtpx:TrackPointExtension>
        </extensions>
      </trkpt>
      <trkpt lat="46.78405" lon="-1.59552">
        <ele>33.4</ele>
        <time>2024-05-10T07:54:50Z</time>
        <extensions>
          <gpxtpx:TrackPointExtension xmlns:gpxtpx="http://www.garmin.com/xmlschemas/TrackPointExtension/v1">
            <gpxtpx:hr>147</gpxtpx:hr>
          </gpxtpx:TrackPointExtension>
        </extensions>
      </trkpt>
      <trkpt lat="46.78408" lon="-1.59551">
        <ele>33.8</ele>
        <time>2024-05-10T07:54:51Z</time>
        <extensions>
          <gpxtpx:TrackPointExtension xmlns:gpxtpx="http://www.garmin.com/xmlschemas/TrackPointExtension/v1">
            <gpxtpx:hr>147</gpxtpx:hr>
          </gpxtpx:TrackPointExtension>
        </extensions>
      </trkpt>
      <trkpt lat="46.7841" lon="-1.59549">
        <ele>34</ele>
        <time>2024-05-10T07:54:52Z</time>
        <extensions>
          <gpxtpx:TrackPointExtension xmlns:gpxtpx="http://www.garmin.com/xmlschemas/TrackPointExtension/v1">
            <gpxtpx:hr>148</gpxtpx:hr>
          </gpxtpx:TrackPointExtension>
        </extensions>
      </trkpt>
      <trkpt lat="46.78412" lon="-1.59548">
        <ele>34.2</ele>
        <time>2024-05-10T07:54:53Z</time>
        <extensions>
          <gpxtpx:TrackPointExtension xmlns:gpxtpx="http://www.garmin.com/xmlschemas/TrackPointExtension/v1">
            <gpxtpx:hr>148</gpxtpx:hr>
          </gpxtpx:TrackPointExtension>
        </extensions>
      </trkpt>
      <trkpt lat="46.78415" lon="-1.59547">
        <ele>34.4</ele>
        <time>2024-05-10T07:54:54Z</time>
        <extensions>
          <gpxtpx:TrackPointExtension xmlns:gpxtpx="http://www.garmin.com/xmlschemas/TrackPointExtension/v1">
            <gpxtpx:hr>148</gpxtpx:hr>
          </gpxtpx:TrackPointExtension>
        </extensions>
      </trkpt>
      <trkpt lat="46.78417" lon="-1.59545">
        <ele>34.6</ele>
        <time>2024-05-10T07:54:55Z</time>
        <extensions>
          <gpxtpx:TrackPointExtension xmlns:gpxtpx="http://www.garmin.com/xmlschemas/TrackPointExtension/v1">
            <gpxtpx:hr>149</gpxtpx:hr>
          </gpxtpx:TrackPointExtension>
        </extensions>
      </trkpt>
      <trkpt lat="46.78419" lon="-1.59544">
        <ele>34.8</ele>
        <time>2024-05-10T07:54:56Z</time>
        <extensions>
          <gpxtpx:TrackPointExtension xmlns:gpxtpx="http://www.garmin.com/xmlschemas/TrackPointExtension/v1">
            <gpxtpx:hr>149</gpxtpx:hr>
          </gpxtpx:TrackPointExtension>
        </extensions>
      </trkpt>
      <trkpt lat="46.78421" lon="-1.59542">
        <ele>34.8</ele>
        <time>2024-05-10T07:54:57Z</time>
        <extensions>
          <gpxtpx:TrackPointExtension xmlns:gpxtpx="http://www.garmin.com/xmlschemas/TrackPointExtension/v1">
            <gpxtpx:hr>149</gpxtpx:hr>
          </gpxtpx:TrackPointExtension>
        </extensions>
      </trkpt>
      <trkpt lat="46.78424" lon="-1.59541">
        <ele>34.8</ele>
        <time>2024-05-10T07:54:58Z</time>
        <extensions>
          <gpxtpx:TrackPointExtension xmlns:gpxtpx="http://www.garmin.com/xmlschemas/TrackPointExtension/v1">
            <gpxtpx:hr>149</gpxtpx:hr>
          </gpxtpx:TrackPointExtension>
        </extensions>
      </trkpt>
      <trkpt lat="46.78427" lon="-1.59539">
        <ele>35</ele>
        <time>2024-05-10T07:54:59Z</time>
        <extensions>
          <gpxtpx:TrackPointExtension xmlns:gpxtpx="http://www.garmin.com/xmlschemas/TrackPointExtension/v1">
            <gpxtpx:hr>149</gpxtpx:hr>
          </gpxtpx:TrackPointExtension>
        </extensions>
      </trkpt>
      <trkpt lat="46.78429" lon="-1.59537">
        <ele>35</ele>
        <time>2024-05-10T07:55:00Z</time>
        <extensions>
          <gpxtpx:TrackPointExtension xmlns:gpxtpx="http://www.garmin.com/xmlschemas/TrackPointExtension/v1">
            <gpxtpx:hr>150</gpxtpx:hr>
          </gpxtpx:TrackPointExtension>
        </extensions>
      </trkpt>
      <trkpt lat="46.78432" lon="-1.59536">
        <ele>35</ele>
        <time>2024-05-10T07:55:01Z</time>
        <extensions>
          <gpxtpx:TrackPointExtension xmlns:gpxtpx="http://www.garmin.com/xmlschemas/TrackPointExtension/v1">
            <gpxtpx:hr>150</gpxtpx:hr>
          </gpxtpx:TrackPointExtension>
        </extensions>
      </trkpt>
      <trkpt lat="46.78435" lon="-1.59534">
        <ele>35</ele>
        <time>2024-05-10T07:55:02Z</time>
        <extensions>
          <gpxtpx:TrackPointExtension xmlns:gpxtpx="http://www.garmin.com/xmlschemas/TrackPointExtension/v1">
            <gpxtpx:hr>150</gpxtpx:hr>
          </gpxtpx:TrackPointExtension>
        </extensions>
      </trkpt>
      <trkpt lat="46.78438" lon="-1.59532">
        <ele>34.8</ele>
        <time>2024-05-10T07:55:03Z</time>
        <extensions>
          <gpxtpx:TrackPointExtension xmlns:gpxtpx="http://www.garmin.com/xmlschemas/TrackPointExtension/v1">
            <gpxtpx:hr>149</gpxtpx:hr>
          </gpxtpx:TrackPointExtension>
        </extensions>
      </trkpt>
      <trkpt lat="46.78441" lon="-1.5953">
        <ele>34.6</ele>
        <time>2024-05-10T07:55:04Z</time>
        <extensions>
          <gpxtpx:TrackPointExtension xmlns:gpxtpx="http://www.garmin.com/xmlschemas/TrackPointExtension/v1">
            <gpxtpx:hr>149</gpxtpx:hr>
          </gpxtpx:TrackPointExtension>
        </extensions>
      </trkpt>
      <trkpt lat="46.78443" lon="-1.59528">
        <ele>34.6</ele>
        <time>2024-05-10T07:55:05Z</time>
        <extensions>
          <gpxtpx:TrackPointExtension xmlns:gpxtpx="http://www.garmin.com/xmlschemas/TrackPointExtension/v1">
            <gpxtpx:hr>149</gpxtpx:hr>
          </gpxtpx:TrackPointExtension>
        </extensions>
      </trkpt>
      <trkpt lat="46.78446" lon="-1.59526">
        <ele>34.4</ele>
        <time>2024-05-10T07:55:06Z</time>
        <extensions>
          <gpxtpx:TrackPointExtension xmlns:gpxtpx="http://www.garmin.com/xmlschemas/TrackPointExtension/v1">
            <gpxtpx:hr>149</gpxtpx:hr>
          </gpxtpx:TrackPointExtension>
        </extensions>
      </trkpt>
      <trkpt lat="46.78449" lon="-1.59525">
        <ele>34.4</ele>
        <time>2024-05-10T07:55:07Z</time>
        <extensions>
          <gpxtpx:TrackPointExtension xmlns:gpxtpx="http://www.garmin.com/xmlschemas/TrackPointExtension/v1">
            <gpxtpx:hr>149</gpxtpx:hr>
          </gpxtpx:TrackPointExtension>
        </extensions>
      </trkpt>
      <trkpt lat="46.78451" lon="-1.59523">
        <ele>34.4</ele>
        <time>2024-05-10T07:55:08Z</time>
        <extensions>
          <gpxtpx:TrackPointExtension xmlns:gpxtpx="http://www.garmin.com/xmlschemas/TrackPointExtension/v1">
            <gpxtpx:hr>149</gpxtpx:hr>
          </gpxtpx:TrackPointExtension>
        </extensions>
      </trkpt>
      <trkpt lat="46.78454" lon="-1.59521">
        <ele>34.4</ele>
        <time>2024-05-10T07:55:09Z</time>
        <extensions>
          <gpxtpx:TrackPointExtension xmlns:gpxtpx="http://www.garmin.com/xmlschemas/TrackPointExtension/v1">
            <gpxtpx:hr>148</gpxtpx:hr>
          </gpxtpx:TrackPointExtension>
        </extensions>
      </trkpt>
      <trkpt lat="46.78457" lon="-1.59519">
        <ele>34.4</ele>
        <time>2024-05-10T07:55:10Z</time>
        <extensions>
          <gpxtpx:TrackPointExtension xmlns:gpxtpx="http://www.garmin.com/xmlschemas/TrackPointExtension/v1">
            <gpxtpx:hr>149</gpxtpx:hr>
          </gpxtpx:TrackPointExtension>
        </extensions>
      </trkpt>
      <trkpt lat="46.7846" lon="-1.59517">
        <ele>34.4</ele>
        <time>2024-05-10T07:55:11Z</time>
        <extensions>
          <gpxtpx:TrackPointExtension xmlns:gpxtpx="http://www.garmin.com/xmlschemas/TrackPointExtension/v1">
            <gpxtpx:hr>149</gpxtpx:hr>
          </gpxtpx:TrackPointExtension>
        </extensions>
      </trkpt>
      <trkpt lat="46.78462" lon="-1.59516">
        <ele>34.6</ele>
        <time>2024-05-10T07:55:12Z</time>
        <extensions>
          <gpxtpx:TrackPointExtension xmlns:gpxtpx="http://www.garmin.com/xmlschemas/TrackPointExtension/v1">
            <gpxtpx:hr>149</gpxtpx:hr>
          </gpxtpx:TrackPointExtension>
        </extensions>
      </trkpt>
      <trkpt lat="46.78464" lon="-1.59514">
        <ele>34.6</ele>
        <time>2024-05-10T07:55:13Z</time>
        <extensions>
          <gpxtpx:TrackPointExtension xmlns:gpxtpx="http://www.garmin.com/xmlschemas/TrackPointExtension/v1">
            <gpxtpx:hr>148</gpxtpx:hr>
          </gpxtpx:TrackPointExtension>
        </extensions>
      </trkpt>
      <trkpt lat="46.78467" lon="-1.59512">
        <ele>34.6</ele>
        <time>2024-05-10T07:55:14Z</time>
        <extensions>
          <gpxtpx:TrackPointExtension xmlns:gpxtpx="http://www.garmin.com/xmlschemas/TrackPointExtension/v1">
            <gpxtpx:hr>148</gpxtpx:hr>
          </gpxtpx:TrackPointExtension>
        </extensions>
      </trkpt>
      <trkpt lat="46.78469" lon="-1.5951">
        <ele>34.6</ele>
        <time>2024-05-10T07:55:15Z</time>
        <extensions>
          <gpxtpx:TrackPointExtension xmlns:gpxtpx="http://www.garmin.com/xmlschemas/TrackPointExtension/v1">
            <gpxtpx:hr>148</gpxtpx:hr>
          </gpxtpx:TrackPointExtension>
        </extensions>
      </trkpt>
      <trkpt lat="46.78471" lon="-1.59508">
        <ele>34.8</ele>
        <time>2024-05-10T07:55:16Z</time>
        <extensions>
          <gpxtpx:TrackPointExtension xmlns:gpxtpx="http://www.garmin.com/xmlschemas/TrackPointExtension/v1">
            <gpxtpx:hr>148</gpxtpx:hr>
          </gpxtpx:TrackPointExtension>
        </extensions>
      </trkpt>
      <trkpt lat="46.78475" lon="-1.59505">
        <ele>34.8</ele>
        <time>2024-05-10T07:55:17Z</time>
        <extensions>
          <gpxtpx:TrackPointExtension xmlns:gpxtpx="http://www.garmin.com/xmlschemas/TrackPointExtension/v1">
            <gpxtpx:hr>147</gpxtpx:hr>
          </gpxtpx:TrackPointExtension>
        </extensions>
      </trkpt>
      <trkpt lat="46.78476" lon="-1.59503">
        <ele>34.8</ele>
        <time>2024-05-10T07:55:18Z</time>
        <extensions>
          <gpxtpx:TrackPointExtension xmlns:gpxtpx="http://www.garmin.com/xmlschemas/TrackPointExtension/v1">
            <gpxtpx:hr>147</gpxtpx:hr>
          </gpxtpx:TrackPointExtension>
        </extensions>
      </trkpt>
      <trkpt lat="46.78478" lon="-1.59501">
        <ele>34.8</ele>
        <time>2024-05-10T07:55:19Z</time>
        <extensions>
          <gpxtpx:TrackPointExtension xmlns:gpxtpx="http://www.garmin.com/xmlschemas/TrackPointExtension/v1">
            <gpxtpx:hr>147</gpxtpx:hr>
          </gpxtpx:TrackPointExtension>
        </extensions>
      </trkpt>
      <trkpt lat="46.78481" lon="-1.59499">
        <ele>34.8</ele>
        <time>2024-05-10T07:55:20Z</time>
        <extensions>
          <gpxtpx:TrackPointExtension xmlns:gpxtpx="http://www.garmin.com/xmlschemas/TrackPointExtension/v1">
            <gpxtpx:hr>146</gpxtpx:hr>
          </gpxtpx:TrackPointExtension>
        </extensions>
      </trkpt>
      <trkpt lat="46.78483" lon="-1.59497">
        <ele>34.8</ele>
        <time>2024-05-10T07:55:21Z</time>
        <extensions>
          <gpxtpx:TrackPointExtension xmlns:gpxtpx="http://www.garmin.com/xmlschemas/TrackPointExtension/v1">
            <gpxtpx:hr>146</gpxtpx:hr>
          </gpxtpx:TrackPointExtension>
        </extensions>
      </trkpt>
      <trkpt lat="46.78486" lon="-1.59494">
        <ele>35</ele>
        <time>2024-05-10T07:55:22Z</time>
        <extensions>
          <gpxtpx:TrackPointExtension xmlns:gpxtpx="http://www.garmin.com/xmlschemas/TrackPointExtension/v1">
            <gpxtpx:hr>145</gpxtpx:hr>
          </gpxtpx:TrackPointExtension>
        </extensions>
      </trkpt>
      <trkpt lat="46.78488" lon="-1.59492">
        <ele>35</ele>
        <time>2024-05-10T07:55:23Z</time>
        <extensions>
          <gpxtpx:TrackPointExtension xmlns:gpxtpx="http://www.garmin.com/xmlschemas/TrackPointExtension/v1">
            <gpxtpx:hr>145</gpxtpx:hr>
          </gpxtpx:TrackPointExtension>
        </extensions>
      </trkpt>
      <trkpt lat="46.7849" lon="-1.5949">
        <ele>35</ele>
        <time>2024-05-10T07:55:24Z</time>
        <extensions>
          <gpxtpx:TrackPointExtension xmlns:gpxtpx="http://www.garmin.com/xmlschemas/TrackPointExtension/v1">
            <gpxtpx:hr>145</gpxtpx:hr>
          </gpxtpx:TrackPointExtension>
        </extensions>
      </trkpt>
      <trkpt lat="46.78493" lon="-1.59487">
        <ele>35</ele>
        <time>2024-05-10T07:55:25Z</time>
        <extensions>
          <gpxtpx:TrackPointExtension xmlns:gpxtpx="http://www.garmin.com/xmlschemas/TrackPointExtension/v1">
            <gpxtpx:hr>144</gpxtpx:hr>
          </gpxtpx:TrackPointExtension>
        </extensions>
      </trkpt>
      <trkpt lat="46.78495" lon="-1.59485">
        <ele>35</ele>
        <time>2024-05-10T07:55:26Z</time>
        <extensions>
          <gpxtpx:TrackPointExtension xmlns:gpxtpx="http://www.garmin.com/xmlschemas/TrackPointExtension/v1">
            <gpxtpx:hr>143</gpxtpx:hr>
          </gpxtpx:TrackPointExtension>
        </extensions>
      </trkpt>
      <trkpt lat="46.78497" lon="-1.59482">
        <ele>35.2</ele>
        <time>2024-05-10T07:55:27Z</time>
        <extensions>
          <gpxtpx:TrackPointExtension xmlns:gpxtpx="http://www.garmin.com/xmlschemas/TrackPointExtension/v1">
            <gpxtpx:hr>143</gpxtpx:hr>
          </gpxtpx:TrackPointExtension>
        </extensions>
      </trkpt>
      <trkpt lat="46.785" lon="-1.5948">
        <ele>35.2</ele>
        <time>2024-05-10T07:55:28Z</time>
        <extensions>
          <gpxtpx:TrackPointExtension xmlns:gpxtpx="http://www.garmin.com/xmlschemas/TrackPointExtension/v1">
            <gpxtpx:hr>142</gpxtpx:hr>
          </gpxtpx:TrackPointExtension>
        </extensions>
      </trkpt>
      <trkpt lat="46.78502" lon="-1.59478">
        <ele>35.4</ele>
        <time>2024-05-10T07:55:29Z</time>
        <extensions>
          <gpxtpx:TrackPointExtension xmlns:gpxtpx="http://www.garmin.com/xmlschemas/TrackPointExtension/v1">
            <gpxtpx:hr>141</gpxtpx:hr>
          </gpxtpx:TrackPointExtension>
        </extensions>
      </trkpt>
      <trkpt lat="46.78504" lon="-1.59475">
        <ele>35.4</ele>
        <time>2024-05-10T07:55:30Z</time>
        <extensions>
          <gpxtpx:TrackPointExtension xmlns:gpxtpx="http://www.garmin.com/xmlschemas/TrackPointExtension/v1">
            <gpxtpx:hr>141</gpxtpx:hr>
          </gpxtpx:TrackPointExtension>
        </extensions>
      </trkpt>
      <trkpt lat="46.78506" lon="-1.59473">
        <ele>35.4</ele>
        <time>2024-05-10T07:55:31Z</time>
        <extensions>
          <gpxtpx:TrackPointExtension xmlns:gpxtpx="http://www.garmin.com/xmlschemas/TrackPointExtension/v1">
            <gpxtpx:hr>141</gpxtpx:hr>
          </gpxtpx:TrackPointExtension>
        </extensions>
      </trkpt>
      <trkpt lat="46.78509" lon="-1.5947">
        <ele>35.4</ele>
        <time>2024-05-10T07:55:32Z</time>
        <extensions>
          <gpxtpx:TrackPointExtension xmlns:gpxtpx="http://www.garmin.com/xmlschemas/TrackPointExtension/v1">
            <gpxtpx:hr>141</gpxtpx:hr>
          </gpxtpx:TrackPointExtension>
        </extensions>
      </trkpt>
      <trkpt lat="46.78511" lon="-1.59468">
        <ele>35.4</ele>
        <time>2024-05-10T07:55:33Z</time>
        <extensions>
          <gpxtpx:TrackPointExtension xmlns:gpxtpx="http://www.garmin.com/xmlschemas/TrackPointExtension/v1">
            <gpxtpx:hr>140</gpxtpx:hr>
          </gpxtpx:TrackPointExtension>
        </extensions>
      </trkpt>
      <trkpt lat="46.78513" lon="-1.59466">
        <ele>35.6</ele>
        <time>2024-05-10T07:55:34Z</time>
        <extensions>
          <gpxtpx:TrackPointExtension xmlns:gpxtpx="http://www.garmin.com/xmlschemas/TrackPointExtension/v1">
            <gpxtpx:hr>140</gpxtpx:hr>
          </gpxtpx:TrackPointExtension>
        </extensions>
      </trkpt>
      <trkpt lat="46.78515" lon="-1.59463">
        <ele>35.6</ele>
        <time>2024-05-10T07:55:35Z</time>
        <extensions>
          <gpxtpx:TrackPointExtension xmlns:gpxtpx="http://www.garmin.com/xmlschemas/TrackPointExtension/v1">
            <gpxtpx:hr>140</gpxtpx:hr>
          </gpxtpx:TrackPointExtension>
        </extensions>
      </trkpt>
      <trkpt lat="46.78517" lon="-1.59461">
        <ele>35.6</ele>
        <time>2024-05-10T07:55:36Z</time>
        <extensions>
          <gpxtpx:TrackPointExtension xmlns:gpxtpx="http://www.garmin.com/xmlschemas/TrackPointExtension/v1">
            <gpxtpx:hr>139</gpxtpx:hr>
          </gpxtpx:TrackPointExtension>
        </extensions>
      </trkpt>
      <trkpt lat="46.7852" lon="-1.59459">
        <ele>35.8</ele>
        <time>2024-05-10T07:55:37Z</time>
        <extensions>
          <gpxtpx:TrackPointExtension xmlns:gpxtpx="http://www.garmin.com/xmlschemas/TrackPointExtension/v1">
            <gpxtpx:hr>139</gpxtpx:hr>
          </gpxtpx:TrackPointExtension>
        </extensions>
      </trkpt>
      <trkpt lat="46.78522" lon="-1.59456">
        <ele>36</ele>
        <time>2024-05-10T07:55:38Z</time>
        <extensions>
          <gpxtpx:TrackPointExtension xmlns:gpxtpx="http://www.garmin.com/xmlschemas/TrackPointExtension/v1">
            <gpxtpx:hr>139</gpxtpx:hr>
          </gpxtpx:TrackPointExtension>
        </extensions>
      </trkpt>
      <trkpt lat="46.78524" lon="-1.59454">
        <ele>36</ele>
        <time>2024-05-10T07:55:39Z</time>
        <extensions>
          <gpxtpx:TrackPointExtension xmlns:gpxtpx="http://www.garmin.com/xmlschemas/TrackPointExtension/v1">
            <gpxtpx:hr>139</gpxtpx:hr>
          </gpxtpx:TrackPointExtension>
        </extensions>
      </trkpt>
      <trkpt lat="46.78526" lon="-1.59451">
        <ele>36.2</ele>
        <time>2024-05-10T07:55:40Z</time>
        <extensions>
          <gpxtpx:TrackPointExtension xmlns:gpxtpx="http://www.garmin.com/xmlschemas/TrackPointExtension/v1">
            <gpxtpx:hr>139</gpxtpx:hr>
          </gpxtpx:TrackPointExtension>
        </extensions>
      </trkpt>
      <trkpt lat="46.78528" lon="-1.59449">
        <ele>36.2</ele>
        <time>2024-05-10T07:55:41Z</time>
        <extensions>
          <gpxtpx:TrackPointExtension xmlns:gpxtpx="http://www.garmin.com/xmlschemas/TrackPointExtension/v1">
            <gpxtpx:hr>139</gpxtpx:hr>
          </gpxtpx:TrackPointExtension>
        </extensions>
      </trkpt>
      <trkpt lat="46.7853" lon="-1.59446">
        <ele>36.2</ele>
        <time>2024-05-10T07:55:42Z</time>
        <extensions>
          <gpxtpx:TrackPointExtension xmlns:gpxtpx="http://www.garmin.com/xmlschemas/TrackPointExtension/v1">
            <gpxtpx:hr>139</gpxtpx:hr>
          </gpxtpx:TrackPointExtension>
        </extensions>
      </trkpt>
      <trkpt lat="46.78533" lon="-1.59444">
        <ele>36.2</ele>
        <time>2024-05-10T07:55:43Z</time>
        <extensions>
          <gpxtpx:TrackPointExtension xmlns:gpxtpx="http://www.garmin.com/xmlschemas/TrackPointExtension/v1">
            <gpxtpx:hr>139</gpxtpx:hr>
          </gpxtpx:TrackPointExtension>
        </extensions>
      </trkpt>
      <trkpt lat="46.78535" lon="-1.59442">
        <ele>36.2</ele>
        <time>2024-05-10T07:55:44Z</time>
        <extensions>
          <gpxtpx:TrackPointExtension xmlns:gpxtpx="http://www.garmin.com/xmlschemas/TrackPointExtension/v1">
            <gpxtpx:hr>139</gpxtpx:hr>
          </gpxtpx:TrackPointExtension>
        </extensions>
      </trkpt>
      <trkpt lat="46.78537" lon="-1.59439">
        <ele>36.2</ele>
        <time>2024-05-10T07:55:45Z</time>
        <extensions>
          <gpxtpx:TrackPointExtension xmlns:gpxtpx="http://www.garmin.com/xmlschemas/TrackPointExtension/v1">
            <gpxtpx:hr>138</gpxtpx:hr>
          </gpxtpx:TrackPointExtension>
        </extensions>
      </trkpt>
      <trkpt lat="46.78539" lon="-1.59436">
        <ele>36.2</ele>
        <time>2024-05-10T07:55:46Z</time>
        <extensions>
          <gpxtpx:TrackPointExtension xmlns:gpxtpx="http://www.garmin.com/xmlschemas/TrackPointExtension/v1">
            <gpxtpx:hr>138</gpxtpx:hr>
          </gpxtpx:TrackPointExtension>
        </extensions>
      </trkpt>
      <trkpt lat="46.78541" lon="-1.59434">
        <ele>36.2</ele>
        <time>2024-05-10T07:55:47Z</time>
        <extensions>
          <gpxtpx:TrackPointExtension xmlns:gpxtpx="http://www.garmin.com/xmlschemas/TrackPointExtension/v1">
            <gpxtpx:hr>139</gpxtpx:hr>
          </gpxtpx:TrackPointExtension>
        </extensions>
      </trkpt>
      <trkpt lat="46.78543" lon="-1.59432">
        <ele>36.2</ele>
        <time>2024-05-10T07:55:48Z</time>
        <extensions>
          <gpxtpx:TrackPointExtension xmlns:gpxtpx="http://www.garmin.com/xmlschemas/TrackPointExtension/v1">
            <gpxtpx:hr>138</gpxtpx:hr>
          </gpxtpx:TrackPointExtension>
        </extensions>
      </trkpt>
      <trkpt lat="46.78545" lon="-1.59431">
        <ele>36.2</ele>
        <time>2024-05-10T07:55:49Z</time>
        <extensions>
          <gpxtpx:TrackPointExtension xmlns:gpxtpx="http://www.garmin.com/xmlschemas/TrackPointExtension/v1">
            <gpxtpx:hr>138</gpxtpx:hr>
          </gpxtpx:TrackPointExtension>
        </extensions>
      </trkpt>
      <trkpt lat="46.78547" lon="-1.59429">
        <ele>36.4</ele>
        <time>2024-05-10T07:55:50Z</time>
        <extensions>
          <gpxtpx:TrackPointExtension xmlns:gpxtpx="http://www.garmin.com/xmlschemas/TrackPointExtension/v1">
            <gpxtpx:hr>138</gpxtpx:hr>
          </gpxtpx:TrackPointExtension>
        </extensions>
      </trkpt>
      <trkpt lat="46.78549" lon="-1.59428">
        <ele>36.4</ele>
        <time>2024-05-10T07:55:51Z</time>
        <extensions>
          <gpxtpx:TrackPointExtension xmlns:gpxtpx="http://www.garmin.com/xmlschemas/TrackPointExtension/v1">
            <gpxtpx:hr>138</gpxtpx:hr>
          </gpxtpx:TrackPointExtension>
        </extensions>
      </trkpt>
      <trkpt lat="46.7855" lon="-1.59427">
        <ele>36.4</ele>
        <time>2024-05-10T07:55:52Z</time>
        <extensions>
          <gpxtpx:TrackPointExtension xmlns:gpxtpx="http://www.garmin.com/xmlschemas/TrackPointExtension/v1">
            <gpxtpx:hr>138</gpxtpx:hr>
          </gpxtpx:TrackPointExtension>
        </extensions>
      </trkpt>
      <trkpt lat="46.78552" lon="-1.59425">
        <ele>36.4</ele>
        <time>2024-05-10T07:55:53Z</time>
        <extensions>
          <gpxtpx:TrackPointExtension xmlns:gpxtpx="http://www.garmin.com/xmlschemas/TrackPointExtension/v1">
            <gpxtpx:hr>138</gpxtpx:hr>
          </gpxtpx:TrackPointExtension>
        </extensions>
      </trkpt>
      <trkpt lat="46.78554" lon="-1.59423">
        <ele>36.4</ele>
        <time>2024-05-10T07:55:54Z</time>
        <extensions>
          <gpxtpx:TrackPointExtension xmlns:gpxtpx="http://www.garmin.com/xmlschemas/TrackPointExtension/v1">
            <gpxtpx:hr>138</gpxtpx:hr>
          </gpxtpx:TrackPointExtension>
        </extensions>
      </trkpt>
      <trkpt lat="46.78555" lon="-1.59421">
        <ele>36.4</ele>
        <time>2024-05-10T07:55:55Z</time>
        <extensions>
          <gpxtpx:TrackPointExtension xmlns:gpxtpx="http://www.garmin.com/xmlschemas/TrackPointExtension/v1">
            <gpxtpx:hr>138</gpxtpx:hr>
          </gpxtpx:TrackPointExtension>
        </extensions>
      </trkpt>
      <trkpt lat="46.78557" lon="-1.59419">
        <ele>36.4</ele>
        <time>2024-05-10T07:55:56Z</time>
        <extensions>
          <gpxtpx:TrackPointExtension xmlns:gpxtpx="http://www.garmin.com/xmlschemas/TrackPointExtension/v1">
            <gpxtpx:hr>137</gpxtpx:hr>
          </gpxtpx:TrackPointExtension>
        </extensions>
      </trkpt>
      <trkpt lat="46.78559" lon="-1.59418">
        <ele>36.6</ele>
        <time>2024-05-10T07:55:57Z</time>
        <extensions>
          <gpxtpx:TrackPointExtension xmlns:gpxtpx="http://www.garmin.com/xmlschemas/TrackPointExtension/v1">
            <gpxtpx:hr>137</gpxtpx:hr>
          </gpxtpx:TrackPointExtension>
        </extensions>
      </trkpt>
      <trkpt lat="46.7856" lon="-1.59416">
        <ele>36.6</ele>
        <time>2024-05-10T07:55:58Z</time>
        <extensions>
          <gpxtpx:TrackPointExtension xmlns:gpxtpx="http://www.garmin.com/xmlschemas/TrackPointExtension/v1">
            <gpxtpx:hr>138</gpxtpx:hr>
          </gpxtpx:TrackPointExtension>
        </extensions>
      </trkpt>
      <trkpt lat="46.78562" lon="-1.59415">
        <ele>36.6</ele>
        <time>2024-05-10T07:55:59Z</time>
        <extensions>
          <gpxtpx:TrackPointExtension xmlns:gpxtpx="http://www.garmin.com/xmlschemas/TrackPointExtension/v1">
            <gpxtpx:hr>138</gpxtpx:hr>
          </gpxtpx:TrackPointExtension>
        </extensions>
      </trkpt>
      <trkpt lat="46.78564" lon="-1.59413">
        <ele>36.6</ele>
        <time>2024-05-10T07:56:00Z</time>
        <extensions>
          <gpxtpx:TrackPointExtension xmlns:gpxtpx="http://www.garmin.com/xmlschemas/TrackPointExtension/v1">
            <gpxtpx:hr>138</gpxtpx:hr>
          </gpxtpx:TrackPointExtension>
        </extensions>
      </trkpt>
      <trkpt lat="46.78566" lon="-1.59412">
        <ele>36.8</ele>
        <time>2024-05-10T07:56:01Z</time>
        <extensions>
          <gpxtpx:TrackPointExtension xmlns:gpxtpx="http://www.garmin.com/xmlschemas/TrackPointExtension/v1">
            <gpxtpx:hr>138</gpxtpx:hr>
          </gpxtpx:TrackPointExtension>
        </extensions>
      </trkpt>
      <trkpt lat="46.78568" lon="-1.5941">
        <ele>36.8</ele>
        <time>2024-05-10T07:56:02Z</time>
        <extensions>
          <gpxtpx:TrackPointExtension xmlns:gpxtpx="http://www.garmin.com/xmlschemas/TrackPointExtension/v1">
            <gpxtpx:hr>138</gpxtpx:hr>
          </gpxtpx:TrackPointExtension>
        </extensions>
      </trkpt>
      <trkpt lat="46.7857" lon="-1.59409">
        <ele>36.8</ele>
        <time>2024-05-10T07:56:03Z</time>
        <extensions>
          <gpxtpx:TrackPointExtension xmlns:gpxtpx="http://www.garmin.com/xmlschemas/TrackPointExtension/v1">
            <gpxtpx:hr>138</gpxtpx:hr>
          </gpxtpx:TrackPointExtension>
        </extensions>
      </trkpt>
      <trkpt lat="46.78572" lon="-1.59408">
        <ele>37</ele>
        <time>2024-05-10T07:56:04Z</time>
        <extensions>
          <gpxtpx:TrackPointExtension xmlns:gpxtpx="http://www.garmin.com/xmlschemas/TrackPointExtension/v1">
            <gpxtpx:hr>138</gpxtpx:hr>
          </gpxtpx:TrackPointExtension>
        </extensions>
      </trkpt>
      <trkpt lat="46.78574" lon="-1.59406">
        <ele>37</ele>
        <time>2024-05-10T07:56:05Z</time>
        <extensions>
          <gpxtpx:TrackPointExtension xmlns:gpxtpx="http://www.garmin.com/xmlschemas/TrackPointExtension/v1">
            <gpxtpx:hr>138</gpxtpx:hr>
          </gpxtpx:TrackPointExtension>
        </extensions>
      </trkpt>
      <trkpt lat="46.78576" lon="-1.59405">
        <ele>37</ele>
        <time>2024-05-10T07:56:06Z</time>
        <extensions>
          <gpxtpx:TrackPointExtension xmlns:gpxtpx="http://www.garmin.com/xmlschemas/TrackPointExtension/v1">
            <gpxtpx:hr>138</gpxtpx:hr>
          </gpxtpx:TrackPointExtension>
        </extensions>
      </trkpt>
      <trkpt lat="46.78578" lon="-1.59403">
        <ele>37</ele>
        <time>2024-05-10T07:56:07Z</time>
        <extensions>
          <gpxtpx:TrackPointExtension xmlns:gpxtpx="http://www.garmin.com/xmlschemas/TrackPointExtension/v1">
            <gpxtpx:hr>138</gpxtpx:hr>
          </gpxtpx:TrackPointExtension>
        </extensions>
      </trkpt>
      <trkpt lat="46.7858" lon="-1.59402">
        <ele>37.2</ele>
        <time>2024-05-10T07:56:08Z</time>
        <extensions>
          <gpxtpx:TrackPointExtension xmlns:gpxtpx="http://www.garmin.com/xmlschemas/TrackPointExtension/v1">
            <gpxtpx:hr>138</gpxtpx:hr>
          </gpxtpx:TrackPointExtension>
        </extensions>
      </trkpt>
      <trkpt lat="46.78582" lon="-1.594">
        <ele>37.2</ele>
        <time>2024-05-10T07:56:09Z</time>
        <extensions>
          <gpxtpx:TrackPointExtension xmlns:gpxtpx="http://www.garmin.com/xmlschemas/TrackPointExtension/v1">
            <gpxtpx:hr>139</gpxtpx:hr>
          </gpxtpx:TrackPointExtension>
        </extensions>
      </trkpt>
      <trkpt lat="46.78584" lon="-1.59399">
        <ele>37.2</ele>
        <time>2024-05-10T07:56:10Z</time>
        <extensions>
          <gpxtpx:TrackPointExtension xmlns:gpxtpx="http://www.garmin.com/xmlschemas/TrackPointExtension/v1">
            <gpxtpx:hr>139</gpxtpx:hr>
          </gpxtpx:TrackPointExtension>
        </extensions>
      </trkpt>
      <trkpt lat="46.78586" lon="-1.59397">
        <ele>37.2</ele>
        <time>2024-05-10T07:56:11Z</time>
        <extensions>
          <gpxtpx:TrackPointExtension xmlns:gpxtpx="http://www.garmin.com/xmlschemas/TrackPointExtension/v1">
            <gpxtpx:hr>139</gpxtpx:hr>
          </gpxtpx:TrackPointExtension>
        </extensions>
      </trkpt>
      <trkpt lat="46.78588" lon="-1.59396">
        <ele>37.4</ele>
        <time>2024-05-10T07:56:12Z</time>
        <extensions>
          <gpxtpx:TrackPointExtension xmlns:gpxtpx="http://www.garmin.com/xmlschemas/TrackPointExtension/v1">
            <gpxtpx:hr>139</gpxtpx:hr>
          </gpxtpx:TrackPointExtension>
        </extensions>
      </trkpt>
      <trkpt lat="46.7859" lon="-1.59395">
        <ele>37.4</ele>
        <time>2024-05-10T07:56:13Z</time>
        <extensions>
          <gpxtpx:TrackPointExtension xmlns:gpxtpx="http://www.garmin.com/xmlschemas/TrackPointExtension/v1">
            <gpxtpx:hr>139</gpxtpx:hr>
          </gpxtpx:TrackPointExtension>
        </extensions>
      </trkpt>
      <trkpt lat="46.78592" lon="-1.59393">
        <ele>37.4</ele>
        <time>2024-05-10T07:56:14Z</time>
        <extensions>
          <gpxtpx:TrackPointExtension xmlns:gpxtpx="http://www.garmin.com/xmlschemas/TrackPointExtension/v1">
            <gpxtpx:hr>139</gpxtpx:hr>
          </gpxtpx:TrackPointExtension>
        </extensions>
      </trkpt>
      <trkpt lat="46.78595" lon="-1.59392">
        <ele>37.4</ele>
        <time>2024-05-10T07:56:15Z</time>
        <extensions>
          <gpxtpx:TrackPointExtension xmlns:gpxtpx="http://www.garmin.com/xmlschemas/TrackPointExtension/v1">
            <gpxtpx:hr>139</gpxtpx:hr>
          </gpxtpx:TrackPointExtension>
        </extensions>
      </trkpt>
      <trkpt lat="46.78597" lon="-1.59391">
        <ele>37.4</ele>
        <time>2024-05-10T07:56:16Z</time>
        <extensions>
          <gpxtpx:TrackPointExtension xmlns:gpxtpx="http://www.garmin.com/xmlschemas/TrackPointExtension/v1">
            <gpxtpx:hr>139</gpxtpx:hr>
          </gpxtpx:TrackPointExtension>
        </extensions>
      </trkpt>
      <trkpt lat="46.78598" lon="-1.5939">
        <ele>37.6</ele>
        <time>2024-05-10T07:56:18Z</time>
        <extensions>
          <gpxtpx:TrackPointExtension xmlns:gpxtpx="http://www.garmin.com/xmlschemas/TrackPointExtension/v1">
            <gpxtpx:hr>138</gpxtpx:hr>
          </gpxtpx:TrackPointExtension>
        </extensions>
      </trkpt>
      <trkpt lat="46.786" lon="-1.59388">
        <ele>37.6</ele>
        <time>2024-05-10T07:56:19Z</time>
        <extensions>
          <gpxtpx:TrackPointExtension xmlns:gpxtpx="http://www.garmin.com/xmlschemas/TrackPointExtension/v1">
            <gpxtpx:hr>138</gpxtpx:hr>
          </gpxtpx:TrackPointExtension>
        </extensions>
      </trkpt>
      <trkpt lat="46.78602" lon="-1.59387">
        <ele>37.6</ele>
        <time>2024-05-10T07:56:20Z</time>
        <extensions>
          <gpxtpx:TrackPointExtension xmlns:gpxtpx="http://www.garmin.com/xmlschemas/TrackPointExtension/v1">
            <gpxtpx:hr>138</gpxtpx:hr>
          </gpxtpx:TrackPointExtension>
        </extensions>
      </trkpt>
      <trkpt lat="46.78604" lon="-1.59385">
        <ele>37.6</ele>
        <time>2024-05-10T07:56:21Z</time>
        <extensions>
          <gpxtpx:TrackPointExtension xmlns:gpxtpx="http://www.garmin.com/xmlschemas/TrackPointExtension/v1">
            <gpxtpx:hr>138</gpxtpx:hr>
          </gpxtpx:TrackPointExtension>
        </extensions>
      </trkpt>
      <trkpt lat="46.78606" lon="-1.59384">
        <ele>37.6</ele>
        <time>2024-05-10T07:56:22Z</time>
        <extensions>
          <gpxtpx:TrackPointExtension xmlns:gpxtpx="http://www.garmin.com/xmlschemas/TrackPointExtension/v1">
            <gpxtpx:hr>138</gpxtpx:hr>
          </gpxtpx:TrackPointExtension>
        </extensions>
      </trkpt>
      <trkpt lat="46.78607" lon="-1.59383">
        <ele>37.6</ele>
        <time>2024-05-10T07:56:23Z</time>
        <extensions>
          <gpxtpx:TrackPointExtension xmlns:gpxtpx="http://www.garmin.com/xmlschemas/TrackPointExtension/v1">
            <gpxtpx:hr>139</gpxtpx:hr>
          </gpxtpx:TrackPointExtension>
        </extensions>
      </trkpt>
      <trkpt lat="46.78609" lon="-1.59381">
        <ele>37.6</ele>
        <time>2024-05-10T07:56:24Z</time>
        <extensions>
          <gpxtpx:TrackPointExtension xmlns:gpxtpx="http://www.garmin.com/xmlschemas/TrackPointExtension/v1">
            <gpxtpx:hr>139</gpxtpx:hr>
          </gpxtpx:TrackPointExtension>
        </extensions>
      </trkpt>
      <trkpt lat="46.78611" lon="-1.5938">
        <ele>37.4</ele>
        <time>2024-05-10T07:56:25Z</time>
        <extensions>
          <gpxtpx:TrackPointExtension xmlns:gpxtpx="http://www.garmin.com/xmlschemas/TrackPointExtension/v1">
            <gpxtpx:hr>139</gpxtpx:hr>
          </gpxtpx:TrackPointExtension>
        </extensions>
      </trkpt>
      <trkpt lat="46.78613" lon="-1.59378">
        <ele>37.4</ele>
        <time>2024-05-10T07:56:26Z</time>
        <extensions>
          <gpxtpx:TrackPointExtension xmlns:gpxtpx="http://www.garmin.com/xmlschemas/TrackPointExtension/v1">
            <gpxtpx:hr>138</gpxtpx:hr>
          </gpxtpx:TrackPointExtension>
        </extensions>
      </trkpt>
      <trkpt lat="46.78616" lon="-1.59377">
        <ele>37.6</ele>
        <time>2024-05-10T07:56:27Z</time>
        <extensions>
          <gpxtpx:TrackPointExtension xmlns:gpxtpx="http://www.garmin.com/xmlschemas/TrackPointExtension/v1">
            <gpxtpx:hr>138</gpxtpx:hr>
          </gpxtpx:TrackPointExtension>
        </extensions>
      </trkpt>
      <trkpt lat="46.78618" lon="-1.59375">
        <ele>37.6</ele>
        <time>2024-05-10T07:56:28Z</time>
        <extensions>
          <gpxtpx:TrackPointExtension xmlns:gpxtpx="http://www.garmin.com/xmlschemas/TrackPointExtension/v1">
            <gpxtpx:hr>138</gpxtpx:hr>
          </gpxtpx:TrackPointExtension>
        </extensions>
      </trkpt>
      <trkpt lat="46.78621" lon="-1.59374">
        <ele>37.6</ele>
        <time>2024-05-10T07:56:29Z</time>
        <extensions>
          <gpxtpx:TrackPointExtension xmlns:gpxtpx="http://www.garmin.com/xmlschemas/TrackPointExtension/v1">
            <gpxtpx:hr>138</gpxtpx:hr>
          </gpxtpx:TrackPointExtension>
        </extensions>
      </trkpt>
      <trkpt lat="46.78624" lon="-1.59372">
        <ele>37.6</ele>
        <time>2024-05-10T07:56:30Z</time>
        <extensions>
          <gpxtpx:TrackPointExtension xmlns:gpxtpx="http://www.garmin.com/xmlschemas/TrackPointExtension/v1">
            <gpxtpx:hr>138</gpxtpx:hr>
          </gpxtpx:TrackPointExtension>
        </extensions>
      </trkpt>
      <trkpt lat="46.78626" lon="-1.59372">
        <ele>37.6</ele>
        <time>2024-05-10T07:56:31Z</time>
        <extensions>
          <gpxtpx:TrackPointExtension xmlns:gpxtpx="http://www.garmin.com/xmlschemas/TrackPointExtension/v1">
            <gpxtpx:hr>138</gpxtpx:hr>
          </gpxtpx:TrackPointExtension>
        </extensions>
      </trkpt>
      <trkpt lat="46.78628" lon="-1.59372">
        <ele>37.6</ele>
        <time>2024-05-10T07:56:32Z</time>
        <extensions>
          <gpxtpx:TrackPointExtension xmlns:gpxtpx="http://www.garmin.com/xmlschemas/TrackPointExtension/v1">
            <gpxtpx:hr>139</gpxtpx:hr>
          </gpxtpx:TrackPointExtension>
        </extensions>
      </trkpt>
      <trkpt lat="46.7863" lon="-1.59372">
        <ele>37.8</ele>
        <time>2024-05-10T07:56:33Z</time>
        <extensions>
          <gpxtpx:TrackPointExtension xmlns:gpxtpx="http://www.garmin.com/xmlschemas/TrackPointExtension/v1">
            <gpxtpx:hr>139</gpxtpx:hr>
          </gpxtpx:TrackPointExtension>
        </extensions>
      </trkpt>
      <trkpt lat="46.78632" lon="-1.59372">
        <ele>37.8</ele>
        <time>2024-05-10T07:56:34Z</time>
        <extensions>
          <gpxtpx:TrackPointExtension xmlns:gpxtpx="http://www.garmin.com/xmlschemas/TrackPointExtension/v1">
            <gpxtpx:hr>140</gpxtpx:hr>
          </gpxtpx:TrackPointExtension>
        </extensions>
      </trkpt>
      <trkpt lat="46.78634" lon="-1.59372">
        <ele>38</ele>
        <time>2024-05-10T07:56:35Z</time>
        <extensions>
          <gpxtpx:TrackPointExtension xmlns:gpxtpx="http://www.garmin.com/xmlschemas/TrackPointExtension/v1">
            <gpxtpx:hr>140</gpxtpx:hr>
          </gpxtpx:TrackPointExtension>
        </extensions>
      </trkpt>
      <trkpt lat="46.78635" lon="-1.59372">
        <ele>38.2</ele>
        <time>2024-05-10T07:56:36Z</time>
        <extensions>
          <gpxtpx:TrackPointExtension xmlns:gpxtpx="http://www.garmin.com/xmlschemas/TrackPointExtension/v1">
            <gpxtpx:hr>140</gpxtpx:hr>
          </gpxtpx:TrackPointExtension>
        </extensions>
      </trkpt>
      <trkpt lat="46.78637" lon="-1.59372">
        <ele>38.4</ele>
        <time>2024-05-10T07:56:37Z</time>
        <extensions>
          <gpxtpx:TrackPointExtension xmlns:gpxtpx="http://www.garmin.com/xmlschemas/TrackPointExtension/v1">
            <gpxtpx:hr>140</gpxtpx:hr>
          </gpxtpx:TrackPointExtension>
        </extensions>
      </trkpt>
      <trkpt lat="46.78639" lon="-1.59373">
        <ele>38.6</ele>
        <time>2024-05-10T07:56:38Z</time>
        <extensions>
          <gpxtpx:TrackPointExtension xmlns:gpxtpx="http://www.garmin.com/xmlschemas/TrackPointExtension/v1">
            <gpxtpx:hr>140</gpxtpx:hr>
          </gpxtpx:TrackPointExtension>
        </extensions>
      </trkpt>
      <trkpt lat="46.7864" lon="-1.59373">
        <ele>38.8</ele>
        <time>2024-05-10T07:56:39Z</time>
        <extensions>
          <gpxtpx:TrackPointExtension xmlns:gpxtpx="http://www.garmin.com/xmlschemas/TrackPointExtension/v1">
            <gpxtpx:hr>140</gpxtpx:hr>
          </gpxtpx:TrackPointExtension>
        </extensions>
      </trkpt>
      <trkpt lat="46.78642" lon="-1.59374">
        <ele>39</ele>
        <time>2024-05-10T07:56:40Z</time>
        <extensions>
          <gpxtpx:TrackPointExtension xmlns:gpxtpx="http://www.garmin.com/xmlschemas/TrackPointExtension/v1">
            <gpxtpx:hr>140</gpxtpx:hr>
          </gpxtpx:TrackPointExtension>
        </extensions>
      </trkpt>
      <trkpt lat="46.78643" lon="-1.59375">
        <ele>39.4</ele>
        <time>2024-05-10T07:56:41Z</time>
        <extensions>
          <gpxtpx:TrackPointExtension xmlns:gpxtpx="http://www.garmin.com/xmlschemas/TrackPointExtension/v1">
            <gpxtpx:hr>140</gpxtpx:hr>
          </gpxtpx:TrackPointExtension>
        </extensions>
      </trkpt>
      <trkpt lat="46.78644" lon="-1.59376">
        <ele>39.6</ele>
        <time>2024-05-10T07:56:42Z</time>
        <extensions>
          <gpxtpx:TrackPointExtension xmlns:gpxtpx="http://www.garmin.com/xmlschemas/TrackPointExtension/v1">
            <gpxtpx:hr>141</gpxtpx:hr>
          </gpxtpx:TrackPointExtension>
        </extensions>
      </trkpt>
      <trkpt lat="46.78646" lon="-1.59377">
        <ele>40</ele>
        <time>2024-05-10T07:56:43Z</time>
        <extensions>
          <gpxtpx:TrackPointExtension xmlns:gpxtpx="http://www.garmin.com/xmlschemas/TrackPointExtension/v1">
            <gpxtpx:hr>142</gpxtpx:hr>
          </gpxtpx:TrackPointExtension>
        </extensions>
      </trkpt>
      <trkpt lat="46.78647" lon="-1.59377">
        <ele>40.4</ele>
        <time>2024-05-10T07:56:44Z</time>
        <extensions>
          <gpxtpx:TrackPointExtension xmlns:gpxtpx="http://www.garmin.com/xmlschemas/TrackPointExtension/v1">
            <gpxtpx:hr>143</gpxtpx:hr>
          </gpxtpx:TrackPointExtension>
        </extensions>
      </trkpt>
      <trkpt lat="46.78649" lon="-1.59378">
        <ele>40.6</ele>
        <time>2024-05-10T07:56:45Z</time>
        <extensions>
          <gpxtpx:TrackPointExtension xmlns:gpxtpx="http://www.garmin.com/xmlschemas/TrackPointExtension/v1">
            <gpxtpx:hr>146</gpxtpx:hr>
          </gpxtpx:TrackPointExtension>
        </extensions>
      </trkpt>
      <trkpt lat="46.7865" lon="-1.59378">
        <ele>41</ele>
        <time>2024-05-10T07:56:46Z</time>
        <extensions>
          <gpxtpx:TrackPointExtension xmlns:gpxtpx="http://www.garmin.com/xmlschemas/TrackPointExtension/v1">
            <gpxtpx:hr>147</gpxtpx:hr>
          </gpxtpx:TrackPointExtension>
        </extensions>
      </trkpt>
      <trkpt lat="46.78652" lon="-1.59379">
        <ele>41.4</ele>
        <time>2024-05-10T07:56:47Z</time>
        <extensions>
          <gpxtpx:TrackPointExtension xmlns:gpxtpx="http://www.garmin.com/xmlschemas/TrackPointExtension/v1">
            <gpxtpx:hr>148</gpxtpx:hr>
          </gpxtpx:TrackPointExtension>
        </extensions>
      </trkpt>
      <trkpt lat="46.78654" lon="-1.59379">
        <ele>41.8</ele>
        <time>2024-05-10T07:56:48Z</time>
        <extensions>
          <gpxtpx:TrackPointExtension xmlns:gpxtpx="http://www.garmin.com/xmlschemas/TrackPointExtension/v1">
            <gpxtpx:hr>149</gpxtpx:hr>
          </gpxtpx:TrackPointExtension>
        </extensions>
      </trkpt>
      <trkpt lat="46.78655" lon="-1.5938">
        <ele>42.2</ele>
        <time>2024-05-10T07:56:49Z</time>
        <extensions>
          <gpxtpx:TrackPointExtension xmlns:gpxtpx="http://www.garmin.com/xmlschemas/TrackPointExtension/v1">
            <gpxtpx:hr>151</gpxtpx:hr>
          </gpxtpx:TrackPointExtension>
        </extensions>
      </trkpt>
      <trkpt lat="46.78657" lon="-1.5938">
        <ele>42.4</ele>
        <time>2024-05-10T07:56:50Z</time>
        <extensions>
          <gpxtpx:TrackPointExtension xmlns:gpxtpx="http://www.garmin.com/xmlschemas/TrackPointExtension/v1">
            <gpxtpx:hr>152</gpxtpx:hr>
          </gpxtpx:TrackPointExtension>
        </extensions>
      </trkpt>
      <trkpt lat="46.78659" lon="-1.59381">
        <ele>42.8</ele>
        <time>2024-05-10T07:56:51Z</time>
        <extensions>
          <gpxtpx:TrackPointExtension xmlns:gpxtpx="http://www.garmin.com/xmlschemas/TrackPointExtension/v1">
            <gpxtpx:hr>153</gpxtpx:hr>
          </gpxtpx:TrackPointExtension>
        </extensions>
      </trkpt>
      <trkpt lat="46.7866" lon="-1.59382">
        <ele>43.2</ele>
        <time>2024-05-10T07:56:52Z</time>
        <extensions>
          <gpxtpx:TrackPointExtension xmlns:gpxtpx="http://www.garmin.com/xmlschemas/TrackPointExtension/v1">
            <gpxtpx:hr>154</gpxtpx:hr>
          </gpxtpx:TrackPointExtension>
        </extensions>
      </trkpt>
      <trkpt lat="46.78662" lon="-1.59382">
        <ele>43.4</ele>
        <time>2024-05-10T07:56:53Z</time>
        <extensions>
          <gpxtpx:TrackPointExtension xmlns:gpxtpx="http://www.garmin.com/xmlschemas/TrackPointExtension/v1">
            <gpxtpx:hr>155</gpxtpx:hr>
          </gpxtpx:TrackPointExtension>
        </extensions>
      </trkpt>
      <trkpt lat="46.78663" lon="-1.59383">
        <ele>43.8</ele>
        <time>2024-05-10T07:56:54Z</time>
        <extensions>
          <gpxtpx:TrackPointExtension xmlns:gpxtpx="http://www.garmin.com/xmlschemas/TrackPointExtension/v1">
            <gpxtpx:hr>156</gpxtpx:hr>
          </gpxtpx:TrackPointExtension>
        </extensions>
      </trkpt>
      <trkpt lat="46.78665" lon="-1.59385">
        <ele>44.2</ele>
        <time>2024-05-10T07:56:55Z</time>
        <extensions>
          <gpxtpx:TrackPointExtension xmlns:gpxtpx="http://www.garmin.com/xmlschemas/TrackPointExtension/v1">
            <gpxtpx:hr>157</gpxtpx:hr>
          </gpxtpx:TrackPointExtension>
        </extensions>
      </trkpt>
      <trkpt lat="46.78666" lon="-1.59386">
        <ele>44.4</ele>
        <time>2024-05-10T07:56:56Z</time>
        <extensions>
          <gpxtpx:TrackPointExtension xmlns:gpxtpx="http://www.garmin.com/xmlschemas/TrackPointExtension/v1">
            <gpxtpx:hr>157</gpxtpx:hr>
          </gpxtpx:TrackPointExtension>
        </extensions>
      </trkpt>
      <trkpt lat="46.78668" lon="-1.59387">
        <ele>44.8</ele>
        <time>2024-05-10T07:56:57Z</time>
        <extensions>
          <gpxtpx:TrackPointExtension xmlns:gpxtpx="http://www.garmin.com/xmlschemas/TrackPointExtension/v1">
            <gpxtpx:hr>158</gpxtpx:hr>
          </gpxtpx:TrackPointExtension>
        </extensions>
      </trkpt>
      <trkpt lat="46.78669" lon="-1.59388">
        <ele>45</ele>
        <time>2024-05-10T07:56:58Z</time>
        <extensions>
          <gpxtpx:TrackPointExtension xmlns:gpxtpx="http://www.garmin.com/xmlschemas/TrackPointExtension/v1">
            <gpxtpx:hr>160</gpxtpx:hr>
          </gpxtpx:TrackPointExtension>
        </extensions>
      </trkpt>
      <trkpt lat="46.78671" lon="-1.59389">
        <ele>45.2</ele>
        <time>2024-05-10T07:56:59Z</time>
        <extensions>
          <gpxtpx:TrackPointExtension xmlns:gpxtpx="http://www.garmin.com/xmlschemas/TrackPointExtension/v1">
            <gpxtpx:hr>160</gpxtpx:hr>
          </gpxtpx:TrackPointExtension>
        </extensions>
      </trkpt>
      <trkpt lat="46.78672" lon="-1.59389">
        <ele>45.4</ele>
        <time>2024-05-10T07:57:00Z</time>
        <extensions>
          <gpxtpx:TrackPointExtension xmlns:gpxtpx="http://www.garmin.com/xmlschemas/TrackPointExtension/v1">
            <gpxtpx:hr>160</gpxtpx:hr>
          </gpxtpx:TrackPointExtension>
        </extensions>
      </trkpt>
      <trkpt lat="46.78674" lon="-1.59389">
        <ele>45.4</ele>
        <time>2024-05-10T07:57:01Z</time>
        <extensions>
          <gpxtpx:TrackPointExtension xmlns:gpxtpx="http://www.garmin.com/xmlschemas/TrackPointExtension/v1">
            <gpxtpx:hr>161</gpxtpx:hr>
          </gpxtpx:TrackPointExtension>
        </extensions>
      </trkpt>
      <trkpt lat="46.78675" lon="-1.5939">
        <ele>45.6</ele>
        <time>2024-05-10T07:57:02Z</time>
        <extensions>
          <gpxtpx:TrackPointExtension xmlns:gpxtpx="http://www.garmin.com/xmlschemas/TrackPointExtension/v1">
            <gpxtpx:hr>161</gpxtpx:hr>
          </gpxtpx:TrackPointExtension>
        </extensions>
      </trkpt>
      <trkpt lat="46.78676" lon="-1.5939">
        <ele>45.6</ele>
        <time>2024-05-10T07:57:03Z</time>
        <extensions>
          <gpxtpx:TrackPointExtension xmlns:gpxtpx="http://www.garmin.com/xmlschemas/TrackPointExtension/v1">
            <gpxtpx:hr>161</gpxtpx:hr>
          </gpxtpx:TrackPointExtension>
        </extensions>
      </trkpt>
      <trkpt lat="46.78678" lon="-1.5939">
        <ele>45.8</ele>
        <time>2024-05-10T07:57:04Z</time>
        <extensions>
          <gpxtpx:TrackPointExtension xmlns:gpxtpx="http://www.garmin.com/xmlschemas/TrackPointExtension/v1">
            <gpxtpx:hr>162</gpxtpx:hr>
          </gpxtpx:TrackPointExtension>
        </extensions>
      </trkpt>
      <trkpt lat="46.78679" lon="-1.59389">
        <ele>46</ele>
        <time>2024-05-10T07:57:05Z</time>
        <extensions>
          <gpxtpx:TrackPointExtension xmlns:gpxtpx="http://www.garmin.com/xmlschemas/TrackPointExtension/v1">
            <gpxtpx:hr>162</gpxtpx:hr>
          </gpxtpx:TrackPointExtension>
        </extensions>
      </trkpt>
      <trkpt lat="46.7868" lon="-1.59388">
        <ele>46</ele>
        <time>2024-05-10T07:57:06Z</time>
        <extensions>
          <gpxtpx:TrackPointExtension xmlns:gpxtpx="http://www.garmin.com/xmlschemas/TrackPointExtension/v1">
            <gpxtpx:hr>161</gpxtpx:hr>
          </gpxtpx:TrackPointExtension>
        </extensions>
      </trkpt>
      <trkpt lat="46.78681" lon="-1.59386">
        <ele>46</ele>
        <time>2024-05-10T07:57:07Z</time>
        <extensions>
          <gpxtpx:TrackPointExtension xmlns:gpxtpx="http://www.garmin.com/xmlschemas/TrackPointExtension/v1">
            <gpxtpx:hr>161</gpxtpx:hr>
          </gpxtpx:TrackPointExtension>
        </extensions>
      </trkpt>
      <trkpt lat="46.78682" lon="-1.59385">
        <ele>46</ele>
        <time>2024-05-10T07:57:08Z</time>
        <extensions>
          <gpxtpx:TrackPointExtension xmlns:gpxtpx="http://www.garmin.com/xmlschemas/TrackPointExtension/v1">
            <gpxtpx:hr>161</gpxtpx:hr>
          </gpxtpx:TrackPointExtension>
        </extensions>
      </trkpt>
      <trkpt lat="46.78683" lon="-1.59382">
        <ele>46.2</ele>
        <time>2024-05-10T07:57:09Z</time>
        <extensions>
          <gpxtpx:TrackPointExtension xmlns:gpxtpx="http://www.garmin.com/xmlschemas/TrackPointExtension/v1">
            <gpxtpx:hr>160</gpxtpx:hr>
          </gpxtpx:TrackPointExtension>
        </extensions>
      </trkpt>
      <trkpt lat="46.78684" lon="-1.5938">
        <ele>46.2</ele>
        <time>2024-05-10T07:57:10Z</time>
        <extensions>
          <gpxtpx:TrackPointExtension xmlns:gpxtpx="http://www.garmin.com/xmlschemas/TrackPointExtension/v1">
            <gpxtpx:hr>160</gpxtpx:hr>
          </gpxtpx:TrackPointExtension>
        </extensions>
      </trkpt>
      <trkpt lat="46.78685" lon="-1.59377">
        <ele>46.2</ele>
        <time>2024-05-10T07:57:11Z</time>
        <extensions>
          <gpxtpx:TrackPointExtension xmlns:gpxtpx="http://www.garmin.com/xmlschemas/TrackPointExtension/v1">
            <gpxtpx:hr>159</gpxtpx:hr>
          </gpxtpx:TrackPointExtension>
        </extensions>
      </trkpt>
      <trkpt lat="46.78687" lon="-1.59374">
        <ele>46.2</ele>
        <time>2024-05-10T07:57:12Z</time>
        <extensions>
          <gpxtpx:TrackPointExtension xmlns:gpxtpx="http://www.garmin.com/xmlschemas/TrackPointExtension/v1">
            <gpxtpx:hr>158</gpxtpx:hr>
          </gpxtpx:TrackPointExtension>
        </extensions>
      </trkpt>
      <trkpt lat="46.78688" lon="-1.59371">
        <ele>46.2</ele>
        <time>2024-05-10T07:57:13Z</time>
        <extensions>
          <gpxtpx:TrackPointExtension xmlns:gpxtpx="http://www.garmin.com/xmlschemas/TrackPointExtension/v1">
            <gpxtpx:hr>158</gpxtpx:hr>
          </gpxtpx:TrackPointExtension>
        </extensions>
      </trkpt>
      <trkpt lat="46.78691" lon="-1.59367">
        <ele>46.2</ele>
        <time>2024-05-10T07:57:14Z</time>
        <extensions>
          <gpxtpx:TrackPointExtension xmlns:gpxtpx="http://www.garmin.com/xmlschemas/TrackPointExtension/v1">
            <gpxtpx:hr>157</gpxtpx:hr>
          </gpxtpx:TrackPointExtension>
        </extensions>
      </trkpt>
      <trkpt lat="46.78691" lon="-1.59366">
        <ele>46</ele>
        <time>2024-05-10T07:57:15Z</time>
        <extensions>
          <gpxtpx:TrackPointExtension xmlns:gpxtpx="http://www.garmin.com/xmlschemas/TrackPointExtension/v1">
            <gpxtpx:hr>157</gpxtpx:hr>
          </gpxtpx:TrackPointExtension>
        </extensions>
      </trkpt>
      <trkpt lat="46.78693" lon="-1.59362">
        <ele>46</ele>
        <time>2024-05-10T07:57:16Z</time>
        <extensions>
          <gpxtpx:TrackPointExtension xmlns:gpxtpx="http://www.garmin.com/xmlschemas/TrackPointExtension/v1">
            <gpxtpx:hr>157</gpxtpx:hr>
          </gpxtpx:TrackPointExtension>
        </extensions>
      </trkpt>
      <trkpt lat="46.78696" lon="-1.59359">
        <ele>46</ele>
        <time>2024-05-10T07:57:17Z</time>
        <extensions>
          <gpxtpx:TrackPointExtension xmlns:gpxtpx="http://www.garmin.com/xmlschemas/TrackPointExtension/v1">
            <gpxtpx:hr>157</gpxtpx:hr>
          </gpxtpx:TrackPointExtension>
        </extensions>
      </trkpt>
      <trkpt lat="46.78698" lon="-1.59355">
        <ele>45.8</ele>
        <time>2024-05-10T07:57:18Z</time>
        <extensions>
          <gpxtpx:TrackPointExtension xmlns:gpxtpx="http://www.garmin.com/xmlschemas/TrackPointExtension/v1">
            <gpxtpx:hr>157</gpxtpx:hr>
          </gpxtpx:TrackPointExtension>
        </extensions>
      </trkpt>
      <trkpt lat="46.78701" lon="-1.59352">
        <ele>45.6</ele>
        <time>2024-05-10T07:57:19Z</time>
        <extensions>
          <gpxtpx:TrackPointExtension xmlns:gpxtpx="http://www.garmin.com/xmlschemas/TrackPointExtension/v1">
            <gpxtpx:hr>157</gpxtpx:hr>
          </gpxtpx:TrackPointExtension>
        </extensions>
      </trkpt>
      <trkpt lat="46.78703" lon="-1.59349">
        <ele>45.4</ele>
        <time>2024-05-10T07:57:20Z</time>
        <extensions>
          <gpxtpx:TrackPointExtension xmlns:gpxtpx="http://www.garmin.com/xmlschemas/TrackPointExtension/v1">
            <gpxtpx:hr>157</gpxtpx:hr>
          </gpxtpx:TrackPointExtension>
        </extensions>
      </trkpt>
      <trkpt lat="46.78707" lon="-1.59344">
        <ele>45.4</ele>
        <time>2024-05-10T07:57:21Z</time>
        <extensions>
          <gpxtpx:TrackPointExtension xmlns:gpxtpx="http://www.garmin.com/xmlschemas/TrackPointExtension/v1">
            <gpxtpx:hr>156</gpxtpx:hr>
          </gpxtpx:TrackPointExtension>
        </extensions>
      </trkpt>
      <trkpt lat="46.78709" lon="-1.59343">
        <ele>45.2</ele>
        <time>2024-05-10T07:57:22Z</time>
        <extensions>
          <gpxtpx:TrackPointExtension xmlns:gpxtpx="http://www.garmin.com/xmlschemas/TrackPointExtension/v1">
            <gpxtpx:hr>156</gpxtpx:hr>
          </gpxtpx:TrackPointExtension>
        </extensions>
      </trkpt>
      <trkpt lat="46.78712" lon="-1.59339">
        <ele>44.8</ele>
        <time>2024-05-10T07:57:23Z</time>
        <extensions>
          <gpxtpx:TrackPointExtension xmlns:gpxtpx="http://www.garmin.com/xmlschemas/TrackPointExtension/v1">
            <gpxtpx:hr>156</gpxtpx:hr>
          </gpxtpx:TrackPointExtension>
        </extensions>
      </trkpt>
      <trkpt lat="46.78715" lon="-1.59336">
        <ele>44.6</ele>
        <time>2024-05-10T07:57:24Z</time>
        <extensions>
          <gpxtpx:TrackPointExtension xmlns:gpxtpx="http://www.garmin.com/xmlschemas/TrackPointExtension/v1">
            <gpxtpx:hr>156</gpxtpx:hr>
          </gpxtpx:TrackPointExtension>
        </extensions>
      </trkpt>
      <trkpt lat="46.78718" lon="-1.59332">
        <ele>44.2</ele>
        <time>2024-05-10T07:57:25Z</time>
        <extensions>
          <gpxtpx:TrackPointExtension xmlns:gpxtpx="http://www.garmin.com/xmlschemas/TrackPointExtension/v1">
            <gpxtpx:hr>156</gpxtpx:hr>
          </gpxtpx:TrackPointExtension>
        </extensions>
      </trkpt>
      <trkpt lat="46.78722" lon="-1.59328">
        <ele>44</ele>
        <time>2024-05-10T07:57:26Z</time>
        <extensions>
          <gpxtpx:TrackPointExtension xmlns:gpxtpx="http://www.garmin.com/xmlschemas/TrackPointExtension/v1">
            <gpxtpx:hr>156</gpxtpx:hr>
          </gpxtpx:TrackPointExtension>
        </extensions>
      </trkpt>
      <trkpt lat="46.78725" lon="-1.59324">
        <ele>43.8</ele>
        <time>2024-05-10T07:57:27Z</time>
        <extensions>
          <gpxtpx:TrackPointExtension xmlns:gpxtpx="http://www.garmin.com/xmlschemas/TrackPointExtension/v1">
            <gpxtpx:hr>155</gpxtpx:hr>
          </gpxtpx:TrackPointExtension>
        </extensions>
      </trkpt>
      <trkpt lat="46.78728" lon="-1.59318">
        <ele>43.6</ele>
        <time>2024-05-10T07:57:28Z</time>
        <extensions>
          <gpxtpx:TrackPointExtension xmlns:gpxtpx="http://www.garmin.com/xmlschemas/TrackPointExtension/v1">
            <gpxtpx:hr>155</gpxtpx:hr>
          </gpxtpx:TrackPointExtension>
        </extensions>
      </trkpt>
      <trkpt lat="46.7873" lon="-1.59312">
        <ele>43.4</ele>
        <time>2024-05-10T07:57:29Z</time>
        <extensions>
          <gpxtpx:TrackPointExtension xmlns:gpxtpx="http://www.garmin.com/xmlschemas/TrackPointExtension/v1">
            <gpxtpx:hr>155</gpxtpx:hr>
          </gpxtpx:TrackPointExtension>
        </extensions>
      </trkpt>
      <trkpt lat="46.78732" lon="-1.59304">
        <ele>43.2</ele>
        <time>2024-05-10T07:57:30Z</time>
        <extensions>
          <gpxtpx:TrackPointExtension xmlns:gpxtpx="http://www.garmin.com/xmlschemas/TrackPointExtension/v1">
            <gpxtpx:hr>155</gpxtpx:hr>
          </gpxtpx:TrackPointExtension>
        </extensions>
      </trkpt>
      <trkpt lat="46.78734" lon="-1.59296">
        <ele>43</ele>
        <time>2024-05-10T07:57:31Z</time>
        <extensions>
          <gpxtpx:TrackPointExtension xmlns:gpxtpx="http://www.garmin.com/xmlschemas/TrackPointExtension/v1">
            <gpxtpx:hr>155</gpxtpx:hr>
          </gpxtpx:TrackPointExtension>
        </extensions>
      </trkpt>
      <trkpt lat="46.78735" lon="-1.59288">
        <ele>42.8</ele>
        <time>2024-05-10T07:57:32Z</time>
        <extensions>
          <gpxtpx:TrackPointExtension xmlns:gpxtpx="http://www.garmin.com/xmlschemas/TrackPointExtension/v1">
            <gpxtpx:hr>155</gpxtpx:hr>
          </gpxtpx:TrackPointExtension>
        </extensions>
      </trkpt>
      <trkpt lat="46.78737" lon="-1.59274">
        <ele>42.4</ele>
        <time>2024-05-10T07:57:33Z</time>
        <extensions>
          <gpxtpx:TrackPointExtension xmlns:gpxtpx="http://www.garmin.com/xmlschemas/TrackPointExtension/v1">
            <gpxtpx:hr>155</gpxtpx:hr>
          </gpxtpx:TrackPointExtension>
        </extensions>
      </trkpt>
      <trkpt lat="46.78737" lon="-1.5927">
        <ele>42.2</ele>
        <time>2024-05-10T07:57:34Z</time>
        <extensions>
          <gpxtpx:TrackPointExtension xmlns:gpxtpx="http://www.garmin.com/xmlschemas/TrackPointExtension/v1">
            <gpxtpx:hr>155</gpxtpx:hr>
          </gpxtpx:TrackPointExtension>
        </extensions>
      </trkpt>
      <trkpt lat="46.78738" lon="-1.59261">
        <ele>41.8</ele>
        <time>2024-05-10T07:57:35Z</time>
        <extensions>
          <gpxtpx:TrackPointExtension xmlns:gpxtpx="http://www.garmin.com/xmlschemas/TrackPointExtension/v1">
            <gpxtpx:hr>154</gpxtpx:hr>
          </gpxtpx:TrackPointExtension>
        </extensions>
      </trkpt>
      <trkpt lat="46.7874" lon="-1.59253">
        <ele>41.6</ele>
        <time>2024-05-10T07:57:36Z</time>
        <extensions>
          <gpxtpx:TrackPointExtension xmlns:gpxtpx="http://www.garmin.com/xmlschemas/TrackPointExtension/v1">
            <gpxtpx:hr>154</gpxtpx:hr>
          </gpxtpx:TrackPointExtension>
        </extensions>
      </trkpt>
      <trkpt lat="46.78742" lon="-1.59244">
        <ele>41.2</ele>
        <time>2024-05-10T07:57:37Z</time>
        <extensions>
          <gpxtpx:TrackPointExtension xmlns:gpxtpx="http://www.garmin.com/xmlschemas/TrackPointExtension/v1">
            <gpxtpx:hr>152</gpxtpx:hr>
          </gpxtpx:TrackPointExtension>
        </extensions>
      </trkpt>
      <trkpt lat="46.78744" lon="-1.59236">
        <ele>41</ele>
        <time>2024-05-10T07:57:38Z</time>
        <extensions>
          <gpxtpx:TrackPointExtension xmlns:gpxtpx="http://www.garmin.com/xmlschemas/TrackPointExtension/v1">
            <gpxtpx:hr>151</gpxtpx:hr>
          </gpxtpx:TrackPointExtension>
        </extensions>
      </trkpt>
      <trkpt lat="46.78748" lon="-1.59229">
        <ele>40.8</ele>
        <time>2024-05-10T07:57:39Z</time>
        <extensions>
          <gpxtpx:TrackPointExtension xmlns:gpxtpx="http://www.garmin.com/xmlschemas/TrackPointExtension/v1">
            <gpxtpx:hr>150</gpxtpx:hr>
          </gpxtpx:TrackPointExtension>
        </extensions>
      </trkpt>
      <trkpt lat="46.78751" lon="-1.59221">
        <ele>40.6</ele>
        <time>2024-05-10T07:57:40Z</time>
        <extensions>
          <gpxtpx:TrackPointExtension xmlns:gpxtpx="http://www.garmin.com/xmlschemas/TrackPointExtension/v1">
            <gpxtpx:hr>150</gpxtpx:hr>
          </gpxtpx:TrackPointExtension>
        </extensions>
      </trkpt>
      <trkpt lat="46.78755" lon="-1.59214">
        <ele>40.4</ele>
        <time>2024-05-10T07:57:41Z</time>
        <extensions>
          <gpxtpx:TrackPointExtension xmlns:gpxtpx="http://www.garmin.com/xmlschemas/TrackPointExtension/v1">
            <gpxtpx:hr>149</gpxtpx:hr>
          </gpxtpx:TrackPointExtension>
        </extensions>
      </trkpt>
      <trkpt lat="46.78759" lon="-1.59208">
        <ele>40.2</ele>
        <time>2024-05-10T07:57:42Z</time>
        <extensions>
          <gpxtpx:TrackPointExtension xmlns:gpxtpx="http://www.garmin.com/xmlschemas/TrackPointExtension/v1">
            <gpxtpx:hr>149</gpxtpx:hr>
          </gpxtpx:TrackPointExtension>
        </extensions>
      </trkpt>
      <trkpt lat="46.78764" lon="-1.59201">
        <ele>39.8</ele>
        <time>2024-05-10T07:57:43Z</time>
        <extensions>
          <gpxtpx:TrackPointExtension xmlns:gpxtpx="http://www.garmin.com/xmlschemas/TrackPointExtension/v1">
            <gpxtpx:hr>149</gpxtpx:hr>
          </gpxtpx:TrackPointExtension>
        </extensions>
      </trkpt>
      <trkpt lat="46.78768" lon="-1.59194">
        <ele>39.6</ele>
        <time>2024-05-10T07:57:44Z</time>
        <extensions>
          <gpxtpx:TrackPointExtension xmlns:gpxtpx="http://www.garmin.com/xmlschemas/TrackPointExtension/v1">
            <gpxtpx:hr>148</gpxtpx:hr>
          </gpxtpx:TrackPointExtension>
        </extensions>
      </trkpt>
      <trkpt lat="46.78772" lon="-1.59187">
        <ele>39.4</ele>
        <time>2024-05-10T07:57:45Z</time>
        <extensions>
          <gpxtpx:TrackPointExtension xmlns:gpxtpx="http://www.garmin.com/xmlschemas/TrackPointExtension/v1">
            <gpxtpx:hr>148</gpxtpx:hr>
          </gpxtpx:TrackPointExtension>
        </extensions>
      </trkpt>
      <trkpt lat="46.78776" lon="-1.5918">
        <ele>39.2</ele>
        <time>2024-05-10T07:57:46Z</time>
        <extensions>
          <gpxtpx:TrackPointExtension xmlns:gpxtpx="http://www.garmin.com/xmlschemas/TrackPointExtension/v1">
            <gpxtpx:hr>148</gpxtpx:hr>
          </gpxtpx:TrackPointExtension>
        </extensions>
      </trkpt>
      <trkpt lat="46.7878" lon="-1.59174">
        <ele>39</ele>
        <time>2024-05-10T07:57:47Z</time>
        <extensions>
          <gpxtpx:TrackPointExtension xmlns:gpxtpx="http://www.garmin.com/xmlschemas/TrackPointExtension/v1">
            <gpxtpx:hr>147</gpxtpx:hr>
          </gpxtpx:TrackPointExtension>
        </extensions>
      </trkpt>
      <trkpt lat="46.78784" lon="-1.59167">
        <ele>38.8</ele>
        <time>2024-05-10T07:57:48Z</time>
        <extensions>
          <gpxtpx:TrackPointExtension xmlns:gpxtpx="http://www.garmin.com/xmlschemas/TrackPointExtension/v1">
            <gpxtpx:hr>146</gpxtpx:hr>
          </gpxtpx:TrackPointExtension>
        </extensions>
      </trkpt>
      <trkpt lat="46.78789" lon="-1.59162">
        <ele>38.8</ele>
        <time>2024-05-10T07:57:49Z</time>
        <extensions>
          <gpxtpx:TrackPointExtension xmlns:gpxtpx="http://www.garmin.com/xmlschemas/TrackPointExtension/v1">
            <gpxtpx:hr>145</gpxtpx:hr>
          </gpxtpx:TrackPointExtension>
        </extensions>
      </trkpt>
      <trkpt lat="46.78793" lon="-1.59156">
        <ele>38.6</ele>
        <time>2024-05-10T07:57:50Z</time>
        <extensions>
          <gpxtpx:TrackPointExtension xmlns:gpxtpx="http://www.garmin.com/xmlschemas/TrackPointExtension/v1">
            <gpxtpx:hr>144</gpxtpx:hr>
          </gpxtpx:TrackPointExtension>
        </extensions>
      </trkpt>
      <trkpt lat="46.78796" lon="-1.59152">
        <ele>38.6</ele>
        <time>2024-05-10T07:57:51Z</time>
        <extensions>
          <gpxtpx:TrackPointExtension xmlns:gpxtpx="http://www.garmin.com/xmlschemas/TrackPointExtension/v1">
            <gpxtpx:hr>143</gpxtpx:hr>
          </gpxtpx:TrackPointExtension>
        </extensions>
      </trkpt>
      <trkpt lat="46.78799" lon="-1.59148">
        <ele>38.8</ele>
        <time>2024-05-10T07:57:52Z</time>
        <extensions>
          <gpxtpx:TrackPointExtension xmlns:gpxtpx="http://www.garmin.com/xmlschemas/TrackPointExtension/v1">
            <gpxtpx:hr>142</gpxtpx:hr>
          </gpxtpx:TrackPointExtension>
        </extensions>
      </trkpt>
      <trkpt lat="46.78802" lon="-1.59144">
        <ele>38.8</ele>
        <time>2024-05-10T07:57:53Z</time>
        <extensions>
          <gpxtpx:TrackPointExtension xmlns:gpxtpx="http://www.garmin.com/xmlschemas/TrackPointExtension/v1">
            <gpxtpx:hr>142</gpxtpx:hr>
          </gpxtpx:TrackPointExtension>
        </extensions>
      </trkpt>
      <trkpt lat="46.78805" lon="-1.5914">
        <ele>38.8</ele>
        <time>2024-05-10T07:57:54Z</time>
        <extensions>
          <gpxtpx:TrackPointExtension xmlns:gpxtpx="http://www.garmin.com/xmlschemas/TrackPointExtension/v1">
            <gpxtpx:hr>141</gpxtpx:hr>
          </gpxtpx:TrackPointExtension>
        </extensions>
      </trkpt>
      <trkpt lat="46.78808" lon="-1.59137">
        <ele>38.8</ele>
        <time>2024-05-10T07:57:55Z</time>
        <extensions>
          <gpxtpx:TrackPointExtension xmlns:gpxtpx="http://www.garmin.com/xmlschemas/TrackPointExtension/v1">
            <gpxtpx:hr>141</gpxtpx:hr>
          </gpxtpx:TrackPointExtension>
        </extensions>
      </trkpt>
      <trkpt lat="46.7881" lon="-1.59134">
        <ele>39</ele>
        <time>2024-05-10T07:57:56Z</time>
        <extensions>
          <gpxtpx:TrackPointExtension xmlns:gpxtpx="http://www.garmin.com/xmlschemas/TrackPointExtension/v1">
            <gpxtpx:hr>141</gpxtpx:hr>
          </gpxtpx:TrackPointExtension>
        </extensions>
      </trkpt>
      <trkpt lat="46.78813" lon="-1.59131">
        <ele>39.2</ele>
        <time>2024-05-10T07:57:57Z</time>
        <extensions>
          <gpxtpx:TrackPointExtension xmlns:gpxtpx="http://www.garmin.com/xmlschemas/TrackPointExtension/v1">
            <gpxtpx:hr>140</gpxtpx:hr>
          </gpxtpx:TrackPointExtension>
        </extensions>
      </trkpt>
      <trkpt lat="46.78815" lon="-1.59128">
        <ele>39.2</ele>
        <time>2024-05-10T07:57:58Z</time>
        <extensions>
          <gpxtpx:TrackPointExtension xmlns:gpxtpx="http://www.garmin.com/xmlschemas/TrackPointExtension/v1">
            <gpxtpx:hr>139</gpxtpx:hr>
          </gpxtpx:TrackPointExtension>
        </extensions>
      </trkpt>
      <trkpt lat="46.78818" lon="-1.59125">
        <ele>39.4</ele>
        <time>2024-05-10T07:57:59Z</time>
        <extensions>
          <gpxtpx:TrackPointExtension xmlns:gpxtpx="http://www.garmin.com/xmlschemas/TrackPointExtension/v1">
            <gpxtpx:hr>138</gpxtpx:hr>
          </gpxtpx:TrackPointExtension>
        </extensions>
      </trkpt>
      <trkpt lat="46.7882" lon="-1.59122">
        <ele>39.4</ele>
        <time>2024-05-10T07:58:00Z</time>
        <extensions>
          <gpxtpx:TrackPointExtension xmlns:gpxtpx="http://www.garmin.com/xmlschemas/TrackPointExtension/v1">
            <gpxtpx:hr>138</gpxtpx:hr>
          </gpxtpx:TrackPointExtension>
        </extensions>
      </trkpt>
      <trkpt lat="46.78823" lon="-1.59119">
        <ele>39.4</ele>
        <time>2024-05-10T07:58:01Z</time>
        <extensions>
          <gpxtpx:TrackPointExtension xmlns:gpxtpx="http://www.garmin.com/xmlschemas/TrackPointExtension/v1">
            <gpxtpx:hr>137</gpxtpx:hr>
          </gpxtpx:TrackPointExtension>
        </extensions>
      </trkpt>
      <trkpt lat="46.78826" lon="-1.59116">
        <ele>39.6</ele>
        <time>2024-05-10T07:58:02Z</time>
        <extensions>
          <gpxtpx:TrackPointExtension xmlns:gpxtpx="http://www.garmin.com/xmlschemas/TrackPointExtension/v1">
            <gpxtpx:hr>136</gpxtpx:hr>
          </gpxtpx:TrackPointExtension>
        </extensions>
      </trkpt>
      <trkpt lat="46.78829" lon="-1.59113">
        <ele>39.6</ele>
        <time>2024-05-10T07:58:03Z</time>
        <extensions>
          <gpxtpx:TrackPointExtension xmlns:gpxtpx="http://www.garmin.com/xmlschemas/TrackPointExtension/v1">
            <gpxtpx:hr>136</gpxtpx:hr>
          </gpxtpx:TrackPointExtension>
        </extensions>
      </trkpt>
      <trkpt lat="46.78832" lon="-1.5911">
        <ele>39.6</ele>
        <time>2024-05-10T07:58:04Z</time>
        <extensions>
          <gpxtpx:TrackPointExtension xmlns:gpxtpx="http://www.garmin.com/xmlschemas/TrackPointExtension/v1">
            <gpxtpx:hr>135</gpxtpx:hr>
          </gpxtpx:TrackPointExtension>
        </extensions>
      </trkpt>
      <trkpt lat="46.78835" lon="-1.59107">
        <ele>39.8</ele>
        <time>2024-05-10T07:58:05Z</time>
        <extensions>
          <gpxtpx:TrackPointExtension xmlns:gpxtpx="http://www.garmin.com/xmlschemas/TrackPointExtension/v1">
            <gpxtpx:hr>134</gpxtpx:hr>
          </gpxtpx:TrackPointExtension>
        </extensions>
      </trkpt>
      <trkpt lat="46.78838" lon="-1.59105">
        <ele>39.8</ele>
        <time>2024-05-10T07:58:06Z</time>
        <extensions>
          <gpxtpx:TrackPointExtension xmlns:gpxtpx="http://www.garmin.com/xmlschemas/TrackPointExtension/v1">
            <gpxtpx:hr>133</gpxtpx:hr>
          </gpxtpx:TrackPointExtension>
        </extensions>
      </trkpt>
      <trkpt lat="46.78841" lon="-1.59102">
        <ele>40</ele>
        <time>2024-05-10T07:58:07Z</time>
        <extensions>
          <gpxtpx:TrackPointExtension xmlns:gpxtpx="http://www.garmin.com/xmlschemas/TrackPointExtension/v1">
            <gpxtpx:hr>133</gpxtpx:hr>
          </gpxtpx:TrackPointExtension>
        </extensions>
      </trkpt>
      <trkpt lat="46.78844" lon="-1.591">
        <ele>40</ele>
        <time>2024-05-10T07:58:09Z</time>
        <extensions>
          <gpxtpx:TrackPointExtension xmlns:gpxtpx="http://www.garmin.com/xmlschemas/TrackPointExtension/v1">
            <gpxtpx:hr>133</gpxtpx:hr>
          </gpxtpx:TrackPointExtension>
        </extensions>
      </trkpt>
      <trkpt lat="46.78847" lon="-1.59098">
        <ele>40.2</ele>
        <time>2024-05-10T07:58:10Z</time>
        <extensions>
          <gpxtpx:TrackPointExtension xmlns:gpxtpx="http://www.garmin.com/xmlschemas/TrackPointExtension/v1">
            <gpxtpx:hr>132</gpxtpx:hr>
          </gpxtpx:TrackPointExtension>
        </extensions>
      </trkpt>
      <trkpt lat="46.7885" lon="-1.59095">
        <ele>40.2</ele>
        <time>2024-05-10T07:58:11Z</time>
        <extensions>
          <gpxtpx:TrackPointExtension xmlns:gpxtpx="http://www.garmin.com/xmlschemas/TrackPointExtension/v1">
            <gpxtpx:hr>132</gpxtpx:hr>
          </gpxtpx:TrackPointExtension>
        </extensions>
      </trkpt>
      <trkpt lat="46.78854" lon="-1.59093">
        <ele>40.4</ele>
        <time>2024-05-10T07:58:12Z</time>
        <extensions>
          <gpxtpx:TrackPointExtension xmlns:gpxtpx="http://www.garmin.com/xmlschemas/TrackPointExtension/v1">
            <gpxtpx:hr>132</gpxtpx:hr>
          </gpxtpx:TrackPointExtension>
        </extensions>
      </trkpt>
      <trkpt lat="46.78857" lon="-1.5909">
        <ele>40.4</ele>
        <time>2024-05-10T07:58:13Z</time>
        <extensions>
          <gpxtpx:TrackPointExtension xmlns:gpxtpx="http://www.garmin.com/xmlschemas/TrackPointExtension/v1">
            <gpxtpx:hr>132</gpxtpx:hr>
          </gpxtpx:TrackPointExtension>
        </extensions>
      </trkpt>
      <trkpt lat="46.7886" lon="-1.59088">
        <ele>40.6</ele>
        <time>2024-05-10T07:58:14Z</time>
        <extensions>
          <gpxtpx:TrackPointExtension xmlns:gpxtpx="http://www.garmin.com/xmlschemas/TrackPointExtension/v1">
            <gpxtpx:hr>132</gpxtpx:hr>
          </gpxtpx:TrackPointExtension>
        </extensions>
      </trkpt>
      <trkpt lat="46.78863" lon="-1.59086">
        <ele>40.8</ele>
        <time>2024-05-10T07:58:15Z</time>
        <extensions>
          <gpxtpx:TrackPointExtension xmlns:gpxtpx="http://www.garmin.com/xmlschemas/TrackPointExtension/v1">
            <gpxtpx:hr>132</gpxtpx:hr>
          </gpxtpx:TrackPointExtension>
        </extensions>
      </trkpt>
      <trkpt lat="46.78866" lon="-1.59083">
        <ele>40.8</ele>
        <time>2024-05-10T07:58:16Z</time>
        <extensions>
          <gpxtpx:TrackPointExtension xmlns:gpxtpx="http://www.garmin.com/xmlschemas/TrackPointExtension/v1">
            <gpxtpx:hr>132</gpxtpx:hr>
          </gpxtpx:TrackPointExtension>
        </extensions>
      </trkpt>
      <trkpt lat="46.78869" lon="-1.59081">
        <ele>41</ele>
        <time>2024-05-10T07:58:17Z</time>
        <extensions>
          <gpxtpx:TrackPointExtension xmlns:gpxtpx="http://www.garmin.com/xmlschemas/TrackPointExtension/v1">
            <gpxtpx:hr>132</gpxtpx:hr>
          </gpxtpx:TrackPointExtension>
        </extensions>
      </trkpt>
      <trkpt lat="46.78874" lon="-1.59077">
        <ele>41.2</ele>
        <time>2024-05-10T07:58:18Z</time>
        <extensions>
          <gpxtpx:TrackPointExtension xmlns:gpxtpx="http://www.garmin.com/xmlschemas/TrackPointExtension/v1">
            <gpxtpx:hr>133</gpxtpx:hr>
          </gpxtpx:TrackPointExtension>
        </extensions>
      </trkpt>
      <trkpt lat="46.78876" lon="-1.59075">
        <ele>41.4</ele>
        <time>2024-05-10T07:58:19Z</time>
        <extensions>
          <gpxtpx:TrackPointExtension xmlns:gpxtpx="http://www.garmin.com/xmlschemas/TrackPointExtension/v1">
            <gpxtpx:hr>133</gpxtpx:hr>
          </gpxtpx:TrackPointExtension>
        </extensions>
      </trkpt>
      <trkpt lat="46.7888" lon="-1.59071">
        <ele>41.4</ele>
        <time>2024-05-10T07:58:20Z</time>
        <extensions>
          <gpxtpx:TrackPointExtension xmlns:gpxtpx="http://www.garmin.com/xmlschemas/TrackPointExtension/v1">
            <gpxtpx:hr>133</gpxtpx:hr>
          </gpxtpx:TrackPointExtension>
        </extensions>
      </trkpt>
      <trkpt lat="46.78884" lon="-1.59068">
        <ele>41.6</ele>
        <time>2024-05-10T07:58:21Z</time>
        <extensions>
          <gpxtpx:TrackPointExtension xmlns:gpxtpx="http://www.garmin.com/xmlschemas/TrackPointExtension/v1">
            <gpxtpx:hr>133</gpxtpx:hr>
          </gpxtpx:TrackPointExtension>
        </extensions>
      </trkpt>
      <trkpt lat="46.78887" lon="-1.59065">
        <ele>41.8</ele>
        <time>2024-05-10T07:58:22Z</time>
        <extensions>
          <gpxtpx:TrackPointExtension xmlns:gpxtpx="http://www.garmin.com/xmlschemas/TrackPointExtension/v1">
            <gpxtpx:hr>133</gpxtpx:hr>
          </gpxtpx:TrackPointExtension>
        </extensions>
      </trkpt>
      <trkpt lat="46.7889" lon="-1.59062">
        <ele>42</ele>
        <time>2024-05-10T07:58:23Z</time>
        <extensions>
          <gpxtpx:TrackPointExtension xmlns:gpxtpx="http://www.garmin.com/xmlschemas/TrackPointExtension/v1">
            <gpxtpx:hr>134</gpxtpx:hr>
          </gpxtpx:TrackPointExtension>
        </extensions>
      </trkpt>
      <trkpt lat="46.78893" lon="-1.5906">
        <ele>42</ele>
        <time>2024-05-10T07:58:24Z</time>
        <extensions>
          <gpxtpx:TrackPointExtension xmlns:gpxtpx="http://www.garmin.com/xmlschemas/TrackPointExtension/v1">
            <gpxtpx:hr>134</gpxtpx:hr>
          </gpxtpx:TrackPointExtension>
        </extensions>
      </trkpt>
      <trkpt lat="46.78896" lon="-1.59057">
        <ele>42.2</ele>
        <time>2024-05-10T07:58:25Z</time>
        <extensions>
          <gpxtpx:TrackPointExtension xmlns:gpxtpx="http://www.garmin.com/xmlschemas/TrackPointExtension/v1">
            <gpxtpx:hr>135</gpxtpx:hr>
          </gpxtpx:TrackPointExtension>
        </extensions>
      </trkpt>
      <trkpt lat="46.789" lon="-1.59054">
        <ele>42.4</ele>
        <time>2024-05-10T07:58:26Z</time>
        <extensions>
          <gpxtpx:TrackPointExtension xmlns:gpxtpx="http://www.garmin.com/xmlschemas/TrackPointExtension/v1">
            <gpxtpx:hr>135</gpxtpx:hr>
          </gpxtpx:TrackPointExtension>
        </extensions>
      </trkpt>
      <trkpt lat="46.78903" lon="-1.59051">
        <ele>42.4</ele>
        <time>2024-05-10T07:58:27Z</time>
        <extensions>
          <gpxtpx:TrackPointExtension xmlns:gpxtpx="http://www.garmin.com/xmlschemas/TrackPointExtension/v1">
            <gpxtpx:hr>135</gpxtpx:hr>
          </gpxtpx:TrackPointExtension>
        </extensions>
      </trkpt>
      <trkpt lat="46.78906" lon="-1.59048">
        <ele>42.6</ele>
        <time>2024-05-10T07:58:28Z</time>
        <extensions>
          <gpxtpx:TrackPointExtension xmlns:gpxtpx="http://www.garmin.com/xmlschemas/TrackPointExtension/v1">
            <gpxtpx:hr>135</gpxtpx:hr>
          </gpxtpx:TrackPointExtension>
        </extensions>
      </trkpt>
      <trkpt lat="46.7891" lon="-1.59045">
        <ele>42.6</ele>
        <time>2024-05-10T07:58:29Z</time>
        <extensions>
          <gpxtpx:TrackPointExtension xmlns:gpxtpx="http://www.garmin.com/xmlschemas/TrackPointExtension/v1">
            <gpxtpx:hr>135</gpxtpx:hr>
          </gpxtpx:TrackPointExtension>
        </extensions>
      </trkpt>
      <trkpt lat="46.78913" lon="-1.59042">
        <ele>42.8</ele>
        <time>2024-05-10T07:58:30Z</time>
        <extensions>
          <gpxtpx:TrackPointExtension xmlns:gpxtpx="http://www.garmin.com/xmlschemas/TrackPointExtension/v1">
            <gpxtpx:hr>135</gpxtpx:hr>
          </gpxtpx:TrackPointExtension>
        </extensions>
      </trkpt>
      <trkpt lat="46.78916" lon="-1.59039">
        <ele>42.8</ele>
        <time>2024-05-10T07:58:31Z</time>
        <extensions>
          <gpxtpx:TrackPointExtension xmlns:gpxtpx="http://www.garmin.com/xmlschemas/TrackPointExtension/v1">
            <gpxtpx:hr>135</gpxtpx:hr>
          </gpxtpx:TrackPointExtension>
        </extensions>
      </trkpt>
      <trkpt lat="46.78919" lon="-1.59036">
        <ele>43</ele>
        <time>2024-05-10T07:58:32Z</time>
        <extensions>
          <gpxtpx:TrackPointExtension xmlns:gpxtpx="http://www.garmin.com/xmlschemas/TrackPointExtension/v1">
            <gpxtpx:hr>135</gpxtpx:hr>
          </gpxtpx:TrackPointExtension>
        </extensions>
      </trkpt>
      <trkpt lat="46.78924" lon="-1.5903">
        <ele>43.2</ele>
        <time>2024-05-10T07:58:33Z</time>
        <extensions>
          <gpxtpx:TrackPointExtension xmlns:gpxtpx="http://www.garmin.com/xmlschemas/TrackPointExtension/v1">
            <gpxtpx:hr>135</gpxtpx:hr>
          </gpxtpx:TrackPointExtension>
        </extensions>
      </trkpt>
      <trkpt lat="46.78925" lon="-1.59029">
        <ele>43.2</ele>
        <time>2024-05-10T07:58:34Z</time>
        <extensions>
          <gpxtpx:TrackPointExtension xmlns:gpxtpx="http://www.garmin.com/xmlschemas/TrackPointExtension/v1">
            <gpxtpx:hr>135</gpxtpx:hr>
          </gpxtpx:TrackPointExtension>
        </extensions>
      </trkpt>
      <trkpt lat="46.78928" lon="-1.59025">
        <ele>43.4</ele>
        <time>2024-05-10T07:58:35Z</time>
        <extensions>
          <gpxtpx:TrackPointExtension xmlns:gpxtpx="http://www.garmin.com/xmlschemas/TrackPointExtension/v1">
            <gpxtpx:hr>135</gpxtpx:hr>
          </gpxtpx:TrackPointExtension>
        </extensions>
      </trkpt>
      <trkpt lat="46.78932" lon="-1.59021">
        <ele>43.4</ele>
        <time>2024-05-10T07:58:36Z</time>
        <extensions>
          <gpxtpx:TrackPointExtension xmlns:gpxtpx="http://www.garmin.com/xmlschemas/TrackPointExtension/v1">
            <gpxtpx:hr>136</gpxtpx:hr>
          </gpxtpx:TrackPointExtension>
        </extensions>
      </trkpt>
      <trkpt lat="46.78935" lon="-1.59017">
        <ele>43.4</ele>
        <time>2024-05-10T07:58:37Z</time>
        <extensions>
          <gpxtpx:TrackPointExtension xmlns:gpxtpx="http://www.garmin.com/xmlschemas/TrackPointExtension/v1">
            <gpxtpx:hr>136</gpxtpx:hr>
          </gpxtpx:TrackPointExtension>
        </extensions>
      </trkpt>
      <trkpt lat="46.78938" lon="-1.59013">
        <ele>43.6</ele>
        <time>2024-05-10T07:58:38Z</time>
        <extensions>
          <gpxtpx:TrackPointExtension xmlns:gpxtpx="http://www.garmin.com/xmlschemas/TrackPointExtension/v1">
            <gpxtpx:hr>136</gpxtpx:hr>
          </gpxtpx:TrackPointExtension>
        </extensions>
      </trkpt>
      <trkpt lat="46.78941" lon="-1.5901">
        <ele>43.6</ele>
        <time>2024-05-10T07:58:39Z</time>
        <extensions>
          <gpxtpx:TrackPointExtension xmlns:gpxtpx="http://www.garmin.com/xmlschemas/TrackPointExtension/v1">
            <gpxtpx:hr>136</gpxtpx:hr>
          </gpxtpx:TrackPointExtension>
        </extensions>
      </trkpt>
      <trkpt lat="46.78944" lon="-1.59006">
        <ele>43.6</ele>
        <time>2024-05-10T07:58:40Z</time>
        <extensions>
          <gpxtpx:TrackPointExtension xmlns:gpxtpx="http://www.garmin.com/xmlschemas/TrackPointExtension/v1">
            <gpxtpx:hr>135</gpxtpx:hr>
          </gpxtpx:TrackPointExtension>
        </extensions>
      </trkpt>
      <trkpt lat="46.78947" lon="-1.59002">
        <ele>43.8</ele>
        <time>2024-05-10T07:58:41Z</time>
        <extensions>
          <gpxtpx:TrackPointExtension xmlns:gpxtpx="http://www.garmin.com/xmlschemas/TrackPointExtension/v1">
            <gpxtpx:hr>135</gpxtpx:hr>
          </gpxtpx:TrackPointExtension>
        </extensions>
      </trkpt>
      <trkpt lat="46.7895" lon="-1.58999">
        <ele>43.8</ele>
        <time>2024-05-10T07:58:42Z</time>
        <extensions>
          <gpxtpx:TrackPointExtension xmlns:gpxtpx="http://www.garmin.com/xmlschemas/TrackPointExtension/v1">
            <gpxtpx:hr>134</gpxtpx:hr>
          </gpxtpx:TrackPointExtension>
        </extensions>
      </trkpt>
      <trkpt lat="46.78952" lon="-1.58996">
        <ele>43.8</ele>
        <time>2024-05-10T07:58:43Z</time>
        <extensions>
          <gpxtpx:TrackPointExtension xmlns:gpxtpx="http://www.garmin.com/xmlschemas/TrackPointExtension/v1">
            <gpxtpx:hr>134</gpxtpx:hr>
          </gpxtpx:TrackPointExtension>
        </extensions>
      </trkpt>
      <trkpt lat="46.78954" lon="-1.58994">
        <ele>43.8</ele>
        <time>2024-05-10T07:58:44Z</time>
        <extensions>
          <gpxtpx:TrackPointExtension xmlns:gpxtpx="http://www.garmin.com/xmlschemas/TrackPointExtension/v1">
            <gpxtpx:hr>133</gpxtpx:hr>
          </gpxtpx:TrackPointExtension>
        </extensions>
      </trkpt>
      <trkpt lat="46.78957" lon="-1.58991">
        <ele>43.8</ele>
        <time>2024-05-10T07:58:45Z</time>
        <extensions>
          <gpxtpx:TrackPointExtension xmlns:gpxtpx="http://www.garmin.com/xmlschemas/TrackPointExtension/v1">
            <gpxtpx:hr>133</gpxtpx:hr>
          </gpxtpx:TrackPointExtension>
        </extensions>
      </trkpt>
      <trkpt lat="46.78959" lon="-1.58989">
        <ele>43.8</ele>
        <time>2024-05-10T07:58:46Z</time>
        <extensions>
          <gpxtpx:TrackPointExtension xmlns:gpxtpx="http://www.garmin.com/xmlschemas/TrackPointExtension/v1">
            <gpxtpx:hr>132</gpxtpx:hr>
          </gpxtpx:TrackPointExtension>
        </extensions>
      </trkpt>
      <trkpt lat="46.78961" lon="-1.58986">
        <ele>44</ele>
        <time>2024-05-10T07:58:47Z</time>
        <extensions>
          <gpxtpx:TrackPointExtension xmlns:gpxtpx="http://www.garmin.com/xmlschemas/TrackPointExtension/v1">
            <gpxtpx:hr>132</gpxtpx:hr>
          </gpxtpx:TrackPointExtension>
        </extensions>
      </trkpt>
      <trkpt lat="46.78963" lon="-1.58984">
        <ele>44</ele>
        <time>2024-05-10T07:58:48Z</time>
        <extensions>
          <gpxtpx:TrackPointExtension xmlns:gpxtpx="http://www.garmin.com/xmlschemas/TrackPointExtension/v1">
            <gpxtpx:hr>131</gpxtpx:hr>
          </gpxtpx:TrackPointExtension>
        </extensions>
      </trkpt>
      <trkpt lat="46.78965" lon="-1.58982">
        <ele>44</ele>
        <time>2024-05-10T07:58:49Z</time>
        <extensions>
          <gpxtpx:TrackPointExtension xmlns:gpxtpx="http://www.garmin.com/xmlschemas/TrackPointExtension/v1">
            <gpxtpx:hr>131</gpxtpx:hr>
          </gpxtpx:TrackPointExtension>
        </extensions>
      </trkpt>
      <trkpt lat="46.78967" lon="-1.58981">
        <ele>44</ele>
        <time>2024-05-10T07:58:50Z</time>
        <extensions>
          <gpxtpx:TrackPointExtension xmlns:gpxtpx="http://www.garmin.com/xmlschemas/TrackPointExtension/v1">
            <gpxtpx:hr>131</gpxtpx:hr>
          </gpxtpx:TrackPointExtension>
        </extensions>
      </trkpt>
      <trkpt lat="46.7897" lon="-1.58979">
        <ele>44</ele>
        <time>2024-05-10T07:58:51Z</time>
        <extensions>
          <gpxtpx:TrackPointExtension xmlns:gpxtpx="http://www.garmin.com/xmlschemas/TrackPointExtension/v1">
            <gpxtpx:hr>131</gpxtpx:hr>
          </gpxtpx:TrackPointExtension>
        </extensions>
      </trkpt>
      <trkpt lat="46.78973" lon="-1.58978">
        <ele>44</ele>
        <time>2024-05-10T07:58:52Z</time>
        <extensions>
          <gpxtpx:TrackPointExtension xmlns:gpxtpx="http://www.garmin.com/xmlschemas/TrackPointExtension/v1">
            <gpxtpx:hr>132</gpxtpx:hr>
          </gpxtpx:TrackPointExtension>
        </extensions>
      </trkpt>
      <trkpt lat="46.78976" lon="-1.58976">
        <ele>43.8</ele>
        <time>2024-05-10T07:58:53Z</time>
        <extensions>
          <gpxtpx:TrackPointExtension xmlns:gpxtpx="http://www.garmin.com/xmlschemas/TrackPointExtension/v1">
            <gpxtpx:hr>132</gpxtpx:hr>
          </gpxtpx:TrackPointExtension>
        </extensions>
      </trkpt>
      <trkpt lat="46.78979" lon="-1.58975">
        <ele>43.8</ele>
        <time>2024-05-10T07:58:54Z</time>
        <extensions>
          <gpxtpx:TrackPointExtension xmlns:gpxtpx="http://www.garmin.com/xmlschemas/TrackPointExtension/v1">
            <gpxtpx:hr>131</gpxtpx:hr>
          </gpxtpx:TrackPointExtension>
        </extensions>
      </trkpt>
      <trkpt lat="46.78982" lon="-1.58973">
        <ele>43.8</ele>
        <time>2024-05-10T07:58:55Z</time>
        <extensions>
          <gpxtpx:TrackPointExtension xmlns:gpxtpx="http://www.garmin.com/xmlschemas/TrackPointExtension/v1">
            <gpxtpx:hr>130</gpxtpx:hr>
          </gpxtpx:TrackPointExtension>
        </extensions>
      </trkpt>
      <trkpt lat="46.78984" lon="-1.58971">
        <ele>43.8</ele>
        <time>2024-05-10T07:58:56Z</time>
        <extensions>
          <gpxtpx:TrackPointExtension xmlns:gpxtpx="http://www.garmin.com/xmlschemas/TrackPointExtension/v1">
            <gpxtpx:hr>130</gpxtpx:hr>
          </gpxtpx:TrackPointExtension>
        </extensions>
      </trkpt>
      <trkpt lat="46.78985" lon="-1.5897">
        <ele>43.8</ele>
        <time>2024-05-10T07:58:57Z</time>
        <extensions>
          <gpxtpx:TrackPointExtension xmlns:gpxtpx="http://www.garmin.com/xmlschemas/TrackPointExtension/v1">
            <gpxtpx:hr>130</gpxtpx:hr>
          </gpxtpx:TrackPointExtension>
        </extensions>
      </trkpt>
      <trkpt lat="46.78984" lon="-1.58969">
        <ele>43.6</ele>
        <time>2024-05-10T07:58:58Z</time>
        <extensions>
          <gpxtpx:TrackPointExtension xmlns:gpxtpx="http://www.garmin.com/xmlschemas/TrackPointExtension/v1">
            <gpxtpx:hr>129</gpxtpx:hr>
          </gpxtpx:TrackPointExtension>
        </extensions>
      </trkpt>
      <trkpt lat="46.78984" lon="-1.58969">
        <ele>43.6</ele>
        <time>2024-05-10T07:58:59Z</time>
        <extensions>
          <gpxtpx:TrackPointExtension xmlns:gpxtpx="http://www.garmin.com/xmlschemas/TrackPointExtension/v1">
            <gpxtpx:hr>129</gpxtpx:hr>
          </gpxtpx:TrackPointExtension>
        </extensions>
      </trkpt>
      <trkpt lat="46.78984" lon="-1.58969">
        <ele>43.6</ele>
        <time>2024-05-10T07:59:00Z</time>
        <extensions>
          <gpxtpx:TrackPointExtension xmlns:gpxtpx="http://www.garmin.com/xmlschemas/TrackPointExtension/v1">
            <gpxtpx:hr>129</gpxtpx:hr>
          </gpxtpx:TrackPointExtension>
        </extensions>
      </trkpt>
      <trkpt lat="46.78984" lon="-1.58969">
        <ele>43.6</ele>
        <time>2024-05-10T07:59:01Z</time>
        <extensions>
          <gpxtpx:TrackPointExtension xmlns:gpxtpx="http://www.garmin.com/xmlschemas/TrackPointExtension/v1">
            <gpxtpx:hr>129</gpxtpx:hr>
          </gpxtpx:TrackPointExtension>
        </extensions>
      </trkpt>
      <trkpt lat="46.78984" lon="-1.58968">
        <ele>43.6</ele>
        <time>2024-05-10T07:59:02Z</time>
        <extensions>
          <gpxtpx:TrackPointExtension xmlns:gpxtpx="http://www.garmin.com/xmlschemas/TrackPointExtension/v1">
            <gpxtpx:hr>129</gpxtpx:hr>
          </gpxtpx:TrackPointExtension>
        </extensions>
      </trkpt>
      <trkpt lat="46.78983" lon="-1.58968">
        <ele>43.6</ele>
        <time>2024-05-10T07:59:03Z</time>
        <extensions>
          <gpxtpx:TrackPointExtension xmlns:gpxtpx="http://www.garmin.com/xmlschemas/TrackPointExtension/v1">
            <gpxtpx:hr>128</gpxtpx:hr>
          </gpxtpx:TrackPointExtension>
        </extensions>
      </trkpt>
      <trkpt lat="46.78983" lon="-1.58968">
        <ele>43.6</ele>
        <time>2024-05-10T07:59:04Z</time>
        <extensions>
          <gpxtpx:TrackPointExtension xmlns:gpxtpx="http://www.garmin.com/xmlschemas/TrackPointExtension/v1">
            <gpxtpx:hr>128</gpxtpx:hr>
          </gpxtpx:TrackPointExtension>
        </extensions>
      </trkpt>
      <trkpt lat="46.78983" lon="-1.58968">
        <ele>43.6</ele>
        <time>2024-05-10T07:59:05Z</time>
        <extensions>
          <gpxtpx:TrackPointExtension xmlns:gpxtpx="http://www.garmin.com/xmlschemas/TrackPointExtension/v1">
            <gpxtpx:hr>126</gpxtpx:hr>
          </gpxtpx:TrackPointExtension>
        </extensions>
      </trkpt>
      <trkpt lat="46.78983" lon="-1.58967">
        <ele>43.6</ele>
        <time>2024-05-10T07:59:06Z</time>
        <extensions>
          <gpxtpx:TrackPointExtension xmlns:gpxtpx="http://www.garmin.com/xmlschemas/TrackPointExtension/v1">
            <gpxtpx:hr>125</gpxtpx:hr>
          </gpxtpx:TrackPointExtension>
        </extensions>
      </trkpt>
      <trkpt lat="46.78983" lon="-1.58967">
        <ele>43.4</ele>
        <time>2024-05-10T07:59:07Z</time>
        <extensions>
          <gpxtpx:TrackPointExtension xmlns:gpxtpx="http://www.garmin.com/xmlschemas/TrackPointExtension/v1">
            <gpxtpx:hr>126</gpxtpx:hr>
          </gpxtpx:TrackPointExtension>
        </extensions>
      </trkpt>
      <trkpt lat="46.78983" lon="-1.58967">
        <ele>43.4</ele>
        <time>2024-05-10T07:59:08Z</time>
        <extensions>
          <gpxtpx:TrackPointExtension xmlns:gpxtpx="http://www.garmin.com/xmlschemas/TrackPointExtension/v1">
            <gpxtpx:hr>126</gpxtpx:hr>
          </gpxtpx:TrackPointExtension>
        </extensions>
      </trkpt>
      <trkpt lat="46.78982" lon="-1.58967">
        <ele>43.4</ele>
        <time>2024-05-10T07:59:09Z</time>
        <extensions>
          <gpxtpx:TrackPointExtension xmlns:gpxtpx="http://www.garmin.com/xmlschemas/TrackPointExtension/v1">
            <gpxtpx:hr>126</gpxtpx:hr>
          </gpxtpx:TrackPointExtension>
        </extensions>
      </trkpt>
      <trkpt lat="46.78982" lon="-1.58966">
        <ele>43.2</ele>
        <time>2024-05-10T07:59:10Z</time>
        <extensions>
          <gpxtpx:TrackPointExtension xmlns:gpxtpx="http://www.garmin.com/xmlschemas/TrackPointExtension/v1">
            <gpxtpx:hr>127</gpxtpx:hr>
          </gpxtpx:TrackPointExtension>
        </extensions>
      </trkpt>
      <trkpt lat="46.78982" lon="-1.58966">
        <ele>43.2</ele>
        <time>2024-05-10T07:59:11Z</time>
        <extensions>
          <gpxtpx:TrackPointExtension xmlns:gpxtpx="http://www.garmin.com/xmlschemas/TrackPointExtension/v1">
            <gpxtpx:hr>127</gpxtpx:hr>
          </gpxtpx:TrackPointExtension>
        </extensions>
      </trkpt>
      <trkpt lat="46.78982" lon="-1.58966">
        <ele>43</ele>
        <time>2024-05-10T07:59:12Z</time>
        <extensions>
          <gpxtpx:TrackPointExtension xmlns:gpxtpx="http://www.garmin.com/xmlschemas/TrackPointExtension/v1">
            <gpxtpx:hr>126</gpxtpx:hr>
          </gpxtpx:TrackPointExtension>
        </extensions>
      </trkpt>
      <trkpt lat="46.78982" lon="-1.58966">
        <ele>43</ele>
        <time>2024-05-10T07:59:13Z</time>
        <extensions>
          <gpxtpx:TrackPointExtension xmlns:gpxtpx="http://www.garmin.com/xmlschemas/TrackPointExtension/v1">
            <gpxtpx:hr>126</gpxtpx:hr>
          </gpxtpx:TrackPointExtension>
        </extensions>
      </trkpt>
      <trkpt lat="46.78981" lon="-1.58965">
        <ele>42.8</ele>
        <time>2024-05-10T07:59:14Z</time>
        <extensions>
          <gpxtpx:TrackPointExtension xmlns:gpxtpx="http://www.garmin.com/xmlschemas/TrackPointExtension/v1">
            <gpxtpx:hr>125</gpxtpx:hr>
          </gpxtpx:TrackPointExtension>
        </extensions>
      </trkpt>
      <trkpt lat="46.78981" lon="-1.58965">
        <ele>42.8</ele>
        <time>2024-05-10T07:59:15Z</time>
        <extensions>
          <gpxtpx:TrackPointExtension xmlns:gpxtpx="http://www.garmin.com/xmlschemas/TrackPointExtension/v1">
            <gpxtpx:hr>124</gpxtpx:hr>
          </gpxtpx:TrackPointExtension>
        </extensions>
      </trkpt>
      <trkpt lat="46.78981" lon="-1.58965">
        <ele>42.6</ele>
        <time>2024-05-10T07:59:16Z</time>
        <extensions>
          <gpxtpx:TrackPointExtension xmlns:gpxtpx="http://www.garmin.com/xmlschemas/TrackPointExtension/v1">
            <gpxtpx:hr>124</gpxtpx:hr>
          </gpxtpx:TrackPointExtension>
        </extensions>
      </trkpt>
      <trkpt lat="46.78981" lon="-1.58965">
        <ele>42.6</ele>
        <time>2024-05-10T07:59:17Z</time>
        <extensions>
          <gpxtpx:TrackPointExtension xmlns:gpxtpx="http://www.garmin.com/xmlschemas/TrackPointExtension/v1">
            <gpxtpx:hr>124</gpxtpx:hr>
          </gpxtpx:TrackPointExtension>
        </extensions>
      </trkpt>
      <trkpt lat="46.78981" lon="-1.58964">
        <ele>42.6</ele>
        <time>2024-05-10T07:59:18Z</time>
        <extensions>
          <gpxtpx:TrackPointExtension xmlns:gpxtpx="http://www.garmin.com/xmlschemas/TrackPointExtension/v1">
            <gpxtpx:hr>124</gpxtpx:hr>
          </gpxtpx:TrackPointExtension>
        </extensions>
      </trkpt>
      <trkpt lat="46.78981" lon="-1.58964">
        <ele>42.6</ele>
        <time>2024-05-10T07:59:19Z</time>
        <extensions>
          <gpxtpx:TrackPointExtension xmlns:gpxtpx="http://www.garmin.com/xmlschemas/TrackPointExtension/v1">
            <gpxtpx:hr>125</gpxtpx:hr>
          </gpxtpx:TrackPointExtension>
        </extensions>
      </trkpt>
      <trkpt lat="46.7898" lon="-1.58964">
        <ele>42.4</ele>
        <time>2024-05-10T07:59:20Z</time>
        <extensions>
          <gpxtpx:TrackPointExtension xmlns:gpxtpx="http://www.garmin.com/xmlschemas/TrackPointExtension/v1">
            <gpxtpx:hr>125</gpxtpx:hr>
          </gpxtpx:TrackPointExtension>
        </extensions>
      </trkpt>
      <trkpt lat="46.7898" lon="-1.58964">
        <ele>42.4</ele>
        <time>2024-05-10T07:59:21Z</time>
        <extensions>
          <gpxtpx:TrackPointExtension xmlns:gpxtpx="http://www.garmin.com/xmlschemas/TrackPointExtension/v1">
            <gpxtpx:hr>126</gpxtpx:hr>
          </gpxtpx:TrackPointExtension>
        </extensions>
      </trkpt>
      <trkpt lat="46.7898" lon="-1.58963">
        <ele>42.2</ele>
        <time>2024-05-10T07:59:22Z</time>
        <extensions>
          <gpxtpx:TrackPointExtension xmlns:gpxtpx="http://www.garmin.com/xmlschemas/TrackPointExtension/v1">
            <gpxtpx:hr>126</gpxtpx:hr>
          </gpxtpx:TrackPointExtension>
        </extensions>
      </trkpt>
      <trkpt lat="46.7898" lon="-1.58963">
        <ele>42.2</ele>
        <time>2024-05-10T07:59:23Z</time>
        <extensions>
          <gpxtpx:TrackPointExtension xmlns:gpxtpx="http://www.garmin.com/xmlschemas/TrackPointExtension/v1">
            <gpxtpx:hr>126</gpxtpx:hr>
          </gpxtpx:TrackPointExtension>
        </extensions>
      </trkpt>
      <trkpt lat="46.7898" lon="-1.58963">
        <ele>42</ele>
        <time>2024-05-10T07:59:24Z</time>
        <extensions>
          <gpxtpx:TrackPointExtension xmlns:gpxtpx="http://www.garmin.com/xmlschemas/TrackPointExtension/v1">
            <gpxtpx:hr>126</gpxtpx:hr>
          </gpxtpx:TrackPointExtension>
        </extensions>
      </trkpt>
      <trkpt lat="46.78979" lon="-1.58963">
        <ele>42</ele>
        <time>2024-05-10T07:59:25Z</time>
        <extensions>
          <gpxtpx:TrackPointExtension xmlns:gpxtpx="http://www.garmin.com/xmlschemas/TrackPointExtension/v1">
            <gpxtpx:hr>126</gpxtpx:hr>
          </gpxtpx:TrackPointExtension>
        </extensions>
      </trkpt>
      <trkpt lat="46.78979" lon="-1.58962">
        <ele>42</ele>
        <time>2024-05-10T07:59:26Z</time>
        <extensions>
          <gpxtpx:TrackPointExtension xmlns:gpxtpx="http://www.garmin.com/xmlschemas/TrackPointExtension/v1">
            <gpxtpx:hr>126</gpxtpx:hr>
          </gpxtpx:TrackPointExtension>
        </extensions>
      </trkpt>
      <trkpt lat="46.78979" lon="-1.58962">
        <ele>42</ele>
        <time>2024-05-10T07:59:27Z</time>
        <extensions>
          <gpxtpx:TrackPointExtension xmlns:gpxtpx="http://www.garmin.com/xmlschemas/TrackPointExtension/v1">
            <gpxtpx:hr>125</gpxtpx:hr>
          </gpxtpx:TrackPointExtension>
        </extensions>
      </trkpt>
      <trkpt lat="46.78979" lon="-1.58962">
        <ele>42</ele>
        <time>2024-05-10T07:59:28Z</time>
        <extensions>
          <gpxtpx:TrackPointExtension xmlns:gpxtpx="http://www.garmin.com/xmlschemas/TrackPointExtension/v1">
            <gpxtpx:hr>125</gpxtpx:hr>
          </gpxtpx:TrackPointExtension>
        </extensions>
      </trkpt>
      <trkpt lat="46.78979" lon="-1.58962">
        <ele>41.8</ele>
        <time>2024-05-10T07:59:29Z</time>
        <extensions>
          <gpxtpx:TrackPointExtension xmlns:gpxtpx="http://www.garmin.com/xmlschemas/TrackPointExtension/v1">
            <gpxtpx:hr>126</gpxtpx:hr>
          </gpxtpx:TrackPointExtension>
        </extensions>
      </trkpt>
      <trkpt lat="46.78979" lon="-1.58961">
        <ele>41.8</ele>
        <time>2024-05-10T07:59:30Z</time>
        <extensions>
          <gpxtpx:TrackPointExtension xmlns:gpxtpx="http://www.garmin.com/xmlschemas/TrackPointExtension/v1">
            <gpxtpx:hr>127</gpxtpx:hr>
          </gpxtpx:TrackPointExtension>
        </extensions>
      </trkpt>
      <trkpt lat="46.78976" lon="-1.58962">
        <ele>41.8</ele>
        <time>2024-05-10T07:59:31Z</time>
        <extensions>
          <gpxtpx:TrackPointExtension xmlns:gpxtpx="http://www.garmin.com/xmlschemas/TrackPointExtension/v1">
            <gpxtpx:hr>127</gpxtpx:hr>
          </gpxtpx:TrackPointExtension>
        </extensions>
      </trkpt>
      <trkpt lat="46.78974" lon="-1.58962">
        <ele>41.8</ele>
        <time>2024-05-10T07:59:32Z</time>
        <extensions>
          <gpxtpx:TrackPointExtension xmlns:gpxtpx="http://www.garmin.com/xmlschemas/TrackPointExtension/v1">
            <gpxtpx:hr>128</gpxtpx:hr>
          </gpxtpx:TrackPointExtension>
        </extensions>
      </trkpt>
      <trkpt lat="46.78971" lon="-1.58962">
        <ele>41.8</ele>
        <time>2024-05-10T07:59:33Z</time>
        <extensions>
          <gpxtpx:TrackPointExtension xmlns:gpxtpx="http://www.garmin.com/xmlschemas/TrackPointExtension/v1">
            <gpxtpx:hr>129</gpxtpx:hr>
          </gpxtpx:TrackPointExtension>
        </extensions>
      </trkpt>
      <trkpt lat="46.78968" lon="-1.58962">
        <ele>41.6</ele>
        <time>2024-05-10T07:59:34Z</time>
        <extensions>
          <gpxtpx:TrackPointExtension xmlns:gpxtpx="http://www.garmin.com/xmlschemas/TrackPointExtension/v1">
            <gpxtpx:hr>129</gpxtpx:hr>
          </gpxtpx:TrackPointExtension>
        </extensions>
      </trkpt>
      <trkpt lat="46.78966" lon="-1.58963">
        <ele>41.6</ele>
        <time>2024-05-10T07:59:35Z</time>
        <extensions>
          <gpxtpx:TrackPointExtension xmlns:gpxtpx="http://www.garmin.com/xmlschemas/TrackPointExtension/v1">
            <gpxtpx:hr>129</gpxtpx:hr>
          </gpxtpx:TrackPointExtension>
        </extensions>
      </trkpt>
      <trkpt lat="46.78963" lon="-1.58964">
        <ele>41.4</ele>
        <time>2024-05-10T07:59:36Z</time>
        <extensions>
          <gpxtpx:TrackPointExtension xmlns:gpxtpx="http://www.garmin.com/xmlschemas/TrackPointExtension/v1">
            <gpxtpx:hr>129</gpxtpx:hr>
          </gpxtpx:TrackPointExtension>
        </extensions>
      </trkpt>
      <trkpt lat="46.7896" lon="-1.58965">
        <ele>41.4</ele>
        <time>2024-05-10T07:59:37Z</time>
        <extensions>
          <gpxtpx:TrackPointExtension xmlns:gpxtpx="http://www.garmin.com/xmlschemas/TrackPointExtension/v1">
            <gpxtpx:hr>129</gpxtpx:hr>
          </gpxtpx:TrackPointExtension>
        </extensions>
      </trkpt>
      <trkpt lat="46.78959" lon="-1.58967">
        <ele>41.4</ele>
        <time>2024-05-10T07:59:38Z</time>
        <extensions>
          <gpxtpx:TrackPointExtension xmlns:gpxtpx="http://www.garmin.com/xmlschemas/TrackPointExtension/v1">
            <gpxtpx:hr>129</gpxtpx:hr>
          </gpxtpx:TrackPointExtension>
        </extensions>
      </trkpt>
      <trkpt lat="46.78958" lon="-1.58969">
        <ele>41.4</ele>
        <time>2024-05-10T07:59:39Z</time>
        <extensions>
          <gpxtpx:TrackPointExtension xmlns:gpxtpx="http://www.garmin.com/xmlschemas/TrackPointExtension/v1">
            <gpxtpx:hr>129</gpxtpx:hr>
          </gpxtpx:TrackPointExtension>
        </extensions>
      </trkpt>
      <trkpt lat="46.78957" lon="-1.58972">
        <ele>41.4</ele>
        <time>2024-05-10T07:59:40Z</time>
        <extensions>
          <gpxtpx:TrackPointExtension xmlns:gpxtpx="http://www.garmin.com/xmlschemas/TrackPointExtension/v1">
            <gpxtpx:hr>129</gpxtpx:hr>
          </gpxtpx:TrackPointExtension>
        </extensions>
      </trkpt>
      <trkpt lat="46.78956" lon="-1.58974">
        <ele>41.4</ele>
        <time>2024-05-10T07:59:41Z</time>
        <extensions>
          <gpxtpx:TrackPointExtension xmlns:gpxtpx="http://www.garmin.com/xmlschemas/TrackPointExtension/v1">
            <gpxtpx:hr>130</gpxtpx:hr>
          </gpxtpx:TrackPointExtension>
        </extensions>
      </trkpt>
      <trkpt lat="46.78955" lon="-1.58975">
        <ele>41.4</ele>
        <time>2024-05-10T07:59:42Z</time>
        <extensions>
          <gpxtpx:TrackPointExtension xmlns:gpxtpx="http://www.garmin.com/xmlschemas/TrackPointExtension/v1">
            <gpxtpx:hr>130</gpxtpx:hr>
          </gpxtpx:TrackPointExtension>
        </extensions>
      </trkpt>
      <trkpt lat="46.78953" lon="-1.58976">
        <ele>41.2</ele>
        <time>2024-05-10T07:59:43Z</time>
        <extensions>
          <gpxtpx:TrackPointExtension xmlns:gpxtpx="http://www.garmin.com/xmlschemas/TrackPointExtension/v1">
            <gpxtpx:hr>130</gpxtpx:hr>
          </gpxtpx:TrackPointExtension>
        </extensions>
      </trkpt>
      <trkpt lat="46.7895" lon="-1.58977">
        <ele>41</ele>
        <time>2024-05-10T07:59:44Z</time>
        <extensions>
          <gpxtpx:TrackPointExtension xmlns:gpxtpx="http://www.garmin.com/xmlschemas/TrackPointExtension/v1">
            <gpxtpx:hr>131</gpxtpx:hr>
          </gpxtpx:TrackPointExtension>
        </extensions>
      </trkpt>
      <trkpt lat="46.78948" lon="-1.58978">
        <ele>41</ele>
        <time>2024-05-10T07:59:45Z</time>
        <extensions>
          <gpxtpx:TrackPointExtension xmlns:gpxtpx="http://www.garmin.com/xmlschemas/TrackPointExtension/v1">
            <gpxtpx:hr>130</gpxtpx:hr>
          </gpxtpx:TrackPointExtension>
        </extensions>
      </trkpt>
      <trkpt lat="46.78946" lon="-1.58979">
        <ele>41</ele>
        <time>2024-05-10T07:59:46Z</time>
        <extensions>
          <gpxtpx:TrackPointExtension xmlns:gpxtpx="http://www.garmin.com/xmlschemas/TrackPointExtension/v1">
            <gpxtpx:hr>130</gpxtpx:hr>
          </gpxtpx:TrackPointExtension>
        </extensions>
      </trkpt>
      <trkpt lat="46.78944" lon="-1.58981">
        <ele>40.8</ele>
        <time>2024-05-10T07:59:47Z</time>
        <extensions>
          <gpxtpx:TrackPointExtension xmlns:gpxtpx="http://www.garmin.com/xmlschemas/TrackPointExtension/v1">
            <gpxtpx:hr>130</gpxtpx:hr>
          </gpxtpx:TrackPointExtension>
        </extensions>
      </trkpt>
      <trkpt lat="46.78942" lon="-1.58984">
        <ele>40.8</ele>
        <time>2024-05-10T07:59:48Z</time>
        <extensions>
          <gpxtpx:TrackPointExtension xmlns:gpxtpx="http://www.garmin.com/xmlschemas/TrackPointExtension/v1">
            <gpxtpx:hr>130</gpxtpx:hr>
          </gpxtpx:TrackPointExtension>
        </extensions>
      </trkpt>
      <trkpt lat="46.7894" lon="-1.58987">
        <ele>40.8</ele>
        <time>2024-05-10T07:59:49Z</time>
        <extensions>
          <gpxtpx:TrackPointExtension xmlns:gpxtpx="http://www.garmin.com/xmlschemas/TrackPointExtension/v1">
            <gpxtpx:hr>130</gpxtpx:hr>
          </gpxtpx:TrackPointExtension>
        </extensions>
      </trkpt>
      <trkpt lat="46.78939" lon="-1.58991">
        <ele>41</ele>
        <time>2024-05-10T07:59:50Z</time>
        <extensions>
          <gpxtpx:TrackPointExtension xmlns:gpxtpx="http://www.garmin.com/xmlschemas/TrackPointExtension/v1">
            <gpxtpx:hr>130</gpxtpx:hr>
          </gpxtpx:TrackPointExtension>
        </extensions>
      </trkpt>
      <trkpt lat="46.78939" lon="-1.58994">
        <ele>41.2</ele>
        <time>2024-05-10T07:59:51Z</time>
        <extensions>
          <gpxtpx:TrackPointExtension xmlns:gpxtpx="http://www.garmin.com/xmlschemas/TrackPointExtension/v1">
            <gpxtpx:hr>130</gpxtpx:hr>
          </gpxtpx:TrackPointExtension>
        </extensions>
      </trkpt>
      <trkpt lat="46.78939" lon="-1.58998">
        <ele>41.2</ele>
        <time>2024-05-10T07:59:52Z</time>
        <extensions>
          <gpxtpx:TrackPointExtension xmlns:gpxtpx="http://www.garmin.com/xmlschemas/TrackPointExtension/v1">
            <gpxtpx:hr>130</gpxtpx:hr>
          </gpxtpx:TrackPointExtension>
        </extensions>
      </trkpt>
      <trkpt lat="46.78938" lon="-1.59">
        <ele>41.4</ele>
        <time>2024-05-10T07:59:53Z</time>
        <extensions>
          <gpxtpx:TrackPointExtension xmlns:gpxtpx="http://www.garmin.com/xmlschemas/TrackPointExtension/v1">
            <gpxtpx:hr>131</gpxtpx:hr>
          </gpxtpx:TrackPointExtension>
        </extensions>
      </trkpt>
      <trkpt lat="46.78936" lon="-1.59003">
        <ele>41.4</ele>
        <time>2024-05-10T07:59:55Z</time>
        <extensions>
          <gpxtpx:TrackPointExtension xmlns:gpxtpx="http://www.garmin.com/xmlschemas/TrackPointExtension/v1">
            <gpxtpx:hr>131</gpxtpx:hr>
          </gpxtpx:TrackPointExtension>
        </extensions>
      </trkpt>
      <trkpt lat="46.78934" lon="-1.59004">
        <ele>41.4</ele>
        <time>2024-05-10T07:59:56Z</time>
        <extensions>
          <gpxtpx:TrackPointExtension xmlns:gpxtpx="http://www.garmin.com/xmlschemas/TrackPointExtension/v1">
            <gpxtpx:hr>131</gpxtpx:hr>
          </gpxtpx:TrackPointExtension>
        </extensions>
      </trkpt>
      <trkpt lat="46.78931" lon="-1.59005">
        <ele>41.2</ele>
        <time>2024-05-10T07:59:57Z</time>
        <extensions>
          <gpxtpx:TrackPointExtension xmlns:gpxtpx="http://www.garmin.com/xmlschemas/TrackPointExtension/v1">
            <gpxtpx:hr>131</gpxtpx:hr>
          </gpxtpx:TrackPointExtension>
        </extensions>
      </trkpt>
      <trkpt lat="46.78929" lon="-1.59006">
        <ele>41.2</ele>
        <time>2024-05-10T07:59:58Z</time>
        <extensions>
          <gpxtpx:TrackPointExtension xmlns:gpxtpx="http://www.garmin.com/xmlschemas/TrackPointExtension/v1">
            <gpxtpx:hr>130</gpxtpx:hr>
          </gpxtpx:TrackPointExtension>
        </extensions>
      </trkpt>
      <trkpt lat="46.78927" lon="-1.59009">
        <ele>41.2</ele>
        <time>2024-05-10T07:59:59Z</time>
        <extensions>
          <gpxtpx:TrackPointExtension xmlns:gpxtpx="http://www.garmin.com/xmlschemas/TrackPointExtension/v1">
            <gpxtpx:hr>130</gpxtpx:hr>
          </gpxtpx:TrackPointExtension>
        </extensions>
      </trkpt>
      <trkpt lat="46.78925" lon="-1.59011">
        <ele>41.2</ele>
        <time>2024-05-10T08:00:00Z</time>
        <extensions>
          <gpxtpx:TrackPointExtension xmlns:gpxtpx="http://www.garmin.com/xmlschemas/TrackPointExtension/v1">
            <gpxtpx:hr>130</gpxtpx:hr>
          </gpxtpx:TrackPointExtension>
        </extensions>
      </trkpt>
      <trkpt lat="46.78923" lon="-1.59014">
        <ele>41.2</ele>
        <time>2024-05-10T08:00:01Z</time>
        <extensions>
          <gpxtpx:TrackPointExtension xmlns:gpxtpx="http://www.garmin.com/xmlschemas/TrackPointExtension/v1">
            <gpxtpx:hr>130</gpxtpx:hr>
          </gpxtpx:TrackPointExtension>
        </extensions>
      </trkpt>
      <trkpt lat="46.78921" lon="-1.59015">
        <ele>41</ele>
        <time>2024-05-10T08:00:02Z</time>
        <extensions>
          <gpxtpx:TrackPointExtension xmlns:gpxtpx="http://www.garmin.com/xmlschemas/TrackPointExtension/v1">
            <gpxtpx:hr>130</gpxtpx:hr>
          </gpxtpx:TrackPointExtension>
        </extensions>
      </trkpt>
      <trkpt lat="46.78919" lon="-1.59015">
        <ele>40.8</ele>
        <time>2024-05-10T08:00:03Z</time>
        <extensions>
          <gpxtpx:TrackPointExtension xmlns:gpxtpx="http://www.garmin.com/xmlschemas/TrackPointExtension/v1">
            <gpxtpx:hr>130</gpxtpx:hr>
          </gpxtpx:TrackPointExtension>
        </extensions>
      </trkpt>
      <trkpt lat="46.78916" lon="-1.59013">
        <ele>40.6</ele>
        <time>2024-05-10T08:00:04Z</time>
        <extensions>
          <gpxtpx:TrackPointExtension xmlns:gpxtpx="http://www.garmin.com/xmlschemas/TrackPointExtension/v1">
            <gpxtpx:hr>130</gpxtpx:hr>
          </gpxtpx:TrackPointExtension>
        </extensions>
      </trkpt>
      <trkpt lat="46.78913" lon="-1.59011">
        <ele>40.2</ele>
        <time>2024-05-10T08:00:05Z</time>
        <extensions>
          <gpxtpx:TrackPointExtension xmlns:gpxtpx="http://www.garmin.com/xmlschemas/TrackPointExtension/v1">
            <gpxtpx:hr>130</gpxtpx:hr>
          </gpxtpx:TrackPointExtension>
        </extensions>
      </trkpt>
      <trkpt lat="46.78912" lon="-1.59009">
        <ele>39.8</ele>
        <time>2024-05-10T08:00:06Z</time>
        <extensions>
          <gpxtpx:TrackPointExtension xmlns:gpxtpx="http://www.garmin.com/xmlschemas/TrackPointExtension/v1">
            <gpxtpx:hr>131</gpxtpx:hr>
          </gpxtpx:TrackPointExtension>
        </extensions>
      </trkpt>
      <trkpt lat="46.7891" lon="-1.59007">
        <ele>39.4</ele>
        <time>2024-05-10T08:00:07Z</time>
        <extensions>
          <gpxtpx:TrackPointExtension xmlns:gpxtpx="http://www.garmin.com/xmlschemas/TrackPointExtension/v1">
            <gpxtpx:hr>131</gpxtpx:hr>
          </gpxtpx:TrackPointExtension>
        </extensions>
      </trkpt>
      <trkpt lat="46.78909" lon="-1.59006">
        <ele>39.2</ele>
        <time>2024-05-10T08:00:08Z</time>
        <extensions>
          <gpxtpx:TrackPointExtension xmlns:gpxtpx="http://www.garmin.com/xmlschemas/TrackPointExtension/v1">
            <gpxtpx:hr>132</gpxtpx:hr>
          </gpxtpx:TrackPointExtension>
        </extensions>
      </trkpt>
      <trkpt lat="46.78908" lon="-1.59005">
        <ele>39.2</ele>
        <time>2024-05-10T08:00:09Z</time>
        <extensions>
          <gpxtpx:TrackPointExtension xmlns:gpxtpx="http://www.garmin.com/xmlschemas/TrackPointExtension/v1">
            <gpxtpx:hr>132</gpxtpx:hr>
          </gpxtpx:TrackPointExtension>
        </extensions>
      </trkpt>
      <trkpt lat="46.78908" lon="-1.59005">
        <ele>39.2</ele>
        <time>2024-05-10T08:00:10Z</time>
        <extensions>
          <gpxtpx:TrackPointExtension xmlns:gpxtpx="http://www.garmin.com/xmlschemas/TrackPointExtension/v1">
            <gpxtpx:hr>133</gpxtpx:hr>
          </gpxtpx:TrackPointExtension>
        </extensions>
      </trkpt>
      <trkpt lat="46.78907" lon="-1.59005">
        <ele>39.2</ele>
        <time>2024-05-10T08:00:11Z</time>
        <extensions>
          <gpxtpx:TrackPointExtension xmlns:gpxtpx="http://www.garmin.com/xmlschemas/TrackPointExtension/v1">
            <gpxtpx:hr>134</gpxtpx:hr>
          </gpxtpx:TrackPointExtension>
        </extensions>
      </trkpt>
      <trkpt lat="46.78906" lon="-1.59006">
        <ele>39.2</ele>
        <time>2024-05-10T08:00:12Z</time>
        <extensions>
          <gpxtpx:TrackPointExtension xmlns:gpxtpx="http://www.garmin.com/xmlschemas/TrackPointExtension/v1">
            <gpxtpx:hr>135</gpxtpx:hr>
          </gpxtpx:TrackPointExtension>
        </extensions>
      </trkpt>
      <trkpt lat="46.78906" lon="-1.59007">
        <ele>39.4</ele>
        <time>2024-05-10T08:00:13Z</time>
        <extensions>
          <gpxtpx:TrackPointExtension xmlns:gpxtpx="http://www.garmin.com/xmlschemas/TrackPointExtension/v1">
            <gpxtpx:hr>137</gpxtpx:hr>
          </gpxtpx:TrackPointExtension>
        </extensions>
      </trkpt>
      <trkpt lat="46.78905" lon="-1.59007">
        <ele>39.4</ele>
        <time>2024-05-10T08:00:14Z</time>
        <extensions>
          <gpxtpx:TrackPointExtension xmlns:gpxtpx="http://www.garmin.com/xmlschemas/TrackPointExtension/v1">
            <gpxtpx:hr>137</gpxtpx:hr>
          </gpxtpx:TrackPointExtension>
        </extensions>
      </trkpt>
      <trkpt lat="46.78904" lon="-1.59008">
        <ele>39.4</ele>
        <time>2024-05-10T08:00:15Z</time>
        <extensions>
          <gpxtpx:TrackPointExtension xmlns:gpxtpx="http://www.garmin.com/xmlschemas/TrackPointExtension/v1">
            <gpxtpx:hr>138</gpxtpx:hr>
          </gpxtpx:TrackPointExtension>
        </extensions>
      </trkpt>
      <trkpt lat="46.78903" lon="-1.59008">
        <ele>39.6</ele>
        <time>2024-05-10T08:00:16Z</time>
        <extensions>
          <gpxtpx:TrackPointExtension xmlns:gpxtpx="http://www.garmin.com/xmlschemas/TrackPointExtension/v1">
            <gpxtpx:hr>138</gpxtpx:hr>
          </gpxtpx:TrackPointExtension>
        </extensions>
      </trkpt>
      <trkpt lat="46.78902" lon="-1.59008">
        <ele>39.8</ele>
        <time>2024-05-10T08:00:17Z</time>
        <extensions>
          <gpxtpx:TrackPointExtension xmlns:gpxtpx="http://www.garmin.com/xmlschemas/TrackPointExtension/v1">
            <gpxtpx:hr>140</gpxtpx:hr>
          </gpxtpx:TrackPointExtension>
        </extensions>
      </trkpt>
      <trkpt lat="46.789" lon="-1.59008">
        <ele>40</ele>
        <time>2024-05-10T08:00:18Z</time>
        <extensions>
          <gpxtpx:TrackPointExtension xmlns:gpxtpx="http://www.garmin.com/xmlschemas/TrackPointExtension/v1">
            <gpxtpx:hr>142</gpxtpx:hr>
          </gpxtpx:TrackPointExtension>
        </extensions>
      </trkpt>
      <trkpt lat="46.78899" lon="-1.59008">
        <ele>40</ele>
        <time>2024-05-10T08:00:19Z</time>
        <extensions>
          <gpxtpx:TrackPointExtension xmlns:gpxtpx="http://www.garmin.com/xmlschemas/TrackPointExtension/v1">
            <gpxtpx:hr>143</gpxtpx:hr>
          </gpxtpx:TrackPointExtension>
        </extensions>
      </trkpt>
      <trkpt lat="46.78898" lon="-1.59008">
        <ele>40.2</ele>
        <time>2024-05-10T08:00:20Z</time>
        <extensions>
          <gpxtpx:TrackPointExtension xmlns:gpxtpx="http://www.garmin.com/xmlschemas/TrackPointExtension/v1">
            <gpxtpx:hr>144</gpxtpx:hr>
          </gpxtpx:TrackPointExtension>
        </extensions>
      </trkpt>
      <trkpt lat="46.78896" lon="-1.59008">
        <ele>40.4</ele>
        <time>2024-05-10T08:00:21Z</time>
        <extensions>
          <gpxtpx:TrackPointExtension xmlns:gpxtpx="http://www.garmin.com/xmlschemas/TrackPointExtension/v1">
            <gpxtpx:hr>145</gpxtpx:hr>
          </gpxtpx:TrackPointExtension>
        </extensions>
      </trkpt>
      <trkpt lat="46.78895" lon="-1.59008">
        <ele>40.6</ele>
        <time>2024-05-10T08:00:22Z</time>
        <extensions>
          <gpxtpx:TrackPointExtension xmlns:gpxtpx="http://www.garmin.com/xmlschemas/TrackPointExtension/v1">
            <gpxtpx:hr>146</gpxtpx:hr>
          </gpxtpx:TrackPointExtension>
        </extensions>
      </trkpt>
      <trkpt lat="46.78893" lon="-1.59008">
        <ele>40.8</ele>
        <time>2024-05-10T08:00:23Z</time>
        <extensions>
          <gpxtpx:TrackPointExtension xmlns:gpxtpx="http://www.garmin.com/xmlschemas/TrackPointExtension/v1">
            <gpxtpx:hr>146</gpxtpx:hr>
          </gpxtpx:TrackPointExtension>
        </extensions>
      </trkpt>
      <trkpt lat="46.78891" lon="-1.59008">
        <ele>40.8</ele>
        <time>2024-05-10T08:00:24Z</time>
        <extensions>
          <gpxtpx:TrackPointExtension xmlns:gpxtpx="http://www.garmin.com/xmlschemas/TrackPointExtension/v1">
            <gpxtpx:hr>147</gpxtpx:hr>
          </gpxtpx:TrackPointExtension>
        </extensions>
      </trkpt>
      <trkpt lat="46.78889" lon="-1.59007">
        <ele>41.2</ele>
        <time>2024-05-10T08:00:25Z</time>
        <extensions>
          <gpxtpx:TrackPointExtension xmlns:gpxtpx="http://www.garmin.com/xmlschemas/TrackPointExtension/v1">
            <gpxtpx:hr>147</gpxtpx:hr>
          </gpxtpx:TrackPointExtension>
        </extensions>
      </trkpt>
      <trkpt lat="46.78888" lon="-1.59005">
        <ele>41.4</ele>
        <time>2024-05-10T08:00:26Z</time>
        <extensions>
          <gpxtpx:TrackPointExtension xmlns:gpxtpx="http://www.garmin.com/xmlschemas/TrackPointExtension/v1">
            <gpxtpx:hr>147</gpxtpx:hr>
          </gpxtpx:TrackPointExtension>
        </extensions>
      </trkpt>
      <trkpt lat="46.78886" lon="-1.59003">
        <ele>41.6</ele>
        <time>2024-05-10T08:00:27Z</time>
        <extensions>
          <gpxtpx:TrackPointExtension xmlns:gpxtpx="http://www.garmin.com/xmlschemas/TrackPointExtension/v1">
            <gpxtpx:hr>148</gpxtpx:hr>
          </gpxtpx:TrackPointExtension>
        </extensions>
      </trkpt>
      <trkpt lat="46.78885" lon="-1.59001">
        <ele>41.8</ele>
        <time>2024-05-10T08:00:28Z</time>
        <extensions>
          <gpxtpx:TrackPointExtension xmlns:gpxtpx="http://www.garmin.com/xmlschemas/TrackPointExtension/v1">
            <gpxtpx:hr>148</gpxtpx:hr>
          </gpxtpx:TrackPointExtension>
        </extensions>
      </trkpt>
      <trkpt lat="46.78884" lon="-1.58998">
        <ele>42.2</ele>
        <time>2024-05-10T08:00:29Z</time>
        <extensions>
          <gpxtpx:TrackPointExtension xmlns:gpxtpx="http://www.garmin.com/xmlschemas/TrackPointExtension/v1">
            <gpxtpx:hr>149</gpxtpx:hr>
          </gpxtpx:TrackPointExtension>
        </extensions>
      </trkpt>
      <trkpt lat="46.78883" lon="-1.58996">
        <ele>42.6</ele>
        <time>2024-05-10T08:00:30Z</time>
        <extensions>
          <gpxtpx:TrackPointExtension xmlns:gpxtpx="http://www.garmin.com/xmlschemas/TrackPointExtension/v1">
            <gpxtpx:hr>150</gpxtpx:hr>
          </gpxtpx:TrackPointExtension>
        </extensions>
      </trkpt>
      <trkpt lat="46.78882" lon="-1.58994">
        <ele>42.8</ele>
        <time>2024-05-10T08:00:31Z</time>
        <extensions>
          <gpxtpx:TrackPointExtension xmlns:gpxtpx="http://www.garmin.com/xmlschemas/TrackPointExtension/v1">
            <gpxtpx:hr>150</gpxtpx:hr>
          </gpxtpx:TrackPointExtension>
        </extensions>
      </trkpt>
      <trkpt lat="46.78881" lon="-1.58993">
        <ele>43.2</ele>
        <time>2024-05-10T08:00:32Z</time>
        <extensions>
          <gpxtpx:TrackPointExtension xmlns:gpxtpx="http://www.garmin.com/xmlschemas/TrackPointExtension/v1">
            <gpxtpx:hr>150</gpxtpx:hr>
          </gpxtpx:TrackPointExtension>
        </extensions>
      </trkpt>
      <trkpt lat="46.7888" lon="-1.5899">
        <ele>43.4</ele>
        <time>2024-05-10T08:00:33Z</time>
        <extensions>
          <gpxtpx:TrackPointExtension xmlns:gpxtpx="http://www.garmin.com/xmlschemas/TrackPointExtension/v1">
            <gpxtpx:hr>152</gpxtpx:hr>
          </gpxtpx:TrackPointExtension>
        </extensions>
      </trkpt>
      <trkpt lat="46.78879" lon="-1.58989">
        <ele>43.8</ele>
        <time>2024-05-10T08:00:34Z</time>
        <extensions>
          <gpxtpx:TrackPointExtension xmlns:gpxtpx="http://www.garmin.com/xmlschemas/TrackPointExtension/v1">
            <gpxtpx:hr>152</gpxtpx:hr>
          </gpxtpx:TrackPointExtension>
        </extensions>
      </trkpt>
      <trkpt lat="46.78878" lon="-1.58987">
        <ele>44.2</ele>
        <time>2024-05-10T08:00:35Z</time>
        <extensions>
          <gpxtpx:TrackPointExtension xmlns:gpxtpx="http://www.garmin.com/xmlschemas/TrackPointExtension/v1">
            <gpxtpx:hr>152</gpxtpx:hr>
          </gpxtpx:TrackPointExtension>
        </extensions>
      </trkpt>
      <trkpt lat="46.78877" lon="-1.58985">
        <ele>44.6</ele>
        <time>2024-05-10T08:00:36Z</time>
        <extensions>
          <gpxtpx:TrackPointExtension xmlns:gpxtpx="http://www.garmin.com/xmlschemas/TrackPointExtension/v1">
            <gpxtpx:hr>152</gpxtpx:hr>
          </gpxtpx:TrackPointExtension>
        </extensions>
      </trkpt>
      <trkpt lat="46.78875" lon="-1.58984">
        <ele>44.8</ele>
        <time>2024-05-10T08:00:37Z</time>
        <extensions>
          <gpxtpx:TrackPointExtension xmlns:gpxtpx="http://www.garmin.com/xmlschemas/TrackPointExtension/v1">
            <gpxtpx:hr>153</gpxtpx:hr>
          </gpxtpx:TrackPointExtension>
        </extensions>
      </trkpt>
      <trkpt lat="46.78874" lon="-1.58982">
        <ele>45.2</ele>
        <time>2024-05-10T08:00:38Z</time>
        <extensions>
          <gpxtpx:TrackPointExtension xmlns:gpxtpx="http://www.garmin.com/xmlschemas/TrackPointExtension/v1">
            <gpxtpx:hr>154</gpxtpx:hr>
          </gpxtpx:TrackPointExtension>
        </extensions>
      </trkpt>
      <trkpt lat="46.78873" lon="-1.58979">
        <ele>45.6</ele>
        <time>2024-05-10T08:00:39Z</time>
        <extensions>
          <gpxtpx:TrackPointExtension xmlns:gpxtpx="http://www.garmin.com/xmlschemas/TrackPointExtension/v1">
            <gpxtpx:hr>154</gpxtpx:hr>
          </gpxtpx:TrackPointExtension>
        </extensions>
      </trkpt>
      <trkpt lat="46.78872" lon="-1.58977">
        <ele>45.8</ele>
        <time>2024-05-10T08:00:40Z</time>
        <extensions>
          <gpxtpx:TrackPointExtension xmlns:gpxtpx="http://www.garmin.com/xmlschemas/TrackPointExtension/v1">
            <gpxtpx:hr>154</gpxtpx:hr>
          </gpxtpx:TrackPointExtension>
        </extensions>
      </trkpt>
      <trkpt lat="46.78872" lon="-1.58974">
        <ele>46.2</ele>
        <time>2024-05-10T08:00:41Z</time>
        <extensions>
          <gpxtpx:TrackPointExtension xmlns:gpxtpx="http://www.garmin.com/xmlschemas/TrackPointExtension/v1">
            <gpxtpx:hr>156</gpxtpx:hr>
          </gpxtpx:TrackPointExtension>
        </extensions>
      </trkpt>
      <trkpt lat="46.78871" lon="-1.58971">
        <ele>46.6</ele>
        <time>2024-05-10T08:00:42Z</time>
        <extensions>
          <gpxtpx:TrackPointExtension xmlns:gpxtpx="http://www.garmin.com/xmlschemas/TrackPointExtension/v1">
            <gpxtpx:hr>156</gpxtpx:hr>
          </gpxtpx:TrackPointExtension>
        </extensions>
      </trkpt>
      <trkpt lat="46.7887" lon="-1.58968">
        <ele>47</ele>
        <time>2024-05-10T08:00:43Z</time>
        <extensions>
          <gpxtpx:TrackPointExtension xmlns:gpxtpx="http://www.garmin.com/xmlschemas/TrackPointExtension/v1">
            <gpxtpx:hr>157</gpxtpx:hr>
          </gpxtpx:TrackPointExtension>
        </extensions>
      </trkpt>
      <trkpt lat="46.7887" lon="-1.58965">
        <ele>47.2</ele>
        <time>2024-05-10T08:00:44Z</time>
        <extensions>
          <gpxtpx:TrackPointExtension xmlns:gpxtpx="http://www.garmin.com/xmlschemas/TrackPointExtension/v1">
            <gpxtpx:hr>157</gpxtpx:hr>
          </gpxtpx:TrackPointExtension>
        </extensions>
      </trkpt>
      <trkpt lat="46.78869" lon="-1.58962">
        <ele>47.6</ele>
        <time>2024-05-10T08:00:45Z</time>
        <extensions>
          <gpxtpx:TrackPointExtension xmlns:gpxtpx="http://www.garmin.com/xmlschemas/TrackPointExtension/v1">
            <gpxtpx:hr>158</gpxtpx:hr>
          </gpxtpx:TrackPointExtension>
        </extensions>
      </trkpt>
      <trkpt lat="46.7887" lon="-1.58961">
        <ele>47.8</ele>
        <time>2024-05-10T08:00:46Z</time>
        <extensions>
          <gpxtpx:TrackPointExtension xmlns:gpxtpx="http://www.garmin.com/xmlschemas/TrackPointExtension/v1">
            <gpxtpx:hr>158</gpxtpx:hr>
          </gpxtpx:TrackPointExtension>
        </extensions>
      </trkpt>
      <trkpt lat="46.7887" lon="-1.58961">
        <ele>47.8</ele>
        <time>2024-05-10T08:00:47Z</time>
        <extensions>
          <gpxtpx:TrackPointExtension xmlns:gpxtpx="http://www.garmin.com/xmlschemas/TrackPointExtension/v1">
            <gpxtpx:hr>159</gpxtpx:hr>
          </gpxtpx:TrackPointExtension>
        </extensions>
      </trkpt>
      <trkpt lat="46.7887" lon="-1.5896">
        <ele>48</ele>
        <time>2024-05-10T08:00:48Z</time>
        <extensions>
          <gpxtpx:TrackPointExtension xmlns:gpxtpx="http://www.garmin.com/xmlschemas/TrackPointExtension/v1">
            <gpxtpx:hr>159</gpxtpx:hr>
          </gpxtpx:TrackPointExtension>
        </extensions>
      </trkpt>
      <trkpt lat="46.78871" lon="-1.58961">
        <ele>47.8</ele>
        <time>2024-05-10T08:00:49Z</time>
        <extensions>
          <gpxtpx:TrackPointExtension xmlns:gpxtpx="http://www.garmin.com/xmlschemas/TrackPointExtension/v1">
            <gpxtpx:hr>160</gpxtpx:hr>
          </gpxtpx:TrackPointExtension>
        </extensions>
      </trkpt>
      <trkpt lat="46.78872" lon="-1.58963">
        <ele>47.8</ele>
        <time>2024-05-10T08:00:50Z</time>
        <extensions>
          <gpxtpx:TrackPointExtension xmlns:gpxtpx="http://www.garmin.com/xmlschemas/TrackPointExtension/v1">
            <gpxtpx:hr>160</gpxtpx:hr>
          </gpxtpx:TrackPointExtension>
        </extensions>
      </trkpt>
      <trkpt lat="46.78873" lon="-1.58966">
        <ele>47.6</ele>
        <time>2024-05-10T08:00:51Z</time>
        <extensions>
          <gpxtpx:TrackPointExtension xmlns:gpxtpx="http://www.garmin.com/xmlschemas/TrackPointExtension/v1">
            <gpxtpx:hr>160</gpxtpx:hr>
          </gpxtpx:TrackPointExtension>
        </extensions>
      </trkpt>
      <trkpt lat="46.78875" lon="-1.58968">
        <ele>47.4</ele>
        <time>2024-05-10T08:00:52Z</time>
        <extensions>
          <gpxtpx:TrackPointExtension xmlns:gpxtpx="http://www.garmin.com/xmlschemas/TrackPointExtension/v1">
            <gpxtpx:hr>159</gpxtpx:hr>
          </gpxtpx:TrackPointExtension>
        </extensions>
      </trkpt>
      <trkpt lat="46.78876" lon="-1.58968">
        <ele>47.2</ele>
        <time>2024-05-10T08:00:53Z</time>
        <extensions>
          <gpxtpx:TrackPointExtension xmlns:gpxtpx="http://www.garmin.com/xmlschemas/TrackPointExtension/v1">
            <gpxtpx:hr>159</gpxtpx:hr>
          </gpxtpx:TrackPointExtension>
        </extensions>
      </trkpt>
      <trkpt lat="46.78878" lon="-1.58968">
        <ele>47.2</ele>
        <time>2024-05-10T08:00:54Z</time>
        <extensions>
          <gpxtpx:TrackPointExtension xmlns:gpxtpx="http://www.garmin.com/xmlschemas/TrackPointExtension/v1">
            <gpxtpx:hr>159</gpxtpx:hr>
          </gpxtpx:TrackPointExtension>
        </extensions>
      </trkpt>
      <trkpt lat="46.7888" lon="-1.58967">
        <ele>47</ele>
        <time>2024-05-10T08:00:55Z</time>
        <extensions>
          <gpxtpx:TrackPointExtension xmlns:gpxtpx="http://www.garmin.com/xmlschemas/TrackPointExtension/v1">
            <gpxtpx:hr>159</gpxtpx:hr>
          </gpxtpx:TrackPointExtension>
        </extensions>
      </trkpt>
      <trkpt lat="46.78882" lon="-1.58967">
        <ele>46.8</ele>
        <time>2024-05-10T08:00:56Z</time>
        <extensions>
          <gpxtpx:TrackPointExtension xmlns:gpxtpx="http://www.garmin.com/xmlschemas/TrackPointExtension/v1">
            <gpxtpx:hr>159</gpxtpx:hr>
          </gpxtpx:TrackPointExtension>
        </extensions>
      </trkpt>
      <trkpt lat="46.78883" lon="-1.58966">
        <ele>46.8</ele>
        <time>2024-05-10T08:00:57Z</time>
        <extensions>
          <gpxtpx:TrackPointExtension xmlns:gpxtpx="http://www.garmin.com/xmlschemas/TrackPointExtension/v1">
            <gpxtpx:hr>159</gpxtpx:hr>
          </gpxtpx:TrackPointExtension>
        </extensions>
      </trkpt>
      <trkpt lat="46.78884" lon="-1.58963">
        <ele>46.8</ele>
        <time>2024-05-10T08:00:58Z</time>
        <extensions>
          <gpxtpx:TrackPointExtension xmlns:gpxtpx="http://www.garmin.com/xmlschemas/TrackPointExtension/v1">
            <gpxtpx:hr>160</gpxtpx:hr>
          </gpxtpx:TrackPointExtension>
        </extensions>
      </trkpt>
      <trkpt lat="46.78885" lon="-1.58961">
        <ele>47</ele>
        <time>2024-05-10T08:00:59Z</time>
        <extensions>
          <gpxtpx:TrackPointExtension xmlns:gpxtpx="http://www.garmin.com/xmlschemas/TrackPointExtension/v1">
            <gpxtpx:hr>160</gpxtpx:hr>
          </gpxtpx:TrackPointExtension>
        </extensions>
      </trkpt>
      <trkpt lat="46.78885" lon="-1.58959">
        <ele>47.2</ele>
        <time>2024-05-10T08:01:00Z</time>
        <extensions>
          <gpxtpx:TrackPointExtension xmlns:gpxtpx="http://www.garmin.com/xmlschemas/TrackPointExtension/v1">
            <gpxtpx:hr>160</gpxtpx:hr>
          </gpxtpx:TrackPointExtension>
        </extensions>
      </trkpt>
      <trkpt lat="46.78885" lon="-1.58956">
        <ele>47.2</ele>
        <time>2024-05-10T08:01:01Z</time>
        <extensions>
          <gpxtpx:TrackPointExtension xmlns:gpxtpx="http://www.garmin.com/xmlschemas/TrackPointExtension/v1">
            <gpxtpx:hr>160</gpxtpx:hr>
          </gpxtpx:TrackPointExtension>
        </extensions>
      </trkpt>
      <trkpt lat="46.78886" lon="-1.58954">
        <ele>47.2</ele>
        <time>2024-05-10T08:01:02Z</time>
        <extensions>
          <gpxtpx:TrackPointExtension xmlns:gpxtpx="http://www.garmin.com/xmlschemas/TrackPointExtension/v1">
            <gpxtpx:hr>159</gpxtpx:hr>
          </gpxtpx:TrackPointExtension>
        </extensions>
      </trkpt>
      <trkpt lat="46.78887" lon="-1.58952">
        <ele>47.2</ele>
        <time>2024-05-10T08:01:03Z</time>
        <extensions>
          <gpxtpx:TrackPointExtension xmlns:gpxtpx="http://www.garmin.com/xmlschemas/TrackPointExtension/v1">
            <gpxtpx:hr>160</gpxtpx:hr>
          </gpxtpx:TrackPointExtension>
        </extensions>
      </trkpt>
      <trkpt lat="46.78889" lon="-1.5895">
        <ele>47.2</ele>
        <time>2024-05-10T08:01:04Z</time>
        <extensions>
          <gpxtpx:TrackPointExtension xmlns:gpxtpx="http://www.garmin.com/xmlschemas/TrackPointExtension/v1">
            <gpxtpx:hr>159</gpxtpx:hr>
          </gpxtpx:TrackPointExtension>
        </extensions>
      </trkpt>
      <trkpt lat="46.78891" lon="-1.58949">
        <ele>47.2</ele>
        <time>2024-05-10T08:01:05Z</time>
        <extensions>
          <gpxtpx:TrackPointExtension xmlns:gpxtpx="http://www.garmin.com/xmlschemas/TrackPointExtension/v1">
            <gpxtpx:hr>159</gpxtpx:hr>
          </gpxtpx:TrackPointExtension>
        </extensions>
      </trkpt>
      <trkpt lat="46.78892" lon="-1.58948">
        <ele>47.2</ele>
        <time>2024-05-10T08:01:06Z</time>
        <extensions>
          <gpxtpx:TrackPointExtension xmlns:gpxtpx="http://www.garmin.com/xmlschemas/TrackPointExtension/v1">
            <gpxtpx:hr>159</gpxtpx:hr>
          </gpxtpx:TrackPointExtension>
        </extensions>
      </trkpt>
      <trkpt lat="46.78893" lon="-1.58949">
        <ele>47</ele>
        <time>2024-05-10T08:01:07Z</time>
        <extensions>
          <gpxtpx:TrackPointExtension xmlns:gpxtpx="http://www.garmin.com/xmlschemas/TrackPointExtension/v1">
            <gpxtpx:hr>159</gpxtpx:hr>
          </gpxtpx:TrackPointExtension>
        </extensions>
      </trkpt>
      <trkpt lat="46.78894" lon="-1.58951">
        <ele>46.8</ele>
        <time>2024-05-10T08:01:08Z</time>
        <extensions>
          <gpxtpx:TrackPointExtension xmlns:gpxtpx="http://www.garmin.com/xmlschemas/TrackPointExtension/v1">
            <gpxtpx:hr>158</gpxtpx:hr>
          </gpxtpx:TrackPointExtension>
        </extensions>
      </trkpt>
      <trkpt lat="46.78894" lon="-1.58953">
        <ele>46.6</ele>
        <time>2024-05-10T08:01:09Z</time>
        <extensions>
          <gpxtpx:TrackPointExtension xmlns:gpxtpx="http://www.garmin.com/xmlschemas/TrackPointExtension/v1">
            <gpxtpx:hr>158</gpxtpx:hr>
          </gpxtpx:TrackPointExtension>
        </extensions>
      </trkpt>
      <trkpt lat="46.78895" lon="-1.58956">
        <ele>46.4</ele>
        <time>2024-05-10T08:01:10Z</time>
        <extensions>
          <gpxtpx:TrackPointExtension xmlns:gpxtpx="http://www.garmin.com/xmlschemas/TrackPointExtension/v1">
            <gpxtpx:hr>157</gpxtpx:hr>
          </gpxtpx:TrackPointExtension>
        </extensions>
      </trkpt>
      <trkpt lat="46.78895" lon="-1.58959">
        <ele>46</ele>
        <time>2024-05-10T08:01:11Z</time>
        <extensions>
          <gpxtpx:TrackPointExtension xmlns:gpxtpx="http://www.garmin.com/xmlschemas/TrackPointExtension/v1">
            <gpxtpx:hr>157</gpxtpx:hr>
          </gpxtpx:TrackPointExtension>
        </extensions>
      </trkpt>
      <trkpt lat="46.78896" lon="-1.58963">
        <ele>45.6</ele>
        <time>2024-05-10T08:01:12Z</time>
        <extensions>
          <gpxtpx:TrackPointExtension xmlns:gpxtpx="http://www.garmin.com/xmlschemas/TrackPointExtension/v1">
            <gpxtpx:hr>157</gpxtpx:hr>
          </gpxtpx:TrackPointExtension>
        </extensions>
      </trkpt>
      <trkpt lat="46.78898" lon="-1.58966">
        <ele>45.2</ele>
        <time>2024-05-10T08:01:13Z</time>
        <extensions>
          <gpxtpx:TrackPointExtension xmlns:gpxtpx="http://www.garmin.com/xmlschemas/TrackPointExtension/v1">
            <gpxtpx:hr>156</gpxtpx:hr>
          </gpxtpx:TrackPointExtension>
        </extensions>
      </trkpt>
      <trkpt lat="46.78899" lon="-1.5897">
        <ele>44.6</ele>
        <time>2024-05-10T08:01:14Z</time>
        <extensions>
          <gpxtpx:TrackPointExtension xmlns:gpxtpx="http://www.garmin.com/xmlschemas/TrackPointExtension/v1">
            <gpxtpx:hr>157</gpxtpx:hr>
          </gpxtpx:TrackPointExtension>
        </extensions>
      </trkpt>
      <trkpt lat="46.78901" lon="-1.58974">
        <ele>44.2</ele>
        <time>2024-05-10T08:01:15Z</time>
        <extensions>
          <gpxtpx:TrackPointExtension xmlns:gpxtpx="http://www.garmin.com/xmlschemas/TrackPointExtension/v1">
            <gpxtpx:hr>156</gpxtpx:hr>
          </gpxtpx:TrackPointExtension>
        </extensions>
      </trkpt>
      <trkpt lat="46.78902" lon="-1.58978">
        <ele>43.6</ele>
        <time>2024-05-10T08:01:16Z</time>
        <extensions>
          <gpxtpx:TrackPointExtension xmlns:gpxtpx="http://www.garmin.com/xmlschemas/TrackPointExtension/v1">
            <gpxtpx:hr>155</gpxtpx:hr>
          </gpxtpx:TrackPointExtension>
        </extensions>
      </trkpt>
      <trkpt lat="46.78903" lon="-1.58982">
        <ele>43</ele>
        <time>2024-05-10T08:01:17Z</time>
        <extensions>
          <gpxtpx:TrackPointExtension xmlns:gpxtpx="http://www.garmin.com/xmlschemas/TrackPointExtension/v1">
            <gpxtpx:hr>154</gpxtpx:hr>
          </gpxtpx:TrackPointExtension>
        </extensions>
      </trkpt>
      <trkpt lat="46.78904" lon="-1.58985">
        <ele>42.6</ele>
        <time>2024-05-10T08:01:18Z</time>
        <extensions>
          <gpxtpx:TrackPointExtension xmlns:gpxtpx="http://www.garmin.com/xmlschemas/TrackPointExtension/v1">
            <gpxtpx:hr>154</gpxtpx:hr>
          </gpxtpx:TrackPointExtension>
        </extensions>
      </trkpt>
      <trkpt lat="46.78905" lon="-1.58987">
        <ele>42</ele>
        <time>2024-05-10T08:01:19Z</time>
        <extensions>
          <gpxtpx:TrackPointExtension xmlns:gpxtpx="http://www.garmin.com/xmlschemas/TrackPointExtension/v1">
            <gpxtpx:hr>153</gpxtpx:hr>
          </gpxtpx:TrackPointExtension>
        </extensions>
      </trkpt>
      <trkpt lat="46.78907" lon="-1.58987">
        <ele>41.8</ele>
        <time>2024-05-10T08:01:20Z</time>
        <extensions>
          <gpxtpx:TrackPointExtension xmlns:gpxtpx="http://www.garmin.com/xmlschemas/TrackPointExtension/v1">
            <gpxtpx:hr>153</gpxtpx:hr>
          </gpxtpx:TrackPointExtension>
        </extensions>
      </trkpt>
      <trkpt lat="46.78908" lon="-1.58987">
        <ele>41.4</ele>
        <time>2024-05-10T08:01:21Z</time>
        <extensions>
          <gpxtpx:TrackPointExtension xmlns:gpxtpx="http://www.garmin.com/xmlschemas/TrackPointExtension/v1">
            <gpxtpx:hr>152</gpxtpx:hr>
          </gpxtpx:TrackPointExtension>
        </extensions>
      </trkpt>
      <trkpt lat="46.78909" lon="-1.58985">
        <ele>41.4</ele>
        <time>2024-05-10T08:01:22Z</time>
        <extensions>
          <gpxtpx:TrackPointExtension xmlns:gpxtpx="http://www.garmin.com/xmlschemas/TrackPointExtension/v1">
            <gpxtpx:hr>152</gpxtpx:hr>
          </gpxtpx:TrackPointExtension>
        </extensions>
      </trkpt>
      <trkpt lat="46.7891" lon="-1.58984">
        <ele>41.4</ele>
        <time>2024-05-10T08:01:23Z</time>
        <extensions>
          <gpxtpx:TrackPointExtension xmlns:gpxtpx="http://www.garmin.com/xmlschemas/TrackPointExtension/v1">
            <gpxtpx:hr>152</gpxtpx:hr>
          </gpxtpx:TrackPointExtension>
        </extensions>
      </trkpt>
      <trkpt lat="46.7891" lon="-1.58982">
        <ele>41.4</ele>
        <time>2024-05-10T08:01:24Z</time>
        <extensions>
          <gpxtpx:TrackPointExtension xmlns:gpxtpx="http://www.garmin.com/xmlschemas/TrackPointExtension/v1">
            <gpxtpx:hr>151</gpxtpx:hr>
          </gpxtpx:TrackPointExtension>
        </extensions>
      </trkpt>
      <trkpt lat="46.78911" lon="-1.58979">
        <ele>41.4</ele>
        <time>2024-05-10T08:01:25Z</time>
        <extensions>
          <gpxtpx:TrackPointExtension xmlns:gpxtpx="http://www.garmin.com/xmlschemas/TrackPointExtension/v1">
            <gpxtpx:hr>151</gpxtpx:hr>
          </gpxtpx:TrackPointExtension>
        </extensions>
      </trkpt>
      <trkpt lat="46.78911" lon="-1.58977">
        <ele>41.4</ele>
        <time>2024-05-10T08:01:26Z</time>
        <extensions>
          <gpxtpx:TrackPointExtension xmlns:gpxtpx="http://www.garmin.com/xmlschemas/TrackPointExtension/v1">
            <gpxtpx:hr>151</gpxtpx:hr>
          </gpxtpx:TrackPointExtension>
        </extensions>
      </trkpt>
      <trkpt lat="46.78912" lon="-1.58976">
        <ele>41.2</ele>
        <time>2024-05-10T08:01:27Z</time>
        <extensions>
          <gpxtpx:TrackPointExtension xmlns:gpxtpx="http://www.garmin.com/xmlschemas/TrackPointExtension/v1">
            <gpxtpx:hr>151</gpxtpx:hr>
          </gpxtpx:TrackPointExtension>
        </extensions>
      </trkpt>
      <trkpt lat="46.78913" lon="-1.58976">
        <ele>40.8</ele>
        <time>2024-05-10T08:01:28Z</time>
        <extensions>
          <gpxtpx:TrackPointExtension xmlns:gpxtpx="http://www.garmin.com/xmlschemas/TrackPointExtension/v1">
            <gpxtpx:hr>149</gpxtpx:hr>
          </gpxtpx:TrackPointExtension>
        </extensions>
      </trkpt>
      <trkpt lat="46.78913" lon="-1.58976">
        <ele>40.6</ele>
        <time>2024-05-10T08:01:29Z</time>
        <extensions>
          <gpxtpx:TrackPointExtension xmlns:gpxtpx="http://www.garmin.com/xmlschemas/TrackPointExtension/v1">
            <gpxtpx:hr>149</gpxtpx:hr>
          </gpxtpx:TrackPointExtension>
        </extensions>
      </trkpt>
      <trkpt lat="46.78914" lon="-1.58976">
        <ele>40.4</ele>
        <time>2024-05-10T08:01:30Z</time>
        <extensions>
          <gpxtpx:TrackPointExtension xmlns:gpxtpx="http://www.garmin.com/xmlschemas/TrackPointExtension/v1">
            <gpxtpx:hr>148</gpxtpx:hr>
          </gpxtpx:TrackPointExtension>
        </extensions>
      </trkpt>
      <trkpt lat="46.78916" lon="-1.58976">
        <ele>40.2</ele>
        <time>2024-05-10T08:01:31Z</time>
        <extensions>
          <gpxtpx:TrackPointExtension xmlns:gpxtpx="http://www.garmin.com/xmlschemas/TrackPointExtension/v1">
            <gpxtpx:hr>147</gpxtpx:hr>
          </gpxtpx:TrackPointExtension>
        </extensions>
      </trkpt>
      <trkpt lat="46.78917" lon="-1.58976">
        <ele>40.2</ele>
        <time>2024-05-10T08:01:32Z</time>
        <extensions>
          <gpxtpx:TrackPointExtension xmlns:gpxtpx="http://www.garmin.com/xmlschemas/TrackPointExtension/v1">
            <gpxtpx:hr>147</gpxtpx:hr>
          </gpxtpx:TrackPointExtension>
        </extensions>
      </trkpt>
      <trkpt lat="46.7892" lon="-1.58974">
        <ele>40.2</ele>
        <time>2024-05-10T08:01:33Z</time>
        <extensions>
          <gpxtpx:TrackPointExtension xmlns:gpxtpx="http://www.garmin.com/xmlschemas/TrackPointExtension/v1">
            <gpxtpx:hr>147</gpxtpx:hr>
          </gpxtpx:TrackPointExtension>
        </extensions>
      </trkpt>
      <trkpt lat="46.78921" lon="-1.58973">
        <ele>40.4</ele>
        <time>2024-05-10T08:01:34Z</time>
        <extensions>
          <gpxtpx:TrackPointExtension xmlns:gpxtpx="http://www.garmin.com/xmlschemas/TrackPointExtension/v1">
            <gpxtpx:hr>148</gpxtpx:hr>
          </gpxtpx:TrackPointExtension>
        </extensions>
      </trkpt>
      <trkpt lat="46.78923" lon="-1.5897">
        <ele>40.6</ele>
        <time>2024-05-10T08:01:35Z</time>
        <extensions>
          <gpxtpx:TrackPointExtension xmlns:gpxtpx="http://www.garmin.com/xmlschemas/TrackPointExtension/v1">
            <gpxtpx:hr>148</gpxtpx:hr>
          </gpxtpx:TrackPointExtension>
        </extensions>
      </trkpt>
      <trkpt lat="46.78924" lon="-1.58968">
        <ele>40.6</ele>
        <time>2024-05-10T08:01:36Z</time>
        <extensions>
          <gpxtpx:TrackPointExtension xmlns:gpxtpx="http://www.garmin.com/xmlschemas/TrackPointExtension/v1">
            <gpxtpx:hr>148</gpxtpx:hr>
          </gpxtpx:TrackPointExtension>
        </extensions>
      </trkpt>
      <trkpt lat="46.78925" lon="-1.58966">
        <ele>40.8</ele>
        <time>2024-05-10T08:01:37Z</time>
        <extensions>
          <gpxtpx:TrackPointExtension xmlns:gpxtpx="http://www.garmin.com/xmlschemas/TrackPointExtension/v1">
            <gpxtpx:hr>148</gpxtpx:hr>
          </gpxtpx:TrackPointExtension>
        </extensions>
      </trkpt>
      <trkpt lat="46.78926" lon="-1.58964">
        <ele>40.8</ele>
        <time>2024-05-10T08:01:38Z</time>
        <extensions>
          <gpxtpx:TrackPointExtension xmlns:gpxtpx="http://www.garmin.com/xmlschemas/TrackPointExtension/v1">
            <gpxtpx:hr>148</gpxtpx:hr>
          </gpxtpx:TrackPointExtension>
        </extensions>
      </trkpt>
      <trkpt lat="46.78928" lon="-1.58962">
        <ele>41</ele>
        <time>2024-05-10T08:01:39Z</time>
        <extensions>
          <gpxtpx:TrackPointExtension xmlns:gpxtpx="http://www.garmin.com/xmlschemas/TrackPointExtension/v1">
            <gpxtpx:hr>149</gpxtpx:hr>
          </gpxtpx:TrackPointExtension>
        </extensions>
      </trkpt>
      <trkpt lat="46.78929" lon="-1.5896">
        <ele>41.2</ele>
        <time>2024-05-10T08:01:40Z</time>
        <extensions>
          <gpxtpx:TrackPointExtension xmlns:gpxtpx="http://www.garmin.com/xmlschemas/TrackPointExtension/v1">
            <gpxtpx:hr>149</gpxtpx:hr>
          </gpxtpx:TrackPointExtension>
        </extensions>
      </trkpt>
      <trkpt lat="46.78931" lon="-1.58958">
        <ele>41.2</ele>
        <time>2024-05-10T08:01:42Z</time>
        <extensions>
          <gpxtpx:TrackPointExtension xmlns:gpxtpx="http://www.garmin.com/xmlschemas/TrackPointExtension/v1">
            <gpxtpx:hr>149</gpxtpx:hr>
          </gpxtpx:TrackPointExtension>
        </extensions>
      </trkpt>
      <trkpt lat="46.78932" lon="-1.58956">
        <ele>41.4</ele>
        <time>2024-05-10T08:01:43Z</time>
        <extensions>
          <gpxtpx:TrackPointExtension xmlns:gpxtpx="http://www.garmin.com/xmlschemas/TrackPointExtension/v1">
            <gpxtpx:hr>149</gpxtpx:hr>
          </gpxtpx:TrackPointExtension>
        </extensions>
      </trkpt>
      <trkpt lat="46.78934" lon="-1.58954">
        <ele>41.6</ele>
        <time>2024-05-10T08:01:44Z</time>
        <extensions>
          <gpxtpx:TrackPointExtension xmlns:gpxtpx="http://www.garmin.com/xmlschemas/TrackPointExtension/v1">
            <gpxtpx:hr>150</gpxtpx:hr>
          </gpxtpx:TrackPointExtension>
        </extensions>
      </trkpt>
      <trkpt lat="46.78935" lon="-1.58953">
        <ele>41.4</ele>
        <time>2024-05-10T08:01:45Z</time>
        <extensions>
          <gpxtpx:TrackPointExtension xmlns:gpxtpx="http://www.garmin.com/xmlschemas/TrackPointExtension/v1">
            <gpxtpx:hr>150</gpxtpx:hr>
          </gpxtpx:TrackPointExtension>
        </extensions>
      </trkpt>
      <trkpt lat="46.78937" lon="-1.58954">
        <ele>41.2</ele>
        <time>2024-05-10T08:01:46Z</time>
        <extensions>
          <gpxtpx:TrackPointExtension xmlns:gpxtpx="http://www.garmin.com/xmlschemas/TrackPointExtension/v1">
            <gpxtpx:hr>151</gpxtpx:hr>
          </gpxtpx:TrackPointExtension>
        </extensions>
      </trkpt>
      <trkpt lat="46.78939" lon="-1.58956">
        <ele>41.2</ele>
        <time>2024-05-10T08:01:47Z</time>
        <extensions>
          <gpxtpx:TrackPointExtension xmlns:gpxtpx="http://www.garmin.com/xmlschemas/TrackPointExtension/v1">
            <gpxtpx:hr>151</gpxtpx:hr>
          </gpxtpx:TrackPointExtension>
        </extensions>
      </trkpt>
      <trkpt lat="46.7894" lon="-1.58958">
        <ele>41</ele>
        <time>2024-05-10T08:01:48Z</time>
        <extensions>
          <gpxtpx:TrackPointExtension xmlns:gpxtpx="http://www.garmin.com/xmlschemas/TrackPointExtension/v1">
            <gpxtpx:hr>151</gpxtpx:hr>
          </gpxtpx:TrackPointExtension>
        </extensions>
      </trkpt>
      <trkpt lat="46.78943" lon="-1.58959">
        <ele>41</ele>
        <time>2024-05-10T08:01:49Z</time>
        <extensions>
          <gpxtpx:TrackPointExtension xmlns:gpxtpx="http://www.garmin.com/xmlschemas/TrackPointExtension/v1">
            <gpxtpx:hr>151</gpxtpx:hr>
          </gpxtpx:TrackPointExtension>
        </extensions>
      </trkpt>
      <trkpt lat="46.78945" lon="-1.58959">
        <ele>41</ele>
        <time>2024-05-10T08:01:50Z</time>
        <extensions>
          <gpxtpx:TrackPointExtension xmlns:gpxtpx="http://www.garmin.com/xmlschemas/TrackPointExtension/v1">
            <gpxtpx:hr>151</gpxtpx:hr>
          </gpxtpx:TrackPointExtension>
        </extensions>
      </trkpt>
      <trkpt lat="46.78947" lon="-1.58957">
        <ele>41</ele>
        <time>2024-05-10T08:01:51Z</time>
        <extensions>
          <gpxtpx:TrackPointExtension xmlns:gpxtpx="http://www.garmin.com/xmlschemas/TrackPointExtension/v1">
            <gpxtpx:hr>150</gpxtpx:hr>
          </gpxtpx:TrackPointExtension>
        </extensions>
      </trkpt>
      <trkpt lat="46.78948" lon="-1.58955">
        <ele>41</ele>
        <time>2024-05-10T08:01:52Z</time>
        <extensions>
          <gpxtpx:TrackPointExtension xmlns:gpxtpx="http://www.garmin.com/xmlschemas/TrackPointExtension/v1">
            <gpxtpx:hr>151</gpxtpx:hr>
          </gpxtpx:TrackPointExtension>
        </extensions>
      </trkpt>
      <trkpt lat="46.78949" lon="-1.58952">
        <ele>41</ele>
        <time>2024-05-10T08:01:53Z</time>
        <extensions>
          <gpxtpx:TrackPointExtension xmlns:gpxtpx="http://www.garmin.com/xmlschemas/TrackPointExtension/v1">
            <gpxtpx:hr>152</gpxtpx:hr>
          </gpxtpx:TrackPointExtension>
        </extensions>
      </trkpt>
      <trkpt lat="46.78949" lon="-1.58949">
        <ele>41.2</ele>
        <time>2024-05-10T08:01:54Z</time>
        <extensions>
          <gpxtpx:TrackPointExtension xmlns:gpxtpx="http://www.garmin.com/xmlschemas/TrackPointExtension/v1">
            <gpxtpx:hr>153</gpxtpx:hr>
          </gpxtpx:TrackPointExtension>
        </extensions>
      </trkpt>
      <trkpt lat="46.7895" lon="-1.58946">
        <ele>41.2</ele>
        <time>2024-05-10T08:01:55Z</time>
        <extensions>
          <gpxtpx:TrackPointExtension xmlns:gpxtpx="http://www.garmin.com/xmlschemas/TrackPointExtension/v1">
            <gpxtpx:hr>153</gpxtpx:hr>
          </gpxtpx:TrackPointExtension>
        </extensions>
      </trkpt>
      <trkpt lat="46.78951" lon="-1.58944">
        <ele>41.4</ele>
        <time>2024-05-10T08:01:56Z</time>
        <extensions>
          <gpxtpx:TrackPointExtension xmlns:gpxtpx="http://www.garmin.com/xmlschemas/TrackPointExtension/v1">
            <gpxtpx:hr>152</gpxtpx:hr>
          </gpxtpx:TrackPointExtension>
        </extensions>
      </trkpt>
      <trkpt lat="46.78952" lon="-1.58942">
        <ele>41.6</ele>
        <time>2024-05-10T08:01:57Z</time>
        <extensions>
          <gpxtpx:TrackPointExtension xmlns:gpxtpx="http://www.garmin.com/xmlschemas/TrackPointExtension/v1">
            <gpxtpx:hr>152</gpxtpx:hr>
          </gpxtpx:TrackPointExtension>
        </extensions>
      </trkpt>
      <trkpt lat="46.78954" lon="-1.5894">
        <ele>41.8</ele>
        <time>2024-05-10T08:01:58Z</time>
        <extensions>
          <gpxtpx:TrackPointExtension xmlns:gpxtpx="http://www.garmin.com/xmlschemas/TrackPointExtension/v1">
            <gpxtpx:hr>151</gpxtpx:hr>
          </gpxtpx:TrackPointExtension>
        </extensions>
      </trkpt>
      <trkpt lat="46.78956" lon="-1.58938">
        <ele>42</ele>
        <time>2024-05-10T08:01:59Z</time>
        <extensions>
          <gpxtpx:TrackPointExtension xmlns:gpxtpx="http://www.garmin.com/xmlschemas/TrackPointExtension/v1">
            <gpxtpx:hr>151</gpxtpx:hr>
          </gpxtpx:TrackPointExtension>
        </extensions>
      </trkpt>
      <trkpt lat="46.78957" lon="-1.58937">
        <ele>42</ele>
        <time>2024-05-10T08:02:00Z</time>
        <extensions>
          <gpxtpx:TrackPointExtension xmlns:gpxtpx="http://www.garmin.com/xmlschemas/TrackPointExtension/v1">
            <gpxtpx:hr>151</gpxtpx:hr>
          </gpxtpx:TrackPointExtension>
        </extensions>
      </trkpt>
      <trkpt lat="46.78958" lon="-1.58937">
        <ele>42.2</ele>
        <time>2024-05-10T08:02:01Z</time>
        <extensions>
          <gpxtpx:TrackPointExtension xmlns:gpxtpx="http://www.garmin.com/xmlschemas/TrackPointExtension/v1">
            <gpxtpx:hr>151</gpxtpx:hr>
          </gpxtpx:TrackPointExtension>
        </extensions>
      </trkpt>
      <trkpt lat="46.7896" lon="-1.58937">
        <ele>42.2</ele>
        <time>2024-05-10T08:02:02Z</time>
        <extensions>
          <gpxtpx:TrackPointExtension xmlns:gpxtpx="http://www.garmin.com/xmlschemas/TrackPointExtension/v1">
            <gpxtpx:hr>150</gpxtpx:hr>
          </gpxtpx:TrackPointExtension>
        </extensions>
      </trkpt>
      <trkpt lat="46.78961" lon="-1.58937">
        <ele>42.2</ele>
        <time>2024-05-10T08:02:03Z</time>
        <extensions>
          <gpxtpx:TrackPointExtension xmlns:gpxtpx="http://www.garmin.com/xmlschemas/TrackPointExtension/v1">
            <gpxtpx:hr>150</gpxtpx:hr>
          </gpxtpx:TrackPointExtension>
        </extensions>
      </trkpt>
      <trkpt lat="46.78963" lon="-1.58937">
        <ele>42.2</ele>
        <time>2024-05-10T08:02:04Z</time>
        <extensions>
          <gpxtpx:TrackPointExtension xmlns:gpxtpx="http://www.garmin.com/xmlschemas/TrackPointExtension/v1">
            <gpxtpx:hr>150</gpxtpx:hr>
          </gpxtpx:TrackPointExtension>
        </extensions>
      </trkpt>
      <trkpt lat="46.78965" lon="-1.58936">
        <ele>42.2</ele>
        <time>2024-05-10T08:02:05Z</time>
        <extensions>
          <gpxtpx:TrackPointExtension xmlns:gpxtpx="http://www.garmin.com/xmlschemas/TrackPointExtension/v1">
            <gpxtpx:hr>150</gpxtpx:hr>
          </gpxtpx:TrackPointExtension>
        </extensions>
      </trkpt>
      <trkpt lat="46.78967" lon="-1.58934">
        <ele>42.2</ele>
        <time>2024-05-10T08:02:06Z</time>
        <extensions>
          <gpxtpx:TrackPointExtension xmlns:gpxtpx="http://www.garmin.com/xmlschemas/TrackPointExtension/v1">
            <gpxtpx:hr>149</gpxtpx:hr>
          </gpxtpx:TrackPointExtension>
        </extensions>
      </trkpt>
      <trkpt lat="46.78968" lon="-1.58932">
        <ele>42.4</ele>
        <time>2024-05-10T08:02:07Z</time>
        <extensions>
          <gpxtpx:TrackPointExtension xmlns:gpxtpx="http://www.garmin.com/xmlschemas/TrackPointExtension/v1">
            <gpxtpx:hr>149</gpxtpx:hr>
          </gpxtpx:TrackPointExtension>
        </extensions>
      </trkpt>
      <trkpt lat="46.7897" lon="-1.58931">
        <ele>42.4</ele>
        <time>2024-05-10T08:02:08Z</time>
        <extensions>
          <gpxtpx:TrackPointExtension xmlns:gpxtpx="http://www.garmin.com/xmlschemas/TrackPointExtension/v1">
            <gpxtpx:hr>149</gpxtpx:hr>
          </gpxtpx:TrackPointExtension>
        </extensions>
      </trkpt>
      <trkpt lat="46.78972" lon="-1.58931">
        <ele>42.4</ele>
        <time>2024-05-10T08:02:09Z</time>
        <extensions>
          <gpxtpx:TrackPointExtension xmlns:gpxtpx="http://www.garmin.com/xmlschemas/TrackPointExtension/v1">
            <gpxtpx:hr>149</gpxtpx:hr>
          </gpxtpx:TrackPointExtension>
        </extensions>
      </trkpt>
      <trkpt lat="46.78973" lon="-1.58932">
        <ele>42.4</ele>
        <time>2024-05-10T08:02:10Z</time>
        <extensions>
          <gpxtpx:TrackPointExtension xmlns:gpxtpx="http://www.garmin.com/xmlschemas/TrackPointExtension/v1">
            <gpxtpx:hr>151</gpxtpx:hr>
          </gpxtpx:TrackPointExtension>
        </extensions>
      </trkpt>
      <trkpt lat="46.78975" lon="-1.58933">
        <ele>42.4</ele>
        <time>2024-05-10T08:02:11Z</time>
        <extensions>
          <gpxtpx:TrackPointExtension xmlns:gpxtpx="http://www.garmin.com/xmlschemas/TrackPointExtension/v1">
            <gpxtpx:hr>152</gpxtpx:hr>
          </gpxtpx:TrackPointExtension>
        </extensions>
      </trkpt>
      <trkpt lat="46.78977" lon="-1.58934">
        <ele>42.2</ele>
        <time>2024-05-10T08:02:12Z</time>
        <extensions>
          <gpxtpx:TrackPointExtension xmlns:gpxtpx="http://www.garmin.com/xmlschemas/TrackPointExtension/v1">
            <gpxtpx:hr>152</gpxtpx:hr>
          </gpxtpx:TrackPointExtension>
        </extensions>
      </trkpt>
      <trkpt lat="46.78979" lon="-1.58935">
        <ele>42.2</ele>
        <time>2024-05-10T08:02:13Z</time>
        <extensions>
          <gpxtpx:TrackPointExtension xmlns:gpxtpx="http://www.garmin.com/xmlschemas/TrackPointExtension/v1">
            <gpxtpx:hr>151</gpxtpx:hr>
          </gpxtpx:TrackPointExtension>
        </extensions>
      </trkpt>
      <trkpt lat="46.78982" lon="-1.58935">
        <ele>42</ele>
        <time>2024-05-10T08:02:14Z</time>
        <extensions>
          <gpxtpx:TrackPointExtension xmlns:gpxtpx="http://www.garmin.com/xmlschemas/TrackPointExtension/v1">
            <gpxtpx:hr>151</gpxtpx:hr>
          </gpxtpx:TrackPointExtension>
        </extensions>
      </trkpt>
      <trkpt lat="46.78985" lon="-1.58935">
        <ele>42</ele>
        <time>2024-05-10T08:02:15Z</time>
        <extensions>
          <gpxtpx:TrackPointExtension xmlns:gpxtpx="http://www.garmin.com/xmlschemas/TrackPointExtension/v1">
            <gpxtpx:hr>152</gpxtpx:hr>
          </gpxtpx:TrackPointExtension>
        </extensions>
      </trkpt>
      <trkpt lat="46.78988" lon="-1.58935">
        <ele>42</ele>
        <time>2024-05-10T08:02:16Z</time>
        <extensions>
          <gpxtpx:TrackPointExtension xmlns:gpxtpx="http://www.garmin.com/xmlschemas/TrackPointExtension/v1">
            <gpxtpx:hr>151</gpxtpx:hr>
          </gpxtpx:TrackPointExtension>
        </extensions>
      </trkpt>
      <trkpt lat="46.7899" lon="-1.58935">
        <ele>42</ele>
        <time>2024-05-10T08:02:17Z</time>
        <extensions>
          <gpxtpx:TrackPointExtension xmlns:gpxtpx="http://www.garmin.com/xmlschemas/TrackPointExtension/v1">
            <gpxtpx:hr>151</gpxtpx:hr>
          </gpxtpx:TrackPointExtension>
        </extensions>
      </trkpt>
      <trkpt lat="46.78993" lon="-1.58935">
        <ele>42</ele>
        <time>2024-05-10T08:02:18Z</time>
        <extensions>
          <gpxtpx:TrackPointExtension xmlns:gpxtpx="http://www.garmin.com/xmlschemas/TrackPointExtension/v1">
            <gpxtpx:hr>151</gpxtpx:hr>
          </gpxtpx:TrackPointExtension>
        </extensions>
      </trkpt>
      <trkpt lat="46.78995" lon="-1.58935">
        <ele>42</ele>
        <time>2024-05-10T08:02:19Z</time>
        <extensions>
          <gpxtpx:TrackPointExtension xmlns:gpxtpx="http://www.garmin.com/xmlschemas/TrackPointExtension/v1">
            <gpxtpx:hr>151</gpxtpx:hr>
          </gpxtpx:TrackPointExtension>
        </extensions>
      </trkpt>
      <trkpt lat="46.78998" lon="-1.58934">
        <ele>42</ele>
        <time>2024-05-10T08:02:20Z</time>
        <extensions>
          <gpxtpx:TrackPointExtension xmlns:gpxtpx="http://www.garmin.com/xmlschemas/TrackPointExtension/v1">
            <gpxtpx:hr>151</gpxtpx:hr>
          </gpxtpx:TrackPointExtension>
        </extensions>
      </trkpt>
      <trkpt lat="46.79001" lon="-1.58934">
        <ele>42</ele>
        <time>2024-05-10T08:02:21Z</time>
        <extensions>
          <gpxtpx:TrackPointExtension xmlns:gpxtpx="http://www.garmin.com/xmlschemas/TrackPointExtension/v1">
            <gpxtpx:hr>151</gpxtpx:hr>
          </gpxtpx:TrackPointExtension>
        </extensions>
      </trkpt>
      <trkpt lat="46.79003" lon="-1.58934">
        <ele>42.2</ele>
        <time>2024-05-10T08:02:22Z</time>
        <extensions>
          <gpxtpx:TrackPointExtension xmlns:gpxtpx="http://www.garmin.com/xmlschemas/TrackPointExtension/v1">
            <gpxtpx:hr>152</gpxtpx:hr>
          </gpxtpx:TrackPointExtension>
        </extensions>
      </trkpt>
      <trkpt lat="46.79006" lon="-1.58933">
        <ele>42.2</ele>
        <time>2024-05-10T08:02:23Z</time>
        <extensions>
          <gpxtpx:TrackPointExtension xmlns:gpxtpx="http://www.garmin.com/xmlschemas/TrackPointExtension/v1">
            <gpxtpx:hr>151</gpxtpx:hr>
          </gpxtpx:TrackPointExtension>
        </extensions>
      </trkpt>
      <trkpt lat="46.79009" lon="-1.58933">
        <ele>42.2</ele>
        <time>2024-05-10T08:02:24Z</time>
        <extensions>
          <gpxtpx:TrackPointExtension xmlns:gpxtpx="http://www.garmin.com/xmlschemas/TrackPointExtension/v1">
            <gpxtpx:hr>151</gpxtpx:hr>
          </gpxtpx:TrackPointExtension>
        </extensions>
      </trkpt>
      <trkpt lat="46.79011" lon="-1.58933">
        <ele>42.4</ele>
        <time>2024-05-10T08:02:25Z</time>
        <extensions>
          <gpxtpx:TrackPointExtension xmlns:gpxtpx="http://www.garmin.com/xmlschemas/TrackPointExtension/v1">
            <gpxtpx:hr>151</gpxtpx:hr>
          </gpxtpx:TrackPointExtension>
        </extensions>
      </trkpt>
      <trkpt lat="46.79014" lon="-1.58933">
        <ele>42.4</ele>
        <time>2024-05-10T08:02:26Z</time>
        <extensions>
          <gpxtpx:TrackPointExtension xmlns:gpxtpx="http://www.garmin.com/xmlschemas/TrackPointExtension/v1">
            <gpxtpx:hr>151</gpxtpx:hr>
          </gpxtpx:TrackPointExtension>
        </extensions>
      </trkpt>
      <trkpt lat="46.79017" lon="-1.58932">
        <ele>42.6</ele>
        <time>2024-05-10T08:02:27Z</time>
        <extensions>
          <gpxtpx:TrackPointExtension xmlns:gpxtpx="http://www.garmin.com/xmlschemas/TrackPointExtension/v1">
            <gpxtpx:hr>151</gpxtpx:hr>
          </gpxtpx:TrackPointExtension>
        </extensions>
      </trkpt>
      <trkpt lat="46.79019" lon="-1.58931">
        <ele>42.6</ele>
        <time>2024-05-10T08:02:28Z</time>
        <extensions>
          <gpxtpx:TrackPointExtension xmlns:gpxtpx="http://www.garmin.com/xmlschemas/TrackPointExtension/v1">
            <gpxtpx:hr>150</gpxtpx:hr>
          </gpxtpx:TrackPointExtension>
        </extensions>
      </trkpt>
      <trkpt lat="46.79022" lon="-1.58929">
        <ele>42.8</ele>
        <time>2024-05-10T08:02:29Z</time>
        <extensions>
          <gpxtpx:TrackPointExtension xmlns:gpxtpx="http://www.garmin.com/xmlschemas/TrackPointExtension/v1">
            <gpxtpx:hr>150</gpxtpx:hr>
          </gpxtpx:TrackPointExtension>
        </extensions>
      </trkpt>
      <trkpt lat="46.79024" lon="-1.58928">
        <ele>42.8</ele>
        <time>2024-05-10T08:02:30Z</time>
        <extensions>
          <gpxtpx:TrackPointExtension xmlns:gpxtpx="http://www.garmin.com/xmlschemas/TrackPointExtension/v1">
            <gpxtpx:hr>150</gpxtpx:hr>
          </gpxtpx:TrackPointExtension>
        </extensions>
      </trkpt>
      <trkpt lat="46.79026" lon="-1.58927">
        <ele>43</ele>
        <time>2024-05-10T08:02:31Z</time>
        <extensions>
          <gpxtpx:TrackPointExtension xmlns:gpxtpx="http://www.garmin.com/xmlschemas/TrackPointExtension/v1">
            <gpxtpx:hr>150</gpxtpx:hr>
          </gpxtpx:TrackPointExtension>
        </extensions>
      </trkpt>
      <trkpt lat="46.79029" lon="-1.58926">
        <ele>43</ele>
        <time>2024-05-10T08:02:32Z</time>
        <extensions>
          <gpxtpx:TrackPointExtension xmlns:gpxtpx="http://www.garmin.com/xmlschemas/TrackPointExtension/v1">
            <gpxtpx:hr>150</gpxtpx:hr>
          </gpxtpx:TrackPointExtension>
        </extensions>
      </trkpt>
      <trkpt lat="46.79031" lon="-1.58925">
        <ele>43.2</ele>
        <time>2024-05-10T08:02:33Z</time>
        <extensions>
          <gpxtpx:TrackPointExtension xmlns:gpxtpx="http://www.garmin.com/xmlschemas/TrackPointExtension/v1">
            <gpxtpx:hr>150</gpxtpx:hr>
          </gpxtpx:TrackPointExtension>
        </extensions>
      </trkpt>
      <trkpt lat="46.79034" lon="-1.58925">
        <ele>43.2</ele>
        <time>2024-05-10T08:02:34Z</time>
        <extensions>
          <gpxtpx:TrackPointExtension xmlns:gpxtpx="http://www.garmin.com/xmlschemas/TrackPointExtension/v1">
            <gpxtpx:hr>150</gpxtpx:hr>
          </gpxtpx:TrackPointExtension>
        </extensions>
      </trkpt>
      <trkpt lat="46.79038" lon="-1.58924">
        <ele>43.4</ele>
        <time>2024-05-10T08:02:35Z</time>
        <extensions>
          <gpxtpx:TrackPointExtension xmlns:gpxtpx="http://www.garmin.com/xmlschemas/TrackPointExtension/v1">
            <gpxtpx:hr>150</gpxtpx:hr>
          </gpxtpx:TrackPointExtension>
        </extensions>
      </trkpt>
      <trkpt lat="46.79039" lon="-1.58923">
        <ele>43.4</ele>
        <time>2024-05-10T08:02:36Z</time>
        <extensions>
          <gpxtpx:TrackPointExtension xmlns:gpxtpx="http://www.garmin.com/xmlschemas/TrackPointExtension/v1">
            <gpxtpx:hr>149</gpxtpx:hr>
          </gpxtpx:TrackPointExtension>
        </extensions>
      </trkpt>
      <trkpt lat="46.79041" lon="-1.58922">
        <ele>43.6</ele>
        <time>2024-05-10T08:02:37Z</time>
        <extensions>
          <gpxtpx:TrackPointExtension xmlns:gpxtpx="http://www.garmin.com/xmlschemas/TrackPointExtension/v1">
            <gpxtpx:hr>150</gpxtpx:hr>
          </gpxtpx:TrackPointExtension>
        </extensions>
      </trkpt>
      <trkpt lat="46.79043" lon="-1.58921">
        <ele>43.8</ele>
        <time>2024-05-10T08:02:38Z</time>
        <extensions>
          <gpxtpx:TrackPointExtension xmlns:gpxtpx="http://www.garmin.com/xmlschemas/TrackPointExtension/v1">
            <gpxtpx:hr>150</gpxtpx:hr>
          </gpxtpx:TrackPointExtension>
        </extensions>
      </trkpt>
      <trkpt lat="46.79046" lon="-1.58919">
        <ele>43.8</ele>
        <time>2024-05-10T08:02:39Z</time>
        <extensions>
          <gpxtpx:TrackPointExtension xmlns:gpxtpx="http://www.garmin.com/xmlschemas/TrackPointExtension/v1">
            <gpxtpx:hr>150</gpxtpx:hr>
          </gpxtpx:TrackPointExtension>
        </extensions>
      </trkpt>
      <trkpt lat="46.79048" lon="-1.58918">
        <ele>44</ele>
        <time>2024-05-10T08:02:40Z</time>
        <extensions>
          <gpxtpx:TrackPointExtension xmlns:gpxtpx="http://www.garmin.com/xmlschemas/TrackPointExtension/v1">
            <gpxtpx:hr>150</gpxtpx:hr>
          </gpxtpx:TrackPointExtension>
        </extensions>
      </trkpt>
      <trkpt lat="46.7905" lon="-1.58917">
        <ele>44.2</ele>
        <time>2024-05-10T08:02:41Z</time>
        <extensions>
          <gpxtpx:TrackPointExtension xmlns:gpxtpx="http://www.garmin.com/xmlschemas/TrackPointExtension/v1">
            <gpxtpx:hr>150</gpxtpx:hr>
          </gpxtpx:TrackPointExtension>
        </extensions>
      </trkpt>
      <trkpt lat="46.79051" lon="-1.58915">
        <ele>44.4</ele>
        <time>2024-05-10T08:02:42Z</time>
        <extensions>
          <gpxtpx:TrackPointExtension xmlns:gpxtpx="http://www.garmin.com/xmlschemas/TrackPointExtension/v1">
            <gpxtpx:hr>150</gpxtpx:hr>
          </gpxtpx:TrackPointExtension>
        </extensions>
      </trkpt>
      <trkpt lat="46.79053" lon="-1.58914">
        <ele>44.6</ele>
        <time>2024-05-10T08:02:43Z</time>
        <extensions>
          <gpxtpx:TrackPointExtension xmlns:gpxtpx="http://www.garmin.com/xmlschemas/TrackPointExtension/v1">
            <gpxtpx:hr>150</gpxtpx:hr>
          </gpxtpx:TrackPointExtension>
        </extensions>
      </trkpt>
      <trkpt lat="46.79055" lon="-1.58913">
        <ele>44.6</ele>
        <time>2024-05-10T08:02:44Z</time>
        <extensions>
          <gpxtpx:TrackPointExtension xmlns:gpxtpx="http://www.garmin.com/xmlschemas/TrackPointExtension/v1">
            <gpxtpx:hr>151</gpxtpx:hr>
          </gpxtpx:TrackPointExtension>
        </extensions>
      </trkpt>
      <trkpt lat="46.79056" lon="-1.58912">
        <ele>44.8</ele>
        <time>2024-05-10T08:02:45Z</time>
        <extensions>
          <gpxtpx:TrackPointExtension xmlns:gpxtpx="http://www.garmin.com/xmlschemas/TrackPointExtension/v1">
            <gpxtpx:hr>150</gpxtpx:hr>
          </gpxtpx:TrackPointExtension>
        </extensions>
      </trkpt>
      <trkpt lat="46.79057" lon="-1.5891">
        <ele>45</ele>
        <time>2024-05-10T08:02:46Z</time>
        <extensions>
          <gpxtpx:TrackPointExtension xmlns:gpxtpx="http://www.garmin.com/xmlschemas/TrackPointExtension/v1">
            <gpxtpx:hr>151</gpxtpx:hr>
          </gpxtpx:TrackPointExtension>
        </extensions>
      </trkpt>
      <trkpt lat="46.79058" lon="-1.58908">
        <ele>45</ele>
        <time>2024-05-10T08:02:47Z</time>
        <extensions>
          <gpxtpx:TrackPointExtension xmlns:gpxtpx="http://www.garmin.com/xmlschemas/TrackPointExtension/v1">
            <gpxtpx:hr>151</gpxtpx:hr>
          </gpxtpx:TrackPointExtension>
        </extensions>
      </trkpt>
      <trkpt lat="46.79059" lon="-1.58906">
        <ele>45.2</ele>
        <time>2024-05-10T08:02:48Z</time>
        <extensions>
          <gpxtpx:TrackPointExtension xmlns:gpxtpx="http://www.garmin.com/xmlschemas/TrackPointExtension/v1">
            <gpxtpx:hr>150</gpxtpx:hr>
          </gpxtpx:TrackPointExtension>
        </extensions>
      </trkpt>
      <trkpt lat="46.7906" lon="-1.58904">
        <ele>45.4</ele>
        <time>2024-05-10T08:02:49Z</time>
        <extensions>
          <gpxtpx:TrackPointExtension xmlns:gpxtpx="http://www.garmin.com/xmlschemas/TrackPointExtension/v1">
            <gpxtpx:hr>151</gpxtpx:hr>
          </gpxtpx:TrackPointExtension>
        </extensions>
      </trkpt>
      <trkpt lat="46.79061" lon="-1.58901">
        <ele>45.6</ele>
        <time>2024-05-10T08:02:50Z</time>
        <extensions>
          <gpxtpx:TrackPointExtension xmlns:gpxtpx="http://www.garmin.com/xmlschemas/TrackPointExtension/v1">
            <gpxtpx:hr>151</gpxtpx:hr>
          </gpxtpx:TrackPointExtension>
        </extensions>
      </trkpt>
      <trkpt lat="46.79062" lon="-1.58899">
        <ele>45.8</ele>
        <time>2024-05-10T08:02:51Z</time>
        <extensions>
          <gpxtpx:TrackPointExtension xmlns:gpxtpx="http://www.garmin.com/xmlschemas/TrackPointExtension/v1">
            <gpxtpx:hr>152</gpxtpx:hr>
          </gpxtpx:TrackPointExtension>
        </extensions>
      </trkpt>
      <trkpt lat="46.79062" lon="-1.58897">
        <ele>46.2</ele>
        <time>2024-05-10T08:02:52Z</time>
        <extensions>
          <gpxtpx:TrackPointExtension xmlns:gpxtpx="http://www.garmin.com/xmlschemas/TrackPointExtension/v1">
            <gpxtpx:hr>152</gpxtpx:hr>
          </gpxtpx:TrackPointExtension>
        </extensions>
      </trkpt>
      <trkpt lat="46.79063" lon="-1.58894">
        <ele>46.4</ele>
        <time>2024-05-10T08:02:53Z</time>
        <extensions>
          <gpxtpx:TrackPointExtension xmlns:gpxtpx="http://www.garmin.com/xmlschemas/TrackPointExtension/v1">
            <gpxtpx:hr>152</gpxtpx:hr>
          </gpxtpx:TrackPointExtension>
        </extensions>
      </trkpt>
      <trkpt lat="46.79063" lon="-1.58892">
        <ele>46.8</ele>
        <time>2024-05-10T08:02:54Z</time>
        <extensions>
          <gpxtpx:TrackPointExtension xmlns:gpxtpx="http://www.garmin.com/xmlschemas/TrackPointExtension/v1">
            <gpxtpx:hr>153</gpxtpx:hr>
          </gpxtpx:TrackPointExtension>
        </extensions>
      </trkpt>
      <trkpt lat="46.79063" lon="-1.58889">
        <ele>47.2</ele>
        <time>2024-05-10T08:02:55Z</time>
        <extensions>
          <gpxtpx:TrackPointExtension xmlns:gpxtpx="http://www.garmin.com/xmlschemas/TrackPointExtension/v1">
            <gpxtpx:hr>153</gpxtpx:hr>
          </gpxtpx:TrackPointExtension>
        </extensions>
      </trkpt>
      <trkpt lat="46.79063" lon="-1.58887">
        <ele>47.6</ele>
        <time>2024-05-10T08:02:56Z</time>
        <extensions>
          <gpxtpx:TrackPointExtension xmlns:gpxtpx="http://www.garmin.com/xmlschemas/TrackPointExtension/v1">
            <gpxtpx:hr>154</gpxtpx:hr>
          </gpxtpx:TrackPointExtension>
        </extensions>
      </trkpt>
      <trkpt lat="46.79062" lon="-1.58885">
        <ele>48</ele>
        <time>2024-05-10T08:02:57Z</time>
        <extensions>
          <gpxtpx:TrackPointExtension xmlns:gpxtpx="http://www.garmin.com/xmlschemas/TrackPointExtension/v1">
            <gpxtpx:hr>154</gpxtpx:hr>
          </gpxtpx:TrackPointExtension>
        </extensions>
      </trkpt>
      <trkpt lat="46.79062" lon="-1.58883">
        <ele>48.2</ele>
        <time>2024-05-10T08:02:58Z</time>
        <extensions>
          <gpxtpx:TrackPointExtension xmlns:gpxtpx="http://www.garmin.com/xmlschemas/TrackPointExtension/v1">
            <gpxtpx:hr>155</gpxtpx:hr>
          </gpxtpx:TrackPointExtension>
        </extensions>
      </trkpt>
      <trkpt lat="46.79062" lon="-1.58881">
        <ele>48.6</ele>
        <time>2024-05-10T08:02:59Z</time>
        <extensions>
          <gpxtpx:TrackPointExtension xmlns:gpxtpx="http://www.garmin.com/xmlschemas/TrackPointExtension/v1">
            <gpxtpx:hr>155</gpxtpx:hr>
          </gpxtpx:TrackPointExtension>
        </extensions>
      </trkpt>
      <trkpt lat="46.79061" lon="-1.58879">
        <ele>49</ele>
        <time>2024-05-10T08:03:00Z</time>
        <extensions>
          <gpxtpx:TrackPointExtension xmlns:gpxtpx="http://www.garmin.com/xmlschemas/TrackPointExtension/v1">
            <gpxtpx:hr>155</gpxtpx:hr>
          </gpxtpx:TrackPointExtension>
        </extensions>
      </trkpt>
      <trkpt lat="46.79062" lon="-1.58876">
        <ele>49.2</ele>
        <time>2024-05-10T08:03:01Z</time>
        <extensions>
          <gpxtpx:TrackPointExtension xmlns:gpxtpx="http://www.garmin.com/xmlschemas/TrackPointExtension/v1">
            <gpxtpx:hr>156</gpxtpx:hr>
          </gpxtpx:TrackPointExtension>
        </extensions>
      </trkpt>
      <trkpt lat="46.79063" lon="-1.58874">
        <ele>49.6</ele>
        <time>2024-05-10T08:03:02Z</time>
        <extensions>
          <gpxtpx:TrackPointExtension xmlns:gpxtpx="http://www.garmin.com/xmlschemas/TrackPointExtension/v1">
            <gpxtpx:hr>156</gpxtpx:hr>
          </gpxtpx:TrackPointExtension>
        </extensions>
      </trkpt>
      <trkpt lat="46.79063" lon="-1.58872">
        <ele>49.8</ele>
        <time>2024-05-10T08:03:03Z</time>
        <extensions>
          <gpxtpx:TrackPointExtension xmlns:gpxtpx="http://www.garmin.com/xmlschemas/TrackPointExtension/v1">
            <gpxtpx:hr>156</gpxtpx:hr>
          </gpxtpx:TrackPointExtension>
        </extensions>
      </trkpt>
      <trkpt lat="46.79064" lon="-1.58869">
        <ele>50.2</ele>
        <time>2024-05-10T08:03:04Z</time>
        <extensions>
          <gpxtpx:TrackPointExtension xmlns:gpxtpx="http://www.garmin.com/xmlschemas/TrackPointExtension/v1">
            <gpxtpx:hr>157</gpxtpx:hr>
          </gpxtpx:TrackPointExtension>
        </extensions>
      </trkpt>
      <trkpt lat="46.79064" lon="-1.58866">
        <ele>50.4</ele>
        <time>2024-05-10T08:03:05Z</time>
        <extensions>
          <gpxtpx:TrackPointExtension xmlns:gpxtpx="http://www.garmin.com/xmlschemas/TrackPointExtension/v1">
            <gpxtpx:hr>158</gpxtpx:hr>
          </gpxtpx:TrackPointExtension>
        </extensions>
      </trkpt>
      <trkpt lat="46.79064" lon="-1.58864">
        <ele>50.6</ele>
        <time>2024-05-10T08:03:06Z</time>
        <extensions>
          <gpxtpx:TrackPointExtension xmlns:gpxtpx="http://www.garmin.com/xmlschemas/TrackPointExtension/v1">
            <gpxtpx:hr>158</gpxtpx:hr>
          </gpxtpx:TrackPointExtension>
        </extensions>
      </trkpt>
      <trkpt lat="46.79063" lon="-1.58862">
        <ele>50.8</ele>
        <time>2024-05-10T08:03:07Z</time>
        <extensions>
          <gpxtpx:TrackPointExtension xmlns:gpxtpx="http://www.garmin.com/xmlschemas/TrackPointExtension/v1">
            <gpxtpx:hr>158</gpxtpx:hr>
          </gpxtpx:TrackPointExtension>
        </extensions>
      </trkpt>
      <trkpt lat="46.79062" lon="-1.58861">
        <ele>51</ele>
        <time>2024-05-10T08:03:08Z</time>
        <extensions>
          <gpxtpx:TrackPointExtension xmlns:gpxtpx="http://www.garmin.com/xmlschemas/TrackPointExtension/v1">
            <gpxtpx:hr>160</gpxtpx:hr>
          </gpxtpx:TrackPointExtension>
        </extensions>
      </trkpt>
      <trkpt lat="46.7906" lon="-1.58861">
        <ele>51.2</ele>
        <time>2024-05-10T08:03:09Z</time>
        <extensions>
          <gpxtpx:TrackPointExtension xmlns:gpxtpx="http://www.garmin.com/xmlschemas/TrackPointExtension/v1">
            <gpxtpx:hr>160</gpxtpx:hr>
          </gpxtpx:TrackPointExtension>
        </extensions>
      </trkpt>
      <trkpt lat="46.79058" lon="-1.58861">
        <ele>51.2</ele>
        <time>2024-05-10T08:03:10Z</time>
        <extensions>
          <gpxtpx:TrackPointExtension xmlns:gpxtpx="http://www.garmin.com/xmlschemas/TrackPointExtension/v1">
            <gpxtpx:hr>160</gpxtpx:hr>
          </gpxtpx:TrackPointExtension>
        </extensions>
      </trkpt>
      <trkpt lat="46.79056" lon="-1.58861">
        <ele>51.2</ele>
        <time>2024-05-10T08:03:11Z</time>
        <extensions>
          <gpxtpx:TrackPointExtension xmlns:gpxtpx="http://www.garmin.com/xmlschemas/TrackPointExtension/v1">
            <gpxtpx:hr>160</gpxtpx:hr>
          </gpxtpx:TrackPointExtension>
        </extensions>
      </trkpt>
      <trkpt lat="46.79055" lon="-1.58861">
        <ele>51.2</ele>
        <time>2024-05-10T08:03:12Z</time>
        <extensions>
          <gpxtpx:TrackPointExtension xmlns:gpxtpx="http://www.garmin.com/xmlschemas/TrackPointExtension/v1">
            <gpxtpx:hr>160</gpxtpx:hr>
          </gpxtpx:TrackPointExtension>
        </extensions>
      </trkpt>
      <trkpt lat="46.79053" lon="-1.5886">
        <ele>51.2</ele>
        <time>2024-05-10T08:03:13Z</time>
        <extensions>
          <gpxtpx:TrackPointExtension xmlns:gpxtpx="http://www.garmin.com/xmlschemas/TrackPointExtension/v1">
            <gpxtpx:hr>160</gpxtpx:hr>
          </gpxtpx:TrackPointExtension>
        </extensions>
      </trkpt>
      <trkpt lat="46.79052" lon="-1.58858">
        <ele>51.4</ele>
        <time>2024-05-10T08:03:14Z</time>
        <extensions>
          <gpxtpx:TrackPointExtension xmlns:gpxtpx="http://www.garmin.com/xmlschemas/TrackPointExtension/v1">
            <gpxtpx:hr>160</gpxtpx:hr>
          </gpxtpx:TrackPointExtension>
        </extensions>
      </trkpt>
      <trkpt lat="46.79052" lon="-1.58854">
        <ele>51.4</ele>
        <time>2024-05-10T08:03:15Z</time>
        <extensions>
          <gpxtpx:TrackPointExtension xmlns:gpxtpx="http://www.garmin.com/xmlschemas/TrackPointExtension/v1">
            <gpxtpx:hr>160</gpxtpx:hr>
          </gpxtpx:TrackPointExtension>
        </extensions>
      </trkpt>
      <trkpt lat="46.79053" lon="-1.58853">
        <ele>51.4</ele>
        <time>2024-05-10T08:03:16Z</time>
        <extensions>
          <gpxtpx:TrackPointExtension xmlns:gpxtpx="http://www.garmin.com/xmlschemas/TrackPointExtension/v1">
            <gpxtpx:hr>160</gpxtpx:hr>
          </gpxtpx:TrackPointExtension>
        </extensions>
      </trkpt>
      <trkpt lat="46.79053" lon="-1.58851">
        <ele>51.6</ele>
        <time>2024-05-10T08:03:17Z</time>
        <extensions>
          <gpxtpx:TrackPointExtension xmlns:gpxtpx="http://www.garmin.com/xmlschemas/TrackPointExtension/v1">
            <gpxtpx:hr>161</gpxtpx:hr>
          </gpxtpx:TrackPointExtension>
        </extensions>
      </trkpt>
      <trkpt lat="46.79054" lon="-1.58849">
        <ele>51.6</ele>
        <time>2024-05-10T08:03:18Z</time>
        <extensions>
          <gpxtpx:TrackPointExtension xmlns:gpxtpx="http://www.garmin.com/xmlschemas/TrackPointExtension/v1">
            <gpxtpx:hr>162</gpxtpx:hr>
          </gpxtpx:TrackPointExtension>
        </extensions>
      </trkpt>
      <trkpt lat="46.79056" lon="-1.58848">
        <ele>51.8</ele>
        <time>2024-05-10T08:03:19Z</time>
        <extensions>
          <gpxtpx:TrackPointExtension xmlns:gpxtpx="http://www.garmin.com/xmlschemas/TrackPointExtension/v1">
            <gpxtpx:hr>162</gpxtpx:hr>
          </gpxtpx:TrackPointExtension>
        </extensions>
      </trkpt>
      <trkpt lat="46.79058" lon="-1.58848">
        <ele>51.8</ele>
        <time>2024-05-10T08:03:20Z</time>
        <extensions>
          <gpxtpx:TrackPointExtension xmlns:gpxtpx="http://www.garmin.com/xmlschemas/TrackPointExtension/v1">
            <gpxtpx:hr>162</gpxtpx:hr>
          </gpxtpx:TrackPointExtension>
        </extensions>
      </trkpt>
      <trkpt lat="46.79059" lon="-1.58847">
        <ele>52</ele>
        <time>2024-05-10T08:03:21Z</time>
        <extensions>
          <gpxtpx:TrackPointExtension xmlns:gpxtpx="http://www.garmin.com/xmlschemas/TrackPointExtension/v1">
            <gpxtpx:hr>162</gpxtpx:hr>
          </gpxtpx:TrackPointExtension>
        </extensions>
      </trkpt>
      <trkpt lat="46.7906" lon="-1.58846">
        <ele>52.2</ele>
        <time>2024-05-10T08:03:22Z</time>
        <extensions>
          <gpxtpx:TrackPointExtension xmlns:gpxtpx="http://www.garmin.com/xmlschemas/TrackPointExtension/v1">
            <gpxtpx:hr>161</gpxtpx:hr>
          </gpxtpx:TrackPointExtension>
        </extensions>
      </trkpt>
      <trkpt lat="46.79061" lon="-1.58844">
        <ele>52.2</ele>
        <time>2024-05-10T08:03:23Z</time>
        <extensions>
          <gpxtpx:TrackPointExtension xmlns:gpxtpx="http://www.garmin.com/xmlschemas/TrackPointExtension/v1">
            <gpxtpx:hr>161</gpxtpx:hr>
          </gpxtpx:TrackPointExtension>
        </extensions>
      </trkpt>
      <trkpt lat="46.79061" lon="-1.58842">
        <ele>52.4</ele>
        <time>2024-05-10T08:03:24Z</time>
        <extensions>
          <gpxtpx:TrackPointExtension xmlns:gpxtpx="http://www.garmin.com/xmlschemas/TrackPointExtension/v1">
            <gpxtpx:hr>160</gpxtpx:hr>
          </gpxtpx:TrackPointExtension>
        </extensions>
      </trkpt>
      <trkpt lat="46.7906" lon="-1.58839">
        <ele>52.4</ele>
        <time>2024-05-10T08:03:25Z</time>
        <extensions>
          <gpxtpx:TrackPointExtension xmlns:gpxtpx="http://www.garmin.com/xmlschemas/TrackPointExtension/v1">
            <gpxtpx:hr>160</gpxtpx:hr>
          </gpxtpx:TrackPointExtension>
        </extensions>
      </trkpt>
      <trkpt lat="46.7906" lon="-1.58836">
        <ele>52.2</ele>
        <time>2024-05-10T08:03:26Z</time>
        <extensions>
          <gpxtpx:TrackPointExtension xmlns:gpxtpx="http://www.garmin.com/xmlschemas/TrackPointExtension/v1">
            <gpxtpx:hr>159</gpxtpx:hr>
          </gpxtpx:TrackPointExtension>
        </extensions>
      </trkpt>
      <trkpt lat="46.7906" lon="-1.58833">
        <ele>52.2</ele>
        <time>2024-05-10T08:03:27Z</time>
        <extensions>
          <gpxtpx:TrackPointExtension xmlns:gpxtpx="http://www.garmin.com/xmlschemas/TrackPointExtension/v1">
            <gpxtpx:hr>159</gpxtpx:hr>
          </gpxtpx:TrackPointExtension>
        </extensions>
      </trkpt>
      <trkpt lat="46.7906" lon="-1.58831">
        <ele>52.2</ele>
        <time>2024-05-10T08:03:29Z</time>
        <extensions>
          <gpxtpx:TrackPointExtension xmlns:gpxtpx="http://www.garmin.com/xmlschemas/TrackPointExtension/v1">
            <gpxtpx:hr>159</gpxtpx:hr>
          </gpxtpx:TrackPointExtension>
        </extensions>
      </trkpt>
      <trkpt lat="46.79062" lon="-1.58829">
        <ele>52.2</ele>
        <time>2024-05-10T08:03:30Z</time>
        <extensions>
          <gpxtpx:TrackPointExtension xmlns:gpxtpx="http://www.garmin.com/xmlschemas/TrackPointExtension/v1">
            <gpxtpx:hr>159</gpxtpx:hr>
          </gpxtpx:TrackPointExtension>
        </extensions>
      </trkpt>
      <trkpt lat="46.79063" lon="-1.58828">
        <ele>52.4</ele>
        <time>2024-05-10T08:03:31Z</time>
        <extensions>
          <gpxtpx:TrackPointExtension xmlns:gpxtpx="http://www.garmin.com/xmlschemas/TrackPointExtension/v1">
            <gpxtpx:hr>159</gpxtpx:hr>
          </gpxtpx:TrackPointExtension>
        </extensions>
      </trkpt>
      <trkpt lat="46.79065" lon="-1.58827">
        <ele>52.4</ele>
        <time>2024-05-10T08:03:32Z</time>
        <extensions>
          <gpxtpx:TrackPointExtension xmlns:gpxtpx="http://www.garmin.com/xmlschemas/TrackPointExtension/v1">
            <gpxtpx:hr>159</gpxtpx:hr>
          </gpxtpx:TrackPointExtension>
        </extensions>
      </trkpt>
      <trkpt lat="46.79066" lon="-1.58825">
        <ele>52.6</ele>
        <time>2024-05-10T08:03:33Z</time>
        <extensions>
          <gpxtpx:TrackPointExtension xmlns:gpxtpx="http://www.garmin.com/xmlschemas/TrackPointExtension/v1">
            <gpxtpx:hr>159</gpxtpx:hr>
          </gpxtpx:TrackPointExtension>
        </extensions>
      </trkpt>
      <trkpt lat="46.79067" lon="-1.58823">
        <ele>52.6</ele>
        <time>2024-05-10T08:03:34Z</time>
        <extensions>
          <gpxtpx:TrackPointExtension xmlns:gpxtpx="http://www.garmin.com/xmlschemas/TrackPointExtension/v1">
            <gpxtpx:hr>159</gpxtpx:hr>
          </gpxtpx:TrackPointExtension>
        </extensions>
      </trkpt>
      <trkpt lat="46.79068" lon="-1.58821">
        <ele>52.6</ele>
        <time>2024-05-10T08:03:35Z</time>
        <extensions>
          <gpxtpx:TrackPointExtension xmlns:gpxtpx="http://www.garmin.com/xmlschemas/TrackPointExtension/v1">
            <gpxtpx:hr>159</gpxtpx:hr>
          </gpxtpx:TrackPointExtension>
        </extensions>
      </trkpt>
      <trkpt lat="46.79069" lon="-1.58819">
        <ele>52.8</ele>
        <time>2024-05-10T08:03:36Z</time>
        <extensions>
          <gpxtpx:TrackPointExtension xmlns:gpxtpx="http://www.garmin.com/xmlschemas/TrackPointExtension/v1">
            <gpxtpx:hr>159</gpxtpx:hr>
          </gpxtpx:TrackPointExtension>
        </extensions>
      </trkpt>
      <trkpt lat="46.7907" lon="-1.58818">
        <ele>52.8</ele>
        <time>2024-05-10T08:03:37Z</time>
        <extensions>
          <gpxtpx:TrackPointExtension xmlns:gpxtpx="http://www.garmin.com/xmlschemas/TrackPointExtension/v1">
            <gpxtpx:hr>159</gpxtpx:hr>
          </gpxtpx:TrackPointExtension>
        </extensions>
      </trkpt>
      <trkpt lat="46.79072" lon="-1.58819">
        <ele>53</ele>
        <time>2024-05-10T08:03:38Z</time>
        <extensions>
          <gpxtpx:TrackPointExtension xmlns:gpxtpx="http://www.garmin.com/xmlschemas/TrackPointExtension/v1">
            <gpxtpx:hr>159</gpxtpx:hr>
          </gpxtpx:TrackPointExtension>
        </extensions>
      </trkpt>
      <trkpt lat="46.79074" lon="-1.5882">
        <ele>53</ele>
        <time>2024-05-10T08:03:39Z</time>
        <extensions>
          <gpxtpx:TrackPointExtension xmlns:gpxtpx="http://www.garmin.com/xmlschemas/TrackPointExtension/v1">
            <gpxtpx:hr>158</gpxtpx:hr>
          </gpxtpx:TrackPointExtension>
        </extensions>
      </trkpt>
      <trkpt lat="46.79076" lon="-1.58822">
        <ele>53</ele>
        <time>2024-05-10T08:03:40Z</time>
        <extensions>
          <gpxtpx:TrackPointExtension xmlns:gpxtpx="http://www.garmin.com/xmlschemas/TrackPointExtension/v1">
            <gpxtpx:hr>157</gpxtpx:hr>
          </gpxtpx:TrackPointExtension>
        </extensions>
      </trkpt>
      <trkpt lat="46.79077" lon="-1.58824">
        <ele>53</ele>
        <time>2024-05-10T08:03:41Z</time>
        <extensions>
          <gpxtpx:TrackPointExtension xmlns:gpxtpx="http://www.garmin.com/xmlschemas/TrackPointExtension/v1">
            <gpxtpx:hr>157</gpxtpx:hr>
          </gpxtpx:TrackPointExtension>
        </extensions>
      </trkpt>
      <trkpt lat="46.79078" lon="-1.58827">
        <ele>53</ele>
        <time>2024-05-10T08:03:42Z</time>
        <extensions>
          <gpxtpx:TrackPointExtension xmlns:gpxtpx="http://www.garmin.com/xmlschemas/TrackPointExtension/v1">
            <gpxtpx:hr>157</gpxtpx:hr>
          </gpxtpx:TrackPointExtension>
        </extensions>
      </trkpt>
      <trkpt lat="46.79079" lon="-1.58831">
        <ele>53</ele>
        <time>2024-05-10T08:03:43Z</time>
        <extensions>
          <gpxtpx:TrackPointExtension xmlns:gpxtpx="http://www.garmin.com/xmlschemas/TrackPointExtension/v1">
            <gpxtpx:hr>156</gpxtpx:hr>
          </gpxtpx:TrackPointExtension>
        </extensions>
      </trkpt>
      <trkpt lat="46.79078" lon="-1.58834">
        <ele>52.8</ele>
        <time>2024-05-10T08:03:44Z</time>
        <extensions>
          <gpxtpx:TrackPointExtension xmlns:gpxtpx="http://www.garmin.com/xmlschemas/TrackPointExtension/v1">
            <gpxtpx:hr>156</gpxtpx:hr>
          </gpxtpx:TrackPointExtension>
        </extensions>
      </trkpt>
      <trkpt lat="46.79078" lon="-1.58837">
        <ele>52.8</ele>
        <time>2024-05-10T08:03:45Z</time>
        <extensions>
          <gpxtpx:TrackPointExtension xmlns:gpxtpx="http://www.garmin.com/xmlschemas/TrackPointExtension/v1">
            <gpxtpx:hr>156</gpxtpx:hr>
          </gpxtpx:TrackPointExtension>
        </extensions>
      </trkpt>
      <trkpt lat="46.79077" lon="-1.5884">
        <ele>52.6</ele>
        <time>2024-05-10T08:03:46Z</time>
        <extensions>
          <gpxtpx:TrackPointExtension xmlns:gpxtpx="http://www.garmin.com/xmlschemas/TrackPointExtension/v1">
            <gpxtpx:hr>156</gpxtpx:hr>
          </gpxtpx:TrackPointExtension>
        </extensions>
      </trkpt>
      <trkpt lat="46.79077" lon="-1.58844">
        <ele>52.6</ele>
        <time>2024-05-10T08:03:47Z</time>
        <extensions>
          <gpxtpx:TrackPointExtension xmlns:gpxtpx="http://www.garmin.com/xmlschemas/TrackPointExtension/v1">
            <gpxtpx:hr>155</gpxtpx:hr>
          </gpxtpx:TrackPointExtension>
        </extensions>
      </trkpt>
      <trkpt lat="46.79078" lon="-1.58848">
        <ele>52.4</ele>
        <time>2024-05-10T08:03:48Z</time>
        <extensions>
          <gpxtpx:TrackPointExtension xmlns:gpxtpx="http://www.garmin.com/xmlschemas/TrackPointExtension/v1">
            <gpxtpx:hr>154</gpxtpx:hr>
          </gpxtpx:TrackPointExtension>
        </extensions>
      </trkpt>
      <trkpt lat="46.7908" lon="-1.58852">
        <ele>52.2</ele>
        <time>2024-05-10T08:03:49Z</time>
        <extensions>
          <gpxtpx:TrackPointExtension xmlns:gpxtpx="http://www.garmin.com/xmlschemas/TrackPointExtension/v1">
            <gpxtpx:hr>154</gpxtpx:hr>
          </gpxtpx:TrackPointExtension>
        </extensions>
      </trkpt>
      <trkpt lat="46.79082" lon="-1.58855">
        <ele>51.8</ele>
        <time>2024-05-10T08:03:50Z</time>
        <extensions>
          <gpxtpx:TrackPointExtension xmlns:gpxtpx="http://www.garmin.com/xmlschemas/TrackPointExtension/v1">
            <gpxtpx:hr>154</gpxtpx:hr>
          </gpxtpx:TrackPointExtension>
        </extensions>
      </trkpt>
      <trkpt lat="46.79083" lon="-1.58859">
        <ele>51.6</ele>
        <time>2024-05-10T08:03:51Z</time>
        <extensions>
          <gpxtpx:TrackPointExtension xmlns:gpxtpx="http://www.garmin.com/xmlschemas/TrackPointExtension/v1">
            <gpxtpx:hr>154</gpxtpx:hr>
          </gpxtpx:TrackPointExtension>
        </extensions>
      </trkpt>
      <trkpt lat="46.79085" lon="-1.58863">
        <ele>51.2</ele>
        <time>2024-05-10T08:03:52Z</time>
        <extensions>
          <gpxtpx:TrackPointExtension xmlns:gpxtpx="http://www.garmin.com/xmlschemas/TrackPointExtension/v1">
            <gpxtpx:hr>153</gpxtpx:hr>
          </gpxtpx:TrackPointExtension>
        </extensions>
      </trkpt>
      <trkpt lat="46.79086" lon="-1.58866">
        <ele>50.8</ele>
        <time>2024-05-10T08:03:53Z</time>
        <extensions>
          <gpxtpx:TrackPointExtension xmlns:gpxtpx="http://www.garmin.com/xmlschemas/TrackPointExtension/v1">
            <gpxtpx:hr>154</gpxtpx:hr>
          </gpxtpx:TrackPointExtension>
        </extensions>
      </trkpt>
      <trkpt lat="46.79086" lon="-1.58869">
        <ele>50.4</ele>
        <time>2024-05-10T08:03:54Z</time>
        <extensions>
          <gpxtpx:TrackPointExtension xmlns:gpxtpx="http://www.garmin.com/xmlschemas/TrackPointExtension/v1">
            <gpxtpx:hr>154</gpxtpx:hr>
          </gpxtpx:TrackPointExtension>
        </extensions>
      </trkpt>
      <trkpt lat="46.79085" lon="-1.58872">
        <ele>50</ele>
        <time>2024-05-10T08:03:55Z</time>
        <extensions>
          <gpxtpx:TrackPointExtension xmlns:gpxtpx="http://www.garmin.com/xmlschemas/TrackPointExtension/v1">
            <gpxtpx:hr>153</gpxtpx:hr>
          </gpxtpx:TrackPointExtension>
        </extensions>
      </trkpt>
      <trkpt lat="46.79083" lon="-1.58873">
        <ele>49.8</ele>
        <time>2024-05-10T08:03:56Z</time>
        <extensions>
          <gpxtpx:TrackPointExtension xmlns:gpxtpx="http://www.garmin.com/xmlschemas/TrackPointExtension/v1">
            <gpxtpx:hr>153</gpxtpx:hr>
          </gpxtpx:TrackPointExtension>
        </extensions>
      </trkpt>
      <trkpt lat="46.79081" lon="-1.58873">
        <ele>49.8</ele>
        <time>2024-05-10T08:03:57Z</time>
        <extensions>
          <gpxtpx:TrackPointExtension xmlns:gpxtpx="http://www.garmin.com/xmlschemas/TrackPointExtension/v1">
            <gpxtpx:hr>153</gpxtpx:hr>
          </gpxtpx:TrackPointExtension>
        </extensions>
      </trkpt>
      <trkpt lat="46.79079" lon="-1.58872">
        <ele>49.8</ele>
        <time>2024-05-10T08:03:58Z</time>
        <extensions>
          <gpxtpx:TrackPointExtension xmlns:gpxtpx="http://www.garmin.com/xmlschemas/TrackPointExtension/v1">
            <gpxtpx:hr>151</gpxtpx:hr>
          </gpxtpx:TrackPointExtension>
        </extensions>
      </trkpt>
      <trkpt lat="46.79078" lon="-1.58872">
        <ele>49.8</ele>
        <time>2024-05-10T08:03:59Z</time>
        <extensions>
          <gpxtpx:TrackPointExtension xmlns:gpxtpx="http://www.garmin.com/xmlschemas/TrackPointExtension/v1">
            <gpxtpx:hr>151</gpxtpx:hr>
          </gpxtpx:TrackPointExtension>
        </extensions>
      </trkpt>
      <trkpt lat="46.79076" lon="-1.58872">
        <ele>49.8</ele>
        <time>2024-05-10T08:04:00Z</time>
        <extensions>
          <gpxtpx:TrackPointExtension xmlns:gpxtpx="http://www.garmin.com/xmlschemas/TrackPointExtension/v1">
            <gpxtpx:hr>151</gpxtpx:hr>
          </gpxtpx:TrackPointExtension>
        </extensions>
      </trkpt>
      <trkpt lat="46.79076" lon="-1.58874">
        <ele>49.6</ele>
        <time>2024-05-10T08:04:01Z</time>
        <extensions>
          <gpxtpx:TrackPointExtension xmlns:gpxtpx="http://www.garmin.com/xmlschemas/TrackPointExtension/v1">
            <gpxtpx:hr>151</gpxtpx:hr>
          </gpxtpx:TrackPointExtension>
        </extensions>
      </trkpt>
      <trkpt lat="46.79076" lon="-1.58877">
        <ele>49.4</ele>
        <time>2024-05-10T08:04:02Z</time>
        <extensions>
          <gpxtpx:TrackPointExtension xmlns:gpxtpx="http://www.garmin.com/xmlschemas/TrackPointExtension/v1">
            <gpxtpx:hr>150</gpxtpx:hr>
          </gpxtpx:TrackPointExtension>
        </extensions>
      </trkpt>
      <trkpt lat="46.79076" lon="-1.5888">
        <ele>49.2</ele>
        <time>2024-05-10T08:04:03Z</time>
        <extensions>
          <gpxtpx:TrackPointExtension xmlns:gpxtpx="http://www.garmin.com/xmlschemas/TrackPointExtension/v1">
            <gpxtpx:hr>150</gpxtpx:hr>
          </gpxtpx:TrackPointExtension>
        </extensions>
      </trkpt>
      <trkpt lat="46.79077" lon="-1.58883">
        <ele>48.8</ele>
        <time>2024-05-10T08:04:04Z</time>
        <extensions>
          <gpxtpx:TrackPointExtension xmlns:gpxtpx="http://www.garmin.com/xmlschemas/TrackPointExtension/v1">
            <gpxtpx:hr>149</gpxtpx:hr>
          </gpxtpx:TrackPointExtension>
        </extensions>
      </trkpt>
      <trkpt lat="46.79079" lon="-1.58885">
        <ele>48.6</ele>
        <time>2024-05-10T08:04:05Z</time>
        <extensions>
          <gpxtpx:TrackPointExtension xmlns:gpxtpx="http://www.garmin.com/xmlschemas/TrackPointExtension/v1">
            <gpxtpx:hr>148</gpxtpx:hr>
          </gpxtpx:TrackPointExtension>
        </extensions>
      </trkpt>
      <trkpt lat="46.79081" lon="-1.58886">
        <ele>48.2</ele>
        <time>2024-05-10T08:04:06Z</time>
        <extensions>
          <gpxtpx:TrackPointExtension xmlns:gpxtpx="http://www.garmin.com/xmlschemas/TrackPointExtension/v1">
            <gpxtpx:hr>148</gpxtpx:hr>
          </gpxtpx:TrackPointExtension>
        </extensions>
      </trkpt>
      <trkpt lat="46.79083" lon="-1.58887">
        <ele>47.8</ele>
        <time>2024-05-10T08:04:07Z</time>
        <extensions>
          <gpxtpx:TrackPointExtension xmlns:gpxtpx="http://www.garmin.com/xmlschemas/TrackPointExtension/v1">
            <gpxtpx:hr>148</gpxtpx:hr>
          </gpxtpx:TrackPointExtension>
        </extensions>
      </trkpt>
      <trkpt lat="46.79085" lon="-1.58888">
        <ele>47.4</ele>
        <time>2024-05-10T08:04:08Z</time>
        <extensions>
          <gpxtpx:TrackPointExtension xmlns:gpxtpx="http://www.garmin.com/xmlschemas/TrackPointExtension/v1">
            <gpxtpx:hr>148</gpxtpx:hr>
          </gpxtpx:TrackPointExtension>
        </extensions>
      </trkpt>
      <trkpt lat="46.79088" lon="-1.58889">
        <ele>47</ele>
        <time>2024-05-10T08:04:09Z</time>
        <extensions>
          <gpxtpx:TrackPointExtension xmlns:gpxtpx="http://www.garmin.com/xmlschemas/TrackPointExtension/v1">
            <gpxtpx:hr>147</gpxtpx:hr>
          </gpxtpx:TrackPointExtension>
        </extensions>
      </trkpt>
      <trkpt lat="46.7909" lon="-1.58889">
        <ele>46.8</ele>
        <time>2024-05-10T08:04:10Z</time>
        <extensions>
          <gpxtpx:TrackPointExtension xmlns:gpxtpx="http://www.garmin.com/xmlschemas/TrackPointExtension/v1">
            <gpxtpx:hr>147</gpxtpx:hr>
          </gpxtpx:TrackPointExtension>
        </extensions>
      </trkpt>
      <trkpt lat="46.79092" lon="-1.5889">
        <ele>46.6</ele>
        <time>2024-05-10T08:04:11Z</time>
        <extensions>
          <gpxtpx:TrackPointExtension xmlns:gpxtpx="http://www.garmin.com/xmlschemas/TrackPointExtension/v1">
            <gpxtpx:hr>147</gpxtpx:hr>
          </gpxtpx:TrackPointExtension>
        </extensions>
      </trkpt>
      <trkpt lat="46.79093" lon="-1.5889">
        <ele>46.4</ele>
        <time>2024-05-10T08:04:12Z</time>
        <extensions>
          <gpxtpx:TrackPointExtension xmlns:gpxtpx="http://www.garmin.com/xmlschemas/TrackPointExtension/v1">
            <gpxtpx:hr>146</gpxtpx:hr>
          </gpxtpx:TrackPointExtension>
        </extensions>
      </trkpt>
      <trkpt lat="46.79095" lon="-1.58891">
        <ele>46.2</ele>
        <time>2024-05-10T08:04:13Z</time>
        <extensions>
          <gpxtpx:TrackPointExtension xmlns:gpxtpx="http://www.garmin.com/xmlschemas/TrackPointExtension/v1">
            <gpxtpx:hr>145</gpxtpx:hr>
          </gpxtpx:TrackPointExtension>
        </extensions>
      </trkpt>
      <trkpt lat="46.79096" lon="-1.58892">
        <ele>46</ele>
        <time>2024-05-10T08:04:14Z</time>
        <extensions>
          <gpxtpx:TrackPointExtension xmlns:gpxtpx="http://www.garmin.com/xmlschemas/TrackPointExtension/v1">
            <gpxtpx:hr>144</gpxtpx:hr>
          </gpxtpx:TrackPointExtension>
        </extensions>
      </trkpt>
      <trkpt lat="46.79097" lon="-1.58895">
        <ele>45.8</ele>
        <time>2024-05-10T08:04:15Z</time>
        <extensions>
          <gpxtpx:TrackPointExtension xmlns:gpxtpx="http://www.garmin.com/xmlschemas/TrackPointExtension/v1">
            <gpxtpx:hr>143</gpxtpx:hr>
          </gpxtpx:TrackPointExtension>
        </extensions>
      </trkpt>
      <trkpt lat="46.79098" lon="-1.58899">
        <ele>45.6</ele>
        <time>2024-05-10T08:04:16Z</time>
        <extensions>
          <gpxtpx:TrackPointExtension xmlns:gpxtpx="http://www.garmin.com/xmlschemas/TrackPointExtension/v1">
            <gpxtpx:hr>140</gpxtpx:hr>
          </gpxtpx:TrackPointExtension>
        </extensions>
      </trkpt>
      <trkpt lat="46.79099" lon="-1.58903">
        <ele>45.4</ele>
        <time>2024-05-10T08:04:17Z</time>
        <extensions>
          <gpxtpx:TrackPointExtension xmlns:gpxtpx="http://www.garmin.com/xmlschemas/TrackPointExtension/v1">
            <gpxtpx:hr>140</gpxtpx:hr>
          </gpxtpx:TrackPointExtension>
        </extensions>
      </trkpt>
      <trkpt lat="46.79101" lon="-1.58908">
        <ele>45</ele>
        <time>2024-05-10T08:04:18Z</time>
        <extensions>
          <gpxtpx:TrackPointExtension xmlns:gpxtpx="http://www.garmin.com/xmlschemas/TrackPointExtension/v1">
            <gpxtpx:hr>138</gpxtpx:hr>
          </gpxtpx:TrackPointExtension>
        </extensions>
      </trkpt>
      <trkpt lat="46.79104" lon="-1.58912">
        <ele>44.8</ele>
        <time>2024-05-10T08:04:19Z</time>
        <extensions>
          <gpxtpx:TrackPointExtension xmlns:gpxtpx="http://www.garmin.com/xmlschemas/TrackPointExtension/v1">
            <gpxtpx:hr>138</gpxtpx:hr>
          </gpxtpx:TrackPointExtension>
        </extensions>
      </trkpt>
      <trkpt lat="46.79107" lon="-1.58915">
        <ele>44.6</ele>
        <time>2024-05-10T08:04:20Z</time>
        <extensions>
          <gpxtpx:TrackPointExtension xmlns:gpxtpx="http://www.garmin.com/xmlschemas/TrackPointExtension/v1">
            <gpxtpx:hr>138</gpxtpx:hr>
          </gpxtpx:TrackPointExtension>
        </extensions>
      </trkpt>
      <trkpt lat="46.79111" lon="-1.58917">
        <ele>44.4</ele>
        <time>2024-05-10T08:04:21Z</time>
        <extensions>
          <gpxtpx:TrackPointExtension xmlns:gpxtpx="http://www.garmin.com/xmlschemas/TrackPointExtension/v1">
            <gpxtpx:hr>138</gpxtpx:hr>
          </gpxtpx:TrackPointExtension>
        </extensions>
      </trkpt>
      <trkpt lat="46.79114" lon="-1.58917">
        <ele>44.6</ele>
        <time>2024-05-10T08:04:22Z</time>
        <extensions>
          <gpxtpx:TrackPointExtension xmlns:gpxtpx="http://www.garmin.com/xmlschemas/TrackPointExtension/v1">
            <gpxtpx:hr>139</gpxtpx:hr>
          </gpxtpx:TrackPointExtension>
        </extensions>
      </trkpt>
      <trkpt lat="46.79117" lon="-1.58917">
        <ele>44.4</ele>
        <time>2024-05-10T08:04:23Z</time>
        <extensions>
          <gpxtpx:TrackPointExtension xmlns:gpxtpx="http://www.garmin.com/xmlschemas/TrackPointExtension/v1">
            <gpxtpx:hr>140</gpxtpx:hr>
          </gpxtpx:TrackPointExtension>
        </extensions>
      </trkpt>
      <trkpt lat="46.79121" lon="-1.58916">
        <ele>44.4</ele>
        <time>2024-05-10T08:04:24Z</time>
        <extensions>
          <gpxtpx:TrackPointExtension xmlns:gpxtpx="http://www.garmin.com/xmlschemas/TrackPointExtension/v1">
            <gpxtpx:hr>140</gpxtpx:hr>
          </gpxtpx:TrackPointExtension>
        </extensions>
      </trkpt>
      <trkpt lat="46.79063" lon="-1.58641">
        <ele>51.1</ele>
      </trkpt>
      <trkpt lat="46.78566" lon="-1.58985">
        <ele>49.6</ele>
      </trkpt>
      <trkpt lat="46.7856" lon="-1.58992">
        <ele>49.2</ele>
      </trkpt>
      <trkpt lat="46.78561" lon="-1.58993">
        <ele>52.2</ele>
        <time>2024-05-10T07:52:21Z</time>
        <extensions>
          <gpxtpx:TrackPointExtension xmlns:gpxtpx="http://www.garmin.com/xmlschemas/TrackPointExtension/v1">
            <gpxtpx:hr>136</gpxtpx:hr>
          </gpxtpx:TrackPointExtension>
        </extensions>
      </trkpt>
      <trkpt lat="46.78562" lon="-1.59">
        <ele>52</ele>
        <time>2024-05-10T07:52:22Z</time>
        <extensions>
          <gpxtpx:TrackPointExtension xmlns:gpxtpx="http://www.garmin.com/xmlschemas/TrackPointExtension/v1">
            <gpxtpx:hr>135</gpxtpx:hr>
          </gpxtpx:TrackPointExtension>
        </extensions>
      </trkpt>
      <trkpt lat="46.78563" lon="-1.59002">
        <ele>51.6</ele>
        <time>2024-05-10T07:52:23Z</time>
        <extensions>
          <gpxtpx:TrackPointExtension xmlns:gpxtpx="http://www.garmin.com/xmlschemas/TrackPointExtension/v1">
            <gpxtpx:hr>135</gpxtpx:hr>
          </gpxtpx:TrackPointExtension>
        </extensions>
      </trkpt>
      <trkpt lat="46.78565" lon="-1.59006">
        <ele>51.4</ele>
        <time>2024-05-10T07:52:24Z</time>
        <extensions>
          <gpxtpx:TrackPointExtension xmlns:gpxtpx="http://www.garmin.com/xmlschemas/TrackPointExtension/v1">
            <gpxtpx:hr>134</gpxtpx:hr>
          </gpxtpx:TrackPointExtension>
        </extensions>
      </trkpt>
      <trkpt lat="46.78566" lon="-1.59011">
        <ele>51.2</ele>
        <time>2024-05-10T07:52:25Z</time>
        <extensions>
          <gpxtpx:TrackPointExtension xmlns:gpxtpx="http://www.garmin.com/xmlschemas/TrackPointExtension/v1">
            <gpxtpx:hr>134</gpxtpx:hr>
          </gpxtpx:TrackPointExtension>
        </extensions>
      </trkpt>
      <trkpt lat="46.78568" lon="-1.59016">
        <ele>51.2</ele>
        <time>2024-05-10T07:52:26Z</time>
        <extensions>
          <gpxtpx:TrackPointExtension xmlns:gpxtpx="http://www.garmin.com/xmlschemas/TrackPointExtension/v1">
            <gpxtpx:hr>134</gpxtpx:hr>
          </gpxtpx:TrackPointExtension>
        </extensions>
      </trkpt>
      <trkpt lat="46.78569" lon="-1.5902">
        <ele>51</ele>
        <time>2024-05-10T07:52:27Z</time>
        <extensions>
          <gpxtpx:TrackPointExtension xmlns:gpxtpx="http://www.garmin.com/xmlschemas/TrackPointExtension/v1">
            <gpxtpx:hr>134</gpxtpx:hr>
          </gpxtpx:TrackPointExtension>
        </extensions>
      </trkpt>
      <trkpt lat="46.7857" lon="-1.59025">
        <ele>51</ele>
        <time>2024-05-10T07:52:28Z</time>
        <extensions>
          <gpxtpx:TrackPointExtension xmlns:gpxtpx="http://www.garmin.com/xmlschemas/TrackPointExtension/v1">
            <gpxtpx:hr>132</gpxtpx:hr>
          </gpxtpx:TrackPointExtension>
        </extensions>
      </trkpt>
      <trkpt lat="46.78571" lon="-1.59029">
        <ele>50.8</ele>
        <time>2024-05-10T07:52:29Z</time>
        <extensions>
          <gpxtpx:TrackPointExtension xmlns:gpxtpx="http://www.garmin.com/xmlschemas/TrackPointExtension/v1">
            <gpxtpx:hr>132</gpxtpx:hr>
          </gpxtpx:TrackPointExtension>
        </extensions>
      </trkpt>
      <trkpt lat="46.78572" lon="-1.59033">
        <ele>50.8</ele>
        <time>2024-05-10T07:52:30Z</time>
        <extensions>
          <gpxtpx:TrackPointExtension xmlns:gpxtpx="http://www.garmin.com/xmlschemas/TrackPointExtension/v1">
            <gpxtpx:hr>131</gpxtpx:hr>
          </gpxtpx:TrackPointExtension>
        </extensions>
      </trkpt>
      <trkpt lat="46.78573" lon="-1.59038">
        <ele>50.8</ele>
        <time>2024-05-10T07:52:31Z</time>
        <extensions>
          <gpxtpx:TrackPointExtension xmlns:gpxtpx="http://www.garmin.com/xmlschemas/TrackPointExtension/v1">
            <gpxtpx:hr>131</gpxtpx:hr>
          </gpxtpx:TrackPointExtension>
        </extensions>
      </trkpt>
      <trkpt lat="46.78573" lon="-1.59043">
        <ele>50.6</ele>
        <time>2024-05-10T07:52:32Z</time>
        <extensions>
          <gpxtpx:TrackPointExtension xmlns:gpxtpx="http://www.garmin.com/xmlschemas/TrackPointExtension/v1">
            <gpxtpx:hr>131</gpxtpx:hr>
          </gpxtpx:TrackPointExtension>
        </extensions>
      </trkpt>
      <trkpt lat="46.78574" lon="-1.59048">
        <ele>50.4</ele>
        <time>2024-05-10T07:52:33Z</time>
        <extensions>
          <gpxtpx:TrackPointExtension xmlns:gpxtpx="http://www.garmin.com/xmlschemas/TrackPointExtension/v1">
            <gpxtpx:hr>131</gpxtpx:hr>
          </gpxtpx:TrackPointExtension>
        </extensions>
      </trkpt>
      <trkpt lat="46.78574" lon="-1.59054">
        <ele>50.2</ele>
        <time>2024-05-10T07:52:34Z</time>
        <extensions>
          <gpxtpx:TrackPointExtension xmlns:gpxtpx="http://www.garmin.com/xmlschemas/TrackPointExtension/v1">
            <gpxtpx:hr>130</gpxtpx:hr>
          </gpxtpx:TrackPointExtension>
        </extensions>
      </trkpt>
      <trkpt lat="46.78574" lon="-1.5906">
        <ele>50.2</ele>
        <time>2024-05-10T07:52:35Z</time>
        <extensions>
          <gpxtpx:TrackPointExtension xmlns:gpxtpx="http://www.garmin.com/xmlschemas/TrackPointExtension/v1">
            <gpxtpx:hr>130</gpxtpx:hr>
          </gpxtpx:TrackPointExtension>
        </extensions>
      </trkpt>
      <trkpt lat="46.78574" lon="-1.59067">
        <ele>50</ele>
        <time>2024-05-10T07:52:36Z</time>
        <extensions>
          <gpxtpx:TrackPointExtension xmlns:gpxtpx="http://www.garmin.com/xmlschemas/TrackPointExtension/v1">
            <gpxtpx:hr>129</gpxtpx:hr>
          </gpxtpx:TrackPointExtension>
        </extensions>
      </trkpt>
      <trkpt lat="46.78574" lon="-1.59073">
        <ele>49.8</ele>
        <time>2024-05-10T07:52:37Z</time>
        <extensions>
          <gpxtpx:TrackPointExtension xmlns:gpxtpx="http://www.garmin.com/xmlschemas/TrackPointExtension/v1">
            <gpxtpx:hr>129</gpxtpx:hr>
          </gpxtpx:TrackPointExtension>
        </extensions>
      </trkpt>
      <trkpt lat="46.78573" lon="-1.5908">
        <ele>49.8</ele>
        <time>2024-05-10T07:52:39Z</time>
        <extensions>
          <gpxtpx:TrackPointExtension xmlns:gpxtpx="http://www.garmin.com/xmlschemas/TrackPointExtension/v1">
            <gpxtpx:hr>129</gpxtpx:hr>
          </gpxtpx:TrackPointExtension>
        </extensions>
      </trkpt>
      <trkpt lat="46.78571" lon="-1.59086">
        <ele>49.6</ele>
        <time>2024-05-10T07:52:40Z</time>
        <extensions>
          <gpxtpx:TrackPointExtension xmlns:gpxtpx="http://www.garmin.com/xmlschemas/TrackPointExtension/v1">
            <gpxtpx:hr>129</gpxtpx:hr>
          </gpxtpx:TrackPointExtension>
        </extensions>
      </trkpt>
      <trkpt lat="46.7857" lon="-1.59091">
        <ele>49.4</ele>
        <time>2024-05-10T07:52:41Z</time>
        <extensions>
          <gpxtpx:TrackPointExtension xmlns:gpxtpx="http://www.garmin.com/xmlschemas/TrackPointExtension/v1">
            <gpxtpx:hr>129</gpxtpx:hr>
          </gpxtpx:TrackPointExtension>
        </extensions>
      </trkpt>
      <trkpt lat="46.78568" lon="-1.59096">
        <ele>49.4</ele>
        <time>2024-05-10T07:52:42Z</time>
        <extensions>
          <gpxtpx:TrackPointExtension xmlns:gpxtpx="http://www.garmin.com/xmlschemas/TrackPointExtension/v1">
            <gpxtpx:hr>129</gpxtpx:hr>
          </gpxtpx:TrackPointExtension>
        </extensions>
      </trkpt>
      <trkpt lat="46.78566" lon="-1.59101">
        <ele>49.2</ele>
        <time>2024-05-10T07:52:43Z</time>
        <extensions>
          <gpxtpx:TrackPointExtension xmlns:gpxtpx="http://www.garmin.com/xmlschemas/TrackPointExtension/v1">
            <gpxtpx:hr>129</gpxtpx:hr>
          </gpxtpx:TrackPointExtension>
        </extensions>
      </trkpt>
      <trkpt lat="46.78565" lon="-1.59105">
        <ele>49</ele>
        <time>2024-05-10T07:52:44Z</time>
        <extensions>
          <gpxtpx:TrackPointExtension xmlns:gpxtpx="http://www.garmin.com/xmlschemas/TrackPointExtension/v1">
            <gpxtpx:hr>128</gpxtpx:hr>
          </gpxtpx:TrackPointExtension>
        </extensions>
      </trkpt>
      <trkpt lat="46.78563" lon="-1.5911">
        <ele>49</ele>
        <time>2024-05-10T07:52:45Z</time>
        <extensions>
          <gpxtpx:TrackPointExtension xmlns:gpxtpx="http://www.garmin.com/xmlschemas/TrackPointExtension/v1">
            <gpxtpx:hr>128</gpxtpx:hr>
          </gpxtpx:TrackPointExtension>
        </extensions>
      </trkpt>
      <trkpt lat="46.78561" lon="-1.59114">
        <ele>48.8</ele>
        <time>2024-05-10T07:52:46Z</time>
        <extensions>
          <gpxtpx:TrackPointExtension xmlns:gpxtpx="http://www.garmin.com/xmlschemas/TrackPointExtension/v1">
            <gpxtpx:hr>128</gpxtpx:hr>
          </gpxtpx:TrackPointExtension>
        </extensions>
      </trkpt>
      <trkpt lat="46.78557" lon="-1.59121">
        <ele>48.6</ele>
        <time>2024-05-10T07:52:47Z</time>
        <extensions>
          <gpxtpx:TrackPointExtension xmlns:gpxtpx="http://www.garmin.com/xmlschemas/TrackPointExtension/v1">
            <gpxtpx:hr>128</gpxtpx:hr>
          </gpxtpx:TrackPointExtension>
        </extensions>
      </trkpt>
      <trkpt lat="46.78556" lon="-1.59123">
        <ele>48.4</ele>
        <time>2024-05-10T07:52:48Z</time>
        <extensions>
          <gpxtpx:TrackPointExtension xmlns:gpxtpx="http://www.garmin.com/xmlschemas/TrackPointExtension/v1">
            <gpxtpx:hr>128</gpxtpx:hr>
          </gpxtpx:TrackPointExtension>
        </extensions>
      </trkpt>
      <trkpt lat="46.78553" lon="-1.59131">
        <ele>48.4</ele>
        <time>2024-05-10T07:52:49Z</time>
        <extensions>
          <gpxtpx:TrackPointExtension xmlns:gpxtpx="http://www.garmin.com/xmlschemas/TrackPointExtension/v1">
            <gpxtpx:hr>129</gpxtpx:hr>
          </gpxtpx:TrackPointExtension>
        </extensions>
      </trkpt>
      <trkpt lat="46.7855" lon="-1.59138">
        <ele>48.2</ele>
        <time>2024-05-10T07:52:50Z</time>
        <extensions>
          <gpxtpx:TrackPointExtension xmlns:gpxtpx="http://www.garmin.com/xmlschemas/TrackPointExtension/v1">
            <gpxtpx:hr>129</gpxtpx:hr>
          </gpxtpx:TrackPointExtension>
        </extensions>
      </trkpt>
      <trkpt lat="46.78547" lon="-1.59144">
        <ele>48.2</ele>
        <time>2024-05-10T07:52:51Z</time>
        <extensions>
          <gpxtpx:TrackPointExtension xmlns:gpxtpx="http://www.garmin.com/xmlschemas/TrackPointExtension/v1">
            <gpxtpx:hr>128</gpxtpx:hr>
          </gpxtpx:TrackPointExtension>
        </extensions>
      </trkpt>
      <trkpt lat="46.78545" lon="-1.5915">
        <ele>48</ele>
        <time>2024-05-10T07:52:52Z</time>
        <extensions>
          <gpxtpx:TrackPointExtension xmlns:gpxtpx="http://www.garmin.com/xmlschemas/TrackPointExtension/v1">
            <gpxtpx:hr>128</gpxtpx:hr>
          </gpxtpx:TrackPointExtension>
        </extensions>
      </trkpt>
      <trkpt lat="46.78542" lon="-1.59156">
        <ele>48</ele>
        <time>2024-05-10T07:52:53Z</time>
        <extensions>
          <gpxtpx:TrackPointExtension xmlns:gpxtpx="http://www.garmin.com/xmlschemas/TrackPointExtension/v1">
            <gpxtpx:hr>128</gpxtpx:hr>
          </gpxtpx:TrackPointExtension>
        </extensions>
      </trkpt>
      <trkpt lat="46.78538" lon="-1.59163">
        <ele>47.8</ele>
        <time>2024-05-10T07:52:54Z</time>
        <extensions>
          <gpxtpx:TrackPointExtension xmlns:gpxtpx="http://www.garmin.com/xmlschemas/TrackPointExtension/v1">
            <gpxtpx:hr>128</gpxtpx:hr>
          </gpxtpx:TrackPointExtension>
        </extensions>
      </trkpt>
      <trkpt lat="46.78537" lon="-1.59165">
        <ele>47.6</ele>
        <time>2024-05-10T07:52:55Z</time>
        <extensions>
          <gpxtpx:TrackPointExtension xmlns:gpxtpx="http://www.garmin.com/xmlschemas/TrackPointExtension/v1">
            <gpxtpx:hr>127</gpxtpx:hr>
          </gpxtpx:TrackPointExtension>
        </extensions>
      </trkpt>
      <trkpt lat="46.78535" lon="-1.5917">
        <ele>47.4</ele>
        <time>2024-05-10T07:52:56Z</time>
        <extensions>
          <gpxtpx:TrackPointExtension xmlns:gpxtpx="http://www.garmin.com/xmlschemas/TrackPointExtension/v1">
            <gpxtpx:hr>127</gpxtpx:hr>
          </gpxtpx:TrackPointExtension>
        </extensions>
      </trkpt>
      <trkpt lat="46.78533" lon="-1.59174">
        <ele>47.4</ele>
        <time>2024-05-10T07:52:57Z</time>
        <extensions>
          <gpxtpx:TrackPointExtension xmlns:gpxtpx="http://www.garmin.com/xmlschemas/TrackPointExtension/v1">
            <gpxtpx:hr>127</gpxtpx:hr>
          </gpxtpx:TrackPointExtension>
        </extensions>
      </trkpt>
      <trkpt lat="46.78531" lon="-1.59177">
        <ele>47.2</ele>
        <time>2024-05-10T07:52:58Z</time>
        <extensions>
          <gpxtpx:TrackPointExtension xmlns:gpxtpx="http://www.garmin.com/xmlschemas/TrackPointExtension/v1">
            <gpxtpx:hr>128</gpxtpx:hr>
          </gpxtpx:TrackPointExtension>
        </extensions>
      </trkpt>
      <trkpt lat="46.78529" lon="-1.59181">
        <ele>47.2</ele>
        <time>2024-05-10T07:52:59Z</time>
        <extensions>
          <gpxtpx:TrackPointExtension xmlns:gpxtpx="http://www.garmin.com/xmlschemas/TrackPointExtension/v1">
            <gpxtpx:hr>128</gpxtpx:hr>
          </gpxtpx:TrackPointExtension>
        </extensions>
      </trkpt>
      <trkpt lat="46.78527" lon="-1.59184">
        <ele>47</ele>
        <time>2024-05-10T07:53:00Z</time>
        <extensions>
          <gpxtpx:TrackPointExtension xmlns:gpxtpx="http://www.garmin.com/xmlschemas/TrackPointExtension/v1">
            <gpxtpx:hr>129</gpxtpx:hr>
          </gpxtpx:TrackPointExtension>
        </extensions>
      </trkpt>
      <trkpt lat="46.78526" lon="-1.59188">
        <ele>47</ele>
        <time>2024-05-10T07:53:01Z</time>
        <extensions>
          <gpxtpx:TrackPointExtension xmlns:gpxtpx="http://www.garmin.com/xmlschemas/TrackPointExtension/v1">
            <gpxtpx:hr>129</gpxtpx:hr>
          </gpxtpx:TrackPointExtension>
        </extensions>
      </trkpt>
      <trkpt lat="46.78524" lon="-1.59192">
        <ele>46.8</ele>
        <time>2024-05-10T07:53:02Z</time>
        <extensions>
          <gpxtpx:TrackPointExtension xmlns:gpxtpx="http://www.garmin.com/xmlschemas/TrackPointExtension/v1">
            <gpxtpx:hr>129</gpxtpx:hr>
          </gpxtpx:TrackPointExtension>
        </extensions>
      </trkpt>
      <trkpt lat="46.78522" lon="-1.59196">
        <ele>46.8</ele>
        <time>2024-05-10T07:53:03Z</time>
        <extensions>
          <gpxtpx:TrackPointExtension xmlns:gpxtpx="http://www.garmin.com/xmlschemas/TrackPointExtension/v1">
            <gpxtpx:hr>130</gpxtpx:hr>
          </gpxtpx:TrackPointExtension>
        </extensions>
      </trkpt>
      <trkpt lat="46.78518" lon="-1.59202">
        <ele>46.8</ele>
        <time>2024-05-10T07:53:04Z</time>
        <extensions>
          <gpxtpx:TrackPointExtension xmlns:gpxtpx="http://www.garmin.com/xmlschemas/TrackPointExtension/v1">
            <gpxtpx:hr>129</gpxtpx:hr>
          </gpxtpx:TrackPointExtension>
        </extensions>
      </trkpt>
      <trkpt lat="46.78517" lon="-1.59204">
        <ele>46.6</ele>
        <time>2024-05-10T07:53:05Z</time>
        <extensions>
          <gpxtpx:TrackPointExtension xmlns:gpxtpx="http://www.garmin.com/xmlschemas/TrackPointExtension/v1">
            <gpxtpx:hr>130</gpxtpx:hr>
          </gpxtpx:TrackPointExtension>
        </extensions>
      </trkpt>
      <trkpt lat="46.78514" lon="-1.59209">
        <ele>46.6</ele>
        <time>2024-05-10T07:53:06Z</time>
        <extensions>
          <gpxtpx:TrackPointExtension xmlns:gpxtpx="http://www.garmin.com/xmlschemas/TrackPointExtension/v1">
            <gpxtpx:hr>130</gpxtpx:hr>
          </gpxtpx:TrackPointExtension>
        </extensions>
      </trkpt>
      <trkpt lat="46.78512" lon="-1.59213">
        <ele>46.4</ele>
        <time>2024-05-10T07:53:07Z</time>
        <extensions>
          <gpxtpx:TrackPointExtension xmlns:gpxtpx="http://www.garmin.com/xmlschemas/TrackPointExtension/v1">
            <gpxtpx:hr>130</gpxtpx:hr>
          </gpxtpx:TrackPointExtension>
        </extensions>
      </trkpt>
      <trkpt lat="46.7851" lon="-1.59217">
        <ele>46.4</ele>
        <time>2024-05-10T07:53:08Z</time>
        <extensions>
          <gpxtpx:TrackPointExtension xmlns:gpxtpx="http://www.garmin.com/xmlschemas/TrackPointExtension/v1">
            <gpxtpx:hr>131</gpxtpx:hr>
          </gpxtpx:TrackPointExtension>
        </extensions>
      </trkpt>
      <trkpt lat="46.78508" lon="-1.59221">
        <ele>46.4</ele>
        <time>2024-05-10T07:53:09Z</time>
        <extensions>
          <gpxtpx:TrackPointExtension xmlns:gpxtpx="http://www.garmin.com/xmlschemas/TrackPointExtension/v1">
            <gpxtpx:hr>131</gpxtpx:hr>
          </gpxtpx:TrackPointExtension>
        </extensions>
      </trkpt>
      <trkpt lat="46.78506" lon="-1.59225">
        <ele>46.2</ele>
        <time>2024-05-10T07:53:10Z</time>
        <extensions>
          <gpxtpx:TrackPointExtension xmlns:gpxtpx="http://www.garmin.com/xmlschemas/TrackPointExtension/v1">
            <gpxtpx:hr>131</gpxtpx:hr>
          </gpxtpx:TrackPointExtension>
        </extensions>
      </trkpt>
      <trkpt lat="46.78504" lon="-1.59229">
        <ele>46.2</ele>
        <time>2024-05-10T07:53:11Z</time>
        <extensions>
          <gpxtpx:TrackPointExtension xmlns:gpxtpx="http://www.garmin.com/xmlschemas/TrackPointExtension/v1">
            <gpxtpx:hr>132</gpxtpx:hr>
          </gpxtpx:TrackPointExtension>
        </extensions>
      </trkpt>
      <trkpt lat="46.78502" lon="-1.59235">
        <ele>46</ele>
        <time>2024-05-10T07:53:12Z</time>
        <extensions>
          <gpxtpx:TrackPointExtension xmlns:gpxtpx="http://www.garmin.com/xmlschemas/TrackPointExtension/v1">
            <gpxtpx:hr>132</gpxtpx:hr>
          </gpxtpx:TrackPointExtension>
        </extensions>
      </trkpt>
      <trkpt lat="46.78501" lon="-1.59237">
        <ele>45.8</ele>
        <time>2024-05-10T07:53:13Z</time>
        <extensions>
          <gpxtpx:TrackPointExtension xmlns:gpxtpx="http://www.garmin.com/xmlschemas/TrackPointExtension/v1">
            <gpxtpx:hr>132</gpxtpx:hr>
          </gpxtpx:TrackPointExtension>
        </extensions>
      </trkpt>
      <trkpt lat="46.78499" lon="-1.59242">
        <ele>45.8</ele>
        <time>2024-05-10T07:53:14Z</time>
        <extensions>
          <gpxtpx:TrackPointExtension xmlns:gpxtpx="http://www.garmin.com/xmlschemas/TrackPointExtension/v1">
            <gpxtpx:hr>133</gpxtpx:hr>
          </gpxtpx:TrackPointExtension>
        </extensions>
      </trkpt>
      <trkpt lat="46.78497" lon="-1.59247">
        <ele>45.8</ele>
        <time>2024-05-10T07:53:15Z</time>
        <extensions>
          <gpxtpx:TrackPointExtension xmlns:gpxtpx="http://www.garmin.com/xmlschemas/TrackPointExtension/v1">
            <gpxtpx:hr>133</gpxtpx:hr>
          </gpxtpx:TrackPointExtension>
        </extensions>
      </trkpt>
      <trkpt lat="46.78495" lon="-1.59251">
        <ele>45.6</ele>
        <time>2024-05-10T07:53:16Z</time>
        <extensions>
          <gpxtpx:TrackPointExtension xmlns:gpxtpx="http://www.garmin.com/xmlschemas/TrackPointExtension/v1">
            <gpxtpx:hr>134</gpxtpx:hr>
          </gpxtpx:TrackPointExtension>
        </extensions>
      </trkpt>
      <trkpt lat="46.78492" lon="-1.59255">
        <ele>45.6</ele>
        <time>2024-05-10T07:53:17Z</time>
        <extensions>
          <gpxtpx:TrackPointExtension xmlns:gpxtpx="http://www.garmin.com/xmlschemas/TrackPointExtension/v1">
            <gpxtpx:hr>135</gpxtpx:hr>
          </gpxtpx:TrackPointExtension>
        </extensions>
      </trkpt>
      <trkpt lat="46.7849" lon="-1.59259">
        <ele>45.4</ele>
        <time>2024-05-10T07:53:18Z</time>
        <extensions>
          <gpxtpx:TrackPointExtension xmlns:gpxtpx="http://www.garmin.com/xmlschemas/TrackPointExtension/v1">
            <gpxtpx:hr>135</gpxtpx:hr>
          </gpxtpx:TrackPointExtension>
        </extensions>
      </trkpt>
      <trkpt lat="46.78488" lon="-1.59262">
        <ele>45.2</ele>
        <time>2024-05-10T07:53:19Z</time>
        <extensions>
          <gpxtpx:TrackPointExtension xmlns:gpxtpx="http://www.garmin.com/xmlschemas/TrackPointExtension/v1">
            <gpxtpx:hr>135</gpxtpx:hr>
          </gpxtpx:TrackPointExtension>
        </extensions>
      </trkpt>
      <trkpt lat="46.78486" lon="-1.59266">
        <ele>45.2</ele>
        <time>2024-05-10T07:53:20Z</time>
        <extensions>
          <gpxtpx:TrackPointExtension xmlns:gpxtpx="http://www.garmin.com/xmlschemas/TrackPointExtension/v1">
            <gpxtpx:hr>135</gpxtpx:hr>
          </gpxtpx:TrackPointExtension>
        </extensions>
      </trkpt>
      <trkpt lat="46.78485" lon="-1.5927">
        <ele>45.2</ele>
        <time>2024-05-10T07:53:21Z</time>
        <extensions>
          <gpxtpx:TrackPointExtension xmlns:gpxtpx="http://www.garmin.com/xmlschemas/TrackPointExtension/v1">
            <gpxtpx:hr>135</gpxtpx:hr>
          </gpxtpx:TrackPointExtension>
        </extensions>
      </trkpt>
      <trkpt lat="46.78483" lon="-1.59275">
        <ele>45</ele>
        <time>2024-05-10T07:53:22Z</time>
        <extensions>
          <gpxtpx:TrackPointExtension xmlns:gpxtpx="http://www.garmin.com/xmlschemas/TrackPointExtension/v1">
            <gpxtpx:hr>135</gpxtpx:hr>
          </gpxtpx:TrackPointExtension>
        </extensions>
      </trkpt>
      <trkpt lat="46.78482" lon="-1.59279">
        <ele>45</ele>
        <time>2024-05-10T07:53:23Z</time>
        <extensions>
          <gpxtpx:TrackPointExtension xmlns:gpxtpx="http://www.garmin.com/xmlschemas/TrackPointExtension/v1">
            <gpxtpx:hr>135</gpxtpx:hr>
          </gpxtpx:TrackPointExtension>
        </extensions>
      </trkpt>
      <trkpt lat="46.7848" lon="-1.59284">
        <ele>44.8</ele>
        <time>2024-05-10T07:53:24Z</time>
        <extensions>
          <gpxtpx:TrackPointExtension xmlns:gpxtpx="http://www.garmin.com/xmlschemas/TrackPointExtension/v1">
            <gpxtpx:hr>135</gpxtpx:hr>
          </gpxtpx:TrackPointExtension>
        </extensions>
      </trkpt>
      <trkpt lat="46.78478" lon="-1.59289">
        <ele>44.6</ele>
        <time>2024-05-10T07:53:25Z</time>
        <extensions>
          <gpxtpx:TrackPointExtension xmlns:gpxtpx="http://www.garmin.com/xmlschemas/TrackPointExtension/v1">
            <gpxtpx:hr>135</gpxtpx:hr>
          </gpxtpx:TrackPointExtension>
        </extensions>
      </trkpt>
      <trkpt lat="46.78475" lon="-1.59293">
        <ele>44.6</ele>
        <time>2024-05-10T07:53:26Z</time>
        <extensions>
          <gpxtpx:TrackPointExtension xmlns:gpxtpx="http://www.garmin.com/xmlschemas/TrackPointExtension/v1">
            <gpxtpx:hr>135</gpxtpx:hr>
          </gpxtpx:TrackPointExtension>
        </extensions>
      </trkpt>
      <trkpt lat="46.78473" lon="-1.59297">
        <ele>44.6</ele>
        <time>2024-05-10T07:53:27Z</time>
        <extensions>
          <gpxtpx:TrackPointExtension xmlns:gpxtpx="http://www.garmin.com/xmlschemas/TrackPointExtension/v1">
            <gpxtpx:hr>135</gpxtpx:hr>
          </gpxtpx:TrackPointExtension>
        </extensions>
      </trkpt>
      <trkpt lat="46.78471" lon="-1.59301">
        <ele>44.6</ele>
        <time>2024-05-10T07:53:28Z</time>
        <extensions>
          <gpxtpx:TrackPointExtension xmlns:gpxtpx="http://www.garmin.com/xmlschemas/TrackPointExtension/v1">
            <gpxtpx:hr>134</gpxtpx:hr>
          </gpxtpx:TrackPointExtension>
        </extensions>
      </trkpt>
      <trkpt lat="46.78468" lon="-1.59305">
        <ele>44.6</ele>
        <time>2024-05-10T07:53:29Z</time>
        <extensions>
          <gpxtpx:TrackPointExtension xmlns:gpxtpx="http://www.garmin.com/xmlschemas/TrackPointExtension/v1">
            <gpxtpx:hr>134</gpxtpx:hr>
          </gpxtpx:TrackPointExtension>
        </extensions>
      </trkpt>
      <trkpt lat="46.78466" lon="-1.59308">
        <ele>44.4</ele>
        <time>2024-05-10T07:53:30Z</time>
        <extensions>
          <gpxtpx:TrackPointExtension xmlns:gpxtpx="http://www.garmin.com/xmlschemas/TrackPointExtension/v1">
            <gpxtpx:hr>135</gpxtpx:hr>
          </gpxtpx:TrackPointExtension>
        </extensions>
      </trkpt>
      <trkpt lat="46.78464" lon="-1.59312">
        <ele>44.4</ele>
        <time>2024-05-10T07:53:31Z</time>
        <extensions>
          <gpxtpx:TrackPointExtension xmlns:gpxtpx="http://www.garmin.com/xmlschemas/TrackPointExtension/v1">
            <gpxtpx:hr>135</gpxtpx:hr>
          </gpxtpx:TrackPointExtension>
        </extensions>
      </trkpt>
      <trkpt lat="46.78462" lon="-1.59317">
        <ele>44.2</ele>
        <time>2024-05-10T07:53:32Z</time>
        <extensions>
          <gpxtpx:TrackPointExtension xmlns:gpxtpx="http://www.garmin.com/xmlschemas/TrackPointExtension/v1">
            <gpxtpx:hr>136</gpxtpx:hr>
          </gpxtpx:TrackPointExtension>
        </extensions>
      </trkpt>
      <trkpt lat="46.78459" lon="-1.59322">
        <ele>44.2</ele>
        <time>2024-05-10T07:53:33Z</time>
        <extensions>
          <gpxtpx:TrackPointExtension xmlns:gpxtpx="http://www.garmin.com/xmlschemas/TrackPointExtension/v1">
            <gpxtpx:hr>136</gpxtpx:hr>
          </gpxtpx:TrackPointExtension>
        </extensions>
      </trkpt>
      <trkpt lat="46.78457" lon="-1.59326">
        <ele>44</ele>
        <time>2024-05-10T07:53:34Z</time>
        <extensions>
          <gpxtpx:TrackPointExtension xmlns:gpxtpx="http://www.garmin.com/xmlschemas/TrackPointExtension/v1">
            <gpxtpx:hr>136</gpxtpx:hr>
          </gpxtpx:TrackPointExtension>
        </extensions>
      </trkpt>
      <trkpt lat="46.78453" lon="-1.5933">
        <ele>44</ele>
        <time>2024-05-10T07:53:35Z</time>
        <extensions>
          <gpxtpx:TrackPointExtension xmlns:gpxtpx="http://www.garmin.com/xmlschemas/TrackPointExtension/v1">
            <gpxtpx:hr>136</gpxtpx:hr>
          </gpxtpx:TrackPointExtension>
        </extensions>
      </trkpt>
      <trkpt lat="46.7845" lon="-1.59334">
        <ele>43.8</ele>
        <time>2024-05-10T07:53:36Z</time>
        <extensions>
          <gpxtpx:TrackPointExtension xmlns:gpxtpx="http://www.garmin.com/xmlschemas/TrackPointExtension/v1">
            <gpxtpx:hr>137</gpxtpx:hr>
          </gpxtpx:TrackPointExtension>
        </extensions>
      </trkpt>
      <trkpt lat="46.78446" lon="-1.59337">
        <ele>43.8</ele>
        <time>2024-05-10T07:53:37Z</time>
        <extensions>
          <gpxtpx:TrackPointExtension xmlns:gpxtpx="http://www.garmin.com/xmlschemas/TrackPointExtension/v1">
            <gpxtpx:hr>137</gpxtpx:hr>
          </gpxtpx:TrackPointExtension>
        </extensions>
      </trkpt>
      <trkpt lat="46.78443" lon="-1.59341">
        <ele>43.6</ele>
        <time>2024-05-10T07:53:38Z</time>
        <extensions>
          <gpxtpx:TrackPointExtension xmlns:gpxtpx="http://www.garmin.com/xmlschemas/TrackPointExtension/v1">
            <gpxtpx:hr>137</gpxtpx:hr>
          </gpxtpx:TrackPointExtension>
        </extensions>
      </trkpt>
      <trkpt lat="46.7844" lon="-1.59345">
        <ele>43.4</ele>
        <time>2024-05-10T07:53:39Z</time>
        <extensions>
          <gpxtpx:TrackPointExtension xmlns:gpxtpx="http://www.garmin.com/xmlschemas/TrackPointExtension/v1">
            <gpxtpx:hr>137</gpxtpx:hr>
          </gpxtpx:TrackPointExtension>
        </extensions>
      </trkpt>
      <trkpt lat="46.78436" lon="-1.5935">
        <ele>43</ele>
        <time>2024-05-10T07:53:40Z</time>
        <extensions>
          <gpxtpx:TrackPointExtension xmlns:gpxtpx="http://www.garmin.com/xmlschemas/TrackPointExtension/v1">
            <gpxtpx:hr>136</gpxtpx:hr>
          </gpxtpx:TrackPointExtension>
        </extensions>
      </trkpt>
      <trkpt lat="46.78431" lon="-1.59355">
        <ele>42.6</ele>
        <time>2024-05-10T07:53:41Z</time>
        <extensions>
          <gpxtpx:TrackPointExtension xmlns:gpxtpx="http://www.garmin.com/xmlschemas/TrackPointExtension/v1">
            <gpxtpx:hr>136</gpxtpx:hr>
          </gpxtpx:TrackPointExtension>
        </extensions>
      </trkpt>
      <trkpt lat="46.78426" lon="-1.59361">
        <ele>41.8</ele>
        <time>2024-05-10T07:53:42Z</time>
        <extensions>
          <gpxtpx:TrackPointExtension xmlns:gpxtpx="http://www.garmin.com/xmlschemas/TrackPointExtension/v1">
            <gpxtpx:hr>136</gpxtpx:hr>
          </gpxtpx:TrackPointExtension>
        </extensions>
      </trkpt>
      <trkpt lat="46.78421" lon="-1.59367">
        <ele>41.2</ele>
        <time>2024-05-10T07:53:43Z</time>
        <extensions>
          <gpxtpx:TrackPointExtension xmlns:gpxtpx="http://www.garmin.com/xmlschemas/TrackPointExtension/v1">
            <gpxtpx:hr>136</gpxtpx:hr>
          </gpxtpx:TrackPointExtension>
        </extensions>
      </trkpt>
      <trkpt lat="46.78414" lon="-1.59374">
        <ele>40.4</ele>
        <time>2024-05-10T07:53:44Z</time>
        <extensions>
          <gpxtpx:TrackPointExtension xmlns:gpxtpx="http://www.garmin.com/xmlschemas/TrackPointExtension/v1">
            <gpxtpx:hr>135</gpxtpx:hr>
          </gpxtpx:TrackPointExtension>
        </extensions>
      </trkpt>
      <trkpt lat="46.78407" lon="-1.59382">
        <ele>39.6</ele>
        <time>2024-05-10T07:53:45Z</time>
        <extensions>
          <gpxtpx:TrackPointExtension xmlns:gpxtpx="http://www.garmin.com/xmlschemas/TrackPointExtension/v1">
            <gpxtpx:hr>135</gpxtpx:hr>
          </gpxtpx:TrackPointExtension>
        </extensions>
      </trkpt>
      <trkpt lat="46.78401" lon="-1.5939">
        <ele>38.8</ele>
        <time>2024-05-10T07:53:46Z</time>
        <extensions>
          <gpxtpx:TrackPointExtension xmlns:gpxtpx="http://www.garmin.com/xmlschemas/TrackPointExtension/v1">
            <gpxtpx:hr>135</gpxtpx:hr>
          </gpxtpx:TrackPointExtension>
        </extensions>
      </trkpt>
      <trkpt lat="46.78396" lon="-1.59399">
        <ele>38</ele>
        <time>2024-05-10T07:53:47Z</time>
        <extensions>
          <gpxtpx:TrackPointExtension xmlns:gpxtpx="http://www.garmin.com/xmlschemas/TrackPointExtension/v1">
            <gpxtpx:hr>134</gpxtpx:hr>
          </gpxtpx:TrackPointExtension>
        </extensions>
      </trkpt>
      <trkpt lat="46.78391" lon="-1.59408">
        <ele>37.2</ele>
        <time>2024-05-10T07:53:48Z</time>
        <extensions>
          <gpxtpx:TrackPointExtension xmlns:gpxtpx="http://www.garmin.com/xmlschemas/TrackPointExtension/v1">
            <gpxtpx:hr>134</gpxtpx:hr>
          </gpxtpx:TrackPointExtension>
        </extensions>
      </trkpt>
      <trkpt lat="46.78386" lon="-1.59416">
        <ele>36.2</ele>
        <time>2024-05-10T07:53:49Z</time>
        <extensions>
          <gpxtpx:TrackPointExtension xmlns:gpxtpx="http://www.garmin.com/xmlschemas/TrackPointExtension/v1">
            <gpxtpx:hr>133</gpxtpx:hr>
          </gpxtpx:TrackPointExtension>
        </extensions>
      </trkpt>
      <trkpt lat="46.7838" lon="-1.59424">
        <ele>35.2</ele>
        <time>2024-05-10T07:53:50Z</time>
        <extensions>
          <gpxtpx:TrackPointExtension xmlns:gpxtpx="http://www.garmin.com/xmlschemas/TrackPointExtension/v1">
            <gpxtpx:hr>132</gpxtpx:hr>
          </gpxtpx:TrackPointExtension>
        </extensions>
      </trkpt>
      <trkpt lat="46.78374" lon="-1.59431">
        <ele>34.2</ele>
        <time>2024-05-10T07:53:51Z</time>
        <extensions>
          <gpxtpx:TrackPointExtension xmlns:gpxtpx="http://www.garmin.com/xmlschemas/TrackPointExtension/v1">
            <gpxtpx:hr>132</gpxtpx:hr>
          </gpxtpx:TrackPointExtension>
        </extensions>
      </trkpt>
      <trkpt lat="46.78368" lon="-1.59436">
        <ele>33</ele>
        <time>2024-05-10T07:53:52Z</time>
        <extensions>
          <gpxtpx:TrackPointExtension xmlns:gpxtpx="http://www.garmin.com/xmlschemas/TrackPointExtension/v1">
            <gpxtpx:hr>132</gpxtpx:hr>
          </gpxtpx:TrackPointExtension>
        </extensions>
      </trkpt>
      <trkpt lat="46.78361" lon="-1.5944">
        <ele>31.8</ele>
        <time>2024-05-10T07:53:53Z</time>
        <extensions>
          <gpxtpx:TrackPointExtension xmlns:gpxtpx="http://www.garmin.com/xmlschemas/TrackPointExtension/v1">
            <gpxtpx:hr>131</gpxtpx:hr>
          </gpxtpx:TrackPointExtension>
        </extensions>
      </trkpt>
      <trkpt lat="46.78354" lon="-1.59442">
        <ele>31</ele>
        <time>2024-05-10T07:53:54Z</time>
        <extensions>
          <gpxtpx:TrackPointExtension xmlns:gpxtpx="http://www.garmin.com/xmlschemas/TrackPointExtension/v1">
            <gpxtpx:hr>130</gpxtpx:hr>
          </gpxtpx:TrackPointExtension>
        </extensions>
      </trkpt>
      <trkpt lat="46.78348" lon="-1.59443">
        <ele>30.2</ele>
        <time>2024-05-10T07:53:55Z</time>
        <extensions>
          <gpxtpx:TrackPointExtension xmlns:gpxtpx="http://www.garmin.com/xmlschemas/TrackPointExtension/v1">
            <gpxtpx:hr>129</gpxtpx:hr>
          </gpxtpx:TrackPointExtension>
        </extensions>
      </trkpt>
      <trkpt lat="46.78342" lon="-1.59446">
        <ele>29.6</ele>
        <time>2024-05-10T07:53:56Z</time>
        <extensions>
          <gpxtpx:TrackPointExtension xmlns:gpxtpx="http://www.garmin.com/xmlschemas/TrackPointExtension/v1">
            <gpxtpx:hr>129</gpxtpx:hr>
          </gpxtpx:TrackPointExtension>
        </extensions>
      </trkpt>
      <trkpt lat="46.78338" lon="-1.5945">
        <ele>29.2</ele>
        <time>2024-05-10T07:53:57Z</time>
        <extensions>
          <gpxtpx:TrackPointExtension xmlns:gpxtpx="http://www.garmin.com/xmlschemas/TrackPointExtension/v1">
            <gpxtpx:hr>128</gpxtpx:hr>
          </gpxtpx:TrackPointExtension>
        </extensions>
      </trkpt>
      <trkpt lat="46.78347" lon="-1.59427">
        <ele>23.5</ele>
      </trkpt>
      <trkpt lat="46.78347" lon="-1.59425">
        <ele>27.8</ele>
        <time>2024-05-10T07:41:21Z</time>
        <extensions>
          <gpxtpx:TrackPointExtension xmlns:gpxtpx="http://www.garmin.com/xmlschemas/TrackPointExtension/v1">
            <gpxtpx:hr>115</gpxtpx:hr>
          </gpxtpx:TrackPointExtension>
        </extensions>
      </trkpt>
      <trkpt lat="46.78349" lon="-1.59419">
        <ele>28</ele>
        <time>2024-05-10T07:41:22Z</time>
        <extensions>
          <gpxtpx:TrackPointExtension xmlns:gpxtpx="http://www.garmin.com/xmlschemas/TrackPointExtension/v1">
            <gpxtpx:hr>115</gpxtpx:hr>
          </gpxtpx:TrackPointExtension>
        </extensions>
      </trkpt>
      <trkpt lat="46.78351" lon="-1.59409">
        <ele>28</ele>
        <time>2024-05-10T07:41:23Z</time>
        <extensions>
          <gpxtpx:TrackPointExtension xmlns:gpxtpx="http://www.garmin.com/xmlschemas/TrackPointExtension/v1">
            <gpxtpx:hr>116</gpxtpx:hr>
          </gpxtpx:TrackPointExtension>
        </extensions>
      </trkpt>
      <trkpt lat="46.78351" lon="-1.59405">
        <ele>28</ele>
        <time>2024-05-10T07:41:24Z</time>
        <extensions>
          <gpxtpx:TrackPointExtension xmlns:gpxtpx="http://www.garmin.com/xmlschemas/TrackPointExtension/v1">
            <gpxtpx:hr>116</gpxtpx:hr>
          </gpxtpx:TrackPointExtension>
        </extensions>
      </trkpt>
      <trkpt lat="46.78353" lon="-1.59398">
        <ele>28</ele>
        <time>2024-05-10T07:41:25Z</time>
        <extensions>
          <gpxtpx:TrackPointExtension xmlns:gpxtpx="http://www.garmin.com/xmlschemas/TrackPointExtension/v1">
            <gpxtpx:hr>117</gpxtpx:hr>
          </gpxtpx:TrackPointExtension>
        </extensions>
      </trkpt>
      <trkpt lat="46.78354" lon="-1.59392">
        <ele>28</ele>
        <time>2024-05-10T07:41:26Z</time>
        <extensions>
          <gpxtpx:TrackPointExtension xmlns:gpxtpx="http://www.garmin.com/xmlschemas/TrackPointExtension/v1">
            <gpxtpx:hr>117</gpxtpx:hr>
          </gpxtpx:TrackPointExtension>
        </extensions>
      </trkpt>
      <trkpt lat="46.78356" lon="-1.59386">
        <ele>28</ele>
        <time>2024-05-10T07:41:27Z</time>
        <extensions>
          <gpxtpx:TrackPointExtension xmlns:gpxtpx="http://www.garmin.com/xmlschemas/TrackPointExtension/v1">
            <gpxtpx:hr>117</gpxtpx:hr>
          </gpxtpx:TrackPointExtension>
        </extensions>
      </trkpt>
      <trkpt lat="46.78357" lon="-1.59379">
        <ele>27.8</ele>
        <time>2024-05-10T07:41:28Z</time>
        <extensions>
          <gpxtpx:TrackPointExtension xmlns:gpxtpx="http://www.garmin.com/xmlschemas/TrackPointExtension/v1">
            <gpxtpx:hr>117</gpxtpx:hr>
          </gpxtpx:TrackPointExtension>
        </extensions>
      </trkpt>
      <trkpt lat="46.78358" lon="-1.59373">
        <ele>27.8</ele>
        <time>2024-05-10T07:41:29Z</time>
        <extensions>
          <gpxtpx:TrackPointExtension xmlns:gpxtpx="http://www.garmin.com/xmlschemas/TrackPointExtension/v1">
            <gpxtpx:hr>116</gpxtpx:hr>
          </gpxtpx:TrackPointExtension>
        </extensions>
      </trkpt>
      <trkpt lat="46.78359" lon="-1.59367">
        <ele>27.8</ele>
        <time>2024-05-10T07:41:30Z</time>
        <extensions>
          <gpxtpx:TrackPointExtension xmlns:gpxtpx="http://www.garmin.com/xmlschemas/TrackPointExtension/v1">
            <gpxtpx:hr>116</gpxtpx:hr>
          </gpxtpx:TrackPointExtension>
        </extensions>
      </trkpt>
      <trkpt lat="46.7836" lon="-1.59361">
        <ele>27.8</ele>
        <time>2024-05-10T07:41:31Z</time>
        <extensions>
          <gpxtpx:TrackPointExtension xmlns:gpxtpx="http://www.garmin.com/xmlschemas/TrackPointExtension/v1">
            <gpxtpx:hr>115</gpxtpx:hr>
          </gpxtpx:TrackPointExtension>
        </extensions>
      </trkpt>
      <trkpt lat="46.78362" lon="-1.59357">
        <ele>27.8</ele>
        <time>2024-05-10T07:41:32Z</time>
        <extensions>
          <gpxtpx:TrackPointExtension xmlns:gpxtpx="http://www.garmin.com/xmlschemas/TrackPointExtension/v1">
            <gpxtpx:hr>114</gpxtpx:hr>
          </gpxtpx:TrackPointExtension>
        </extensions>
      </trkpt>
      <trkpt lat="46.78363" lon="-1.59354">
        <ele>27.8</ele>
        <time>2024-05-10T07:41:33Z</time>
        <extensions>
          <gpxtpx:TrackPointExtension xmlns:gpxtpx="http://www.garmin.com/xmlschemas/TrackPointExtension/v1">
            <gpxtpx:hr>114</gpxtpx:hr>
          </gpxtpx:TrackPointExtension>
        </extensions>
      </trkpt>
      <trkpt lat="46.78364" lon="-1.59352">
        <ele>28</ele>
        <time>2024-05-10T07:41:34Z</time>
        <extensions>
          <gpxtpx:TrackPointExtension xmlns:gpxtpx="http://www.garmin.com/xmlschemas/TrackPointExtension/v1">
            <gpxtpx:hr>113</gpxtpx:hr>
          </gpxtpx:TrackPointExtension>
        </extensions>
      </trkpt>
      <trkpt lat="46.78364" lon="-1.59349">
        <ele>28</ele>
        <time>2024-05-10T07:41:35Z</time>
        <extensions>
          <gpxtpx:TrackPointExtension xmlns:gpxtpx="http://www.garmin.com/xmlschemas/TrackPointExtension/v1">
            <gpxtpx:hr>114</gpxtpx:hr>
          </gpxtpx:TrackPointExtension>
        </extensions>
      </trkpt>
      <trkpt lat="46.78365" lon="-1.59344">
        <ele>27.8</ele>
        <time>2024-05-10T07:41:36Z</time>
        <extensions>
          <gpxtpx:TrackPointExtension xmlns:gpxtpx="http://www.garmin.com/xmlschemas/TrackPointExtension/v1">
            <gpxtpx:hr>114</gpxtpx:hr>
          </gpxtpx:TrackPointExtension>
        </extensions>
      </trkpt>
      <trkpt lat="46.78366" lon="-1.59339">
        <ele>27.8</ele>
        <time>2024-05-10T07:41:37Z</time>
        <extensions>
          <gpxtpx:TrackPointExtension xmlns:gpxtpx="http://www.garmin.com/xmlschemas/TrackPointExtension/v1">
            <gpxtpx:hr>116</gpxtpx:hr>
          </gpxtpx:TrackPointExtension>
        </extensions>
      </trkpt>
      <trkpt lat="46.78368" lon="-1.59334">
        <ele>27.8</ele>
        <time>2024-05-10T07:41:38Z</time>
        <extensions>
          <gpxtpx:TrackPointExtension xmlns:gpxtpx="http://www.garmin.com/xmlschemas/TrackPointExtension/v1">
            <gpxtpx:hr>117</gpxtpx:hr>
          </gpxtpx:TrackPointExtension>
        </extensions>
      </trkpt>
      <trkpt lat="46.78371" lon="-1.59323">
        <ele>27.8</ele>
        <time>2024-05-10T07:41:39Z</time>
        <extensions>
          <gpxtpx:TrackPointExtension xmlns:gpxtpx="http://www.garmin.com/xmlschemas/TrackPointExtension/v1">
            <gpxtpx:hr>118</gpxtpx:hr>
          </gpxtpx:TrackPointExtension>
        </extensions>
      </trkpt>
      <trkpt lat="46.78372" lon="-1.5932">
        <ele>27.8</ele>
        <time>2024-05-10T07:41:40Z</time>
        <extensions>
          <gpxtpx:TrackPointExtension xmlns:gpxtpx="http://www.garmin.com/xmlschemas/TrackPointExtension/v1">
            <gpxtpx:hr>119</gpxtpx:hr>
          </gpxtpx:TrackPointExtension>
        </extensions>
      </trkpt>
      <trkpt lat="46.78375" lon="-1.59313">
        <ele>27.8</ele>
        <time>2024-05-10T07:41:41Z</time>
        <extensions>
          <gpxtpx:TrackPointExtension xmlns:gpxtpx="http://www.garmin.com/xmlschemas/TrackPointExtension/v1">
            <gpxtpx:hr>119</gpxtpx:hr>
          </gpxtpx:TrackPointExtension>
        </extensions>
      </trkpt>
      <trkpt lat="46.78377" lon="-1.59306">
        <ele>27.8</ele>
        <time>2024-05-10T07:41:42Z</time>
        <extensions>
          <gpxtpx:TrackPointExtension xmlns:gpxtpx="http://www.garmin.com/xmlschemas/TrackPointExtension/v1">
            <gpxtpx:hr>120</gpxtpx:hr>
          </gpxtpx:TrackPointExtension>
        </extensions>
      </trkpt>
      <trkpt lat="46.78379" lon="-1.59299">
        <ele>27.8</ele>
        <time>2024-05-10T07:41:43Z</time>
        <extensions>
          <gpxtpx:TrackPointExtension xmlns:gpxtpx="http://www.garmin.com/xmlschemas/TrackPointExtension/v1">
            <gpxtpx:hr>120</gpxtpx:hr>
          </gpxtpx:TrackPointExtension>
        </extensions>
      </trkpt>
      <trkpt lat="46.78381" lon="-1.59292">
        <ele>27.8</ele>
        <time>2024-05-10T07:41:44Z</time>
        <extensions>
          <gpxtpx:TrackPointExtension xmlns:gpxtpx="http://www.garmin.com/xmlschemas/TrackPointExtension/v1">
            <gpxtpx:hr>120</gpxtpx:hr>
          </gpxtpx:TrackPointExtension>
        </extensions>
      </trkpt>
      <trkpt lat="46.78383" lon="-1.59285">
        <ele>27.8</ele>
        <time>2024-05-10T07:41:45Z</time>
        <extensions>
          <gpxtpx:TrackPointExtension xmlns:gpxtpx="http://www.garmin.com/xmlschemas/TrackPointExtension/v1">
            <gpxtpx:hr>120</gpxtpx:hr>
          </gpxtpx:TrackPointExtension>
        </extensions>
      </trkpt>
      <trkpt lat="46.78385" lon="-1.59279">
        <ele>28</ele>
        <time>2024-05-10T07:41:46Z</time>
        <extensions>
          <gpxtpx:TrackPointExtension xmlns:gpxtpx="http://www.garmin.com/xmlschemas/TrackPointExtension/v1">
            <gpxtpx:hr>120</gpxtpx:hr>
          </gpxtpx:TrackPointExtension>
        </extensions>
      </trkpt>
      <trkpt lat="46.78387" lon="-1.59272">
        <ele>28</ele>
        <time>2024-05-10T07:41:47Z</time>
        <extensions>
          <gpxtpx:TrackPointExtension xmlns:gpxtpx="http://www.garmin.com/xmlschemas/TrackPointExtension/v1">
            <gpxtpx:hr>120</gpxtpx:hr>
          </gpxtpx:TrackPointExtension>
        </extensions>
      </trkpt>
      <trkpt lat="46.78388" lon="-1.59266">
        <ele>28.2</ele>
        <time>2024-05-10T07:41:48Z</time>
        <extensions>
          <gpxtpx:TrackPointExtension xmlns:gpxtpx="http://www.garmin.com/xmlschemas/TrackPointExtension/v1">
            <gpxtpx:hr>119</gpxtpx:hr>
          </gpxtpx:TrackPointExtension>
        </extensions>
      </trkpt>
      <trkpt lat="46.78389" lon="-1.5926">
        <ele>28.2</ele>
        <time>2024-05-10T07:41:49Z</time>
        <extensions>
          <gpxtpx:TrackPointExtension xmlns:gpxtpx="http://www.garmin.com/xmlschemas/TrackPointExtension/v1">
            <gpxtpx:hr>120</gpxtpx:hr>
          </gpxtpx:TrackPointExtension>
        </extensions>
      </trkpt>
      <trkpt lat="46.7839" lon="-1.59253">
        <ele>28.2</ele>
        <time>2024-05-10T07:41:50Z</time>
        <extensions>
          <gpxtpx:TrackPointExtension xmlns:gpxtpx="http://www.garmin.com/xmlschemas/TrackPointExtension/v1">
            <gpxtpx:hr>121</gpxtpx:hr>
          </gpxtpx:TrackPointExtension>
        </extensions>
      </trkpt>
      <trkpt lat="46.78392" lon="-1.59243">
        <ele>28.2</ele>
        <time>2024-05-10T07:41:51Z</time>
        <extensions>
          <gpxtpx:TrackPointExtension xmlns:gpxtpx="http://www.garmin.com/xmlschemas/TrackPointExtension/v1">
            <gpxtpx:hr>121</gpxtpx:hr>
          </gpxtpx:TrackPointExtension>
        </extensions>
      </trkpt>
      <trkpt lat="46.78392" lon="-1.59239">
        <ele>28.4</ele>
        <time>2024-05-10T07:41:52Z</time>
        <extensions>
          <gpxtpx:TrackPointExtension xmlns:gpxtpx="http://www.garmin.com/xmlschemas/TrackPointExtension/v1">
            <gpxtpx:hr>121</gpxtpx:hr>
          </gpxtpx:TrackPointExtension>
        </extensions>
      </trkpt>
      <trkpt lat="46.78393" lon="-1.59232">
        <ele>28.4</ele>
        <time>2024-05-10T07:41:53Z</time>
        <extensions>
          <gpxtpx:TrackPointExtension xmlns:gpxtpx="http://www.garmin.com/xmlschemas/TrackPointExtension/v1">
            <gpxtpx:hr>121</gpxtpx:hr>
          </gpxtpx:TrackPointExtension>
        </extensions>
      </trkpt>
      <trkpt lat="46.78394" lon="-1.59224">
        <ele>28.4</ele>
        <time>2024-05-10T07:41:54Z</time>
        <extensions>
          <gpxtpx:TrackPointExtension xmlns:gpxtpx="http://www.garmin.com/xmlschemas/TrackPointExtension/v1">
            <gpxtpx:hr>122</gpxtpx:hr>
          </gpxtpx:TrackPointExtension>
        </extensions>
      </trkpt>
      <trkpt lat="46.78394" lon="-1.59216">
        <ele>28.6</ele>
        <time>2024-05-10T07:41:55Z</time>
        <extensions>
          <gpxtpx:TrackPointExtension xmlns:gpxtpx="http://www.garmin.com/xmlschemas/TrackPointExtension/v1">
            <gpxtpx:hr>122</gpxtpx:hr>
          </gpxtpx:TrackPointExtension>
        </extensions>
      </trkpt>
      <trkpt lat="46.78394" lon="-1.59209">
        <ele>28.6</ele>
        <time>2024-05-10T07:41:56Z</time>
        <extensions>
          <gpxtpx:TrackPointExtension xmlns:gpxtpx="http://www.garmin.com/xmlschemas/TrackPointExtension/v1">
            <gpxtpx:hr>123</gpxtpx:hr>
          </gpxtpx:TrackPointExtension>
        </extensions>
      </trkpt>
      <trkpt lat="46.78395" lon="-1.59201">
        <ele>28.8</ele>
        <time>2024-05-10T07:41:57Z</time>
        <extensions>
          <gpxtpx:TrackPointExtension xmlns:gpxtpx="http://www.garmin.com/xmlschemas/TrackPointExtension/v1">
            <gpxtpx:hr>124</gpxtpx:hr>
          </gpxtpx:TrackPointExtension>
        </extensions>
      </trkpt>
      <trkpt lat="46.78395" lon="-1.59194">
        <ele>28.8</ele>
        <time>2024-05-10T07:41:58Z</time>
        <extensions>
          <gpxtpx:TrackPointExtension xmlns:gpxtpx="http://www.garmin.com/xmlschemas/TrackPointExtension/v1">
            <gpxtpx:hr>124</gpxtpx:hr>
          </gpxtpx:TrackPointExtension>
        </extensions>
      </trkpt>
      <trkpt lat="46.78396" lon="-1.59187">
        <ele>29</ele>
        <time>2024-05-10T07:41:59Z</time>
        <extensions>
          <gpxtpx:TrackPointExtension xmlns:gpxtpx="http://www.garmin.com/xmlschemas/TrackPointExtension/v1">
            <gpxtpx:hr>124</gpxtpx:hr>
          </gpxtpx:TrackPointExtension>
        </extensions>
      </trkpt>
      <trkpt lat="46.78397" lon="-1.59181">
        <ele>29</ele>
        <time>2024-05-10T07:42:00Z</time>
        <extensions>
          <gpxtpx:TrackPointExtension xmlns:gpxtpx="http://www.garmin.com/xmlschemas/TrackPointExtension/v1">
            <gpxtpx:hr>124</gpxtpx:hr>
          </gpxtpx:TrackPointExtension>
        </extensions>
      </trkpt>
      <trkpt lat="46.78397" lon="-1.59175">
        <ele>29.2</ele>
        <time>2024-05-10T07:42:01Z</time>
        <extensions>
          <gpxtpx:TrackPointExtension xmlns:gpxtpx="http://www.garmin.com/xmlschemas/TrackPointExtension/v1">
            <gpxtpx:hr>124</gpxtpx:hr>
          </gpxtpx:TrackPointExtension>
        </extensions>
      </trkpt>
      <trkpt lat="46.78397" lon="-1.5917">
        <ele>29.2</ele>
        <time>2024-05-10T07:42:02Z</time>
        <extensions>
          <gpxtpx:TrackPointExtension xmlns:gpxtpx="http://www.garmin.com/xmlschemas/TrackPointExtension/v1">
            <gpxtpx:hr>124</gpxtpx:hr>
          </gpxtpx:TrackPointExtension>
        </extensions>
      </trkpt>
      <trkpt lat="46.78398" lon="-1.59165">
        <ele>29</ele>
        <time>2024-05-10T07:42:03Z</time>
        <extensions>
          <gpxtpx:TrackPointExtension xmlns:gpxtpx="http://www.garmin.com/xmlschemas/TrackPointExtension/v1">
            <gpxtpx:hr>124</gpxtpx:hr>
          </gpxtpx:TrackPointExtension>
        </extensions>
      </trkpt>
      <trkpt lat="46.78398" lon="-1.5916">
        <ele>29</ele>
        <time>2024-05-10T07:42:04Z</time>
        <extensions>
          <gpxtpx:TrackPointExtension xmlns:gpxtpx="http://www.garmin.com/xmlschemas/TrackPointExtension/v1">
            <gpxtpx:hr>123</gpxtpx:hr>
          </gpxtpx:TrackPointExtension>
        </extensions>
      </trkpt>
      <trkpt lat="46.78397" lon="-1.59156">
        <ele>28.8</ele>
        <time>2024-05-10T07:42:05Z</time>
        <extensions>
          <gpxtpx:TrackPointExtension xmlns:gpxtpx="http://www.garmin.com/xmlschemas/TrackPointExtension/v1">
            <gpxtpx:hr>123</gpxtpx:hr>
          </gpxtpx:TrackPointExtension>
        </extensions>
      </trkpt>
      <trkpt lat="46.78396" lon="-1.59153">
        <ele>28.6</ele>
        <time>2024-05-10T07:42:06Z</time>
        <extensions>
          <gpxtpx:TrackPointExtension xmlns:gpxtpx="http://www.garmin.com/xmlschemas/TrackPointExtension/v1">
            <gpxtpx:hr>123</gpxtpx:hr>
          </gpxtpx:TrackPointExtension>
        </extensions>
      </trkpt>
      <trkpt lat="46.78395" lon="-1.5915">
        <ele>28.4</ele>
        <time>2024-05-10T07:42:07Z</time>
        <extensions>
          <gpxtpx:TrackPointExtension xmlns:gpxtpx="http://www.garmin.com/xmlschemas/TrackPointExtension/v1">
            <gpxtpx:hr>123</gpxtpx:hr>
          </gpxtpx:TrackPointExtension>
        </extensions>
      </trkpt>
      <trkpt lat="46.78393" lon="-1.59147">
        <ele>28.2</ele>
        <time>2024-05-10T07:42:08Z</time>
        <extensions>
          <gpxtpx:TrackPointExtension xmlns:gpxtpx="http://www.garmin.com/xmlschemas/TrackPointExtension/v1">
            <gpxtpx:hr>123</gpxtpx:hr>
          </gpxtpx:TrackPointExtension>
        </extensions>
      </trkpt>
      <trkpt lat="46.78392" lon="-1.59144">
        <ele>28</ele>
        <time>2024-05-10T07:42:09Z</time>
        <extensions>
          <gpxtpx:TrackPointExtension xmlns:gpxtpx="http://www.garmin.com/xmlschemas/TrackPointExtension/v1">
            <gpxtpx:hr>122</gpxtpx:hr>
          </gpxtpx:TrackPointExtension>
        </extensions>
      </trkpt>
      <trkpt lat="46.78391" lon="-1.59141">
        <ele>27.8</ele>
        <time>2024-05-10T07:42:10Z</time>
        <extensions>
          <gpxtpx:TrackPointExtension xmlns:gpxtpx="http://www.garmin.com/xmlschemas/TrackPointExtension/v1">
            <gpxtpx:hr>123</gpxtpx:hr>
          </gpxtpx:TrackPointExtension>
        </extensions>
      </trkpt>
      <trkpt lat="46.7839" lon="-1.59137">
        <ele>27.6</ele>
        <time>2024-05-10T07:42:11Z</time>
        <extensions>
          <gpxtpx:TrackPointExtension xmlns:gpxtpx="http://www.garmin.com/xmlschemas/TrackPointExtension/v1">
            <gpxtpx:hr>123</gpxtpx:hr>
          </gpxtpx:TrackPointExtension>
        </extensions>
      </trkpt>
      <trkpt lat="46.7839" lon="-1.59133">
        <ele>27.4</ele>
        <time>2024-05-10T07:42:12Z</time>
        <extensions>
          <gpxtpx:TrackPointExtension xmlns:gpxtpx="http://www.garmin.com/xmlschemas/TrackPointExtension/v1">
            <gpxtpx:hr>123</gpxtpx:hr>
          </gpxtpx:TrackPointExtension>
        </extensions>
      </trkpt>
      <trkpt lat="46.7839" lon="-1.59129">
        <ele>27.2</ele>
        <time>2024-05-10T07:42:13Z</time>
        <extensions>
          <gpxtpx:TrackPointExtension xmlns:gpxtpx="http://www.garmin.com/xmlschemas/TrackPointExtension/v1">
            <gpxtpx:hr>122</gpxtpx:hr>
          </gpxtpx:TrackPointExtension>
        </extensions>
      </trkpt>
      <trkpt lat="46.7839" lon="-1.59125">
        <ele>27</ele>
        <time>2024-05-10T07:42:14Z</time>
        <extensions>
          <gpxtpx:TrackPointExtension xmlns:gpxtpx="http://www.garmin.com/xmlschemas/TrackPointExtension/v1">
            <gpxtpx:hr>121</gpxtpx:hr>
          </gpxtpx:TrackPointExtension>
        </extensions>
      </trkpt>
      <trkpt lat="46.7839" lon="-1.59122">
        <ele>26.8</ele>
        <time>2024-05-10T07:42:15Z</time>
        <extensions>
          <gpxtpx:TrackPointExtension xmlns:gpxtpx="http://www.garmin.com/xmlschemas/TrackPointExtension/v1">
            <gpxtpx:hr>121</gpxtpx:hr>
          </gpxtpx:TrackPointExtension>
        </extensions>
      </trkpt>
      <trkpt lat="46.78389" lon="-1.59118">
        <ele>26.6</ele>
        <time>2024-05-10T07:42:17Z</time>
        <extensions>
          <gpxtpx:TrackPointExtension xmlns:gpxtpx="http://www.garmin.com/xmlschemas/TrackPointExtension/v1">
            <gpxtpx:hr>120</gpxtpx:hr>
          </gpxtpx:TrackPointExtension>
        </extensions>
      </trkpt>
      <trkpt lat="46.78387" lon="-1.59114">
        <ele>26.4</ele>
        <time>2024-05-10T07:42:18Z</time>
        <extensions>
          <gpxtpx:TrackPointExtension xmlns:gpxtpx="http://www.garmin.com/xmlschemas/TrackPointExtension/v1">
            <gpxtpx:hr>120</gpxtpx:hr>
          </gpxtpx:TrackPointExtension>
        </extensions>
      </trkpt>
      <trkpt lat="46.78386" lon="-1.59109">
        <ele>26.2</ele>
        <time>2024-05-10T07:42:19Z</time>
        <extensions>
          <gpxtpx:TrackPointExtension xmlns:gpxtpx="http://www.garmin.com/xmlschemas/TrackPointExtension/v1">
            <gpxtpx:hr>120</gpxtpx:hr>
          </gpxtpx:TrackPointExtension>
        </extensions>
      </trkpt>
      <trkpt lat="46.78385" lon="-1.59104">
        <ele>25.8</ele>
        <time>2024-05-10T07:42:20Z</time>
        <extensions>
          <gpxtpx:TrackPointExtension xmlns:gpxtpx="http://www.garmin.com/xmlschemas/TrackPointExtension/v1">
            <gpxtpx:hr>120</gpxtpx:hr>
          </gpxtpx:TrackPointExtension>
        </extensions>
      </trkpt>
      <trkpt lat="46.78384" lon="-1.59098">
        <ele>25.8</ele>
        <time>2024-05-10T07:42:21Z</time>
        <extensions>
          <gpxtpx:TrackPointExtension xmlns:gpxtpx="http://www.garmin.com/xmlschemas/TrackPointExtension/v1">
            <gpxtpx:hr>121</gpxtpx:hr>
          </gpxtpx:TrackPointExtension>
        </extensions>
      </trkpt>
      <trkpt lat="46.78383" lon="-1.59091">
        <ele>25.6</ele>
        <time>2024-05-10T07:42:22Z</time>
        <extensions>
          <gpxtpx:TrackPointExtension xmlns:gpxtpx="http://www.garmin.com/xmlschemas/TrackPointExtension/v1">
            <gpxtpx:hr>120</gpxtpx:hr>
          </gpxtpx:TrackPointExtension>
        </extensions>
      </trkpt>
      <trkpt lat="46.78383" lon="-1.59085">
        <ele>25.4</ele>
        <time>2024-05-10T07:42:23Z</time>
        <extensions>
          <gpxtpx:TrackPointExtension xmlns:gpxtpx="http://www.garmin.com/xmlschemas/TrackPointExtension/v1">
            <gpxtpx:hr>120</gpxtpx:hr>
          </gpxtpx:TrackPointExtension>
        </extensions>
      </trkpt>
      <trkpt lat="46.78382" lon="-1.59075">
        <ele>25.2</ele>
        <time>2024-05-10T07:42:24Z</time>
        <extensions>
          <gpxtpx:TrackPointExtension xmlns:gpxtpx="http://www.garmin.com/xmlschemas/TrackPointExtension/v1">
            <gpxtpx:hr>120</gpxtpx:hr>
          </gpxtpx:TrackPointExtension>
        </extensions>
      </trkpt>
      <trkpt lat="46.78381" lon="-1.59067">
        <ele>25</ele>
        <time>2024-05-10T07:42:25Z</time>
        <extensions>
          <gpxtpx:TrackPointExtension xmlns:gpxtpx="http://www.garmin.com/xmlschemas/TrackPointExtension/v1">
            <gpxtpx:hr>120</gpxtpx:hr>
          </gpxtpx:TrackPointExtension>
        </extensions>
      </trkpt>
      <trkpt lat="46.78379" lon="-1.59059">
        <ele>25</ele>
        <time>2024-05-10T07:42:26Z</time>
        <extensions>
          <gpxtpx:TrackPointExtension xmlns:gpxtpx="http://www.garmin.com/xmlschemas/TrackPointExtension/v1">
            <gpxtpx:hr>121</gpxtpx:hr>
          </gpxtpx:TrackPointExtension>
        </extensions>
      </trkpt>
      <trkpt lat="46.78378" lon="-1.59052">
        <ele>24.8</ele>
        <time>2024-05-10T07:42:27Z</time>
        <extensions>
          <gpxtpx:TrackPointExtension xmlns:gpxtpx="http://www.garmin.com/xmlschemas/TrackPointExtension/v1">
            <gpxtpx:hr>121</gpxtpx:hr>
          </gpxtpx:TrackPointExtension>
        </extensions>
      </trkpt>
      <trkpt lat="46.78377" lon="-1.59045">
        <ele>24.6</ele>
        <time>2024-05-10T07:42:28Z</time>
        <extensions>
          <gpxtpx:TrackPointExtension xmlns:gpxtpx="http://www.garmin.com/xmlschemas/TrackPointExtension/v1">
            <gpxtpx:hr>122</gpxtpx:hr>
          </gpxtpx:TrackPointExtension>
        </extensions>
      </trkpt>
      <trkpt lat="46.78376" lon="-1.59039">
        <ele>24.4</ele>
        <time>2024-05-10T07:42:29Z</time>
        <extensions>
          <gpxtpx:TrackPointExtension xmlns:gpxtpx="http://www.garmin.com/xmlschemas/TrackPointExtension/v1">
            <gpxtpx:hr>123</gpxtpx:hr>
          </gpxtpx:TrackPointExtension>
        </extensions>
      </trkpt>
      <trkpt lat="46.78376" lon="-1.59032">
        <ele>24.4</ele>
        <time>2024-05-10T07:42:30Z</time>
        <extensions>
          <gpxtpx:TrackPointExtension xmlns:gpxtpx="http://www.garmin.com/xmlschemas/TrackPointExtension/v1">
            <gpxtpx:hr>123</gpxtpx:hr>
          </gpxtpx:TrackPointExtension>
        </extensions>
      </trkpt>
      <trkpt lat="46.78376" lon="-1.59026">
        <ele>24.2</ele>
        <time>2024-05-10T07:42:31Z</time>
        <extensions>
          <gpxtpx:TrackPointExtension xmlns:gpxtpx="http://www.garmin.com/xmlschemas/TrackPointExtension/v1">
            <gpxtpx:hr>124</gpxtpx:hr>
          </gpxtpx:TrackPointExtension>
        </extensions>
      </trkpt>
      <trkpt lat="46.78376" lon="-1.5902">
        <ele>24.2</ele>
        <time>2024-05-10T07:42:32Z</time>
        <extensions>
          <gpxtpx:TrackPointExtension xmlns:gpxtpx="http://www.garmin.com/xmlschemas/TrackPointExtension/v1">
            <gpxtpx:hr>124</gpxtpx:hr>
          </gpxtpx:TrackPointExtension>
        </extensions>
      </trkpt>
      <trkpt lat="46.78376" lon="-1.59014">
        <ele>24.2</ele>
        <time>2024-05-10T07:42:33Z</time>
        <extensions>
          <gpxtpx:TrackPointExtension xmlns:gpxtpx="http://www.garmin.com/xmlschemas/TrackPointExtension/v1">
            <gpxtpx:hr>124</gpxtpx:hr>
          </gpxtpx:TrackPointExtension>
        </extensions>
      </trkpt>
      <trkpt lat="46.78375" lon="-1.59007">
        <ele>24.4</ele>
        <time>2024-05-10T07:42:34Z</time>
        <extensions>
          <gpxtpx:TrackPointExtension xmlns:gpxtpx="http://www.garmin.com/xmlschemas/TrackPointExtension/v1">
            <gpxtpx:hr>125</gpxtpx:hr>
          </gpxtpx:TrackPointExtension>
        </extensions>
      </trkpt>
      <trkpt lat="46.78375" lon="-1.59">
        <ele>24.4</ele>
        <time>2024-05-10T07:42:35Z</time>
        <extensions>
          <gpxtpx:TrackPointExtension xmlns:gpxtpx="http://www.garmin.com/xmlschemas/TrackPointExtension/v1">
            <gpxtpx:hr>126</gpxtpx:hr>
          </gpxtpx:TrackPointExtension>
        </extensions>
      </trkpt>
      <trkpt lat="46.78374" lon="-1.58995">
        <ele>24.6</ele>
        <time>2024-05-10T07:42:36Z</time>
        <extensions>
          <gpxtpx:TrackPointExtension xmlns:gpxtpx="http://www.garmin.com/xmlschemas/TrackPointExtension/v1">
            <gpxtpx:hr>127</gpxtpx:hr>
          </gpxtpx:TrackPointExtension>
        </extensions>
      </trkpt>
      <trkpt lat="46.78372" lon="-1.58989">
        <ele>24.6</ele>
        <time>2024-05-10T07:42:37Z</time>
        <extensions>
          <gpxtpx:TrackPointExtension xmlns:gpxtpx="http://www.garmin.com/xmlschemas/TrackPointExtension/v1">
            <gpxtpx:hr>127</gpxtpx:hr>
          </gpxtpx:TrackPointExtension>
        </extensions>
      </trkpt>
      <trkpt lat="46.78371" lon="-1.58985">
        <ele>24.8</ele>
        <time>2024-05-10T07:42:38Z</time>
        <extensions>
          <gpxtpx:TrackPointExtension xmlns:gpxtpx="http://www.garmin.com/xmlschemas/TrackPointExtension/v1">
            <gpxtpx:hr>128</gpxtpx:hr>
          </gpxtpx:TrackPointExtension>
        </extensions>
      </trkpt>
      <trkpt lat="46.7837" lon="-1.58979">
        <ele>25</ele>
        <time>2024-05-10T07:42:39Z</time>
        <extensions>
          <gpxtpx:TrackPointExtension xmlns:gpxtpx="http://www.garmin.com/xmlschemas/TrackPointExtension/v1">
            <gpxtpx:hr>129</gpxtpx:hr>
          </gpxtpx:TrackPointExtension>
        </extensions>
      </trkpt>
      <trkpt lat="46.78368" lon="-1.58974">
        <ele>25</ele>
        <time>2024-05-10T07:42:40Z</time>
        <extensions>
          <gpxtpx:TrackPointExtension xmlns:gpxtpx="http://www.garmin.com/xmlschemas/TrackPointExtension/v1">
            <gpxtpx:hr>129</gpxtpx:hr>
          </gpxtpx:TrackPointExtension>
        </extensions>
      </trkpt>
      <trkpt lat="46.78366" lon="-1.58968">
        <ele>25.2</ele>
        <time>2024-05-10T07:42:41Z</time>
        <extensions>
          <gpxtpx:TrackPointExtension xmlns:gpxtpx="http://www.garmin.com/xmlschemas/TrackPointExtension/v1">
            <gpxtpx:hr>129</gpxtpx:hr>
          </gpxtpx:TrackPointExtension>
        </extensions>
      </trkpt>
      <trkpt lat="46.78364" lon="-1.58962">
        <ele>25.2</ele>
        <time>2024-05-10T07:42:42Z</time>
        <extensions>
          <gpxtpx:TrackPointExtension xmlns:gpxtpx="http://www.garmin.com/xmlschemas/TrackPointExtension/v1">
            <gpxtpx:hr>130</gpxtpx:hr>
          </gpxtpx:TrackPointExtension>
        </extensions>
      </trkpt>
      <trkpt lat="46.78361" lon="-1.58956">
        <ele>25.2</ele>
        <time>2024-05-10T07:42:43Z</time>
        <extensions>
          <gpxtpx:TrackPointExtension xmlns:gpxtpx="http://www.garmin.com/xmlschemas/TrackPointExtension/v1">
            <gpxtpx:hr>130</gpxtpx:hr>
          </gpxtpx:TrackPointExtension>
        </extensions>
      </trkpt>
      <trkpt lat="46.78358" lon="-1.58951">
        <ele>25.2</ele>
        <time>2024-05-10T07:42:44Z</time>
        <extensions>
          <gpxtpx:TrackPointExtension xmlns:gpxtpx="http://www.garmin.com/xmlschemas/TrackPointExtension/v1">
            <gpxtpx:hr>131</gpxtpx:hr>
          </gpxtpx:TrackPointExtension>
        </extensions>
      </trkpt>
      <trkpt lat="46.78356" lon="-1.58946">
        <ele>25.2</ele>
        <time>2024-05-10T07:42:45Z</time>
        <extensions>
          <gpxtpx:TrackPointExtension xmlns:gpxtpx="http://www.garmin.com/xmlschemas/TrackPointExtension/v1">
            <gpxtpx:hr>131</gpxtpx:hr>
          </gpxtpx:TrackPointExtension>
        </extensions>
      </trkpt>
      <trkpt lat="46.78353" lon="-1.5894">
        <ele>25.4</ele>
        <time>2024-05-10T07:42:46Z</time>
        <extensions>
          <gpxtpx:TrackPointExtension xmlns:gpxtpx="http://www.garmin.com/xmlschemas/TrackPointExtension/v1">
            <gpxtpx:hr>132</gpxtpx:hr>
          </gpxtpx:TrackPointExtension>
        </extensions>
      </trkpt>
      <trkpt lat="46.7835" lon="-1.58935">
        <ele>25.4</ele>
        <time>2024-05-10T07:42:47Z</time>
        <extensions>
          <gpxtpx:TrackPointExtension xmlns:gpxtpx="http://www.garmin.com/xmlschemas/TrackPointExtension/v1">
            <gpxtpx:hr>132</gpxtpx:hr>
          </gpxtpx:TrackPointExtension>
        </extensions>
      </trkpt>
      <trkpt lat="46.78347" lon="-1.58929">
        <ele>25.4</ele>
        <time>2024-05-10T07:42:48Z</time>
        <extensions>
          <gpxtpx:TrackPointExtension xmlns:gpxtpx="http://www.garmin.com/xmlschemas/TrackPointExtension/v1">
            <gpxtpx:hr>133</gpxtpx:hr>
          </gpxtpx:TrackPointExtension>
        </extensions>
      </trkpt>
      <trkpt lat="46.78344" lon="-1.58924">
        <ele>25.4</ele>
        <time>2024-05-10T07:42:49Z</time>
        <extensions>
          <gpxtpx:TrackPointExtension xmlns:gpxtpx="http://www.garmin.com/xmlschemas/TrackPointExtension/v1">
            <gpxtpx:hr>133</gpxtpx:hr>
          </gpxtpx:TrackPointExtension>
        </extensions>
      </trkpt>
      <trkpt lat="46.78341" lon="-1.58918">
        <ele>25.4</ele>
        <time>2024-05-10T07:42:50Z</time>
        <extensions>
          <gpxtpx:TrackPointExtension xmlns:gpxtpx="http://www.garmin.com/xmlschemas/TrackPointExtension/v1">
            <gpxtpx:hr>134</gpxtpx:hr>
          </gpxtpx:TrackPointExtension>
        </extensions>
      </trkpt>
      <trkpt lat="46.78338" lon="-1.58913">
        <ele>25.6</ele>
        <time>2024-05-10T07:42:51Z</time>
        <extensions>
          <gpxtpx:TrackPointExtension xmlns:gpxtpx="http://www.garmin.com/xmlschemas/TrackPointExtension/v1">
            <gpxtpx:hr>134</gpxtpx:hr>
          </gpxtpx:TrackPointExtension>
        </extensions>
      </trkpt>
      <trkpt lat="46.78334" lon="-1.58908">
        <ele>25.6</ele>
        <time>2024-05-10T07:42:52Z</time>
        <extensions>
          <gpxtpx:TrackPointExtension xmlns:gpxtpx="http://www.garmin.com/xmlschemas/TrackPointExtension/v1">
            <gpxtpx:hr>134</gpxtpx:hr>
          </gpxtpx:TrackPointExtension>
        </extensions>
      </trkpt>
      <trkpt lat="46.78329" lon="-1.58899">
        <ele>25.6</ele>
        <time>2024-05-10T07:42:53Z</time>
        <extensions>
          <gpxtpx:TrackPointExtension xmlns:gpxtpx="http://www.garmin.com/xmlschemas/TrackPointExtension/v1">
            <gpxtpx:hr>135</gpxtpx:hr>
          </gpxtpx:TrackPointExtension>
        </extensions>
      </trkpt>
      <trkpt lat="46.78328" lon="-1.58897">
        <ele>25.8</ele>
        <time>2024-05-10T07:42:54Z</time>
        <extensions>
          <gpxtpx:TrackPointExtension xmlns:gpxtpx="http://www.garmin.com/xmlschemas/TrackPointExtension/v1">
            <gpxtpx:hr>135</gpxtpx:hr>
          </gpxtpx:TrackPointExtension>
        </extensions>
      </trkpt>
      <trkpt lat="46.78325" lon="-1.58892">
        <ele>25.8</ele>
        <time>2024-05-10T07:42:55Z</time>
        <extensions>
          <gpxtpx:TrackPointExtension xmlns:gpxtpx="http://www.garmin.com/xmlschemas/TrackPointExtension/v1">
            <gpxtpx:hr>135</gpxtpx:hr>
          </gpxtpx:TrackPointExtension>
        </extensions>
      </trkpt>
      <trkpt lat="46.78322" lon="-1.58887">
        <ele>25.8</ele>
        <time>2024-05-10T07:42:56Z</time>
        <extensions>
          <gpxtpx:TrackPointExtension xmlns:gpxtpx="http://www.garmin.com/xmlschemas/TrackPointExtension/v1">
            <gpxtpx:hr>134</gpxtpx:hr>
          </gpxtpx:TrackPointExtension>
        </extensions>
      </trkpt>
      <trkpt lat="46.78319" lon="-1.58883">
        <ele>26</ele>
        <time>2024-05-10T07:42:57Z</time>
        <extensions>
          <gpxtpx:TrackPointExtension xmlns:gpxtpx="http://www.garmin.com/xmlschemas/TrackPointExtension/v1">
            <gpxtpx:hr>134</gpxtpx:hr>
          </gpxtpx:TrackPointExtension>
        </extensions>
      </trkpt>
      <trkpt lat="46.78316" lon="-1.5888">
        <ele>26</ele>
        <time>2024-05-10T07:42:58Z</time>
        <extensions>
          <gpxtpx:TrackPointExtension xmlns:gpxtpx="http://www.garmin.com/xmlschemas/TrackPointExtension/v1">
            <gpxtpx:hr>134</gpxtpx:hr>
          </gpxtpx:TrackPointExtension>
        </extensions>
      </trkpt>
      <trkpt lat="46.78313" lon="-1.58876">
        <ele>26</ele>
        <time>2024-05-10T07:42:59Z</time>
        <extensions>
          <gpxtpx:TrackPointExtension xmlns:gpxtpx="http://www.garmin.com/xmlschemas/TrackPointExtension/v1">
            <gpxtpx:hr>134</gpxtpx:hr>
          </gpxtpx:TrackPointExtension>
        </extensions>
      </trkpt>
      <trkpt lat="46.7831" lon="-1.58872">
        <ele>26.2</ele>
        <time>2024-05-10T07:43:00Z</time>
        <extensions>
          <gpxtpx:TrackPointExtension xmlns:gpxtpx="http://www.garmin.com/xmlschemas/TrackPointExtension/v1">
            <gpxtpx:hr>134</gpxtpx:hr>
          </gpxtpx:TrackPointExtension>
        </extensions>
      </trkpt>
      <trkpt lat="46.78308" lon="-1.58868">
        <ele>26.2</ele>
        <time>2024-05-10T07:43:01Z</time>
        <extensions>
          <gpxtpx:TrackPointExtension xmlns:gpxtpx="http://www.garmin.com/xmlschemas/TrackPointExtension/v1">
            <gpxtpx:hr>134</gpxtpx:hr>
          </gpxtpx:TrackPointExtension>
        </extensions>
      </trkpt>
      <trkpt lat="46.78304" lon="-1.58862">
        <ele>26.4</ele>
        <time>2024-05-10T07:43:02Z</time>
        <extensions>
          <gpxtpx:TrackPointExtension xmlns:gpxtpx="http://www.garmin.com/xmlschemas/TrackPointExtension/v1">
            <gpxtpx:hr>134</gpxtpx:hr>
          </gpxtpx:TrackPointExtension>
        </extensions>
      </trkpt>
      <trkpt lat="46.78302" lon="-1.5886">
        <ele>26.6</ele>
        <time>2024-05-10T07:43:03Z</time>
        <extensions>
          <gpxtpx:TrackPointExtension xmlns:gpxtpx="http://www.garmin.com/xmlschemas/TrackPointExtension/v1">
            <gpxtpx:hr>134</gpxtpx:hr>
          </gpxtpx:TrackPointExtension>
        </extensions>
      </trkpt>
      <trkpt lat="46.78299" lon="-1.58855">
        <ele>26.6</ele>
        <time>2024-05-10T07:43:04Z</time>
        <extensions>
          <gpxtpx:TrackPointExtension xmlns:gpxtpx="http://www.garmin.com/xmlschemas/TrackPointExtension/v1">
            <gpxtpx:hr>134</gpxtpx:hr>
          </gpxtpx:TrackPointExtension>
        </extensions>
      </trkpt>
      <trkpt lat="46.78296" lon="-1.58852">
        <ele>26.8</ele>
        <time>2024-05-10T07:43:05Z</time>
        <extensions>
          <gpxtpx:TrackPointExtension xmlns:gpxtpx="http://www.garmin.com/xmlschemas/TrackPointExtension/v1">
            <gpxtpx:hr>134</gpxtpx:hr>
          </gpxtpx:TrackPointExtension>
        </extensions>
      </trkpt>
      <trkpt lat="46.78294" lon="-1.58848">
        <ele>26.8</ele>
        <time>2024-05-10T07:43:06Z</time>
        <extensions>
          <gpxtpx:TrackPointExtension xmlns:gpxtpx="http://www.garmin.com/xmlschemas/TrackPointExtension/v1">
            <gpxtpx:hr>134</gpxtpx:hr>
          </gpxtpx:TrackPointExtension>
        </extensions>
      </trkpt>
      <trkpt lat="46.78291" lon="-1.58846">
        <ele>27</ele>
        <time>2024-05-10T07:43:07Z</time>
        <extensions>
          <gpxtpx:TrackPointExtension xmlns:gpxtpx="http://www.garmin.com/xmlschemas/TrackPointExtension/v1">
            <gpxtpx:hr>134</gpxtpx:hr>
          </gpxtpx:TrackPointExtension>
        </extensions>
      </trkpt>
      <trkpt lat="46.78289" lon="-1.58843">
        <ele>27.2</ele>
        <time>2024-05-10T07:43:08Z</time>
        <extensions>
          <gpxtpx:TrackPointExtension xmlns:gpxtpx="http://www.garmin.com/xmlschemas/TrackPointExtension/v1">
            <gpxtpx:hr>134</gpxtpx:hr>
          </gpxtpx:TrackPointExtension>
        </extensions>
      </trkpt>
      <trkpt lat="46.78287" lon="-1.5884">
        <ele>27.4</ele>
        <time>2024-05-10T07:43:09Z</time>
        <extensions>
          <gpxtpx:TrackPointExtension xmlns:gpxtpx="http://www.garmin.com/xmlschemas/TrackPointExtension/v1">
            <gpxtpx:hr>134</gpxtpx:hr>
          </gpxtpx:TrackPointExtension>
        </extensions>
      </trkpt>
      <trkpt lat="46.78284" lon="-1.58834">
        <ele>27.6</ele>
        <time>2024-05-10T07:43:10Z</time>
        <extensions>
          <gpxtpx:TrackPointExtension xmlns:gpxtpx="http://www.garmin.com/xmlschemas/TrackPointExtension/v1">
            <gpxtpx:hr>135</gpxtpx:hr>
          </gpxtpx:TrackPointExtension>
        </extensions>
      </trkpt>
      <trkpt lat="46.78283" lon="-1.58832">
        <ele>28</ele>
        <time>2024-05-10T07:43:11Z</time>
        <extensions>
          <gpxtpx:TrackPointExtension xmlns:gpxtpx="http://www.garmin.com/xmlschemas/TrackPointExtension/v1">
            <gpxtpx:hr>135</gpxtpx:hr>
          </gpxtpx:TrackPointExtension>
        </extensions>
      </trkpt>
      <trkpt lat="46.78282" lon="-1.58827">
        <ele>28.2</ele>
        <time>2024-05-10T07:43:12Z</time>
        <extensions>
          <gpxtpx:TrackPointExtension xmlns:gpxtpx="http://www.garmin.com/xmlschemas/TrackPointExtension/v1">
            <gpxtpx:hr>135</gpxtpx:hr>
          </gpxtpx:TrackPointExtension>
        </extensions>
      </trkpt>
      <trkpt lat="46.78281" lon="-1.5882">
        <ele>28.4</ele>
        <time>2024-05-10T07:43:13Z</time>
        <extensions>
          <gpxtpx:TrackPointExtension xmlns:gpxtpx="http://www.garmin.com/xmlschemas/TrackPointExtension/v1">
            <gpxtpx:hr>136</gpxtpx:hr>
          </gpxtpx:TrackPointExtension>
        </extensions>
      </trkpt>
      <trkpt lat="46.78281" lon="-1.58817">
        <ele>28.6</ele>
        <time>2024-05-10T07:43:14Z</time>
        <extensions>
          <gpxtpx:TrackPointExtension xmlns:gpxtpx="http://www.garmin.com/xmlschemas/TrackPointExtension/v1">
            <gpxtpx:hr>136</gpxtpx:hr>
          </gpxtpx:TrackPointExtension>
        </extensions>
      </trkpt>
      <trkpt lat="46.78279" lon="-1.58812">
        <ele>28.6</ele>
        <time>2024-05-10T07:43:15Z</time>
        <extensions>
          <gpxtpx:TrackPointExtension xmlns:gpxtpx="http://www.garmin.com/xmlschemas/TrackPointExtension/v1">
            <gpxtpx:hr>136</gpxtpx:hr>
          </gpxtpx:TrackPointExtension>
        </extensions>
      </trkpt>
      <trkpt lat="46.78278" lon="-1.58808">
        <ele>28.6</ele>
        <time>2024-05-10T07:43:16Z</time>
        <extensions>
          <gpxtpx:TrackPointExtension xmlns:gpxtpx="http://www.garmin.com/xmlschemas/TrackPointExtension/v1">
            <gpxtpx:hr>136</gpxtpx:hr>
          </gpxtpx:TrackPointExtension>
        </extensions>
      </trkpt>
      <trkpt lat="46.78276" lon="-1.58806">
        <ele>28.8</ele>
        <time>2024-05-10T07:43:17Z</time>
        <extensions>
          <gpxtpx:TrackPointExtension xmlns:gpxtpx="http://www.garmin.com/xmlschemas/TrackPointExtension/v1">
            <gpxtpx:hr>136</gpxtpx:hr>
          </gpxtpx:TrackPointExtension>
        </extensions>
      </trkpt>
      <trkpt lat="46.78274" lon="-1.58804">
        <ele>28.8</ele>
        <time>2024-05-10T07:43:18Z</time>
        <extensions>
          <gpxtpx:TrackPointExtension xmlns:gpxtpx="http://www.garmin.com/xmlschemas/TrackPointExtension/v1">
            <gpxtpx:hr>136</gpxtpx:hr>
          </gpxtpx:TrackPointExtension>
        </extensions>
      </trkpt>
      <trkpt lat="46.7827" lon="-1.58802">
        <ele>28.8</ele>
        <time>2024-05-10T07:43:19Z</time>
        <extensions>
          <gpxtpx:TrackPointExtension xmlns:gpxtpx="http://www.garmin.com/xmlschemas/TrackPointExtension/v1">
            <gpxtpx:hr>137</gpxtpx:hr>
          </gpxtpx:TrackPointExtension>
        </extensions>
      </trkpt>
      <trkpt lat="46.78268" lon="-1.58802">
        <ele>29</ele>
        <time>2024-05-10T07:43:20Z</time>
        <extensions>
          <gpxtpx:TrackPointExtension xmlns:gpxtpx="http://www.garmin.com/xmlschemas/TrackPointExtension/v1">
            <gpxtpx:hr>138</gpxtpx:hr>
          </gpxtpx:TrackPointExtension>
        </extensions>
      </trkpt>
      <trkpt lat="46.78266" lon="-1.588">
        <ele>29</ele>
        <time>2024-05-10T07:43:21Z</time>
        <extensions>
          <gpxtpx:TrackPointExtension xmlns:gpxtpx="http://www.garmin.com/xmlschemas/TrackPointExtension/v1">
            <gpxtpx:hr>138</gpxtpx:hr>
          </gpxtpx:TrackPointExtension>
        </extensions>
      </trkpt>
      <trkpt lat="46.78263" lon="-1.58799">
        <ele>29</ele>
        <time>2024-05-10T07:43:22Z</time>
        <extensions>
          <gpxtpx:TrackPointExtension xmlns:gpxtpx="http://www.garmin.com/xmlschemas/TrackPointExtension/v1">
            <gpxtpx:hr>138</gpxtpx:hr>
          </gpxtpx:TrackPointExtension>
        </extensions>
      </trkpt>
      <trkpt lat="46.7826" lon="-1.58798">
        <ele>29.2</ele>
        <time>2024-05-10T07:43:23Z</time>
        <extensions>
          <gpxtpx:TrackPointExtension xmlns:gpxtpx="http://www.garmin.com/xmlschemas/TrackPointExtension/v1">
            <gpxtpx:hr>139</gpxtpx:hr>
          </gpxtpx:TrackPointExtension>
        </extensions>
      </trkpt>
      <trkpt lat="46.78257" lon="-1.58798">
        <ele>29.4</ele>
        <time>2024-05-10T07:43:24Z</time>
        <extensions>
          <gpxtpx:TrackPointExtension xmlns:gpxtpx="http://www.garmin.com/xmlschemas/TrackPointExtension/v1">
            <gpxtpx:hr>138</gpxtpx:hr>
          </gpxtpx:TrackPointExtension>
        </extensions>
      </trkpt>
      <trkpt lat="46.78254" lon="-1.58798">
        <ele>29.4</ele>
        <time>2024-05-10T07:43:25Z</time>
        <extensions>
          <gpxtpx:TrackPointExtension xmlns:gpxtpx="http://www.garmin.com/xmlschemas/TrackPointExtension/v1">
            <gpxtpx:hr>138</gpxtpx:hr>
          </gpxtpx:TrackPointExtension>
        </extensions>
      </trkpt>
      <trkpt lat="46.7825" lon="-1.58797">
        <ele>29.6</ele>
        <time>2024-05-10T07:43:26Z</time>
        <extensions>
          <gpxtpx:TrackPointExtension xmlns:gpxtpx="http://www.garmin.com/xmlschemas/TrackPointExtension/v1">
            <gpxtpx:hr>138</gpxtpx:hr>
          </gpxtpx:TrackPointExtension>
        </extensions>
      </trkpt>
      <trkpt lat="46.78245" lon="-1.58796">
        <ele>29.8</ele>
        <time>2024-05-10T07:43:27Z</time>
        <extensions>
          <gpxtpx:TrackPointExtension xmlns:gpxtpx="http://www.garmin.com/xmlschemas/TrackPointExtension/v1">
            <gpxtpx:hr>138</gpxtpx:hr>
          </gpxtpx:TrackPointExtension>
        </extensions>
      </trkpt>
      <trkpt lat="46.78241" lon="-1.58795">
        <ele>29.8</ele>
        <time>2024-05-10T07:43:28Z</time>
        <extensions>
          <gpxtpx:TrackPointExtension xmlns:gpxtpx="http://www.garmin.com/xmlschemas/TrackPointExtension/v1">
            <gpxtpx:hr>138</gpxtpx:hr>
          </gpxtpx:TrackPointExtension>
        </extensions>
      </trkpt>
      <trkpt lat="46.78237" lon="-1.58794">
        <ele>29.8</ele>
        <time>2024-05-10T07:43:29Z</time>
        <extensions>
          <gpxtpx:TrackPointExtension xmlns:gpxtpx="http://www.garmin.com/xmlschemas/TrackPointExtension/v1">
            <gpxtpx:hr>137</gpxtpx:hr>
          </gpxtpx:TrackPointExtension>
        </extensions>
      </trkpt>
      <trkpt lat="46.78233" lon="-1.58794">
        <ele>29.8</ele>
        <time>2024-05-10T07:43:30Z</time>
        <extensions>
          <gpxtpx:TrackPointExtension xmlns:gpxtpx="http://www.garmin.com/xmlschemas/TrackPointExtension/v1">
            <gpxtpx:hr>137</gpxtpx:hr>
          </gpxtpx:TrackPointExtension>
        </extensions>
      </trkpt>
      <trkpt lat="46.78229" lon="-1.58795">
        <ele>29.8</ele>
        <time>2024-05-10T07:43:31Z</time>
        <extensions>
          <gpxtpx:TrackPointExtension xmlns:gpxtpx="http://www.garmin.com/xmlschemas/TrackPointExtension/v1">
            <gpxtpx:hr>137</gpxtpx:hr>
          </gpxtpx:TrackPointExtension>
        </extensions>
      </trkpt>
      <trkpt lat="46.78224" lon="-1.58796">
        <ele>29.6</ele>
        <time>2024-05-10T07:43:32Z</time>
        <extensions>
          <gpxtpx:TrackPointExtension xmlns:gpxtpx="http://www.garmin.com/xmlschemas/TrackPointExtension/v1">
            <gpxtpx:hr>137</gpxtpx:hr>
          </gpxtpx:TrackPointExtension>
        </extensions>
      </trkpt>
      <trkpt lat="46.78219" lon="-1.58798">
        <ele>29.4</ele>
        <time>2024-05-10T07:43:33Z</time>
        <extensions>
          <gpxtpx:TrackPointExtension xmlns:gpxtpx="http://www.garmin.com/xmlschemas/TrackPointExtension/v1">
            <gpxtpx:hr>138</gpxtpx:hr>
          </gpxtpx:TrackPointExtension>
        </extensions>
      </trkpt>
      <trkpt lat="46.78214" lon="-1.58799">
        <ele>29.2</ele>
        <time>2024-05-10T07:43:34Z</time>
        <extensions>
          <gpxtpx:TrackPointExtension xmlns:gpxtpx="http://www.garmin.com/xmlschemas/TrackPointExtension/v1">
            <gpxtpx:hr>138</gpxtpx:hr>
          </gpxtpx:TrackPointExtension>
        </extensions>
      </trkpt>
      <trkpt lat="46.78209" lon="-1.58799">
        <ele>29</ele>
        <time>2024-05-10T07:43:35Z</time>
        <extensions>
          <gpxtpx:TrackPointExtension xmlns:gpxtpx="http://www.garmin.com/xmlschemas/TrackPointExtension/v1">
            <gpxtpx:hr>138</gpxtpx:hr>
          </gpxtpx:TrackPointExtension>
        </extensions>
      </trkpt>
      <trkpt lat="46.78204" lon="-1.58799">
        <ele>28.8</ele>
        <time>2024-05-10T07:43:36Z</time>
        <extensions>
          <gpxtpx:TrackPointExtension xmlns:gpxtpx="http://www.garmin.com/xmlschemas/TrackPointExtension/v1">
            <gpxtpx:hr>139</gpxtpx:hr>
          </gpxtpx:TrackPointExtension>
        </extensions>
      </trkpt>
      <trkpt lat="46.78198" lon="-1.58799">
        <ele>28.8</ele>
        <time>2024-05-10T07:43:37Z</time>
        <extensions>
          <gpxtpx:TrackPointExtension xmlns:gpxtpx="http://www.garmin.com/xmlschemas/TrackPointExtension/v1">
            <gpxtpx:hr>140</gpxtpx:hr>
          </gpxtpx:TrackPointExtension>
        </extensions>
      </trkpt>
      <trkpt lat="46.78193" lon="-1.58801">
        <ele>28.6</ele>
        <time>2024-05-10T07:43:38Z</time>
        <extensions>
          <gpxtpx:TrackPointExtension xmlns:gpxtpx="http://www.garmin.com/xmlschemas/TrackPointExtension/v1">
            <gpxtpx:hr>141</gpxtpx:hr>
          </gpxtpx:TrackPointExtension>
        </extensions>
      </trkpt>
      <trkpt lat="46.78187" lon="-1.58802">
        <ele>28.4</ele>
        <time>2024-05-10T07:43:39Z</time>
        <extensions>
          <gpxtpx:TrackPointExtension xmlns:gpxtpx="http://www.garmin.com/xmlschemas/TrackPointExtension/v1">
            <gpxtpx:hr>141</gpxtpx:hr>
          </gpxtpx:TrackPointExtension>
        </extensions>
      </trkpt>
      <trkpt lat="46.78182" lon="-1.58805">
        <ele>28.4</ele>
        <time>2024-05-10T07:43:40Z</time>
        <extensions>
          <gpxtpx:TrackPointExtension xmlns:gpxtpx="http://www.garmin.com/xmlschemas/TrackPointExtension/v1">
            <gpxtpx:hr>141</gpxtpx:hr>
          </gpxtpx:TrackPointExtension>
        </extensions>
      </trkpt>
      <trkpt lat="46.78176" lon="-1.58807">
        <ele>28.4</ele>
        <time>2024-05-10T07:43:41Z</time>
        <extensions>
          <gpxtpx:TrackPointExtension xmlns:gpxtpx="http://www.garmin.com/xmlschemas/TrackPointExtension/v1">
            <gpxtpx:hr>142</gpxtpx:hr>
          </gpxtpx:TrackPointExtension>
        </extensions>
      </trkpt>
      <trkpt lat="46.78171" lon="-1.5881">
        <ele>28.4</ele>
        <time>2024-05-10T07:43:42Z</time>
        <extensions>
          <gpxtpx:TrackPointExtension xmlns:gpxtpx="http://www.garmin.com/xmlschemas/TrackPointExtension/v1">
            <gpxtpx:hr>141</gpxtpx:hr>
          </gpxtpx:TrackPointExtension>
        </extensions>
      </trkpt>
      <trkpt lat="46.78166" lon="-1.58812">
        <ele>28.2</ele>
        <time>2024-05-10T07:43:43Z</time>
        <extensions>
          <gpxtpx:TrackPointExtension xmlns:gpxtpx="http://www.garmin.com/xmlschemas/TrackPointExtension/v1">
            <gpxtpx:hr>141</gpxtpx:hr>
          </gpxtpx:TrackPointExtension>
        </extensions>
      </trkpt>
      <trkpt lat="46.78161" lon="-1.58813">
        <ele>28.2</ele>
        <time>2024-05-10T07:43:44Z</time>
        <extensions>
          <gpxtpx:TrackPointExtension xmlns:gpxtpx="http://www.garmin.com/xmlschemas/TrackPointExtension/v1">
            <gpxtpx:hr>140</gpxtpx:hr>
          </gpxtpx:TrackPointExtension>
        </extensions>
      </trkpt>
      <trkpt lat="46.78156" lon="-1.58814">
        <ele>28.2</ele>
        <time>2024-05-10T07:43:45Z</time>
        <extensions>
          <gpxtpx:TrackPointExtension xmlns:gpxtpx="http://www.garmin.com/xmlschemas/TrackPointExtension/v1">
            <gpxtpx:hr>140</gpxtpx:hr>
          </gpxtpx:TrackPointExtension>
        </extensions>
      </trkpt>
      <trkpt lat="46.78151" lon="-1.58816">
        <ele>28</ele>
        <time>2024-05-10T07:43:46Z</time>
        <extensions>
          <gpxtpx:TrackPointExtension xmlns:gpxtpx="http://www.garmin.com/xmlschemas/TrackPointExtension/v1">
            <gpxtpx:hr>139</gpxtpx:hr>
          </gpxtpx:TrackPointExtension>
        </extensions>
      </trkpt>
      <trkpt lat="46.78146" lon="-1.58818">
        <ele>28</ele>
        <time>2024-05-10T07:43:47Z</time>
        <extensions>
          <gpxtpx:TrackPointExtension xmlns:gpxtpx="http://www.garmin.com/xmlschemas/TrackPointExtension/v1">
            <gpxtpx:hr>139</gpxtpx:hr>
          </gpxtpx:TrackPointExtension>
        </extensions>
      </trkpt>
      <trkpt lat="46.78141" lon="-1.5882">
        <ele>27.8</ele>
        <time>2024-05-10T07:43:48Z</time>
        <extensions>
          <gpxtpx:TrackPointExtension xmlns:gpxtpx="http://www.garmin.com/xmlschemas/TrackPointExtension/v1">
            <gpxtpx:hr>139</gpxtpx:hr>
          </gpxtpx:TrackPointExtension>
        </extensions>
      </trkpt>
      <trkpt lat="46.78136" lon="-1.58822">
        <ele>27.6</ele>
        <time>2024-05-10T07:43:49Z</time>
        <extensions>
          <gpxtpx:TrackPointExtension xmlns:gpxtpx="http://www.garmin.com/xmlschemas/TrackPointExtension/v1">
            <gpxtpx:hr>139</gpxtpx:hr>
          </gpxtpx:TrackPointExtension>
        </extensions>
      </trkpt>
      <trkpt lat="46.78131" lon="-1.58824">
        <ele>27.4</ele>
        <time>2024-05-10T07:43:50Z</time>
        <extensions>
          <gpxtpx:TrackPointExtension xmlns:gpxtpx="http://www.garmin.com/xmlschemas/TrackPointExtension/v1">
            <gpxtpx:hr>139</gpxtpx:hr>
          </gpxtpx:TrackPointExtension>
        </extensions>
      </trkpt>
      <trkpt lat="46.78126" lon="-1.58826">
        <ele>27.2</ele>
        <time>2024-05-10T07:43:51Z</time>
        <extensions>
          <gpxtpx:TrackPointExtension xmlns:gpxtpx="http://www.garmin.com/xmlschemas/TrackPointExtension/v1">
            <gpxtpx:hr>138</gpxtpx:hr>
          </gpxtpx:TrackPointExtension>
        </extensions>
      </trkpt>
      <trkpt lat="46.78121" lon="-1.58826">
        <ele>27.2</ele>
        <time>2024-05-10T07:43:52Z</time>
        <extensions>
          <gpxtpx:TrackPointExtension xmlns:gpxtpx="http://www.garmin.com/xmlschemas/TrackPointExtension/v1">
            <gpxtpx:hr>139</gpxtpx:hr>
          </gpxtpx:TrackPointExtension>
        </extensions>
      </trkpt>
      <trkpt lat="46.78115" lon="-1.58826">
        <ele>27</ele>
        <time>2024-05-10T07:43:53Z</time>
        <extensions>
          <gpxtpx:TrackPointExtension xmlns:gpxtpx="http://www.garmin.com/xmlschemas/TrackPointExtension/v1">
            <gpxtpx:hr>139</gpxtpx:hr>
          </gpxtpx:TrackPointExtension>
        </extensions>
      </trkpt>
      <trkpt lat="46.7811" lon="-1.58825">
        <ele>26.8</ele>
        <time>2024-05-10T07:43:54Z</time>
        <extensions>
          <gpxtpx:TrackPointExtension xmlns:gpxtpx="http://www.garmin.com/xmlschemas/TrackPointExtension/v1">
            <gpxtpx:hr>138</gpxtpx:hr>
          </gpxtpx:TrackPointExtension>
        </extensions>
      </trkpt>
      <trkpt lat="46.78104" lon="-1.58824">
        <ele>26.8</ele>
        <time>2024-05-10T07:43:55Z</time>
        <extensions>
          <gpxtpx:TrackPointExtension xmlns:gpxtpx="http://www.garmin.com/xmlschemas/TrackPointExtension/v1">
            <gpxtpx:hr>138</gpxtpx:hr>
          </gpxtpx:TrackPointExtension>
        </extensions>
      </trkpt>
      <trkpt lat="46.78098" lon="-1.58823">
        <ele>26.6</ele>
        <time>2024-05-10T07:43:57Z</time>
        <extensions>
          <gpxtpx:TrackPointExtension xmlns:gpxtpx="http://www.garmin.com/xmlschemas/TrackPointExtension/v1">
            <gpxtpx:hr>138</gpxtpx:hr>
          </gpxtpx:TrackPointExtension>
        </extensions>
      </trkpt>
      <trkpt lat="46.78093" lon="-1.58823">
        <ele>26.4</ele>
        <time>2024-05-10T07:43:58Z</time>
        <extensions>
          <gpxtpx:TrackPointExtension xmlns:gpxtpx="http://www.garmin.com/xmlschemas/TrackPointExtension/v1">
            <gpxtpx:hr>137</gpxtpx:hr>
          </gpxtpx:TrackPointExtension>
        </extensions>
      </trkpt>
      <trkpt lat="46.78087" lon="-1.58822">
        <ele>26.2</ele>
        <time>2024-05-10T07:43:59Z</time>
        <extensions>
          <gpxtpx:TrackPointExtension xmlns:gpxtpx="http://www.garmin.com/xmlschemas/TrackPointExtension/v1">
            <gpxtpx:hr>137</gpxtpx:hr>
          </gpxtpx:TrackPointExtension>
        </extensions>
      </trkpt>
      <trkpt lat="46.78082" lon="-1.58821">
        <ele>26.2</ele>
        <time>2024-05-10T07:44:00Z</time>
        <extensions>
          <gpxtpx:TrackPointExtension xmlns:gpxtpx="http://www.garmin.com/xmlschemas/TrackPointExtension/v1">
            <gpxtpx:hr>135</gpxtpx:hr>
          </gpxtpx:TrackPointExtension>
        </extensions>
      </trkpt>
      <trkpt lat="46.78076" lon="-1.5882">
        <ele>26</ele>
        <time>2024-05-10T07:44:01Z</time>
        <extensions>
          <gpxtpx:TrackPointExtension xmlns:gpxtpx="http://www.garmin.com/xmlschemas/TrackPointExtension/v1">
            <gpxtpx:hr>134</gpxtpx:hr>
          </gpxtpx:TrackPointExtension>
        </extensions>
      </trkpt>
      <trkpt lat="46.78071" lon="-1.58819">
        <ele>26</ele>
        <time>2024-05-10T07:44:02Z</time>
        <extensions>
          <gpxtpx:TrackPointExtension xmlns:gpxtpx="http://www.garmin.com/xmlschemas/TrackPointExtension/v1">
            <gpxtpx:hr>133</gpxtpx:hr>
          </gpxtpx:TrackPointExtension>
        </extensions>
      </trkpt>
      <trkpt lat="46.78066" lon="-1.58819">
        <ele>25.8</ele>
        <time>2024-05-10T07:44:03Z</time>
        <extensions>
          <gpxtpx:TrackPointExtension xmlns:gpxtpx="http://www.garmin.com/xmlschemas/TrackPointExtension/v1">
            <gpxtpx:hr>132</gpxtpx:hr>
          </gpxtpx:TrackPointExtension>
        </extensions>
      </trkpt>
      <trkpt lat="46.78061" lon="-1.58818">
        <ele>25.8</ele>
        <time>2024-05-10T07:44:04Z</time>
        <extensions>
          <gpxtpx:TrackPointExtension xmlns:gpxtpx="http://www.garmin.com/xmlschemas/TrackPointExtension/v1">
            <gpxtpx:hr>132</gpxtpx:hr>
          </gpxtpx:TrackPointExtension>
        </extensions>
      </trkpt>
      <trkpt lat="46.78053" lon="-1.58815">
        <ele>25.8</ele>
        <time>2024-05-10T07:44:05Z</time>
        <extensions>
          <gpxtpx:TrackPointExtension xmlns:gpxtpx="http://www.garmin.com/xmlschemas/TrackPointExtension/v1">
            <gpxtpx:hr>131</gpxtpx:hr>
          </gpxtpx:TrackPointExtension>
        </extensions>
      </trkpt>
      <trkpt lat="46.78047" lon="-1.58813">
        <ele>25.6</ele>
        <time>2024-05-10T07:44:06Z</time>
        <extensions>
          <gpxtpx:TrackPointExtension xmlns:gpxtpx="http://www.garmin.com/xmlschemas/TrackPointExtension/v1">
            <gpxtpx:hr>131</gpxtpx:hr>
          </gpxtpx:TrackPointExtension>
        </extensions>
      </trkpt>
      <trkpt lat="46.78041" lon="-1.58812">
        <ele>25.6</ele>
        <time>2024-05-10T07:44:07Z</time>
        <extensions>
          <gpxtpx:TrackPointExtension xmlns:gpxtpx="http://www.garmin.com/xmlschemas/TrackPointExtension/v1">
            <gpxtpx:hr>130</gpxtpx:hr>
          </gpxtpx:TrackPointExtension>
        </extensions>
      </trkpt>
      <trkpt lat="46.78036" lon="-1.5881">
        <ele>25.6</ele>
        <time>2024-05-10T07:44:08Z</time>
        <extensions>
          <gpxtpx:TrackPointExtension xmlns:gpxtpx="http://www.garmin.com/xmlschemas/TrackPointExtension/v1">
            <gpxtpx:hr>129</gpxtpx:hr>
          </gpxtpx:TrackPointExtension>
        </extensions>
      </trkpt>
      <trkpt lat="46.78031" lon="-1.58807">
        <ele>25.6</ele>
        <time>2024-05-10T07:44:09Z</time>
        <extensions>
          <gpxtpx:TrackPointExtension xmlns:gpxtpx="http://www.garmin.com/xmlschemas/TrackPointExtension/v1">
            <gpxtpx:hr>129</gpxtpx:hr>
          </gpxtpx:TrackPointExtension>
        </extensions>
      </trkpt>
      <trkpt lat="46.78027" lon="-1.58805">
        <ele>25.4</ele>
        <time>2024-05-10T07:44:10Z</time>
        <extensions>
          <gpxtpx:TrackPointExtension xmlns:gpxtpx="http://www.garmin.com/xmlschemas/TrackPointExtension/v1">
            <gpxtpx:hr>129</gpxtpx:hr>
          </gpxtpx:TrackPointExtension>
        </extensions>
      </trkpt>
      <trkpt lat="46.78022" lon="-1.58802">
        <ele>25.4</ele>
        <time>2024-05-10T07:44:11Z</time>
        <extensions>
          <gpxtpx:TrackPointExtension xmlns:gpxtpx="http://www.garmin.com/xmlschemas/TrackPointExtension/v1">
            <gpxtpx:hr>129</gpxtpx:hr>
          </gpxtpx:TrackPointExtension>
        </extensions>
      </trkpt>
      <trkpt lat="46.78018" lon="-1.588">
        <ele>25.6</ele>
        <time>2024-05-10T07:44:12Z</time>
        <extensions>
          <gpxtpx:TrackPointExtension xmlns:gpxtpx="http://www.garmin.com/xmlschemas/TrackPointExtension/v1">
            <gpxtpx:hr>129</gpxtpx:hr>
          </gpxtpx:TrackPointExtension>
        </extensions>
      </trkpt>
      <trkpt lat="46.78013" lon="-1.58798">
        <ele>25.6</ele>
        <time>2024-05-10T07:44:13Z</time>
        <extensions>
          <gpxtpx:TrackPointExtension xmlns:gpxtpx="http://www.garmin.com/xmlschemas/TrackPointExtension/v1">
            <gpxtpx:hr>129</gpxtpx:hr>
          </gpxtpx:TrackPointExtension>
        </extensions>
      </trkpt>
      <trkpt lat="46.78009" lon="-1.58795">
        <ele>25.8</ele>
        <time>2024-05-10T07:44:14Z</time>
        <extensions>
          <gpxtpx:TrackPointExtension xmlns:gpxtpx="http://www.garmin.com/xmlschemas/TrackPointExtension/v1">
            <gpxtpx:hr>128</gpxtpx:hr>
          </gpxtpx:TrackPointExtension>
        </extensions>
      </trkpt>
      <trkpt lat="46.78005" lon="-1.58792">
        <ele>25.6</ele>
        <time>2024-05-10T07:44:15Z</time>
        <extensions>
          <gpxtpx:TrackPointExtension xmlns:gpxtpx="http://www.garmin.com/xmlschemas/TrackPointExtension/v1">
            <gpxtpx:hr>128</gpxtpx:hr>
          </gpxtpx:TrackPointExtension>
        </extensions>
      </trkpt>
      <trkpt lat="46.78001" lon="-1.58789">
        <ele>25.6</ele>
        <time>2024-05-10T07:44:16Z</time>
        <extensions>
          <gpxtpx:TrackPointExtension xmlns:gpxtpx="http://www.garmin.com/xmlschemas/TrackPointExtension/v1">
            <gpxtpx:hr>127</gpxtpx:hr>
          </gpxtpx:TrackPointExtension>
        </extensions>
      </trkpt>
      <trkpt lat="46.77996" lon="-1.58785">
        <ele>25.8</ele>
        <time>2024-05-10T07:44:17Z</time>
        <extensions>
          <gpxtpx:TrackPointExtension xmlns:gpxtpx="http://www.garmin.com/xmlschemas/TrackPointExtension/v1">
            <gpxtpx:hr>127</gpxtpx:hr>
          </gpxtpx:TrackPointExtension>
        </extensions>
      </trkpt>
      <trkpt lat="46.77992" lon="-1.58781">
        <ele>25.6</ele>
        <time>2024-05-10T07:44:18Z</time>
        <extensions>
          <gpxtpx:TrackPointExtension xmlns:gpxtpx="http://www.garmin.com/xmlschemas/TrackPointExtension/v1">
            <gpxtpx:hr>126</gpxtpx:hr>
          </gpxtpx:TrackPointExtension>
        </extensions>
      </trkpt>
      <trkpt lat="46.77987" lon="-1.58778">
        <ele>25.6</ele>
        <time>2024-05-10T07:44:19Z</time>
        <extensions>
          <gpxtpx:TrackPointExtension xmlns:gpxtpx="http://www.garmin.com/xmlschemas/TrackPointExtension/v1">
            <gpxtpx:hr>126</gpxtpx:hr>
          </gpxtpx:TrackPointExtension>
        </extensions>
      </trkpt>
      <trkpt lat="46.77983" lon="-1.58774">
        <ele>25.6</ele>
        <time>2024-05-10T07:44:20Z</time>
        <extensions>
          <gpxtpx:TrackPointExtension xmlns:gpxtpx="http://www.garmin.com/xmlschemas/TrackPointExtension/v1">
            <gpxtpx:hr>126</gpxtpx:hr>
          </gpxtpx:TrackPointExtension>
        </extensions>
      </trkpt>
      <trkpt lat="46.77978" lon="-1.5877">
        <ele>25.6</ele>
        <time>2024-05-10T07:44:21Z</time>
        <extensions>
          <gpxtpx:TrackPointExtension xmlns:gpxtpx="http://www.garmin.com/xmlschemas/TrackPointExtension/v1">
            <gpxtpx:hr>126</gpxtpx:hr>
          </gpxtpx:TrackPointExtension>
        </extensions>
      </trkpt>
      <trkpt lat="46.77974" lon="-1.58767">
        <ele>25.6</ele>
        <time>2024-05-10T07:44:22Z</time>
        <extensions>
          <gpxtpx:TrackPointExtension xmlns:gpxtpx="http://www.garmin.com/xmlschemas/TrackPointExtension/v1">
            <gpxtpx:hr>126</gpxtpx:hr>
          </gpxtpx:TrackPointExtension>
        </extensions>
      </trkpt>
      <trkpt lat="46.77969" lon="-1.58763">
        <ele>25.6</ele>
        <time>2024-05-10T07:44:23Z</time>
        <extensions>
          <gpxtpx:TrackPointExtension xmlns:gpxtpx="http://www.garmin.com/xmlschemas/TrackPointExtension/v1">
            <gpxtpx:hr>126</gpxtpx:hr>
          </gpxtpx:TrackPointExtension>
        </extensions>
      </trkpt>
      <trkpt lat="46.77965" lon="-1.5876">
        <ele>25.6</ele>
        <time>2024-05-10T07:44:24Z</time>
        <extensions>
          <gpxtpx:TrackPointExtension xmlns:gpxtpx="http://www.garmin.com/xmlschemas/TrackPointExtension/v1">
            <gpxtpx:hr>126</gpxtpx:hr>
          </gpxtpx:TrackPointExtension>
        </extensions>
      </trkpt>
      <trkpt lat="46.77961" lon="-1.58755">
        <ele>25.6</ele>
        <time>2024-05-10T07:44:25Z</time>
        <extensions>
          <gpxtpx:TrackPointExtension xmlns:gpxtpx="http://www.garmin.com/xmlschemas/TrackPointExtension/v1">
            <gpxtpx:hr>126</gpxtpx:hr>
          </gpxtpx:TrackPointExtension>
        </extensions>
      </trkpt>
      <trkpt lat="46.77957" lon="-1.5875">
        <ele>25.6</ele>
        <time>2024-05-10T07:44:26Z</time>
        <extensions>
          <gpxtpx:TrackPointExtension xmlns:gpxtpx="http://www.garmin.com/xmlschemas/TrackPointExtension/v1">
            <gpxtpx:hr>126</gpxtpx:hr>
          </gpxtpx:TrackPointExtension>
        </extensions>
      </trkpt>
      <trkpt lat="46.77954" lon="-1.58745">
        <ele>25.6</ele>
        <time>2024-05-10T07:44:27Z</time>
        <extensions>
          <gpxtpx:TrackPointExtension xmlns:gpxtpx="http://www.garmin.com/xmlschemas/TrackPointExtension/v1">
            <gpxtpx:hr>126</gpxtpx:hr>
          </gpxtpx:TrackPointExtension>
        </extensions>
      </trkpt>
      <trkpt lat="46.7795" lon="-1.58739">
        <ele>25.4</ele>
        <time>2024-05-10T07:44:28Z</time>
        <extensions>
          <gpxtpx:TrackPointExtension xmlns:gpxtpx="http://www.garmin.com/xmlschemas/TrackPointExtension/v1">
            <gpxtpx:hr>126</gpxtpx:hr>
          </gpxtpx:TrackPointExtension>
        </extensions>
      </trkpt>
      <trkpt lat="46.77947" lon="-1.58732">
        <ele>25.4</ele>
        <time>2024-05-10T07:44:29Z</time>
        <extensions>
          <gpxtpx:TrackPointExtension xmlns:gpxtpx="http://www.garmin.com/xmlschemas/TrackPointExtension/v1">
            <gpxtpx:hr>126</gpxtpx:hr>
          </gpxtpx:TrackPointExtension>
        </extensions>
      </trkpt>
      <trkpt lat="46.77944" lon="-1.58725">
        <ele>25.4</ele>
        <time>2024-05-10T07:44:30Z</time>
        <extensions>
          <gpxtpx:TrackPointExtension xmlns:gpxtpx="http://www.garmin.com/xmlschemas/TrackPointExtension/v1">
            <gpxtpx:hr>126</gpxtpx:hr>
          </gpxtpx:TrackPointExtension>
        </extensions>
      </trkpt>
      <trkpt lat="46.77942" lon="-1.58718">
        <ele>25.2</ele>
        <time>2024-05-10T07:44:31Z</time>
        <extensions>
          <gpxtpx:TrackPointExtension xmlns:gpxtpx="http://www.garmin.com/xmlschemas/TrackPointExtension/v1">
            <gpxtpx:hr>127</gpxtpx:hr>
          </gpxtpx:TrackPointExtension>
        </extensions>
      </trkpt>
      <trkpt lat="46.77941" lon="-1.58711">
        <ele>25.2</ele>
        <time>2024-05-10T07:44:32Z</time>
        <extensions>
          <gpxtpx:TrackPointExtension xmlns:gpxtpx="http://www.garmin.com/xmlschemas/TrackPointExtension/v1">
            <gpxtpx:hr>127</gpxtpx:hr>
          </gpxtpx:TrackPointExtension>
        </extensions>
      </trkpt>
      <trkpt lat="46.77939" lon="-1.58704">
        <ele>25.2</ele>
        <time>2024-05-10T07:44:33Z</time>
        <extensions>
          <gpxtpx:TrackPointExtension xmlns:gpxtpx="http://www.garmin.com/xmlschemas/TrackPointExtension/v1">
            <gpxtpx:hr>127</gpxtpx:hr>
          </gpxtpx:TrackPointExtension>
        </extensions>
      </trkpt>
      <trkpt lat="46.77937" lon="-1.58696">
        <ele>25.2</ele>
        <time>2024-05-10T07:44:34Z</time>
        <extensions>
          <gpxtpx:TrackPointExtension xmlns:gpxtpx="http://www.garmin.com/xmlschemas/TrackPointExtension/v1">
            <gpxtpx:hr>127</gpxtpx:hr>
          </gpxtpx:TrackPointExtension>
        </extensions>
      </trkpt>
      <trkpt lat="46.77936" lon="-1.58689">
        <ele>25.2</ele>
        <time>2024-05-10T07:44:35Z</time>
        <extensions>
          <gpxtpx:TrackPointExtension xmlns:gpxtpx="http://www.garmin.com/xmlschemas/TrackPointExtension/v1">
            <gpxtpx:hr>128</gpxtpx:hr>
          </gpxtpx:TrackPointExtension>
        </extensions>
      </trkpt>
      <trkpt lat="46.77934" lon="-1.58683">
        <ele>25.2</ele>
        <time>2024-05-10T07:44:36Z</time>
        <extensions>
          <gpxtpx:TrackPointExtension xmlns:gpxtpx="http://www.garmin.com/xmlschemas/TrackPointExtension/v1">
            <gpxtpx:hr>128</gpxtpx:hr>
          </gpxtpx:TrackPointExtension>
        </extensions>
      </trkpt>
      <trkpt lat="46.77932" lon="-1.58676">
        <ele>25.2</ele>
        <time>2024-05-10T07:44:37Z</time>
        <extensions>
          <gpxtpx:TrackPointExtension xmlns:gpxtpx="http://www.garmin.com/xmlschemas/TrackPointExtension/v1">
            <gpxtpx:hr>128</gpxtpx:hr>
          </gpxtpx:TrackPointExtension>
        </extensions>
      </trkpt>
      <trkpt lat="46.77931" lon="-1.5867">
        <ele>25.2</ele>
        <time>2024-05-10T07:44:38Z</time>
        <extensions>
          <gpxtpx:TrackPointExtension xmlns:gpxtpx="http://www.garmin.com/xmlschemas/TrackPointExtension/v1">
            <gpxtpx:hr>129</gpxtpx:hr>
          </gpxtpx:TrackPointExtension>
        </extensions>
      </trkpt>
      <trkpt lat="46.7793" lon="-1.58663">
        <ele>25.2</ele>
        <time>2024-05-10T07:44:39Z</time>
        <extensions>
          <gpxtpx:TrackPointExtension xmlns:gpxtpx="http://www.garmin.com/xmlschemas/TrackPointExtension/v1">
            <gpxtpx:hr>129</gpxtpx:hr>
          </gpxtpx:TrackPointExtension>
        </extensions>
      </trkpt>
      <trkpt lat="46.77929" lon="-1.58656">
        <ele>25.2</ele>
        <time>2024-05-10T07:44:40Z</time>
        <extensions>
          <gpxtpx:TrackPointExtension xmlns:gpxtpx="http://www.garmin.com/xmlschemas/TrackPointExtension/v1">
            <gpxtpx:hr>129</gpxtpx:hr>
          </gpxtpx:TrackPointExtension>
        </extensions>
      </trkpt>
      <trkpt lat="46.77927" lon="-1.58649">
        <ele>25.4</ele>
        <time>2024-05-10T07:44:41Z</time>
        <extensions>
          <gpxtpx:TrackPointExtension xmlns:gpxtpx="http://www.garmin.com/xmlschemas/TrackPointExtension/v1">
            <gpxtpx:hr>128</gpxtpx:hr>
          </gpxtpx:TrackPointExtension>
        </extensions>
      </trkpt>
      <trkpt lat="46.77926" lon="-1.58643">
        <ele>25.4</ele>
        <time>2024-05-10T07:44:42Z</time>
        <extensions>
          <gpxtpx:TrackPointExtension xmlns:gpxtpx="http://www.garmin.com/xmlschemas/TrackPointExtension/v1">
            <gpxtpx:hr>128</gpxtpx:hr>
          </gpxtpx:TrackPointExtension>
        </extensions>
      </trkpt>
      <trkpt lat="46.77924" lon="-1.58636">
        <ele>25.6</ele>
        <time>2024-05-10T07:44:43Z</time>
        <extensions>
          <gpxtpx:TrackPointExtension xmlns:gpxtpx="http://www.garmin.com/xmlschemas/TrackPointExtension/v1">
            <gpxtpx:hr>129</gpxtpx:hr>
          </gpxtpx:TrackPointExtension>
        </extensions>
      </trkpt>
      <trkpt lat="46.77922" lon="-1.58629">
        <ele>25.6</ele>
        <time>2024-05-10T07:44:44Z</time>
        <extensions>
          <gpxtpx:TrackPointExtension xmlns:gpxtpx="http://www.garmin.com/xmlschemas/TrackPointExtension/v1">
            <gpxtpx:hr>129</gpxtpx:hr>
          </gpxtpx:TrackPointExtension>
        </extensions>
      </trkpt>
      <trkpt lat="46.77921" lon="-1.58622">
        <ele>25.8</ele>
        <time>2024-05-10T07:44:45Z</time>
        <extensions>
          <gpxtpx:TrackPointExtension xmlns:gpxtpx="http://www.garmin.com/xmlschemas/TrackPointExtension/v1">
            <gpxtpx:hr>129</gpxtpx:hr>
          </gpxtpx:TrackPointExtension>
        </extensions>
      </trkpt>
      <trkpt lat="46.77921" lon="-1.58616">
        <ele>25.8</ele>
        <time>2024-05-10T07:44:46Z</time>
        <extensions>
          <gpxtpx:TrackPointExtension xmlns:gpxtpx="http://www.garmin.com/xmlschemas/TrackPointExtension/v1">
            <gpxtpx:hr>129</gpxtpx:hr>
          </gpxtpx:TrackPointExtension>
        </extensions>
      </trkpt>
      <trkpt lat="46.7792" lon="-1.58609">
        <ele>25.8</ele>
        <time>2024-05-10T07:44:47Z</time>
        <extensions>
          <gpxtpx:TrackPointExtension xmlns:gpxtpx="http://www.garmin.com/xmlschemas/TrackPointExtension/v1">
            <gpxtpx:hr>130</gpxtpx:hr>
          </gpxtpx:TrackPointExtension>
        </extensions>
      </trkpt>
      <trkpt lat="46.77921" lon="-1.58599">
        <ele>25.8</ele>
        <time>2024-05-10T07:44:48Z</time>
        <extensions>
          <gpxtpx:TrackPointExtension xmlns:gpxtpx="http://www.garmin.com/xmlschemas/TrackPointExtension/v1">
            <gpxtpx:hr>130</gpxtpx:hr>
          </gpxtpx:TrackPointExtension>
        </extensions>
      </trkpt>
      <trkpt lat="46.77921" lon="-1.58596">
        <ele>25.8</ele>
        <time>2024-05-10T07:44:49Z</time>
        <extensions>
          <gpxtpx:TrackPointExtension xmlns:gpxtpx="http://www.garmin.com/xmlschemas/TrackPointExtension/v1">
            <gpxtpx:hr>130</gpxtpx:hr>
          </gpxtpx:TrackPointExtension>
        </extensions>
      </trkpt>
      <trkpt lat="46.77922" lon="-1.58586">
        <ele>25.8</ele>
        <time>2024-05-10T07:44:50Z</time>
        <extensions>
          <gpxtpx:TrackPointExtension xmlns:gpxtpx="http://www.garmin.com/xmlschemas/TrackPointExtension/v1">
            <gpxtpx:hr>130</gpxtpx:hr>
          </gpxtpx:TrackPointExtension>
        </extensions>
      </trkpt>
      <trkpt lat="46.77923" lon="-1.58582">
        <ele>25.8</ele>
        <time>2024-05-10T07:44:51Z</time>
        <extensions>
          <gpxtpx:TrackPointExtension xmlns:gpxtpx="http://www.garmin.com/xmlschemas/TrackPointExtension/v1">
            <gpxtpx:hr>130</gpxtpx:hr>
          </gpxtpx:TrackPointExtension>
        </extensions>
      </trkpt>
      <trkpt lat="46.77924" lon="-1.58575">
        <ele>25.8</ele>
        <time>2024-05-10T07:44:52Z</time>
        <extensions>
          <gpxtpx:TrackPointExtension xmlns:gpxtpx="http://www.garmin.com/xmlschemas/TrackPointExtension/v1">
            <gpxtpx:hr>131</gpxtpx:hr>
          </gpxtpx:TrackPointExtension>
        </extensions>
      </trkpt>
      <trkpt lat="46.77925" lon="-1.58568">
        <ele>25.8</ele>
        <time>2024-05-10T07:44:53Z</time>
        <extensions>
          <gpxtpx:TrackPointExtension xmlns:gpxtpx="http://www.garmin.com/xmlschemas/TrackPointExtension/v1">
            <gpxtpx:hr>131</gpxtpx:hr>
          </gpxtpx:TrackPointExtension>
        </extensions>
      </trkpt>
      <trkpt lat="46.77926" lon="-1.58562">
        <ele>25.8</ele>
        <time>2024-05-10T07:44:54Z</time>
        <extensions>
          <gpxtpx:TrackPointExtension xmlns:gpxtpx="http://www.garmin.com/xmlschemas/TrackPointExtension/v1">
            <gpxtpx:hr>131</gpxtpx:hr>
          </gpxtpx:TrackPointExtension>
        </extensions>
      </trkpt>
      <trkpt lat="46.77928" lon="-1.58556">
        <ele>25.8</ele>
        <time>2024-05-10T07:44:55Z</time>
        <extensions>
          <gpxtpx:TrackPointExtension xmlns:gpxtpx="http://www.garmin.com/xmlschemas/TrackPointExtension/v1">
            <gpxtpx:hr>132</gpxtpx:hr>
          </gpxtpx:TrackPointExtension>
        </extensions>
      </trkpt>
      <trkpt lat="46.77931" lon="-1.58547">
        <ele>25.8</ele>
        <time>2024-05-10T07:44:56Z</time>
        <extensions>
          <gpxtpx:TrackPointExtension xmlns:gpxtpx="http://www.garmin.com/xmlschemas/TrackPointExtension/v1">
            <gpxtpx:hr>132</gpxtpx:hr>
          </gpxtpx:TrackPointExtension>
        </extensions>
      </trkpt>
      <trkpt lat="46.77932" lon="-1.58544">
        <ele>25.8</ele>
        <time>2024-05-10T07:44:57Z</time>
        <extensions>
          <gpxtpx:TrackPointExtension xmlns:gpxtpx="http://www.garmin.com/xmlschemas/TrackPointExtension/v1">
            <gpxtpx:hr>132</gpxtpx:hr>
          </gpxtpx:TrackPointExtension>
        </extensions>
      </trkpt>
      <trkpt lat="46.77934" lon="-1.58538">
        <ele>25.8</ele>
        <time>2024-05-10T07:44:58Z</time>
        <extensions>
          <gpxtpx:TrackPointExtension xmlns:gpxtpx="http://www.garmin.com/xmlschemas/TrackPointExtension/v1">
            <gpxtpx:hr>134</gpxtpx:hr>
          </gpxtpx:TrackPointExtension>
        </extensions>
      </trkpt>
      <trkpt lat="46.77936" lon="-1.58531">
        <ele>25.8</ele>
        <time>2024-05-10T07:44:59Z</time>
        <extensions>
          <gpxtpx:TrackPointExtension xmlns:gpxtpx="http://www.garmin.com/xmlschemas/TrackPointExtension/v1">
            <gpxtpx:hr>134</gpxtpx:hr>
          </gpxtpx:TrackPointExtension>
        </extensions>
      </trkpt>
      <trkpt lat="46.77939" lon="-1.58525">
        <ele>26</ele>
        <time>2024-05-10T07:45:00Z</time>
        <extensions>
          <gpxtpx:TrackPointExtension xmlns:gpxtpx="http://www.garmin.com/xmlschemas/TrackPointExtension/v1">
            <gpxtpx:hr>135</gpxtpx:hr>
          </gpxtpx:TrackPointExtension>
        </extensions>
      </trkpt>
      <trkpt lat="46.77941" lon="-1.58519">
        <ele>26</ele>
        <time>2024-05-10T07:45:01Z</time>
        <extensions>
          <gpxtpx:TrackPointExtension xmlns:gpxtpx="http://www.garmin.com/xmlschemas/TrackPointExtension/v1">
            <gpxtpx:hr>135</gpxtpx:hr>
          </gpxtpx:TrackPointExtension>
        </extensions>
      </trkpt>
      <trkpt lat="46.77943" lon="-1.58512">
        <ele>26.2</ele>
        <time>2024-05-10T07:45:02Z</time>
        <extensions>
          <gpxtpx:TrackPointExtension xmlns:gpxtpx="http://www.garmin.com/xmlschemas/TrackPointExtension/v1">
            <gpxtpx:hr>137</gpxtpx:hr>
          </gpxtpx:TrackPointExtension>
        </extensions>
      </trkpt>
      <trkpt lat="46.77945" lon="-1.58507">
        <ele>26.2</ele>
        <time>2024-05-10T07:45:03Z</time>
        <extensions>
          <gpxtpx:TrackPointExtension xmlns:gpxtpx="http://www.garmin.com/xmlschemas/TrackPointExtension/v1">
            <gpxtpx:hr>137</gpxtpx:hr>
          </gpxtpx:TrackPointExtension>
        </extensions>
      </trkpt>
      <trkpt lat="46.77948" lon="-1.585">
        <ele>26.4</ele>
        <time>2024-05-10T07:45:04Z</time>
        <extensions>
          <gpxtpx:TrackPointExtension xmlns:gpxtpx="http://www.garmin.com/xmlschemas/TrackPointExtension/v1">
            <gpxtpx:hr>137</gpxtpx:hr>
          </gpxtpx:TrackPointExtension>
        </extensions>
      </trkpt>
      <trkpt lat="46.7795" lon="-1.58494">
        <ele>26.2</ele>
        <time>2024-05-10T07:45:05Z</time>
        <extensions>
          <gpxtpx:TrackPointExtension xmlns:gpxtpx="http://www.garmin.com/xmlschemas/TrackPointExtension/v1">
            <gpxtpx:hr>137</gpxtpx:hr>
          </gpxtpx:TrackPointExtension>
        </extensions>
      </trkpt>
      <trkpt lat="46.77952" lon="-1.58485">
        <ele>26.2</ele>
        <time>2024-05-10T07:45:06Z</time>
        <extensions>
          <gpxtpx:TrackPointExtension xmlns:gpxtpx="http://www.garmin.com/xmlschemas/TrackPointExtension/v1">
            <gpxtpx:hr>138</gpxtpx:hr>
          </gpxtpx:TrackPointExtension>
        </extensions>
      </trkpt>
      <trkpt lat="46.77953" lon="-1.58482">
        <ele>26.2</ele>
        <time>2024-05-10T07:45:07Z</time>
        <extensions>
          <gpxtpx:TrackPointExtension xmlns:gpxtpx="http://www.garmin.com/xmlschemas/TrackPointExtension/v1">
            <gpxtpx:hr>138</gpxtpx:hr>
          </gpxtpx:TrackPointExtension>
        </extensions>
      </trkpt>
      <trkpt lat="46.77955" lon="-1.58476">
        <ele>26.2</ele>
        <time>2024-05-10T07:45:08Z</time>
        <extensions>
          <gpxtpx:TrackPointExtension xmlns:gpxtpx="http://www.garmin.com/xmlschemas/TrackPointExtension/v1">
            <gpxtpx:hr>138</gpxtpx:hr>
          </gpxtpx:TrackPointExtension>
        </extensions>
      </trkpt>
      <trkpt lat="46.77957" lon="-1.58471">
        <ele>26.2</ele>
        <time>2024-05-10T07:45:09Z</time>
        <extensions>
          <gpxtpx:TrackPointExtension xmlns:gpxtpx="http://www.garmin.com/xmlschemas/TrackPointExtension/v1">
            <gpxtpx:hr>138</gpxtpx:hr>
          </gpxtpx:TrackPointExtension>
        </extensions>
      </trkpt>
      <trkpt lat="46.77959" lon="-1.58466">
        <ele>26.2</ele>
        <time>2024-05-10T07:45:10Z</time>
        <extensions>
          <gpxtpx:TrackPointExtension xmlns:gpxtpx="http://www.garmin.com/xmlschemas/TrackPointExtension/v1">
            <gpxtpx:hr>138</gpxtpx:hr>
          </gpxtpx:TrackPointExtension>
        </extensions>
      </trkpt>
      <trkpt lat="46.77961" lon="-1.5846">
        <ele>26.2</ele>
        <time>2024-05-10T07:45:11Z</time>
        <extensions>
          <gpxtpx:TrackPointExtension xmlns:gpxtpx="http://www.garmin.com/xmlschemas/TrackPointExtension/v1">
            <gpxtpx:hr>138</gpxtpx:hr>
          </gpxtpx:TrackPointExtension>
        </extensions>
      </trkpt>
      <trkpt lat="46.77963" lon="-1.58455">
        <ele>26.2</ele>
        <time>2024-05-10T07:45:12Z</time>
        <extensions>
          <gpxtpx:TrackPointExtension xmlns:gpxtpx="http://www.garmin.com/xmlschemas/TrackPointExtension/v1">
            <gpxtpx:hr>138</gpxtpx:hr>
          </gpxtpx:TrackPointExtension>
        </extensions>
      </trkpt>
      <trkpt lat="46.77965" lon="-1.58449">
        <ele>26.2</ele>
        <time>2024-05-10T07:45:13Z</time>
        <extensions>
          <gpxtpx:TrackPointExtension xmlns:gpxtpx="http://www.garmin.com/xmlschemas/TrackPointExtension/v1">
            <gpxtpx:hr>138</gpxtpx:hr>
          </gpxtpx:TrackPointExtension>
        </extensions>
      </trkpt>
      <trkpt lat="46.77967" lon="-1.58443">
        <ele>26.4</ele>
        <time>2024-05-10T07:45:14Z</time>
        <extensions>
          <gpxtpx:TrackPointExtension xmlns:gpxtpx="http://www.garmin.com/xmlschemas/TrackPointExtension/v1">
            <gpxtpx:hr>138</gpxtpx:hr>
          </gpxtpx:TrackPointExtension>
        </extensions>
      </trkpt>
      <trkpt lat="46.77969" lon="-1.58438">
        <ele>26.4</ele>
        <time>2024-05-10T07:45:15Z</time>
        <extensions>
          <gpxtpx:TrackPointExtension xmlns:gpxtpx="http://www.garmin.com/xmlschemas/TrackPointExtension/v1">
            <gpxtpx:hr>138</gpxtpx:hr>
          </gpxtpx:TrackPointExtension>
        </extensions>
      </trkpt>
      <trkpt lat="46.77972" lon="-1.58431">
        <ele>26.4</ele>
        <time>2024-05-10T07:45:16Z</time>
        <extensions>
          <gpxtpx:TrackPointExtension xmlns:gpxtpx="http://www.garmin.com/xmlschemas/TrackPointExtension/v1">
            <gpxtpx:hr>138</gpxtpx:hr>
          </gpxtpx:TrackPointExtension>
        </extensions>
      </trkpt>
      <trkpt lat="46.77974" lon="-1.58425">
        <ele>26.4</ele>
        <time>2024-05-10T07:45:17Z</time>
        <extensions>
          <gpxtpx:TrackPointExtension xmlns:gpxtpx="http://www.garmin.com/xmlschemas/TrackPointExtension/v1">
            <gpxtpx:hr>138</gpxtpx:hr>
          </gpxtpx:TrackPointExtension>
        </extensions>
      </trkpt>
      <trkpt lat="46.77976" lon="-1.58418">
        <ele>26.6</ele>
        <time>2024-05-10T07:45:18Z</time>
        <extensions>
          <gpxtpx:TrackPointExtension xmlns:gpxtpx="http://www.garmin.com/xmlschemas/TrackPointExtension/v1">
            <gpxtpx:hr>138</gpxtpx:hr>
          </gpxtpx:TrackPointExtension>
        </extensions>
      </trkpt>
      <trkpt lat="46.77978" lon="-1.58412">
        <ele>26.6</ele>
        <time>2024-05-10T07:45:19Z</time>
        <extensions>
          <gpxtpx:TrackPointExtension xmlns:gpxtpx="http://www.garmin.com/xmlschemas/TrackPointExtension/v1">
            <gpxtpx:hr>138</gpxtpx:hr>
          </gpxtpx:TrackPointExtension>
        </extensions>
      </trkpt>
      <trkpt lat="46.7798" lon="-1.58406">
        <ele>26.6</ele>
        <time>2024-05-10T07:45:20Z</time>
        <extensions>
          <gpxtpx:TrackPointExtension xmlns:gpxtpx="http://www.garmin.com/xmlschemas/TrackPointExtension/v1">
            <gpxtpx:hr>138</gpxtpx:hr>
          </gpxtpx:TrackPointExtension>
        </extensions>
      </trkpt>
      <trkpt lat="46.77984" lon="-1.58397">
        <ele>26.4</ele>
        <time>2024-05-10T07:45:21Z</time>
        <extensions>
          <gpxtpx:TrackPointExtension xmlns:gpxtpx="http://www.garmin.com/xmlschemas/TrackPointExtension/v1">
            <gpxtpx:hr>138</gpxtpx:hr>
          </gpxtpx:TrackPointExtension>
        </extensions>
      </trkpt>
      <trkpt lat="46.77985" lon="-1.58394">
        <ele>26.4</ele>
        <time>2024-05-10T07:45:22Z</time>
        <extensions>
          <gpxtpx:TrackPointExtension xmlns:gpxtpx="http://www.garmin.com/xmlschemas/TrackPointExtension/v1">
            <gpxtpx:hr>138</gpxtpx:hr>
          </gpxtpx:TrackPointExtension>
        </extensions>
      </trkpt>
      <trkpt lat="46.77988" lon="-1.58388">
        <ele>26.4</ele>
        <time>2024-05-10T07:45:23Z</time>
        <extensions>
          <gpxtpx:TrackPointExtension xmlns:gpxtpx="http://www.garmin.com/xmlschemas/TrackPointExtension/v1">
            <gpxtpx:hr>138</gpxtpx:hr>
          </gpxtpx:TrackPointExtension>
        </extensions>
      </trkpt>
      <trkpt lat="46.77991" lon="-1.58379">
        <ele>26.2</ele>
        <time>2024-05-10T07:45:24Z</time>
        <extensions>
          <gpxtpx:TrackPointExtension xmlns:gpxtpx="http://www.garmin.com/xmlschemas/TrackPointExtension/v1">
            <gpxtpx:hr>138</gpxtpx:hr>
          </gpxtpx:TrackPointExtension>
        </extensions>
      </trkpt>
      <trkpt lat="46.77992" lon="-1.58376">
        <ele>26.2</ele>
        <time>2024-05-10T07:45:25Z</time>
        <extensions>
          <gpxtpx:TrackPointExtension xmlns:gpxtpx="http://www.garmin.com/xmlschemas/TrackPointExtension/v1">
            <gpxtpx:hr>138</gpxtpx:hr>
          </gpxtpx:TrackPointExtension>
        </extensions>
      </trkpt>
      <trkpt lat="46.77995" lon="-1.58369">
        <ele>26</ele>
        <time>2024-05-10T07:45:26Z</time>
        <extensions>
          <gpxtpx:TrackPointExtension xmlns:gpxtpx="http://www.garmin.com/xmlschemas/TrackPointExtension/v1">
            <gpxtpx:hr>137</gpxtpx:hr>
          </gpxtpx:TrackPointExtension>
        </extensions>
      </trkpt>
      <trkpt lat="46.77998" lon="-1.58363">
        <ele>26</ele>
        <time>2024-05-10T07:45:27Z</time>
        <extensions>
          <gpxtpx:TrackPointExtension xmlns:gpxtpx="http://www.garmin.com/xmlschemas/TrackPointExtension/v1">
            <gpxtpx:hr>137</gpxtpx:hr>
          </gpxtpx:TrackPointExtension>
        </extensions>
      </trkpt>
      <trkpt lat="46.78001" lon="-1.58356">
        <ele>25.8</ele>
        <time>2024-05-10T07:45:28Z</time>
        <extensions>
          <gpxtpx:TrackPointExtension xmlns:gpxtpx="http://www.garmin.com/xmlschemas/TrackPointExtension/v1">
            <gpxtpx:hr>138</gpxtpx:hr>
          </gpxtpx:TrackPointExtension>
        </extensions>
      </trkpt>
      <trkpt lat="46.78004" lon="-1.58348">
        <ele>25.8</ele>
        <time>2024-05-10T07:45:29Z</time>
        <extensions>
          <gpxtpx:TrackPointExtension xmlns:gpxtpx="http://www.garmin.com/xmlschemas/TrackPointExtension/v1">
            <gpxtpx:hr>138</gpxtpx:hr>
          </gpxtpx:TrackPointExtension>
        </extensions>
      </trkpt>
      <trkpt lat="46.78006" lon="-1.58342">
        <ele>25.6</ele>
        <time>2024-05-10T07:45:30Z</time>
        <extensions>
          <gpxtpx:TrackPointExtension xmlns:gpxtpx="http://www.garmin.com/xmlschemas/TrackPointExtension/v1">
            <gpxtpx:hr>138</gpxtpx:hr>
          </gpxtpx:TrackPointExtension>
        </extensions>
      </trkpt>
      <trkpt lat="46.78009" lon="-1.58335">
        <ele>25.6</ele>
        <time>2024-05-10T07:45:31Z</time>
        <extensions>
          <gpxtpx:TrackPointExtension xmlns:gpxtpx="http://www.garmin.com/xmlschemas/TrackPointExtension/v1">
            <gpxtpx:hr>138</gpxtpx:hr>
          </gpxtpx:TrackPointExtension>
        </extensions>
      </trkpt>
      <trkpt lat="46.78011" lon="-1.58328">
        <ele>25.6</ele>
        <time>2024-05-10T07:45:32Z</time>
        <extensions>
          <gpxtpx:TrackPointExtension xmlns:gpxtpx="http://www.garmin.com/xmlschemas/TrackPointExtension/v1">
            <gpxtpx:hr>137</gpxtpx:hr>
          </gpxtpx:TrackPointExtension>
        </extensions>
      </trkpt>
      <trkpt lat="46.78013" lon="-1.58322">
        <ele>25.6</ele>
        <time>2024-05-10T07:45:33Z</time>
        <extensions>
          <gpxtpx:TrackPointExtension xmlns:gpxtpx="http://www.garmin.com/xmlschemas/TrackPointExtension/v1">
            <gpxtpx:hr>137</gpxtpx:hr>
          </gpxtpx:TrackPointExtension>
        </extensions>
      </trkpt>
      <trkpt lat="46.78016" lon="-1.58316">
        <ele>25.6</ele>
        <time>2024-05-10T07:45:34Z</time>
        <extensions>
          <gpxtpx:TrackPointExtension xmlns:gpxtpx="http://www.garmin.com/xmlschemas/TrackPointExtension/v1">
            <gpxtpx:hr>137</gpxtpx:hr>
          </gpxtpx:TrackPointExtension>
        </extensions>
      </trkpt>
      <trkpt lat="46.78018" lon="-1.58313">
        <ele>25.6</ele>
        <time>2024-05-10T07:45:35Z</time>
        <extensions>
          <gpxtpx:TrackPointExtension xmlns:gpxtpx="http://www.garmin.com/xmlschemas/TrackPointExtension/v1">
            <gpxtpx:hr>137</gpxtpx:hr>
          </gpxtpx:TrackPointExtension>
        </extensions>
      </trkpt>
      <trkpt lat="46.78021" lon="-1.5831">
        <ele>25.6</ele>
        <time>2024-05-10T07:45:36Z</time>
        <extensions>
          <gpxtpx:TrackPointExtension xmlns:gpxtpx="http://www.garmin.com/xmlschemas/TrackPointExtension/v1">
            <gpxtpx:hr>137</gpxtpx:hr>
          </gpxtpx:TrackPointExtension>
        </extensions>
      </trkpt>
      <trkpt lat="46.78024" lon="-1.58307">
        <ele>25.6</ele>
        <time>2024-05-10T07:45:37Z</time>
        <extensions>
          <gpxtpx:TrackPointExtension xmlns:gpxtpx="http://www.garmin.com/xmlschemas/TrackPointExtension/v1">
            <gpxtpx:hr>137</gpxtpx:hr>
          </gpxtpx:TrackPointExtension>
        </extensions>
      </trkpt>
      <trkpt lat="46.78027" lon="-1.58304">
        <ele>25.6</ele>
        <time>2024-05-10T07:45:38Z</time>
        <extensions>
          <gpxtpx:TrackPointExtension xmlns:gpxtpx="http://www.garmin.com/xmlschemas/TrackPointExtension/v1">
            <gpxtpx:hr>137</gpxtpx:hr>
          </gpxtpx:TrackPointExtension>
        </extensions>
      </trkpt>
      <trkpt lat="46.7803" lon="-1.58299">
        <ele>25.6</ele>
        <time>2024-05-10T07:45:40Z</time>
        <extensions>
          <gpxtpx:TrackPointExtension xmlns:gpxtpx="http://www.garmin.com/xmlschemas/TrackPointExtension/v1">
            <gpxtpx:hr>137</gpxtpx:hr>
          </gpxtpx:TrackPointExtension>
        </extensions>
      </trkpt>
      <trkpt lat="46.78032" lon="-1.58294">
        <ele>25.6</ele>
        <time>2024-05-10T07:45:41Z</time>
        <extensions>
          <gpxtpx:TrackPointExtension xmlns:gpxtpx="http://www.garmin.com/xmlschemas/TrackPointExtension/v1">
            <gpxtpx:hr>136</gpxtpx:hr>
          </gpxtpx:TrackPointExtension>
        </extensions>
      </trkpt>
      <trkpt lat="46.78034" lon="-1.58291">
        <ele>25.8</ele>
        <time>2024-05-10T07:45:42Z</time>
        <extensions>
          <gpxtpx:TrackPointExtension xmlns:gpxtpx="http://www.garmin.com/xmlschemas/TrackPointExtension/v1">
            <gpxtpx:hr>135</gpxtpx:hr>
          </gpxtpx:TrackPointExtension>
        </extensions>
      </trkpt>
      <trkpt lat="46.78036" lon="-1.58287">
        <ele>25.8</ele>
        <time>2024-05-10T07:45:43Z</time>
        <extensions>
          <gpxtpx:TrackPointExtension xmlns:gpxtpx="http://www.garmin.com/xmlschemas/TrackPointExtension/v1">
            <gpxtpx:hr>135</gpxtpx:hr>
          </gpxtpx:TrackPointExtension>
        </extensions>
      </trkpt>
      <trkpt lat="46.78038" lon="-1.58283">
        <ele>25.8</ele>
        <time>2024-05-10T07:45:44Z</time>
        <extensions>
          <gpxtpx:TrackPointExtension xmlns:gpxtpx="http://www.garmin.com/xmlschemas/TrackPointExtension/v1">
            <gpxtpx:hr>135</gpxtpx:hr>
          </gpxtpx:TrackPointExtension>
        </extensions>
      </trkpt>
      <trkpt lat="46.7804" lon="-1.58279">
        <ele>25.8</ele>
        <time>2024-05-10T07:45:45Z</time>
        <extensions>
          <gpxtpx:TrackPointExtension xmlns:gpxtpx="http://www.garmin.com/xmlschemas/TrackPointExtension/v1">
            <gpxtpx:hr>134</gpxtpx:hr>
          </gpxtpx:TrackPointExtension>
        </extensions>
      </trkpt>
      <trkpt lat="46.78042" lon="-1.58275">
        <ele>25.8</ele>
        <time>2024-05-10T07:45:46Z</time>
        <extensions>
          <gpxtpx:TrackPointExtension xmlns:gpxtpx="http://www.garmin.com/xmlschemas/TrackPointExtension/v1">
            <gpxtpx:hr>134</gpxtpx:hr>
          </gpxtpx:TrackPointExtension>
        </extensions>
      </trkpt>
      <trkpt lat="46.78045" lon="-1.58271">
        <ele>25.8</ele>
        <time>2024-05-10T07:45:47Z</time>
        <extensions>
          <gpxtpx:TrackPointExtension xmlns:gpxtpx="http://www.garmin.com/xmlschemas/TrackPointExtension/v1">
            <gpxtpx:hr>134</gpxtpx:hr>
          </gpxtpx:TrackPointExtension>
        </extensions>
      </trkpt>
      <trkpt lat="46.7805" lon="-1.58265">
        <ele>25.8</ele>
        <time>2024-05-10T07:45:48Z</time>
        <extensions>
          <gpxtpx:TrackPointExtension xmlns:gpxtpx="http://www.garmin.com/xmlschemas/TrackPointExtension/v1">
            <gpxtpx:hr>134</gpxtpx:hr>
          </gpxtpx:TrackPointExtension>
        </extensions>
      </trkpt>
      <trkpt lat="46.78055" lon="-1.58262">
        <ele>26</ele>
        <time>2024-05-10T07:45:49Z</time>
        <extensions>
          <gpxtpx:TrackPointExtension xmlns:gpxtpx="http://www.garmin.com/xmlschemas/TrackPointExtension/v1">
            <gpxtpx:hr>134</gpxtpx:hr>
          </gpxtpx:TrackPointExtension>
        </extensions>
      </trkpt>
      <trkpt lat="46.78059" lon="-1.58259">
        <ele>26.2</ele>
        <time>2024-05-10T07:45:50Z</time>
        <extensions>
          <gpxtpx:TrackPointExtension xmlns:gpxtpx="http://www.garmin.com/xmlschemas/TrackPointExtension/v1">
            <gpxtpx:hr>134</gpxtpx:hr>
          </gpxtpx:TrackPointExtension>
        </extensions>
      </trkpt>
      <trkpt lat="46.78063" lon="-1.58256">
        <ele>26.4</ele>
        <time>2024-05-10T07:45:51Z</time>
        <extensions>
          <gpxtpx:TrackPointExtension xmlns:gpxtpx="http://www.garmin.com/xmlschemas/TrackPointExtension/v1">
            <gpxtpx:hr>134</gpxtpx:hr>
          </gpxtpx:TrackPointExtension>
        </extensions>
      </trkpt>
      <trkpt lat="46.78067" lon="-1.58252">
        <ele>26.4</ele>
        <time>2024-05-10T07:45:52Z</time>
        <extensions>
          <gpxtpx:TrackPointExtension xmlns:gpxtpx="http://www.garmin.com/xmlschemas/TrackPointExtension/v1">
            <gpxtpx:hr>134</gpxtpx:hr>
          </gpxtpx:TrackPointExtension>
        </extensions>
      </trkpt>
      <trkpt lat="46.78071" lon="-1.58246">
        <ele>26.4</ele>
        <time>2024-05-10T07:45:53Z</time>
        <extensions>
          <gpxtpx:TrackPointExtension xmlns:gpxtpx="http://www.garmin.com/xmlschemas/TrackPointExtension/v1">
            <gpxtpx:hr>134</gpxtpx:hr>
          </gpxtpx:TrackPointExtension>
        </extensions>
      </trkpt>
      <trkpt lat="46.78073" lon="-1.58243">
        <ele>26.4</ele>
        <time>2024-05-10T07:45:54Z</time>
        <extensions>
          <gpxtpx:TrackPointExtension xmlns:gpxtpx="http://www.garmin.com/xmlschemas/TrackPointExtension/v1">
            <gpxtpx:hr>134</gpxtpx:hr>
          </gpxtpx:TrackPointExtension>
        </extensions>
      </trkpt>
      <trkpt lat="46.78076" lon="-1.58238">
        <ele>26.4</ele>
        <time>2024-05-10T07:45:55Z</time>
        <extensions>
          <gpxtpx:TrackPointExtension xmlns:gpxtpx="http://www.garmin.com/xmlschemas/TrackPointExtension/v1">
            <gpxtpx:hr>135</gpxtpx:hr>
          </gpxtpx:TrackPointExtension>
        </extensions>
      </trkpt>
      <trkpt lat="46.78079" lon="-1.58232">
        <ele>26.2</ele>
        <time>2024-05-10T07:45:56Z</time>
        <extensions>
          <gpxtpx:TrackPointExtension xmlns:gpxtpx="http://www.garmin.com/xmlschemas/TrackPointExtension/v1">
            <gpxtpx:hr>135</gpxtpx:hr>
          </gpxtpx:TrackPointExtension>
        </extensions>
      </trkpt>
      <trkpt lat="46.78083" lon="-1.58226">
        <ele>26.2</ele>
        <time>2024-05-10T07:45:57Z</time>
        <extensions>
          <gpxtpx:TrackPointExtension xmlns:gpxtpx="http://www.garmin.com/xmlschemas/TrackPointExtension/v1">
            <gpxtpx:hr>135</gpxtpx:hr>
          </gpxtpx:TrackPointExtension>
        </extensions>
      </trkpt>
      <trkpt lat="46.78086" lon="-1.5822">
        <ele>26.2</ele>
        <time>2024-05-10T07:45:58Z</time>
        <extensions>
          <gpxtpx:TrackPointExtension xmlns:gpxtpx="http://www.garmin.com/xmlschemas/TrackPointExtension/v1">
            <gpxtpx:hr>136</gpxtpx:hr>
          </gpxtpx:TrackPointExtension>
        </extensions>
      </trkpt>
      <trkpt lat="46.78089" lon="-1.58215">
        <ele>26.2</ele>
        <time>2024-05-10T07:45:59Z</time>
        <extensions>
          <gpxtpx:TrackPointExtension xmlns:gpxtpx="http://www.garmin.com/xmlschemas/TrackPointExtension/v1">
            <gpxtpx:hr>136</gpxtpx:hr>
          </gpxtpx:TrackPointExtension>
        </extensions>
      </trkpt>
      <trkpt lat="46.78092" lon="-1.5821">
        <ele>26.2</ele>
        <time>2024-05-10T07:46:00Z</time>
        <extensions>
          <gpxtpx:TrackPointExtension xmlns:gpxtpx="http://www.garmin.com/xmlschemas/TrackPointExtension/v1">
            <gpxtpx:hr>136</gpxtpx:hr>
          </gpxtpx:TrackPointExtension>
        </extensions>
      </trkpt>
      <trkpt lat="46.78096" lon="-1.58206">
        <ele>26.4</ele>
        <time>2024-05-10T07:46:01Z</time>
        <extensions>
          <gpxtpx:TrackPointExtension xmlns:gpxtpx="http://www.garmin.com/xmlschemas/TrackPointExtension/v1">
            <gpxtpx:hr>136</gpxtpx:hr>
          </gpxtpx:TrackPointExtension>
        </extensions>
      </trkpt>
      <trkpt lat="46.78099" lon="-1.58202">
        <ele>26.4</ele>
        <time>2024-05-10T07:46:02Z</time>
        <extensions>
          <gpxtpx:TrackPointExtension xmlns:gpxtpx="http://www.garmin.com/xmlschemas/TrackPointExtension/v1">
            <gpxtpx:hr>136</gpxtpx:hr>
          </gpxtpx:TrackPointExtension>
        </extensions>
      </trkpt>
      <trkpt lat="46.78102" lon="-1.58198">
        <ele>26.4</ele>
        <time>2024-05-10T07:46:03Z</time>
        <extensions>
          <gpxtpx:TrackPointExtension xmlns:gpxtpx="http://www.garmin.com/xmlschemas/TrackPointExtension/v1">
            <gpxtpx:hr>136</gpxtpx:hr>
          </gpxtpx:TrackPointExtension>
        </extensions>
      </trkpt>
      <trkpt lat="46.78105" lon="-1.58194">
        <ele>26.4</ele>
        <time>2024-05-10T07:46:04Z</time>
        <extensions>
          <gpxtpx:TrackPointExtension xmlns:gpxtpx="http://www.garmin.com/xmlschemas/TrackPointExtension/v1">
            <gpxtpx:hr>136</gpxtpx:hr>
          </gpxtpx:TrackPointExtension>
        </extensions>
      </trkpt>
      <trkpt lat="46.78108" lon="-1.5819">
        <ele>26.4</ele>
        <time>2024-05-10T07:46:05Z</time>
        <extensions>
          <gpxtpx:TrackPointExtension xmlns:gpxtpx="http://www.garmin.com/xmlschemas/TrackPointExtension/v1">
            <gpxtpx:hr>136</gpxtpx:hr>
          </gpxtpx:TrackPointExtension>
        </extensions>
      </trkpt>
      <trkpt lat="46.78111" lon="-1.58185">
        <ele>26.2</ele>
        <time>2024-05-10T07:46:06Z</time>
        <extensions>
          <gpxtpx:TrackPointExtension xmlns:gpxtpx="http://www.garmin.com/xmlschemas/TrackPointExtension/v1">
            <gpxtpx:hr>136</gpxtpx:hr>
          </gpxtpx:TrackPointExtension>
        </extensions>
      </trkpt>
      <trkpt lat="46.78114" lon="-1.5818">
        <ele>26.2</ele>
        <time>2024-05-10T07:46:07Z</time>
        <extensions>
          <gpxtpx:TrackPointExtension xmlns:gpxtpx="http://www.garmin.com/xmlschemas/TrackPointExtension/v1">
            <gpxtpx:hr>136</gpxtpx:hr>
          </gpxtpx:TrackPointExtension>
        </extensions>
      </trkpt>
      <trkpt lat="46.78116" lon="-1.58175">
        <ele>26.2</ele>
        <time>2024-05-10T07:46:08Z</time>
        <extensions>
          <gpxtpx:TrackPointExtension xmlns:gpxtpx="http://www.garmin.com/xmlschemas/TrackPointExtension/v1">
            <gpxtpx:hr>135</gpxtpx:hr>
          </gpxtpx:TrackPointExtension>
        </extensions>
      </trkpt>
      <trkpt lat="46.78119" lon="-1.58169">
        <ele>26.2</ele>
        <time>2024-05-10T07:46:09Z</time>
        <extensions>
          <gpxtpx:TrackPointExtension xmlns:gpxtpx="http://www.garmin.com/xmlschemas/TrackPointExtension/v1">
            <gpxtpx:hr>135</gpxtpx:hr>
          </gpxtpx:TrackPointExtension>
        </extensions>
      </trkpt>
      <trkpt lat="46.78122" lon="-1.58163">
        <ele>26.2</ele>
        <time>2024-05-10T07:46:10Z</time>
        <extensions>
          <gpxtpx:TrackPointExtension xmlns:gpxtpx="http://www.garmin.com/xmlschemas/TrackPointExtension/v1">
            <gpxtpx:hr>134</gpxtpx:hr>
          </gpxtpx:TrackPointExtension>
        </extensions>
      </trkpt>
      <trkpt lat="46.78125" lon="-1.58157">
        <ele>26.2</ele>
        <time>2024-05-10T07:46:11Z</time>
        <extensions>
          <gpxtpx:TrackPointExtension xmlns:gpxtpx="http://www.garmin.com/xmlschemas/TrackPointExtension/v1">
            <gpxtpx:hr>134</gpxtpx:hr>
          </gpxtpx:TrackPointExtension>
        </extensions>
      </trkpt>
      <trkpt lat="46.78129" lon="-1.58152">
        <ele>26.2</ele>
        <time>2024-05-10T07:46:12Z</time>
        <extensions>
          <gpxtpx:TrackPointExtension xmlns:gpxtpx="http://www.garmin.com/xmlschemas/TrackPointExtension/v1">
            <gpxtpx:hr>133</gpxtpx:hr>
          </gpxtpx:TrackPointExtension>
        </extensions>
      </trkpt>
      <trkpt lat="46.78132" lon="-1.58147">
        <ele>26.4</ele>
        <time>2024-05-10T07:46:13Z</time>
        <extensions>
          <gpxtpx:TrackPointExtension xmlns:gpxtpx="http://www.garmin.com/xmlschemas/TrackPointExtension/v1">
            <gpxtpx:hr>133</gpxtpx:hr>
          </gpxtpx:TrackPointExtension>
        </extensions>
      </trkpt>
      <trkpt lat="46.78136" lon="-1.58143">
        <ele>26.4</ele>
        <time>2024-05-10T07:46:14Z</time>
        <extensions>
          <gpxtpx:TrackPointExtension xmlns:gpxtpx="http://www.garmin.com/xmlschemas/TrackPointExtension/v1">
            <gpxtpx:hr>133</gpxtpx:hr>
          </gpxtpx:TrackPointExtension>
        </extensions>
      </trkpt>
      <trkpt lat="46.78139" lon="-1.58138">
        <ele>26.6</ele>
        <time>2024-05-10T07:46:15Z</time>
        <extensions>
          <gpxtpx:TrackPointExtension xmlns:gpxtpx="http://www.garmin.com/xmlschemas/TrackPointExtension/v1">
            <gpxtpx:hr>134</gpxtpx:hr>
          </gpxtpx:TrackPointExtension>
        </extensions>
      </trkpt>
      <trkpt lat="46.7814" lon="-1.58133">
        <ele>26.6</ele>
        <time>2024-05-10T07:46:16Z</time>
        <extensions>
          <gpxtpx:TrackPointExtension xmlns:gpxtpx="http://www.garmin.com/xmlschemas/TrackPointExtension/v1">
            <gpxtpx:hr>134</gpxtpx:hr>
          </gpxtpx:TrackPointExtension>
        </extensions>
      </trkpt>
      <trkpt lat="46.78142" lon="-1.58128">
        <ele>26.4</ele>
        <time>2024-05-10T07:46:17Z</time>
        <extensions>
          <gpxtpx:TrackPointExtension xmlns:gpxtpx="http://www.garmin.com/xmlschemas/TrackPointExtension/v1">
            <gpxtpx:hr>134</gpxtpx:hr>
          </gpxtpx:TrackPointExtension>
        </extensions>
      </trkpt>
      <trkpt lat="46.78144" lon="-1.58123">
        <ele>26.4</ele>
        <time>2024-05-10T07:46:18Z</time>
        <extensions>
          <gpxtpx:TrackPointExtension xmlns:gpxtpx="http://www.garmin.com/xmlschemas/TrackPointExtension/v1">
            <gpxtpx:hr>134</gpxtpx:hr>
          </gpxtpx:TrackPointExtension>
        </extensions>
      </trkpt>
      <trkpt lat="46.78145" lon="-1.58117">
        <ele>26.6</ele>
        <time>2024-05-10T07:46:19Z</time>
        <extensions>
          <gpxtpx:TrackPointExtension xmlns:gpxtpx="http://www.garmin.com/xmlschemas/TrackPointExtension/v1">
            <gpxtpx:hr>134</gpxtpx:hr>
          </gpxtpx:TrackPointExtension>
        </extensions>
      </trkpt>
      <trkpt lat="46.78147" lon="-1.58112">
        <ele>26.6</ele>
        <time>2024-05-10T07:46:20Z</time>
        <extensions>
          <gpxtpx:TrackPointExtension xmlns:gpxtpx="http://www.garmin.com/xmlschemas/TrackPointExtension/v1">
            <gpxtpx:hr>134</gpxtpx:hr>
          </gpxtpx:TrackPointExtension>
        </extensions>
      </trkpt>
      <trkpt lat="46.7815" lon="-1.58106">
        <ele>26.6</ele>
        <time>2024-05-10T07:46:21Z</time>
        <extensions>
          <gpxtpx:TrackPointExtension xmlns:gpxtpx="http://www.garmin.com/xmlschemas/TrackPointExtension/v1">
            <gpxtpx:hr>134</gpxtpx:hr>
          </gpxtpx:TrackPointExtension>
        </extensions>
      </trkpt>
      <trkpt lat="46.78152" lon="-1.58101">
        <ele>26.8</ele>
        <time>2024-05-10T07:46:22Z</time>
        <extensions>
          <gpxtpx:TrackPointExtension xmlns:gpxtpx="http://www.garmin.com/xmlschemas/TrackPointExtension/v1">
            <gpxtpx:hr>134</gpxtpx:hr>
          </gpxtpx:TrackPointExtension>
        </extensions>
      </trkpt>
      <trkpt lat="46.78154" lon="-1.58096">
        <ele>26.8</ele>
        <time>2024-05-10T07:46:23Z</time>
        <extensions>
          <gpxtpx:TrackPointExtension xmlns:gpxtpx="http://www.garmin.com/xmlschemas/TrackPointExtension/v1">
            <gpxtpx:hr>135</gpxtpx:hr>
          </gpxtpx:TrackPointExtension>
        </extensions>
      </trkpt>
      <trkpt lat="46.78156" lon="-1.58092">
        <ele>27</ele>
        <time>2024-05-10T07:46:24Z</time>
        <extensions>
          <gpxtpx:TrackPointExtension xmlns:gpxtpx="http://www.garmin.com/xmlschemas/TrackPointExtension/v1">
            <gpxtpx:hr>135</gpxtpx:hr>
          </gpxtpx:TrackPointExtension>
        </extensions>
      </trkpt>
      <trkpt lat="46.78158" lon="-1.58087">
        <ele>27</ele>
        <time>2024-05-10T07:46:25Z</time>
        <extensions>
          <gpxtpx:TrackPointExtension xmlns:gpxtpx="http://www.garmin.com/xmlschemas/TrackPointExtension/v1">
            <gpxtpx:hr>135</gpxtpx:hr>
          </gpxtpx:TrackPointExtension>
        </extensions>
      </trkpt>
      <trkpt lat="46.7816" lon="-1.58082">
        <ele>27.4</ele>
        <time>2024-05-10T07:46:26Z</time>
        <extensions>
          <gpxtpx:TrackPointExtension xmlns:gpxtpx="http://www.garmin.com/xmlschemas/TrackPointExtension/v1">
            <gpxtpx:hr>134</gpxtpx:hr>
          </gpxtpx:TrackPointExtension>
        </extensions>
      </trkpt>
      <trkpt lat="46.78161" lon="-1.58078">
        <ele>27.6</ele>
        <time>2024-05-10T07:46:27Z</time>
        <extensions>
          <gpxtpx:TrackPointExtension xmlns:gpxtpx="http://www.garmin.com/xmlschemas/TrackPointExtension/v1">
            <gpxtpx:hr>134</gpxtpx:hr>
          </gpxtpx:TrackPointExtension>
        </extensions>
      </trkpt>
      <trkpt lat="46.78163" lon="-1.58074">
        <ele>28</ele>
        <time>2024-05-10T07:46:28Z</time>
        <extensions>
          <gpxtpx:TrackPointExtension xmlns:gpxtpx="http://www.garmin.com/xmlschemas/TrackPointExtension/v1">
            <gpxtpx:hr>134</gpxtpx:hr>
          </gpxtpx:TrackPointExtension>
        </extensions>
      </trkpt>
      <trkpt lat="46.78164" lon="-1.5807">
        <ele>28.4</ele>
        <time>2024-05-10T07:46:29Z</time>
        <extensions>
          <gpxtpx:TrackPointExtension xmlns:gpxtpx="http://www.garmin.com/xmlschemas/TrackPointExtension/v1">
            <gpxtpx:hr>133</gpxtpx:hr>
          </gpxtpx:TrackPointExtension>
        </extensions>
      </trkpt>
      <trkpt lat="46.78166" lon="-1.58066">
        <ele>28.8</ele>
        <time>2024-05-10T07:46:30Z</time>
        <extensions>
          <gpxtpx:TrackPointExtension xmlns:gpxtpx="http://www.garmin.com/xmlschemas/TrackPointExtension/v1">
            <gpxtpx:hr>133</gpxtpx:hr>
          </gpxtpx:TrackPointExtension>
        </extensions>
      </trkpt>
      <trkpt lat="46.78168" lon="-1.58064">
        <ele>29.4</ele>
        <time>2024-05-10T07:46:31Z</time>
        <extensions>
          <gpxtpx:TrackPointExtension xmlns:gpxtpx="http://www.garmin.com/xmlschemas/TrackPointExtension/v1">
            <gpxtpx:hr>134</gpxtpx:hr>
          </gpxtpx:TrackPointExtension>
        </extensions>
      </trkpt>
      <trkpt lat="46.78171" lon="-1.58063">
        <ele>30</ele>
        <time>2024-05-10T07:46:32Z</time>
        <extensions>
          <gpxtpx:TrackPointExtension xmlns:gpxtpx="http://www.garmin.com/xmlschemas/TrackPointExtension/v1">
            <gpxtpx:hr>134</gpxtpx:hr>
          </gpxtpx:TrackPointExtension>
        </extensions>
      </trkpt>
      <trkpt lat="46.78173" lon="-1.58064">
        <ele>30.4</ele>
        <time>2024-05-10T07:46:33Z</time>
        <extensions>
          <gpxtpx:TrackPointExtension xmlns:gpxtpx="http://www.garmin.com/xmlschemas/TrackPointExtension/v1">
            <gpxtpx:hr>136</gpxtpx:hr>
          </gpxtpx:TrackPointExtension>
        </extensions>
      </trkpt>
      <trkpt lat="46.78174" lon="-1.58066">
        <ele>30.6</ele>
        <time>2024-05-10T07:46:34Z</time>
        <extensions>
          <gpxtpx:TrackPointExtension xmlns:gpxtpx="http://www.garmin.com/xmlschemas/TrackPointExtension/v1">
            <gpxtpx:hr>138</gpxtpx:hr>
          </gpxtpx:TrackPointExtension>
        </extensions>
      </trkpt>
      <trkpt lat="46.78174" lon="-1.58069">
        <ele>31</ele>
        <time>2024-05-10T07:46:35Z</time>
        <extensions>
          <gpxtpx:TrackPointExtension xmlns:gpxtpx="http://www.garmin.com/xmlschemas/TrackPointExtension/v1">
            <gpxtpx:hr>139</gpxtpx:hr>
          </gpxtpx:TrackPointExtension>
        </extensions>
      </trkpt>
      <trkpt lat="46.78173" lon="-1.58073">
        <ele>31.2</ele>
        <time>2024-05-10T07:46:36Z</time>
        <extensions>
          <gpxtpx:TrackPointExtension xmlns:gpxtpx="http://www.garmin.com/xmlschemas/TrackPointExtension/v1">
            <gpxtpx:hr>140</gpxtpx:hr>
          </gpxtpx:TrackPointExtension>
        </extensions>
      </trkpt>
      <trkpt lat="46.78173" lon="-1.58077">
        <ele>31.4</ele>
        <time>2024-05-10T07:46:37Z</time>
        <extensions>
          <gpxtpx:TrackPointExtension xmlns:gpxtpx="http://www.garmin.com/xmlschemas/TrackPointExtension/v1">
            <gpxtpx:hr>140</gpxtpx:hr>
          </gpxtpx:TrackPointExtension>
        </extensions>
      </trkpt>
      <trkpt lat="46.78172" lon="-1.58081">
        <ele>31.6</ele>
        <time>2024-05-10T07:46:38Z</time>
        <extensions>
          <gpxtpx:TrackPointExtension xmlns:gpxtpx="http://www.garmin.com/xmlschemas/TrackPointExtension/v1">
            <gpxtpx:hr>140</gpxtpx:hr>
          </gpxtpx:TrackPointExtension>
        </extensions>
      </trkpt>
      <trkpt lat="46.78171" lon="-1.58085">
        <ele>31.8</ele>
        <time>2024-05-10T07:46:39Z</time>
        <extensions>
          <gpxtpx:TrackPointExtension xmlns:gpxtpx="http://www.garmin.com/xmlschemas/TrackPointExtension/v1">
            <gpxtpx:hr>141</gpxtpx:hr>
          </gpxtpx:TrackPointExtension>
        </extensions>
      </trkpt>
      <trkpt lat="46.78171" lon="-1.58089">
        <ele>32</ele>
        <time>2024-05-10T07:46:40Z</time>
        <extensions>
          <gpxtpx:TrackPointExtension xmlns:gpxtpx="http://www.garmin.com/xmlschemas/TrackPointExtension/v1">
            <gpxtpx:hr>141</gpxtpx:hr>
          </gpxtpx:TrackPointExtension>
        </extensions>
      </trkpt>
      <trkpt lat="46.7817" lon="-1.58092">
        <ele>32.2</ele>
        <time>2024-05-10T07:46:41Z</time>
        <extensions>
          <gpxtpx:TrackPointExtension xmlns:gpxtpx="http://www.garmin.com/xmlschemas/TrackPointExtension/v1">
            <gpxtpx:hr>143</gpxtpx:hr>
          </gpxtpx:TrackPointExtension>
        </extensions>
      </trkpt>
      <trkpt lat="46.78169" lon="-1.58096">
        <ele>32.4</ele>
        <time>2024-05-10T07:46:42Z</time>
        <extensions>
          <gpxtpx:TrackPointExtension xmlns:gpxtpx="http://www.garmin.com/xmlschemas/TrackPointExtension/v1">
            <gpxtpx:hr>144</gpxtpx:hr>
          </gpxtpx:TrackPointExtension>
        </extensions>
      </trkpt>
      <trkpt lat="46.78183" lon="-1.57875">
        <ele>26.7</ele>
      </trkpt>
      <trkpt lat="46.78005" lon="-1.57628">
        <ele>26.5</ele>
      </trkpt>
      <trkpt lat="46.78123" lon="-1.573">
        <ele>39.5</ele>
      </trkpt>
      <trkpt lat="46.77915" lon="-1.57249">
        <ele>48</ele>
      </trkpt>
      <trkpt lat="46.77886" lon="-1.56922">
        <ele>35.4</ele>
      </trkpt>
      <trkpt lat="46.77827" lon="-1.56693">
        <ele>24</ele>
      </trkpt>
      <trkpt lat="46.77832" lon="-1.56684">
        <ele>24</ele>
      </trkpt>
      <trkpt lat="46.77887" lon="-1.56693">
        <ele>26.8</ele>
      </trkpt>
      <trkpt lat="46.77878" lon="-1.56771">
        <ele>24.2</ele>
        <time>2024-04-25T17:54:16Z</time>
      </trkpt>
      <trkpt lat="46.77879" lon="-1.56773">
        <ele>24.4</ele>
        <time>2024-04-25T17:54:17Z</time>
      </trkpt>
      <trkpt lat="46.7788" lon="-1.56774">
        <ele>24.6</ele>
        <time>2024-04-25T17:54:18Z</time>
      </trkpt>
      <trkpt lat="46.77882" lon="-1.56776">
        <ele>25</ele>
        <time>2024-04-25T17:54:19Z</time>
      </trkpt>
      <trkpt lat="46.77883" lon="-1.56777">
        <ele>25.2</ele>
        <time>2024-04-25T17:54:20Z</time>
      </trkpt>
      <trkpt lat="46.77884" lon="-1.56777">
        <ele>25.6</ele>
        <time>2024-04-25T17:54:21Z</time>
      </trkpt>
      <trkpt lat="46.77886" lon="-1.56778">
        <ele>25.8</ele>
        <time>2024-04-25T17:54:22Z</time>
      </trkpt>
      <trkpt lat="46.77887" lon="-1.56779">
        <ele>26.2</ele>
        <time>2024-04-25T17:54:23Z</time>
      </trkpt>
      <trkpt lat="46.77888" lon="-1.56779">
        <ele>26.4</ele>
        <time>2024-04-25T17:54:24Z</time>
      </trkpt>
      <trkpt lat="46.77889" lon="-1.5678">
        <ele>26.8</ele>
        <time>2024-04-25T17:54:25Z</time>
      </trkpt>
      <trkpt lat="46.7789" lon="-1.5678">
        <ele>27.2</ele>
        <time>2024-04-25T17:54:26Z</time>
      </trkpt>
      <trkpt lat="46.77892" lon="-1.56781">
        <ele>27.4</ele>
        <time>2024-04-25T17:54:27Z</time>
      </trkpt>
      <trkpt lat="46.77894" lon="-1.56782">
        <ele>27.6</ele>
        <time>2024-04-25T17:54:28Z</time>
      </trkpt>
      <trkpt lat="46.77895" lon="-1.56782">
        <ele>28</ele>
        <time>2024-04-25T17:54:29Z</time>
      </trkpt>
      <trkpt lat="46.77897" lon="-1.56783">
        <ele>28.2</ele>
        <time>2024-04-25T17:54:30Z</time>
      </trkpt>
      <trkpt lat="46.77898" lon="-1.56783">
        <ele>28.6</ele>
        <time>2024-04-25T17:54:31Z</time>
      </trkpt>
      <trkpt lat="46.77899" lon="-1.56784">
        <ele>29</ele>
        <time>2024-04-25T17:54:32Z</time>
      </trkpt>
      <trkpt lat="46.77901" lon="-1.56784">
        <ele>29.2</ele>
        <time>2024-04-25T17:54:33Z</time>
      </trkpt>
      <trkpt lat="46.77904" lon="-1.56785">
        <ele>29.6</ele>
        <time>2024-04-25T17:54:34Z</time>
      </trkpt>
      <trkpt lat="46.77905" lon="-1.56785">
        <ele>30</ele>
        <time>2024-04-25T17:54:35Z</time>
      </trkpt>
      <trkpt lat="46.77907" lon="-1.56786">
        <ele>30.2</ele>
        <time>2024-04-25T17:54:36Z</time>
      </trkpt>
      <trkpt lat="46.77908" lon="-1.56786">
        <ele>30.6</ele>
        <time>2024-04-25T17:54:37Z</time>
      </trkpt>
      <trkpt lat="46.7791" lon="-1.56787">
        <ele>31</ele>
        <time>2024-04-25T17:54:38Z</time>
      </trkpt>
      <trkpt lat="46.77912" lon="-1.56788">
        <ele>31.2</ele>
        <time>2024-04-25T17:54:39Z</time>
      </trkpt>
      <trkpt lat="46.77914" lon="-1.56788">
        <ele>31.6</ele>
        <time>2024-04-25T17:54:40Z</time>
      </trkpt>
      <trkpt lat="46.77915" lon="-1.56789">
        <ele>31.8</ele>
        <time>2024-04-25T17:54:41Z</time>
      </trkpt>
      <trkpt lat="46.77917" lon="-1.56789">
        <ele>32.2</ele>
        <time>2024-04-25T17:54:42Z</time>
      </trkpt>
      <trkpt lat="46.77919" lon="-1.5679">
        <ele>32.4</ele>
        <time>2024-04-25T17:54:43Z</time>
      </trkpt>
      <trkpt lat="46.77922" lon="-1.5679">
        <ele>32.8</ele>
        <time>2024-04-25T17:54:44Z</time>
      </trkpt>
      <trkpt lat="46.77923" lon="-1.56791">
        <ele>33</ele>
        <time>2024-04-25T17:54:45Z</time>
      </trkpt>
      <trkpt lat="46.77926" lon="-1.56791">
        <ele>33.4</ele>
        <time>2024-04-25T17:54:46Z</time>
      </trkpt>
      <trkpt lat="46.77927" lon="-1.56792">
        <ele>33.6</ele>
        <time>2024-04-25T17:54:47Z</time>
      </trkpt>
      <trkpt lat="46.77928" lon="-1.56792">
        <ele>34</ele>
        <time>2024-04-25T17:54:48Z</time>
      </trkpt>
      <trkpt lat="46.7793" lon="-1.56792">
        <ele>34.2</ele>
        <time>2024-04-25T17:54:49Z</time>
      </trkpt>
      <trkpt lat="46.77932" lon="-1.56793">
        <ele>34.6</ele>
        <time>2024-04-25T17:54:50Z</time>
      </trkpt>
      <trkpt lat="46.77935" lon="-1.56794">
        <ele>34.8</ele>
        <time>2024-04-25T17:54:51Z</time>
      </trkpt>
      <trkpt lat="46.77935" lon="-1.56794">
        <ele>35.2</ele>
        <time>2024-04-25T17:54:52Z</time>
      </trkpt>
      <trkpt lat="46.77937" lon="-1.56795">
        <ele>35.6</ele>
        <time>2024-04-25T17:54:53Z</time>
      </trkpt>
      <trkpt lat="46.77939" lon="-1.56795">
        <ele>36</ele>
        <time>2024-04-25T17:54:54Z</time>
      </trkpt>
      <trkpt lat="46.77941" lon="-1.56796">
        <ele>36.2</ele>
        <time>2024-04-25T17:54:55Z</time>
      </trkpt>
      <trkpt lat="46.77943" lon="-1.56796">
        <ele>36.6</ele>
        <time>2024-04-25T17:54:56Z</time>
      </trkpt>
      <trkpt lat="46.77945" lon="-1.56796">
        <ele>37</ele>
        <time>2024-04-25T17:54:57Z</time>
      </trkpt>
      <trkpt lat="46.77946" lon="-1.56797">
        <ele>37.4</ele>
        <time>2024-04-25T17:54:58Z</time>
      </trkpt>
      <trkpt lat="46.77948" lon="-1.56797">
        <ele>37.8</ele>
        <time>2024-04-25T17:54:59Z</time>
      </trkpt>
      <trkpt lat="46.7795" lon="-1.56798">
        <ele>38.2</ele>
        <time>2024-04-25T17:55:00Z</time>
      </trkpt>
      <trkpt lat="46.77952" lon="-1.56798">
        <ele>38.4</ele>
        <time>2024-04-25T17:55:01Z</time>
      </trkpt>
      <trkpt lat="46.77954" lon="-1.56799">
        <ele>38.8</ele>
        <time>2024-04-25T17:55:02Z</time>
      </trkpt>
      <trkpt lat="46.77956" lon="-1.56799">
        <ele>39</ele>
        <time>2024-04-25T17:55:03Z</time>
      </trkpt>
      <trkpt lat="46.77957" lon="-1.56799">
        <ele>39.4</ele>
        <time>2024-04-25T17:55:04Z</time>
      </trkpt>
      <trkpt lat="46.77959" lon="-1.568">
        <ele>39.8</ele>
        <time>2024-04-25T17:55:05Z</time>
      </trkpt>
      <trkpt lat="46.77961" lon="-1.568">
        <ele>40</ele>
        <time>2024-04-25T17:55:06Z</time>
      </trkpt>
      <trkpt lat="46.77963" lon="-1.56801">
        <ele>40.4</ele>
        <time>2024-04-25T17:55:07Z</time>
      </trkpt>
      <trkpt lat="46.77965" lon="-1.56801">
        <ele>40.6</ele>
        <time>2024-04-25T17:55:08Z</time>
      </trkpt>
      <trkpt lat="46.77968" lon="-1.56802">
        <ele>41</ele>
        <time>2024-04-25T17:55:09Z</time>
      </trkpt>
      <trkpt lat="46.7797" lon="-1.56802">
        <ele>41.4</ele>
        <time>2024-04-25T17:55:10Z</time>
      </trkpt>
      <trkpt lat="46.77971" lon="-1.56803">
        <ele>41.6</ele>
        <time>2024-04-25T17:55:11Z</time>
      </trkpt>
      <trkpt lat="46.77973" lon="-1.56804">
        <ele>42</ele>
        <time>2024-04-25T17:55:12Z</time>
      </trkpt>
      <trkpt lat="46.77975" lon="-1.56804">
        <ele>42.2</ele>
        <time>2024-04-25T17:55:13Z</time>
      </trkpt>
      <trkpt lat="46.77977" lon="-1.56805">
        <ele>42.6</ele>
        <time>2024-04-25T17:55:14Z</time>
      </trkpt>
      <trkpt lat="46.77979" lon="-1.56805">
        <ele>42.8</ele>
        <time>2024-04-25T17:55:15Z</time>
      </trkpt>
      <trkpt lat="46.77981" lon="-1.56806">
        <ele>43</ele>
        <time>2024-04-25T17:55:16Z</time>
      </trkpt>
      <trkpt lat="46.77982" lon="-1.56807">
        <ele>43.4</ele>
        <time>2024-04-25T17:55:17Z</time>
      </trkpt>
      <trkpt lat="46.77984" lon="-1.56807">
        <ele>43.6</ele>
        <time>2024-04-25T17:55:18Z</time>
      </trkpt>
      <trkpt lat="46.77986" lon="-1.56808">
        <ele>43.8</ele>
        <time>2024-04-25T17:55:19Z</time>
      </trkpt>
      <trkpt lat="46.77988" lon="-1.56809">
        <ele>44.2</ele>
        <time>2024-04-25T17:55:20Z</time>
      </trkpt>
      <trkpt lat="46.7799" lon="-1.5681">
        <ele>44.4</ele>
        <time>2024-04-25T17:55:21Z</time>
      </trkpt>
      <trkpt lat="46.77992" lon="-1.5681">
        <ele>44.6</ele>
        <time>2024-04-25T17:55:22Z</time>
      </trkpt>
      <trkpt lat="46.77994" lon="-1.56811">
        <ele>45</ele>
        <time>2024-04-25T17:55:23Z</time>
      </trkpt>
      <trkpt lat="46.77996" lon="-1.56812">
        <ele>45.2</ele>
        <time>2024-04-25T17:55:24Z</time>
      </trkpt>
      <trkpt lat="46.77998" lon="-1.56812">
        <ele>45.4</ele>
        <time>2024-04-25T17:55:25Z</time>
      </trkpt>
      <trkpt lat="46.78" lon="-1.56813">
        <ele>45.6</ele>
        <time>2024-04-25T17:55:26Z</time>
      </trkpt>
      <trkpt lat="46.78002" lon="-1.56813">
        <ele>46</ele>
        <time>2024-04-25T17:55:27Z</time>
      </trkpt>
      <trkpt lat="46.78004" lon="-1.56813">
        <ele>46.2</ele>
        <time>2024-04-25T17:55:28Z</time>
      </trkpt>
      <trkpt lat="46.78005" lon="-1.56813">
        <ele>46.4</ele>
        <time>2024-04-25T17:55:30Z</time>
      </trkpt>
      <trkpt lat="46.78007" lon="-1.56813">
        <ele>46.6</ele>
        <time>2024-04-25T17:55:31Z</time>
      </trkpt>
      <trkpt lat="46.78009" lon="-1.56812">
        <ele>46.8</ele>
        <time>2024-04-25T17:55:32Z</time>
      </trkpt>
      <trkpt lat="46.7801" lon="-1.56811">
        <ele>47</ele>
        <time>2024-04-25T17:55:33Z</time>
      </trkpt>
      <trkpt lat="46.78012" lon="-1.5681">
        <ele>47.4</ele>
        <time>2024-04-25T17:55:34Z</time>
      </trkpt>
      <trkpt lat="46.78013" lon="-1.56809">
        <ele>47.6</ele>
        <time>2024-04-25T17:55:35Z</time>
      </trkpt>
      <trkpt lat="46.78015" lon="-1.56808">
        <ele>47.8</ele>
        <time>2024-04-25T17:55:36Z</time>
      </trkpt>
      <trkpt lat="46.78016" lon="-1.56807">
        <ele>48</ele>
        <time>2024-04-25T17:55:37Z</time>
      </trkpt>
      <trkpt lat="46.78018" lon="-1.56806">
        <ele>48.2</ele>
        <time>2024-04-25T17:55:38Z</time>
      </trkpt>
      <trkpt lat="46.78019" lon="-1.56805">
        <ele>48.4</ele>
        <time>2024-04-25T17:55:39Z</time>
      </trkpt>
      <trkpt lat="46.78021" lon="-1.56805">
        <ele>48.6</ele>
        <time>2024-04-25T17:55:40Z</time>
      </trkpt>
      <trkpt lat="46.78023" lon="-1.56804">
        <ele>48.8</ele>
        <time>2024-04-25T17:55:41Z</time>
      </trkpt>
      <trkpt lat="46.78024" lon="-1.56804">
        <ele>48.8</ele>
        <time>2024-04-25T17:55:42Z</time>
      </trkpt>
      <trkpt lat="46.78025" lon="-1.56804">
        <ele>49</ele>
        <time>2024-04-25T17:55:43Z</time>
      </trkpt>
      <trkpt lat="46.78027" lon="-1.56804">
        <ele>49.2</ele>
        <time>2024-04-25T17:55:44Z</time>
      </trkpt>
      <trkpt lat="46.78028" lon="-1.56804">
        <ele>49.4</ele>
        <time>2024-04-25T17:55:45Z</time>
      </trkpt>
      <trkpt lat="46.78029" lon="-1.56804">
        <ele>49.4</ele>
        <time>2024-04-25T17:55:46Z</time>
      </trkpt>
      <trkpt lat="46.7803" lon="-1.56804">
        <ele>49.6</ele>
        <time>2024-04-25T17:55:47Z</time>
      </trkpt>
      <trkpt lat="46.78031" lon="-1.56803">
        <ele>49.6</ele>
        <time>2024-04-25T17:55:48Z</time>
      </trkpt>
      <trkpt lat="46.78032" lon="-1.56801">
        <ele>49.6</ele>
        <time>2024-04-25T17:55:49Z</time>
      </trkpt>
      <trkpt lat="46.78032" lon="-1.56799">
        <ele>49.6</ele>
        <time>2024-04-25T17:55:50Z</time>
      </trkpt>
      <trkpt lat="46.78032" lon="-1.56798">
        <ele>49.6</ele>
        <time>2024-04-25T17:55:51Z</time>
      </trkpt>
      <trkpt lat="46.78033" lon="-1.56796">
        <ele>49.6</ele>
        <time>2024-04-25T17:55:52Z</time>
      </trkpt>
      <trkpt lat="46.78033" lon="-1.56794">
        <ele>49.6</ele>
        <time>2024-04-25T17:55:53Z</time>
      </trkpt>
      <trkpt lat="46.78033" lon="-1.56793">
        <ele>49.6</ele>
        <time>2024-04-25T17:55:54Z</time>
      </trkpt>
      <trkpt lat="46.78034" lon="-1.56792">
        <ele>49.6</ele>
        <time>2024-04-25T17:55:55Z</time>
      </trkpt>
      <trkpt lat="46.78034" lon="-1.5679">
        <ele>49.6</ele>
        <time>2024-04-25T17:55:56Z</time>
      </trkpt>
      <trkpt lat="46.78035" lon="-1.56789">
        <ele>49.6</ele>
        <time>2024-04-25T17:55:57Z</time>
      </trkpt>
      <trkpt lat="46.78035" lon="-1.56788">
        <ele>49.8</ele>
        <time>2024-04-25T17:55:58Z</time>
      </trkpt>
      <trkpt lat="46.78035" lon="-1.56787">
        <ele>49.8</ele>
        <time>2024-04-25T17:55:59Z</time>
      </trkpt>
      <trkpt lat="46.78036" lon="-1.56786">
        <ele>49.8</ele>
        <time>2024-04-25T17:56:00Z</time>
      </trkpt>
      <trkpt lat="46.78036" lon="-1.56785">
        <ele>49.8</ele>
        <time>2024-04-25T17:56:01Z</time>
      </trkpt>
      <trkpt lat="46.78036" lon="-1.56784">
        <ele>49.8</ele>
        <time>2024-04-25T17:56:02Z</time>
      </trkpt>
      <trkpt lat="46.78037" lon="-1.56783">
        <ele>49.8</ele>
        <time>2024-04-25T17:56:03Z</time>
      </trkpt>
      <trkpt lat="46.78037" lon="-1.56781">
        <ele>49.8</ele>
        <time>2024-04-25T17:56:04Z</time>
      </trkpt>
      <trkpt lat="46.78038" lon="-1.5678">
        <ele>49.8</ele>
        <time>2024-04-25T17:56:05Z</time>
      </trkpt>
      <trkpt lat="46.78038" lon="-1.56778">
        <ele>49.8</ele>
        <time>2024-04-25T17:56:06Z</time>
      </trkpt>
      <trkpt lat="46.78038" lon="-1.56777">
        <ele>49.8</ele>
        <time>2024-04-25T17:56:07Z</time>
      </trkpt>
      <trkpt lat="46.78039" lon="-1.56775">
        <ele>49.8</ele>
        <time>2024-04-25T17:56:08Z</time>
      </trkpt>
      <trkpt lat="46.78039" lon="-1.56774">
        <ele>50</ele>
        <time>2024-04-25T17:56:09Z</time>
      </trkpt>
      <trkpt lat="46.7804" lon="-1.56773">
        <ele>50</ele>
        <time>2024-04-25T17:56:10Z</time>
      </trkpt>
      <trkpt lat="46.7804" lon="-1.56771">
        <ele>50</ele>
        <time>2024-04-25T17:56:11Z</time>
      </trkpt>
      <trkpt lat="46.78041" lon="-1.56769">
        <ele>50</ele>
        <time>2024-04-25T17:56:12Z</time>
      </trkpt>
      <trkpt lat="46.78041" lon="-1.56768">
        <ele>50</ele>
        <time>2024-04-25T17:56:13Z</time>
      </trkpt>
      <trkpt lat="46.78042" lon="-1.56766">
        <ele>50</ele>
        <time>2024-04-25T17:56:14Z</time>
      </trkpt>
      <trkpt lat="46.78042" lon="-1.56764">
        <ele>50</ele>
        <time>2024-04-25T17:56:15Z</time>
      </trkpt>
      <trkpt lat="46.78043" lon="-1.56763">
        <ele>50</ele>
        <time>2024-04-25T17:56:16Z</time>
      </trkpt>
      <trkpt lat="46.78044" lon="-1.56761">
        <ele>50.2</ele>
        <time>2024-04-25T17:56:17Z</time>
      </trkpt>
      <trkpt lat="46.78044" lon="-1.56759">
        <ele>50.2</ele>
        <time>2024-04-25T17:56:18Z</time>
      </trkpt>
      <trkpt lat="46.78044" lon="-1.56758">
        <ele>50.2</ele>
        <time>2024-04-25T17:56:19Z</time>
      </trkpt>
      <trkpt lat="46.78045" lon="-1.56757">
        <ele>50.2</ele>
        <time>2024-04-25T17:56:20Z</time>
      </trkpt>
      <trkpt lat="46.78046" lon="-1.56755">
        <ele>50.2</ele>
        <time>2024-04-25T17:56:21Z</time>
      </trkpt>
      <trkpt lat="46.78047" lon="-1.56753">
        <ele>50.2</ele>
        <time>2024-04-25T17:56:22Z</time>
      </trkpt>
      <trkpt lat="46.78048" lon="-1.56751">
        <ele>50.4</ele>
        <time>2024-04-25T17:56:23Z</time>
      </trkpt>
      <trkpt lat="46.78049" lon="-1.56749">
        <ele>50.4</ele>
        <time>2024-04-25T17:56:24Z</time>
      </trkpt>
      <trkpt lat="46.7805" lon="-1.56747">
        <ele>50.4</ele>
        <time>2024-04-25T17:56:25Z</time>
      </trkpt>
      <trkpt lat="46.78051" lon="-1.56745">
        <ele>50.4</ele>
        <time>2024-04-25T17:56:26Z</time>
      </trkpt>
      <trkpt lat="46.78051" lon="-1.56743">
        <ele>50.4</ele>
        <time>2024-04-25T17:56:27Z</time>
      </trkpt>
      <trkpt lat="46.78052" lon="-1.56741">
        <ele>50.6</ele>
        <time>2024-04-25T17:56:28Z</time>
      </trkpt>
      <trkpt lat="46.78053" lon="-1.56739">
        <ele>50.6</ele>
        <time>2024-04-25T17:56:29Z</time>
      </trkpt>
      <trkpt lat="46.78054" lon="-1.56737">
        <ele>50.6</ele>
        <time>2024-04-25T17:56:30Z</time>
      </trkpt>
      <trkpt lat="46.78055" lon="-1.56735">
        <ele>50.8</ele>
        <time>2024-04-25T17:56:31Z</time>
      </trkpt>
      <trkpt lat="46.78056" lon="-1.56733">
        <ele>50.8</ele>
        <time>2024-04-25T17:56:32Z</time>
      </trkpt>
      <trkpt lat="46.78056" lon="-1.56731">
        <ele>50.8</ele>
        <time>2024-04-25T17:56:33Z</time>
      </trkpt>
      <trkpt lat="46.78058" lon="-1.56728">
        <ele>50.8</ele>
        <time>2024-04-25T17:56:34Z</time>
      </trkpt>
      <trkpt lat="46.78059" lon="-1.56726">
        <ele>51</ele>
        <time>2024-04-25T17:56:35Z</time>
      </trkpt>
      <trkpt lat="46.7806" lon="-1.56722">
        <ele>51</ele>
        <time>2024-04-25T17:56:36Z</time>
      </trkpt>
      <trkpt lat="46.78062" lon="-1.56719">
        <ele>51</ele>
        <time>2024-04-25T17:56:37Z</time>
      </trkpt>
      <trkpt lat="46.78063" lon="-1.56716">
        <ele>51.2</ele>
        <time>2024-04-25T17:56:38Z</time>
      </trkpt>
      <trkpt lat="46.78064" lon="-1.56713">
        <ele>51.2</ele>
        <time>2024-04-25T17:56:39Z</time>
      </trkpt>
      <trkpt lat="46.78064" lon="-1.56711">
        <ele>51.2</ele>
        <time>2024-04-25T17:56:40Z</time>
      </trkpt>
      <trkpt lat="46.78065" lon="-1.56708">
        <ele>51.4</ele>
        <time>2024-04-25T17:56:41Z</time>
      </trkpt>
      <trkpt lat="46.78066" lon="-1.56705">
        <ele>51.4</ele>
        <time>2024-04-25T17:56:42Z</time>
      </trkpt>
      <trkpt lat="46.78067" lon="-1.56703">
        <ele>51.4</ele>
        <time>2024-04-25T17:56:43Z</time>
      </trkpt>
      <trkpt lat="46.78068" lon="-1.567">
        <ele>51.6</ele>
        <time>2024-04-25T17:56:44Z</time>
      </trkpt>
      <trkpt lat="46.78069" lon="-1.56697">
        <ele>51.6</ele>
        <time>2024-04-25T17:56:45Z</time>
      </trkpt>
      <trkpt lat="46.7807" lon="-1.56693">
        <ele>51.6</ele>
        <time>2024-04-25T17:56:46Z</time>
      </trkpt>
      <trkpt lat="46.78071" lon="-1.5669">
        <ele>51.8</ele>
        <time>2024-04-25T17:56:47Z</time>
      </trkpt>
      <trkpt lat="46.78072" lon="-1.56687">
        <ele>51.8</ele>
        <time>2024-04-25T17:56:48Z</time>
      </trkpt>
      <trkpt lat="46.78074" lon="-1.56684">
        <ele>52</ele>
        <time>2024-04-25T17:56:49Z</time>
      </trkpt>
      <trkpt lat="46.78075" lon="-1.5668">
        <ele>52</ele>
        <time>2024-04-25T17:56:50Z</time>
      </trkpt>
      <trkpt lat="46.78076" lon="-1.56676">
        <ele>52</ele>
        <time>2024-04-25T17:56:51Z</time>
      </trkpt>
      <trkpt lat="46.78077" lon="-1.56672">
        <ele>52.2</ele>
        <time>2024-04-25T17:56:52Z</time>
      </trkpt>
      <trkpt lat="46.78078" lon="-1.56669">
        <ele>52.2</ele>
        <time>2024-04-25T17:56:53Z</time>
      </trkpt>
      <trkpt lat="46.78079" lon="-1.56665">
        <ele>52.2</ele>
        <time>2024-04-25T17:56:54Z</time>
      </trkpt>
      <trkpt lat="46.78081" lon="-1.56661">
        <ele>52.4</ele>
        <time>2024-04-25T17:56:56Z</time>
      </trkpt>
      <trkpt lat="46.78082" lon="-1.56657">
        <ele>52.4</ele>
        <time>2024-04-25T17:56:57Z</time>
      </trkpt>
      <trkpt lat="46.78084" lon="-1.56653">
        <ele>52.6</ele>
        <time>2024-04-25T17:56:58Z</time>
      </trkpt>
      <trkpt lat="46.78086" lon="-1.5665">
        <ele>52.6</ele>
        <time>2024-04-25T17:56:59Z</time>
      </trkpt>
      <trkpt lat="46.78087" lon="-1.56646">
        <ele>52.8</ele>
        <time>2024-04-25T17:57:00Z</time>
      </trkpt>
      <trkpt lat="46.78089" lon="-1.56642">
        <ele>53</ele>
        <time>2024-04-25T17:57:01Z</time>
      </trkpt>
      <trkpt lat="46.7809" lon="-1.56639">
        <ele>53</ele>
        <time>2024-04-25T17:57:02Z</time>
      </trkpt>
      <trkpt lat="46.78091" lon="-1.56635">
        <ele>53.2</ele>
        <time>2024-04-25T17:57:03Z</time>
      </trkpt>
      <trkpt lat="46.78092" lon="-1.56631">
        <ele>53.2</ele>
        <time>2024-04-25T17:57:04Z</time>
      </trkpt>
      <trkpt lat="46.78092" lon="-1.56626">
        <ele>53.4</ele>
        <time>2024-04-25T17:57:05Z</time>
      </trkpt>
      <trkpt lat="46.78093" lon="-1.56622">
        <ele>53.4</ele>
        <time>2024-04-25T17:57:06Z</time>
      </trkpt>
      <trkpt lat="46.78094" lon="-1.56618">
        <ele>53.6</ele>
        <time>2024-04-25T17:57:07Z</time>
      </trkpt>
      <trkpt lat="46.78095" lon="-1.56614">
        <ele>54</ele>
        <time>2024-04-25T17:57:08Z</time>
      </trkpt>
      <trkpt lat="46.78096" lon="-1.5661">
        <ele>54.2</ele>
        <time>2024-04-25T17:57:09Z</time>
      </trkpt>
      <trkpt lat="46.78097" lon="-1.56605">
        <ele>54.6</ele>
        <time>2024-04-25T17:57:10Z</time>
      </trkpt>
      <trkpt lat="46.78099" lon="-1.56601">
        <ele>55</ele>
        <time>2024-04-25T17:57:11Z</time>
      </trkpt>
      <trkpt lat="46.781" lon="-1.56597">
        <ele>55.4</ele>
        <time>2024-04-25T17:57:12Z</time>
      </trkpt>
      <trkpt lat="46.78101" lon="-1.56593">
        <ele>55.8</ele>
        <time>2024-04-25T17:57:13Z</time>
      </trkpt>
      <trkpt lat="46.78101" lon="-1.56589">
        <ele>56</ele>
        <time>2024-04-25T17:57:14Z</time>
      </trkpt>
      <trkpt lat="46.78102" lon="-1.56585">
        <ele>56.2</ele>
        <time>2024-04-25T17:57:15Z</time>
      </trkpt>
      <trkpt lat="46.78102" lon="-1.56581">
        <ele>56.6</ele>
        <time>2024-04-25T17:57:16Z</time>
      </trkpt>
      <trkpt lat="46.78103" lon="-1.56578">
        <ele>56.8</ele>
        <time>2024-04-25T17:57:17Z</time>
      </trkpt>
      <trkpt lat="46.78103" lon="-1.56574">
        <ele>57</ele>
        <time>2024-04-25T17:57:18Z</time>
      </trkpt>
      <trkpt lat="46.78104" lon="-1.5657">
        <ele>57.4</ele>
        <time>2024-04-25T17:57:19Z</time>
      </trkpt>
      <trkpt lat="46.78104" lon="-1.56567">
        <ele>57.6</ele>
        <time>2024-04-25T17:57:20Z</time>
      </trkpt>
      <trkpt lat="46.78104" lon="-1.56563">
        <ele>57.6</ele>
        <time>2024-04-25T17:57:21Z</time>
      </trkpt>
      <trkpt lat="46.78105" lon="-1.5656">
        <ele>57.8</ele>
        <time>2024-04-25T17:57:22Z</time>
      </trkpt>
      <trkpt lat="46.78105" lon="-1.56556">
        <ele>58</ele>
        <time>2024-04-25T17:57:23Z</time>
      </trkpt>
      <trkpt lat="46.78106" lon="-1.56553">
        <ele>58.2</ele>
        <time>2024-04-25T17:57:24Z</time>
      </trkpt>
      <trkpt lat="46.78107" lon="-1.56549">
        <ele>58.2</ele>
        <time>2024-04-25T17:57:25Z</time>
      </trkpt>
      <trkpt lat="46.78107" lon="-1.56546">
        <ele>58.2</ele>
        <time>2024-04-25T17:57:26Z</time>
      </trkpt>
      <trkpt lat="46.78108" lon="-1.56542">
        <ele>58.2</ele>
        <time>2024-04-25T17:57:27Z</time>
      </trkpt>
      <trkpt lat="46.78108" lon="-1.56538">
        <ele>58.2</ele>
        <time>2024-04-25T17:57:28Z</time>
      </trkpt>
      <trkpt lat="46.78108" lon="-1.56534">
        <ele>58.2</ele>
        <time>2024-04-25T17:57:29Z</time>
      </trkpt>
      <trkpt lat="46.78108" lon="-1.5653">
        <ele>58.2</ele>
        <time>2024-04-25T17:57:30Z</time>
      </trkpt>
      <trkpt lat="46.78109" lon="-1.56525">
        <ele>58.2</ele>
        <time>2024-04-25T17:57:31Z</time>
      </trkpt>
      <trkpt lat="46.78109" lon="-1.5652">
        <ele>58</ele>
        <time>2024-04-25T17:57:32Z</time>
      </trkpt>
      <trkpt lat="46.7811" lon="-1.56514">
        <ele>58</ele>
        <time>2024-04-25T17:57:33Z</time>
      </trkpt>
      <trkpt lat="46.78111" lon="-1.56505">
        <ele>58</ele>
        <time>2024-04-25T17:57:34Z</time>
      </trkpt>
      <trkpt lat="46.78112" lon="-1.56502">
        <ele>57.8</ele>
        <time>2024-04-25T17:57:35Z</time>
      </trkpt>
      <trkpt lat="46.78113" lon="-1.56496">
        <ele>57.8</ele>
        <time>2024-04-25T17:57:36Z</time>
      </trkpt>
      <trkpt lat="46.78114" lon="-1.56489">
        <ele>57.8</ele>
        <time>2024-04-25T17:57:37Z</time>
      </trkpt>
      <trkpt lat="46.78115" lon="-1.56483">
        <ele>57.6</ele>
        <time>2024-04-25T17:57:38Z</time>
      </trkpt>
      <trkpt lat="46.78116" lon="-1.56477">
        <ele>57.6</ele>
        <time>2024-04-25T17:57:39Z</time>
      </trkpt>
      <trkpt lat="46.78117" lon="-1.56471">
        <ele>57.6</ele>
        <time>2024-04-25T17:57:40Z</time>
      </trkpt>
      <trkpt lat="46.78118" lon="-1.56466">
        <ele>57.6</ele>
        <time>2024-04-25T17:57:41Z</time>
      </trkpt>
      <trkpt lat="46.78118" lon="-1.5646">
        <ele>57.4</ele>
        <time>2024-04-25T17:57:42Z</time>
      </trkpt>
      <trkpt lat="46.78118" lon="-1.56454">
        <ele>57.4</ele>
        <time>2024-04-25T17:57:43Z</time>
      </trkpt>
      <trkpt lat="46.78118" lon="-1.56447">
        <ele>57.2</ele>
        <time>2024-04-25T17:57:44Z</time>
      </trkpt>
      <trkpt lat="46.78117" lon="-1.56441">
        <ele>57.2</ele>
        <time>2024-04-25T17:57:45Z</time>
      </trkpt>
      <trkpt lat="46.78116" lon="-1.56431">
        <ele>57.2</ele>
        <time>2024-04-25T17:57:46Z</time>
      </trkpt>
      <trkpt lat="46.78116" lon="-1.56428">
        <ele>57</ele>
        <time>2024-04-25T17:57:47Z</time>
      </trkpt>
      <trkpt lat="46.78116" lon="-1.56421">
        <ele>56.8</ele>
        <time>2024-04-25T17:57:48Z</time>
      </trkpt>
      <trkpt lat="46.78116" lon="-1.56413">
        <ele>56.6</ele>
        <time>2024-04-25T17:57:49Z</time>
      </trkpt>
      <trkpt lat="46.78117" lon="-1.56405">
        <ele>56.4</ele>
        <time>2024-04-25T17:57:50Z</time>
      </trkpt>
      <trkpt lat="46.78117" lon="-1.56397">
        <ele>56.2</ele>
        <time>2024-04-25T17:57:51Z</time>
      </trkpt>
      <trkpt lat="46.78118" lon="-1.5639">
        <ele>56</ele>
        <time>2024-04-25T17:57:52Z</time>
      </trkpt>
      <trkpt lat="46.78119" lon="-1.56382">
        <ele>55.8</ele>
        <time>2024-04-25T17:57:53Z</time>
      </trkpt>
      <trkpt lat="46.78119" lon="-1.5637">
        <ele>55.4</ele>
        <time>2024-04-25T17:57:54Z</time>
      </trkpt>
      <trkpt lat="46.7812" lon="-1.56366">
        <ele>55.2</ele>
        <time>2024-04-25T17:57:55Z</time>
      </trkpt>
      <trkpt lat="46.7812" lon="-1.56358">
        <ele>55</ele>
        <time>2024-04-25T17:57:56Z</time>
      </trkpt>
      <trkpt lat="46.78121" lon="-1.5635">
        <ele>54.8</ele>
        <time>2024-04-25T17:57:57Z</time>
      </trkpt>
      <trkpt lat="46.78121" lon="-1.56342">
        <ele>54.6</ele>
        <time>2024-04-25T17:57:58Z</time>
      </trkpt>
      <trkpt lat="46.78121" lon="-1.56335">
        <ele>54.4</ele>
        <time>2024-04-25T17:57:59Z</time>
      </trkpt>
      <trkpt lat="46.78121" lon="-1.56319">
        <ele>54.4</ele>
        <time>2024-04-25T17:58:00Z</time>
      </trkpt>
      <trkpt lat="46.78121" lon="-1.56315">
        <ele>54.2</ele>
        <time>2024-04-25T17:58:01Z</time>
      </trkpt>
      <trkpt lat="46.78121" lon="-1.56302">
        <ele>54</ele>
        <time>2024-04-25T17:58:02Z</time>
      </trkpt>
      <trkpt lat="46.78121" lon="-1.56298">
        <ele>54</ele>
        <time>2024-04-25T17:58:03Z</time>
      </trkpt>
      <trkpt lat="46.78122" lon="-1.56289">
        <ele>54</ele>
        <time>2024-04-25T17:58:04Z</time>
      </trkpt>
      <trkpt lat="46.78123" lon="-1.56282">
        <ele>53.8</ele>
        <time>2024-04-25T17:58:05Z</time>
      </trkpt>
      <trkpt lat="46.78124" lon="-1.56275">
        <ele>53.8</ele>
        <time>2024-04-25T17:58:06Z</time>
      </trkpt>
      <trkpt lat="46.78125" lon="-1.56269">
        <ele>53.8</ele>
        <time>2024-04-25T17:58:07Z</time>
      </trkpt>
      <trkpt lat="46.78123" lon="-1.56264">
        <ele>53.8</ele>
        <time>2024-04-25T17:58:08Z</time>
      </trkpt>
      <trkpt lat="46.7812" lon="-1.56261">
        <ele>53.8</ele>
        <time>2024-04-25T17:58:09Z</time>
      </trkpt>
      <trkpt lat="46.78116" lon="-1.56259">
        <ele>53.8</ele>
        <time>2024-04-25T17:58:10Z</time>
      </trkpt>
      <trkpt lat="46.78112" lon="-1.5626">
        <ele>54</ele>
        <time>2024-04-25T17:58:11Z</time>
      </trkpt>
      <trkpt lat="46.78107" lon="-1.56262">
        <ele>54</ele>
        <time>2024-04-25T17:58:12Z</time>
      </trkpt>
      <trkpt lat="46.78102" lon="-1.56265">
        <ele>53.8</ele>
        <time>2024-04-25T17:58:13Z</time>
      </trkpt>
      <trkpt lat="46.78096" lon="-1.56268">
        <ele>53.6</ele>
        <time>2024-04-25T17:58:14Z</time>
      </trkpt>
      <trkpt lat="46.78091" lon="-1.56272">
        <ele>53.2</ele>
        <time>2024-04-25T17:58:15Z</time>
      </trkpt>
      <trkpt lat="46.78086" lon="-1.56275">
        <ele>53</ele>
        <time>2024-04-25T17:58:16Z</time>
      </trkpt>
      <trkpt lat="46.78081" lon="-1.56278">
        <ele>52.6</ele>
        <time>2024-04-25T17:58:17Z</time>
      </trkpt>
      <trkpt lat="46.78076" lon="-1.56279">
        <ele>52.2</ele>
        <time>2024-04-25T17:58:18Z</time>
      </trkpt>
      <trkpt lat="46.78073" lon="-1.56277">
        <ele>52</ele>
        <time>2024-04-25T17:58:19Z</time>
      </trkpt>
      <trkpt lat="46.78071" lon="-1.56272">
        <ele>52</ele>
        <time>2024-04-25T17:58:20Z</time>
      </trkpt>
      <trkpt lat="46.78072" lon="-1.56263">
        <ele>52</ele>
        <time>2024-04-25T17:58:22Z</time>
      </trkpt>
      <trkpt lat="46.78072" lon="-1.5626">
        <ele>52</ele>
        <time>2024-04-25T17:58:23Z</time>
      </trkpt>
      <trkpt lat="46.78072" lon="-1.56254">
        <ele>52</ele>
        <time>2024-04-25T17:58:24Z</time>
      </trkpt>
      <trkpt lat="46.78073" lon="-1.56248">
        <ele>52.2</ele>
        <time>2024-04-25T17:58:25Z</time>
      </trkpt>
      <trkpt lat="46.78073" lon="-1.56241">
        <ele>52.2</ele>
        <time>2024-04-25T17:58:26Z</time>
      </trkpt>
      <trkpt lat="46.78074" lon="-1.56235">
        <ele>52.4</ele>
        <time>2024-04-25T17:58:27Z</time>
      </trkpt>
      <trkpt lat="46.78074" lon="-1.56229">
        <ele>52.6</ele>
        <time>2024-04-25T17:58:28Z</time>
      </trkpt>
      <trkpt lat="46.78074" lon="-1.56224">
        <ele>52.8</ele>
        <time>2024-04-25T17:58:29Z</time>
      </trkpt>
      <trkpt lat="46.78074" lon="-1.56218">
        <ele>52.8</ele>
        <time>2024-04-25T17:58:30Z</time>
      </trkpt>
      <trkpt lat="46.78074" lon="-1.56213">
        <ele>53</ele>
        <time>2024-04-25T17:58:31Z</time>
      </trkpt>
      <trkpt lat="46.78074" lon="-1.56208">
        <ele>53.2</ele>
        <time>2024-04-25T17:58:32Z</time>
      </trkpt>
      <trkpt lat="46.78073" lon="-1.56203">
        <ele>53.4</ele>
        <time>2024-04-25T17:58:33Z</time>
      </trkpt>
      <trkpt lat="46.78073" lon="-1.56199">
        <ele>53.6</ele>
        <time>2024-04-25T17:58:34Z</time>
      </trkpt>
      <trkpt lat="46.78073" lon="-1.56194">
        <ele>53.8</ele>
        <time>2024-04-25T17:58:35Z</time>
      </trkpt>
      <trkpt lat="46.78073" lon="-1.56188">
        <ele>54</ele>
        <time>2024-04-25T17:58:36Z</time>
      </trkpt>
      <trkpt lat="46.78073" lon="-1.56183">
        <ele>54.2</ele>
        <time>2024-04-25T17:58:37Z</time>
      </trkpt>
      <trkpt lat="46.78073" lon="-1.56176">
        <ele>54.4</ele>
        <time>2024-04-25T17:58:38Z</time>
      </trkpt>
      <trkpt lat="46.78073" lon="-1.5617">
        <ele>54.4</ele>
        <time>2024-04-25T17:58:39Z</time>
      </trkpt>
      <trkpt lat="46.78073" lon="-1.56164">
        <ele>54.6</ele>
        <time>2024-04-25T17:58:40Z</time>
      </trkpt>
      <trkpt lat="46.78073" lon="-1.56157">
        <ele>54.6</ele>
        <time>2024-04-25T17:58:41Z</time>
      </trkpt>
      <trkpt lat="46.78072" lon="-1.56151">
        <ele>54.8</ele>
        <time>2024-04-25T17:58:42Z</time>
      </trkpt>
      <trkpt lat="46.7807" lon="-1.56146">
        <ele>54.8</ele>
        <time>2024-04-25T17:58:43Z</time>
      </trkpt>
      <trkpt lat="46.78068" lon="-1.56142">
        <ele>55</ele>
        <time>2024-04-25T17:58:44Z</time>
      </trkpt>
      <trkpt lat="46.78064" lon="-1.56139">
        <ele>55</ele>
        <time>2024-04-25T17:58:45Z</time>
      </trkpt>
      <trkpt lat="46.7806" lon="-1.56138">
        <ele>55</ele>
        <time>2024-04-25T17:58:46Z</time>
      </trkpt>
      <trkpt lat="46.78055" lon="-1.56137">
        <ele>55.2</ele>
        <time>2024-04-25T17:58:47Z</time>
      </trkpt>
      <trkpt lat="46.78051" lon="-1.56137">
        <ele>55.2</ele>
        <time>2024-04-25T17:58:48Z</time>
      </trkpt>
      <trkpt lat="46.78047" lon="-1.56136">
        <ele>55.2</ele>
        <time>2024-04-25T17:58:49Z</time>
      </trkpt>
      <trkpt lat="46.78042" lon="-1.56136">
        <ele>55.2</ele>
        <time>2024-04-25T17:58:50Z</time>
      </trkpt>
      <trkpt lat="46.78037" lon="-1.56135">
        <ele>55.2</ele>
        <time>2024-04-25T17:58:51Z</time>
      </trkpt>
      <trkpt lat="46.78032" lon="-1.56134">
        <ele>55</ele>
        <time>2024-04-25T17:58:52Z</time>
      </trkpt>
      <trkpt lat="46.78027" lon="-1.56132">
        <ele>55</ele>
        <time>2024-04-25T17:58:53Z</time>
      </trkpt>
      <trkpt lat="46.78022" lon="-1.5613">
        <ele>55</ele>
        <time>2024-04-25T17:58:54Z</time>
      </trkpt>
      <trkpt lat="46.78017" lon="-1.56128">
        <ele>54.8</ele>
        <time>2024-04-25T17:58:55Z</time>
      </trkpt>
      <trkpt lat="46.78012" lon="-1.56126">
        <ele>54.8</ele>
        <time>2024-04-25T17:58:56Z</time>
      </trkpt>
      <trkpt lat="46.78007" lon="-1.56124">
        <ele>54.6</ele>
        <time>2024-04-25T17:58:57Z</time>
      </trkpt>
      <trkpt lat="46.78002" lon="-1.56122">
        <ele>54.6</ele>
        <time>2024-04-25T17:58:58Z</time>
      </trkpt>
      <trkpt lat="46.77998" lon="-1.56119">
        <ele>54.2</ele>
        <time>2024-04-25T17:58:59Z</time>
      </trkpt>
      <trkpt lat="46.77996" lon="-1.56114">
        <ele>54</ele>
        <time>2024-04-25T17:59:00Z</time>
      </trkpt>
      <trkpt lat="46.77996" lon="-1.56107">
        <ele>54</ele>
        <time>2024-04-25T17:59:01Z</time>
      </trkpt>
      <trkpt lat="46.77997" lon="-1.561">
        <ele>54</ele>
        <time>2024-04-25T17:59:02Z</time>
      </trkpt>
      <trkpt lat="46.77998" lon="-1.56093">
        <ele>54</ele>
        <time>2024-04-25T17:59:03Z</time>
      </trkpt>
      <trkpt lat="46.78" lon="-1.56085">
        <ele>54</ele>
        <time>2024-04-25T17:59:04Z</time>
      </trkpt>
      <trkpt lat="46.78001" lon="-1.56078">
        <ele>54</ele>
        <time>2024-04-25T17:59:05Z</time>
      </trkpt>
      <trkpt lat="46.78002" lon="-1.56071">
        <ele>54</ele>
        <time>2024-04-25T17:59:06Z</time>
      </trkpt>
      <trkpt lat="46.78003" lon="-1.56064">
        <ele>54</ele>
        <time>2024-04-25T17:59:07Z</time>
      </trkpt>
      <trkpt lat="46.78003" lon="-1.56056">
        <ele>53.8</ele>
        <time>2024-04-25T17:59:08Z</time>
      </trkpt>
      <trkpt lat="46.78004" lon="-1.56048">
        <ele>53.6</ele>
        <time>2024-04-25T17:59:09Z</time>
      </trkpt>
      <trkpt lat="46.78005" lon="-1.5604">
        <ele>53.6</ele>
        <time>2024-04-25T17:59:10Z</time>
      </trkpt>
      <trkpt lat="46.78005" lon="-1.56032">
        <ele>53.4</ele>
        <time>2024-04-25T17:59:11Z</time>
      </trkpt>
      <trkpt lat="46.78006" lon="-1.56024">
        <ele>53.4</ele>
        <time>2024-04-25T17:59:12Z</time>
      </trkpt>
      <trkpt lat="46.78007" lon="-1.56013">
        <ele>53.4</ele>
        <time>2024-04-25T17:59:13Z</time>
      </trkpt>
      <trkpt lat="46.78008" lon="-1.56009">
        <ele>53.4</ele>
        <time>2024-04-25T17:59:14Z</time>
      </trkpt>
      <trkpt lat="46.78009" lon="-1.56001">
        <ele>53.4</ele>
        <time>2024-04-25T17:59:15Z</time>
      </trkpt>
      <trkpt lat="46.78009" lon="-1.55993">
        <ele>53.4</ele>
        <time>2024-04-25T17:59:16Z</time>
      </trkpt>
      <trkpt lat="46.7801" lon="-1.55986">
        <ele>53.4</ele>
        <time>2024-04-25T17:59:17Z</time>
      </trkpt>
      <trkpt lat="46.7801" lon="-1.55979">
        <ele>53.4</ele>
        <time>2024-04-25T17:59:18Z</time>
      </trkpt>
      <trkpt lat="46.7801" lon="-1.55973">
        <ele>53.2</ele>
        <time>2024-04-25T17:59:19Z</time>
      </trkpt>
      <trkpt lat="46.78007" lon="-1.55968">
        <ele>53</ele>
        <time>2024-04-25T17:59:20Z</time>
      </trkpt>
      <trkpt lat="46.78003" lon="-1.55966">
        <ele>52.6</ele>
        <time>2024-04-25T17:59:21Z</time>
      </trkpt>
      <trkpt lat="46.77998" lon="-1.55964">
        <ele>52.2</ele>
        <time>2024-04-25T17:59:22Z</time>
      </trkpt>
      <trkpt lat="46.77992" lon="-1.55963">
        <ele>51.8</ele>
        <time>2024-04-25T17:59:23Z</time>
      </trkpt>
      <trkpt lat="46.77983" lon="-1.55962">
        <ele>51</ele>
        <time>2024-04-25T17:59:24Z</time>
      </trkpt>
      <trkpt lat="46.77979" lon="-1.55962">
        <ele>50.4</ele>
        <time>2024-04-25T17:59:25Z</time>
      </trkpt>
      <trkpt lat="46.77973" lon="-1.55961">
        <ele>49.6</ele>
        <time>2024-04-25T17:59:26Z</time>
      </trkpt>
      <trkpt lat="46.77968" lon="-1.55961">
        <ele>48.8</ele>
        <time>2024-04-25T17:59:27Z</time>
      </trkpt>
      <trkpt lat="46.77965" lon="-1.5596">
        <ele>48.2</ele>
        <time>2024-04-25T17:59:28Z</time>
      </trkpt>
      <trkpt lat="46.77962" lon="-1.55959">
        <ele>47.4</ele>
        <time>2024-04-25T17:59:29Z</time>
      </trkpt>
      <trkpt lat="46.7796" lon="-1.55958">
        <ele>46.6</ele>
        <time>2024-04-25T17:59:30Z</time>
      </trkpt>
      <trkpt lat="46.77958" lon="-1.55957">
        <ele>45.8</ele>
        <time>2024-04-25T17:59:31Z</time>
      </trkpt>
      <trkpt lat="46.77955" lon="-1.55957">
        <ele>45</ele>
        <time>2024-04-25T17:59:32Z</time>
      </trkpt>
      <trkpt lat="46.77953" lon="-1.55956">
        <ele>44.2</ele>
        <time>2024-04-25T17:59:33Z</time>
      </trkpt>
      <trkpt lat="46.7795" lon="-1.55956">
        <ele>43.2</ele>
        <time>2024-04-25T17:59:34Z</time>
      </trkpt>
      <trkpt lat="46.77946" lon="-1.55954">
        <ele>42.4</ele>
        <time>2024-04-25T17:59:35Z</time>
      </trkpt>
      <trkpt lat="46.7794" lon="-1.55952">
        <ele>41.2</ele>
        <time>2024-04-25T17:59:36Z</time>
      </trkpt>
      <trkpt lat="46.77935" lon="-1.55948">
        <ele>40</ele>
        <time>2024-04-25T17:59:37Z</time>
      </trkpt>
      <trkpt lat="46.77927" lon="-1.5594">
        <ele>38.8</ele>
        <time>2024-04-25T17:59:38Z</time>
      </trkpt>
      <trkpt lat="46.77924" lon="-1.55936">
        <ele>37.8</ele>
        <time>2024-04-25T17:59:39Z</time>
      </trkpt>
      <trkpt lat="46.7792" lon="-1.55929">
        <ele>36.8</ele>
        <time>2024-04-25T17:59:40Z</time>
      </trkpt>
      <trkpt lat="46.77917" lon="-1.55921">
        <ele>35.8</ele>
        <time>2024-04-25T17:59:41Z</time>
      </trkpt>
      <trkpt lat="46.77914" lon="-1.55911">
        <ele>35</ele>
        <time>2024-04-25T17:59:42Z</time>
      </trkpt>
      <trkpt lat="46.77912" lon="-1.55901">
        <ele>34.4</ele>
        <time>2024-04-25T17:59:43Z</time>
      </trkpt>
      <trkpt lat="46.77909" lon="-1.5589">
        <ele>33.6</ele>
        <time>2024-04-25T17:59:44Z</time>
      </trkpt>
      <trkpt lat="46.77906" lon="-1.5588">
        <ele>33</ele>
        <time>2024-04-25T17:59:46Z</time>
      </trkpt>
      <trkpt lat="46.77902" lon="-1.5587">
        <ele>32.2</ele>
        <time>2024-04-25T17:59:47Z</time>
      </trkpt>
      <trkpt lat="46.77899" lon="-1.55859">
        <ele>31.2</ele>
        <time>2024-04-25T17:59:48Z</time>
      </trkpt>
      <trkpt lat="46.77896" lon="-1.55849">
        <ele>30.6</ele>
        <time>2024-04-25T17:59:49Z</time>
      </trkpt>
      <trkpt lat="46.77894" lon="-1.5584">
        <ele>30.2</ele>
        <time>2024-04-25T17:59:50Z</time>
      </trkpt>
      <trkpt lat="46.77891" lon="-1.55834">
        <ele>30</ele>
        <time>2024-04-25T17:59:51Z</time>
      </trkpt>
      <trkpt lat="46.77887" lon="-1.55832">
        <ele>29.8</ele>
        <time>2024-04-25T17:59:52Z</time>
      </trkpt>
      <trkpt lat="46.77883" lon="-1.55831">
        <ele>29.6</ele>
        <time>2024-04-25T17:59:53Z</time>
      </trkpt>
      <trkpt lat="46.77878" lon="-1.55831">
        <ele>29.4</ele>
        <time>2024-04-25T17:59:54Z</time>
      </trkpt>
      <trkpt lat="46.77873" lon="-1.55832">
        <ele>29.4</ele>
        <time>2024-04-25T17:59:55Z</time>
      </trkpt>
      <trkpt lat="46.77868" lon="-1.55833">
        <ele>29.2</ele>
        <time>2024-04-25T17:59:56Z</time>
      </trkpt>
      <trkpt lat="46.77863" lon="-1.55832">
        <ele>29.2</ele>
        <time>2024-04-25T17:59:57Z</time>
      </trkpt>
      <trkpt lat="46.77859" lon="-1.55831">
        <ele>29</ele>
        <time>2024-04-25T17:59:58Z</time>
      </trkpt>
      <trkpt lat="46.77855" lon="-1.55828">
        <ele>28.8</ele>
        <time>2024-04-25T17:59:59Z</time>
      </trkpt>
      <trkpt lat="46.77851" lon="-1.55823">
        <ele>28.6</ele>
        <time>2024-04-25T18:00:00Z</time>
      </trkpt>
      <trkpt lat="46.77849" lon="-1.55817">
        <ele>28.4</ele>
        <time>2024-04-25T18:00:01Z</time>
      </trkpt>
      <trkpt lat="46.77848" lon="-1.5581">
        <ele>28</ele>
        <time>2024-04-25T18:00:02Z</time>
      </trkpt>
      <trkpt lat="46.77848" lon="-1.55802">
        <ele>27.8</ele>
        <time>2024-04-25T18:00:03Z</time>
      </trkpt>
      <trkpt lat="46.77849" lon="-1.55794">
        <ele>27.6</ele>
        <time>2024-04-25T18:00:04Z</time>
      </trkpt>
      <trkpt lat="46.77851" lon="-1.55786">
        <ele>27.4</ele>
        <time>2024-04-25T18:00:05Z</time>
      </trkpt>
      <trkpt lat="46.77854" lon="-1.55778">
        <ele>27.2</ele>
        <time>2024-04-25T18:00:06Z</time>
      </trkpt>
      <trkpt lat="46.77856" lon="-1.5577">
        <ele>27</ele>
        <time>2024-04-25T18:00:07Z</time>
      </trkpt>
      <trkpt lat="46.77858" lon="-1.55762">
        <ele>26.8</ele>
        <time>2024-04-25T18:00:08Z</time>
      </trkpt>
      <trkpt lat="46.7786" lon="-1.55755">
        <ele>26.6</ele>
        <time>2024-04-25T18:00:09Z</time>
      </trkpt>
      <trkpt lat="46.77861" lon="-1.55747">
        <ele>26.6</ele>
        <time>2024-04-25T18:00:10Z</time>
      </trkpt>
      <trkpt lat="46.77862" lon="-1.55739">
        <ele>26.4</ele>
        <time>2024-04-25T18:00:11Z</time>
      </trkpt>
      <trkpt lat="46.77864" lon="-1.55731">
        <ele>26.4</ele>
        <time>2024-04-25T18:00:12Z</time>
      </trkpt>
      <trkpt lat="46.77865" lon="-1.55723">
        <ele>26.2</ele>
        <time>2024-04-25T18:00:13Z</time>
      </trkpt>
      <trkpt lat="46.77867" lon="-1.55715">
        <ele>26.2</ele>
        <time>2024-04-25T18:00:14Z</time>
      </trkpt>
      <trkpt lat="46.77869" lon="-1.55706">
        <ele>26</ele>
        <time>2024-04-25T18:00:15Z</time>
      </trkpt>
      <trkpt lat="46.77871" lon="-1.55699">
        <ele>26</ele>
        <time>2024-04-25T18:00:16Z</time>
      </trkpt>
      <trkpt lat="46.77873" lon="-1.55691">
        <ele>26</ele>
        <time>2024-04-25T18:00:17Z</time>
      </trkpt>
      <trkpt lat="46.77875" lon="-1.55684">
        <ele>26</ele>
        <time>2024-04-25T18:00:18Z</time>
      </trkpt>
      <trkpt lat="46.77878" lon="-1.55677">
        <ele>26</ele>
        <time>2024-04-25T18:00:19Z</time>
      </trkpt>
      <trkpt lat="46.77882" lon="-1.5567">
        <ele>26</ele>
        <time>2024-04-25T18:00:20Z</time>
      </trkpt>
      <trkpt lat="46.77885" lon="-1.55663">
        <ele>25.8</ele>
        <time>2024-04-25T18:00:21Z</time>
      </trkpt>
      <trkpt lat="46.77889" lon="-1.55656">
        <ele>25.8</ele>
        <time>2024-04-25T18:00:22Z</time>
      </trkpt>
      <trkpt lat="46.77892" lon="-1.55648">
        <ele>25.8</ele>
        <time>2024-04-25T18:00:23Z</time>
      </trkpt>
      <trkpt lat="46.77896" lon="-1.55641">
        <ele>25.8</ele>
        <time>2024-04-25T18:00:24Z</time>
      </trkpt>
      <trkpt lat="46.77899" lon="-1.55634">
        <ele>25.8</ele>
        <time>2024-04-25T18:00:25Z</time>
      </trkpt>
      <trkpt lat="46.77902" lon="-1.55627">
        <ele>25.8</ele>
        <time>2024-04-25T18:00:26Z</time>
      </trkpt>
      <trkpt lat="46.77904" lon="-1.55619">
        <ele>25.8</ele>
        <time>2024-04-25T18:00:27Z</time>
      </trkpt>
      <trkpt lat="46.77907" lon="-1.55612">
        <ele>26</ele>
        <time>2024-04-25T18:00:28Z</time>
      </trkpt>
      <trkpt lat="46.7791" lon="-1.55605">
        <ele>26</ele>
        <time>2024-04-25T18:00:29Z</time>
      </trkpt>
      <trkpt lat="46.77913" lon="-1.55598">
        <ele>26</ele>
        <time>2024-04-25T18:00:30Z</time>
      </trkpt>
      <trkpt lat="46.77916" lon="-1.55591">
        <ele>26</ele>
        <time>2024-04-25T18:00:31Z</time>
      </trkpt>
      <trkpt lat="46.77918" lon="-1.55584">
        <ele>25.8</ele>
        <time>2024-04-25T18:00:32Z</time>
      </trkpt>
      <trkpt lat="46.77921" lon="-1.55577">
        <ele>25.8</ele>
        <time>2024-04-25T18:00:33Z</time>
      </trkpt>
      <trkpt lat="46.77924" lon="-1.55569">
        <ele>25.6</ele>
        <time>2024-04-25T18:00:34Z</time>
      </trkpt>
      <trkpt lat="46.77927" lon="-1.55562">
        <ele>25.4</ele>
        <time>2024-04-25T18:00:35Z</time>
      </trkpt>
      <trkpt lat="46.7793" lon="-1.55554">
        <ele>25.2</ele>
        <time>2024-04-25T18:00:36Z</time>
      </trkpt>
      <trkpt lat="46.77933" lon="-1.55547">
        <ele>25</ele>
        <time>2024-04-25T18:00:37Z</time>
      </trkpt>
      <trkpt lat="46.77936" lon="-1.55539">
        <ele>24.8</ele>
        <time>2024-04-25T18:00:38Z</time>
      </trkpt>
      <trkpt lat="46.77939" lon="-1.55531">
        <ele>24.8</ele>
        <time>2024-04-25T18:00:39Z</time>
      </trkpt>
      <trkpt lat="46.77942" lon="-1.55523">
        <ele>24.8</ele>
        <time>2024-04-25T18:00:40Z</time>
      </trkpt>
      <trkpt lat="46.77946" lon="-1.55515">
        <ele>24.6</ele>
        <time>2024-04-25T18:00:41Z</time>
      </trkpt>
      <trkpt lat="46.77949" lon="-1.55508">
        <ele>24.6</ele>
        <time>2024-04-25T18:00:42Z</time>
      </trkpt>
      <trkpt lat="46.77953" lon="-1.55501">
        <ele>24.6</ele>
        <time>2024-04-25T18:00:43Z</time>
      </trkpt>
      <trkpt lat="46.77957" lon="-1.55494">
        <ele>24.6</ele>
        <time>2024-04-25T18:00:44Z</time>
      </trkpt>
      <trkpt lat="46.77962" lon="-1.55484">
        <ele>24.4</ele>
        <time>2024-04-25T18:00:45Z</time>
      </trkpt>
      <trkpt lat="46.77964" lon="-1.5548">
        <ele>24.4</ele>
        <time>2024-04-25T18:00:46Z</time>
      </trkpt>
      <trkpt lat="46.77967" lon="-1.55473">
        <ele>24.2</ele>
        <time>2024-04-25T18:00:47Z</time>
      </trkpt>
      <trkpt lat="46.77972" lon="-1.55461">
        <ele>24.2</ele>
        <time>2024-04-25T18:00:48Z</time>
      </trkpt>
      <trkpt lat="46.77977" lon="-1.55451">
        <ele>24.2</ele>
        <time>2024-04-25T18:00:49Z</time>
      </trkpt>
      <trkpt lat="46.77981" lon="-1.55443">
        <ele>24.2</ele>
        <time>2024-04-25T18:00:50Z</time>
      </trkpt>
      <trkpt lat="46.77985" lon="-1.55435">
        <ele>24.2</ele>
        <time>2024-04-25T18:00:51Z</time>
      </trkpt>
      <trkpt lat="46.7799" lon="-1.55424">
        <ele>24</ele>
        <time>2024-04-25T18:00:52Z</time>
      </trkpt>
      <trkpt lat="46.77992" lon="-1.55421">
        <ele>24</ele>
        <time>2024-04-25T18:00:53Z</time>
      </trkpt>
      <trkpt lat="46.77996" lon="-1.55414">
        <ele>23.8</ele>
        <time>2024-04-25T18:00:54Z</time>
      </trkpt>
      <trkpt lat="46.78" lon="-1.55408">
        <ele>23.8</ele>
        <time>2024-04-25T18:00:55Z</time>
      </trkpt>
      <trkpt lat="46.78005" lon="-1.55401">
        <ele>23.8</ele>
        <time>2024-04-25T18:00:56Z</time>
      </trkpt>
      <trkpt lat="46.78009" lon="-1.55395">
        <ele>23.8</ele>
        <time>2024-04-25T18:00:57Z</time>
      </trkpt>
      <trkpt lat="46.78013" lon="-1.55388">
        <ele>24</ele>
        <time>2024-04-25T18:00:58Z</time>
      </trkpt>
      <trkpt lat="46.78017" lon="-1.55382">
        <ele>24</ele>
        <time>2024-04-25T18:00:59Z</time>
      </trkpt>
      <trkpt lat="46.78021" lon="-1.55377">
        <ele>24.2</ele>
        <time>2024-04-25T18:01:00Z</time>
      </trkpt>
      <trkpt lat="46.78025" lon="-1.55372">
        <ele>24.2</ele>
        <time>2024-04-25T18:01:01Z</time>
      </trkpt>
      <trkpt lat="46.78031" lon="-1.55365">
        <ele>24.4</ele>
        <time>2024-04-25T18:01:02Z</time>
      </trkpt>
      <trkpt lat="46.78033" lon="-1.55363">
        <ele>24.6</ele>
        <time>2024-04-25T18:01:03Z</time>
      </trkpt>
      <trkpt lat="46.78038" lon="-1.55355">
        <ele>24.8</ele>
        <time>2024-04-25T18:01:04Z</time>
      </trkpt>
      <trkpt lat="46.78039" lon="-1.55353">
        <ele>25</ele>
        <time>2024-04-25T18:01:05Z</time>
      </trkpt>
      <trkpt lat="46.78042" lon="-1.55347">
        <ele>25.2</ele>
        <time>2024-04-25T18:01:06Z</time>
      </trkpt>
      <trkpt lat="46.78045" lon="-1.55342">
        <ele>25.6</ele>
        <time>2024-04-25T18:01:07Z</time>
      </trkpt>
      <trkpt lat="46.78047" lon="-1.55337">
        <ele>25.8</ele>
        <time>2024-04-25T18:01:08Z</time>
      </trkpt>
      <trkpt lat="46.78049" lon="-1.55331">
        <ele>26</ele>
        <time>2024-04-25T18:01:09Z</time>
      </trkpt>
      <trkpt lat="46.78052" lon="-1.55326">
        <ele>26</ele>
        <time>2024-04-25T18:01:11Z</time>
      </trkpt>
      <trkpt lat="46.78054" lon="-1.5532">
        <ele>26.2</ele>
        <time>2024-04-25T18:01:12Z</time>
      </trkpt>
      <trkpt lat="46.78056" lon="-1.55315">
        <ele>26.2</ele>
        <time>2024-04-25T18:01:13Z</time>
      </trkpt>
      <trkpt lat="46.78059" lon="-1.55309">
        <ele>26.4</ele>
        <time>2024-04-25T18:01:14Z</time>
      </trkpt>
      <trkpt lat="46.78061" lon="-1.55303">
        <ele>26.4</ele>
        <time>2024-04-25T18:01:15Z</time>
      </trkpt>
      <trkpt lat="46.78063" lon="-1.55297">
        <ele>26.6</ele>
        <time>2024-04-25T18:01:16Z</time>
      </trkpt>
      <trkpt lat="46.78065" lon="-1.55291">
        <ele>26.6</ele>
        <time>2024-04-25T18:01:17Z</time>
      </trkpt>
      <trkpt lat="46.78067" lon="-1.55285">
        <ele>26.6</ele>
        <time>2024-04-25T18:01:18Z</time>
      </trkpt>
      <trkpt lat="46.7807" lon="-1.55276">
        <ele>26.8</ele>
        <time>2024-04-25T18:01:19Z</time>
      </trkpt>
      <trkpt lat="46.78071" lon="-1.55273">
        <ele>26.8</ele>
        <time>2024-04-25T18:01:20Z</time>
      </trkpt>
      <trkpt lat="46.78072" lon="-1.55267">
        <ele>27</ele>
        <time>2024-04-25T18:01:21Z</time>
      </trkpt>
      <trkpt lat="46.78074" lon="-1.55261">
        <ele>27</ele>
        <time>2024-04-25T18:01:22Z</time>
      </trkpt>
      <trkpt lat="46.78076" lon="-1.55255">
        <ele>27.2</ele>
        <time>2024-04-25T18:01:23Z</time>
      </trkpt>
      <trkpt lat="46.78077" lon="-1.55249">
        <ele>27.2</ele>
        <time>2024-04-25T18:01:24Z</time>
      </trkpt>
      <trkpt lat="46.78079" lon="-1.55243">
        <ele>27.4</ele>
        <time>2024-04-25T18:01:25Z</time>
      </trkpt>
      <trkpt lat="46.78081" lon="-1.55238">
        <ele>27.6</ele>
        <time>2024-04-25T18:01:26Z</time>
      </trkpt>
      <trkpt lat="46.78083" lon="-1.55232">
        <ele>27.6</ele>
        <time>2024-04-25T18:01:27Z</time>
      </trkpt>
      <trkpt lat="46.78084" lon="-1.55226">
        <ele>27.8</ele>
        <time>2024-04-25T18:01:28Z</time>
      </trkpt>
      <trkpt lat="46.78086" lon="-1.5522">
        <ele>27.8</ele>
        <time>2024-04-25T18:01:29Z</time>
      </trkpt>
      <trkpt lat="46.78087" lon="-1.55214">
        <ele>28</ele>
        <time>2024-04-25T18:01:30Z</time>
      </trkpt>
      <trkpt lat="46.78089" lon="-1.55208">
        <ele>28</ele>
        <time>2024-04-25T18:01:31Z</time>
      </trkpt>
      <trkpt lat="46.7809" lon="-1.55201">
        <ele>28.2</ele>
        <time>2024-04-25T18:01:32Z</time>
      </trkpt>
      <trkpt lat="46.78091" lon="-1.55194">
        <ele>28.2</ele>
        <time>2024-04-25T18:01:33Z</time>
      </trkpt>
      <trkpt lat="46.78092" lon="-1.55188">
        <ele>28.4</ele>
        <time>2024-04-25T18:01:34Z</time>
      </trkpt>
      <trkpt lat="46.78093" lon="-1.5518">
        <ele>28.4</ele>
        <time>2024-04-25T18:01:35Z</time>
      </trkpt>
      <trkpt lat="46.78094" lon="-1.55173">
        <ele>28.6</ele>
        <time>2024-04-25T18:01:36Z</time>
      </trkpt>
      <trkpt lat="46.78095" lon="-1.55166">
        <ele>28.6</ele>
        <time>2024-04-25T18:01:37Z</time>
      </trkpt>
      <trkpt lat="46.78096" lon="-1.55159">
        <ele>28.8</ele>
        <time>2024-04-25T18:01:38Z</time>
      </trkpt>
      <trkpt lat="46.78098" lon="-1.55152">
        <ele>28.8</ele>
        <time>2024-04-25T18:01:39Z</time>
      </trkpt>
      <trkpt lat="46.78099" lon="-1.55145">
        <ele>28.8</ele>
        <time>2024-04-25T18:01:40Z</time>
      </trkpt>
      <trkpt lat="46.78101" lon="-1.55139">
        <ele>29</ele>
        <time>2024-04-25T18:01:41Z</time>
      </trkpt>
      <trkpt lat="46.78102" lon="-1.55132">
        <ele>29</ele>
        <time>2024-04-25T18:01:42Z</time>
      </trkpt>
      <trkpt lat="46.78103" lon="-1.55125">
        <ele>29</ele>
        <time>2024-04-25T18:01:43Z</time>
      </trkpt>
      <trkpt lat="46.78104" lon="-1.55119">
        <ele>29.2</ele>
        <time>2024-04-25T18:01:44Z</time>
      </trkpt>
      <trkpt lat="46.78105" lon="-1.55112">
        <ele>29.2</ele>
        <time>2024-04-25T18:01:45Z</time>
      </trkpt>
      <trkpt lat="46.78105" lon="-1.55105">
        <ele>29.2</ele>
        <time>2024-04-25T18:01:46Z</time>
      </trkpt>
      <trkpt lat="46.78106" lon="-1.55098">
        <ele>29.2</ele>
        <time>2024-04-25T18:01:47Z</time>
      </trkpt>
      <trkpt lat="46.78107" lon="-1.55092">
        <ele>29.4</ele>
        <time>2024-04-25T18:01:48Z</time>
      </trkpt>
      <trkpt lat="46.78107" lon="-1.55085">
        <ele>29.6</ele>
        <time>2024-04-25T18:01:49Z</time>
      </trkpt>
      <trkpt lat="46.78108" lon="-1.55078">
        <ele>29.6</ele>
        <time>2024-04-25T18:01:50Z</time>
      </trkpt>
      <trkpt lat="46.78108" lon="-1.55072">
        <ele>29.8</ele>
        <time>2024-04-25T18:01:51Z</time>
      </trkpt>
      <trkpt lat="46.78109" lon="-1.55065">
        <ele>29.8</ele>
        <time>2024-04-25T18:01:52Z</time>
      </trkpt>
      <trkpt lat="46.7811" lon="-1.55058">
        <ele>29.8</ele>
        <time>2024-04-25T18:01:53Z</time>
      </trkpt>
      <trkpt lat="46.7811" lon="-1.55051">
        <ele>30</ele>
        <time>2024-04-25T18:01:54Z</time>
      </trkpt>
      <trkpt lat="46.78111" lon="-1.55044">
        <ele>30</ele>
        <time>2024-04-25T18:01:55Z</time>
      </trkpt>
      <trkpt lat="46.78112" lon="-1.55036">
        <ele>30</ele>
        <time>2024-04-25T18:01:56Z</time>
      </trkpt>
      <trkpt lat="46.78114" lon="-1.55029">
        <ele>30</ele>
        <time>2024-04-25T18:01:57Z</time>
      </trkpt>
      <trkpt lat="46.78115" lon="-1.55022">
        <ele>30.2</ele>
        <time>2024-04-25T18:01:58Z</time>
      </trkpt>
      <trkpt lat="46.78116" lon="-1.55015">
        <ele>30.2</ele>
        <time>2024-04-25T18:01:59Z</time>
      </trkpt>
      <trkpt lat="46.78118" lon="-1.55008">
        <ele>30.2</ele>
        <time>2024-04-25T18:02:00Z</time>
      </trkpt>
      <trkpt lat="46.78119" lon="-1.55001">
        <ele>30.4</ele>
        <time>2024-04-25T18:02:01Z</time>
      </trkpt>
      <trkpt lat="46.78121" lon="-1.54994">
        <ele>30.4</ele>
        <time>2024-04-25T18:02:02Z</time>
      </trkpt>
      <trkpt lat="46.78122" lon="-1.54987">
        <ele>30.6</ele>
        <time>2024-04-25T18:02:03Z</time>
      </trkpt>
      <trkpt lat="46.78123" lon="-1.5498">
        <ele>30.6</ele>
        <time>2024-04-25T18:02:04Z</time>
      </trkpt>
      <trkpt lat="46.78125" lon="-1.54974">
        <ele>30.8</ele>
        <time>2024-04-25T18:02:05Z</time>
      </trkpt>
      <trkpt lat="46.78127" lon="-1.54963">
        <ele>30.8</ele>
        <time>2024-04-25T18:02:06Z</time>
      </trkpt>
      <trkpt lat="46.78127" lon="-1.5496">
        <ele>30.8</ele>
        <time>2024-04-25T18:02:07Z</time>
      </trkpt>
      <trkpt lat="46.78129" lon="-1.54953">
        <ele>31</ele>
        <time>2024-04-25T18:02:08Z</time>
      </trkpt>
      <trkpt lat="46.7813" lon="-1.54946">
        <ele>31</ele>
        <time>2024-04-25T18:02:09Z</time>
      </trkpt>
      <trkpt lat="46.78131" lon="-1.5494">
        <ele>31.2</ele>
        <time>2024-04-25T18:02:10Z</time>
      </trkpt>
      <trkpt lat="46.78132" lon="-1.54934">
        <ele>31.2</ele>
        <time>2024-04-25T18:02:11Z</time>
      </trkpt>
      <trkpt lat="46.78133" lon="-1.54927">
        <ele>31.4</ele>
        <time>2024-04-25T18:02:12Z</time>
      </trkpt>
      <trkpt lat="46.78134" lon="-1.54918">
        <ele>31.4</ele>
        <time>2024-04-25T18:02:13Z</time>
      </trkpt>
      <trkpt lat="46.78134" lon="-1.54911">
        <ele>31.6</ele>
        <time>2024-04-25T18:02:14Z</time>
      </trkpt>
      <trkpt lat="46.78132" lon="-1.54906">
        <ele>31.6</ele>
        <time>2024-04-25T18:02:15Z</time>
      </trkpt>
      <trkpt lat="46.78128" lon="-1.54904">
        <ele>31.4</ele>
        <time>2024-04-25T18:02:16Z</time>
      </trkpt>
      <trkpt lat="46.78123" lon="-1.54902">
        <ele>31.2</ele>
        <time>2024-04-25T18:02:17Z</time>
      </trkpt>
      <trkpt lat="46.78117" lon="-1.549">
        <ele>30.6</ele>
        <time>2024-04-25T18:02:18Z</time>
      </trkpt>
      <trkpt lat="46.78111" lon="-1.54898">
        <ele>30.2</ele>
        <time>2024-04-25T18:02:19Z</time>
      </trkpt>
      <trkpt lat="46.78105" lon="-1.54895">
        <ele>29.8</ele>
        <time>2024-04-25T18:02:20Z</time>
      </trkpt>
      <trkpt lat="46.781" lon="-1.54891">
        <ele>29.4</ele>
        <time>2024-04-25T18:02:21Z</time>
      </trkpt>
      <trkpt lat="46.78093" lon="-1.54885">
        <ele>29.2</ele>
        <time>2024-04-25T18:02:22Z</time>
      </trkpt>
      <trkpt lat="46.78091" lon="-1.54883">
        <ele>29.2</ele>
        <time>2024-04-25T18:02:23Z</time>
      </trkpt>
      <trkpt lat="46.78086" lon="-1.5488">
        <ele>29.2</ele>
        <time>2024-04-25T18:02:24Z</time>
      </trkpt>
      <trkpt lat="46.78081" lon="-1.5488">
        <ele>29.2</ele>
        <time>2024-04-25T18:02:25Z</time>
      </trkpt>
      <trkpt lat="46.78076" lon="-1.54882">
        <ele>29.2</ele>
        <time>2024-04-25T18:02:26Z</time>
      </trkpt>
      <trkpt lat="46.78071" lon="-1.54886">
        <ele>29</ele>
        <time>2024-04-25T18:02:27Z</time>
      </trkpt>
      <trkpt lat="46.78065" lon="-1.54891">
        <ele>28.8</ele>
        <time>2024-04-25T18:02:28Z</time>
      </trkpt>
      <trkpt lat="46.7806" lon="-1.54896">
        <ele>28.8</ele>
        <time>2024-04-25T18:02:29Z</time>
      </trkpt>
      <trkpt lat="46.78056" lon="-1.54901">
        <ele>28.8</ele>
        <time>2024-04-25T18:02:30Z</time>
      </trkpt>
      <trkpt lat="46.78048" lon="-1.54904">
        <ele>28.8</ele>
        <time>2024-04-25T18:02:31Z</time>
      </trkpt>
      <trkpt lat="46.78046" lon="-1.54904">
        <ele>29</ele>
        <time>2024-04-25T18:02:32Z</time>
      </trkpt>
      <trkpt lat="46.78042" lon="-1.54904">
        <ele>29</ele>
        <time>2024-04-25T18:02:33Z</time>
      </trkpt>
      <trkpt lat="46.78038" lon="-1.54901">
        <ele>29.2</ele>
        <time>2024-04-25T18:02:35Z</time>
      </trkpt>
      <trkpt lat="46.78035" lon="-1.54895">
        <ele>29.6</ele>
        <time>2024-04-25T18:02:36Z</time>
      </trkpt>
      <trkpt lat="46.78033" lon="-1.54889">
        <ele>29.8</ele>
        <time>2024-04-25T18:02:37Z</time>
      </trkpt>
      <trkpt lat="46.7803" lon="-1.54884">
        <ele>30.4</ele>
        <time>2024-04-25T18:02:38Z</time>
      </trkpt>
      <trkpt lat="46.78027" lon="-1.54879">
        <ele>30.8</ele>
        <time>2024-04-25T18:02:39Z</time>
      </trkpt>
      <trkpt lat="46.78024" lon="-1.54875">
        <ele>31.4</ele>
        <time>2024-04-25T18:02:40Z</time>
      </trkpt>
      <trkpt lat="46.78021" lon="-1.54871">
        <ele>32</ele>
        <time>2024-04-25T18:02:41Z</time>
      </trkpt>
      <trkpt lat="46.78019" lon="-1.54868">
        <ele>32.4</ele>
        <time>2024-04-25T18:02:42Z</time>
      </trkpt>
      <trkpt lat="46.78016" lon="-1.54865">
        <ele>32.8</ele>
        <time>2024-04-25T18:02:43Z</time>
      </trkpt>
      <trkpt lat="46.78014" lon="-1.54861">
        <ele>33.4</ele>
        <time>2024-04-25T18:02:44Z</time>
      </trkpt>
      <trkpt lat="46.78013" lon="-1.54856">
        <ele>33.8</ele>
        <time>2024-04-25T18:02:45Z</time>
      </trkpt>
      <trkpt lat="46.78011" lon="-1.54851">
        <ele>34.2</ele>
        <time>2024-04-25T18:02:46Z</time>
      </trkpt>
      <trkpt lat="46.7801" lon="-1.54846">
        <ele>34.8</ele>
        <time>2024-04-25T18:02:47Z</time>
      </trkpt>
      <trkpt lat="46.78009" lon="-1.54841">
        <ele>35.2</ele>
        <time>2024-04-25T18:02:48Z</time>
      </trkpt>
      <trkpt lat="46.78007" lon="-1.54836">
        <ele>35.8</ele>
        <time>2024-04-25T18:02:49Z</time>
      </trkpt>
      <trkpt lat="46.78006" lon="-1.54831">
        <ele>36.2</ele>
        <time>2024-04-25T18:02:50Z</time>
      </trkpt>
      <trkpt lat="46.78005" lon="-1.54826">
        <ele>36.4</ele>
        <time>2024-04-25T18:02:51Z</time>
      </trkpt>
      <trkpt lat="46.78004" lon="-1.5482">
        <ele>36.8</ele>
        <time>2024-04-25T18:02:52Z</time>
      </trkpt>
      <trkpt lat="46.78003" lon="-1.54815">
        <ele>37.2</ele>
        <time>2024-04-25T18:02:53Z</time>
      </trkpt>
      <trkpt lat="46.78001" lon="-1.5481">
        <ele>37.6</ele>
        <time>2024-04-25T18:02:54Z</time>
      </trkpt>
      <trkpt lat="46.77999" lon="-1.54806">
        <ele>38</ele>
        <time>2024-04-25T18:02:55Z</time>
      </trkpt>
      <trkpt lat="46.77998" lon="-1.54801">
        <ele>38.2</ele>
        <time>2024-04-25T18:02:56Z</time>
      </trkpt>
      <trkpt lat="46.77996" lon="-1.54795">
        <ele>38.6</ele>
        <time>2024-04-25T18:02:57Z</time>
      </trkpt>
      <trkpt lat="46.77995" lon="-1.5479">
        <ele>39</ele>
        <time>2024-04-25T18:02:58Z</time>
      </trkpt>
      <trkpt lat="46.77994" lon="-1.54785">
        <ele>39.4</ele>
        <time>2024-04-25T18:02:59Z</time>
      </trkpt>
      <trkpt lat="46.77993" lon="-1.5478">
        <ele>39.8</ele>
        <time>2024-04-25T18:03:00Z</time>
      </trkpt>
      <trkpt lat="46.77992" lon="-1.54775">
        <ele>40</ele>
        <time>2024-04-25T18:03:01Z</time>
      </trkpt>
      <trkpt lat="46.77991" lon="-1.5477">
        <ele>40.4</ele>
        <time>2024-04-25T18:03:02Z</time>
      </trkpt>
      <trkpt lat="46.7799" lon="-1.54765">
        <ele>41</ele>
        <time>2024-04-25T18:03:03Z</time>
      </trkpt>
      <trkpt lat="46.77989" lon="-1.54761">
        <ele>41.2</ele>
        <time>2024-04-25T18:03:04Z</time>
      </trkpt>
      <trkpt lat="46.77988" lon="-1.54756">
        <ele>41.6</ele>
        <time>2024-04-25T18:03:05Z</time>
      </trkpt>
      <trkpt lat="46.77988" lon="-1.54752">
        <ele>42</ele>
        <time>2024-04-25T18:03:06Z</time>
      </trkpt>
      <trkpt lat="46.77988" lon="-1.54747">
        <ele>42.4</ele>
        <time>2024-04-25T18:03:07Z</time>
      </trkpt>
      <trkpt lat="46.77989" lon="-1.54743">
        <ele>42.6</ele>
        <time>2024-04-25T18:03:08Z</time>
      </trkpt>
      <trkpt lat="46.7799" lon="-1.54739">
        <ele>43</ele>
        <time>2024-04-25T18:03:09Z</time>
      </trkpt>
      <trkpt lat="46.77991" lon="-1.54735">
        <ele>43.2</ele>
        <time>2024-04-25T18:03:10Z</time>
      </trkpt>
      <trkpt lat="46.77993" lon="-1.54731">
        <ele>43.6</ele>
        <time>2024-04-25T18:03:11Z</time>
      </trkpt>
      <trkpt lat="46.77995" lon="-1.54728">
        <ele>43.8</ele>
        <time>2024-04-25T18:03:12Z</time>
      </trkpt>
      <trkpt lat="46.77996" lon="-1.54724">
        <ele>44.2</ele>
        <time>2024-04-25T18:03:13Z</time>
      </trkpt>
      <trkpt lat="46.77998" lon="-1.54721">
        <ele>44.4</ele>
        <time>2024-04-25T18:03:14Z</time>
      </trkpt>
      <trkpt lat="46.78" lon="-1.54718">
        <ele>44.6</ele>
        <time>2024-04-25T18:03:15Z</time>
      </trkpt>
      <trkpt lat="46.78002" lon="-1.54715">
        <ele>45</ele>
        <time>2024-04-25T18:03:16Z</time>
      </trkpt>
      <trkpt lat="46.78004" lon="-1.54712">
        <ele>45.2</ele>
        <time>2024-04-25T18:03:17Z</time>
      </trkpt>
      <trkpt lat="46.78005" lon="-1.54709">
        <ele>45.6</ele>
        <time>2024-04-25T18:03:18Z</time>
      </trkpt>
      <trkpt lat="46.78007" lon="-1.54706">
        <ele>46</ele>
        <time>2024-04-25T18:03:19Z</time>
      </trkpt>
      <trkpt lat="46.78009" lon="-1.54703">
        <ele>46.2</ele>
        <time>2024-04-25T18:03:20Z</time>
      </trkpt>
      <trkpt lat="46.7801" lon="-1.547">
        <ele>46.6</ele>
        <time>2024-04-25T18:03:21Z</time>
      </trkpt>
      <trkpt lat="46.78012" lon="-1.54697">
        <ele>46.8</ele>
        <time>2024-04-25T18:03:22Z</time>
      </trkpt>
      <trkpt lat="46.78014" lon="-1.54695">
        <ele>47.2</ele>
        <time>2024-04-25T18:03:23Z</time>
      </trkpt>
      <trkpt lat="46.78015" lon="-1.54692">
        <ele>47.6</ele>
        <time>2024-04-25T18:03:24Z</time>
      </trkpt>
      <trkpt lat="46.78017" lon="-1.54689">
        <ele>48</ele>
        <time>2024-04-25T18:03:25Z</time>
      </trkpt>
      <trkpt lat="46.78018" lon="-1.54686">
        <ele>48.2</ele>
        <time>2024-04-25T18:03:26Z</time>
      </trkpt>
      <trkpt lat="46.7802" lon="-1.54683">
        <ele>48.4</ele>
        <time>2024-04-25T18:03:27Z</time>
      </trkpt>
      <trkpt lat="46.78021" lon="-1.54681">
        <ele>48.6</ele>
        <time>2024-04-25T18:03:28Z</time>
      </trkpt>
      <trkpt lat="46.78023" lon="-1.54678">
        <ele>48.8</ele>
        <time>2024-04-25T18:03:29Z</time>
      </trkpt>
      <trkpt lat="46.78025" lon="-1.54675">
        <ele>49</ele>
        <time>2024-04-25T18:03:30Z</time>
      </trkpt>
      <trkpt lat="46.78026" lon="-1.54672">
        <ele>49.2</ele>
        <time>2024-04-25T18:03:31Z</time>
      </trkpt>
      <trkpt lat="46.78026" lon="-1.54668">
        <ele>49.2</ele>
        <time>2024-04-25T18:03:32Z</time>
      </trkpt>
      <trkpt lat="46.78027" lon="-1.54665">
        <ele>49.2</ele>
        <time>2024-04-25T18:03:33Z</time>
      </trkpt>
      <trkpt lat="46.78026" lon="-1.54661">
        <ele>49.2</ele>
        <time>2024-04-25T18:03:34Z</time>
      </trkpt>
      <trkpt lat="46.78026" lon="-1.54657">
        <ele>49.2</ele>
        <time>2024-04-25T18:03:35Z</time>
      </trkpt>
      <trkpt lat="46.78025" lon="-1.54652">
        <ele>49.2</ele>
        <time>2024-04-25T18:03:36Z</time>
      </trkpt>
      <trkpt lat="46.78024" lon="-1.54647">
        <ele>49.2</ele>
        <time>2024-04-25T18:03:37Z</time>
      </trkpt>
      <trkpt lat="46.78023" lon="-1.5464">
        <ele>49</ele>
        <time>2024-04-25T18:03:38Z</time>
      </trkpt>
      <trkpt lat="46.78022" lon="-1.54633">
        <ele>48.8</ele>
        <time>2024-04-25T18:03:39Z</time>
      </trkpt>
      <trkpt lat="46.78021" lon="-1.54626">
        <ele>48.8</ele>
        <time>2024-04-25T18:03:40Z</time>
      </trkpt>
      <trkpt lat="46.7802" lon="-1.5462">
        <ele>48.6</ele>
        <time>2024-04-25T18:03:41Z</time>
      </trkpt>
      <trkpt lat="46.78019" lon="-1.54614">
        <ele>48.4</ele>
        <time>2024-04-25T18:03:42Z</time>
      </trkpt>
      <trkpt lat="46.78018" lon="-1.54608">
        <ele>48.4</ele>
        <time>2024-04-25T18:03:43Z</time>
      </trkpt>
      <trkpt lat="46.78018" lon="-1.54601">
        <ele>48.2</ele>
        <time>2024-04-25T18:03:44Z</time>
      </trkpt>
      <trkpt lat="46.78019" lon="-1.54593">
        <ele>48</ele>
        <time>2024-04-25T18:03:45Z</time>
      </trkpt>
      <trkpt lat="46.7802" lon="-1.5459">
        <ele>48</ele>
        <time>2024-04-25T18:03:46Z</time>
      </trkpt>
      <trkpt lat="46.78022" lon="-1.54587">
        <ele>48</ele>
        <time>2024-04-25T18:03:47Z</time>
      </trkpt>
      <trkpt lat="46.78024" lon="-1.54584">
        <ele>48.2</ele>
        <time>2024-04-25T18:03:48Z</time>
      </trkpt>
      <trkpt lat="46.78027" lon="-1.54583">
        <ele>48.2</ele>
        <time>2024-04-25T18:03:49Z</time>
      </trkpt>
      <trkpt lat="46.7803" lon="-1.54582">
        <ele>48.4</ele>
        <time>2024-04-25T18:03:50Z</time>
      </trkpt>
      <trkpt lat="46.78033" lon="-1.54582">
        <ele>48.6</ele>
        <time>2024-04-25T18:03:51Z</time>
      </trkpt>
      <trkpt lat="46.78035" lon="-1.54581">
        <ele>48.6</ele>
        <time>2024-04-25T18:03:52Z</time>
      </trkpt>
      <trkpt lat="46.78037" lon="-1.5458">
        <ele>48.8</ele>
        <time>2024-04-25T18:03:53Z</time>
      </trkpt>
      <trkpt lat="46.78039" lon="-1.5458">
        <ele>49</ele>
        <time>2024-04-25T18:03:54Z</time>
      </trkpt>
      <trkpt lat="46.78041" lon="-1.54579">
        <ele>49.4</ele>
        <time>2024-04-25T18:03:55Z</time>
      </trkpt>
      <trkpt lat="46.78043" lon="-1.54578">
        <ele>49.6</ele>
        <time>2024-04-25T18:03:56Z</time>
      </trkpt>
      <trkpt lat="46.78045" lon="-1.54576">
        <ele>49.8</ele>
        <time>2024-04-25T18:03:57Z</time>
      </trkpt>
      <trkpt lat="46.78047" lon="-1.54575">
        <ele>50</ele>
        <time>2024-04-25T18:03:58Z</time>
      </trkpt>
      <trkpt lat="46.7805" lon="-1.54573">
        <ele>50.2</ele>
        <time>2024-04-25T18:04:00Z</time>
      </trkpt>
      <trkpt lat="46.78053" lon="-1.54571">
        <ele>50.4</ele>
        <time>2024-04-25T18:04:01Z</time>
      </trkpt>
      <trkpt lat="46.78055" lon="-1.54569">
        <ele>50.8</ele>
        <time>2024-04-25T18:04:02Z</time>
      </trkpt>
      <trkpt lat="46.78059" lon="-1.54565">
        <ele>51</ele>
        <time>2024-04-25T18:04:03Z</time>
      </trkpt>
      <trkpt lat="46.7806" lon="-1.54564">
        <ele>51.2</ele>
        <time>2024-04-25T18:04:04Z</time>
      </trkpt>
      <trkpt lat="46.78063" lon="-1.54559">
        <ele>51.4</ele>
        <time>2024-04-25T18:04:05Z</time>
      </trkpt>
      <trkpt lat="46.78064" lon="-1.54557">
        <ele>51.6</ele>
        <time>2024-04-25T18:04:06Z</time>
      </trkpt>
      <trkpt lat="46.78065" lon="-1.54553">
        <ele>51.8</ele>
        <time>2024-04-25T18:04:07Z</time>
      </trkpt>
      <trkpt lat="46.78065" lon="-1.54549">
        <ele>52</ele>
        <time>2024-04-25T18:04:08Z</time>
      </trkpt>
      <trkpt lat="46.78065" lon="-1.54545">
        <ele>52.2</ele>
        <time>2024-04-25T18:04:09Z</time>
      </trkpt>
      <trkpt lat="46.78065" lon="-1.54541">
        <ele>52.2</ele>
        <time>2024-04-25T18:04:10Z</time>
      </trkpt>
      <trkpt lat="46.78065" lon="-1.54537">
        <ele>52.2</ele>
        <time>2024-04-25T18:04:11Z</time>
      </trkpt>
      <trkpt lat="46.78064" lon="-1.54533">
        <ele>52.4</ele>
        <time>2024-04-25T18:04:12Z</time>
      </trkpt>
      <trkpt lat="46.78064" lon="-1.54528">
        <ele>52.2</ele>
        <time>2024-04-25T18:04:13Z</time>
      </trkpt>
      <trkpt lat="46.78064" lon="-1.54524">
        <ele>52.2</ele>
        <time>2024-04-25T18:04:14Z</time>
      </trkpt>
      <trkpt lat="46.78063" lon="-1.54519">
        <ele>52.2</ele>
        <time>2024-04-25T18:04:15Z</time>
      </trkpt>
      <trkpt lat="46.78063" lon="-1.54514">
        <ele>52.2</ele>
        <time>2024-04-25T18:04:16Z</time>
      </trkpt>
      <trkpt lat="46.78063" lon="-1.54509">
        <ele>52.2</ele>
        <time>2024-04-25T18:04:17Z</time>
      </trkpt>
      <trkpt lat="46.78062" lon="-1.54504">
        <ele>52</ele>
        <time>2024-04-25T18:04:18Z</time>
      </trkpt>
      <trkpt lat="46.78062" lon="-1.54499">
        <ele>52</ele>
        <time>2024-04-25T18:04:19Z</time>
      </trkpt>
      <trkpt lat="46.78062" lon="-1.54491">
        <ele>51.8</ele>
        <time>2024-04-25T18:04:20Z</time>
      </trkpt>
      <trkpt lat="46.78062" lon="-1.54488">
        <ele>51.8</ele>
        <time>2024-04-25T18:04:21Z</time>
      </trkpt>
      <trkpt lat="46.78062" lon="-1.54483">
        <ele>51.6</ele>
        <time>2024-04-25T18:04:22Z</time>
      </trkpt>
      <trkpt lat="46.78062" lon="-1.54477">
        <ele>51.6</ele>
        <time>2024-04-25T18:04:23Z</time>
      </trkpt>
      <trkpt lat="46.78062" lon="-1.54471">
        <ele>51.4</ele>
        <time>2024-04-25T18:04:24Z</time>
      </trkpt>
      <trkpt lat="46.78061" lon="-1.54465">
        <ele>51.2</ele>
        <time>2024-04-25T18:04:25Z</time>
      </trkpt>
      <trkpt lat="46.78061" lon="-1.54459">
        <ele>51.2</ele>
        <time>2024-04-25T18:04:26Z</time>
      </trkpt>
      <trkpt lat="46.78061" lon="-1.54453">
        <ele>51</ele>
        <time>2024-04-25T18:04:27Z</time>
      </trkpt>
      <trkpt lat="46.78061" lon="-1.54448">
        <ele>51</ele>
        <time>2024-04-25T18:04:28Z</time>
      </trkpt>
      <trkpt lat="46.7806" lon="-1.54442">
        <ele>51</ele>
        <time>2024-04-25T18:04:29Z</time>
      </trkpt>
      <trkpt lat="46.7806" lon="-1.54437">
        <ele>50.8</ele>
        <time>2024-04-25T18:04:30Z</time>
      </trkpt>
      <trkpt lat="46.78059" lon="-1.54432">
        <ele>50.8</ele>
        <time>2024-04-25T18:04:31Z</time>
      </trkpt>
      <trkpt lat="46.78059" lon="-1.54427">
        <ele>50.8</ele>
        <time>2024-04-25T18:04:32Z</time>
      </trkpt>
      <trkpt lat="46.78058" lon="-1.54422">
        <ele>50.6</ele>
        <time>2024-04-25T18:04:33Z</time>
      </trkpt>
      <trkpt lat="46.78057" lon="-1.54416">
        <ele>50.6</ele>
        <time>2024-04-25T18:04:34Z</time>
      </trkpt>
      <trkpt lat="46.78056" lon="-1.54411">
        <ele>50.6</ele>
        <time>2024-04-25T18:04:35Z</time>
      </trkpt>
      <trkpt lat="46.78055" lon="-1.54406">
        <ele>50.6</ele>
        <time>2024-04-25T18:04:36Z</time>
      </trkpt>
      <trkpt lat="46.78054" lon="-1.544">
        <ele>50.6</ele>
        <time>2024-04-25T18:04:37Z</time>
      </trkpt>
      <trkpt lat="46.78052" lon="-1.54393">
        <ele>50.6</ele>
        <time>2024-04-25T18:04:38Z</time>
      </trkpt>
      <trkpt lat="46.78052" lon="-1.5439">
        <ele>50.8</ele>
        <time>2024-04-25T18:04:39Z</time>
      </trkpt>
      <trkpt lat="46.78051" lon="-1.54385">
        <ele>50.8</ele>
        <time>2024-04-25T18:04:40Z</time>
      </trkpt>
      <trkpt lat="46.7805" lon="-1.54379">
        <ele>51</ele>
        <time>2024-04-25T18:04:41Z</time>
      </trkpt>
      <trkpt lat="46.78049" lon="-1.54374">
        <ele>51.2</ele>
        <time>2024-04-25T18:04:42Z</time>
      </trkpt>
      <trkpt lat="46.78048" lon="-1.54369">
        <ele>51.2</ele>
        <time>2024-04-25T18:04:43Z</time>
      </trkpt>
      <trkpt lat="46.78047" lon="-1.54363">
        <ele>51.4</ele>
        <time>2024-04-25T18:04:44Z</time>
      </trkpt>
      <trkpt lat="46.78045" lon="-1.54358">
        <ele>51.6</ele>
        <time>2024-04-25T18:04:45Z</time>
      </trkpt>
      <trkpt lat="46.78044" lon="-1.54353">
        <ele>51.6</ele>
        <time>2024-04-25T18:04:46Z</time>
      </trkpt>
      <trkpt lat="46.78042" lon="-1.54348">
        <ele>51.8</ele>
        <time>2024-04-25T18:04:47Z</time>
      </trkpt>
      <trkpt lat="46.78041" lon="-1.54343">
        <ele>52</ele>
        <time>2024-04-25T18:04:48Z</time>
      </trkpt>
      <trkpt lat="46.78039" lon="-1.54338">
        <ele>52</ele>
        <time>2024-04-25T18:04:49Z</time>
      </trkpt>
      <trkpt lat="46.78038" lon="-1.54333">
        <ele>52</ele>
        <time>2024-04-25T18:04:50Z</time>
      </trkpt>
      <trkpt lat="46.78036" lon="-1.54328">
        <ele>52.2</ele>
        <time>2024-04-25T18:04:51Z</time>
      </trkpt>
      <trkpt lat="46.78035" lon="-1.54322">
        <ele>52.2</ele>
        <time>2024-04-25T18:04:52Z</time>
      </trkpt>
      <trkpt lat="46.78035" lon="-1.54317">
        <ele>52.2</ele>
        <time>2024-04-25T18:04:53Z</time>
      </trkpt>
      <trkpt lat="46.78036" lon="-1.54312">
        <ele>52.4</ele>
        <time>2024-04-25T18:04:54Z</time>
      </trkpt>
      <trkpt lat="46.78037" lon="-1.54307">
        <ele>52.4</ele>
        <time>2024-04-25T18:04:55Z</time>
      </trkpt>
      <trkpt lat="46.78038" lon="-1.54302">
        <ele>52.4</ele>
        <time>2024-04-25T18:04:56Z</time>
      </trkpt>
      <trkpt lat="46.78039" lon="-1.54297">
        <ele>52.4</ele>
        <time>2024-04-25T18:04:57Z</time>
      </trkpt>
      <trkpt lat="46.7804" lon="-1.54291">
        <ele>52.2</ele>
        <time>2024-04-25T18:04:58Z</time>
      </trkpt>
      <trkpt lat="46.78041" lon="-1.54286">
        <ele>52.2</ele>
        <time>2024-04-25T18:04:59Z</time>
      </trkpt>
      <trkpt lat="46.78041" lon="-1.5428">
        <ele>52</ele>
        <time>2024-04-25T18:05:00Z</time>
      </trkpt>
      <trkpt lat="46.78042" lon="-1.54274">
        <ele>52</ele>
        <time>2024-04-25T18:05:01Z</time>
      </trkpt>
      <trkpt lat="46.78043" lon="-1.54266">
        <ele>51.8</ele>
        <time>2024-04-25T18:05:02Z</time>
      </trkpt>
      <trkpt lat="46.78043" lon="-1.54258">
        <ele>51.6</ele>
        <time>2024-04-25T18:05:03Z</time>
      </trkpt>
      <trkpt lat="46.78043" lon="-1.54252">
        <ele>51.6</ele>
        <time>2024-04-25T18:05:04Z</time>
      </trkpt>
      <trkpt lat="46.78043" lon="-1.54246">
        <ele>51.4</ele>
        <time>2024-04-25T18:05:05Z</time>
      </trkpt>
      <trkpt lat="46.78043" lon="-1.54242">
        <ele>51.2</ele>
        <time>2024-04-25T18:05:06Z</time>
      </trkpt>
      <trkpt lat="46.78043" lon="-1.54237">
        <ele>51</ele>
        <time>2024-04-25T18:05:07Z</time>
      </trkpt>
      <trkpt lat="46.78044" lon="-1.54234">
        <ele>50.8</ele>
        <time>2024-04-25T18:05:08Z</time>
      </trkpt>
      <trkpt lat="46.78045" lon="-1.5423">
        <ele>50.8</ele>
        <time>2024-04-25T18:05:09Z</time>
      </trkpt>
      <trkpt lat="46.78046" lon="-1.54228">
        <ele>50.8</ele>
        <time>2024-04-25T18:05:10Z</time>
      </trkpt>
      <trkpt lat="46.78047" lon="-1.54226">
        <ele>50.8</ele>
        <time>2024-04-25T18:05:11Z</time>
      </trkpt>
      <trkpt lat="46.78049" lon="-1.54223">
        <ele>50.8</ele>
        <time>2024-04-25T18:05:12Z</time>
      </trkpt>
      <trkpt lat="46.7805" lon="-1.54222">
        <ele>51</ele>
        <time>2024-04-25T18:05:13Z</time>
      </trkpt>
      <trkpt lat="46.78052" lon="-1.54219">
        <ele>51</ele>
        <time>2024-04-25T18:05:14Z</time>
      </trkpt>
      <trkpt lat="46.78053" lon="-1.54217">
        <ele>51.2</ele>
        <time>2024-04-25T18:05:15Z</time>
      </trkpt>
      <trkpt lat="46.78055" lon="-1.54215">
        <ele>51.2</ele>
        <time>2024-04-25T18:05:16Z</time>
      </trkpt>
      <trkpt lat="46.78056" lon="-1.54213">
        <ele>51.4</ele>
        <time>2024-04-25T18:05:17Z</time>
      </trkpt>
      <trkpt lat="46.78058" lon="-1.54211">
        <ele>51.4</ele>
        <time>2024-04-25T18:05:18Z</time>
      </trkpt>
      <trkpt lat="46.7806" lon="-1.5421">
        <ele>51.6</ele>
        <time>2024-04-25T18:05:19Z</time>
      </trkpt>
      <trkpt lat="46.78063" lon="-1.54208">
        <ele>51.8</ele>
        <time>2024-04-25T18:05:20Z</time>
      </trkpt>
      <trkpt lat="46.78066" lon="-1.54207">
        <ele>52</ele>
        <time>2024-04-25T18:05:21Z</time>
      </trkpt>
      <trkpt lat="46.78068" lon="-1.54207">
        <ele>52.2</ele>
        <time>2024-04-25T18:05:22Z</time>
      </trkpt>
      <trkpt lat="46.7807" lon="-1.54207">
        <ele>52.4</ele>
        <time>2024-04-25T18:05:24Z</time>
      </trkpt>
      <trkpt lat="46.78073" lon="-1.54206">
        <ele>52.8</ele>
        <time>2024-04-25T18:05:25Z</time>
      </trkpt>
      <trkpt lat="46.78076" lon="-1.54206">
        <ele>53</ele>
        <time>2024-04-25T18:05:26Z</time>
      </trkpt>
      <trkpt lat="46.78078" lon="-1.54205">
        <ele>53</ele>
        <time>2024-04-25T18:05:27Z</time>
      </trkpt>
      <trkpt lat="46.78081" lon="-1.54205">
        <ele>53.2</ele>
        <time>2024-04-25T18:05:28Z</time>
      </trkpt>
      <trkpt lat="46.78084" lon="-1.54205">
        <ele>53.4</ele>
        <time>2024-04-25T18:05:29Z</time>
      </trkpt>
      <trkpt lat="46.78087" lon="-1.54204">
        <ele>53.6</ele>
        <time>2024-04-25T18:05:30Z</time>
      </trkpt>
      <trkpt lat="46.78091" lon="-1.54204">
        <ele>53.6</ele>
        <time>2024-04-25T18:05:31Z</time>
      </trkpt>
      <trkpt lat="46.78094" lon="-1.54204">
        <ele>53.8</ele>
        <time>2024-04-25T18:05:32Z</time>
      </trkpt>
      <trkpt lat="46.78097" lon="-1.54204">
        <ele>54</ele>
        <time>2024-04-25T18:05:33Z</time>
      </trkpt>
      <trkpt lat="46.78101" lon="-1.54204">
        <ele>54</ele>
        <time>2024-04-25T18:05:34Z</time>
      </trkpt>
      <trkpt lat="46.78105" lon="-1.54204">
        <ele>54.2</ele>
        <time>2024-04-25T18:05:35Z</time>
      </trkpt>
      <trkpt lat="46.78108" lon="-1.54204">
        <ele>54.2</ele>
        <time>2024-04-25T18:05:36Z</time>
      </trkpt>
      <trkpt lat="46.78114" lon="-1.54205">
        <ele>54.4</ele>
        <time>2024-04-25T18:05:37Z</time>
      </trkpt>
      <trkpt lat="46.78116" lon="-1.54205">
        <ele>54.4</ele>
        <time>2024-04-25T18:05:38Z</time>
      </trkpt>
      <trkpt lat="46.7812" lon="-1.54206">
        <ele>54.4</ele>
        <time>2024-04-25T18:05:39Z</time>
      </trkpt>
      <trkpt lat="46.78124" lon="-1.54207">
        <ele>54.6</ele>
        <time>2024-04-25T18:05:40Z</time>
      </trkpt>
      <trkpt lat="46.78128" lon="-1.54208">
        <ele>54.6</ele>
        <time>2024-04-25T18:05:41Z</time>
      </trkpt>
      <trkpt lat="46.78131" lon="-1.54209">
        <ele>54.6</ele>
        <time>2024-04-25T18:05:42Z</time>
      </trkpt>
      <trkpt lat="46.78135" lon="-1.5421">
        <ele>54.8</ele>
        <time>2024-04-25T18:05:43Z</time>
      </trkpt>
      <trkpt lat="46.78139" lon="-1.54211">
        <ele>55</ele>
        <time>2024-04-25T18:05:44Z</time>
      </trkpt>
      <trkpt lat="46.78142" lon="-1.54213">
        <ele>55</ele>
        <time>2024-04-25T18:05:45Z</time>
      </trkpt>
      <trkpt lat="46.78146" lon="-1.54214">
        <ele>55</ele>
        <time>2024-04-25T18:05:46Z</time>
      </trkpt>
      <trkpt lat="46.7815" lon="-1.54214">
        <ele>55</ele>
        <time>2024-04-25T18:05:47Z</time>
      </trkpt>
      <trkpt lat="46.78154" lon="-1.54214">
        <ele>55.2</ele>
        <time>2024-04-25T18:05:48Z</time>
      </trkpt>
      <trkpt lat="46.78158" lon="-1.54214">
        <ele>55.2</ele>
        <time>2024-04-25T18:05:49Z</time>
      </trkpt>
      <trkpt lat="46.78162" lon="-1.54214">
        <ele>55.2</ele>
        <time>2024-04-25T18:05:50Z</time>
      </trkpt>
      <trkpt lat="46.78166" lon="-1.54213">
        <ele>55.4</ele>
        <time>2024-04-25T18:05:51Z</time>
      </trkpt>
      <trkpt lat="46.7817" lon="-1.54213">
        <ele>55.4</ele>
        <time>2024-04-25T18:05:52Z</time>
      </trkpt>
      <trkpt lat="46.78174" lon="-1.54212">
        <ele>55.4</ele>
        <time>2024-04-25T18:05:53Z</time>
      </trkpt>
      <trkpt lat="46.78178" lon="-1.54212">
        <ele>55.4</ele>
        <time>2024-04-25T18:05:54Z</time>
      </trkpt>
      <trkpt lat="46.78182" lon="-1.54211">
        <ele>55.4</ele>
        <time>2024-04-25T18:05:55Z</time>
      </trkpt>
      <trkpt lat="46.78187" lon="-1.5421">
        <ele>55.6</ele>
        <time>2024-04-25T18:05:56Z</time>
      </trkpt>
      <trkpt lat="46.78191" lon="-1.5421">
        <ele>55.6</ele>
        <time>2024-04-25T18:05:57Z</time>
      </trkpt>
      <trkpt lat="46.78195" lon="-1.54209">
        <ele>55.8</ele>
        <time>2024-04-25T18:05:58Z</time>
      </trkpt>
      <trkpt lat="46.78199" lon="-1.54208">
        <ele>55.8</ele>
        <time>2024-04-25T18:05:59Z</time>
      </trkpt>
      <trkpt lat="46.78204" lon="-1.54208">
        <ele>56</ele>
        <time>2024-04-25T18:06:00Z</time>
      </trkpt>
      <trkpt lat="46.78208" lon="-1.54208">
        <ele>56</ele>
        <time>2024-04-25T18:06:01Z</time>
      </trkpt>
      <trkpt lat="46.78212" lon="-1.54207">
        <ele>56.2</ele>
        <time>2024-04-25T18:06:02Z</time>
      </trkpt>
      <trkpt lat="46.78216" lon="-1.54207">
        <ele>56.2</ele>
        <time>2024-04-25T18:06:03Z</time>
      </trkpt>
      <trkpt lat="46.7822" lon="-1.54207">
        <ele>56.4</ele>
        <time>2024-04-25T18:06:04Z</time>
      </trkpt>
      <trkpt lat="46.78225" lon="-1.54206">
        <ele>56.4</ele>
        <time>2024-04-25T18:06:05Z</time>
      </trkpt>
      <trkpt lat="46.78229" lon="-1.54206">
        <ele>56.6</ele>
        <time>2024-04-25T18:06:06Z</time>
      </trkpt>
      <trkpt lat="46.78233" lon="-1.54206">
        <ele>56.6</ele>
        <time>2024-04-25T18:06:07Z</time>
      </trkpt>
      <trkpt lat="46.78238" lon="-1.54205">
        <ele>56.6</ele>
        <time>2024-04-25T18:06:08Z</time>
      </trkpt>
      <trkpt lat="46.78242" lon="-1.54205">
        <ele>56.8</ele>
        <time>2024-04-25T18:06:09Z</time>
      </trkpt>
      <trkpt lat="46.78246" lon="-1.54205">
        <ele>56.8</ele>
        <time>2024-04-25T18:06:10Z</time>
      </trkpt>
      <trkpt lat="46.78251" lon="-1.54204">
        <ele>57</ele>
        <time>2024-04-25T18:06:11Z</time>
      </trkpt>
      <trkpt lat="46.78255" lon="-1.54204">
        <ele>57</ele>
        <time>2024-04-25T18:06:12Z</time>
      </trkpt>
      <trkpt lat="46.7826" lon="-1.54204">
        <ele>57</ele>
        <time>2024-04-25T18:06:13Z</time>
      </trkpt>
      <trkpt lat="46.78264" lon="-1.54203">
        <ele>57</ele>
        <time>2024-04-25T18:06:14Z</time>
      </trkpt>
      <trkpt lat="46.78268" lon="-1.54203">
        <ele>57</ele>
        <time>2024-04-25T18:06:15Z</time>
      </trkpt>
      <trkpt lat="46.78273" lon="-1.54203">
        <ele>57</ele>
        <time>2024-04-25T18:06:16Z</time>
      </trkpt>
      <trkpt lat="46.78277" lon="-1.54203">
        <ele>57</ele>
        <time>2024-04-25T18:06:17Z</time>
      </trkpt>
      <trkpt lat="46.78281" lon="-1.54202">
        <ele>57.2</ele>
        <time>2024-04-25T18:06:18Z</time>
      </trkpt>
      <trkpt lat="46.78285" lon="-1.54202">
        <ele>57.2</ele>
        <time>2024-04-25T18:06:19Z</time>
      </trkpt>
      <trkpt lat="46.7829" lon="-1.54202">
        <ele>57.4</ele>
        <time>2024-04-25T18:06:20Z</time>
      </trkpt>
      <trkpt lat="46.78294" lon="-1.54202">
        <ele>57.6</ele>
        <time>2024-04-25T18:06:21Z</time>
      </trkpt>
      <trkpt lat="46.78298" lon="-1.54201">
        <ele>57.6</ele>
        <time>2024-04-25T18:06:22Z</time>
      </trkpt>
      <trkpt lat="46.78303" lon="-1.54201">
        <ele>57.8</ele>
        <time>2024-04-25T18:06:23Z</time>
      </trkpt>
      <trkpt lat="46.78307" lon="-1.54201">
        <ele>57.8</ele>
        <time>2024-04-25T18:06:24Z</time>
      </trkpt>
      <trkpt lat="46.78311" lon="-1.54201">
        <ele>57.8</ele>
        <time>2024-04-25T18:06:25Z</time>
      </trkpt>
      <trkpt lat="46.78315" lon="-1.54201">
        <ele>58</ele>
        <time>2024-04-25T18:06:26Z</time>
      </trkpt>
      <trkpt lat="46.78321" lon="-1.54201">
        <ele>58</ele>
        <time>2024-04-25T18:06:27Z</time>
      </trkpt>
      <trkpt lat="46.78327" lon="-1.54201">
        <ele>58.2</ele>
        <time>2024-04-25T18:06:28Z</time>
      </trkpt>
      <trkpt lat="46.78332" lon="-1.54201">
        <ele>58.2</ele>
        <time>2024-04-25T18:06:29Z</time>
      </trkpt>
      <trkpt lat="46.78336" lon="-1.54202">
        <ele>58.2</ele>
        <time>2024-04-25T18:06:30Z</time>
      </trkpt>
      <trkpt lat="46.7834" lon="-1.54202">
        <ele>58.4</ele>
        <time>2024-04-25T18:06:31Z</time>
      </trkpt>
      <trkpt lat="46.78344" lon="-1.54202">
        <ele>58.4</ele>
        <time>2024-04-25T18:06:32Z</time>
      </trkpt>
      <trkpt lat="46.78348" lon="-1.54203">
        <ele>58.6</ele>
        <time>2024-04-25T18:06:33Z</time>
      </trkpt>
      <trkpt lat="46.78352" lon="-1.54203">
        <ele>58.8</ele>
        <time>2024-04-25T18:06:34Z</time>
      </trkpt>
      <trkpt lat="46.78355" lon="-1.54204">
        <ele>58.8</ele>
        <time>2024-04-25T18:06:35Z</time>
      </trkpt>
      <trkpt lat="46.78358" lon="-1.54204">
        <ele>59</ele>
        <time>2024-04-25T18:06:36Z</time>
      </trkpt>
      <trkpt lat="46.78361" lon="-1.54204">
        <ele>59</ele>
        <time>2024-04-25T18:06:37Z</time>
      </trkpt>
      <trkpt lat="46.78365" lon="-1.54204">
        <ele>59</ele>
        <time>2024-04-25T18:06:38Z</time>
      </trkpt>
      <trkpt lat="46.78368" lon="-1.54204">
        <ele>59</ele>
        <time>2024-04-25T18:06:39Z</time>
      </trkpt>
      <trkpt lat="46.78371" lon="-1.54204">
        <ele>59</ele>
        <time>2024-04-25T18:06:40Z</time>
      </trkpt>
      <trkpt lat="46.78374" lon="-1.54204">
        <ele>58.8</ele>
        <time>2024-04-25T18:06:41Z</time>
      </trkpt>
      <trkpt lat="46.78377" lon="-1.54204">
        <ele>58.8</ele>
        <time>2024-04-25T18:06:42Z</time>
      </trkpt>
      <trkpt lat="46.7838" lon="-1.54203">
        <ele>58.8</ele>
        <time>2024-04-25T18:06:43Z</time>
      </trkpt>
      <trkpt lat="46.78382" lon="-1.54201">
        <ele>58.8</ele>
        <time>2024-04-25T18:06:44Z</time>
      </trkpt>
      <trkpt lat="46.78384" lon="-1.54197">
        <ele>58.6</ele>
        <time>2024-04-25T18:06:45Z</time>
      </trkpt>
      <trkpt lat="46.78385" lon="-1.54195">
        <ele>58.6</ele>
        <time>2024-04-25T18:06:46Z</time>
      </trkpt>
      <trkpt lat="46.78385" lon="-1.54191">
        <ele>58.6</ele>
        <time>2024-04-25T18:06:48Z</time>
      </trkpt>
      <trkpt lat="46.78385" lon="-1.54186">
        <ele>58.4</ele>
        <time>2024-04-25T18:06:49Z</time>
      </trkpt>
      <trkpt lat="46.78385" lon="-1.5418">
        <ele>58.4</ele>
        <time>2024-04-25T18:06:50Z</time>
      </trkpt>
      <trkpt lat="46.78385" lon="-1.54174">
        <ele>58.4</ele>
        <time>2024-04-25T18:06:51Z</time>
      </trkpt>
      <trkpt lat="46.78385" lon="-1.54168">
        <ele>58.2</ele>
        <time>2024-04-25T18:06:52Z</time>
      </trkpt>
      <trkpt lat="46.78385" lon="-1.54161">
        <ele>58.2</ele>
        <time>2024-04-25T18:06:53Z</time>
      </trkpt>
      <trkpt lat="46.78385" lon="-1.54151">
        <ele>58</ele>
        <time>2024-04-25T18:06:54Z</time>
      </trkpt>
      <trkpt lat="46.78385" lon="-1.54147">
        <ele>57.8</ele>
        <time>2024-04-25T18:06:55Z</time>
      </trkpt>
      <trkpt lat="46.78385" lon="-1.5414">
        <ele>57.6</ele>
        <time>2024-04-25T18:06:56Z</time>
      </trkpt>
      <trkpt lat="46.78385" lon="-1.54128">
        <ele>57.4</ele>
        <time>2024-04-25T18:06:57Z</time>
      </trkpt>
      <trkpt lat="46.78385" lon="-1.54124">
        <ele>57</ele>
        <time>2024-04-25T18:06:58Z</time>
      </trkpt>
      <trkpt lat="46.78386" lon="-1.54116">
        <ele>56.8</ele>
        <time>2024-04-25T18:06:59Z</time>
      </trkpt>
      <trkpt lat="46.78385" lon="-1.54102">
        <ele>56.6</ele>
        <time>2024-04-25T18:07:00Z</time>
      </trkpt>
      <trkpt lat="46.78385" lon="-1.54097">
        <ele>56.2</ele>
        <time>2024-04-25T18:07:01Z</time>
      </trkpt>
      <trkpt lat="46.78385" lon="-1.54087">
        <ele>56</ele>
        <time>2024-04-25T18:07:02Z</time>
      </trkpt>
      <trkpt lat="46.78384" lon="-1.54077">
        <ele>55.4</ele>
        <time>2024-04-25T18:07:03Z</time>
      </trkpt>
      <trkpt lat="46.78383" lon="-1.54067">
        <ele>55</ele>
        <time>2024-04-25T18:07:04Z</time>
      </trkpt>
      <trkpt lat="46.78382" lon="-1.54056">
        <ele>54.6</ele>
        <time>2024-04-25T18:07:05Z</time>
      </trkpt>
      <trkpt lat="46.78381" lon="-1.54045">
        <ele>54.2</ele>
        <time>2024-04-25T18:07:06Z</time>
      </trkpt>
      <trkpt lat="46.7838" lon="-1.54033">
        <ele>53.8</ele>
        <time>2024-04-25T18:07:07Z</time>
      </trkpt>
      <trkpt lat="46.78377" lon="-1.54015">
        <ele>53.2</ele>
        <time>2024-04-25T18:07:08Z</time>
      </trkpt>
      <trkpt lat="46.78376" lon="-1.54009">
        <ele>52.8</ele>
        <time>2024-04-25T18:07:09Z</time>
      </trkpt>
      <trkpt lat="46.78374" lon="-1.53997">
        <ele>52.2</ele>
        <time>2024-04-25T18:07:10Z</time>
      </trkpt>
      <trkpt lat="46.78371" lon="-1.53985">
        <ele>51.8</ele>
        <time>2024-04-25T18:07:11Z</time>
      </trkpt>
      <trkpt lat="46.78369" lon="-1.53973">
        <ele>51.2</ele>
        <time>2024-04-25T18:07:12Z</time>
      </trkpt>
      <trkpt lat="46.78367" lon="-1.53961">
        <ele>50.6</ele>
        <time>2024-04-25T18:07:13Z</time>
      </trkpt>
      <trkpt lat="46.78364" lon="-1.53949">
        <ele>50.2</ele>
        <time>2024-04-25T18:07:14Z</time>
      </trkpt>
      <trkpt lat="46.78361" lon="-1.53937">
        <ele>49.6</ele>
        <time>2024-04-25T18:07:15Z</time>
      </trkpt>
      <trkpt lat="46.78359" lon="-1.53925">
        <ele>49.2</ele>
        <time>2024-04-25T18:07:16Z</time>
      </trkpt>
      <trkpt lat="46.78356" lon="-1.53912">
        <ele>49</ele>
        <time>2024-04-25T18:07:17Z</time>
      </trkpt>
      <trkpt lat="46.78353" lon="-1.539">
        <ele>48.6</ele>
        <time>2024-04-25T18:07:18Z</time>
      </trkpt>
      <trkpt lat="46.7835" lon="-1.53888">
        <ele>48.2</ele>
        <time>2024-04-25T18:07:19Z</time>
      </trkpt>
      <trkpt lat="46.78348" lon="-1.53875">
        <ele>47.8</ele>
        <time>2024-04-25T18:07:20Z</time>
      </trkpt>
      <trkpt lat="46.78345" lon="-1.53862">
        <ele>47.4</ele>
        <time>2024-04-25T18:07:21Z</time>
      </trkpt>
      <trkpt lat="46.78342" lon="-1.53849">
        <ele>47</ele>
        <time>2024-04-25T18:07:22Z</time>
      </trkpt>
      <trkpt lat="46.7834" lon="-1.53836">
        <ele>46.4</ele>
        <time>2024-04-25T18:07:23Z</time>
      </trkpt>
      <trkpt lat="46.78338" lon="-1.53823">
        <ele>46</ele>
        <time>2024-04-25T18:07:24Z</time>
      </trkpt>
      <trkpt lat="46.78335" lon="-1.53809">
        <ele>45.4</ele>
        <time>2024-04-25T18:07:25Z</time>
      </trkpt>
      <trkpt lat="46.78333" lon="-1.53796">
        <ele>44.6</ele>
        <time>2024-04-25T18:07:26Z</time>
      </trkpt>
      <trkpt lat="46.7833" lon="-1.53783">
        <ele>43.8</ele>
        <time>2024-04-25T18:07:27Z</time>
      </trkpt>
      <trkpt lat="46.78327" lon="-1.53769">
        <ele>43.2</ele>
        <time>2024-04-25T18:07:28Z</time>
      </trkpt>
      <trkpt lat="46.78323" lon="-1.53757">
        <ele>42.8</ele>
        <time>2024-04-25T18:07:29Z</time>
      </trkpt>
      <trkpt lat="46.7832" lon="-1.53744">
        <ele>42.4</ele>
        <time>2024-04-25T18:07:30Z</time>
      </trkpt>
      <trkpt lat="46.78317" lon="-1.53732">
        <ele>42</ele>
        <time>2024-04-25T18:07:31Z</time>
      </trkpt>
      <trkpt lat="46.78315" lon="-1.53721">
        <ele>41.6</ele>
        <time>2024-04-25T18:07:32Z</time>
      </trkpt>
      <trkpt lat="46.78313" lon="-1.5371">
        <ele>41.4</ele>
        <time>2024-04-25T18:07:33Z</time>
      </trkpt>
      <trkpt lat="46.78311" lon="-1.53701">
        <ele>41</ele>
        <time>2024-04-25T18:07:34Z</time>
      </trkpt>
      <trkpt lat="46.7831" lon="-1.53693">
        <ele>40.6</ele>
        <time>2024-04-25T18:07:35Z</time>
      </trkpt>
      <trkpt lat="46.7831" lon="-1.53687">
        <ele>40.4</ele>
        <time>2024-04-25T18:07:36Z</time>
      </trkpt>
      <trkpt lat="46.78312" lon="-1.53682">
        <ele>40.2</ele>
        <time>2024-04-25T18:07:37Z</time>
      </trkpt>
      <trkpt lat="46.78315" lon="-1.53678">
        <ele>40</ele>
        <time>2024-04-25T18:07:38Z</time>
      </trkpt>
      <trkpt lat="46.78317" lon="-1.53676">
        <ele>39.8</ele>
        <time>2024-04-25T18:07:39Z</time>
      </trkpt>
      <trkpt lat="46.7832" lon="-1.53675">
        <ele>39.6</ele>
        <time>2024-04-25T18:07:40Z</time>
      </trkpt>
      <trkpt lat="46.78322" lon="-1.53674">
        <ele>39.2</ele>
        <time>2024-04-25T18:07:41Z</time>
      </trkpt>
      <trkpt lat="46.78324" lon="-1.53671">
        <ele>38.6</ele>
        <time>2024-04-25T18:07:42Z</time>
      </trkpt>
      <trkpt lat="46.78325" lon="-1.53667">
        <ele>38.2</ele>
        <time>2024-04-25T18:07:43Z</time>
      </trkpt>
      <trkpt lat="46.78323" lon="-1.53662">
        <ele>37.8</ele>
        <time>2024-04-25T18:07:44Z</time>
      </trkpt>
      <trkpt lat="46.78321" lon="-1.53656">
        <ele>37.4</ele>
        <time>2024-04-25T18:07:45Z</time>
      </trkpt>
      <trkpt lat="46.78318" lon="-1.53649">
        <ele>37</ele>
        <time>2024-04-25T18:07:46Z</time>
      </trkpt>
      <trkpt lat="46.78315" lon="-1.53641">
        <ele>36.8</ele>
        <time>2024-04-25T18:07:47Z</time>
      </trkpt>
      <trkpt lat="46.78313" lon="-1.53633">
        <ele>36.4</ele>
        <time>2024-04-25T18:07:48Z</time>
      </trkpt>
      <trkpt lat="46.7831" lon="-1.53625">
        <ele>36.2</ele>
        <time>2024-04-25T18:07:49Z</time>
      </trkpt>
      <trkpt lat="46.78309" lon="-1.53617">
        <ele>36</ele>
        <time>2024-04-25T18:07:50Z</time>
      </trkpt>
      <trkpt lat="46.78306" lon="-1.53604">
        <ele>35.6</ele>
        <time>2024-04-25T18:07:51Z</time>
      </trkpt>
      <trkpt lat="46.78303" lon="-1.53592">
        <ele>35.4</ele>
        <time>2024-04-25T18:07:52Z</time>
      </trkpt>
      <trkpt lat="46.78301" lon="-1.53582">
        <ele>35</ele>
        <time>2024-04-25T18:07:53Z</time>
      </trkpt>
      <trkpt lat="46.78299" lon="-1.53572">
        <ele>34.8</ele>
        <time>2024-04-25T18:07:54Z</time>
      </trkpt>
      <trkpt lat="46.78297" lon="-1.53563">
        <ele>34.6</ele>
        <time>2024-04-25T18:07:55Z</time>
      </trkpt>
      <trkpt lat="46.78295" lon="-1.53555">
        <ele>34.4</ele>
        <time>2024-04-25T18:07:56Z</time>
      </trkpt>
      <trkpt lat="46.78293" lon="-1.53546">
        <ele>34.2</ele>
        <time>2024-04-25T18:07:57Z</time>
      </trkpt>
      <trkpt lat="46.78291" lon="-1.53538">
        <ele>34</ele>
        <time>2024-04-25T18:07:58Z</time>
      </trkpt>
      <trkpt lat="46.7829" lon="-1.53529">
        <ele>33.8</ele>
        <time>2024-04-25T18:07:59Z</time>
      </trkpt>
      <trkpt lat="46.78288" lon="-1.53521">
        <ele>33.8</ele>
        <time>2024-04-25T18:08:00Z</time>
      </trkpt>
      <trkpt lat="46.78287" lon="-1.53512">
        <ele>33.6</ele>
        <time>2024-04-25T18:08:01Z</time>
      </trkpt>
      <trkpt lat="46.78286" lon="-1.53503">
        <ele>33.4</ele>
        <time>2024-04-25T18:08:02Z</time>
      </trkpt>
      <trkpt lat="46.78285" lon="-1.53494">
        <ele>33.2</ele>
        <time>2024-04-25T18:08:03Z</time>
      </trkpt>
      <trkpt lat="46.78284" lon="-1.53485">
        <ele>33</ele>
        <time>2024-04-25T18:08:04Z</time>
      </trkpt>
      <trkpt lat="46.78284" lon="-1.53476">
        <ele>32.8</ele>
        <time>2024-04-25T18:08:05Z</time>
      </trkpt>
      <trkpt lat="46.78283" lon="-1.53467">
        <ele>32.4</ele>
        <time>2024-04-25T18:08:06Z</time>
      </trkpt>
      <trkpt lat="46.78283" lon="-1.5346">
        <ele>32</ele>
        <time>2024-04-25T18:08:07Z</time>
      </trkpt>
      <trkpt lat="46.78282" lon="-1.53453">
        <ele>32</ele>
        <time>2024-04-25T18:08:08Z</time>
      </trkpt>
      <trkpt lat="46.78282" lon="-1.53447">
        <ele>32</ele>
        <time>2024-04-25T18:08:09Z</time>
      </trkpt>
      <trkpt lat="46.78282" lon="-1.53443">
        <ele>31.8</ele>
        <time>2024-04-25T18:08:10Z</time>
      </trkpt>
      <trkpt lat="46.78281" lon="-1.53439">
        <ele>31.8</ele>
        <time>2024-04-25T18:08:12Z</time>
      </trkpt>
      <trkpt lat="46.7828" lon="-1.53434">
        <ele>31.8</ele>
        <time>2024-04-25T18:08:13Z</time>
      </trkpt>
      <trkpt lat="46.78279" lon="-1.53427">
        <ele>31.6</ele>
        <time>2024-04-25T18:08:14Z</time>
      </trkpt>
      <trkpt lat="46.78279" lon="-1.53424">
        <ele>31.4</ele>
        <time>2024-04-25T18:08:15Z</time>
      </trkpt>
      <trkpt lat="46.78278" lon="-1.53418">
        <ele>31.4</ele>
        <time>2024-04-25T18:08:16Z</time>
      </trkpt>
      <trkpt lat="46.78277" lon="-1.53412">
        <ele>31.2</ele>
        <time>2024-04-25T18:08:17Z</time>
      </trkpt>
      <trkpt lat="46.78276" lon="-1.53406">
        <ele>31.2</ele>
        <time>2024-04-25T18:08:18Z</time>
      </trkpt>
      <trkpt lat="46.78275" lon="-1.534">
        <ele>31.2</ele>
        <time>2024-04-25T18:08:19Z</time>
      </trkpt>
      <trkpt lat="46.78274" lon="-1.53394">
        <ele>31.2</ele>
        <time>2024-04-25T18:08:20Z</time>
      </trkpt>
      <trkpt lat="46.78273" lon="-1.53387">
        <ele>31.2</ele>
        <time>2024-04-25T18:08:21Z</time>
      </trkpt>
      <trkpt lat="46.78273" lon="-1.5338">
        <ele>31.2</ele>
        <time>2024-04-25T18:08:22Z</time>
      </trkpt>
      <trkpt lat="46.78272" lon="-1.53374">
        <ele>31</ele>
        <time>2024-04-25T18:08:23Z</time>
      </trkpt>
      <trkpt lat="46.78272" lon="-1.53366">
        <ele>31</ele>
        <time>2024-04-25T18:08:24Z</time>
      </trkpt>
      <trkpt lat="46.78272" lon="-1.53359">
        <ele>31</ele>
        <time>2024-04-25T18:08:25Z</time>
      </trkpt>
      <trkpt lat="46.78272" lon="-1.53351">
        <ele>30.8</ele>
        <time>2024-04-25T18:08:26Z</time>
      </trkpt>
      <trkpt lat="46.78272" lon="-1.53343">
        <ele>30.8</ele>
        <time>2024-04-25T18:08:27Z</time>
      </trkpt>
      <trkpt lat="46.78271" lon="-1.53335">
        <ele>30.6</ele>
        <time>2024-04-25T18:08:28Z</time>
      </trkpt>
      <trkpt lat="46.7827" lon="-1.53323">
        <ele>30.6</ele>
        <time>2024-04-25T18:08:29Z</time>
      </trkpt>
      <trkpt lat="46.7827" lon="-1.53319">
        <ele>30.4</ele>
        <time>2024-04-25T18:08:30Z</time>
      </trkpt>
      <trkpt lat="46.78269" lon="-1.53311">
        <ele>30.4</ele>
        <time>2024-04-25T18:08:31Z</time>
      </trkpt>
      <trkpt lat="46.78269" lon="-1.53304">
        <ele>30.2</ele>
        <time>2024-04-25T18:08:32Z</time>
      </trkpt>
      <trkpt lat="46.78268" lon="-1.53292">
        <ele>30.2</ele>
        <time>2024-04-25T18:08:33Z</time>
      </trkpt>
      <trkpt lat="46.78267" lon="-1.53288">
        <ele>30.2</ele>
        <time>2024-04-25T18:08:34Z</time>
      </trkpt>
      <trkpt lat="46.78267" lon="-1.53276">
        <ele>30</ele>
        <time>2024-04-25T18:08:35Z</time>
      </trkpt>
      <trkpt lat="46.78266" lon="-1.53272">
        <ele>30</ele>
        <time>2024-04-25T18:08:36Z</time>
      </trkpt>
      <trkpt lat="46.78266" lon="-1.53264">
        <ele>30</ele>
        <time>2024-04-25T18:08:37Z</time>
      </trkpt>
      <trkpt lat="46.78265" lon="-1.53256">
        <ele>30</ele>
        <time>2024-04-25T18:08:38Z</time>
      </trkpt>
      <trkpt lat="46.78265" lon="-1.53249">
        <ele>30</ele>
        <time>2024-04-25T18:08:39Z</time>
      </trkpt>
      <trkpt lat="46.78265" lon="-1.53241">
        <ele>30</ele>
        <time>2024-04-25T18:08:40Z</time>
      </trkpt>
      <trkpt lat="46.78264" lon="-1.53234">
        <ele>30</ele>
        <time>2024-04-25T18:08:41Z</time>
      </trkpt>
      <trkpt lat="46.78265" lon="-1.53228">
        <ele>30</ele>
        <time>2024-04-25T18:08:42Z</time>
      </trkpt>
      <trkpt lat="46.78266" lon="-1.53222">
        <ele>30</ele>
        <time>2024-04-25T18:08:43Z</time>
      </trkpt>
      <trkpt lat="46.78268" lon="-1.53216">
        <ele>30</ele>
        <time>2024-04-25T18:08:44Z</time>
      </trkpt>
      <trkpt lat="46.78274" lon="-1.53209">
        <ele>29.8</ele>
        <time>2024-04-25T18:08:45Z</time>
      </trkpt>
      <trkpt lat="46.78276" lon="-1.53206">
        <ele>29.6</ele>
        <time>2024-04-25T18:08:46Z</time>
      </trkpt>
      <trkpt lat="46.78281" lon="-1.53201">
        <ele>29.4</ele>
        <time>2024-04-25T18:08:47Z</time>
      </trkpt>
      <trkpt lat="46.78285" lon="-1.53195">
        <ele>29.2</ele>
        <time>2024-04-25T18:08:48Z</time>
      </trkpt>
      <trkpt lat="46.78289" lon="-1.53189">
        <ele>29</ele>
        <time>2024-04-25T18:08:49Z</time>
      </trkpt>
      <trkpt lat="46.78294" lon="-1.53183">
        <ele>29</ele>
        <time>2024-04-25T18:08:50Z</time>
      </trkpt>
      <trkpt lat="46.78298" lon="-1.53177">
        <ele>28.8</ele>
        <time>2024-04-25T18:08:51Z</time>
      </trkpt>
      <trkpt lat="46.78302" lon="-1.5317">
        <ele>28.8</ele>
        <time>2024-04-25T18:08:52Z</time>
      </trkpt>
      <trkpt lat="46.78305" lon="-1.53163">
        <ele>28.6</ele>
        <time>2024-04-25T18:08:53Z</time>
      </trkpt>
      <trkpt lat="46.78309" lon="-1.53157">
        <ele>28.6</ele>
        <time>2024-04-25T18:08:54Z</time>
      </trkpt>
      <trkpt lat="46.78313" lon="-1.5315">
        <ele>28.4</ele>
        <time>2024-04-25T18:08:55Z</time>
      </trkpt>
      <trkpt lat="46.78316" lon="-1.53143">
        <ele>28.4</ele>
        <time>2024-04-25T18:08:56Z</time>
      </trkpt>
      <trkpt lat="46.7832" lon="-1.53137">
        <ele>28.4</ele>
        <time>2024-04-25T18:08:57Z</time>
      </trkpt>
      <trkpt lat="46.78324" lon="-1.5313">
        <ele>28.4</ele>
        <time>2024-04-25T18:08:58Z</time>
      </trkpt>
      <trkpt lat="46.78327" lon="-1.53124">
        <ele>28.4</ele>
        <time>2024-04-25T18:08:59Z</time>
      </trkpt>
      <trkpt lat="46.78331" lon="-1.53119">
        <ele>28.4</ele>
        <time>2024-04-25T18:09:00Z</time>
      </trkpt>
      <trkpt lat="46.78335" lon="-1.53113">
        <ele>28.4</ele>
        <time>2024-04-25T18:09:01Z</time>
      </trkpt>
      <trkpt lat="46.78339" lon="-1.53109">
        <ele>28.4</ele>
        <time>2024-04-25T18:09:02Z</time>
      </trkpt>
      <trkpt lat="46.78343" lon="-1.53105">
        <ele>28.4</ele>
        <time>2024-04-25T18:09:03Z</time>
      </trkpt>
      <trkpt lat="46.78347" lon="-1.53103">
        <ele>28.4</ele>
        <time>2024-04-25T18:09:04Z</time>
      </trkpt>
      <trkpt lat="46.78352" lon="-1.53103">
        <ele>28.4</ele>
        <time>2024-04-25T18:09:05Z</time>
      </trkpt>
      <trkpt lat="46.78357" lon="-1.53105">
        <ele>28.6</ele>
        <time>2024-04-25T18:09:06Z</time>
      </trkpt>
      <trkpt lat="46.78362" lon="-1.53108">
        <ele>28.8</ele>
        <time>2024-04-25T18:09:07Z</time>
      </trkpt>
      <trkpt lat="46.78366" lon="-1.53112">
        <ele>29</ele>
        <time>2024-04-25T18:09:08Z</time>
      </trkpt>
      <trkpt lat="46.78369" lon="-1.53116">
        <ele>29.4</ele>
        <time>2024-04-25T18:09:09Z</time>
      </trkpt>
      <trkpt lat="46.78372" lon="-1.53121">
        <ele>29.6</ele>
        <time>2024-04-25T18:09:10Z</time>
      </trkpt>
      <trkpt lat="46.78376" lon="-1.53125">
        <ele>30</ele>
        <time>2024-04-25T18:09:11Z</time>
      </trkpt>
      <trkpt lat="46.78379" lon="-1.53128">
        <ele>30.2</ele>
        <time>2024-04-25T18:09:12Z</time>
      </trkpt>
      <trkpt lat="46.78381" lon="-1.53131">
        <ele>30.6</ele>
        <time>2024-04-25T18:09:13Z</time>
      </trkpt>
      <trkpt lat="46.78386" lon="-1.53133">
        <ele>31</ele>
        <time>2024-04-25T18:09:14Z</time>
      </trkpt>
      <trkpt lat="46.7839" lon="-1.53135">
        <ele>31.2</ele>
        <time>2024-04-25T18:09:15Z</time>
      </trkpt>
      <trkpt lat="46.78393" lon="-1.53136">
        <ele>31.6</ele>
        <time>2024-04-25T18:09:16Z</time>
      </trkpt>
      <trkpt lat="46.78396" lon="-1.53136">
        <ele>32</ele>
        <time>2024-04-25T18:09:17Z</time>
      </trkpt>
      <trkpt lat="46.78399" lon="-1.53137">
        <ele>32.4</ele>
        <time>2024-04-25T18:09:18Z</time>
      </trkpt>
      <trkpt lat="46.78402" lon="-1.53137">
        <ele>32.8</ele>
        <time>2024-04-25T18:09:19Z</time>
      </trkpt>
      <trkpt lat="46.78405" lon="-1.53137">
        <ele>33</ele>
        <time>2024-04-25T18:09:20Z</time>
      </trkpt>
      <trkpt lat="46.78408" lon="-1.53137">
        <ele>33.4</ele>
        <time>2024-04-25T18:09:21Z</time>
      </trkpt>
      <trkpt lat="46.7841" lon="-1.53137">
        <ele>33.8</ele>
        <time>2024-04-25T18:09:22Z</time>
      </trkpt>
      <trkpt lat="46.78413" lon="-1.53137">
        <ele>34.2</ele>
        <time>2024-04-25T18:09:23Z</time>
      </trkpt>
      <trkpt lat="46.78415" lon="-1.53137">
        <ele>34.4</ele>
        <time>2024-04-25T18:09:24Z</time>
      </trkpt>
      <trkpt lat="46.78418" lon="-1.53137">
        <ele>34.8</ele>
        <time>2024-04-25T18:09:25Z</time>
      </trkpt>
      <trkpt lat="46.7842" lon="-1.53137">
        <ele>35.2</ele>
        <time>2024-04-25T18:09:26Z</time>
      </trkpt>
      <trkpt lat="46.78423" lon="-1.53136">
        <ele>35.4</ele>
        <time>2024-04-25T18:09:27Z</time>
      </trkpt>
      <trkpt lat="46.78425" lon="-1.53136">
        <ele>35.8</ele>
        <time>2024-04-25T18:09:28Z</time>
      </trkpt>
      <trkpt lat="46.78427" lon="-1.53136">
        <ele>36</ele>
        <time>2024-04-25T18:09:29Z</time>
      </trkpt>
      <trkpt lat="46.7843" lon="-1.53135">
        <ele>36.4</ele>
        <time>2024-04-25T18:09:30Z</time>
      </trkpt>
      <trkpt lat="46.78432" lon="-1.53134">
        <ele>36.8</ele>
        <time>2024-04-25T18:09:31Z</time>
      </trkpt>
      <trkpt lat="46.78435" lon="-1.53134">
        <ele>37</ele>
        <time>2024-04-25T18:09:32Z</time>
      </trkpt>
      <trkpt lat="46.78437" lon="-1.53133">
        <ele>37.4</ele>
        <time>2024-04-25T18:09:33Z</time>
      </trkpt>
      <trkpt lat="46.7844" lon="-1.53131">
        <ele>37.6</ele>
        <time>2024-04-25T18:09:34Z</time>
      </trkpt>
      <trkpt lat="46.78442" lon="-1.5313">
        <ele>38</ele>
        <time>2024-04-25T18:09:35Z</time>
      </trkpt>
      <trkpt lat="46.78445" lon="-1.53129">
        <ele>38.4</ele>
        <time>2024-04-25T18:09:37Z</time>
      </trkpt>
      <trkpt lat="46.78447" lon="-1.53128">
        <ele>38.6</ele>
        <time>2024-04-25T18:09:38Z</time>
      </trkpt>
      <trkpt lat="46.7845" lon="-1.53126">
        <ele>39</ele>
        <time>2024-04-25T18:09:39Z</time>
      </trkpt>
      <trkpt lat="46.78452" lon="-1.53125">
        <ele>39.2</ele>
        <time>2024-04-25T18:09:40Z</time>
      </trkpt>
      <trkpt lat="46.78455" lon="-1.53124">
        <ele>39.6</ele>
        <time>2024-04-25T18:09:41Z</time>
      </trkpt>
      <trkpt lat="46.78457" lon="-1.53123">
        <ele>39.8</ele>
        <time>2024-04-25T18:09:42Z</time>
      </trkpt>
      <trkpt lat="46.7846" lon="-1.53122">
        <ele>40.2</ele>
        <time>2024-04-25T18:09:43Z</time>
      </trkpt>
      <trkpt lat="46.78462" lon="-1.53121">
        <ele>40.4</ele>
        <time>2024-04-25T18:09:44Z</time>
      </trkpt>
      <trkpt lat="46.78465" lon="-1.5312">
        <ele>40.8</ele>
        <time>2024-04-25T18:09:45Z</time>
      </trkpt>
      <trkpt lat="46.78467" lon="-1.5312">
        <ele>41</ele>
        <time>2024-04-25T18:09:46Z</time>
      </trkpt>
      <trkpt lat="46.7847" lon="-1.53118">
        <ele>41.2</ele>
        <time>2024-04-25T18:09:47Z</time>
      </trkpt>
      <trkpt lat="46.78472" lon="-1.53117">
        <ele>41.4</ele>
        <time>2024-04-25T18:09:48Z</time>
      </trkpt>
      <trkpt lat="46.78475" lon="-1.53116">
        <ele>41.6</ele>
        <time>2024-04-25T18:09:49Z</time>
      </trkpt>
      <trkpt lat="46.78478" lon="-1.53115">
        <ele>41.8</ele>
        <time>2024-04-25T18:09:50Z</time>
      </trkpt>
      <trkpt lat="46.7848" lon="-1.53115">
        <ele>42</ele>
        <time>2024-04-25T18:09:51Z</time>
      </trkpt>
      <trkpt lat="46.78483" lon="-1.53114">
        <ele>42.2</ele>
        <time>2024-04-25T18:09:52Z</time>
      </trkpt>
      <trkpt lat="46.78486" lon="-1.53114">
        <ele>42.4</ele>
        <time>2024-04-25T18:09:53Z</time>
      </trkpt>
      <trkpt lat="46.78491" lon="-1.53114">
        <ele>42.4</ele>
        <time>2024-04-25T18:09:54Z</time>
      </trkpt>
      <trkpt lat="46.78492" lon="-1.53114">
        <ele>42.6</ele>
        <time>2024-04-25T18:09:55Z</time>
      </trkpt>
      <trkpt lat="46.78495" lon="-1.53114">
        <ele>42.6</ele>
        <time>2024-04-25T18:09:56Z</time>
      </trkpt>
      <trkpt lat="46.78498" lon="-1.53114">
        <ele>42.8</ele>
        <time>2024-04-25T18:09:57Z</time>
      </trkpt>
      <trkpt lat="46.785" lon="-1.53115">
        <ele>42.8</ele>
        <time>2024-04-25T18:09:58Z</time>
      </trkpt>
      <trkpt lat="46.78503" lon="-1.53115">
        <ele>43</ele>
        <time>2024-04-25T18:09:59Z</time>
      </trkpt>
      <trkpt lat="46.78506" lon="-1.53116">
        <ele>43</ele>
        <time>2024-04-25T18:10:00Z</time>
      </trkpt>
      <trkpt lat="46.78509" lon="-1.53116">
        <ele>43.2</ele>
        <time>2024-04-25T18:10:01Z</time>
      </trkpt>
      <trkpt lat="46.78511" lon="-1.53116">
        <ele>43.4</ele>
        <time>2024-04-25T18:10:02Z</time>
      </trkpt>
      <trkpt lat="46.78513" lon="-1.53115">
        <ele>43.4</ele>
        <time>2024-04-25T18:10:03Z</time>
      </trkpt>
      <trkpt lat="46.78516" lon="-1.53114">
        <ele>43.6</ele>
        <time>2024-04-25T18:10:04Z</time>
      </trkpt>
      <trkpt lat="46.78518" lon="-1.53113">
        <ele>43.8</ele>
        <time>2024-04-25T18:10:05Z</time>
      </trkpt>
      <trkpt lat="46.7852" lon="-1.53112">
        <ele>43.8</ele>
        <time>2024-04-25T18:10:06Z</time>
      </trkpt>
      <trkpt lat="46.78522" lon="-1.5311">
        <ele>44</ele>
        <time>2024-04-25T18:10:07Z</time>
      </trkpt>
      <trkpt lat="46.78524" lon="-1.53107">
        <ele>44.2</ele>
        <time>2024-04-25T18:10:08Z</time>
      </trkpt>
      <trkpt lat="46.78526" lon="-1.53105">
        <ele>44.2</ele>
        <time>2024-04-25T18:10:09Z</time>
      </trkpt>
      <trkpt lat="46.78528" lon="-1.53103">
        <ele>44.4</ele>
        <time>2024-04-25T18:10:10Z</time>
      </trkpt>
      <trkpt lat="46.7853" lon="-1.53101">
        <ele>44.4</ele>
        <time>2024-04-25T18:10:11Z</time>
      </trkpt>
      <trkpt lat="46.78532" lon="-1.53098">
        <ele>44.4</ele>
        <time>2024-04-25T18:10:12Z</time>
      </trkpt>
      <trkpt lat="46.78534" lon="-1.53095">
        <ele>44.4</ele>
        <time>2024-04-25T18:10:13Z</time>
      </trkpt>
      <trkpt lat="46.78536" lon="-1.53092">
        <ele>44.2</ele>
        <time>2024-04-25T18:10:14Z</time>
      </trkpt>
      <trkpt lat="46.78539" lon="-1.53088">
        <ele>44</ele>
        <time>2024-04-25T18:10:15Z</time>
      </trkpt>
      <trkpt lat="46.78542" lon="-1.53083">
        <ele>43.6</ele>
        <time>2024-04-25T18:10:16Z</time>
      </trkpt>
      <trkpt lat="46.78547" lon="-1.53078">
        <ele>43</ele>
        <time>2024-04-25T18:10:17Z</time>
      </trkpt>
      <trkpt lat="46.78552" lon="-1.53072">
        <ele>42.2</ele>
        <time>2024-04-25T18:10:18Z</time>
      </trkpt>
      <trkpt lat="46.78558" lon="-1.53066">
        <ele>41.4</ele>
        <time>2024-04-25T18:10:19Z</time>
      </trkpt>
      <trkpt lat="46.78563" lon="-1.53058">
        <ele>40.6</ele>
        <time>2024-04-25T18:10:20Z</time>
      </trkpt>
      <trkpt lat="46.78567" lon="-1.5305">
        <ele>40</ele>
        <time>2024-04-25T18:10:21Z</time>
      </trkpt>
      <trkpt lat="46.78569" lon="-1.53035">
        <ele>39.4</ele>
        <time>2024-04-25T18:10:22Z</time>
      </trkpt>
      <trkpt lat="46.78569" lon="-1.5303">
        <ele>38.8</ele>
        <time>2024-04-25T18:10:23Z</time>
      </trkpt>
      <trkpt lat="46.7857" lon="-1.5302">
        <ele>38.4</ele>
        <time>2024-04-25T18:10:24Z</time>
      </trkpt>
      <trkpt lat="46.78569" lon="-1.5301">
        <ele>38</ele>
        <time>2024-04-25T18:10:25Z</time>
      </trkpt>
      <trkpt lat="46.78569" lon="-1.52999">
        <ele>37.6</ele>
        <time>2024-04-25T18:10:26Z</time>
      </trkpt>
      <trkpt lat="46.78568" lon="-1.52989">
        <ele>37.4</ele>
        <time>2024-04-25T18:10:27Z</time>
      </trkpt>
      <trkpt lat="46.78568" lon="-1.52979">
        <ele>37</ele>
        <time>2024-04-25T18:10:28Z</time>
      </trkpt>
      <trkpt lat="46.78569" lon="-1.52969">
        <ele>36.8</ele>
        <time>2024-04-25T18:10:29Z</time>
      </trkpt>
      <trkpt lat="46.7857" lon="-1.52959">
        <ele>36.4</ele>
        <time>2024-04-25T18:10:30Z</time>
      </trkpt>
      <trkpt lat="46.78571" lon="-1.5295">
        <ele>36.2</ele>
        <time>2024-04-25T18:10:31Z</time>
      </trkpt>
      <trkpt lat="46.78573" lon="-1.52941">
        <ele>36</ele>
        <time>2024-04-25T18:10:32Z</time>
      </trkpt>
      <trkpt lat="46.78575" lon="-1.52932">
        <ele>35.6</ele>
        <time>2024-04-25T18:10:33Z</time>
      </trkpt>
      <trkpt lat="46.78577" lon="-1.52923">
        <ele>35.2</ele>
        <time>2024-04-25T18:10:34Z</time>
      </trkpt>
      <trkpt lat="46.7858" lon="-1.52914">
        <ele>34.8</ele>
        <time>2024-04-25T18:10:35Z</time>
      </trkpt>
      <trkpt lat="46.78583" lon="-1.52905">
        <ele>34.2</ele>
        <time>2024-04-25T18:10:36Z</time>
      </trkpt>
      <trkpt lat="46.78586" lon="-1.52895">
        <ele>33.8</ele>
        <time>2024-04-25T18:10:37Z</time>
      </trkpt>
      <trkpt lat="46.78589" lon="-1.52884">
        <ele>33.4</ele>
        <time>2024-04-25T18:10:38Z</time>
      </trkpt>
      <trkpt lat="46.78592" lon="-1.52874">
        <ele>33.2</ele>
        <time>2024-04-25T18:10:39Z</time>
      </trkpt>
      <trkpt lat="46.78596" lon="-1.52858">
        <ele>33</ele>
        <time>2024-04-25T18:10:40Z</time>
      </trkpt>
      <trkpt lat="46.78599" lon="-1.52844">
        <ele>32.8</ele>
        <time>2024-04-25T18:10:41Z</time>
      </trkpt>
      <trkpt lat="46.78601" lon="-1.52832">
        <ele>32.6</ele>
        <time>2024-04-25T18:10:42Z</time>
      </trkpt>
      <trkpt lat="46.78604" lon="-1.52822">
        <ele>32.4</ele>
        <time>2024-04-25T18:10:43Z</time>
      </trkpt>
      <trkpt lat="46.78606" lon="-1.52811">
        <ele>32.2</ele>
        <time>2024-04-25T18:10:44Z</time>
      </trkpt>
      <trkpt lat="46.78608" lon="-1.52802">
        <ele>32</ele>
        <time>2024-04-25T18:10:45Z</time>
      </trkpt>
      <trkpt lat="46.7861" lon="-1.52792">
        <ele>32</ele>
        <time>2024-04-25T18:10:46Z</time>
      </trkpt>
      <trkpt lat="46.78613" lon="-1.52783">
        <ele>31.8</ele>
        <time>2024-04-25T18:10:47Z</time>
      </trkpt>
      <trkpt lat="46.78616" lon="-1.52774">
        <ele>31.8</ele>
        <time>2024-04-25T18:10:48Z</time>
      </trkpt>
      <trkpt lat="46.7862" lon="-1.52767">
        <ele>31.8</ele>
        <time>2024-04-25T18:10:49Z</time>
      </trkpt>
      <trkpt lat="46.78623" lon="-1.52759">
        <ele>31.8</ele>
        <time>2024-04-25T18:10:50Z</time>
      </trkpt>
      <trkpt lat="46.78625" lon="-1.52751">
        <ele>31.8</ele>
        <time>2024-04-25T18:10:51Z</time>
      </trkpt>
      <trkpt lat="46.78627" lon="-1.52742">
        <ele>31.8</ele>
        <time>2024-04-25T18:10:52Z</time>
      </trkpt>
      <trkpt lat="46.78629" lon="-1.52732">
        <ele>31.8</ele>
        <time>2024-04-25T18:10:53Z</time>
      </trkpt>
      <trkpt lat="46.7863" lon="-1.52721">
        <ele>31.8</ele>
        <time>2024-04-25T18:10:54Z</time>
      </trkpt>
      <trkpt lat="46.78631" lon="-1.52711">
        <ele>31.8</ele>
        <time>2024-04-25T18:10:55Z</time>
      </trkpt>
      <trkpt lat="46.78633" lon="-1.52701">
        <ele>31.6</ele>
        <time>2024-04-25T18:10:56Z</time>
      </trkpt>
      <trkpt lat="46.78634" lon="-1.52691">
        <ele>31.4</ele>
        <time>2024-04-25T18:10:57Z</time>
      </trkpt>
      <trkpt lat="46.78636" lon="-1.52681">
        <ele>31.4</ele>
        <time>2024-04-25T18:10:58Z</time>
      </trkpt>
      <trkpt lat="46.78638" lon="-1.52671">
        <ele>31</ele>
        <time>2024-04-25T18:10:59Z</time>
      </trkpt>
      <trkpt lat="46.7864" lon="-1.52661">
        <ele>30.8</ele>
        <time>2024-04-25T18:11:00Z</time>
      </trkpt>
      <trkpt lat="46.78641" lon="-1.5265">
        <ele>30.6</ele>
        <time>2024-04-25T18:11:01Z</time>
      </trkpt>
      <trkpt lat="46.78643" lon="-1.52639">
        <ele>30.4</ele>
        <time>2024-04-25T18:11:03Z</time>
      </trkpt>
      <trkpt lat="46.78644" lon="-1.52629">
        <ele>30</ele>
        <time>2024-04-25T18:11:04Z</time>
      </trkpt>
      <trkpt lat="46.78644" lon="-1.52618">
        <ele>29.8</ele>
        <time>2024-04-25T18:11:05Z</time>
      </trkpt>
      <trkpt lat="46.78644" lon="-1.52608">
        <ele>29.8</ele>
        <time>2024-04-25T18:11:06Z</time>
      </trkpt>
      <trkpt lat="46.78643" lon="-1.52598">
        <ele>29.6</ele>
        <time>2024-04-25T18:11:07Z</time>
      </trkpt>
      <trkpt lat="46.78641" lon="-1.52589">
        <ele>29.6</ele>
        <time>2024-04-25T18:11:08Z</time>
      </trkpt>
      <trkpt lat="46.78639" lon="-1.5258">
        <ele>29.6</ele>
        <time>2024-04-25T18:11:09Z</time>
      </trkpt>
      <trkpt lat="46.78636" lon="-1.52571">
        <ele>29.6</ele>
        <time>2024-04-25T18:11:10Z</time>
      </trkpt>
      <trkpt lat="46.78633" lon="-1.52563">
        <ele>29.6</ele>
        <time>2024-04-25T18:11:11Z</time>
      </trkpt>
      <trkpt lat="46.7863" lon="-1.52556">
        <ele>29.6</ele>
        <time>2024-04-25T18:11:12Z</time>
      </trkpt>
      <trkpt lat="46.78626" lon="-1.52549">
        <ele>29.6</ele>
        <time>2024-04-25T18:11:13Z</time>
      </trkpt>
      <trkpt lat="46.78621" lon="-1.52543">
        <ele>29.4</ele>
        <time>2024-04-25T18:11:14Z</time>
      </trkpt>
      <trkpt lat="46.78616" lon="-1.52537">
        <ele>29.4</ele>
        <time>2024-04-25T18:11:15Z</time>
      </trkpt>
      <trkpt lat="46.7861" lon="-1.52531">
        <ele>29.4</ele>
        <time>2024-04-25T18:11:16Z</time>
      </trkpt>
      <trkpt lat="46.78605" lon="-1.52525">
        <ele>29.2</ele>
        <time>2024-04-25T18:11:17Z</time>
      </trkpt>
      <trkpt lat="46.786" lon="-1.5252">
        <ele>29.2</ele>
        <time>2024-04-25T18:11:18Z</time>
      </trkpt>
      <trkpt lat="46.78596" lon="-1.52514">
        <ele>29.2</ele>
        <time>2024-04-25T18:11:19Z</time>
      </trkpt>
      <trkpt lat="46.78592" lon="-1.52509">
        <ele>29.4</ele>
        <time>2024-04-25T18:11:20Z</time>
      </trkpt>
      <trkpt lat="46.78591" lon="-1.52502">
        <ele>29.8</ele>
        <time>2024-04-25T18:11:21Z</time>
      </trkpt>
      <trkpt lat="46.7859" lon="-1.52496">
        <ele>30.2</ele>
        <time>2024-04-25T18:11:22Z</time>
      </trkpt>
      <trkpt lat="46.78591" lon="-1.52491">
        <ele>30.6</ele>
        <time>2024-04-25T18:11:23Z</time>
      </trkpt>
      <trkpt lat="46.78591" lon="-1.52487">
        <ele>30.8</ele>
        <time>2024-04-25T18:11:24Z</time>
      </trkpt>
      <trkpt lat="46.78591" lon="-1.52483">
        <ele>31.2</ele>
        <time>2024-04-25T18:11:25Z</time>
      </trkpt>
      <trkpt lat="46.78592" lon="-1.52476">
        <ele>31.6</ele>
        <time>2024-04-25T18:11:26Z</time>
      </trkpt>
      <trkpt lat="46.78593" lon="-1.52474">
        <ele>31.8</ele>
        <time>2024-04-25T18:11:27Z</time>
      </trkpt>
      <trkpt lat="46.78593" lon="-1.5247">
        <ele>32</ele>
        <time>2024-04-25T18:11:28Z</time>
      </trkpt>
      <trkpt lat="46.78593" lon="-1.52466">
        <ele>32.4</ele>
        <time>2024-04-25T18:11:29Z</time>
      </trkpt>
      <trkpt lat="46.78594" lon="-1.52462">
        <ele>32.6</ele>
        <time>2024-04-25T18:11:30Z</time>
      </trkpt>
      <trkpt lat="46.78594" lon="-1.52458">
        <ele>33</ele>
        <time>2024-04-25T18:11:31Z</time>
      </trkpt>
      <trkpt lat="46.78595" lon="-1.52454">
        <ele>33.2</ele>
        <time>2024-04-25T18:11:32Z</time>
      </trkpt>
      <trkpt lat="46.78596" lon="-1.52451">
        <ele>33.6</ele>
        <time>2024-04-25T18:11:33Z</time>
      </trkpt>
      <trkpt lat="46.78597" lon="-1.52448">
        <ele>34</ele>
        <time>2024-04-25T18:11:34Z</time>
      </trkpt>
      <trkpt lat="46.78599" lon="-1.52443">
        <ele>34.4</ele>
        <time>2024-04-25T18:11:35Z</time>
      </trkpt>
      <trkpt lat="46.786" lon="-1.52442">
        <ele>34.6</ele>
        <time>2024-04-25T18:11:36Z</time>
      </trkpt>
      <trkpt lat="46.78602" lon="-1.5244">
        <ele>35</ele>
        <time>2024-04-25T18:11:37Z</time>
      </trkpt>
      <trkpt lat="46.78603" lon="-1.52438">
        <ele>35.4</ele>
        <time>2024-04-25T18:11:38Z</time>
      </trkpt>
      <trkpt lat="46.78605" lon="-1.52435">
        <ele>35.6</ele>
        <time>2024-04-25T18:11:39Z</time>
      </trkpt>
      <trkpt lat="46.78607" lon="-1.52433">
        <ele>36</ele>
        <time>2024-04-25T18:11:40Z</time>
      </trkpt>
      <trkpt lat="46.78609" lon="-1.5243">
        <ele>36.2</ele>
        <time>2024-04-25T18:11:41Z</time>
      </trkpt>
      <trkpt lat="46.7861" lon="-1.52427">
        <ele>36.4</ele>
        <time>2024-04-25T18:11:42Z</time>
      </trkpt>
      <trkpt lat="46.78612" lon="-1.52424">
        <ele>36.6</ele>
        <time>2024-04-25T18:11:43Z</time>
      </trkpt>
      <trkpt lat="46.78614" lon="-1.52421">
        <ele>36.6</ele>
        <time>2024-04-25T18:11:44Z</time>
      </trkpt>
      <trkpt lat="46.78616" lon="-1.52418">
        <ele>36.6</ele>
        <time>2024-04-25T18:11:45Z</time>
      </trkpt>
      <trkpt lat="46.78618" lon="-1.52415">
        <ele>36.6</ele>
        <time>2024-04-25T18:11:46Z</time>
      </trkpt>
      <trkpt lat="46.78619" lon="-1.52413">
        <ele>36.6</ele>
        <time>2024-04-25T18:11:47Z</time>
      </trkpt>
      <trkpt lat="46.78621" lon="-1.5241">
        <ele>36.4</ele>
        <time>2024-04-25T18:11:48Z</time>
      </trkpt>
      <trkpt lat="46.78624" lon="-1.52407">
        <ele>36.4</ele>
        <time>2024-04-25T18:11:49Z</time>
      </trkpt>
      <trkpt lat="46.78626" lon="-1.52404">
        <ele>36.2</ele>
        <time>2024-04-25T18:11:50Z</time>
      </trkpt>
      <trkpt lat="46.78628" lon="-1.52402">
        <ele>36.2</ele>
        <time>2024-04-25T18:11:51Z</time>
      </trkpt>
      <trkpt lat="46.7863" lon="-1.52401">
        <ele>36.2</ele>
        <time>2024-04-25T18:11:52Z</time>
      </trkpt>
      <trkpt lat="46.78632" lon="-1.524">
        <ele>36.4</ele>
        <time>2024-04-25T18:11:53Z</time>
      </trkpt>
      <trkpt lat="46.78634" lon="-1.524">
        <ele>36.4</ele>
        <time>2024-04-25T18:11:54Z</time>
      </trkpt>
      <trkpt lat="46.78636" lon="-1.524">
        <ele>36.4</ele>
        <time>2024-04-25T18:11:55Z</time>
      </trkpt>
      <trkpt lat="46.78638" lon="-1.524">
        <ele>36.4</ele>
        <time>2024-04-25T18:11:56Z</time>
      </trkpt>
      <trkpt lat="46.7864" lon="-1.524">
        <ele>36.6</ele>
        <time>2024-04-25T18:11:57Z</time>
      </trkpt>
      <trkpt lat="46.78643" lon="-1.52401">
        <ele>36.6</ele>
        <time>2024-04-25T18:11:58Z</time>
      </trkpt>
      <trkpt lat="46.78645" lon="-1.52401">
        <ele>36.8</ele>
        <time>2024-04-25T18:11:59Z</time>
      </trkpt>
      <trkpt lat="46.78647" lon="-1.52402">
        <ele>37</ele>
        <time>2024-04-25T18:12:00Z</time>
      </trkpt>
      <trkpt lat="46.78649" lon="-1.52402">
        <ele>37</ele>
        <time>2024-04-25T18:12:01Z</time>
      </trkpt>
      <trkpt lat="46.78651" lon="-1.52401">
        <ele>37.2</ele>
        <time>2024-04-25T18:12:02Z</time>
      </trkpt>
      <trkpt lat="46.78654" lon="-1.52401">
        <ele>37.2</ele>
        <time>2024-04-25T18:12:03Z</time>
      </trkpt>
      <trkpt lat="46.78657" lon="-1.524">
        <ele>37.2</ele>
        <time>2024-04-25T18:12:04Z</time>
      </trkpt>
      <trkpt lat="46.7866" lon="-1.52399">
        <ele>37.2</ele>
        <time>2024-04-25T18:12:05Z</time>
      </trkpt>
      <trkpt lat="46.78662" lon="-1.52397">
        <ele>37.4</ele>
        <time>2024-04-25T18:12:06Z</time>
      </trkpt>
      <trkpt lat="46.78665" lon="-1.52395">
        <ele>37.6</ele>
        <time>2024-04-25T18:12:07Z</time>
      </trkpt>
      <trkpt lat="46.78667" lon="-1.52393">
        <ele>37.8</ele>
        <time>2024-04-25T18:12:08Z</time>
      </trkpt>
      <trkpt lat="46.78669" lon="-1.52391">
        <ele>38</ele>
        <time>2024-04-25T18:12:09Z</time>
      </trkpt>
      <trkpt lat="46.78671" lon="-1.52388">
        <ele>38.2</ele>
        <time>2024-04-25T18:12:10Z</time>
      </trkpt>
      <trkpt lat="46.78672" lon="-1.52386">
        <ele>38.6</ele>
        <time>2024-04-25T18:12:11Z</time>
      </trkpt>
      <trkpt lat="46.78674" lon="-1.52384">
        <ele>39</ele>
        <time>2024-04-25T18:12:12Z</time>
      </trkpt>
      <trkpt lat="46.78676" lon="-1.52383">
        <ele>39.4</ele>
        <time>2024-04-25T18:12:13Z</time>
      </trkpt>
      <trkpt lat="46.78677" lon="-1.52382">
        <ele>39.8</ele>
        <time>2024-04-25T18:12:14Z</time>
      </trkpt>
      <trkpt lat="46.78679" lon="-1.52381">
        <ele>40.4</ele>
        <time>2024-04-25T18:12:15Z</time>
      </trkpt>
      <trkpt lat="46.7868" lon="-1.52381">
        <ele>40.8</ele>
        <time>2024-04-25T18:12:16Z</time>
      </trkpt>
      <trkpt lat="46.78682" lon="-1.5238">
        <ele>41.4</ele>
        <time>2024-04-25T18:12:17Z</time>
      </trkpt>
      <trkpt lat="46.78683" lon="-1.52379">
        <ele>41.8</ele>
        <time>2024-04-25T18:12:18Z</time>
      </trkpt>
      <trkpt lat="46.78685" lon="-1.52378">
        <ele>42.2</ele>
        <time>2024-04-25T18:12:19Z</time>
      </trkpt>
      <trkpt lat="46.78686" lon="-1.52376">
        <ele>42.8</ele>
        <time>2024-04-25T18:12:20Z</time>
      </trkpt>
      <trkpt lat="46.78688" lon="-1.52374">
        <ele>43.4</ele>
        <time>2024-04-25T18:12:21Z</time>
      </trkpt>
      <trkpt lat="46.78689" lon="-1.52372">
        <ele>43.8</ele>
        <time>2024-04-25T18:12:22Z</time>
      </trkpt>
      <trkpt lat="46.7869" lon="-1.52371">
        <ele>44.4</ele>
        <time>2024-04-25T18:12:23Z</time>
      </trkpt>
      <trkpt lat="46.78692" lon="-1.52369">
        <ele>44.8</ele>
        <time>2024-04-25T18:12:24Z</time>
      </trkpt>
      <trkpt lat="46.78693" lon="-1.52367">
        <ele>45.4</ele>
        <time>2024-04-25T18:12:25Z</time>
      </trkpt>
      <trkpt lat="46.78695" lon="-1.52365">
        <ele>46</ele>
        <time>2024-04-25T18:12:27Z</time>
      </trkpt>
      <trkpt lat="46.78696" lon="-1.52364">
        <ele>46.4</ele>
        <time>2024-04-25T18:12:28Z</time>
      </trkpt>
      <trkpt lat="46.78698" lon="-1.52362">
        <ele>47</ele>
        <time>2024-04-25T18:12:29Z</time>
      </trkpt>
      <trkpt lat="46.78699" lon="-1.52361">
        <ele>47.4</ele>
        <time>2024-04-25T18:12:30Z</time>
      </trkpt>
      <trkpt lat="46.78701" lon="-1.52359">
        <ele>48</ele>
        <time>2024-04-25T18:12:31Z</time>
      </trkpt>
      <trkpt lat="46.78703" lon="-1.52357">
        <ele>48.4</ele>
        <time>2024-04-25T18:12:32Z</time>
      </trkpt>
      <trkpt lat="46.78704" lon="-1.52355">
        <ele>49</ele>
        <time>2024-04-25T18:12:33Z</time>
      </trkpt>
      <trkpt lat="46.78706" lon="-1.52354">
        <ele>49.4</ele>
        <time>2024-04-25T18:12:34Z</time>
      </trkpt>
      <trkpt lat="46.78707" lon="-1.52352">
        <ele>49.8</ele>
        <time>2024-04-25T18:12:35Z</time>
      </trkpt>
      <trkpt lat="46.78708" lon="-1.5235">
        <ele>50.4</ele>
        <time>2024-04-25T18:12:36Z</time>
      </trkpt>
      <trkpt lat="46.78708" lon="-1.52348">
        <ele>50.8</ele>
        <time>2024-04-25T18:12:37Z</time>
      </trkpt>
      <trkpt lat="46.78708" lon="-1.52346">
        <ele>51.4</ele>
        <time>2024-04-25T18:12:38Z</time>
      </trkpt>
      <trkpt lat="46.78708" lon="-1.52344">
        <ele>51.8</ele>
        <time>2024-04-25T18:12:39Z</time>
      </trkpt>
      <trkpt lat="46.78707" lon="-1.52342">
        <ele>52</ele>
        <time>2024-04-25T18:12:40Z</time>
      </trkpt>
      <trkpt lat="46.78707" lon="-1.52339">
        <ele>52.4</ele>
        <time>2024-04-25T18:12:41Z</time>
      </trkpt>
      <trkpt lat="46.78707" lon="-1.52337">
        <ele>52.6</ele>
        <time>2024-04-25T18:12:42Z</time>
      </trkpt>
      <trkpt lat="46.78706" lon="-1.52335">
        <ele>52.8</ele>
        <time>2024-04-25T18:12:43Z</time>
      </trkpt>
      <trkpt lat="46.78706" lon="-1.52332">
        <ele>53</ele>
        <time>2024-04-25T18:12:44Z</time>
      </trkpt>
      <trkpt lat="46.78706" lon="-1.5233">
        <ele>53.2</ele>
        <time>2024-04-25T18:12:45Z</time>
      </trkpt>
      <trkpt lat="46.78706" lon="-1.52328">
        <ele>53.4</ele>
        <time>2024-04-25T18:12:46Z</time>
      </trkpt>
      <trkpt lat="46.78706" lon="-1.52327">
        <ele>53.4</ele>
        <time>2024-04-25T18:12:47Z</time>
      </trkpt>
      <trkpt lat="46.78706" lon="-1.52325">
        <ele>53.6</ele>
        <time>2024-04-25T18:12:48Z</time>
      </trkpt>
      <trkpt lat="46.78705" lon="-1.52323">
        <ele>53.8</ele>
        <time>2024-04-25T18:12:49Z</time>
      </trkpt>
      <trkpt lat="46.78705" lon="-1.52322">
        <ele>53.8</ele>
        <time>2024-04-25T18:12:50Z</time>
      </trkpt>
      <trkpt lat="46.78705" lon="-1.5232">
        <ele>54</ele>
        <time>2024-04-25T18:12:51Z</time>
      </trkpt>
      <trkpt lat="46.78705" lon="-1.52319">
        <ele>54</ele>
        <time>2024-04-25T18:12:52Z</time>
      </trkpt>
      <trkpt lat="46.78705" lon="-1.52317">
        <ele>54</ele>
        <time>2024-04-25T18:12:53Z</time>
      </trkpt>
      <trkpt lat="46.78705" lon="-1.52316">
        <ele>54</ele>
        <time>2024-04-25T18:12:54Z</time>
      </trkpt>
      <trkpt lat="46.78705" lon="-1.52315">
        <ele>54.2</ele>
        <time>2024-04-25T18:12:55Z</time>
      </trkpt>
      <trkpt lat="46.78704" lon="-1.52313">
        <ele>54.2</ele>
        <time>2024-04-25T18:12:56Z</time>
      </trkpt>
      <trkpt lat="46.78704" lon="-1.52311">
        <ele>54.2</ele>
        <time>2024-04-25T18:12:57Z</time>
      </trkpt>
      <trkpt lat="46.78704" lon="-1.52309">
        <ele>54.2</ele>
        <time>2024-04-25T18:12:58Z</time>
      </trkpt>
      <trkpt lat="46.78703" lon="-1.52307">
        <ele>54.2</ele>
        <time>2024-04-25T18:12:59Z</time>
      </trkpt>
      <trkpt lat="46.78703" lon="-1.52305">
        <ele>54.2</ele>
        <time>2024-04-25T18:13:00Z</time>
      </trkpt>
      <trkpt lat="46.78703" lon="-1.52303">
        <ele>54.2</ele>
        <time>2024-04-25T18:13:01Z</time>
      </trkpt>
      <trkpt lat="46.78702" lon="-1.52301">
        <ele>54.2</ele>
        <time>2024-04-25T18:13:02Z</time>
      </trkpt>
      <trkpt lat="46.78702" lon="-1.52299">
        <ele>54.2</ele>
        <time>2024-04-25T18:13:03Z</time>
      </trkpt>
      <trkpt lat="46.78702" lon="-1.52296">
        <ele>54.4</ele>
        <time>2024-04-25T18:13:04Z</time>
      </trkpt>
      <trkpt lat="46.78701" lon="-1.52294">
        <ele>54.4</ele>
        <time>2024-04-25T18:13:05Z</time>
      </trkpt>
      <trkpt lat="46.78701" lon="-1.52292">
        <ele>54.4</ele>
        <time>2024-04-25T18:13:06Z</time>
      </trkpt>
      <trkpt lat="46.787" lon="-1.5229">
        <ele>54.4</ele>
        <time>2024-04-25T18:13:07Z</time>
      </trkpt>
      <trkpt lat="46.787" lon="-1.52287">
        <ele>54.4</ele>
        <time>2024-04-25T18:13:08Z</time>
      </trkpt>
      <trkpt lat="46.78699" lon="-1.52285">
        <ele>54.6</ele>
        <time>2024-04-25T18:13:09Z</time>
      </trkpt>
      <trkpt lat="46.78699" lon="-1.52282">
        <ele>54.6</ele>
        <time>2024-04-25T18:13:10Z</time>
      </trkpt>
      <trkpt lat="46.78698" lon="-1.5228">
        <ele>54.6</ele>
        <time>2024-04-25T18:13:11Z</time>
      </trkpt>
      <trkpt lat="46.78698" lon="-1.52277">
        <ele>54.6</ele>
        <time>2024-04-25T18:13:12Z</time>
      </trkpt>
      <trkpt lat="46.78697" lon="-1.52274">
        <ele>54.6</ele>
        <time>2024-04-25T18:13:13Z</time>
      </trkpt>
      <trkpt lat="46.78696" lon="-1.52271">
        <ele>54.6</ele>
        <time>2024-04-25T18:13:14Z</time>
      </trkpt>
      <trkpt lat="46.78696" lon="-1.52268">
        <ele>54.6</ele>
        <time>2024-04-25T18:13:15Z</time>
      </trkpt>
      <trkpt lat="46.78696" lon="-1.52265">
        <ele>54.6</ele>
        <time>2024-04-25T18:13:16Z</time>
      </trkpt>
      <trkpt lat="46.78696" lon="-1.52263">
        <ele>54.6</ele>
        <time>2024-04-25T18:13:17Z</time>
      </trkpt>
      <trkpt lat="46.78697" lon="-1.52262">
        <ele>54.6</ele>
        <time>2024-04-25T18:13:18Z</time>
      </trkpt>
      <trkpt lat="46.78697" lon="-1.5226">
        <ele>54.6</ele>
        <time>2024-04-25T18:13:19Z</time>
      </trkpt>
      <trkpt lat="46.78698" lon="-1.52259">
        <ele>54.6</ele>
        <time>2024-04-25T18:13:20Z</time>
      </trkpt>
      <trkpt lat="46.78699" lon="-1.52258">
        <ele>54.6</ele>
        <time>2024-04-25T18:13:21Z</time>
      </trkpt>
      <trkpt lat="46.78701" lon="-1.52257">
        <ele>54.6</ele>
        <time>2024-04-25T18:13:22Z</time>
      </trkpt>
      <trkpt lat="46.78702" lon="-1.52256">
        <ele>54.6</ele>
        <time>2024-04-25T18:13:23Z</time>
      </trkpt>
      <trkpt lat="46.78704" lon="-1.52255">
        <ele>54.6</ele>
        <time>2024-04-25T18:13:24Z</time>
      </trkpt>
      <trkpt lat="46.78705" lon="-1.52253">
        <ele>54.6</ele>
        <time>2024-04-25T18:13:25Z</time>
      </trkpt>
      <trkpt lat="46.78707" lon="-1.52251">
        <ele>54.8</ele>
        <time>2024-04-25T18:13:26Z</time>
      </trkpt>
      <trkpt lat="46.78708" lon="-1.52249">
        <ele>54.8</ele>
        <time>2024-04-25T18:13:27Z</time>
      </trkpt>
      <trkpt lat="46.78709" lon="-1.52247">
        <ele>54.8</ele>
        <time>2024-04-25T18:13:28Z</time>
      </trkpt>
      <trkpt lat="46.78709" lon="-1.52244">
        <ele>54.8</ele>
        <time>2024-04-25T18:13:29Z</time>
      </trkpt>
      <trkpt lat="46.78709" lon="-1.5224">
        <ele>54.8</ele>
        <time>2024-04-25T18:13:30Z</time>
      </trkpt>
      <trkpt lat="46.78708" lon="-1.52236">
        <ele>54.8</ele>
        <time>2024-04-25T18:13:31Z</time>
      </trkpt>
      <trkpt lat="46.78707" lon="-1.52233">
        <ele>54.8</ele>
        <time>2024-04-25T18:13:32Z</time>
      </trkpt>
      <trkpt lat="46.78707" lon="-1.5223">
        <ele>54.8</ele>
        <time>2024-04-25T18:13:33Z</time>
      </trkpt>
      <trkpt lat="46.78706" lon="-1.52227">
        <ele>54.8</ele>
        <time>2024-04-25T18:13:34Z</time>
      </trkpt>
      <trkpt lat="46.78705" lon="-1.52224">
        <ele>54.8</ele>
        <time>2024-04-25T18:13:35Z</time>
      </trkpt>
      <trkpt lat="46.78705" lon="-1.52221">
        <ele>54.8</ele>
        <time>2024-04-25T18:13:36Z</time>
      </trkpt>
      <trkpt lat="46.78704" lon="-1.52217">
        <ele>54.8</ele>
        <time>2024-04-25T18:13:37Z</time>
      </trkpt>
      <trkpt lat="46.78704" lon="-1.52214">
        <ele>55</ele>
        <time>2024-04-25T18:13:38Z</time>
      </trkpt>
      <trkpt lat="46.78704" lon="-1.52211">
        <ele>55</ele>
        <time>2024-04-25T18:13:39Z</time>
      </trkpt>
      <trkpt lat="46.78703" lon="-1.52208">
        <ele>55</ele>
        <time>2024-04-25T18:13:40Z</time>
      </trkpt>
      <trkpt lat="46.78703" lon="-1.52205">
        <ele>55</ele>
        <time>2024-04-25T18:13:41Z</time>
      </trkpt>
      <trkpt lat="46.78702" lon="-1.52202">
        <ele>55</ele>
        <time>2024-04-25T18:13:42Z</time>
      </trkpt>
      <trkpt lat="46.78702" lon="-1.52199">
        <ele>55.2</ele>
        <time>2024-04-25T18:13:43Z</time>
      </trkpt>
      <trkpt lat="46.78701" lon="-1.52196">
        <ele>55.2</ele>
        <time>2024-04-25T18:13:44Z</time>
      </trkpt>
      <trkpt lat="46.78701" lon="-1.52193">
        <ele>55.2</ele>
        <time>2024-04-25T18:13:45Z</time>
      </trkpt>
      <trkpt lat="46.787" lon="-1.5219">
        <ele>55.2</ele>
        <time>2024-04-25T18:13:46Z</time>
      </trkpt>
      <trkpt lat="46.787" lon="-1.52186">
        <ele>55.2</ele>
        <time>2024-04-25T18:13:47Z</time>
      </trkpt>
      <trkpt lat="46.787" lon="-1.52183">
        <ele>55.2</ele>
        <time>2024-04-25T18:13:48Z</time>
      </trkpt>
      <trkpt lat="46.78699" lon="-1.5218">
        <ele>55.2</ele>
        <time>2024-04-25T18:13:49Z</time>
      </trkpt>
      <trkpt lat="46.78698" lon="-1.52177">
        <ele>55.2</ele>
        <time>2024-04-25T18:13:50Z</time>
      </trkpt>
      <trkpt lat="46.78698" lon="-1.52174">
        <ele>55.4</ele>
        <time>2024-04-25T18:13:52Z</time>
      </trkpt>
      <trkpt lat="46.78697" lon="-1.52171">
        <ele>55.4</ele>
        <time>2024-04-25T18:13:53Z</time>
      </trkpt>
      <trkpt lat="46.78697" lon="-1.52167">
        <ele>55.4</ele>
        <time>2024-04-25T18:13:54Z</time>
      </trkpt>
      <trkpt lat="46.78697" lon="-1.52164">
        <ele>55.6</ele>
        <time>2024-04-25T18:13:55Z</time>
      </trkpt>
      <trkpt lat="46.78697" lon="-1.52161">
        <ele>55.6</ele>
        <time>2024-04-25T18:13:56Z</time>
      </trkpt>
      <trkpt lat="46.78697" lon="-1.52158">
        <ele>55.8</ele>
        <time>2024-04-25T18:13:57Z</time>
      </trkpt>
      <trkpt lat="46.78698" lon="-1.52155">
        <ele>55.8</ele>
        <time>2024-04-25T18:13:58Z</time>
      </trkpt>
      <trkpt lat="46.78699" lon="-1.52153">
        <ele>56</ele>
        <time>2024-04-25T18:13:59Z</time>
      </trkpt>
      <trkpt lat="46.787" lon="-1.52151">
        <ele>56</ele>
        <time>2024-04-25T18:14:00Z</time>
      </trkpt>
      <trkpt lat="46.78702" lon="-1.5215">
        <ele>56.2</ele>
        <time>2024-04-25T18:14:01Z</time>
      </trkpt>
      <trkpt lat="46.78704" lon="-1.52149">
        <ele>56.2</ele>
        <time>2024-04-25T18:14:02Z</time>
      </trkpt>
      <trkpt lat="46.78706" lon="-1.52148">
        <ele>56.4</ele>
        <time>2024-04-25T18:14:03Z</time>
      </trkpt>
      <trkpt lat="46.78708" lon="-1.52147">
        <ele>56.4</ele>
        <time>2024-04-25T18:14:04Z</time>
      </trkpt>
      <trkpt lat="46.7871" lon="-1.52147">
        <ele>56.4</ele>
        <time>2024-04-25T18:14:05Z</time>
      </trkpt>
      <trkpt lat="46.78712" lon="-1.52146">
        <ele>56.6</ele>
        <time>2024-04-25T18:14:06Z</time>
      </trkpt>
      <trkpt lat="46.78713" lon="-1.52146">
        <ele>56.6</ele>
        <time>2024-04-25T18:14:07Z</time>
      </trkpt>
      <trkpt lat="46.78715" lon="-1.52145">
        <ele>56.8</ele>
        <time>2024-04-25T18:14:08Z</time>
      </trkpt>
      <trkpt lat="46.78717" lon="-1.52144">
        <ele>56.8</ele>
        <time>2024-04-25T18:14:09Z</time>
      </trkpt>
      <trkpt lat="46.78719" lon="-1.52144">
        <ele>56.8</ele>
        <time>2024-04-25T18:14:10Z</time>
      </trkpt>
      <trkpt lat="46.7872" lon="-1.52143">
        <ele>57</ele>
        <time>2024-04-25T18:14:11Z</time>
      </trkpt>
      <trkpt lat="46.78722" lon="-1.52142">
        <ele>57</ele>
        <time>2024-04-25T18:14:12Z</time>
      </trkpt>
      <trkpt lat="46.78724" lon="-1.52141">
        <ele>57</ele>
        <time>2024-04-25T18:14:13Z</time>
      </trkpt>
      <trkpt lat="46.78725" lon="-1.5214">
        <ele>57.2</ele>
        <time>2024-04-25T18:14:14Z</time>
      </trkpt>
      <trkpt lat="46.78727" lon="-1.52139">
        <ele>57.2</ele>
        <time>2024-04-25T18:14:15Z</time>
      </trkpt>
      <trkpt lat="46.78729" lon="-1.52138">
        <ele>57.2</ele>
        <time>2024-04-25T18:14:16Z</time>
      </trkpt>
      <trkpt lat="46.7873" lon="-1.52138">
        <ele>57.2</ele>
        <time>2024-04-25T18:14:17Z</time>
      </trkpt>
      <trkpt lat="46.78732" lon="-1.52137">
        <ele>57.4</ele>
        <time>2024-04-25T18:14:18Z</time>
      </trkpt>
      <trkpt lat="46.78734" lon="-1.52136">
        <ele>57.4</ele>
        <time>2024-04-25T18:14:19Z</time>
      </trkpt>
      <trkpt lat="46.78735" lon="-1.52135">
        <ele>57.4</ele>
        <time>2024-04-25T18:14:20Z</time>
      </trkpt>
      <trkpt lat="46.78737" lon="-1.52134">
        <ele>57.6</ele>
        <time>2024-04-25T18:14:21Z</time>
      </trkpt>
      <trkpt lat="46.78739" lon="-1.52133">
        <ele>57.6</ele>
        <time>2024-04-25T18:14:22Z</time>
      </trkpt>
      <trkpt lat="46.7874" lon="-1.52132">
        <ele>57.6</ele>
        <time>2024-04-25T18:14:23Z</time>
      </trkpt>
      <trkpt lat="46.78742" lon="-1.52131">
        <ele>57.6</ele>
        <time>2024-04-25T18:14:24Z</time>
      </trkpt>
      <trkpt lat="46.78744" lon="-1.5213">
        <ele>57.6</ele>
        <time>2024-04-25T18:14:25Z</time>
      </trkpt>
      <trkpt lat="46.78746" lon="-1.52129">
        <ele>57.6</ele>
        <time>2024-04-25T18:14:26Z</time>
      </trkpt>
      <trkpt lat="46.78747" lon="-1.52128">
        <ele>57.6</ele>
        <time>2024-04-25T18:14:27Z</time>
      </trkpt>
      <trkpt lat="46.78749" lon="-1.52127">
        <ele>57.8</ele>
        <time>2024-04-25T18:14:28Z</time>
      </trkpt>
      <trkpt lat="46.78751" lon="-1.52126">
        <ele>57.8</ele>
        <time>2024-04-25T18:14:29Z</time>
      </trkpt>
      <trkpt lat="46.78753" lon="-1.52125">
        <ele>57.8</ele>
        <time>2024-04-25T18:14:30Z</time>
      </trkpt>
      <trkpt lat="46.78755" lon="-1.52124">
        <ele>57.8</ele>
        <time>2024-04-25T18:14:31Z</time>
      </trkpt>
      <trkpt lat="46.78757" lon="-1.52123">
        <ele>57.8</ele>
        <time>2024-04-25T18:14:32Z</time>
      </trkpt>
      <trkpt lat="46.78759" lon="-1.52122">
        <ele>57.8</ele>
        <time>2024-04-25T18:14:33Z</time>
      </trkpt>
      <trkpt lat="46.78761" lon="-1.52121">
        <ele>57.8</ele>
        <time>2024-04-25T18:14:34Z</time>
      </trkpt>
      <trkpt lat="46.78763" lon="-1.5212">
        <ele>58</ele>
        <time>2024-04-25T18:14:35Z</time>
      </trkpt>
      <trkpt lat="46.78765" lon="-1.52119">
        <ele>58</ele>
        <time>2024-04-25T18:14:36Z</time>
      </trkpt>
      <trkpt lat="46.78767" lon="-1.52118">
        <ele>58</ele>
        <time>2024-04-25T18:14:37Z</time>
      </trkpt>
      <trkpt lat="46.7877" lon="-1.52117">
        <ele>58</ele>
        <time>2024-04-25T18:14:38Z</time>
      </trkpt>
      <trkpt lat="46.78772" lon="-1.52115">
        <ele>58</ele>
        <time>2024-04-25T18:14:39Z</time>
      </trkpt>
      <trkpt lat="46.78774" lon="-1.52114">
        <ele>58.2</ele>
        <time>2024-04-25T18:14:40Z</time>
      </trkpt>
      <trkpt lat="46.78776" lon="-1.52113">
        <ele>58.2</ele>
        <time>2024-04-25T18:14:41Z</time>
      </trkpt>
      <trkpt lat="46.78779" lon="-1.52112">
        <ele>58.2</ele>
        <time>2024-04-25T18:14:42Z</time>
      </trkpt>
      <trkpt lat="46.78781" lon="-1.5211">
        <ele>58.2</ele>
        <time>2024-04-25T18:14:43Z</time>
      </trkpt>
      <trkpt lat="46.78783" lon="-1.52108">
        <ele>58.2</ele>
        <time>2024-04-25T18:14:44Z</time>
      </trkpt>
      <trkpt lat="46.78785" lon="-1.52106">
        <ele>58.2</ele>
        <time>2024-04-25T18:14:45Z</time>
      </trkpt>
      <trkpt lat="46.78786" lon="-1.52103">
        <ele>58.4</ele>
        <time>2024-04-25T18:14:46Z</time>
      </trkpt>
      <trkpt lat="46.78787" lon="-1.521">
        <ele>58.4</ele>
        <time>2024-04-25T18:14:47Z</time>
      </trkpt>
      <trkpt lat="46.78788" lon="-1.52096">
        <ele>58.4</ele>
        <time>2024-04-25T18:14:48Z</time>
      </trkpt>
      <trkpt lat="46.78788" lon="-1.52092">
        <ele>58.4</ele>
        <time>2024-04-25T18:14:49Z</time>
      </trkpt>
      <trkpt lat="46.78788" lon="-1.52088">
        <ele>58.4</ele>
        <time>2024-04-25T18:14:50Z</time>
      </trkpt>
      <trkpt lat="46.78787" lon="-1.52084">
        <ele>58.2</ele>
        <time>2024-04-25T18:14:51Z</time>
      </trkpt>
      <trkpt lat="46.78787" lon="-1.5208">
        <ele>58.2</ele>
        <time>2024-04-25T18:14:52Z</time>
      </trkpt>
      <trkpt lat="46.78786" lon="-1.52076">
        <ele>58.2</ele>
        <time>2024-04-25T18:14:53Z</time>
      </trkpt>
      <trkpt lat="46.78786" lon="-1.5207">
        <ele>58.2</ele>
        <time>2024-04-25T18:14:54Z</time>
      </trkpt>
      <trkpt lat="46.78785" lon="-1.52064">
        <ele>58</ele>
        <time>2024-04-25T18:14:55Z</time>
      </trkpt>
      <trkpt lat="46.78785" lon="-1.52059">
        <ele>58</ele>
        <time>2024-04-25T18:14:56Z</time>
      </trkpt>
      <trkpt lat="46.78784" lon="-1.52055">
        <ele>58</ele>
        <time>2024-04-25T18:14:57Z</time>
      </trkpt>
      <trkpt lat="46.78784" lon="-1.5205">
        <ele>58</ele>
        <time>2024-04-25T18:14:58Z</time>
      </trkpt>
      <trkpt lat="46.78784" lon="-1.52045">
        <ele>57.8</ele>
        <time>2024-04-25T18:14:59Z</time>
      </trkpt>
      <trkpt lat="46.78783" lon="-1.5204">
        <ele>57.8</ele>
        <time>2024-04-25T18:15:00Z</time>
      </trkpt>
      <trkpt lat="46.78783" lon="-1.52035">
        <ele>57.6</ele>
        <time>2024-04-25T18:15:01Z</time>
      </trkpt>
      <trkpt lat="46.78782" lon="-1.5203">
        <ele>57.6</ele>
        <time>2024-04-25T18:15:02Z</time>
      </trkpt>
      <trkpt lat="46.78782" lon="-1.52025">
        <ele>57.4</ele>
        <time>2024-04-25T18:15:03Z</time>
      </trkpt>
      <trkpt lat="46.78782" lon="-1.52019">
        <ele>57.4</ele>
        <time>2024-04-25T18:15:04Z</time>
      </trkpt>
      <trkpt lat="46.78781" lon="-1.52013">
        <ele>57.2</ele>
        <time>2024-04-25T18:15:05Z</time>
      </trkpt>
      <trkpt lat="46.78781" lon="-1.52007">
        <ele>57</ele>
        <time>2024-04-25T18:15:06Z</time>
      </trkpt>
      <trkpt lat="46.78781" lon="-1.52002">
        <ele>57</ele>
        <time>2024-04-25T18:15:07Z</time>
      </trkpt>
      <trkpt lat="46.78781" lon="-1.51997">
        <ele>56.8</ele>
        <time>2024-04-25T18:15:08Z</time>
      </trkpt>
      <trkpt lat="46.78781" lon="-1.51993">
        <ele>56.6</ele>
        <time>2024-04-25T18:15:09Z</time>
      </trkpt>
      <trkpt lat="46.7878" lon="-1.5199">
        <ele>56.6</ele>
        <time>2024-04-25T18:15:10Z</time>
      </trkpt>
      <trkpt lat="46.7878" lon="-1.51988">
        <ele>56.4</ele>
        <time>2024-04-25T18:15:11Z</time>
      </trkpt>
      <trkpt lat="46.7878" lon="-1.51986">
        <ele>56.2</ele>
        <time>2024-04-25T18:15:12Z</time>
      </trkpt>
      <trkpt lat="46.78779" lon="-1.51984">
        <ele>56.2</ele>
        <time>2024-04-25T18:15:13Z</time>
      </trkpt>
      <trkpt lat="46.78779" lon="-1.51983">
        <ele>56</ele>
        <time>2024-04-25T18:15:14Z</time>
      </trkpt>
      <trkpt lat="46.78778" lon="-1.51982">
        <ele>56</ele>
        <time>2024-04-25T18:15:16Z</time>
      </trkpt>
      <trkpt lat="46.78778" lon="-1.51981">
        <ele>56</ele>
        <time>2024-04-25T18:15:17Z</time>
      </trkpt>
      <trkpt lat="46.78778" lon="-1.5198">
        <ele>55.8</ele>
        <time>2024-04-25T18:15:18Z</time>
      </trkpt>
      <trkpt lat="46.78778" lon="-1.51978">
        <ele>55.8</ele>
        <time>2024-04-25T18:15:19Z</time>
      </trkpt>
      <trkpt lat="46.78778" lon="-1.51977">
        <ele>55.6</ele>
        <time>2024-04-25T18:15:20Z</time>
      </trkpt>
      <trkpt lat="46.78778" lon="-1.51975">
        <ele>55.6</ele>
        <time>2024-04-25T18:15:21Z</time>
      </trkpt>
      <trkpt lat="46.78778" lon="-1.51973">
        <ele>55.6</ele>
        <time>2024-04-25T18:15:22Z</time>
      </trkpt>
      <trkpt lat="46.78778" lon="-1.5197">
        <ele>55.6</ele>
        <time>2024-04-25T18:15:23Z</time>
      </trkpt>
      <trkpt lat="46.78778" lon="-1.51967">
        <ele>55.4</ele>
        <time>2024-04-25T18:15:24Z</time>
      </trkpt>
      <trkpt lat="46.78778" lon="-1.51965">
        <ele>55.4</ele>
        <time>2024-04-25T18:15:25Z</time>
      </trkpt>
      <trkpt lat="46.78778" lon="-1.51962">
        <ele>55.4</ele>
        <time>2024-04-25T18:15:26Z</time>
      </trkpt>
      <trkpt lat="46.78777" lon="-1.5196">
        <ele>55.2</ele>
        <time>2024-04-25T18:15:27Z</time>
      </trkpt>
      <trkpt lat="46.78777" lon="-1.51958">
        <ele>55.2</ele>
        <time>2024-04-25T18:15:28Z</time>
      </trkpt>
      <trkpt lat="46.78777" lon="-1.51956">
        <ele>55.2</ele>
        <time>2024-04-25T18:15:29Z</time>
      </trkpt>
      <trkpt lat="46.78778" lon="-1.51954">
        <ele>55</ele>
        <time>2024-04-25T18:15:30Z</time>
      </trkpt>
      <trkpt lat="46.78778" lon="-1.51951">
        <ele>55</ele>
        <time>2024-04-25T18:15:31Z</time>
      </trkpt>
      <trkpt lat="46.78778" lon="-1.51949">
        <ele>55</ele>
        <time>2024-04-25T18:15:32Z</time>
      </trkpt>
      <trkpt lat="46.78778" lon="-1.51947">
        <ele>54.8</ele>
        <time>2024-04-25T18:15:33Z</time>
      </trkpt>
      <trkpt lat="46.78779" lon="-1.51945">
        <ele>54.8</ele>
        <time>2024-04-25T18:15:34Z</time>
      </trkpt>
      <trkpt lat="46.78779" lon="-1.51943">
        <ele>54.8</ele>
        <time>2024-04-25T18:15:35Z</time>
      </trkpt>
      <trkpt lat="46.7878" lon="-1.51941">
        <ele>54.6</ele>
        <time>2024-04-25T18:15:36Z</time>
      </trkpt>
      <trkpt lat="46.7878" lon="-1.51939">
        <ele>54.6</ele>
        <time>2024-04-25T18:15:37Z</time>
      </trkpt>
      <trkpt lat="46.78781" lon="-1.51938">
        <ele>54.6</ele>
        <time>2024-04-25T18:15:38Z</time>
      </trkpt>
      <trkpt lat="46.78782" lon="-1.51937">
        <ele>54.6</ele>
        <time>2024-04-25T18:15:39Z</time>
      </trkpt>
      <trkpt lat="46.78782" lon="-1.51936">
        <ele>54.6</ele>
        <time>2024-04-25T18:15:40Z</time>
      </trkpt>
      <trkpt lat="46.78783" lon="-1.51935">
        <ele>54.6</ele>
        <time>2024-04-25T18:15:41Z</time>
      </trkpt>
      <trkpt lat="46.78784" lon="-1.51934">
        <ele>54.6</ele>
        <time>2024-04-25T18:15:42Z</time>
      </trkpt>
      <trkpt lat="46.78784" lon="-1.51933">
        <ele>54.6</ele>
        <time>2024-04-25T18:15:43Z</time>
      </trkpt>
      <trkpt lat="46.78785" lon="-1.51932">
        <ele>54.6</ele>
        <time>2024-04-25T18:15:44Z</time>
      </trkpt>
      <trkpt lat="46.78786" lon="-1.51931">
        <ele>54.6</ele>
        <time>2024-04-25T18:15:45Z</time>
      </trkpt>
      <trkpt lat="46.78787" lon="-1.5193">
        <ele>54.4</ele>
        <time>2024-04-25T18:15:46Z</time>
      </trkpt>
      <trkpt lat="46.78787" lon="-1.51929">
        <ele>54.4</ele>
        <time>2024-04-25T18:15:47Z</time>
      </trkpt>
      <trkpt lat="46.78788" lon="-1.51929">
        <ele>54.4</ele>
        <time>2024-04-25T18:15:48Z</time>
      </trkpt>
      <trkpt lat="46.78789" lon="-1.51928">
        <ele>54.4</ele>
        <time>2024-04-25T18:15:49Z</time>
      </trkpt>
      <trkpt lat="46.7879" lon="-1.51928">
        <ele>54.4</ele>
        <time>2024-04-25T18:15:50Z</time>
      </trkpt>
      <trkpt lat="46.78791" lon="-1.51927">
        <ele>54.4</ele>
        <time>2024-04-25T18:15:51Z</time>
      </trkpt>
      <trkpt lat="46.78792" lon="-1.51927">
        <ele>54.4</ele>
        <time>2024-04-25T18:15:52Z</time>
      </trkpt>
      <trkpt lat="46.78792" lon="-1.51926">
        <ele>54.4</ele>
        <time>2024-04-25T18:15:53Z</time>
      </trkpt>
      <trkpt lat="46.78793" lon="-1.51926">
        <ele>54.4</ele>
        <time>2024-04-25T18:15:54Z</time>
      </trkpt>
      <trkpt lat="46.78794" lon="-1.51925">
        <ele>54.4</ele>
        <time>2024-04-25T18:15:55Z</time>
      </trkpt>
      <trkpt lat="46.78795" lon="-1.51924">
        <ele>54.4</ele>
        <time>2024-04-25T18:15:56Z</time>
      </trkpt>
      <trkpt lat="46.78796" lon="-1.51924">
        <ele>54.4</ele>
        <time>2024-04-25T18:15:57Z</time>
      </trkpt>
      <trkpt lat="46.78797" lon="-1.51924">
        <ele>54.4</ele>
        <time>2024-04-25T18:15:58Z</time>
      </trkpt>
      <trkpt lat="46.78797" lon="-1.51923">
        <ele>54.4</ele>
        <time>2024-04-25T18:15:59Z</time>
      </trkpt>
      <trkpt lat="46.78798" lon="-1.51923">
        <ele>54.4</ele>
        <time>2024-04-25T18:16:00Z</time>
      </trkpt>
      <trkpt lat="46.78799" lon="-1.51922">
        <ele>54.4</ele>
        <time>2024-04-25T18:16:01Z</time>
      </trkpt>
      <trkpt lat="46.788" lon="-1.51922">
        <ele>54.4</ele>
        <time>2024-04-25T18:16:02Z</time>
      </trkpt>
      <trkpt lat="46.78801" lon="-1.51921">
        <ele>54.4</ele>
        <time>2024-04-25T18:16:03Z</time>
      </trkpt>
      <trkpt lat="46.78802" lon="-1.5192">
        <ele>54.4</ele>
        <time>2024-04-25T18:16:04Z</time>
      </trkpt>
      <trkpt lat="46.78803" lon="-1.5192">
        <ele>54.4</ele>
        <time>2024-04-25T18:16:05Z</time>
      </trkpt>
      <trkpt lat="46.78804" lon="-1.5192">
        <ele>54.4</ele>
        <time>2024-04-25T18:16:06Z</time>
      </trkpt>
      <trkpt lat="46.78805" lon="-1.51919">
        <ele>54.4</ele>
        <time>2024-04-25T18:16:07Z</time>
      </trkpt>
      <trkpt lat="46.78806" lon="-1.51919">
        <ele>54.4</ele>
        <time>2024-04-25T18:16:08Z</time>
      </trkpt>
      <trkpt lat="46.78807" lon="-1.51918">
        <ele>54.4</ele>
        <time>2024-04-25T18:16:09Z</time>
      </trkpt>
      <trkpt lat="46.78809" lon="-1.51917">
        <ele>54.4</ele>
        <time>2024-04-25T18:16:10Z</time>
      </trkpt>
      <trkpt lat="46.7881" lon="-1.51916">
        <ele>54.4</ele>
        <time>2024-04-25T18:16:11Z</time>
      </trkpt>
      <trkpt lat="46.78811" lon="-1.51915">
        <ele>54.6</ele>
        <time>2024-04-25T18:16:12Z</time>
      </trkpt>
      <trkpt lat="46.78813" lon="-1.51915">
        <ele>54.6</ele>
        <time>2024-04-25T18:16:13Z</time>
      </trkpt>
      <trkpt lat="46.78814" lon="-1.51914">
        <ele>54.6</ele>
        <time>2024-04-25T18:16:14Z</time>
      </trkpt>
      <trkpt lat="46.78816" lon="-1.51913">
        <ele>54.6</ele>
        <time>2024-04-25T18:16:15Z</time>
      </trkpt>
      <trkpt lat="46.78817" lon="-1.51913">
        <ele>54.6</ele>
        <time>2024-04-25T18:16:16Z</time>
      </trkpt>
      <trkpt lat="46.78819" lon="-1.51912">
        <ele>54.8</ele>
        <time>2024-04-25T18:16:17Z</time>
      </trkpt>
      <trkpt lat="46.78822" lon="-1.51911">
        <ele>54.8</ele>
        <time>2024-04-25T18:16:18Z</time>
      </trkpt>
      <trkpt lat="46.78824" lon="-1.5191">
        <ele>54.8</ele>
        <time>2024-04-25T18:16:19Z</time>
      </trkpt>
      <trkpt lat="46.78826" lon="-1.51909">
        <ele>55</ele>
        <time>2024-04-25T18:16:20Z</time>
      </trkpt>
      <trkpt lat="46.78828" lon="-1.51908">
        <ele>55</ele>
        <time>2024-04-25T18:16:21Z</time>
      </trkpt>
      <trkpt lat="46.7883" lon="-1.51907">
        <ele>55</ele>
        <time>2024-04-25T18:16:22Z</time>
      </trkpt>
      <trkpt lat="46.78832" lon="-1.51906">
        <ele>55.2</ele>
        <time>2024-04-25T18:16:23Z</time>
      </trkpt>
      <trkpt lat="46.78834" lon="-1.51905">
        <ele>55.2</ele>
        <time>2024-04-25T18:16:24Z</time>
      </trkpt>
      <trkpt lat="46.78836" lon="-1.51904">
        <ele>55.4</ele>
        <time>2024-04-25T18:16:25Z</time>
      </trkpt>
      <trkpt lat="46.78838" lon="-1.51903">
        <ele>55.4</ele>
        <time>2024-04-25T18:16:26Z</time>
      </trkpt>
      <trkpt lat="46.7884" lon="-1.51901">
        <ele>55.4</ele>
        <time>2024-04-25T18:16:27Z</time>
      </trkpt>
      <trkpt lat="46.78842" lon="-1.519">
        <ele>55.4</ele>
        <time>2024-04-25T18:16:28Z</time>
      </trkpt>
      <trkpt lat="46.78844" lon="-1.51898">
        <ele>55.6</ele>
        <time>2024-04-25T18:16:29Z</time>
      </trkpt>
      <trkpt lat="46.78845" lon="-1.51896">
        <ele>55.6</ele>
        <time>2024-04-25T18:16:30Z</time>
      </trkpt>
      <trkpt lat="46.78847" lon="-1.51894">
        <ele>55.6</ele>
        <time>2024-04-25T18:16:31Z</time>
      </trkpt>
      <trkpt lat="46.78848" lon="-1.51892">
        <ele>55.6</ele>
        <time>2024-04-25T18:16:32Z</time>
      </trkpt>
      <trkpt lat="46.78849" lon="-1.5189">
        <ele>55.6</ele>
        <time>2024-04-25T18:16:33Z</time>
      </trkpt>
      <trkpt lat="46.78849" lon="-1.51889">
        <ele>55.6</ele>
        <time>2024-04-25T18:16:34Z</time>
      </trkpt>
      <trkpt lat="46.78849" lon="-1.51887">
        <ele>55.6</ele>
        <time>2024-04-25T18:16:35Z</time>
      </trkpt>
      <trkpt lat="46.78849" lon="-1.51885">
        <ele>55.6</ele>
        <time>2024-04-25T18:16:36Z</time>
      </trkpt>
      <trkpt lat="46.78849" lon="-1.51884">
        <ele>55.6</ele>
        <time>2024-04-25T18:16:37Z</time>
      </trkpt>
      <trkpt lat="46.78849" lon="-1.51882">
        <ele>55.6</ele>
        <time>2024-04-25T18:16:38Z</time>
      </trkpt>
      <trkpt lat="46.78849" lon="-1.51881">
        <ele>55.6</ele>
        <time>2024-04-25T18:16:39Z</time>
      </trkpt>
      <trkpt lat="46.78849" lon="-1.51879">
        <ele>55.4</ele>
        <time>2024-04-25T18:16:41Z</time>
      </trkpt>
      <trkpt lat="46.78849" lon="-1.51878">
        <ele>55.4</ele>
        <time>2024-04-25T18:16:42Z</time>
      </trkpt>
      <trkpt lat="46.78849" lon="-1.51876">
        <ele>55.4</ele>
        <time>2024-04-25T18:16:43Z</time>
      </trkpt>
      <trkpt lat="46.78849" lon="-1.51874">
        <ele>55.4</ele>
        <time>2024-04-25T18:16:44Z</time>
      </trkpt>
      <trkpt lat="46.7885" lon="-1.51872">
        <ele>55.4</ele>
        <time>2024-04-25T18:16:45Z</time>
      </trkpt>
      <trkpt lat="46.7885" lon="-1.5187">
        <ele>55.4</ele>
        <time>2024-04-25T18:16:46Z</time>
      </trkpt>
      <trkpt lat="46.7885" lon="-1.51868">
        <ele>55.2</ele>
        <time>2024-04-25T18:16:47Z</time>
      </trkpt>
      <trkpt lat="46.78851" lon="-1.51867">
        <ele>55.2</ele>
        <time>2024-04-25T18:16:48Z</time>
      </trkpt>
      <trkpt lat="46.78851" lon="-1.51864">
        <ele>55.2</ele>
        <time>2024-04-25T18:16:49Z</time>
      </trkpt>
      <trkpt lat="46.78851" lon="-1.51864">
        <ele>55.2</ele>
        <time>2024-04-25T18:16:50Z</time>
      </trkpt>
      <trkpt lat="46.78851" lon="-1.51863">
        <ele>55.2</ele>
        <time>2024-04-25T18:16:51Z</time>
      </trkpt>
      <trkpt lat="46.78851" lon="-1.51862">
        <ele>55</ele>
        <time>2024-04-25T18:16:52Z</time>
      </trkpt>
      <trkpt lat="46.78851" lon="-1.51862">
        <ele>55</ele>
        <time>2024-04-25T18:16:53Z</time>
      </trkpt>
      <trkpt lat="46.78851" lon="-1.51861">
        <ele>55</ele>
        <time>2024-04-25T18:16:54Z</time>
      </trkpt>
      <trkpt lat="46.78851" lon="-1.5186">
        <ele>55</ele>
        <time>2024-04-25T18:16:55Z</time>
      </trkpt>
      <trkpt lat="46.78851" lon="-1.5186">
        <ele>55</ele>
        <time>2024-04-25T18:16:56Z</time>
      </trkpt>
      <trkpt lat="46.78851" lon="-1.51859">
        <ele>55</ele>
        <time>2024-04-25T18:16:57Z</time>
      </trkpt>
      <trkpt lat="46.78851" lon="-1.51858">
        <ele>55</ele>
        <time>2024-04-25T18:16:58Z</time>
      </trkpt>
      <trkpt lat="46.78851" lon="-1.51858">
        <ele>54.8</ele>
        <time>2024-04-25T18:16:59Z</time>
      </trkpt>
      <trkpt lat="46.78851" lon="-1.51857">
        <ele>54.8</ele>
        <time>2024-04-25T18:17:00Z</time>
      </trkpt>
      <trkpt lat="46.78851" lon="-1.51856">
        <ele>54.8</ele>
        <time>2024-04-25T18:17:01Z</time>
      </trkpt>
      <trkpt lat="46.78851" lon="-1.51856">
        <ele>54.8</ele>
        <time>2024-04-25T18:17:02Z</time>
      </trkpt>
      <trkpt lat="46.78852" lon="-1.51855">
        <ele>54.8</ele>
        <time>2024-04-25T18:17:03Z</time>
      </trkpt>
      <trkpt lat="46.78852" lon="-1.51854">
        <ele>54.8</ele>
        <time>2024-04-25T18:17:04Z</time>
      </trkpt>
      <trkpt lat="46.78852" lon="-1.51854">
        <ele>54.8</ele>
        <time>2024-04-25T18:17:05Z</time>
      </trkpt>
      <trkpt lat="46.78852" lon="-1.51853">
        <ele>54.8</ele>
        <time>2024-04-25T18:17:06Z</time>
      </trkpt>
      <trkpt lat="46.78852" lon="-1.51853">
        <ele>54.8</ele>
        <time>2024-04-25T18:17:07Z</time>
      </trkpt>
      <trkpt lat="46.78852" lon="-1.51852">
        <ele>54.8</ele>
        <time>2024-04-25T18:17:08Z</time>
      </trkpt>
      <trkpt lat="46.78852" lon="-1.51851">
        <ele>54.8</ele>
        <time>2024-04-25T18:17:09Z</time>
      </trkpt>
      <trkpt lat="46.78852" lon="-1.51851">
        <ele>54.8</ele>
        <time>2024-04-25T18:17:10Z</time>
      </trkpt>
      <trkpt lat="46.78852" lon="-1.5185">
        <ele>54.6</ele>
        <time>2024-04-25T18:17:11Z</time>
      </trkpt>
      <trkpt lat="46.7885" lon="-1.51846">
        <ele>54.6</ele>
        <time>2024-04-25T18:17:12Z</time>
      </trkpt>
      <trkpt lat="46.78848" lon="-1.51842">
        <ele>54.4</ele>
        <time>2024-04-25T18:17:13Z</time>
      </trkpt>
      <trkpt lat="46.78846" lon="-1.51838">
        <ele>54.2</ele>
        <time>2024-04-25T18:17:14Z</time>
      </trkpt>
      <trkpt lat="46.78843" lon="-1.51833">
        <ele>54.2</ele>
        <time>2024-04-25T18:17:15Z</time>
      </trkpt>
      <trkpt lat="46.78841" lon="-1.51827">
        <ele>54</ele>
        <time>2024-04-25T18:17:16Z</time>
      </trkpt>
      <trkpt lat="46.7884" lon="-1.51821">
        <ele>54</ele>
        <time>2024-04-25T18:17:17Z</time>
      </trkpt>
      <trkpt lat="46.78839" lon="-1.51815">
        <ele>54</ele>
        <time>2024-04-25T18:17:18Z</time>
      </trkpt>
      <trkpt lat="46.78839" lon="-1.51805">
        <ele>54</ele>
        <time>2024-04-25T18:17:19Z</time>
      </trkpt>
      <trkpt lat="46.78839" lon="-1.51802">
        <ele>54</ele>
        <time>2024-04-25T18:17:20Z</time>
      </trkpt>
      <trkpt lat="46.78839" lon="-1.51796">
        <ele>53.8</ele>
        <time>2024-04-25T18:17:21Z</time>
      </trkpt>
      <trkpt lat="46.78838" lon="-1.5179">
        <ele>53.8</ele>
        <time>2024-04-25T18:17:22Z</time>
      </trkpt>
      <trkpt lat="46.78838" lon="-1.51784">
        <ele>53.6</ele>
        <time>2024-04-25T18:17:23Z</time>
      </trkpt>
      <trkpt lat="46.78838" lon="-1.51777">
        <ele>53.6</ele>
        <time>2024-04-25T18:17:24Z</time>
      </trkpt>
      <trkpt lat="46.78837" lon="-1.51771">
        <ele>53.4</ele>
        <time>2024-04-25T18:17:25Z</time>
      </trkpt>
      <trkpt lat="46.78837" lon="-1.51763">
        <ele>53</ele>
        <time>2024-04-25T18:17:26Z</time>
      </trkpt>
      <trkpt lat="46.78836" lon="-1.51755">
        <ele>52.6</ele>
        <time>2024-04-25T18:17:27Z</time>
      </trkpt>
      <trkpt lat="46.78836" lon="-1.51747">
        <ele>52.2</ele>
        <time>2024-04-25T18:17:28Z</time>
      </trkpt>
      <trkpt lat="46.78837" lon="-1.51737">
        <ele>51.6</ele>
        <time>2024-04-25T18:17:29Z</time>
      </trkpt>
      <trkpt lat="46.78837" lon="-1.51727">
        <ele>51</ele>
        <time>2024-04-25T18:17:30Z</time>
      </trkpt>
      <trkpt lat="46.78839" lon="-1.51717">
        <ele>50.2</ele>
        <time>2024-04-25T18:17:31Z</time>
      </trkpt>
      <trkpt lat="46.78842" lon="-1.51706">
        <ele>49.4</ele>
        <time>2024-04-25T18:17:32Z</time>
      </trkpt>
      <trkpt lat="46.78845" lon="-1.51695">
        <ele>48.8</ele>
        <time>2024-04-25T18:17:33Z</time>
      </trkpt>
      <trkpt lat="46.78848" lon="-1.51683">
        <ele>48.4</ele>
        <time>2024-04-25T18:17:34Z</time>
      </trkpt>
      <trkpt lat="46.7885" lon="-1.51666">
        <ele>47.8</ele>
        <time>2024-04-25T18:17:35Z</time>
      </trkpt>
      <trkpt lat="46.78851" lon="-1.5166">
        <ele>47.4</ele>
        <time>2024-04-25T18:17:36Z</time>
      </trkpt>
      <trkpt lat="46.78851" lon="-1.51649">
        <ele>47</ele>
        <time>2024-04-25T18:17:37Z</time>
      </trkpt>
      <trkpt lat="46.7885" lon="-1.51632">
        <ele>46.8</ele>
        <time>2024-04-25T18:17:38Z</time>
      </trkpt>
      <trkpt lat="46.78849" lon="-1.51627">
        <ele>46.4</ele>
        <time>2024-04-25T18:17:39Z</time>
      </trkpt>
      <trkpt lat="46.78848" lon="-1.51616">
        <ele>46.2</ele>
        <time>2024-04-25T18:17:40Z</time>
      </trkpt>
      <trkpt lat="46.78847" lon="-1.51606">
        <ele>46</ele>
        <time>2024-04-25T18:17:41Z</time>
      </trkpt>
      <trkpt lat="46.78846" lon="-1.51596">
        <ele>45.8</ele>
        <time>2024-04-25T18:17:42Z</time>
      </trkpt>
      <trkpt lat="46.78847" lon="-1.51586">
        <ele>45.6</ele>
        <time>2024-04-25T18:17:43Z</time>
      </trkpt>
      <trkpt lat="46.78851" lon="-1.51572">
        <ele>45.4</ele>
        <time>2024-04-25T18:17:44Z</time>
      </trkpt>
      <trkpt lat="46.78856" lon="-1.5156">
        <ele>45.2</ele>
        <time>2024-04-25T18:17:45Z</time>
      </trkpt>
      <trkpt lat="46.78862" lon="-1.51552">
        <ele>45</ele>
        <time>2024-04-25T18:17:46Z</time>
      </trkpt>
      <trkpt lat="46.78869" lon="-1.51546">
        <ele>45</ele>
        <time>2024-04-25T18:17:47Z</time>
      </trkpt>
      <trkpt lat="46.78876" lon="-1.51542">
        <ele>45</ele>
        <time>2024-04-25T18:17:48Z</time>
      </trkpt>
      <trkpt lat="46.78883" lon="-1.51539">
        <ele>45</ele>
        <time>2024-04-25T18:17:49Z</time>
      </trkpt>
      <trkpt lat="46.78893" lon="-1.51537">
        <ele>45.2</ele>
        <time>2024-04-25T18:17:50Z</time>
      </trkpt>
      <trkpt lat="46.78896" lon="-1.51536">
        <ele>45.4</ele>
        <time>2024-04-25T18:17:51Z</time>
      </trkpt>
      <trkpt lat="46.78902" lon="-1.51534">
        <ele>45.8</ele>
        <time>2024-04-25T18:17:52Z</time>
      </trkpt>
      <trkpt lat="46.78907" lon="-1.51533">
        <ele>46.2</ele>
        <time>2024-04-25T18:17:53Z</time>
      </trkpt>
      <trkpt lat="46.78914" lon="-1.51531">
        <ele>46.6</ele>
        <time>2024-04-25T18:17:54Z</time>
      </trkpt>
      <trkpt lat="46.78917" lon="-1.5153">
        <ele>47</ele>
        <time>2024-04-25T18:17:55Z</time>
      </trkpt>
      <trkpt lat="46.78922" lon="-1.51529">
        <ele>47.4</ele>
        <time>2024-04-25T18:17:56Z</time>
      </trkpt>
      <trkpt lat="46.78926" lon="-1.51528">
        <ele>47.8</ele>
        <time>2024-04-25T18:17:57Z</time>
      </trkpt>
      <trkpt lat="46.78931" lon="-1.51528">
        <ele>48</ele>
        <time>2024-04-25T18:17:58Z</time>
      </trkpt>
      <trkpt lat="46.78936" lon="-1.51527">
        <ele>48.4</ele>
        <time>2024-04-25T18:17:59Z</time>
      </trkpt>
      <trkpt lat="46.78941" lon="-1.51527">
        <ele>48.8</ele>
        <time>2024-04-25T18:18:00Z</time>
      </trkpt>
      <trkpt lat="46.78945" lon="-1.51526">
        <ele>49</ele>
        <time>2024-04-25T18:18:01Z</time>
      </trkpt>
      <trkpt lat="46.7895" lon="-1.51526">
        <ele>49.2</ele>
        <time>2024-04-25T18:18:02Z</time>
      </trkpt>
      <trkpt lat="46.78955" lon="-1.51526">
        <ele>49.4</ele>
        <time>2024-04-25T18:18:03Z</time>
      </trkpt>
      <trkpt lat="46.78959" lon="-1.51526">
        <ele>49.6</ele>
        <time>2024-04-25T18:18:04Z</time>
      </trkpt>
      <trkpt lat="46.78963" lon="-1.51526">
        <ele>49.8</ele>
        <time>2024-04-25T18:18:06Z</time>
      </trkpt>
      <trkpt lat="46.78968" lon="-1.51526">
        <ele>50.2</ele>
        <time>2024-04-25T18:18:07Z</time>
      </trkpt>
      <trkpt lat="46.78972" lon="-1.51526">
        <ele>50.4</ele>
        <time>2024-04-25T18:18:08Z</time>
      </trkpt>
      <trkpt lat="46.78976" lon="-1.51525">
        <ele>50.6</ele>
        <time>2024-04-25T18:18:09Z</time>
      </trkpt>
      <trkpt lat="46.78981" lon="-1.51525">
        <ele>50.8</ele>
        <time>2024-04-25T18:18:10Z</time>
      </trkpt>
      <trkpt lat="46.78985" lon="-1.51525">
        <ele>51</ele>
        <time>2024-04-25T18:18:11Z</time>
      </trkpt>
      <trkpt lat="46.78989" lon="-1.51526">
        <ele>51</ele>
        <time>2024-04-25T18:18:12Z</time>
      </trkpt>
      <trkpt lat="46.78993" lon="-1.51526">
        <ele>51.2</ele>
        <time>2024-04-25T18:18:13Z</time>
      </trkpt>
      <trkpt lat="46.78997" lon="-1.51526">
        <ele>51.2</ele>
        <time>2024-04-25T18:18:14Z</time>
      </trkpt>
      <trkpt lat="46.79001" lon="-1.51525">
        <ele>51.4</ele>
        <time>2024-04-25T18:18:15Z</time>
      </trkpt>
      <trkpt lat="46.79004" lon="-1.51521">
        <ele>51.2</ele>
        <time>2024-04-25T18:18:16Z</time>
      </trkpt>
      <trkpt lat="46.79006" lon="-1.51517">
        <ele>51.2</ele>
        <time>2024-04-25T18:18:17Z</time>
      </trkpt>
      <trkpt lat="46.79007" lon="-1.51511">
        <ele>51</ele>
        <time>2024-04-25T18:18:18Z</time>
      </trkpt>
      <trkpt lat="46.79008" lon="-1.51503">
        <ele>50.8</ele>
        <time>2024-04-25T18:18:19Z</time>
      </trkpt>
      <trkpt lat="46.79009" lon="-1.51496">
        <ele>50.6</ele>
        <time>2024-04-25T18:18:20Z</time>
      </trkpt>
      <trkpt lat="46.7901" lon="-1.51488">
        <ele>50.2</ele>
        <time>2024-04-25T18:18:21Z</time>
      </trkpt>
      <trkpt lat="46.7901" lon="-1.5148">
        <ele>50</ele>
        <time>2024-04-25T18:18:22Z</time>
      </trkpt>
      <trkpt lat="46.79011" lon="-1.51472">
        <ele>49.8</ele>
        <time>2024-04-25T18:18:23Z</time>
      </trkpt>
      <trkpt lat="46.79011" lon="-1.51463">
        <ele>49.4</ele>
        <time>2024-04-25T18:18:24Z</time>
      </trkpt>
      <trkpt lat="46.79011" lon="-1.51454">
        <ele>49</ele>
        <time>2024-04-25T18:18:25Z</time>
      </trkpt>
      <trkpt lat="46.79011" lon="-1.51445">
        <ele>48.4</ele>
        <time>2024-04-25T18:18:26Z</time>
      </trkpt>
      <trkpt lat="46.79011" lon="-1.51435">
        <ele>47.8</ele>
        <time>2024-04-25T18:18:27Z</time>
      </trkpt>
      <trkpt lat="46.7901" lon="-1.51425">
        <ele>47.2</ele>
        <time>2024-04-25T18:18:28Z</time>
      </trkpt>
      <trkpt lat="46.79011" lon="-1.51414">
        <ele>46.4</ele>
        <time>2024-04-25T18:18:29Z</time>
      </trkpt>
      <trkpt lat="46.79011" lon="-1.51403">
        <ele>45.4</ele>
        <time>2024-04-25T18:18:30Z</time>
      </trkpt>
      <trkpt lat="46.79011" lon="-1.51393">
        <ele>44.4</ele>
        <time>2024-04-25T18:18:31Z</time>
      </trkpt>
      <trkpt lat="46.79011" lon="-1.51383">
        <ele>43.4</ele>
        <time>2024-04-25T18:18:32Z</time>
      </trkpt>
      <trkpt lat="46.79011" lon="-1.51376">
        <ele>42.6</ele>
        <time>2024-04-25T18:18:33Z</time>
      </trkpt>
      <trkpt lat="46.79013" lon="-1.5137">
        <ele>41.8</ele>
        <time>2024-04-25T18:18:34Z</time>
      </trkpt>
      <trkpt lat="46.79015" lon="-1.51367">
        <ele>41.2</ele>
        <time>2024-04-25T18:18:35Z</time>
      </trkpt>
      <trkpt lat="46.79019" lon="-1.51366">
        <ele>40.8</ele>
        <time>2024-04-25T18:18:36Z</time>
      </trkpt>
      <trkpt lat="46.79023" lon="-1.51366">
        <ele>40.2</ele>
        <time>2024-04-25T18:18:37Z</time>
      </trkpt>
      <trkpt lat="46.79028" lon="-1.51365">
        <ele>39.8</ele>
        <time>2024-04-25T18:18:38Z</time>
      </trkpt>
      <trkpt lat="46.79033" lon="-1.51364">
        <ele>39.4</ele>
        <time>2024-04-25T18:18:39Z</time>
      </trkpt>
      <trkpt lat="46.79039" lon="-1.51362">
        <ele>39.2</ele>
        <time>2024-04-25T18:18:40Z</time>
      </trkpt>
      <trkpt lat="46.79045" lon="-1.51359">
        <ele>39</ele>
        <time>2024-04-25T18:18:41Z</time>
      </trkpt>
      <trkpt lat="46.79051" lon="-1.51355">
        <ele>39.2</ele>
        <time>2024-04-25T18:18:42Z</time>
      </trkpt>
      <trkpt lat="46.79056" lon="-1.51352">
        <ele>39.4</ele>
        <time>2024-04-25T18:18:43Z</time>
      </trkpt>
      <trkpt lat="46.79062" lon="-1.51349">
        <ele>39.6</ele>
        <time>2024-04-25T18:18:44Z</time>
      </trkpt>
      <trkpt lat="46.79067" lon="-1.51347">
        <ele>40</ele>
        <time>2024-04-25T18:18:45Z</time>
      </trkpt>
      <trkpt lat="46.79071" lon="-1.51344">
        <ele>40.2</ele>
        <time>2024-04-25T18:18:46Z</time>
      </trkpt>
      <trkpt lat="46.79076" lon="-1.5134">
        <ele>40.4</ele>
        <time>2024-04-25T18:18:47Z</time>
      </trkpt>
      <trkpt lat="46.7908" lon="-1.51337">
        <ele>40.6</ele>
        <time>2024-04-25T18:18:48Z</time>
      </trkpt>
      <trkpt lat="46.79084" lon="-1.51333">
        <ele>40.8</ele>
        <time>2024-04-25T18:18:49Z</time>
      </trkpt>
      <trkpt lat="46.79087" lon="-1.51328">
        <ele>41</ele>
        <time>2024-04-25T18:18:50Z</time>
      </trkpt>
      <trkpt lat="46.79091" lon="-1.51324">
        <ele>41.2</ele>
        <time>2024-04-25T18:18:51Z</time>
      </trkpt>
      <trkpt lat="46.79095" lon="-1.5132">
        <ele>41.2</ele>
        <time>2024-04-25T18:18:52Z</time>
      </trkpt>
      <trkpt lat="46.79098" lon="-1.51315">
        <ele>41.2</ele>
        <time>2024-04-25T18:18:53Z</time>
      </trkpt>
      <trkpt lat="46.79102" lon="-1.5131">
        <ele>41.2</ele>
        <time>2024-04-25T18:18:54Z</time>
      </trkpt>
      <trkpt lat="46.79106" lon="-1.51306">
        <ele>41.2</ele>
        <time>2024-04-25T18:18:55Z</time>
      </trkpt>
      <trkpt lat="46.7911" lon="-1.51303">
        <ele>41.2</ele>
        <time>2024-04-25T18:18:56Z</time>
      </trkpt>
      <trkpt lat="46.79116" lon="-1.51303">
        <ele>41</ele>
        <time>2024-04-25T18:18:57Z</time>
      </trkpt>
      <trkpt lat="46.79118" lon="-1.51303">
        <ele>40.8</ele>
        <time>2024-04-25T18:18:58Z</time>
      </trkpt>
      <trkpt lat="46.79124" lon="-1.51307">
        <ele>41</ele>
        <time>2024-04-25T18:18:59Z</time>
      </trkpt>
      <trkpt lat="46.79126" lon="-1.51308">
        <ele>41</ele>
        <time>2024-04-25T18:19:00Z</time>
      </trkpt>
      <trkpt lat="46.7913" lon="-1.51311">
        <ele>41.2</ele>
        <time>2024-04-25T18:19:01Z</time>
      </trkpt>
      <trkpt lat="46.79133" lon="-1.51314">
        <ele>41.2</ele>
        <time>2024-04-25T18:19:02Z</time>
      </trkpt>
      <trkpt lat="46.79137" lon="-1.51316">
        <ele>41.2</ele>
        <time>2024-04-25T18:19:03Z</time>
      </trkpt>
      <trkpt lat="46.7914" lon="-1.51318">
        <ele>41.2</ele>
        <time>2024-04-25T18:19:04Z</time>
      </trkpt>
      <trkpt lat="46.79143" lon="-1.5132">
        <ele>41</ele>
        <time>2024-04-25T18:19:05Z</time>
      </trkpt>
      <trkpt lat="46.79146" lon="-1.51322">
        <ele>41</ele>
        <time>2024-04-25T18:19:06Z</time>
      </trkpt>
      <trkpt lat="46.79151" lon="-1.51325">
        <ele>40.8</ele>
        <time>2024-04-25T18:19:07Z</time>
      </trkpt>
      <trkpt lat="46.79155" lon="-1.51327">
        <ele>40.6</ele>
        <time>2024-04-25T18:19:08Z</time>
      </trkpt>
      <trkpt lat="46.7916" lon="-1.51328">
        <ele>40.6</ele>
        <time>2024-04-25T18:19:09Z</time>
      </trkpt>
      <trkpt lat="46.79163" lon="-1.5133">
        <ele>40.4</ele>
        <time>2024-04-25T18:19:10Z</time>
      </trkpt>
      <trkpt lat="46.79167" lon="-1.51331">
        <ele>40.2</ele>
        <time>2024-04-25T18:19:11Z</time>
      </trkpt>
      <trkpt lat="46.79172" lon="-1.5133">
        <ele>40</ele>
        <time>2024-04-25T18:19:12Z</time>
      </trkpt>
      <trkpt lat="46.79173" lon="-1.51329">
        <ele>39.8</ele>
        <time>2024-04-25T18:19:13Z</time>
      </trkpt>
      <trkpt lat="46.79177" lon="-1.51323">
        <ele>39.6</ele>
        <time>2024-04-25T18:19:14Z</time>
      </trkpt>
      <trkpt lat="46.79179" lon="-1.51321">
        <ele>39.4</ele>
        <time>2024-04-25T18:19:15Z</time>
      </trkpt>
      <trkpt lat="46.79183" lon="-1.51313">
        <ele>39.2</ele>
        <time>2024-04-25T18:19:16Z</time>
      </trkpt>
      <trkpt lat="46.79184" lon="-1.5131">
        <ele>39</ele>
        <time>2024-04-25T18:19:17Z</time>
      </trkpt>
      <trkpt lat="46.79187" lon="-1.51304">
        <ele>38.8</ele>
        <time>2024-04-25T18:19:18Z</time>
      </trkpt>
      <trkpt lat="46.7919" lon="-1.51298">
        <ele>38.8</ele>
        <time>2024-04-25T18:19:19Z</time>
      </trkpt>
      <trkpt lat="46.79194" lon="-1.51293">
        <ele>38.6</ele>
        <time>2024-04-25T18:19:20Z</time>
      </trkpt>
      <trkpt lat="46.79198" lon="-1.51287">
        <ele>38.2</ele>
        <time>2024-04-25T18:19:21Z</time>
      </trkpt>
      <trkpt lat="46.79202" lon="-1.51282">
        <ele>38</ele>
        <time>2024-04-25T18:19:22Z</time>
      </trkpt>
      <trkpt lat="46.79206" lon="-1.51276">
        <ele>37.8</ele>
        <time>2024-04-25T18:19:23Z</time>
      </trkpt>
      <trkpt lat="46.7921" lon="-1.5127">
        <ele>37.6</ele>
        <time>2024-04-25T18:19:24Z</time>
      </trkpt>
      <trkpt lat="46.79214" lon="-1.51263">
        <ele>37.2</ele>
        <time>2024-04-25T18:19:25Z</time>
      </trkpt>
      <trkpt lat="46.79217" lon="-1.51255">
        <ele>36.8</ele>
        <time>2024-04-25T18:19:26Z</time>
      </trkpt>
      <trkpt lat="46.79219" lon="-1.51247">
        <ele>36.6</ele>
        <time>2024-04-25T18:19:27Z</time>
      </trkpt>
      <trkpt lat="46.79221" lon="-1.51239">
        <ele>36.4</ele>
        <time>2024-04-25T18:19:28Z</time>
      </trkpt>
      <trkpt lat="46.79222" lon="-1.51231">
        <ele>36.2</ele>
        <time>2024-04-25T18:19:30Z</time>
      </trkpt>
      <trkpt lat="46.79223" lon="-1.51222">
        <ele>36.2</ele>
        <time>2024-04-25T18:19:31Z</time>
      </trkpt>
      <trkpt lat="46.79223" lon="-1.51214">
        <ele>36</ele>
        <time>2024-04-25T18:19:32Z</time>
      </trkpt>
      <trkpt lat="46.79223" lon="-1.51205">
        <ele>35.8</ele>
        <time>2024-04-25T18:19:33Z</time>
      </trkpt>
      <trkpt lat="46.79223" lon="-1.51197">
        <ele>35.6</ele>
        <time>2024-04-25T18:19:34Z</time>
      </trkpt>
      <trkpt lat="46.79222" lon="-1.51189">
        <ele>35.2</ele>
        <time>2024-04-25T18:19:35Z</time>
      </trkpt>
      <trkpt lat="46.79221" lon="-1.51181">
        <ele>35</ele>
        <time>2024-04-25T18:19:36Z</time>
      </trkpt>
      <trkpt lat="46.79218" lon="-1.51173">
        <ele>34.6</ele>
        <time>2024-04-25T18:19:37Z</time>
      </trkpt>
      <trkpt lat="46.79214" lon="-1.51166">
        <ele>34.4</ele>
        <time>2024-04-25T18:19:38Z</time>
      </trkpt>
      <trkpt lat="46.79209" lon="-1.5116">
        <ele>34.2</ele>
        <time>2024-04-25T18:19:39Z</time>
      </trkpt>
      <trkpt lat="46.79205" lon="-1.51154">
        <ele>34.2</ele>
        <time>2024-04-25T18:19:40Z</time>
      </trkpt>
      <trkpt lat="46.79201" lon="-1.51149">
        <ele>34</ele>
        <time>2024-04-25T18:19:41Z</time>
      </trkpt>
      <trkpt lat="46.79199" lon="-1.51143">
        <ele>34</ele>
        <time>2024-04-25T18:19:42Z</time>
      </trkpt>
      <trkpt lat="46.792" lon="-1.51138">
        <ele>34</ele>
        <time>2024-04-25T18:19:43Z</time>
      </trkpt>
      <trkpt lat="46.79203" lon="-1.51134">
        <ele>33.6</ele>
        <time>2024-04-25T18:19:44Z</time>
      </trkpt>
      <trkpt lat="46.79207" lon="-1.51129">
        <ele>33.2</ele>
        <time>2024-04-25T18:19:45Z</time>
      </trkpt>
      <trkpt lat="46.79212" lon="-1.51123">
        <ele>33</ele>
        <time>2024-04-25T18:19:46Z</time>
      </trkpt>
      <trkpt lat="46.79217" lon="-1.51116">
        <ele>33</ele>
        <time>2024-04-25T18:19:47Z</time>
      </trkpt>
      <trkpt lat="46.79221" lon="-1.5111">
        <ele>32.8</ele>
        <time>2024-04-25T18:19:48Z</time>
      </trkpt>
      <trkpt lat="46.79224" lon="-1.51103">
        <ele>32.8</ele>
        <time>2024-04-25T18:19:49Z</time>
      </trkpt>
      <trkpt lat="46.79226" lon="-1.51096">
        <ele>32.6</ele>
        <time>2024-04-25T18:19:50Z</time>
      </trkpt>
      <trkpt lat="46.79226" lon="-1.51089">
        <ele>32.8</ele>
        <time>2024-04-25T18:19:51Z</time>
      </trkpt>
      <trkpt lat="46.79224" lon="-1.51082">
        <ele>32.8</ele>
        <time>2024-04-25T18:19:52Z</time>
      </trkpt>
      <trkpt lat="46.79222" lon="-1.51076">
        <ele>32.8</ele>
        <time>2024-04-25T18:19:53Z</time>
      </trkpt>
      <trkpt lat="46.79219" lon="-1.5107">
        <ele>33</ele>
        <time>2024-04-25T18:19:54Z</time>
      </trkpt>
      <trkpt lat="46.79217" lon="-1.51064">
        <ele>33.4</ele>
        <time>2024-04-25T18:19:55Z</time>
      </trkpt>
      <trkpt lat="46.79214" lon="-1.51058">
        <ele>33.6</ele>
        <time>2024-04-25T18:19:56Z</time>
      </trkpt>
      <trkpt lat="46.79213" lon="-1.51052">
        <ele>33.8</ele>
        <time>2024-04-25T18:19:57Z</time>
      </trkpt>
      <trkpt lat="46.79212" lon="-1.51047">
        <ele>34.2</ele>
        <time>2024-04-25T18:19:58Z</time>
      </trkpt>
      <trkpt lat="46.79211" lon="-1.51042">
        <ele>34.6</ele>
        <time>2024-04-25T18:19:59Z</time>
      </trkpt>
      <trkpt lat="46.7921" lon="-1.51037">
        <ele>35</ele>
        <time>2024-04-25T18:20:00Z</time>
      </trkpt>
      <trkpt lat="46.79209" lon="-1.51032">
        <ele>35.4</ele>
        <time>2024-04-25T18:20:01Z</time>
      </trkpt>
      <trkpt lat="46.79207" lon="-1.51028">
        <ele>36</ele>
        <time>2024-04-25T18:20:02Z</time>
      </trkpt>
      <trkpt lat="46.79206" lon="-1.51024">
        <ele>36.4</ele>
        <time>2024-04-25T18:20:03Z</time>
      </trkpt>
      <trkpt lat="46.79204" lon="-1.5102">
        <ele>37</ele>
        <time>2024-04-25T18:20:04Z</time>
      </trkpt>
      <trkpt lat="46.79202" lon="-1.51017">
        <ele>37.4</ele>
        <time>2024-04-25T18:20:05Z</time>
      </trkpt>
      <trkpt lat="46.792" lon="-1.51014">
        <ele>37.8</ele>
        <time>2024-04-25T18:20:06Z</time>
      </trkpt>
      <trkpt lat="46.79198" lon="-1.51011">
        <ele>38.2</ele>
        <time>2024-04-25T18:20:07Z</time>
      </trkpt>
      <trkpt lat="46.79196" lon="-1.51008">
        <ele>38.6</ele>
        <time>2024-04-25T18:20:08Z</time>
      </trkpt>
      <trkpt lat="46.79194" lon="-1.51004">
        <ele>39</ele>
        <time>2024-04-25T18:20:09Z</time>
      </trkpt>
      <trkpt lat="46.79192" lon="-1.51001">
        <ele>39.4</ele>
        <time>2024-04-25T18:20:10Z</time>
      </trkpt>
      <trkpt lat="46.7919" lon="-1.50998">
        <ele>40</ele>
        <time>2024-04-25T18:20:11Z</time>
      </trkpt>
      <trkpt lat="46.79189" lon="-1.50994">
        <ele>40.4</ele>
        <time>2024-04-25T18:20:12Z</time>
      </trkpt>
      <trkpt lat="46.79187" lon="-1.50991">
        <ele>40.6</ele>
        <time>2024-04-25T18:20:13Z</time>
      </trkpt>
      <trkpt lat="46.79185" lon="-1.50988">
        <ele>41</ele>
        <time>2024-04-25T18:20:14Z</time>
      </trkpt>
      <trkpt lat="46.79183" lon="-1.50985">
        <ele>41.4</ele>
        <time>2024-04-25T18:20:15Z</time>
      </trkpt>
      <trkpt lat="46.79182" lon="-1.50981">
        <ele>41.8</ele>
        <time>2024-04-25T18:20:16Z</time>
      </trkpt>
      <trkpt lat="46.7918" lon="-1.50978">
        <ele>42.2</ele>
        <time>2024-04-25T18:20:17Z</time>
      </trkpt>
      <trkpt lat="46.79179" lon="-1.50975">
        <ele>42.6</ele>
        <time>2024-04-25T18:20:18Z</time>
      </trkpt>
      <trkpt lat="46.79177" lon="-1.50971">
        <ele>43</ele>
        <time>2024-04-25T18:20:19Z</time>
      </trkpt>
      <trkpt lat="46.79176" lon="-1.50968">
        <ele>43.2</ele>
        <time>2024-04-25T18:20:20Z</time>
      </trkpt>
      <trkpt lat="46.79174" lon="-1.50964">
        <ele>43.6</ele>
        <time>2024-04-25T18:20:21Z</time>
      </trkpt>
      <trkpt lat="46.79173" lon="-1.50961">
        <ele>44</ele>
        <time>2024-04-25T18:20:22Z</time>
      </trkpt>
      <trkpt lat="46.79171" lon="-1.50958">
        <ele>44.2</ele>
        <time>2024-04-25T18:20:23Z</time>
      </trkpt>
      <trkpt lat="46.79169" lon="-1.50955">
        <ele>44.6</ele>
        <time>2024-04-25T18:20:24Z</time>
      </trkpt>
      <trkpt lat="46.79167" lon="-1.50952">
        <ele>44.8</ele>
        <time>2024-04-25T18:20:25Z</time>
      </trkpt>
      <trkpt lat="46.79165" lon="-1.50948">
        <ele>45.2</ele>
        <time>2024-04-25T18:20:26Z</time>
      </trkpt>
      <trkpt lat="46.79163" lon="-1.50945">
        <ele>45.4</ele>
        <time>2024-04-25T18:20:27Z</time>
      </trkpt>
      <trkpt lat="46.79162" lon="-1.50942">
        <ele>45.6</ele>
        <time>2024-04-25T18:20:28Z</time>
      </trkpt>
      <trkpt lat="46.7916" lon="-1.50939">
        <ele>46</ele>
        <time>2024-04-25T18:20:29Z</time>
      </trkpt>
      <trkpt lat="46.79158" lon="-1.50936">
        <ele>46.2</ele>
        <time>2024-04-25T18:20:30Z</time>
      </trkpt>
      <trkpt lat="46.79155" lon="-1.50932">
        <ele>46.4</ele>
        <time>2024-04-25T18:20:31Z</time>
      </trkpt>
      <trkpt lat="46.79152" lon="-1.50928">
        <ele>46.8</ele>
        <time>2024-04-25T18:20:32Z</time>
      </trkpt>
      <trkpt lat="46.7915" lon="-1.50925">
        <ele>47</ele>
        <time>2024-04-25T18:20:33Z</time>
      </trkpt>
      <trkpt lat="46.79148" lon="-1.50923">
        <ele>47.2</ele>
        <time>2024-04-25T18:20:34Z</time>
      </trkpt>
      <trkpt lat="46.79147" lon="-1.5092">
        <ele>47.4</ele>
        <time>2024-04-25T18:20:35Z</time>
      </trkpt>
      <trkpt lat="46.79145" lon="-1.50918">
        <ele>47.6</ele>
        <time>2024-04-25T18:20:36Z</time>
      </trkpt>
      <trkpt lat="46.79143" lon="-1.50915">
        <ele>47.8</ele>
        <time>2024-04-25T18:20:37Z</time>
      </trkpt>
      <trkpt lat="46.7914" lon="-1.50911">
        <ele>48</ele>
        <time>2024-04-25T18:20:38Z</time>
      </trkpt>
      <trkpt lat="46.7914" lon="-1.5091">
        <ele>48.2</ele>
        <time>2024-04-25T18:20:39Z</time>
      </trkpt>
      <trkpt lat="46.79138" lon="-1.50907">
        <ele>48.4</ele>
        <time>2024-04-25T18:20:40Z</time>
      </trkpt>
      <trkpt lat="46.79136" lon="-1.50904">
        <ele>48.6</ele>
        <time>2024-04-25T18:20:41Z</time>
      </trkpt>
      <trkpt lat="46.79134" lon="-1.50899">
        <ele>48.8</ele>
        <time>2024-04-25T18:20:42Z</time>
      </trkpt>
      <trkpt lat="46.79133" lon="-1.50898">
        <ele>49</ele>
        <time>2024-04-25T18:20:43Z</time>
      </trkpt>
      <trkpt lat="46.7913" lon="-1.50893">
        <ele>49.2</ele>
        <time>2024-04-25T18:20:44Z</time>
      </trkpt>
      <trkpt lat="46.7913" lon="-1.50892">
        <ele>49.6</ele>
        <time>2024-04-25T18:20:45Z</time>
      </trkpt>
      <trkpt lat="46.79128" lon="-1.50889">
        <ele>49.8</ele>
        <time>2024-04-25T18:20:46Z</time>
      </trkpt>
      <trkpt lat="46.79126" lon="-1.50886">
        <ele>50</ele>
        <time>2024-04-25T18:20:47Z</time>
      </trkpt>
      <trkpt lat="46.79125" lon="-1.50883">
        <ele>50.2</ele>
        <time>2024-04-25T18:20:48Z</time>
      </trkpt>
      <trkpt lat="46.79123" lon="-1.5088">
        <ele>50.4</ele>
        <time>2024-04-25T18:20:49Z</time>
      </trkpt>
      <trkpt lat="46.79121" lon="-1.50875">
        <ele>50.4</ele>
        <time>2024-04-25T18:20:50Z</time>
      </trkpt>
      <trkpt lat="46.7912" lon="-1.50873">
        <ele>50.6</ele>
        <time>2024-04-25T18:20:51Z</time>
      </trkpt>
      <trkpt lat="46.79118" lon="-1.5087">
        <ele>50.6</ele>
        <time>2024-04-25T18:20:52Z</time>
      </trkpt>
      <trkpt lat="46.79116" lon="-1.50867">
        <ele>50.8</ele>
        <time>2024-04-25T18:20:54Z</time>
      </trkpt>
      <trkpt lat="46.79115" lon="-1.50864">
        <ele>51</ele>
        <time>2024-04-25T18:20:55Z</time>
      </trkpt>
      <trkpt lat="46.79113" lon="-1.50861">
        <ele>51</ele>
        <time>2024-04-25T18:20:56Z</time>
      </trkpt>
      <trkpt lat="46.79111" lon="-1.50858">
        <ele>51.2</ele>
        <time>2024-04-25T18:20:57Z</time>
      </trkpt>
      <trkpt lat="46.79109" lon="-1.50855">
        <ele>51.2</ele>
        <time>2024-04-25T18:20:58Z</time>
      </trkpt>
      <trkpt lat="46.79108" lon="-1.50852">
        <ele>51.4</ele>
        <time>2024-04-25T18:20:59Z</time>
      </trkpt>
      <trkpt lat="46.79106" lon="-1.50849">
        <ele>51.4</ele>
        <time>2024-04-25T18:21:00Z</time>
      </trkpt>
      <trkpt lat="46.79105" lon="-1.50846">
        <ele>51.6</ele>
        <time>2024-04-25T18:21:01Z</time>
      </trkpt>
      <trkpt lat="46.79103" lon="-1.50843">
        <ele>51.6</ele>
        <time>2024-04-25T18:21:02Z</time>
      </trkpt>
      <trkpt lat="46.79101" lon="-1.50841">
        <ele>51.8</ele>
        <time>2024-04-25T18:21:03Z</time>
      </trkpt>
      <trkpt lat="46.791" lon="-1.50838">
        <ele>51.8</ele>
        <time>2024-04-25T18:21:04Z</time>
      </trkpt>
      <trkpt lat="46.79098" lon="-1.50835">
        <ele>52</ele>
        <time>2024-04-25T18:21:05Z</time>
      </trkpt>
      <trkpt lat="46.79097" lon="-1.50832">
        <ele>52.2</ele>
        <time>2024-04-25T18:21:06Z</time>
      </trkpt>
      <trkpt lat="46.79095" lon="-1.5083">
        <ele>52.2</ele>
        <time>2024-04-25T18:21:07Z</time>
      </trkpt>
      <trkpt lat="46.79094" lon="-1.50827">
        <ele>52.2</ele>
        <time>2024-04-25T18:21:08Z</time>
      </trkpt>
      <trkpt lat="46.79092" lon="-1.50824">
        <ele>52.4</ele>
        <time>2024-04-25T18:21:09Z</time>
      </trkpt>
      <trkpt lat="46.7909" lon="-1.5082">
        <ele>52.4</ele>
        <time>2024-04-25T18:21:10Z</time>
      </trkpt>
      <trkpt lat="46.79088" lon="-1.50817">
        <ele>52.4</ele>
        <time>2024-04-25T18:21:11Z</time>
      </trkpt>
      <trkpt lat="46.79086" lon="-1.50814">
        <ele>52.4</ele>
        <time>2024-04-25T18:21:12Z</time>
      </trkpt>
      <trkpt lat="46.79084" lon="-1.50811">
        <ele>52.4</ele>
        <time>2024-04-25T18:21:13Z</time>
      </trkpt>
      <trkpt lat="46.79081" lon="-1.50808">
        <ele>52.4</ele>
        <time>2024-04-25T18:21:14Z</time>
      </trkpt>
      <trkpt lat="46.79079" lon="-1.50805">
        <ele>52.4</ele>
        <time>2024-04-25T18:21:15Z</time>
      </trkpt>
      <trkpt lat="46.79077" lon="-1.50803">
        <ele>52.4</ele>
        <time>2024-04-25T18:21:16Z</time>
      </trkpt>
      <trkpt lat="46.79074" lon="-1.50801">
        <ele>52.4</ele>
        <time>2024-04-25T18:21:17Z</time>
      </trkpt>
      <trkpt lat="46.79071" lon="-1.50799">
        <ele>52.2</ele>
        <time>2024-04-25T18:21:18Z</time>
      </trkpt>
      <trkpt lat="46.79068" lon="-1.50797">
        <ele>52.2</ele>
        <time>2024-04-25T18:21:19Z</time>
      </trkpt>
      <trkpt lat="46.79065" lon="-1.50794">
        <ele>52</ele>
        <time>2024-04-25T18:21:20Z</time>
      </trkpt>
      <trkpt lat="46.79061" lon="-1.50791">
        <ele>51.8</ele>
        <time>2024-04-25T18:21:21Z</time>
      </trkpt>
      <trkpt lat="46.79058" lon="-1.50787">
        <ele>51.6</ele>
        <time>2024-04-25T18:21:22Z</time>
      </trkpt>
      <trkpt lat="46.79055" lon="-1.50781">
        <ele>51.2</ele>
        <time>2024-04-25T18:21:23Z</time>
      </trkpt>
      <trkpt lat="46.79052" lon="-1.50775">
        <ele>51</ele>
        <time>2024-04-25T18:21:24Z</time>
      </trkpt>
      <trkpt lat="46.79049" lon="-1.50769">
        <ele>50.8</ele>
        <time>2024-04-25T18:21:25Z</time>
      </trkpt>
      <trkpt lat="46.79047" lon="-1.50763">
        <ele>50.6</ele>
        <time>2024-04-25T18:21:26Z</time>
      </trkpt>
      <trkpt lat="46.79045" lon="-1.50757">
        <ele>50.6</ele>
        <time>2024-04-25T18:21:27Z</time>
      </trkpt>
      <trkpt lat="46.79043" lon="-1.50751">
        <ele>50.4</ele>
        <time>2024-04-25T18:21:28Z</time>
      </trkpt>
      <trkpt lat="46.79043" lon="-1.50744">
        <ele>50.4</ele>
        <time>2024-04-25T18:21:29Z</time>
      </trkpt>
      <trkpt lat="46.79043" lon="-1.50739">
        <ele>50.6</ele>
        <time>2024-04-25T18:21:30Z</time>
      </trkpt>
      <trkpt lat="46.79045" lon="-1.50734">
        <ele>50.6</ele>
        <time>2024-04-25T18:21:31Z</time>
      </trkpt>
      <trkpt lat="46.79047" lon="-1.50729">
        <ele>50.6</ele>
        <time>2024-04-25T18:21:32Z</time>
      </trkpt>
      <trkpt lat="46.79049" lon="-1.50725">
        <ele>50.8</ele>
        <time>2024-04-25T18:21:33Z</time>
      </trkpt>
      <trkpt lat="46.79052" lon="-1.50721">
        <ele>50.8</ele>
        <time>2024-04-25T18:21:34Z</time>
      </trkpt>
      <trkpt lat="46.79055" lon="-1.50718">
        <ele>50.8</ele>
        <time>2024-04-25T18:21:35Z</time>
      </trkpt>
      <trkpt lat="46.79058" lon="-1.50714">
        <ele>51</ele>
        <time>2024-04-25T18:21:36Z</time>
      </trkpt>
      <trkpt lat="46.79062" lon="-1.50711">
        <ele>51</ele>
        <time>2024-04-25T18:21:37Z</time>
      </trkpt>
      <trkpt lat="46.79065" lon="-1.50708">
        <ele>51.2</ele>
        <time>2024-04-25T18:21:38Z</time>
      </trkpt>
      <trkpt lat="46.79068" lon="-1.50705">
        <ele>51.2</ele>
        <time>2024-04-25T18:21:39Z</time>
      </trkpt>
      <trkpt lat="46.79071" lon="-1.50701">
        <ele>51.4</ele>
        <time>2024-04-25T18:21:40Z</time>
      </trkpt>
      <trkpt lat="46.79074" lon="-1.50698">
        <ele>51.4</ele>
        <time>2024-04-25T18:21:41Z</time>
      </trkpt>
      <trkpt lat="46.79077" lon="-1.50695">
        <ele>51.6</ele>
        <time>2024-04-25T18:21:42Z</time>
      </trkpt>
      <trkpt lat="46.7908" lon="-1.50692">
        <ele>51.8</ele>
        <time>2024-04-25T18:21:43Z</time>
      </trkpt>
      <trkpt lat="46.79083" lon="-1.50689">
        <ele>51.8</ele>
        <time>2024-04-25T18:21:44Z</time>
      </trkpt>
      <trkpt lat="46.79087" lon="-1.50686">
        <ele>52</ele>
        <time>2024-04-25T18:21:45Z</time>
      </trkpt>
      <trkpt lat="46.79089" lon="-1.50683">
        <ele>52.2</ele>
        <time>2024-04-25T18:21:46Z</time>
      </trkpt>
      <trkpt lat="46.79092" lon="-1.5068">
        <ele>52.4</ele>
        <time>2024-04-25T18:21:47Z</time>
      </trkpt>
      <trkpt lat="46.79095" lon="-1.50677">
        <ele>52.6</ele>
        <time>2024-04-25T18:21:48Z</time>
      </trkpt>
      <trkpt lat="46.79097" lon="-1.50675">
        <ele>52.8</ele>
        <time>2024-04-25T18:21:49Z</time>
      </trkpt>
      <trkpt lat="46.79099" lon="-1.50672">
        <ele>53.2</ele>
        <time>2024-04-25T18:21:50Z</time>
      </trkpt>
      <trkpt lat="46.791" lon="-1.50669">
        <ele>53.4</ele>
        <time>2024-04-25T18:21:51Z</time>
      </trkpt>
      <trkpt lat="46.79101" lon="-1.50666">
        <ele>53.6</ele>
        <time>2024-04-25T18:21:52Z</time>
      </trkpt>
      <trkpt lat="46.79102" lon="-1.5066">
        <ele>53.8</ele>
        <time>2024-04-25T18:21:53Z</time>
      </trkpt>
      <trkpt lat="46.79101" lon="-1.50655">
        <ele>53.8</ele>
        <time>2024-04-25T18:21:54Z</time>
      </trkpt>
      <trkpt lat="46.79101" lon="-1.5065">
        <ele>54</ele>
        <time>2024-04-25T18:21:55Z</time>
      </trkpt>
      <trkpt lat="46.791" lon="-1.50645">
        <ele>54</ele>
        <time>2024-04-25T18:21:56Z</time>
      </trkpt>
      <trkpt lat="46.791" lon="-1.50641">
        <ele>54</ele>
        <time>2024-04-25T18:21:57Z</time>
      </trkpt>
      <trkpt lat="46.79099" lon="-1.50637">
        <ele>54</ele>
        <time>2024-04-25T18:21:58Z</time>
      </trkpt>
      <trkpt lat="46.79099" lon="-1.50632">
        <ele>54.2</ele>
        <time>2024-04-25T18:21:59Z</time>
      </trkpt>
      <trkpt lat="46.79099" lon="-1.50628">
        <ele>54.2</ele>
        <time>2024-04-25T18:22:00Z</time>
      </trkpt>
      <trkpt lat="46.791" lon="-1.50623">
        <ele>54.2</ele>
        <time>2024-04-25T18:22:01Z</time>
      </trkpt>
      <trkpt lat="46.79101" lon="-1.50619">
        <ele>54.4</ele>
        <time>2024-04-25T18:22:02Z</time>
      </trkpt>
      <trkpt lat="46.79102" lon="-1.50615">
        <ele>54.4</ele>
        <time>2024-04-25T18:22:03Z</time>
      </trkpt>
      <trkpt lat="46.79103" lon="-1.50611">
        <ele>54.6</ele>
        <time>2024-04-25T18:22:04Z</time>
      </trkpt>
      <trkpt lat="46.79105" lon="-1.50605">
        <ele>54.6</ele>
        <time>2024-04-25T18:22:05Z</time>
      </trkpt>
      <trkpt lat="46.79105" lon="-1.50603">
        <ele>54.8</ele>
        <time>2024-04-25T18:22:06Z</time>
      </trkpt>
      <trkpt lat="46.79106" lon="-1.50598">
        <ele>54.8</ele>
        <time>2024-04-25T18:22:07Z</time>
      </trkpt>
      <trkpt lat="46.79106" lon="-1.50593">
        <ele>55</ele>
        <time>2024-04-25T18:22:08Z</time>
      </trkpt>
      <trkpt lat="46.79107" lon="-1.50588">
        <ele>55</ele>
        <time>2024-04-25T18:22:09Z</time>
      </trkpt>
      <trkpt lat="46.79108" lon="-1.5058">
        <ele>55</ele>
        <time>2024-04-25T18:22:10Z</time>
      </trkpt>
      <trkpt lat="46.79108" lon="-1.50578">
        <ele>55</ele>
        <time>2024-04-25T18:22:11Z</time>
      </trkpt>
      <trkpt lat="46.79109" lon="-1.50572">
        <ele>55</ele>
        <time>2024-04-25T18:22:12Z</time>
      </trkpt>
      <trkpt lat="46.79109" lon="-1.50567">
        <ele>55</ele>
        <time>2024-04-25T18:22:13Z</time>
      </trkpt>
      <trkpt lat="46.7911" lon="-1.50563">
        <ele>55</ele>
        <time>2024-04-25T18:22:14Z</time>
      </trkpt>
      <trkpt lat="46.79111" lon="-1.50559">
        <ele>55</ele>
        <time>2024-04-25T18:22:16Z</time>
      </trkpt>
      <trkpt lat="46.79112" lon="-1.50555">
        <ele>55.2</ele>
        <time>2024-04-25T18:22:17Z</time>
      </trkpt>
      <trkpt lat="46.79113" lon="-1.5055">
        <ele>55.2</ele>
        <time>2024-04-25T18:22:18Z</time>
      </trkpt>
      <trkpt lat="46.79113" lon="-1.50546">
        <ele>55.2</ele>
        <time>2024-04-25T18:22:19Z</time>
      </trkpt>
      <trkpt lat="46.79113" lon="-1.5054">
        <ele>55.2</ele>
        <time>2024-04-25T18:22:20Z</time>
      </trkpt>
      <trkpt lat="46.79113" lon="-1.50535">
        <ele>55.2</ele>
        <time>2024-04-25T18:22:21Z</time>
      </trkpt>
      <trkpt lat="46.79112" lon="-1.50527">
        <ele>55.4</ele>
        <time>2024-04-25T18:22:22Z</time>
      </trkpt>
      <trkpt lat="46.79112" lon="-1.50524">
        <ele>55.4</ele>
        <time>2024-04-25T18:22:23Z</time>
      </trkpt>
      <trkpt lat="46.79112" lon="-1.50519">
        <ele>55.4</ele>
        <time>2024-04-25T18:22:24Z</time>
      </trkpt>
      <trkpt lat="46.79112" lon="-1.50514">
        <ele>55.4</ele>
        <time>2024-04-25T18:22:25Z</time>
      </trkpt>
      <trkpt lat="46.79112" lon="-1.50509">
        <ele>55.4</ele>
        <time>2024-04-25T18:22:26Z</time>
      </trkpt>
      <trkpt lat="46.79112" lon="-1.50504">
        <ele>55.4</ele>
        <time>2024-04-25T18:22:27Z</time>
      </trkpt>
      <trkpt lat="46.79112" lon="-1.50499">
        <ele>55.6</ele>
        <time>2024-04-25T18:22:28Z</time>
      </trkpt>
      <trkpt lat="46.79112" lon="-1.50494">
        <ele>55.6</ele>
        <time>2024-04-25T18:22:29Z</time>
      </trkpt>
      <trkpt lat="46.79112" lon="-1.50489">
        <ele>55.8</ele>
        <time>2024-04-25T18:22:30Z</time>
      </trkpt>
      <trkpt lat="46.79113" lon="-1.50483">
        <ele>55.8</ele>
        <time>2024-04-25T18:22:31Z</time>
      </trkpt>
      <trkpt lat="46.79113" lon="-1.50477">
        <ele>56</ele>
        <time>2024-04-25T18:22:32Z</time>
      </trkpt>
      <trkpt lat="46.79113" lon="-1.50472">
        <ele>56.2</ele>
        <time>2024-04-25T18:22:33Z</time>
      </trkpt>
      <trkpt lat="46.79114" lon="-1.50464">
        <ele>56.2</ele>
        <time>2024-04-25T18:22:34Z</time>
      </trkpt>
      <trkpt lat="46.79115" lon="-1.50461">
        <ele>56.4</ele>
        <time>2024-04-25T18:22:35Z</time>
      </trkpt>
      <trkpt lat="46.79115" lon="-1.50455">
        <ele>56.4</ele>
        <time>2024-04-25T18:22:36Z</time>
      </trkpt>
      <trkpt lat="46.79116" lon="-1.5045">
        <ele>56.6</ele>
        <time>2024-04-25T18:22:37Z</time>
      </trkpt>
      <trkpt lat="46.79116" lon="-1.50445">
        <ele>56.8</ele>
        <time>2024-04-25T18:22:38Z</time>
      </trkpt>
      <trkpt lat="46.79117" lon="-1.5044">
        <ele>56.8</ele>
        <time>2024-04-25T18:22:39Z</time>
      </trkpt>
      <trkpt lat="46.79118" lon="-1.50434">
        <ele>57</ele>
        <time>2024-04-25T18:22:40Z</time>
      </trkpt>
      <trkpt lat="46.79118" lon="-1.50429">
        <ele>57.2</ele>
        <time>2024-04-25T18:22:41Z</time>
      </trkpt>
      <trkpt lat="46.79118" lon="-1.50424">
        <ele>57.2</ele>
        <time>2024-04-25T18:22:42Z</time>
      </trkpt>
      <trkpt lat="46.79119" lon="-1.50418">
        <ele>57.4</ele>
        <time>2024-04-25T18:22:43Z</time>
      </trkpt>
      <trkpt lat="46.7912" lon="-1.50413">
        <ele>57.4</ele>
        <time>2024-04-25T18:22:44Z</time>
      </trkpt>
      <trkpt lat="46.7912" lon="-1.50407">
        <ele>57.6</ele>
        <time>2024-04-25T18:22:45Z</time>
      </trkpt>
      <trkpt lat="46.79121" lon="-1.50402">
        <ele>57.6</ele>
        <time>2024-04-25T18:22:46Z</time>
      </trkpt>
      <trkpt lat="46.79122" lon="-1.50396">
        <ele>57.6</ele>
        <time>2024-04-25T18:22:47Z</time>
      </trkpt>
      <trkpt lat="46.79122" lon="-1.50391">
        <ele>57.8</ele>
        <time>2024-04-25T18:22:48Z</time>
      </trkpt>
      <trkpt lat="46.79123" lon="-1.50386">
        <ele>57.8</ele>
        <time>2024-04-25T18:22:49Z</time>
      </trkpt>
      <trkpt lat="46.79124" lon="-1.5038">
        <ele>57.8</ele>
        <time>2024-04-25T18:22:50Z</time>
      </trkpt>
      <trkpt lat="46.79124" lon="-1.50375">
        <ele>58</ele>
        <time>2024-04-25T18:22:51Z</time>
      </trkpt>
      <trkpt lat="46.79124" lon="-1.50369">
        <ele>58</ele>
        <time>2024-04-25T18:22:52Z</time>
      </trkpt>
      <trkpt lat="46.79125" lon="-1.50363">
        <ele>58</ele>
        <time>2024-04-25T18:22:53Z</time>
      </trkpt>
      <trkpt lat="46.79124" lon="-1.50358">
        <ele>58</ele>
        <time>2024-04-25T18:22:54Z</time>
      </trkpt>
      <trkpt lat="46.79124" lon="-1.50353">
        <ele>58.2</ele>
        <time>2024-04-25T18:22:55Z</time>
      </trkpt>
      <trkpt lat="46.79125" lon="-1.50347">
        <ele>58.2</ele>
        <time>2024-04-25T18:22:56Z</time>
      </trkpt>
      <trkpt lat="46.79125" lon="-1.50342">
        <ele>58.2</ele>
        <time>2024-04-25T18:22:57Z</time>
      </trkpt>
      <trkpt lat="46.79126" lon="-1.50337">
        <ele>58.2</ele>
        <time>2024-04-25T18:22:58Z</time>
      </trkpt>
      <trkpt lat="46.79126" lon="-1.50331">
        <ele>58.2</ele>
        <time>2024-04-25T18:22:59Z</time>
      </trkpt>
      <trkpt lat="46.79126" lon="-1.50325">
        <ele>58.4</ele>
        <time>2024-04-25T18:23:00Z</time>
      </trkpt>
      <trkpt lat="46.79126" lon="-1.5032">
        <ele>58.4</ele>
        <time>2024-04-25T18:23:01Z</time>
      </trkpt>
      <trkpt lat="46.79125" lon="-1.50314">
        <ele>58.4</ele>
        <time>2024-04-25T18:23:02Z</time>
      </trkpt>
      <trkpt lat="46.79124" lon="-1.50309">
        <ele>58.4</ele>
        <time>2024-04-25T18:23:03Z</time>
      </trkpt>
      <trkpt lat="46.79122" lon="-1.50305">
        <ele>58.4</ele>
        <time>2024-04-25T18:23:04Z</time>
      </trkpt>
      <trkpt lat="46.79119" lon="-1.50301">
        <ele>58.6</ele>
        <time>2024-04-25T18:23:05Z</time>
      </trkpt>
      <trkpt lat="46.79116" lon="-1.50297">
        <ele>58.6</ele>
        <time>2024-04-25T18:23:06Z</time>
      </trkpt>
      <trkpt lat="46.79113" lon="-1.50293">
        <ele>58.8</ele>
        <time>2024-04-25T18:23:07Z</time>
      </trkpt>
      <trkpt lat="46.7911" lon="-1.5029">
        <ele>58.8</ele>
        <time>2024-04-25T18:23:08Z</time>
      </trkpt>
      <trkpt lat="46.79107" lon="-1.50286">
        <ele>58.8</ele>
        <time>2024-04-25T18:23:09Z</time>
      </trkpt>
      <trkpt lat="46.79103" lon="-1.50283">
        <ele>58.8</ele>
        <time>2024-04-25T18:23:10Z</time>
      </trkpt>
      <trkpt lat="46.79099" lon="-1.5028">
        <ele>59</ele>
        <time>2024-04-25T18:23:11Z</time>
      </trkpt>
      <trkpt lat="46.79094" lon="-1.50279">
        <ele>59</ele>
        <time>2024-04-25T18:23:12Z</time>
      </trkpt>
      <trkpt lat="46.7909" lon="-1.50278">
        <ele>59</ele>
        <time>2024-04-25T18:23:13Z</time>
      </trkpt>
      <trkpt lat="46.79086" lon="-1.50279">
        <ele>59</ele>
        <time>2024-04-25T18:23:14Z</time>
      </trkpt>
      <trkpt lat="46.79082" lon="-1.50279">
        <ele>59</ele>
        <time>2024-04-25T18:23:15Z</time>
      </trkpt>
      <trkpt lat="46.79075" lon="-1.50279">
        <ele>59</ele>
        <time>2024-04-25T18:23:16Z</time>
      </trkpt>
      <trkpt lat="46.79071" lon="-1.50279">
        <ele>59</ele>
        <time>2024-04-25T18:23:17Z</time>
      </trkpt>
      <trkpt lat="46.79067" lon="-1.50278">
        <ele>59.2</ele>
        <time>2024-04-25T18:23:18Z</time>
      </trkpt>
      <trkpt lat="46.79063" lon="-1.50278">
        <ele>59.2</ele>
        <time>2024-04-25T18:23:19Z</time>
      </trkpt>
      <trkpt lat="46.79061" lon="-1.50279">
        <ele>59.2</ele>
        <time>2024-04-25T18:23:20Z</time>
      </trkpt>
      <trkpt lat="46.79058" lon="-1.5028">
        <ele>59.2</ele>
        <time>2024-04-25T18:23:21Z</time>
      </trkpt>
      <trkpt lat="46.79056" lon="-1.50282">
        <ele>59.4</ele>
        <time>2024-04-25T18:23:22Z</time>
      </trkpt>
      <trkpt lat="46.79053" lon="-1.50284">
        <ele>59.4</ele>
        <time>2024-04-25T18:23:23Z</time>
      </trkpt>
      <trkpt lat="46.7905" lon="-1.50286">
        <ele>59.4</ele>
        <time>2024-04-25T18:23:24Z</time>
      </trkpt>
      <trkpt lat="46.79047" lon="-1.50289">
        <ele>59.6</ele>
        <time>2024-04-25T18:23:25Z</time>
      </trkpt>
      <trkpt lat="46.79044" lon="-1.50291">
        <ele>59.6</ele>
        <time>2024-04-25T18:23:26Z</time>
      </trkpt>
      <trkpt lat="46.79041" lon="-1.50294">
        <ele>59.6</ele>
        <time>2024-04-25T18:23:27Z</time>
      </trkpt>
      <trkpt lat="46.79038" lon="-1.50296">
        <ele>59.6</ele>
        <time>2024-04-25T18:23:28Z</time>
      </trkpt>
      <trkpt lat="46.79035" lon="-1.50299">
        <ele>59.6</ele>
        <time>2024-04-25T18:23:29Z</time>
      </trkpt>
      <trkpt lat="46.7903" lon="-1.50303">
        <ele>59.6</ele>
        <time>2024-04-25T18:23:30Z</time>
      </trkpt>
      <trkpt lat="46.79029" lon="-1.50304">
        <ele>59.8</ele>
        <time>2024-04-25T18:23:31Z</time>
      </trkpt>
      <trkpt lat="46.79026" lon="-1.50307">
        <ele>59.8</ele>
        <time>2024-04-25T18:23:32Z</time>
      </trkpt>
      <trkpt lat="46.79023" lon="-1.50309">
        <ele>59.8</ele>
        <time>2024-04-25T18:23:33Z</time>
      </trkpt>
      <trkpt lat="46.7902" lon="-1.50311">
        <ele>59.8</ele>
        <time>2024-04-25T18:23:34Z</time>
      </trkpt>
      <trkpt lat="46.79017" lon="-1.50314">
        <ele>59.8</ele>
        <time>2024-04-25T18:23:35Z</time>
      </trkpt>
      <trkpt lat="46.79014" lon="-1.50316">
        <ele>59.8</ele>
        <time>2024-04-25T18:23:36Z</time>
      </trkpt>
      <trkpt lat="46.7901" lon="-1.50319">
        <ele>60</ele>
        <time>2024-04-25T18:23:37Z</time>
      </trkpt>
      <trkpt lat="46.79007" lon="-1.50322">
        <ele>60</ele>
        <time>2024-04-25T18:23:39Z</time>
      </trkpt>
      <trkpt lat="46.79002" lon="-1.50326">
        <ele>60</ele>
        <time>2024-04-25T18:23:40Z</time>
      </trkpt>
      <trkpt lat="46.79" lon="-1.50327">
        <ele>60</ele>
        <time>2024-04-25T18:23:41Z</time>
      </trkpt>
      <trkpt lat="46.78997" lon="-1.50328">
        <ele>60</ele>
        <time>2024-04-25T18:23:42Z</time>
      </trkpt>
      <trkpt lat="46.78993" lon="-1.50329">
        <ele>60</ele>
        <time>2024-04-25T18:23:43Z</time>
      </trkpt>
      <trkpt lat="46.78988" lon="-1.50329">
        <ele>60.2</ele>
        <time>2024-04-25T18:23:44Z</time>
      </trkpt>
      <trkpt lat="46.78986" lon="-1.50329">
        <ele>60.2</ele>
        <time>2024-04-25T18:23:45Z</time>
      </trkpt>
      <trkpt lat="46.78982" lon="-1.50328">
        <ele>60.4</ele>
        <time>2024-04-25T18:23:46Z</time>
      </trkpt>
      <trkpt lat="46.78979" lon="-1.50327">
        <ele>60.6</ele>
        <time>2024-04-25T18:23:47Z</time>
      </trkpt>
      <trkpt lat="46.78975" lon="-1.50326">
        <ele>60.6</ele>
        <time>2024-04-25T18:23:48Z</time>
      </trkpt>
      <trkpt lat="46.78971" lon="-1.50325">
        <ele>60.8</ele>
        <time>2024-04-25T18:23:49Z</time>
      </trkpt>
      <trkpt lat="46.78967" lon="-1.50324">
        <ele>61</ele>
        <time>2024-04-25T18:23:50Z</time>
      </trkpt>
      <trkpt lat="46.78964" lon="-1.50324">
        <ele>61</ele>
        <time>2024-04-25T18:23:51Z</time>
      </trkpt>
      <trkpt lat="46.7896" lon="-1.50324">
        <ele>61.2</ele>
        <time>2024-04-25T18:23:52Z</time>
      </trkpt>
      <trkpt lat="46.78956" lon="-1.50326">
        <ele>61.2</ele>
        <time>2024-04-25T18:23:53Z</time>
      </trkpt>
      <trkpt lat="46.78953" lon="-1.50328">
        <ele>61.2</ele>
        <time>2024-04-25T18:23:54Z</time>
      </trkpt>
      <trkpt lat="46.78949" lon="-1.50331">
        <ele>61.2</ele>
        <time>2024-04-25T18:23:55Z</time>
      </trkpt>
      <trkpt lat="46.78946" lon="-1.50334">
        <ele>61.2</ele>
        <time>2024-04-25T18:23:56Z</time>
      </trkpt>
      <trkpt lat="46.78942" lon="-1.50337">
        <ele>61.2</ele>
        <time>2024-04-25T18:23:57Z</time>
      </trkpt>
      <trkpt lat="46.78938" lon="-1.50339">
        <ele>61.2</ele>
        <time>2024-04-25T18:23:58Z</time>
      </trkpt>
      <trkpt lat="46.78934" lon="-1.50342">
        <ele>61.2</ele>
        <time>2024-04-25T18:23:59Z</time>
      </trkpt>
      <trkpt lat="46.78929" lon="-1.50345">
        <ele>61.2</ele>
        <time>2024-04-25T18:24:00Z</time>
      </trkpt>
      <trkpt lat="46.78927" lon="-1.50346">
        <ele>61.2</ele>
        <time>2024-04-25T18:24:01Z</time>
      </trkpt>
      <trkpt lat="46.78923" lon="-1.50349">
        <ele>61.2</ele>
        <time>2024-04-25T18:24:02Z</time>
      </trkpt>
      <trkpt lat="46.78918" lon="-1.50351">
        <ele>61</ele>
        <time>2024-04-25T18:24:03Z</time>
      </trkpt>
      <trkpt lat="46.78914" lon="-1.50354">
        <ele>61</ele>
        <time>2024-04-25T18:24:04Z</time>
      </trkpt>
      <trkpt lat="46.7891" lon="-1.50356">
        <ele>60.8</ele>
        <time>2024-04-25T18:24:05Z</time>
      </trkpt>
      <trkpt lat="46.78906" lon="-1.50359">
        <ele>60.6</ele>
        <time>2024-04-25T18:24:06Z</time>
      </trkpt>
      <trkpt lat="46.78901" lon="-1.50361">
        <ele>60.6</ele>
        <time>2024-04-25T18:24:07Z</time>
      </trkpt>
      <trkpt lat="46.78897" lon="-1.50363">
        <ele>60.6</ele>
        <time>2024-04-25T18:24:08Z</time>
      </trkpt>
      <trkpt lat="46.78892" lon="-1.50365">
        <ele>60.6</ele>
        <time>2024-04-25T18:24:09Z</time>
      </trkpt>
      <trkpt lat="46.78888" lon="-1.50367">
        <ele>60.6</ele>
        <time>2024-04-25T18:24:10Z</time>
      </trkpt>
      <trkpt lat="46.78884" lon="-1.50368">
        <ele>60.8</ele>
        <time>2024-04-25T18:24:11Z</time>
      </trkpt>
      <trkpt lat="46.78878" lon="-1.5037">
        <ele>60.8</ele>
        <time>2024-04-25T18:24:12Z</time>
      </trkpt>
      <trkpt lat="46.78875" lon="-1.5037">
        <ele>60.8</ele>
        <time>2024-04-25T18:24:13Z</time>
      </trkpt>
      <trkpt lat="46.78872" lon="-1.50371">
        <ele>61</ele>
        <time>2024-04-25T18:24:14Z</time>
      </trkpt>
      <trkpt lat="46.78868" lon="-1.50372">
        <ele>60.8</ele>
        <time>2024-04-25T18:24:15Z</time>
      </trkpt>
      <trkpt lat="46.78864" lon="-1.50373">
        <ele>60.8</ele>
        <time>2024-04-25T18:24:16Z</time>
      </trkpt>
      <trkpt lat="46.7886" lon="-1.50374">
        <ele>60.8</ele>
        <time>2024-04-25T18:24:17Z</time>
      </trkpt>
      <trkpt lat="46.78857" lon="-1.50375">
        <ele>60.8</ele>
        <time>2024-04-25T18:24:18Z</time>
      </trkpt>
      <trkpt lat="46.78853" lon="-1.50375">
        <ele>60.8</ele>
        <time>2024-04-25T18:24:19Z</time>
      </trkpt>
      <trkpt lat="46.7885" lon="-1.50376">
        <ele>60.8</ele>
        <time>2024-04-25T18:24:20Z</time>
      </trkpt>
      <trkpt lat="46.78847" lon="-1.50377">
        <ele>61</ele>
        <time>2024-04-25T18:24:21Z</time>
      </trkpt>
      <trkpt lat="46.78844" lon="-1.50379">
        <ele>61.2</ele>
        <time>2024-04-25T18:24:22Z</time>
      </trkpt>
      <trkpt lat="46.78841" lon="-1.50383">
        <ele>61.2</ele>
        <time>2024-04-25T18:24:23Z</time>
      </trkpt>
      <trkpt lat="46.78839" lon="-1.50387">
        <ele>61.2</ele>
        <time>2024-04-25T18:24:24Z</time>
      </trkpt>
      <trkpt lat="46.78836" lon="-1.50391">
        <ele>61.2</ele>
        <time>2024-04-25T18:24:25Z</time>
      </trkpt>
      <trkpt lat="46.78833" lon="-1.50395">
        <ele>61</ele>
        <time>2024-04-25T18:24:26Z</time>
      </trkpt>
      <trkpt lat="46.78829" lon="-1.50398">
        <ele>61</ele>
        <time>2024-04-25T18:24:27Z</time>
      </trkpt>
      <trkpt lat="46.78825" lon="-1.50399">
        <ele>60.8</ele>
        <time>2024-04-25T18:24:28Z</time>
      </trkpt>
      <trkpt lat="46.78821" lon="-1.50399">
        <ele>60.8</ele>
        <time>2024-04-25T18:24:29Z</time>
      </trkpt>
      <trkpt lat="46.78816" lon="-1.50399">
        <ele>60.8</ele>
        <time>2024-04-25T18:24:30Z</time>
      </trkpt>
      <trkpt lat="46.78811" lon="-1.504">
        <ele>60.8</ele>
        <time>2024-04-25T18:24:31Z</time>
      </trkpt>
      <trkpt lat="46.78807" lon="-1.50402">
        <ele>60.8</ele>
        <time>2024-04-25T18:24:32Z</time>
      </trkpt>
      <trkpt lat="46.78802" lon="-1.50405">
        <ele>60.6</ele>
        <time>2024-04-25T18:24:33Z</time>
      </trkpt>
      <trkpt lat="46.78798" lon="-1.5041">
        <ele>60.4</ele>
        <time>2024-04-25T18:24:34Z</time>
      </trkpt>
      <trkpt lat="46.78794" lon="-1.50415">
        <ele>60.4</ele>
        <time>2024-04-25T18:24:35Z</time>
      </trkpt>
      <trkpt lat="46.7879" lon="-1.5042">
        <ele>60.2</ele>
        <time>2024-04-25T18:24:36Z</time>
      </trkpt>
      <trkpt lat="46.78786" lon="-1.50426">
        <ele>60</ele>
        <time>2024-04-25T18:24:37Z</time>
      </trkpt>
      <trkpt lat="46.78782" lon="-1.50431">
        <ele>59.8</ele>
        <time>2024-04-25T18:24:38Z</time>
      </trkpt>
      <trkpt lat="46.78778" lon="-1.50437">
        <ele>59.6</ele>
        <time>2024-04-25T18:24:39Z</time>
      </trkpt>
      <trkpt lat="46.78773" lon="-1.50443">
        <ele>59.6</ele>
        <time>2024-04-25T18:24:40Z</time>
      </trkpt>
      <trkpt lat="46.78766" lon="-1.50451">
        <ele>59.4</ele>
        <time>2024-04-25T18:24:41Z</time>
      </trkpt>
      <trkpt lat="46.78759" lon="-1.50458">
        <ele>59.2</ele>
        <time>2024-04-25T18:24:42Z</time>
      </trkpt>
      <trkpt lat="46.78753" lon="-1.50465">
        <ele>59</ele>
        <time>2024-04-25T18:24:43Z</time>
      </trkpt>
      <trkpt lat="46.78747" lon="-1.50471">
        <ele>58.8</ele>
        <time>2024-04-25T18:24:44Z</time>
      </trkpt>
      <trkpt lat="46.78741" lon="-1.50476">
        <ele>58.6</ele>
        <time>2024-04-25T18:24:45Z</time>
      </trkpt>
      <trkpt lat="46.78736" lon="-1.50481">
        <ele>58.6</ele>
        <time>2024-04-25T18:24:46Z</time>
      </trkpt>
      <trkpt lat="46.7873" lon="-1.50487">
        <ele>58.4</ele>
        <time>2024-04-25T18:24:47Z</time>
      </trkpt>
      <trkpt lat="46.78724" lon="-1.50492">
        <ele>58.4</ele>
        <time>2024-04-25T18:24:48Z</time>
      </trkpt>
      <trkpt lat="46.78718" lon="-1.50496">
        <ele>58.4</ele>
        <time>2024-04-25T18:24:49Z</time>
      </trkpt>
      <trkpt lat="46.78712" lon="-1.50501">
        <ele>58.4</ele>
        <time>2024-04-25T18:24:50Z</time>
      </trkpt>
      <trkpt lat="46.78706" lon="-1.50506">
        <ele>58.2</ele>
        <time>2024-04-25T18:24:51Z</time>
      </trkpt>
      <trkpt lat="46.787" lon="-1.50511">
        <ele>58.2</ele>
        <time>2024-04-25T18:24:52Z</time>
      </trkpt>
      <trkpt lat="46.78694" lon="-1.50516">
        <ele>57.8</ele>
        <time>2024-04-25T18:24:53Z</time>
      </trkpt>
      <trkpt lat="46.78688" lon="-1.50522">
        <ele>57.8</ele>
        <time>2024-04-25T18:24:54Z</time>
      </trkpt>
      <trkpt lat="46.78682" lon="-1.50527">
        <ele>57.6</ele>
        <time>2024-04-25T18:24:55Z</time>
      </trkpt>
      <trkpt lat="46.78676" lon="-1.50533">
        <ele>57.4</ele>
        <time>2024-04-25T18:24:56Z</time>
      </trkpt>
      <trkpt lat="46.7867" lon="-1.50538">
        <ele>57.2</ele>
        <time>2024-04-25T18:24:57Z</time>
      </trkpt>
      <trkpt lat="46.78663" lon="-1.50543">
        <ele>57</ele>
        <time>2024-04-25T18:24:58Z</time>
      </trkpt>
      <trkpt lat="46.78657" lon="-1.50549">
        <ele>56.8</ele>
        <time>2024-04-25T18:24:59Z</time>
      </trkpt>
      <trkpt lat="46.7865" lon="-1.50554">
        <ele>56.6</ele>
        <time>2024-04-25T18:25:00Z</time>
      </trkpt>
      <trkpt lat="46.78643" lon="-1.50559">
        <ele>56.4</ele>
        <time>2024-04-25T18:25:01Z</time>
      </trkpt>
      <trkpt lat="46.78637" lon="-1.50565">
        <ele>56.2</ele>
        <time>2024-04-25T18:25:02Z</time>
      </trkpt>
      <trkpt lat="46.7863" lon="-1.5057">
        <ele>56</ele>
        <time>2024-04-25T18:25:03Z</time>
      </trkpt>
      <trkpt lat="46.78623" lon="-1.50576">
        <ele>56</ele>
        <time>2024-04-25T18:25:05Z</time>
      </trkpt>
      <trkpt lat="46.78613" lon="-1.50585">
        <ele>55.6</ele>
        <time>2024-04-25T18:25:06Z</time>
      </trkpt>
      <trkpt lat="46.7861" lon="-1.50588">
        <ele>55.4</ele>
        <time>2024-04-25T18:25:07Z</time>
      </trkpt>
      <trkpt lat="46.78603" lon="-1.50594">
        <ele>55.2</ele>
        <time>2024-04-25T18:25:08Z</time>
      </trkpt>
      <trkpt lat="46.78596" lon="-1.506">
        <ele>55</ele>
        <time>2024-04-25T18:25:09Z</time>
      </trkpt>
      <trkpt lat="46.78587" lon="-1.50607">
        <ele>54.8</ele>
        <time>2024-04-25T18:25:10Z</time>
      </trkpt>
      <trkpt lat="46.78583" lon="-1.50609">
        <ele>54.6</ele>
        <time>2024-04-25T18:25:11Z</time>
      </trkpt>
      <trkpt lat="46.78577" lon="-1.50614">
        <ele>54.2</ele>
        <time>2024-04-25T18:25:12Z</time>
      </trkpt>
      <trkpt lat="46.78571" lon="-1.5062">
        <ele>54</ele>
        <time>2024-04-25T18:25:13Z</time>
      </trkpt>
      <trkpt lat="46.78566" lon="-1.50625">
        <ele>53.4</ele>
        <time>2024-04-25T18:25:14Z</time>
      </trkpt>
      <trkpt lat="46.7856" lon="-1.50631">
        <ele>52.8</ele>
        <time>2024-04-25T18:25:15Z</time>
      </trkpt>
      <trkpt lat="46.78554" lon="-1.50637">
        <ele>52.4</ele>
        <time>2024-04-25T18:25:16Z</time>
      </trkpt>
      <trkpt lat="46.78548" lon="-1.50645">
        <ele>51.6</ele>
        <time>2024-04-25T18:25:17Z</time>
      </trkpt>
      <trkpt lat="46.78542" lon="-1.50651">
        <ele>51.2</ele>
        <time>2024-04-25T18:25:18Z</time>
      </trkpt>
      <trkpt lat="46.78535" lon="-1.50657">
        <ele>50.8</ele>
        <time>2024-04-25T18:25:19Z</time>
      </trkpt>
      <trkpt lat="46.78527" lon="-1.5066">
        <ele>50.2</ele>
        <time>2024-04-25T18:25:20Z</time>
      </trkpt>
      <trkpt lat="46.78519" lon="-1.50662">
        <ele>49.8</ele>
        <time>2024-04-25T18:25:21Z</time>
      </trkpt>
      <trkpt lat="46.78511" lon="-1.50664">
        <ele>49.2</ele>
        <time>2024-04-25T18:25:22Z</time>
      </trkpt>
      <trkpt lat="46.78502" lon="-1.50665">
        <ele>48.8</ele>
        <time>2024-04-25T18:25:23Z</time>
      </trkpt>
      <trkpt lat="46.78494" lon="-1.50665">
        <ele>48.4</ele>
        <time>2024-04-25T18:25:24Z</time>
      </trkpt>
      <trkpt lat="46.78488" lon="-1.50665">
        <ele>48</ele>
        <time>2024-04-25T18:25:25Z</time>
      </trkpt>
      <trkpt lat="46.78482" lon="-1.50665">
        <ele>47.6</ele>
        <time>2024-04-25T18:25:26Z</time>
      </trkpt>
      <trkpt lat="46.78477" lon="-1.50666">
        <ele>46.8</ele>
        <time>2024-04-25T18:25:27Z</time>
      </trkpt>
      <trkpt lat="46.78472" lon="-1.50669">
        <ele>46.2</ele>
        <time>2024-04-25T18:25:28Z</time>
      </trkpt>
      <trkpt lat="46.78466" lon="-1.50673">
        <ele>45</ele>
        <time>2024-04-25T18:25:29Z</time>
      </trkpt>
      <trkpt lat="46.78459" lon="-1.50676">
        <ele>44.2</ele>
        <time>2024-04-25T18:25:30Z</time>
      </trkpt>
      <trkpt lat="46.78452" lon="-1.5068">
        <ele>43.2</ele>
        <time>2024-04-25T18:25:31Z</time>
      </trkpt>
      <trkpt lat="46.78446" lon="-1.50682">
        <ele>42.4</ele>
        <time>2024-04-25T18:25:32Z</time>
      </trkpt>
      <trkpt lat="46.7844" lon="-1.50682">
        <ele>41.6</ele>
        <time>2024-04-25T18:25:33Z</time>
      </trkpt>
      <trkpt lat="46.78437" lon="-1.50681">
        <ele>41</ele>
        <time>2024-04-25T18:25:34Z</time>
      </trkpt>
      <trkpt lat="46.78436" lon="-1.50679">
        <ele>40.4</ele>
        <time>2024-04-25T18:25:35Z</time>
      </trkpt>
      <trkpt lat="46.78436" lon="-1.50677">
        <ele>40</ele>
        <time>2024-04-25T18:25:36Z</time>
      </trkpt>
      <trkpt lat="46.78437" lon="-1.50674">
        <ele>39.6</ele>
        <time>2024-04-25T18:25:37Z</time>
      </trkpt>
      <trkpt lat="46.78438" lon="-1.50672">
        <ele>39.4</ele>
        <time>2024-04-25T18:25:38Z</time>
      </trkpt>
      <trkpt lat="46.7844" lon="-1.5067">
        <ele>39.2</ele>
        <time>2024-04-25T18:25:39Z</time>
      </trkpt>
      <trkpt lat="46.78441" lon="-1.50669">
        <ele>39.2</ele>
        <time>2024-04-25T18:25:40Z</time>
      </trkpt>
      <trkpt lat="46.78443" lon="-1.50668">
        <ele>39</ele>
        <time>2024-04-25T18:25:41Z</time>
      </trkpt>
      <trkpt lat="46.78444" lon="-1.50667">
        <ele>38.8</ele>
        <time>2024-04-25T18:25:42Z</time>
      </trkpt>
      <trkpt lat="46.78446" lon="-1.50665">
        <ele>38.6</ele>
        <time>2024-04-25T18:25:43Z</time>
      </trkpt>
      <trkpt lat="46.78447" lon="-1.50664">
        <ele>38.4</ele>
        <time>2024-04-25T18:25:44Z</time>
      </trkpt>
      <trkpt lat="46.7845" lon="-1.50661">
        <ele>38</ele>
        <time>2024-04-25T18:25:45Z</time>
      </trkpt>
      <trkpt lat="46.78453" lon="-1.50659">
        <ele>37.8</ele>
        <time>2024-04-25T18:25:46Z</time>
      </trkpt>
      <trkpt lat="46.78456" lon="-1.50657">
        <ele>37.6</ele>
        <time>2024-04-25T18:25:47Z</time>
      </trkpt>
      <trkpt lat="46.7846" lon="-1.50654">
        <ele>37.4</ele>
        <time>2024-04-25T18:25:48Z</time>
      </trkpt>
      <trkpt lat="46.78464" lon="-1.50651">
        <ele>37.2</ele>
        <time>2024-04-25T18:25:49Z</time>
      </trkpt>
      <trkpt lat="46.78467" lon="-1.50648">
        <ele>37.2</ele>
        <time>2024-04-25T18:25:50Z</time>
      </trkpt>
      <trkpt lat="46.78472" lon="-1.50644">
        <ele>37</ele>
        <time>2024-04-25T18:25:51Z</time>
      </trkpt>
      <trkpt lat="46.78476" lon="-1.50641">
        <ele>37</ele>
        <time>2024-04-25T18:25:52Z</time>
      </trkpt>
      <trkpt lat="46.7848" lon="-1.50638">
        <ele>37</ele>
        <time>2024-04-25T18:25:53Z</time>
      </trkpt>
      <trkpt lat="46.78483" lon="-1.50635">
        <ele>37</ele>
        <time>2024-04-25T18:25:54Z</time>
      </trkpt>
      <trkpt lat="46.78487" lon="-1.50631">
        <ele>37</ele>
        <time>2024-04-25T18:25:55Z</time>
      </trkpt>
      <trkpt lat="46.78491" lon="-1.50627">
        <ele>37</ele>
        <time>2024-04-25T18:25:56Z</time>
      </trkpt>
      <trkpt lat="46.78494" lon="-1.50623">
        <ele>37.2</ele>
        <time>2024-04-25T18:25:57Z</time>
      </trkpt>
      <trkpt lat="46.78498" lon="-1.50618">
        <ele>37.2</ele>
        <time>2024-04-25T18:25:58Z</time>
      </trkpt>
      <trkpt lat="46.78501" lon="-1.50613">
        <ele>37.4</ele>
        <time>2024-04-25T18:25:59Z</time>
      </trkpt>
      <trkpt lat="46.78504" lon="-1.50608">
        <ele>37.4</ele>
        <time>2024-04-25T18:26:00Z</time>
      </trkpt>
      <trkpt lat="46.78507" lon="-1.50603">
        <ele>37.4</ele>
        <time>2024-04-25T18:26:01Z</time>
      </trkpt>
      <trkpt lat="46.78509" lon="-1.50597">
        <ele>37.4</ele>
        <time>2024-04-25T18:26:02Z</time>
      </trkpt>
      <trkpt lat="46.7851" lon="-1.5059">
        <ele>37.4</ele>
        <time>2024-04-25T18:26:03Z</time>
      </trkpt>
      <trkpt lat="46.78511" lon="-1.50583">
        <ele>37.2</ele>
        <time>2024-04-25T18:26:04Z</time>
      </trkpt>
      <trkpt lat="46.7851" lon="-1.50571">
        <ele>37.2</ele>
        <time>2024-04-25T18:26:05Z</time>
      </trkpt>
      <trkpt lat="46.78508" lon="-1.5056">
        <ele>36.8</ele>
        <time>2024-04-25T18:26:06Z</time>
      </trkpt>
      <trkpt lat="46.78505" lon="-1.5055">
        <ele>36.6</ele>
        <time>2024-04-25T18:26:07Z</time>
      </trkpt>
      <trkpt lat="46.78502" lon="-1.50541">
        <ele>36.2</ele>
        <time>2024-04-25T18:26:08Z</time>
      </trkpt>
      <trkpt lat="46.78498" lon="-1.50532">
        <ele>36</ele>
        <time>2024-04-25T18:26:09Z</time>
      </trkpt>
      <trkpt lat="46.78495" lon="-1.50523">
        <ele>35.6</ele>
        <time>2024-04-25T18:26:10Z</time>
      </trkpt>
      <trkpt lat="46.78492" lon="-1.50515">
        <ele>35.6</ele>
        <time>2024-04-25T18:26:11Z</time>
      </trkpt>
      <trkpt lat="46.78489" lon="-1.50506">
        <ele>35.4</ele>
        <time>2024-04-25T18:26:12Z</time>
      </trkpt>
      <trkpt lat="46.78487" lon="-1.50498">
        <ele>35.4</ele>
        <time>2024-04-25T18:26:13Z</time>
      </trkpt>
      <trkpt lat="46.78485" lon="-1.50489">
        <ele>35.2</ele>
        <time>2024-04-25T18:26:14Z</time>
      </trkpt>
      <trkpt lat="46.78483" lon="-1.50481">
        <ele>35.2</ele>
        <time>2024-04-25T18:26:15Z</time>
      </trkpt>
      <trkpt lat="46.78481" lon="-1.50473">
        <ele>35.2</ele>
        <time>2024-04-25T18:26:16Z</time>
      </trkpt>
      <trkpt lat="46.78478" lon="-1.50465">
        <ele>35.2</ele>
        <time>2024-04-25T18:26:17Z</time>
      </trkpt>
      <trkpt lat="46.78475" lon="-1.50458">
        <ele>35</ele>
        <time>2024-04-25T18:26:18Z</time>
      </trkpt>
      <trkpt lat="46.78471" lon="-1.50451">
        <ele>34.8</ele>
        <time>2024-04-25T18:26:19Z</time>
      </trkpt>
      <trkpt lat="46.78467" lon="-1.50443">
        <ele>34.8</ele>
        <time>2024-04-25T18:26:20Z</time>
      </trkpt>
      <trkpt lat="46.78464" lon="-1.50436">
        <ele>34.6</ele>
        <time>2024-04-25T18:26:21Z</time>
      </trkpt>
      <trkpt lat="46.7846" lon="-1.50428">
        <ele>34.6</ele>
        <time>2024-04-25T18:26:22Z</time>
      </trkpt>
      <trkpt lat="46.78456" lon="-1.50421">
        <ele>34.4</ele>
        <time>2024-04-25T18:26:23Z</time>
      </trkpt>
      <trkpt lat="46.78453" lon="-1.50413">
        <ele>34.4</ele>
        <time>2024-04-25T18:26:24Z</time>
      </trkpt>
      <trkpt lat="46.78449" lon="-1.50406">
        <ele>34.4</ele>
        <time>2024-04-25T18:26:25Z</time>
      </trkpt>
      <trkpt lat="46.78446" lon="-1.50398">
        <ele>34.4</ele>
        <time>2024-04-25T18:26:26Z</time>
      </trkpt>
      <trkpt lat="46.78443" lon="-1.5039">
        <ele>34.4</ele>
        <time>2024-04-25T18:26:27Z</time>
      </trkpt>
      <trkpt lat="46.78441" lon="-1.50382">
        <ele>34.2</ele>
        <time>2024-04-25T18:26:29Z</time>
      </trkpt>
      <trkpt lat="46.78438" lon="-1.50374">
        <ele>34.2</ele>
        <time>2024-04-25T18:26:30Z</time>
      </trkpt>
      <trkpt lat="46.78436" lon="-1.50366">
        <ele>34.2</ele>
        <time>2024-04-25T18:26:31Z</time>
      </trkpt>
      <trkpt lat="46.78434" lon="-1.50358">
        <ele>34.2</ele>
        <time>2024-04-25T18:26:32Z</time>
      </trkpt>
      <trkpt lat="46.78432" lon="-1.50352">
        <ele>34.2</ele>
        <time>2024-04-25T18:26:33Z</time>
      </trkpt>
      <trkpt lat="46.7843" lon="-1.50345">
        <ele>34.4</ele>
        <time>2024-04-25T18:26:34Z</time>
      </trkpt>
      <trkpt lat="46.78429" lon="-1.5034">
        <ele>34.6</ele>
        <time>2024-04-25T18:26:35Z</time>
      </trkpt>
      <trkpt lat="46.78428" lon="-1.50335">
        <ele>34.8</ele>
        <time>2024-04-25T18:26:36Z</time>
      </trkpt>
      <trkpt lat="46.78428" lon="-1.50332">
        <ele>35</ele>
        <time>2024-04-25T18:26:37Z</time>
      </trkpt>
      <trkpt lat="46.78426" lon="-1.5033">
        <ele>35</ele>
        <time>2024-04-25T18:26:38Z</time>
      </trkpt>
      <trkpt lat="46.78424" lon="-1.50329">
        <ele>34.8</ele>
        <time>2024-04-25T18:26:39Z</time>
      </trkpt>
      <trkpt lat="46.78421" lon="-1.50328">
        <ele>34.6</ele>
        <time>2024-04-25T18:26:40Z</time>
      </trkpt>
      <trkpt lat="46.78417" lon="-1.50328">
        <ele>34.2</ele>
        <time>2024-04-25T18:26:41Z</time>
      </trkpt>
      <trkpt lat="46.78415" lon="-1.50328">
        <ele>34</ele>
        <time>2024-04-25T18:26:42Z</time>
      </trkpt>
      <trkpt lat="46.78413" lon="-1.50328">
        <ele>34</ele>
        <time>2024-04-25T18:26:43Z</time>
      </trkpt>
      <trkpt lat="46.78411" lon="-1.50327">
        <ele>33.8</ele>
        <time>2024-04-25T18:26:44Z</time>
      </trkpt>
      <trkpt lat="46.78409" lon="-1.50325">
        <ele>33.6</ele>
        <time>2024-04-25T18:26:45Z</time>
      </trkpt>
      <trkpt lat="46.78407" lon="-1.50323">
        <ele>33.6</ele>
        <time>2024-04-25T18:26:46Z</time>
      </trkpt>
      <trkpt lat="46.78405" lon="-1.50322">
        <ele>33.6</ele>
        <time>2024-04-25T18:26:47Z</time>
      </trkpt>
      <trkpt lat="46.78403" lon="-1.50323">
        <ele>33.6</ele>
        <time>2024-04-25T18:26:48Z</time>
      </trkpt>
      <trkpt lat="46.78402" lon="-1.50328">
        <ele>33.4</ele>
        <time>2024-04-25T18:26:49Z</time>
      </trkpt>
      <trkpt lat="46.78401" lon="-1.5033">
        <ele>33.6</ele>
        <time>2024-04-25T18:26:50Z</time>
      </trkpt>
      <trkpt lat="46.78401" lon="-1.50335">
        <ele>33.6</ele>
        <time>2024-04-25T18:26:51Z</time>
      </trkpt>
      <trkpt lat="46.784" lon="-1.5034">
        <ele>33.6</ele>
        <time>2024-04-25T18:26:52Z</time>
      </trkpt>
      <trkpt lat="46.78399" lon="-1.50344">
        <ele>33.6</ele>
        <time>2024-04-25T18:26:53Z</time>
      </trkpt>
      <trkpt lat="46.78396" lon="-1.50347">
        <ele>33.6</ele>
        <time>2024-04-25T18:26:54Z</time>
      </trkpt>
      <trkpt lat="46.78394" lon="-1.5035">
        <ele>33.6</ele>
        <time>2024-04-25T18:26:55Z</time>
      </trkpt>
      <trkpt lat="46.78391" lon="-1.50353">
        <ele>33.6</ele>
        <time>2024-04-25T18:26:56Z</time>
      </trkpt>
      <trkpt lat="46.78388" lon="-1.50356">
        <ele>33.8</ele>
        <time>2024-04-25T18:26:57Z</time>
      </trkpt>
      <trkpt lat="46.78385" lon="-1.50361">
        <ele>34.2</ele>
        <time>2024-04-25T18:26:58Z</time>
      </trkpt>
      <trkpt lat="46.78384" lon="-1.50363">
        <ele>34.6</ele>
        <time>2024-04-25T18:26:59Z</time>
      </trkpt>
      <trkpt lat="46.78381" lon="-1.50366">
        <ele>35</ele>
        <time>2024-04-25T18:27:00Z</time>
      </trkpt>
      <trkpt lat="46.78379" lon="-1.50369">
        <ele>35.4</ele>
        <time>2024-04-25T18:27:01Z</time>
      </trkpt>
      <trkpt lat="46.78376" lon="-1.50371">
        <ele>35.8</ele>
        <time>2024-04-25T18:27:02Z</time>
      </trkpt>
      <trkpt lat="46.78374" lon="-1.50372">
        <ele>36.2</ele>
        <time>2024-04-25T18:27:03Z</time>
      </trkpt>
      <trkpt lat="46.78372" lon="-1.50373">
        <ele>36.6</ele>
        <time>2024-04-25T18:27:04Z</time>
      </trkpt>
      <trkpt lat="46.78369" lon="-1.50374">
        <ele>37</ele>
        <time>2024-04-25T18:27:05Z</time>
      </trkpt>
      <trkpt lat="46.78367" lon="-1.50374">
        <ele>37.4</ele>
        <time>2024-04-25T18:27:06Z</time>
      </trkpt>
      <trkpt lat="46.78364" lon="-1.50375">
        <ele>37.6</ele>
        <time>2024-04-25T18:27:07Z</time>
      </trkpt>
      <trkpt lat="46.78362" lon="-1.50375">
        <ele>38</ele>
        <time>2024-04-25T18:27:08Z</time>
      </trkpt>
      <trkpt lat="46.78359" lon="-1.50374">
        <ele>38.4</ele>
        <time>2024-04-25T18:27:09Z</time>
      </trkpt>
      <trkpt lat="46.78357" lon="-1.50374">
        <ele>38.6</ele>
        <time>2024-04-25T18:27:10Z</time>
      </trkpt>
      <trkpt lat="46.78355" lon="-1.50373">
        <ele>39</ele>
        <time>2024-04-25T18:27:11Z</time>
      </trkpt>
      <trkpt lat="46.78352" lon="-1.50372">
        <ele>39.2</ele>
        <time>2024-04-25T18:27:12Z</time>
      </trkpt>
      <trkpt lat="46.7835" lon="-1.5037">
        <ele>39.4</ele>
        <time>2024-04-25T18:27:13Z</time>
      </trkpt>
      <trkpt lat="46.78348" lon="-1.50369">
        <ele>39.8</ele>
        <time>2024-04-25T18:27:14Z</time>
      </trkpt>
      <trkpt lat="46.78345" lon="-1.50368">
        <ele>40</ele>
        <time>2024-04-25T18:27:15Z</time>
      </trkpt>
      <trkpt lat="46.78343" lon="-1.50366">
        <ele>40</ele>
        <time>2024-04-25T18:27:16Z</time>
      </trkpt>
      <trkpt lat="46.7834" lon="-1.50365">
        <ele>40.2</ele>
        <time>2024-04-25T18:27:17Z</time>
      </trkpt>
      <trkpt lat="46.78337" lon="-1.50364">
        <ele>40.4</ele>
        <time>2024-04-25T18:27:18Z</time>
      </trkpt>
      <trkpt lat="46.78334" lon="-1.50364">
        <ele>40.6</ele>
        <time>2024-04-25T18:27:19Z</time>
      </trkpt>
      <trkpt lat="46.78331" lon="-1.50363">
        <ele>40.6</ele>
        <time>2024-04-25T18:27:20Z</time>
      </trkpt>
      <trkpt lat="46.78329" lon="-1.50363">
        <ele>40.8</ele>
        <time>2024-04-25T18:27:21Z</time>
      </trkpt>
      <trkpt lat="46.78326" lon="-1.50362">
        <ele>41</ele>
        <time>2024-04-25T18:27:22Z</time>
      </trkpt>
      <trkpt lat="46.78323" lon="-1.50362">
        <ele>41</ele>
        <time>2024-04-25T18:27:23Z</time>
      </trkpt>
      <trkpt lat="46.7832" lon="-1.50362">
        <ele>41.2</ele>
        <time>2024-04-25T18:27:24Z</time>
      </trkpt>
      <trkpt lat="46.78318" lon="-1.50363">
        <ele>41.4</ele>
        <time>2024-04-25T18:27:25Z</time>
      </trkpt>
      <trkpt lat="46.78315" lon="-1.50364">
        <ele>41.4</ele>
        <time>2024-04-25T18:27:26Z</time>
      </trkpt>
      <trkpt lat="46.78312" lon="-1.50365">
        <ele>41.4</ele>
        <time>2024-04-25T18:27:27Z</time>
      </trkpt>
      <trkpt lat="46.78309" lon="-1.50366">
        <ele>41.6</ele>
        <time>2024-04-25T18:27:28Z</time>
      </trkpt>
      <trkpt lat="46.78305" lon="-1.50366">
        <ele>41.6</ele>
        <time>2024-04-25T18:27:29Z</time>
      </trkpt>
      <trkpt lat="46.78302" lon="-1.50366">
        <ele>41.8</ele>
        <time>2024-04-25T18:27:30Z</time>
      </trkpt>
      <trkpt lat="46.78298" lon="-1.50365">
        <ele>42</ele>
        <time>2024-04-25T18:27:31Z</time>
      </trkpt>
      <trkpt lat="46.78295" lon="-1.50364">
        <ele>42.2</ele>
        <time>2024-04-25T18:27:32Z</time>
      </trkpt>
      <trkpt lat="46.78293" lon="-1.50363">
        <ele>42.4</ele>
        <time>2024-04-25T18:27:33Z</time>
      </trkpt>
      <trkpt lat="46.7829" lon="-1.50364">
        <ele>42.6</ele>
        <time>2024-04-25T18:27:34Z</time>
      </trkpt>
      <trkpt lat="46.78287" lon="-1.50366">
        <ele>42.8</ele>
        <time>2024-04-25T18:27:35Z</time>
      </trkpt>
      <trkpt lat="46.78285" lon="-1.50368">
        <ele>42.8</ele>
        <time>2024-04-25T18:27:36Z</time>
      </trkpt>
      <trkpt lat="46.78281" lon="-1.5037">
        <ele>42.8</ele>
        <time>2024-04-25T18:27:37Z</time>
      </trkpt>
      <trkpt lat="46.78278" lon="-1.5037">
        <ele>43</ele>
        <time>2024-04-25T18:27:38Z</time>
      </trkpt>
      <trkpt lat="46.78275" lon="-1.5037">
        <ele>43</ele>
        <time>2024-04-25T18:27:39Z</time>
      </trkpt>
      <trkpt lat="46.78272" lon="-1.5037">
        <ele>43.2</ele>
        <time>2024-04-25T18:27:40Z</time>
      </trkpt>
      <trkpt lat="46.78269" lon="-1.50369">
        <ele>43.2</ele>
        <time>2024-04-25T18:27:41Z</time>
      </trkpt>
      <trkpt lat="46.78266" lon="-1.50369">
        <ele>43.4</ele>
        <time>2024-04-25T18:27:42Z</time>
      </trkpt>
      <trkpt lat="46.78263" lon="-1.50369">
        <ele>43.6</ele>
        <time>2024-04-25T18:27:43Z</time>
      </trkpt>
      <trkpt lat="46.7826" lon="-1.50369">
        <ele>43.6</ele>
        <time>2024-04-25T18:27:44Z</time>
      </trkpt>
      <trkpt lat="46.78257" lon="-1.50369">
        <ele>43.8</ele>
        <time>2024-04-25T18:27:45Z</time>
      </trkpt>
      <trkpt lat="46.78254" lon="-1.50367">
        <ele>44</ele>
        <time>2024-04-25T18:27:46Z</time>
      </trkpt>
      <trkpt lat="46.78252" lon="-1.50365">
        <ele>44.2</ele>
        <time>2024-04-25T18:27:47Z</time>
      </trkpt>
      <trkpt lat="46.78249" lon="-1.50363">
        <ele>44.4</ele>
        <time>2024-04-25T18:27:48Z</time>
      </trkpt>
      <trkpt lat="46.78247" lon="-1.50361">
        <ele>44.8</ele>
        <time>2024-04-25T18:27:49Z</time>
      </trkpt>
      <trkpt lat="46.78244" lon="-1.50359">
        <ele>45</ele>
        <time>2024-04-25T18:27:50Z</time>
      </trkpt>
      <trkpt lat="46.78242" lon="-1.50359">
        <ele>45.2</ele>
        <time>2024-04-25T18:27:52Z</time>
      </trkpt>
      <trkpt lat="46.78239" lon="-1.50359">
        <ele>45.4</ele>
        <time>2024-04-25T18:27:53Z</time>
      </trkpt>
      <trkpt lat="46.78236" lon="-1.5036">
        <ele>45.6</ele>
        <time>2024-04-25T18:27:54Z</time>
      </trkpt>
      <trkpt lat="46.78234" lon="-1.50361">
        <ele>45.8</ele>
        <time>2024-04-25T18:27:55Z</time>
      </trkpt>
      <trkpt lat="46.78231" lon="-1.50363">
        <ele>45.8</ele>
        <time>2024-04-25T18:27:56Z</time>
      </trkpt>
      <trkpt lat="46.78228" lon="-1.50365">
        <ele>45.8</ele>
        <time>2024-04-25T18:27:57Z</time>
      </trkpt>
      <trkpt lat="46.78225" lon="-1.50368">
        <ele>45.8</ele>
        <time>2024-04-25T18:27:58Z</time>
      </trkpt>
      <trkpt lat="46.78223" lon="-1.50371">
        <ele>45.8</ele>
        <time>2024-04-25T18:27:59Z</time>
      </trkpt>
      <trkpt lat="46.7822" lon="-1.50372">
        <ele>45.8</ele>
        <time>2024-04-25T18:28:00Z</time>
      </trkpt>
      <trkpt lat="46.78217" lon="-1.50373">
        <ele>46</ele>
        <time>2024-04-25T18:28:01Z</time>
      </trkpt>
      <trkpt lat="46.78214" lon="-1.50372">
        <ele>46.2</ele>
        <time>2024-04-25T18:28:02Z</time>
      </trkpt>
      <trkpt lat="46.78211" lon="-1.5037">
        <ele>46.4</ele>
        <time>2024-04-25T18:28:03Z</time>
      </trkpt>
      <trkpt lat="46.7821" lon="-1.50369">
        <ele>46.8</ele>
        <time>2024-04-25T18:28:04Z</time>
      </trkpt>
      <trkpt lat="46.78208" lon="-1.50368">
        <ele>47.2</ele>
        <time>2024-04-25T18:28:05Z</time>
      </trkpt>
      <trkpt lat="46.78207" lon="-1.50365">
        <ele>47.8</ele>
        <time>2024-04-25T18:28:06Z</time>
      </trkpt>
      <trkpt lat="46.78207" lon="-1.50363">
        <ele>48.2</ele>
        <time>2024-04-25T18:28:07Z</time>
      </trkpt>
      <trkpt lat="46.78206" lon="-1.5036">
        <ele>48.8</ele>
        <time>2024-04-25T18:28:08Z</time>
      </trkpt>
      <trkpt lat="46.78204" lon="-1.50357">
        <ele>49.2</ele>
        <time>2024-04-25T18:28:09Z</time>
      </trkpt>
      <trkpt lat="46.78202" lon="-1.50355">
        <ele>49.8</ele>
        <time>2024-04-25T18:28:10Z</time>
      </trkpt>
      <trkpt lat="46.782" lon="-1.50353">
        <ele>50.2</ele>
        <time>2024-04-25T18:28:11Z</time>
      </trkpt>
      <trkpt lat="46.78198" lon="-1.5035">
        <ele>50.8</ele>
        <time>2024-04-25T18:28:12Z</time>
      </trkpt>
      <trkpt lat="46.78197" lon="-1.50347">
        <ele>51.4</ele>
        <time>2024-04-25T18:28:13Z</time>
      </trkpt>
      <trkpt lat="46.78195" lon="-1.50344">
        <ele>52</ele>
        <time>2024-04-25T18:28:14Z</time>
      </trkpt>
      <trkpt lat="46.78194" lon="-1.50341">
        <ele>52.4</ele>
        <time>2024-04-25T18:28:15Z</time>
      </trkpt>
      <trkpt lat="46.78193" lon="-1.50338">
        <ele>52.8</ele>
        <time>2024-04-25T18:28:16Z</time>
      </trkpt>
      <trkpt lat="46.78192" lon="-1.50336">
        <ele>53.2</ele>
        <time>2024-04-25T18:28:17Z</time>
      </trkpt>
      <trkpt lat="46.78191" lon="-1.50333">
        <ele>53.4</ele>
        <time>2024-04-25T18:28:18Z</time>
      </trkpt>
      <trkpt lat="46.7819" lon="-1.50331">
        <ele>53.6</ele>
        <time>2024-04-25T18:28:19Z</time>
      </trkpt>
      <trkpt lat="46.78189" lon="-1.50328">
        <ele>53.8</ele>
        <time>2024-04-25T18:28:20Z</time>
      </trkpt>
      <trkpt lat="46.78187" lon="-1.50326">
        <ele>54</ele>
        <time>2024-04-25T18:28:21Z</time>
      </trkpt>
      <trkpt lat="46.78186" lon="-1.50323">
        <ele>54.2</ele>
        <time>2024-04-25T18:28:22Z</time>
      </trkpt>
      <trkpt lat="46.78185" lon="-1.50321">
        <ele>54.4</ele>
        <time>2024-04-25T18:28:23Z</time>
      </trkpt>
      <trkpt lat="46.78184" lon="-1.50318">
        <ele>54.6</ele>
        <time>2024-04-25T18:28:24Z</time>
      </trkpt>
      <trkpt lat="46.78183" lon="-1.50315">
        <ele>54.8</ele>
        <time>2024-04-25T18:28:25Z</time>
      </trkpt>
      <trkpt lat="46.78181" lon="-1.50313">
        <ele>54.8</ele>
        <time>2024-04-25T18:28:26Z</time>
      </trkpt>
      <trkpt lat="46.7818" lon="-1.50311">
        <ele>55</ele>
        <time>2024-04-25T18:28:27Z</time>
      </trkpt>
      <trkpt lat="46.78179" lon="-1.50308">
        <ele>55.2</ele>
        <time>2024-04-25T18:28:28Z</time>
      </trkpt>
      <trkpt lat="46.78178" lon="-1.50306">
        <ele>55.4</ele>
        <time>2024-04-25T18:28:29Z</time>
      </trkpt>
      <trkpt lat="46.78177" lon="-1.50303">
        <ele>55.4</ele>
        <time>2024-04-25T18:28:30Z</time>
      </trkpt>
      <trkpt lat="46.78176" lon="-1.50301">
        <ele>55.6</ele>
        <time>2024-04-25T18:28:31Z</time>
      </trkpt>
      <trkpt lat="46.78175" lon="-1.50298">
        <ele>55.6</ele>
        <time>2024-04-25T18:28:32Z</time>
      </trkpt>
      <trkpt lat="46.78173" lon="-1.50295">
        <ele>55.8</ele>
        <time>2024-04-25T18:28:33Z</time>
      </trkpt>
      <trkpt lat="46.78172" lon="-1.50293">
        <ele>56</ele>
        <time>2024-04-25T18:28:34Z</time>
      </trkpt>
      <trkpt lat="46.78171" lon="-1.5029">
        <ele>56</ele>
        <time>2024-04-25T18:28:35Z</time>
      </trkpt>
      <trkpt lat="46.78169" lon="-1.50288">
        <ele>56.2</ele>
        <time>2024-04-25T18:28:36Z</time>
      </trkpt>
      <trkpt lat="46.78168" lon="-1.50285">
        <ele>56.2</ele>
        <time>2024-04-25T18:28:37Z</time>
      </trkpt>
      <trkpt lat="46.78167" lon="-1.50283">
        <ele>56.4</ele>
        <time>2024-04-25T18:28:38Z</time>
      </trkpt>
      <trkpt lat="46.78166" lon="-1.5028">
        <ele>56.4</ele>
        <time>2024-04-25T18:28:39Z</time>
      </trkpt>
      <trkpt lat="46.78165" lon="-1.50278">
        <ele>56.4</ele>
        <time>2024-04-25T18:28:40Z</time>
      </trkpt>
      <trkpt lat="46.78164" lon="-1.50275">
        <ele>56.4</ele>
        <time>2024-04-25T18:28:41Z</time>
      </trkpt>
      <trkpt lat="46.78163" lon="-1.50273">
        <ele>56.6</ele>
        <time>2024-04-25T18:28:42Z</time>
      </trkpt>
      <trkpt lat="46.78162" lon="-1.5027">
        <ele>56.6</ele>
        <time>2024-04-25T18:28:43Z</time>
      </trkpt>
      <trkpt lat="46.78161" lon="-1.50267">
        <ele>56.6</ele>
        <time>2024-04-25T18:28:44Z</time>
      </trkpt>
      <trkpt lat="46.78159" lon="-1.50264">
        <ele>56.6</ele>
        <time>2024-04-25T18:28:45Z</time>
      </trkpt>
      <trkpt lat="46.78158" lon="-1.50261">
        <ele>56.6</ele>
        <time>2024-04-25T18:28:46Z</time>
      </trkpt>
      <trkpt lat="46.78157" lon="-1.50258">
        <ele>56.6</ele>
        <time>2024-04-25T18:28:47Z</time>
      </trkpt>
      <trkpt lat="46.78155" lon="-1.50255">
        <ele>56.6</ele>
        <time>2024-04-25T18:28:48Z</time>
      </trkpt>
      <trkpt lat="46.78154" lon="-1.50252">
        <ele>56.8</ele>
        <time>2024-04-25T18:28:49Z</time>
      </trkpt>
      <trkpt lat="46.78153" lon="-1.50249">
        <ele>56.8</ele>
        <time>2024-04-25T18:28:50Z</time>
      </trkpt>
      <trkpt lat="46.78151" lon="-1.50245">
        <ele>56.8</ele>
        <time>2024-04-25T18:28:51Z</time>
      </trkpt>
      <trkpt lat="46.7815" lon="-1.50242">
        <ele>56.8</ele>
        <time>2024-04-25T18:28:52Z</time>
      </trkpt>
      <trkpt lat="46.78148" lon="-1.50236">
        <ele>56.8</ele>
        <time>2024-04-25T18:28:53Z</time>
      </trkpt>
      <trkpt lat="46.78146" lon="-1.50232">
        <ele>56.8</ele>
        <time>2024-04-25T18:28:54Z</time>
      </trkpt>
      <trkpt lat="46.78144" lon="-1.50227">
        <ele>56.8</ele>
        <time>2024-04-25T18:28:55Z</time>
      </trkpt>
      <trkpt lat="46.78142" lon="-1.50223">
        <ele>56.8</ele>
        <time>2024-04-25T18:28:56Z</time>
      </trkpt>
      <trkpt lat="46.78141" lon="-1.5022">
        <ele>56.8</ele>
        <time>2024-04-25T18:28:57Z</time>
      </trkpt>
      <trkpt lat="46.78139" lon="-1.50216">
        <ele>56.8</ele>
        <time>2024-04-25T18:28:58Z</time>
      </trkpt>
      <trkpt lat="46.78138" lon="-1.50212">
        <ele>56.8</ele>
        <time>2024-04-25T18:28:59Z</time>
      </trkpt>
      <trkpt lat="46.78136" lon="-1.50209">
        <ele>56.8</ele>
        <time>2024-04-25T18:29:00Z</time>
      </trkpt>
      <trkpt lat="46.78135" lon="-1.50205">
        <ele>56.8</ele>
        <time>2024-04-25T18:29:01Z</time>
      </trkpt>
      <trkpt lat="46.78134" lon="-1.50201">
        <ele>56.8</ele>
        <time>2024-04-25T18:29:02Z</time>
      </trkpt>
      <trkpt lat="46.78133" lon="-1.50197">
        <ele>57</ele>
        <time>2024-04-25T18:29:03Z</time>
      </trkpt>
      <trkpt lat="46.78131" lon="-1.50193">
        <ele>57</ele>
        <time>2024-04-25T18:29:04Z</time>
      </trkpt>
      <trkpt lat="46.7813" lon="-1.50189">
        <ele>57</ele>
        <time>2024-04-25T18:29:05Z</time>
      </trkpt>
      <trkpt lat="46.78128" lon="-1.50185">
        <ele>57</ele>
        <time>2024-04-25T18:29:06Z</time>
      </trkpt>
      <trkpt lat="46.78127" lon="-1.50181">
        <ele>57</ele>
        <time>2024-04-25T18:29:07Z</time>
      </trkpt>
      <trkpt lat="46.78125" lon="-1.50177">
        <ele>57</ele>
        <time>2024-04-25T18:29:08Z</time>
      </trkpt>
      <trkpt lat="46.78123" lon="-1.50172">
        <ele>57</ele>
        <time>2024-04-25T18:29:09Z</time>
      </trkpt>
      <trkpt lat="46.78122" lon="-1.50168">
        <ele>57</ele>
        <time>2024-04-25T18:29:10Z</time>
      </trkpt>
      <trkpt lat="46.7812" lon="-1.50163">
        <ele>57</ele>
        <time>2024-04-25T18:29:11Z</time>
      </trkpt>
      <trkpt lat="46.78118" lon="-1.50159">
        <ele>57</ele>
        <time>2024-04-25T18:29:12Z</time>
      </trkpt>
      <trkpt lat="46.78117" lon="-1.50154">
        <ele>57</ele>
        <time>2024-04-25T18:29:13Z</time>
      </trkpt>
      <trkpt lat="46.78115" lon="-1.5015">
        <ele>57.2</ele>
        <time>2024-04-25T18:29:14Z</time>
      </trkpt>
      <trkpt lat="46.78113" lon="-1.50146">
        <ele>57.2</ele>
        <time>2024-04-25T18:29:16Z</time>
      </trkpt>
      <trkpt lat="46.78111" lon="-1.50142">
        <ele>57.2</ele>
        <time>2024-04-25T18:29:17Z</time>
      </trkpt>
      <trkpt lat="46.78109" lon="-1.50137">
        <ele>57.4</ele>
        <time>2024-04-25T18:29:18Z</time>
      </trkpt>
      <trkpt lat="46.78107" lon="-1.50133">
        <ele>57.4</ele>
        <time>2024-04-25T18:29:19Z</time>
      </trkpt>
      <trkpt lat="46.78105" lon="-1.50129">
        <ele>57.4</ele>
        <time>2024-04-25T18:29:20Z</time>
      </trkpt>
      <trkpt lat="46.78103" lon="-1.50125">
        <ele>57.6</ele>
        <time>2024-04-25T18:29:21Z</time>
      </trkpt>
      <trkpt lat="46.78102" lon="-1.5012">
        <ele>57.6</ele>
        <time>2024-04-25T18:29:22Z</time>
      </trkpt>
      <trkpt lat="46.781" lon="-1.50116">
        <ele>57.6</ele>
        <time>2024-04-25T18:29:23Z</time>
      </trkpt>
      <trkpt lat="46.78098" lon="-1.50112">
        <ele>57.6</ele>
        <time>2024-04-25T18:29:24Z</time>
      </trkpt>
      <trkpt lat="46.78095" lon="-1.50109">
        <ele>57.8</ele>
        <time>2024-04-25T18:29:25Z</time>
      </trkpt>
      <trkpt lat="46.78093" lon="-1.50105">
        <ele>57.8</ele>
        <time>2024-04-25T18:29:26Z</time>
      </trkpt>
      <trkpt lat="46.7809" lon="-1.50103">
        <ele>58</ele>
        <time>2024-04-25T18:29:27Z</time>
      </trkpt>
      <trkpt lat="46.78088" lon="-1.501">
        <ele>58.2</ele>
        <time>2024-04-25T18:29:28Z</time>
      </trkpt>
      <trkpt lat="46.78085" lon="-1.50098">
        <ele>58.4</ele>
        <time>2024-04-25T18:29:29Z</time>
      </trkpt>
      <trkpt lat="46.78083" lon="-1.50097">
        <ele>58.6</ele>
        <time>2024-04-25T18:29:30Z</time>
      </trkpt>
      <trkpt lat="46.7808" lon="-1.50096">
        <ele>58.6</ele>
        <time>2024-04-25T18:29:31Z</time>
      </trkpt>
      <trkpt lat="46.78078" lon="-1.50094">
        <ele>58.8</ele>
        <time>2024-04-25T18:29:32Z</time>
      </trkpt>
      <trkpt lat="46.78076" lon="-1.50093">
        <ele>59</ele>
        <time>2024-04-25T18:29:33Z</time>
      </trkpt>
      <trkpt lat="46.78074" lon="-1.50092">
        <ele>59</ele>
        <time>2024-04-25T18:29:34Z</time>
      </trkpt>
      <trkpt lat="46.78071" lon="-1.5009">
        <ele>59.2</ele>
        <time>2024-04-25T18:29:35Z</time>
      </trkpt>
      <trkpt lat="46.78069" lon="-1.50089">
        <ele>59.2</ele>
        <time>2024-04-25T18:29:36Z</time>
      </trkpt>
      <trkpt lat="46.78066" lon="-1.50086">
        <ele>59.2</ele>
        <time>2024-04-25T18:29:37Z</time>
      </trkpt>
      <trkpt lat="46.78064" lon="-1.50085">
        <ele>59.4</ele>
        <time>2024-04-25T18:29:38Z</time>
      </trkpt>
      <trkpt lat="46.78062" lon="-1.50084">
        <ele>59.4</ele>
        <time>2024-04-25T18:29:39Z</time>
      </trkpt>
      <trkpt lat="46.7806" lon="-1.50082">
        <ele>59.6</ele>
        <time>2024-04-25T18:29:40Z</time>
      </trkpt>
      <trkpt lat="46.78058" lon="-1.5008">
        <ele>59.6</ele>
        <time>2024-04-25T18:29:41Z</time>
      </trkpt>
      <trkpt lat="46.78055" lon="-1.50078">
        <ele>59.6</ele>
        <time>2024-04-25T18:29:42Z</time>
      </trkpt>
      <trkpt lat="46.78053" lon="-1.50076">
        <ele>59.8</ele>
        <time>2024-04-25T18:29:43Z</time>
      </trkpt>
      <trkpt lat="46.78051" lon="-1.50074">
        <ele>59.8</ele>
        <time>2024-04-25T18:29:44Z</time>
      </trkpt>
      <trkpt lat="46.78049" lon="-1.50072">
        <ele>60</ele>
        <time>2024-04-25T18:29:45Z</time>
      </trkpt>
      <trkpt lat="46.78046" lon="-1.5007">
        <ele>60</ele>
        <time>2024-04-25T18:29:46Z</time>
      </trkpt>
      <trkpt lat="46.78043" lon="-1.50066">
        <ele>60</ele>
        <time>2024-04-25T18:29:47Z</time>
      </trkpt>
      <trkpt lat="46.78042" lon="-1.50065">
        <ele>60</ele>
        <time>2024-04-25T18:29:48Z</time>
      </trkpt>
      <trkpt lat="46.78039" lon="-1.50061">
        <ele>60.2</ele>
        <time>2024-04-25T18:29:49Z</time>
      </trkpt>
      <trkpt lat="46.78037" lon="-1.5006">
        <ele>60.2</ele>
        <time>2024-04-25T18:29:50Z</time>
      </trkpt>
      <trkpt lat="46.78035" lon="-1.50058">
        <ele>60.2</ele>
        <time>2024-04-25T18:29:51Z</time>
      </trkpt>
      <trkpt lat="46.78033" lon="-1.50055">
        <ele>60.2</ele>
        <time>2024-04-25T18:29:52Z</time>
      </trkpt>
      <trkpt lat="46.7803" lon="-1.50052">
        <ele>60.2</ele>
        <time>2024-04-25T18:29:53Z</time>
      </trkpt>
      <trkpt lat="46.78026" lon="-1.50048">
        <ele>60.2</ele>
        <time>2024-04-25T18:29:54Z</time>
      </trkpt>
      <trkpt lat="46.78025" lon="-1.50047">
        <ele>60.2</ele>
        <time>2024-04-25T18:29:55Z</time>
      </trkpt>
      <trkpt lat="46.78022" lon="-1.50044">
        <ele>60.2</ele>
        <time>2024-04-25T18:29:56Z</time>
      </trkpt>
      <trkpt lat="46.78019" lon="-1.50041">
        <ele>60.2</ele>
        <time>2024-04-25T18:29:57Z</time>
      </trkpt>
      <trkpt lat="46.78017" lon="-1.50038">
        <ele>60.2</ele>
        <time>2024-04-25T18:29:58Z</time>
      </trkpt>
      <trkpt lat="46.78013" lon="-1.50034">
        <ele>60.2</ele>
        <time>2024-04-25T18:29:59Z</time>
      </trkpt>
      <trkpt lat="46.7801" lon="-1.50031">
        <ele>60.2</ele>
        <time>2024-04-25T18:30:00Z</time>
      </trkpt>
      <trkpt lat="46.78007" lon="-1.50027">
        <ele>60.2</ele>
        <time>2024-04-25T18:30:01Z</time>
      </trkpt>
      <trkpt lat="46.78003" lon="-1.50023">
        <ele>60.2</ele>
        <time>2024-04-25T18:30:02Z</time>
      </trkpt>
      <trkpt lat="46.78" lon="-1.5002">
        <ele>60.2</ele>
        <time>2024-04-25T18:30:03Z</time>
      </trkpt>
      <trkpt lat="46.77996" lon="-1.50016">
        <ele>60</ele>
        <time>2024-04-25T18:30:04Z</time>
      </trkpt>
      <trkpt lat="46.77993" lon="-1.50012">
        <ele>60</ele>
        <time>2024-04-25T18:30:05Z</time>
      </trkpt>
      <trkpt lat="46.77987" lon="-1.50005">
        <ele>60</ele>
        <time>2024-04-25T18:30:06Z</time>
      </trkpt>
      <trkpt lat="46.77985" lon="-1.50003">
        <ele>60</ele>
        <time>2024-04-25T18:30:07Z</time>
      </trkpt>
      <trkpt lat="46.77982" lon="-1.49999">
        <ele>60</ele>
        <time>2024-04-25T18:30:08Z</time>
      </trkpt>
      <trkpt lat="46.77978" lon="-1.49996">
        <ele>60.2</ele>
        <time>2024-04-25T18:30:09Z</time>
      </trkpt>
      <trkpt lat="46.77972" lon="-1.49992">
        <ele>60.2</ele>
        <time>2024-04-25T18:30:10Z</time>
      </trkpt>
      <trkpt lat="46.77969" lon="-1.49992">
        <ele>60.2</ele>
        <time>2024-04-25T18:30:11Z</time>
      </trkpt>
      <trkpt lat="46.77965" lon="-1.49991">
        <ele>60.2</ele>
        <time>2024-04-25T18:30:12Z</time>
      </trkpt>
      <trkpt lat="46.77961" lon="-1.49992">
        <ele>60.2</ele>
        <time>2024-04-25T18:30:13Z</time>
      </trkpt>
      <trkpt lat="46.77956" lon="-1.49994">
        <ele>60.4</ele>
        <time>2024-04-25T18:30:14Z</time>
      </trkpt>
      <trkpt lat="46.77952" lon="-1.49997">
        <ele>60.4</ele>
        <time>2024-04-25T18:30:15Z</time>
      </trkpt>
      <trkpt lat="46.77948" lon="-1.50001">
        <ele>60.6</ele>
        <time>2024-04-25T18:30:16Z</time>
      </trkpt>
      <trkpt lat="46.77943" lon="-1.50007">
        <ele>60.6</ele>
        <time>2024-04-25T18:30:17Z</time>
      </trkpt>
      <trkpt lat="46.7794" lon="-1.50011">
        <ele>60.8</ele>
        <time>2024-04-25T18:30:18Z</time>
      </trkpt>
      <trkpt lat="46.77935" lon="-1.50017">
        <ele>60.8</ele>
        <time>2024-04-25T18:30:19Z</time>
      </trkpt>
      <trkpt lat="46.77931" lon="-1.50022">
        <ele>61</ele>
        <time>2024-04-25T18:30:20Z</time>
      </trkpt>
      <trkpt lat="46.77927" lon="-1.50026">
        <ele>61.2</ele>
        <time>2024-04-25T18:30:21Z</time>
      </trkpt>
      <trkpt lat="46.77924" lon="-1.50031">
        <ele>61.4</ele>
        <time>2024-04-25T18:30:22Z</time>
      </trkpt>
      <trkpt lat="46.7792" lon="-1.50034">
        <ele>61.6</ele>
        <time>2024-04-25T18:30:23Z</time>
      </trkpt>
      <trkpt lat="46.77917" lon="-1.50038">
        <ele>61.8</ele>
        <time>2024-04-25T18:30:24Z</time>
      </trkpt>
      <trkpt lat="46.77913" lon="-1.50041">
        <ele>62</ele>
        <time>2024-04-25T18:30:25Z</time>
      </trkpt>
      <trkpt lat="46.77909" lon="-1.50043">
        <ele>62.2</ele>
        <time>2024-04-25T18:30:26Z</time>
      </trkpt>
      <trkpt lat="46.77905" lon="-1.50044">
        <ele>62.2</ele>
        <time>2024-04-25T18:30:27Z</time>
      </trkpt>
      <trkpt lat="46.779" lon="-1.50044">
        <ele>62.2</ele>
        <time>2024-04-25T18:30:28Z</time>
      </trkpt>
      <trkpt lat="46.77896" lon="-1.50041">
        <ele>62.2</ele>
        <time>2024-04-25T18:30:29Z</time>
      </trkpt>
      <trkpt lat="46.77892" lon="-1.50037">
        <ele>62.2</ele>
        <time>2024-04-25T18:30:30Z</time>
      </trkpt>
      <trkpt lat="46.77888" lon="-1.50031">
        <ele>62</ele>
        <time>2024-04-25T18:30:31Z</time>
      </trkpt>
      <trkpt lat="46.77885" lon="-1.50024">
        <ele>62</ele>
        <time>2024-04-25T18:30:32Z</time>
      </trkpt>
      <trkpt lat="46.77882" lon="-1.50017">
        <ele>61.8</ele>
        <time>2024-04-25T18:30:33Z</time>
      </trkpt>
      <trkpt lat="46.77879" lon="-1.5001">
        <ele>61.6</ele>
        <time>2024-04-25T18:30:34Z</time>
      </trkpt>
      <trkpt lat="46.77876" lon="-1.50003">
        <ele>61.2</ele>
        <time>2024-04-25T18:30:35Z</time>
      </trkpt>
      <trkpt lat="46.77873" lon="-1.49996">
        <ele>61</ele>
        <time>2024-04-25T18:30:36Z</time>
      </trkpt>
      <trkpt lat="46.77869" lon="-1.49989">
        <ele>60.8</ele>
        <time>2024-04-25T18:30:37Z</time>
      </trkpt>
      <trkpt lat="46.77865" lon="-1.49984">
        <ele>60.6</ele>
        <time>2024-04-25T18:30:38Z</time>
      </trkpt>
      <trkpt lat="46.7786" lon="-1.4998">
        <ele>60.6</ele>
        <time>2024-04-25T18:30:39Z</time>
      </trkpt>
      <trkpt lat="46.77855" lon="-1.49977">
        <ele>60.8</ele>
        <time>2024-04-25T18:30:41Z</time>
      </trkpt>
      <trkpt lat="46.77849" lon="-1.49975">
        <ele>60.8</ele>
        <time>2024-04-25T18:30:42Z</time>
      </trkpt>
      <trkpt lat="46.77844" lon="-1.49974">
        <ele>60.8</ele>
        <time>2024-04-25T18:30:43Z</time>
      </trkpt>
      <trkpt lat="46.77839" lon="-1.49973">
        <ele>61</ele>
        <time>2024-04-25T18:30:44Z</time>
      </trkpt>
      <trkpt lat="46.77834" lon="-1.49974">
        <ele>61.2</ele>
        <time>2024-04-25T18:30:45Z</time>
      </trkpt>
      <trkpt lat="46.77829" lon="-1.49975">
        <ele>61.4</ele>
        <time>2024-04-25T18:30:46Z</time>
      </trkpt>
      <trkpt lat="46.77824" lon="-1.49976">
        <ele>61.6</ele>
        <time>2024-04-25T18:30:47Z</time>
      </trkpt>
      <trkpt lat="46.7782" lon="-1.49978">
        <ele>61.8</ele>
        <time>2024-04-25T18:30:48Z</time>
      </trkpt>
      <trkpt lat="46.77816" lon="-1.49979">
        <ele>62</ele>
        <time>2024-04-25T18:30:49Z</time>
      </trkpt>
      <trkpt lat="46.77812" lon="-1.49981">
        <ele>62.2</ele>
        <time>2024-04-25T18:30:50Z</time>
      </trkpt>
      <trkpt lat="46.77808" lon="-1.49983">
        <ele>62.4</ele>
        <time>2024-04-25T18:30:51Z</time>
      </trkpt>
      <trkpt lat="46.77804" lon="-1.49985">
        <ele>62.6</ele>
        <time>2024-04-25T18:30:52Z</time>
      </trkpt>
      <trkpt lat="46.77801" lon="-1.49987">
        <ele>62.8</ele>
        <time>2024-04-25T18:30:53Z</time>
      </trkpt>
      <trkpt lat="46.77797" lon="-1.49989">
        <ele>63.2</ele>
        <time>2024-04-25T18:30:54Z</time>
      </trkpt>
      <trkpt lat="46.77793" lon="-1.4999">
        <ele>63.4</ele>
        <time>2024-04-25T18:30:55Z</time>
      </trkpt>
      <trkpt lat="46.7779" lon="-1.49992">
        <ele>63.6</ele>
        <time>2024-04-25T18:30:56Z</time>
      </trkpt>
      <trkpt lat="46.77786" lon="-1.49993">
        <ele>63.8</ele>
        <time>2024-04-25T18:30:57Z</time>
      </trkpt>
      <trkpt lat="46.77783" lon="-1.49995">
        <ele>63.8</ele>
        <time>2024-04-25T18:30:58Z</time>
      </trkpt>
      <trkpt lat="46.77779" lon="-1.49996">
        <ele>64</ele>
        <time>2024-04-25T18:30:59Z</time>
      </trkpt>
      <trkpt lat="46.77775" lon="-1.49998">
        <ele>64.2</ele>
        <time>2024-04-25T18:31:00Z</time>
      </trkpt>
      <trkpt lat="46.77771" lon="-1.5">
        <ele>64.2</ele>
        <time>2024-04-25T18:31:01Z</time>
      </trkpt>
      <trkpt lat="46.77768" lon="-1.50002">
        <ele>64.4</ele>
        <time>2024-04-25T18:31:02Z</time>
      </trkpt>
      <trkpt lat="46.77764" lon="-1.50003">
        <ele>64.6</ele>
        <time>2024-04-25T18:31:03Z</time>
      </trkpt>
      <trkpt lat="46.7776" lon="-1.50005">
        <ele>64.6</ele>
        <time>2024-04-25T18:31:04Z</time>
      </trkpt>
      <trkpt lat="46.77757" lon="-1.50007">
        <ele>64.6</ele>
        <time>2024-04-25T18:31:05Z</time>
      </trkpt>
      <trkpt lat="46.77753" lon="-1.50008">
        <ele>64.8</ele>
        <time>2024-04-25T18:31:06Z</time>
      </trkpt>
      <trkpt lat="46.7775" lon="-1.5001">
        <ele>64.8</ele>
        <time>2024-04-25T18:31:07Z</time>
      </trkpt>
      <trkpt lat="46.77746" lon="-1.50011">
        <ele>65</ele>
        <time>2024-04-25T18:31:08Z</time>
      </trkpt>
      <trkpt lat="46.77743" lon="-1.50012">
        <ele>65</ele>
        <time>2024-04-25T18:31:09Z</time>
      </trkpt>
      <trkpt lat="46.77738" lon="-1.50013">
        <ele>65.2</ele>
        <time>2024-04-25T18:31:10Z</time>
      </trkpt>
      <trkpt lat="46.77736" lon="-1.50013">
        <ele>65.2</ele>
        <time>2024-04-25T18:31:11Z</time>
      </trkpt>
      <trkpt lat="46.77732" lon="-1.50011">
        <ele>65.2</ele>
        <time>2024-04-25T18:31:12Z</time>
      </trkpt>
      <trkpt lat="46.7773" lon="-1.5001">
        <ele>65.4</ele>
        <time>2024-04-25T18:31:13Z</time>
      </trkpt>
      <trkpt lat="46.77728" lon="-1.50008">
        <ele>65.4</ele>
        <time>2024-04-25T18:31:14Z</time>
      </trkpt>
      <trkpt lat="46.77725" lon="-1.50004">
        <ele>65.6</ele>
        <time>2024-04-25T18:31:15Z</time>
      </trkpt>
      <trkpt lat="46.77723" lon="-1.5">
        <ele>65.8</ele>
        <time>2024-04-25T18:31:16Z</time>
      </trkpt>
      <trkpt lat="46.77722" lon="-1.49996">
        <ele>65.8</ele>
        <time>2024-04-25T18:31:17Z</time>
      </trkpt>
      <trkpt lat="46.7772" lon="-1.49991">
        <ele>66</ele>
        <time>2024-04-25T18:31:18Z</time>
      </trkpt>
      <trkpt lat="46.77717" lon="-1.49984">
        <ele>66</ele>
        <time>2024-04-25T18:31:19Z</time>
      </trkpt>
      <trkpt lat="46.77716" lon="-1.49982">
        <ele>66</ele>
        <time>2024-04-25T18:31:20Z</time>
      </trkpt>
      <trkpt lat="46.77714" lon="-1.49978">
        <ele>66.2</ele>
        <time>2024-04-25T18:31:21Z</time>
      </trkpt>
      <trkpt lat="46.77712" lon="-1.49974">
        <ele>66.2</ele>
        <time>2024-04-25T18:31:22Z</time>
      </trkpt>
      <trkpt lat="46.7771" lon="-1.4997">
        <ele>66.4</ele>
        <time>2024-04-25T18:31:23Z</time>
      </trkpt>
      <trkpt lat="46.77708" lon="-1.49966">
        <ele>66.6</ele>
        <time>2024-04-25T18:31:24Z</time>
      </trkpt>
      <trkpt lat="46.77706" lon="-1.49962">
        <ele>66.8</ele>
        <time>2024-04-25T18:31:25Z</time>
      </trkpt>
      <trkpt lat="46.77704" lon="-1.49958">
        <ele>67</ele>
        <time>2024-04-25T18:31:26Z</time>
      </trkpt>
      <trkpt lat="46.77703" lon="-1.49954">
        <ele>67.2</ele>
        <time>2024-04-25T18:31:27Z</time>
      </trkpt>
      <trkpt lat="46.77701" lon="-1.49949">
        <ele>67.2</ele>
        <time>2024-04-25T18:31:28Z</time>
      </trkpt>
      <trkpt lat="46.777" lon="-1.49944">
        <ele>67.4</ele>
        <time>2024-04-25T18:31:29Z</time>
      </trkpt>
      <trkpt lat="46.77698" lon="-1.4994">
        <ele>67.6</ele>
        <time>2024-04-25T18:31:30Z</time>
      </trkpt>
      <trkpt lat="46.77697" lon="-1.49935">
        <ele>67.6</ele>
        <time>2024-04-25T18:31:31Z</time>
      </trkpt>
      <trkpt lat="46.77696" lon="-1.49929">
        <ele>67.8</ele>
        <time>2024-04-25T18:31:32Z</time>
      </trkpt>
      <trkpt lat="46.77695" lon="-1.49924">
        <ele>67.8</ele>
        <time>2024-04-25T18:31:33Z</time>
      </trkpt>
      <trkpt lat="46.77694" lon="-1.49919">
        <ele>68</ele>
        <time>2024-04-25T18:31:34Z</time>
      </trkpt>
      <trkpt lat="46.77694" lon="-1.49914">
        <ele>68.2</ele>
        <time>2024-04-25T18:31:35Z</time>
      </trkpt>
      <trkpt lat="46.77693" lon="-1.49909">
        <ele>68.4</ele>
        <time>2024-04-25T18:31:36Z</time>
      </trkpt>
      <trkpt lat="46.77693" lon="-1.49904">
        <ele>68.4</ele>
        <time>2024-04-25T18:31:37Z</time>
      </trkpt>
      <trkpt lat="46.77693" lon="-1.49899">
        <ele>68.6</ele>
        <time>2024-04-25T18:31:38Z</time>
      </trkpt>
      <trkpt lat="46.77692" lon="-1.49894">
        <ele>68.6</ele>
        <time>2024-04-25T18:31:39Z</time>
      </trkpt>
      <trkpt lat="46.77692" lon="-1.49888">
        <ele>68.8</ele>
        <time>2024-04-25T18:31:40Z</time>
      </trkpt>
      <trkpt lat="46.77692" lon="-1.49883">
        <ele>68.8</ele>
        <time>2024-04-25T18:31:41Z</time>
      </trkpt>
      <trkpt lat="46.77691" lon="-1.49874">
        <ele>68.8</ele>
        <time>2024-04-25T18:31:42Z</time>
      </trkpt>
      <trkpt lat="46.7769" lon="-1.49866">
        <ele>68.6</ele>
        <time>2024-04-25T18:31:43Z</time>
      </trkpt>
      <trkpt lat="46.77689" lon="-1.49859">
        <ele>68.6</ele>
        <time>2024-04-25T18:31:44Z</time>
      </trkpt>
      <trkpt lat="46.77688" lon="-1.49852">
        <ele>68.4</ele>
        <time>2024-04-25T18:31:45Z</time>
      </trkpt>
      <trkpt lat="46.77686" lon="-1.49845">
        <ele>68.2</ele>
        <time>2024-04-25T18:31:46Z</time>
      </trkpt>
      <trkpt lat="46.77684" lon="-1.49838">
        <ele>67.8</ele>
        <time>2024-04-25T18:31:47Z</time>
      </trkpt>
      <trkpt lat="46.77682" lon="-1.49831">
        <ele>67.6</ele>
        <time>2024-04-25T18:31:48Z</time>
      </trkpt>
      <trkpt lat="46.77679" lon="-1.49823">
        <ele>67.4</ele>
        <time>2024-04-25T18:31:49Z</time>
      </trkpt>
      <trkpt lat="46.77677" lon="-1.49816">
        <ele>67.2</ele>
        <time>2024-04-25T18:31:50Z</time>
      </trkpt>
      <trkpt lat="46.77674" lon="-1.49809">
        <ele>67</ele>
        <time>2024-04-25T18:31:51Z</time>
      </trkpt>
      <trkpt lat="46.77672" lon="-1.49801">
        <ele>66.6</ele>
        <time>2024-04-25T18:31:52Z</time>
      </trkpt>
      <trkpt lat="46.77669" lon="-1.49793">
        <ele>66.4</ele>
        <time>2024-04-25T18:31:53Z</time>
      </trkpt>
      <trkpt lat="46.77667" lon="-1.49786">
        <ele>66.2</ele>
        <time>2024-04-25T18:31:54Z</time>
      </trkpt>
      <trkpt lat="46.77664" lon="-1.49778">
        <ele>66</ele>
        <time>2024-04-25T18:31:55Z</time>
      </trkpt>
      <trkpt lat="46.77662" lon="-1.49771">
        <ele>65.8</ele>
        <time>2024-04-25T18:31:56Z</time>
      </trkpt>
      <trkpt lat="46.77661" lon="-1.49764">
        <ele>66</ele>
        <time>2024-04-25T18:31:57Z</time>
      </trkpt>
      <trkpt lat="46.77661" lon="-1.49764">
        <ele>66</ele>
        <time>2024-04-25T18:31:57Z</time>
      </trkpt>
      <trkpt lat="46.77664" lon="-1.49758">
        <ele>66</ele>
      </trkpt>
      <trkpt lat="46.77445" lon="-1.49919">
        <ele>63.1</ele>
      </trkpt>
      <trkpt lat="46.77423" lon="-1.49895">
        <ele>63.8</ele>
      </trkpt>
      <trkpt lat="46.77403" lon="-1.49796">
        <ele>63.5</ele>
      </trkpt>
      <trkpt lat="46.77009" lon="-1.49348">
        <ele>68</ele>
      </trkpt>
      <trkpt lat="46.76906" lon="-1.49404">
        <ele>70.2</ele>
      </trkpt>
      <trkpt lat="46.76887" lon="-1.49713">
        <ele>71.7</ele>
      </trkpt>
      <trkpt lat="46.76868" lon="-1.49923">
        <ele>70.8</ele>
      </trkpt>
      <trkpt lat="46.76868" lon="-1.49927">
        <ele>70.7</ele>
      </trkpt>
      <trkpt lat="46.76868" lon="-1.49927">
        <ele>70.7</ele>
      </trkpt>
      <trkpt lat="46.76853" lon="-1.49932">
        <ele>70.5</ele>
      </trkpt>
      <trkpt lat="46.76449" lon="-1.50275">
        <ele>66.8</ele>
      </trkpt>
      <trkpt lat="46.76197" lon="-1.50135">
        <ele>56.1</ele>
      </trkpt>
      <trkpt lat="46.76114" lon="-1.50586">
        <ele>52.2</ele>
      </trkpt>
      <trkpt lat="46.76124" lon="-1.50648">
        <ele>48.5</ele>
      </trkpt>
      <trkpt lat="46.76133" lon="-1.50791">
        <ele>36.8</ele>
        <time>2024-04-25T18:52:03Z</time>
      </trkpt>
      <trkpt lat="46.76132" lon="-1.50788">
        <ele>36.8</ele>
        <time>2024-04-25T18:52:04Z</time>
      </trkpt>
      <trkpt lat="46.76129" lon="-1.50783">
        <ele>36.8</ele>
        <time>2024-04-25T18:52:05Z</time>
      </trkpt>
      <trkpt lat="46.76125" lon="-1.50778">
        <ele>36.8</ele>
        <time>2024-04-25T18:52:06Z</time>
      </trkpt>
      <trkpt lat="46.7612" lon="-1.50775">
        <ele>36.8</ele>
        <time>2024-04-25T18:52:07Z</time>
      </trkpt>
      <trkpt lat="46.76115" lon="-1.50771">
        <ele>36.6</ele>
        <time>2024-04-25T18:52:08Z</time>
      </trkpt>
      <trkpt lat="46.7611" lon="-1.50768">
        <ele>36.6</ele>
        <time>2024-04-25T18:52:09Z</time>
      </trkpt>
      <trkpt lat="46.76103" lon="-1.50761">
        <ele>36.6</ele>
        <time>2024-04-25T18:52:10Z</time>
      </trkpt>
      <trkpt lat="46.761" lon="-1.50759">
        <ele>36.6</ele>
        <time>2024-04-25T18:52:11Z</time>
      </trkpt>
      <trkpt lat="46.76096" lon="-1.50753">
        <ele>36.6</ele>
        <time>2024-04-25T18:52:12Z</time>
      </trkpt>
      <trkpt lat="46.76092" lon="-1.50747">
        <ele>36.6</ele>
        <time>2024-04-25T18:52:13Z</time>
      </trkpt>
      <trkpt lat="46.76089" lon="-1.50741">
        <ele>36.6</ele>
        <time>2024-04-25T18:52:14Z</time>
      </trkpt>
      <trkpt lat="46.76086" lon="-1.50733">
        <ele>36.4</ele>
        <time>2024-04-25T18:52:15Z</time>
      </trkpt>
      <trkpt lat="46.76083" lon="-1.50727">
        <ele>36.4</ele>
        <time>2024-04-25T18:52:17Z</time>
      </trkpt>
      <trkpt lat="46.76079" lon="-1.50721">
        <ele>36.4</ele>
        <time>2024-04-25T18:52:18Z</time>
      </trkpt>
      <trkpt lat="46.76076" lon="-1.50715">
        <ele>36.4</ele>
        <time>2024-04-25T18:52:19Z</time>
      </trkpt>
      <trkpt lat="46.76073" lon="-1.50709">
        <ele>36.4</ele>
        <time>2024-04-25T18:52:20Z</time>
      </trkpt>
      <trkpt lat="46.76072" lon="-1.50702">
        <ele>36.4</ele>
        <time>2024-04-25T18:52:21Z</time>
      </trkpt>
      <trkpt lat="46.7607" lon="-1.50695">
        <ele>36.4</ele>
        <time>2024-04-25T18:52:22Z</time>
      </trkpt>
      <trkpt lat="46.76068" lon="-1.50688">
        <ele>36.6</ele>
        <time>2024-04-25T18:52:23Z</time>
      </trkpt>
      <trkpt lat="46.76067" lon="-1.50682">
        <ele>36.6</ele>
        <time>2024-04-25T18:52:24Z</time>
      </trkpt>
      <trkpt lat="46.76065" lon="-1.50676">
        <ele>36.6</ele>
        <time>2024-04-25T18:52:25Z</time>
      </trkpt>
      <trkpt lat="46.76063" lon="-1.50671">
        <ele>36.6</ele>
        <time>2024-04-25T18:52:26Z</time>
      </trkpt>
      <trkpt lat="46.7606" lon="-1.50665">
        <ele>36.6</ele>
        <time>2024-04-25T18:52:27Z</time>
      </trkpt>
      <trkpt lat="46.76058" lon="-1.50659">
        <ele>36.4</ele>
        <time>2024-04-25T18:52:28Z</time>
      </trkpt>
      <trkpt lat="46.76057" lon="-1.50653">
        <ele>36.4</ele>
        <time>2024-04-25T18:52:29Z</time>
      </trkpt>
      <trkpt lat="46.76056" lon="-1.50647">
        <ele>36.4</ele>
        <time>2024-04-25T18:52:30Z</time>
      </trkpt>
      <trkpt lat="46.76056" lon="-1.50643">
        <ele>36.6</ele>
        <time>2024-04-25T18:52:31Z</time>
      </trkpt>
      <trkpt lat="46.76056" lon="-1.5064">
        <ele>36.8</ele>
        <time>2024-04-25T18:52:32Z</time>
      </trkpt>
      <trkpt lat="46.76057" lon="-1.50639">
        <ele>37</ele>
        <time>2024-04-25T18:52:33Z</time>
      </trkpt>
      <trkpt lat="46.76055" lon="-1.50637">
        <ele>37</ele>
        <time>2024-04-25T18:52:34Z</time>
      </trkpt>
      <trkpt lat="46.76055" lon="-1.50637">
        <ele>37</ele>
        <time>2024-04-25T18:52:35Z</time>
      </trkpt>
      <trkpt lat="46.76053" lon="-1.50634">
        <ele>36.8</ele>
        <time>2024-04-25T18:52:36Z</time>
      </trkpt>
      <trkpt lat="46.76051" lon="-1.50631">
        <ele>36.8</ele>
        <time>2024-04-25T18:52:37Z</time>
      </trkpt>
      <trkpt lat="46.76049" lon="-1.50627">
        <ele>36.6</ele>
        <time>2024-04-25T18:52:38Z</time>
      </trkpt>
      <trkpt lat="46.76046" lon="-1.50623">
        <ele>36.6</ele>
        <time>2024-04-25T18:52:39Z</time>
      </trkpt>
      <trkpt lat="46.76044" lon="-1.50619">
        <ele>36.6</ele>
        <time>2024-04-25T18:52:40Z</time>
      </trkpt>
      <trkpt lat="46.76041" lon="-1.50616">
        <ele>36.6</ele>
        <time>2024-04-25T18:52:41Z</time>
      </trkpt>
      <trkpt lat="46.76038" lon="-1.50613">
        <ele>36.6</ele>
        <time>2024-04-25T18:52:42Z</time>
      </trkpt>
      <trkpt lat="46.76035" lon="-1.5061">
        <ele>36.6</ele>
        <time>2024-04-25T18:52:43Z</time>
      </trkpt>
      <trkpt lat="46.76032" lon="-1.50607">
        <ele>36.4</ele>
        <time>2024-04-25T18:52:44Z</time>
      </trkpt>
      <trkpt lat="46.76029" lon="-1.50605">
        <ele>36.4</ele>
        <time>2024-04-25T18:52:45Z</time>
      </trkpt>
      <trkpt lat="46.76025" lon="-1.50602">
        <ele>36.4</ele>
        <time>2024-04-25T18:52:46Z</time>
      </trkpt>
      <trkpt lat="46.76022" lon="-1.50598">
        <ele>36.4</ele>
        <time>2024-04-25T18:52:47Z</time>
      </trkpt>
      <trkpt lat="46.7602" lon="-1.50594">
        <ele>36.4</ele>
        <time>2024-04-25T18:52:48Z</time>
      </trkpt>
      <trkpt lat="46.76017" lon="-1.5059">
        <ele>36.4</ele>
        <time>2024-04-25T18:52:49Z</time>
      </trkpt>
      <trkpt lat="46.76015" lon="-1.50585">
        <ele>36.6</ele>
        <time>2024-04-25T18:52:50Z</time>
      </trkpt>
      <trkpt lat="46.76013" lon="-1.50579">
        <ele>36.6</ele>
        <time>2024-04-25T18:52:51Z</time>
      </trkpt>
      <trkpt lat="46.76012" lon="-1.50575">
        <ele>36.6</ele>
        <time>2024-04-25T18:52:52Z</time>
      </trkpt>
      <trkpt lat="46.7601" lon="-1.5057">
        <ele>36.6</ele>
        <time>2024-04-25T18:52:53Z</time>
      </trkpt>
      <trkpt lat="46.7601" lon="-1.50565">
        <ele>36.8</ele>
        <time>2024-04-25T18:52:54Z</time>
      </trkpt>
      <trkpt lat="46.7601" lon="-1.50561">
        <ele>37</ele>
        <time>2024-04-25T18:52:55Z</time>
      </trkpt>
      <trkpt lat="46.76012" lon="-1.50557">
        <ele>37.2</ele>
        <time>2024-04-25T18:52:56Z</time>
      </trkpt>
      <trkpt lat="46.76014" lon="-1.50555">
        <ele>37.6</ele>
        <time>2024-04-25T18:52:57Z</time>
      </trkpt>
      <trkpt lat="46.76016" lon="-1.50553">
        <ele>37.8</ele>
        <time>2024-04-25T18:52:58Z</time>
      </trkpt>
      <trkpt lat="46.76018" lon="-1.5055">
        <ele>38</ele>
        <time>2024-04-25T18:52:59Z</time>
      </trkpt>
      <trkpt lat="46.76019" lon="-1.50547">
        <ele>38.2</ele>
        <time>2024-04-25T18:53:00Z</time>
      </trkpt>
      <trkpt lat="46.7602" lon="-1.50543">
        <ele>38.4</ele>
        <time>2024-04-25T18:53:01Z</time>
      </trkpt>
      <trkpt lat="46.7602" lon="-1.50538">
        <ele>38.6</ele>
        <time>2024-04-25T18:53:02Z</time>
      </trkpt>
      <trkpt lat="46.7602" lon="-1.50536">
        <ele>38.8</ele>
        <time>2024-04-25T18:53:03Z</time>
      </trkpt>
      <trkpt lat="46.7602" lon="-1.50531">
        <ele>39</ele>
        <time>2024-04-25T18:53:04Z</time>
      </trkpt>
      <trkpt lat="46.76019" lon="-1.50529">
        <ele>39</ele>
        <time>2024-04-25T18:53:05Z</time>
      </trkpt>
      <trkpt lat="46.76018" lon="-1.50523">
        <ele>39.2</ele>
        <time>2024-04-25T18:53:06Z</time>
      </trkpt>
      <trkpt lat="46.76017" lon="-1.50521">
        <ele>39</ele>
        <time>2024-04-25T18:53:07Z</time>
      </trkpt>
      <trkpt lat="46.76015" lon="-1.50517">
        <ele>39</ele>
        <time>2024-04-25T18:53:08Z</time>
      </trkpt>
      <trkpt lat="46.76012" lon="-1.50513">
        <ele>38.8</ele>
        <time>2024-04-25T18:53:09Z</time>
      </trkpt>
      <trkpt lat="46.76009" lon="-1.5051">
        <ele>38.6</ele>
        <time>2024-04-25T18:53:10Z</time>
      </trkpt>
      <trkpt lat="46.76006" lon="-1.50507">
        <ele>38.4</ele>
        <time>2024-04-25T18:53:11Z</time>
      </trkpt>
      <trkpt lat="46.76002" lon="-1.50503">
        <ele>38.2</ele>
        <time>2024-04-25T18:53:12Z</time>
      </trkpt>
      <trkpt lat="46.75999" lon="-1.505">
        <ele>38.2</ele>
        <time>2024-04-25T18:53:13Z</time>
      </trkpt>
      <trkpt lat="46.75995" lon="-1.50497">
        <ele>38.4</ele>
        <time>2024-04-25T18:53:14Z</time>
      </trkpt>
      <trkpt lat="46.75992" lon="-1.50494">
        <ele>38.6</ele>
        <time>2024-04-25T18:53:15Z</time>
      </trkpt>
      <trkpt lat="46.75989" lon="-1.50491">
        <ele>38.8</ele>
        <time>2024-04-25T18:53:16Z</time>
      </trkpt>
      <trkpt lat="46.75986" lon="-1.50489">
        <ele>38.8</ele>
        <time>2024-04-25T18:53:17Z</time>
      </trkpt>
      <trkpt lat="46.75983" lon="-1.50487">
        <ele>38.6</ele>
        <time>2024-04-25T18:53:18Z</time>
      </trkpt>
      <trkpt lat="46.75978" lon="-1.50487">
        <ele>38.6</ele>
        <time>2024-04-25T18:53:19Z</time>
      </trkpt>
      <trkpt lat="46.75974" lon="-1.50488">
        <ele>38.6</ele>
        <time>2024-04-25T18:53:20Z</time>
      </trkpt>
      <trkpt lat="46.7597" lon="-1.50491">
        <ele>38.4</ele>
        <time>2024-04-25T18:53:21Z</time>
      </trkpt>
      <trkpt lat="46.75966" lon="-1.50494">
        <ele>38.2</ele>
        <time>2024-04-25T18:53:22Z</time>
      </trkpt>
      <trkpt lat="46.75962" lon="-1.50498">
        <ele>38.2</ele>
        <time>2024-04-25T18:53:23Z</time>
      </trkpt>
      <trkpt lat="46.75957" lon="-1.50502">
        <ele>38</ele>
        <time>2024-04-25T18:53:24Z</time>
      </trkpt>
      <trkpt lat="46.75955" lon="-1.50502">
        <ele>38.2</ele>
        <time>2024-04-25T18:53:25Z</time>
      </trkpt>
      <trkpt lat="46.75951" lon="-1.50504">
        <ele>38</ele>
        <time>2024-04-25T18:53:26Z</time>
      </trkpt>
      <trkpt lat="46.75947" lon="-1.50503">
        <ele>38</ele>
        <time>2024-04-25T18:53:27Z</time>
      </trkpt>
      <trkpt lat="46.75943" lon="-1.50501">
        <ele>38</ele>
        <time>2024-04-25T18:53:28Z</time>
      </trkpt>
      <trkpt lat="46.7594" lon="-1.50498">
        <ele>38.2</ele>
        <time>2024-04-25T18:53:29Z</time>
      </trkpt>
      <trkpt lat="46.75936" lon="-1.50494">
        <ele>38.2</ele>
        <time>2024-04-25T18:53:30Z</time>
      </trkpt>
      <trkpt lat="46.75932" lon="-1.50491">
        <ele>38.4</ele>
        <time>2024-04-25T18:53:31Z</time>
      </trkpt>
      <trkpt lat="46.75928" lon="-1.50487">
        <ele>38.4</ele>
        <time>2024-04-25T18:53:32Z</time>
      </trkpt>
      <trkpt lat="46.75924" lon="-1.50484">
        <ele>38.4</ele>
        <time>2024-04-25T18:53:33Z</time>
      </trkpt>
      <trkpt lat="46.7592" lon="-1.50481">
        <ele>38.4</ele>
        <time>2024-04-25T18:53:34Z</time>
      </trkpt>
      <trkpt lat="46.75916" lon="-1.50478">
        <ele>38.6</ele>
        <time>2024-04-25T18:53:35Z</time>
      </trkpt>
      <trkpt lat="46.75911" lon="-1.50475">
        <ele>38.6</ele>
        <time>2024-04-25T18:53:36Z</time>
      </trkpt>
      <trkpt lat="46.75907" lon="-1.50473">
        <ele>38.6</ele>
        <time>2024-04-25T18:53:37Z</time>
      </trkpt>
      <trkpt lat="46.75903" lon="-1.5047">
        <ele>38.6</ele>
        <time>2024-04-25T18:53:38Z</time>
      </trkpt>
      <trkpt lat="46.75899" lon="-1.50467">
        <ele>38.6</ele>
        <time>2024-04-25T18:53:39Z</time>
      </trkpt>
      <trkpt lat="46.75894" lon="-1.50463">
        <ele>38.8</ele>
        <time>2024-04-25T18:53:40Z</time>
      </trkpt>
      <trkpt lat="46.75892" lon="-1.50461">
        <ele>38.8</ele>
        <time>2024-04-25T18:53:41Z</time>
      </trkpt>
      <trkpt lat="46.75888" lon="-1.50458">
        <ele>39</ele>
        <time>2024-04-25T18:53:42Z</time>
      </trkpt>
      <trkpt lat="46.75885" lon="-1.50454">
        <ele>39</ele>
        <time>2024-04-25T18:53:43Z</time>
      </trkpt>
      <trkpt lat="46.75882" lon="-1.5045">
        <ele>39.2</ele>
        <time>2024-04-25T18:53:44Z</time>
      </trkpt>
      <trkpt lat="46.75878" lon="-1.50447">
        <ele>39.2</ele>
        <time>2024-04-25T18:53:46Z</time>
      </trkpt>
      <trkpt lat="46.75875" lon="-1.50443">
        <ele>39.4</ele>
        <time>2024-04-25T18:53:47Z</time>
      </trkpt>
      <trkpt lat="46.75871" lon="-1.50437">
        <ele>39.4</ele>
        <time>2024-04-25T18:53:48Z</time>
      </trkpt>
      <trkpt lat="46.75869" lon="-1.50435">
        <ele>39.6</ele>
        <time>2024-04-25T18:53:49Z</time>
      </trkpt>
      <trkpt lat="46.75866" lon="-1.50431">
        <ele>39.6</ele>
        <time>2024-04-25T18:53:50Z</time>
      </trkpt>
      <trkpt lat="46.75863" lon="-1.50428">
        <ele>39.6</ele>
        <time>2024-04-25T18:53:51Z</time>
      </trkpt>
      <trkpt lat="46.75859" lon="-1.50425">
        <ele>39.8</ele>
        <time>2024-04-25T18:53:52Z</time>
      </trkpt>
      <trkpt lat="46.75856" lon="-1.50421">
        <ele>39.8</ele>
        <time>2024-04-25T18:53:53Z</time>
      </trkpt>
      <trkpt lat="46.75853" lon="-1.50418">
        <ele>39.8</ele>
        <time>2024-04-25T18:53:54Z</time>
      </trkpt>
      <trkpt lat="46.7585" lon="-1.50415">
        <ele>39.8</ele>
        <time>2024-04-25T18:53:55Z</time>
      </trkpt>
      <trkpt lat="46.75847" lon="-1.50411">
        <ele>39.8</ele>
        <time>2024-04-25T18:53:56Z</time>
      </trkpt>
      <trkpt lat="46.75843" lon="-1.50407">
        <ele>40</ele>
        <time>2024-04-25T18:53:57Z</time>
      </trkpt>
      <trkpt lat="46.7584" lon="-1.50404">
        <ele>40</ele>
        <time>2024-04-25T18:53:58Z</time>
      </trkpt>
      <trkpt lat="46.75837" lon="-1.504">
        <ele>40</ele>
        <time>2024-04-25T18:53:59Z</time>
      </trkpt>
      <trkpt lat="46.75834" lon="-1.50396">
        <ele>40.2</ele>
        <time>2024-04-25T18:54:00Z</time>
      </trkpt>
      <trkpt lat="46.75832" lon="-1.50392">
        <ele>40.2</ele>
        <time>2024-04-25T18:54:01Z</time>
      </trkpt>
      <trkpt lat="46.75829" lon="-1.50389">
        <ele>40.4</ele>
        <time>2024-04-25T18:54:02Z</time>
      </trkpt>
      <trkpt lat="46.75826" lon="-1.50385">
        <ele>40.4</ele>
        <time>2024-04-25T18:54:03Z</time>
      </trkpt>
      <trkpt lat="46.75823" lon="-1.50382">
        <ele>40.6</ele>
        <time>2024-04-25T18:54:04Z</time>
      </trkpt>
      <trkpt lat="46.7582" lon="-1.50378">
        <ele>40.6</ele>
        <time>2024-04-25T18:54:05Z</time>
      </trkpt>
      <trkpt lat="46.75816" lon="-1.50375">
        <ele>40.6</ele>
        <time>2024-04-25T18:54:06Z</time>
      </trkpt>
      <trkpt lat="46.75813" lon="-1.50372">
        <ele>40.8</ele>
        <time>2024-04-25T18:54:07Z</time>
      </trkpt>
      <trkpt lat="46.75811" lon="-1.50368">
        <ele>40.8</ele>
        <time>2024-04-25T18:54:08Z</time>
      </trkpt>
      <trkpt lat="46.75808" lon="-1.50364">
        <ele>40.8</ele>
        <time>2024-04-25T18:54:09Z</time>
      </trkpt>
      <trkpt lat="46.75805" lon="-1.5036">
        <ele>40.8</ele>
        <time>2024-04-25T18:54:10Z</time>
      </trkpt>
      <trkpt lat="46.75802" lon="-1.50355">
        <ele>40.8</ele>
        <time>2024-04-25T18:54:11Z</time>
      </trkpt>
      <trkpt lat="46.75799" lon="-1.50351">
        <ele>40.8</ele>
        <time>2024-04-25T18:54:12Z</time>
      </trkpt>
      <trkpt lat="46.75797" lon="-1.50346">
        <ele>41</ele>
        <time>2024-04-25T18:54:13Z</time>
      </trkpt>
      <trkpt lat="46.75794" lon="-1.50342">
        <ele>41</ele>
        <time>2024-04-25T18:54:14Z</time>
      </trkpt>
      <trkpt lat="46.75792" lon="-1.50338">
        <ele>40.8</ele>
        <time>2024-04-25T18:54:15Z</time>
      </trkpt>
      <trkpt lat="46.75789" lon="-1.50333">
        <ele>40.8</ele>
        <time>2024-04-25T18:54:16Z</time>
      </trkpt>
      <trkpt lat="46.75786" lon="-1.50329">
        <ele>40.6</ele>
        <time>2024-04-25T18:54:17Z</time>
      </trkpt>
      <trkpt lat="46.75784" lon="-1.50325">
        <ele>40.6</ele>
        <time>2024-04-25T18:54:18Z</time>
      </trkpt>
      <trkpt lat="46.75781" lon="-1.5032">
        <ele>40.4</ele>
        <time>2024-04-25T18:54:19Z</time>
      </trkpt>
      <trkpt lat="46.75777" lon="-1.50316">
        <ele>40.2</ele>
        <time>2024-04-25T18:54:20Z</time>
      </trkpt>
      <trkpt lat="46.75774" lon="-1.50312">
        <ele>40</ele>
        <time>2024-04-25T18:54:21Z</time>
      </trkpt>
      <trkpt lat="46.7577" lon="-1.50308">
        <ele>39.8</ele>
        <time>2024-04-25T18:54:22Z</time>
      </trkpt>
      <trkpt lat="46.75768" lon="-1.50303">
        <ele>39.8</ele>
        <time>2024-04-25T18:54:23Z</time>
      </trkpt>
      <trkpt lat="46.75767" lon="-1.50298">
        <ele>39.8</ele>
        <time>2024-04-25T18:54:24Z</time>
      </trkpt>
      <trkpt lat="46.75767" lon="-1.50294">
        <ele>40</ele>
        <time>2024-04-25T18:54:25Z</time>
      </trkpt>
      <trkpt lat="46.75768" lon="-1.50289">
        <ele>40.2</ele>
        <time>2024-04-25T18:54:26Z</time>
      </trkpt>
      <trkpt lat="46.75769" lon="-1.50284">
        <ele>40.4</ele>
        <time>2024-04-25T18:54:27Z</time>
      </trkpt>
      <trkpt lat="46.7577" lon="-1.50279">
        <ele>40.6</ele>
        <time>2024-04-25T18:54:28Z</time>
      </trkpt>
      <trkpt lat="46.75771" lon="-1.50275">
        <ele>41</ele>
        <time>2024-04-25T18:54:29Z</time>
      </trkpt>
      <trkpt lat="46.75772" lon="-1.5027">
        <ele>41.2</ele>
        <time>2024-04-25T18:54:30Z</time>
      </trkpt>
      <trkpt lat="46.75772" lon="-1.50266">
        <ele>41.6</ele>
        <time>2024-04-25T18:54:31Z</time>
      </trkpt>
      <trkpt lat="46.75773" lon="-1.50262">
        <ele>41.8</ele>
        <time>2024-04-25T18:54:32Z</time>
      </trkpt>
      <trkpt lat="46.75773" lon="-1.50258">
        <ele>42.2</ele>
        <time>2024-04-25T18:54:33Z</time>
      </trkpt>
      <trkpt lat="46.75774" lon="-1.50253">
        <ele>42.4</ele>
        <time>2024-04-25T18:54:34Z</time>
      </trkpt>
      <trkpt lat="46.75774" lon="-1.50249">
        <ele>43</ele>
        <time>2024-04-25T18:54:35Z</time>
      </trkpt>
      <trkpt lat="46.75775" lon="-1.50245">
        <ele>43.4</ele>
        <time>2024-04-25T18:54:36Z</time>
      </trkpt>
      <trkpt lat="46.75776" lon="-1.50241">
        <ele>43.8</ele>
        <time>2024-04-25T18:54:37Z</time>
      </trkpt>
      <trkpt lat="46.75777" lon="-1.50237">
        <ele>44.2</ele>
        <time>2024-04-25T18:54:38Z</time>
      </trkpt>
      <trkpt lat="46.75778" lon="-1.50233">
        <ele>44.6</ele>
        <time>2024-04-25T18:54:39Z</time>
      </trkpt>
      <trkpt lat="46.75778" lon="-1.50229">
        <ele>45</ele>
        <time>2024-04-25T18:54:40Z</time>
      </trkpt>
      <trkpt lat="46.75779" lon="-1.50225">
        <ele>45.4</ele>
        <time>2024-04-25T18:54:41Z</time>
      </trkpt>
      <trkpt lat="46.75781" lon="-1.50219">
        <ele>45.6</ele>
        <time>2024-04-25T18:54:42Z</time>
      </trkpt>
      <trkpt lat="46.75781" lon="-1.50218">
        <ele>46</ele>
        <time>2024-04-25T18:54:43Z</time>
      </trkpt>
      <trkpt lat="46.75782" lon="-1.50214">
        <ele>46.2</ele>
        <time>2024-04-25T18:54:44Z</time>
      </trkpt>
      <trkpt lat="46.75783" lon="-1.5021">
        <ele>46.6</ele>
        <time>2024-04-25T18:54:45Z</time>
      </trkpt>
      <trkpt lat="46.75784" lon="-1.50206">
        <ele>47</ele>
        <time>2024-04-25T18:54:46Z</time>
      </trkpt>
      <trkpt lat="46.75785" lon="-1.50202">
        <ele>47.2</ele>
        <time>2024-04-25T18:54:47Z</time>
      </trkpt>
      <trkpt lat="46.75787" lon="-1.50197">
        <ele>47.4</ele>
        <time>2024-04-25T18:54:48Z</time>
      </trkpt>
      <trkpt lat="46.75789" lon="-1.5019">
        <ele>47.8</ele>
        <time>2024-04-25T18:54:49Z</time>
      </trkpt>
      <trkpt lat="46.7579" lon="-1.50188">
        <ele>48</ele>
        <time>2024-04-25T18:54:50Z</time>
      </trkpt>
      <trkpt lat="46.75791" lon="-1.50184">
        <ele>48.2</ele>
        <time>2024-04-25T18:54:51Z</time>
      </trkpt>
      <trkpt lat="46.75792" lon="-1.50181">
        <ele>48.4</ele>
        <time>2024-04-25T18:54:52Z</time>
      </trkpt>
      <trkpt lat="46.75794" lon="-1.50176">
        <ele>48.8</ele>
        <time>2024-04-25T18:54:53Z</time>
      </trkpt>
      <trkpt lat="46.75794" lon="-1.50174">
        <ele>49</ele>
        <time>2024-04-25T18:54:54Z</time>
      </trkpt>
      <trkpt lat="46.75795" lon="-1.50171">
        <ele>49.2</ele>
        <time>2024-04-25T18:54:55Z</time>
      </trkpt>
      <trkpt lat="46.75796" lon="-1.50167">
        <ele>49.4</ele>
        <time>2024-04-25T18:54:56Z</time>
      </trkpt>
      <trkpt lat="46.75797" lon="-1.50164">
        <ele>49.6</ele>
        <time>2024-04-25T18:54:57Z</time>
      </trkpt>
      <trkpt lat="46.75798" lon="-1.5016">
        <ele>49.8</ele>
        <time>2024-04-25T18:54:58Z</time>
      </trkpt>
      <trkpt lat="46.75799" lon="-1.50157">
        <ele>50</ele>
        <time>2024-04-25T18:54:59Z</time>
      </trkpt>
      <trkpt lat="46.758" lon="-1.50151">
        <ele>50.2</ele>
        <time>2024-04-25T18:55:00Z</time>
      </trkpt>
      <trkpt lat="46.758" lon="-1.5015">
        <ele>50.4</ele>
        <time>2024-04-25T18:55:01Z</time>
      </trkpt>
      <trkpt lat="46.75801" lon="-1.50146">
        <ele>50.6</ele>
        <time>2024-04-25T18:55:02Z</time>
      </trkpt>
      <trkpt lat="46.75802" lon="-1.50142">
        <ele>50.8</ele>
        <time>2024-04-25T18:55:03Z</time>
      </trkpt>
      <trkpt lat="46.75802" lon="-1.50138">
        <ele>50.8</ele>
        <time>2024-04-25T18:55:04Z</time>
      </trkpt>
      <trkpt lat="46.75802" lon="-1.50134">
        <ele>51</ele>
        <time>2024-04-25T18:55:05Z</time>
      </trkpt>
      <trkpt lat="46.75802" lon="-1.5013">
        <ele>51.2</ele>
        <time>2024-04-25T18:55:06Z</time>
      </trkpt>
      <trkpt lat="46.75802" lon="-1.50126">
        <ele>51.4</ele>
        <time>2024-04-25T18:55:07Z</time>
      </trkpt>
      <trkpt lat="46.75802" lon="-1.50121">
        <ele>51.6</ele>
        <time>2024-04-25T18:55:08Z</time>
      </trkpt>
      <trkpt lat="46.75802" lon="-1.50117">
        <ele>51.8</ele>
        <time>2024-04-25T18:55:09Z</time>
      </trkpt>
      <trkpt lat="46.75802" lon="-1.50113">
        <ele>51.8</ele>
        <time>2024-04-25T18:55:10Z</time>
      </trkpt>
      <trkpt lat="46.75802" lon="-1.50109">
        <ele>52</ele>
        <time>2024-04-25T18:55:11Z</time>
      </trkpt>
      <trkpt lat="46.75801" lon="-1.50105">
        <ele>52.2</ele>
        <time>2024-04-25T18:55:13Z</time>
      </trkpt>
      <trkpt lat="46.75801" lon="-1.50101">
        <ele>52.2</ele>
        <time>2024-04-25T18:55:14Z</time>
      </trkpt>
      <trkpt lat="46.758" lon="-1.50097">
        <ele>52.4</ele>
        <time>2024-04-25T18:55:15Z</time>
      </trkpt>
      <trkpt lat="46.75799" lon="-1.50093">
        <ele>52.6</ele>
        <time>2024-04-25T18:55:16Z</time>
      </trkpt>
      <trkpt lat="46.75798" lon="-1.50089">
        <ele>52.6</ele>
        <time>2024-04-25T18:55:17Z</time>
      </trkpt>
      <trkpt lat="46.75797" lon="-1.50085">
        <ele>52.8</ele>
        <time>2024-04-25T18:55:18Z</time>
      </trkpt>
      <trkpt lat="46.75796" lon="-1.50081">
        <ele>52.8</ele>
        <time>2024-04-25T18:55:19Z</time>
      </trkpt>
      <trkpt lat="46.75795" lon="-1.50077">
        <ele>53</ele>
        <time>2024-04-25T18:55:20Z</time>
      </trkpt>
      <trkpt lat="46.75794" lon="-1.50073">
        <ele>53.2</ele>
        <time>2024-04-25T18:55:21Z</time>
      </trkpt>
      <trkpt lat="46.75793" lon="-1.50069">
        <ele>53.2</ele>
        <time>2024-04-25T18:55:22Z</time>
      </trkpt>
      <trkpt lat="46.75791" lon="-1.50065">
        <ele>53.2</ele>
        <time>2024-04-25T18:55:23Z</time>
      </trkpt>
      <trkpt lat="46.7579" lon="-1.50061">
        <ele>53.4</ele>
        <time>2024-04-25T18:55:24Z</time>
      </trkpt>
      <trkpt lat="46.75788" lon="-1.50057">
        <ele>53.4</ele>
        <time>2024-04-25T18:55:25Z</time>
      </trkpt>
      <trkpt lat="46.75786" lon="-1.50053">
        <ele>53.2</ele>
        <time>2024-04-25T18:55:26Z</time>
      </trkpt>
      <trkpt lat="46.75783" lon="-1.50049">
        <ele>53.2</ele>
        <time>2024-04-25T18:55:27Z</time>
      </trkpt>
      <trkpt lat="46.7578" lon="-1.50045">
        <ele>53</ele>
        <time>2024-04-25T18:55:28Z</time>
      </trkpt>
      <trkpt lat="46.75778" lon="-1.50041">
        <ele>53</ele>
        <time>2024-04-25T18:55:29Z</time>
      </trkpt>
      <trkpt lat="46.75775" lon="-1.50037">
        <ele>52.8</ele>
        <time>2024-04-25T18:55:30Z</time>
      </trkpt>
      <trkpt lat="46.75772" lon="-1.50032">
        <ele>52.8</ele>
        <time>2024-04-25T18:55:31Z</time>
      </trkpt>
      <trkpt lat="46.7577" lon="-1.50026">
        <ele>52.6</ele>
        <time>2024-04-25T18:55:32Z</time>
      </trkpt>
      <trkpt lat="46.75768" lon="-1.5002">
        <ele>52.6</ele>
        <time>2024-04-25T18:55:33Z</time>
      </trkpt>
      <trkpt lat="46.75766" lon="-1.50014">
        <ele>52.6</ele>
        <time>2024-04-25T18:55:34Z</time>
      </trkpt>
      <trkpt lat="46.75765" lon="-1.50008">
        <ele>52.4</ele>
        <time>2024-04-25T18:55:35Z</time>
      </trkpt>
      <trkpt lat="46.75763" lon="-1.50001">
        <ele>52.4</ele>
        <time>2024-04-25T18:55:36Z</time>
      </trkpt>
      <trkpt lat="46.75762" lon="-1.49995">
        <ele>52.2</ele>
        <time>2024-04-25T18:55:37Z</time>
      </trkpt>
      <trkpt lat="46.7576" lon="-1.49989">
        <ele>52</ele>
        <time>2024-04-25T18:55:38Z</time>
      </trkpt>
      <trkpt lat="46.75758" lon="-1.49984">
        <ele>52</ele>
        <time>2024-04-25T18:55:39Z</time>
      </trkpt>
      <trkpt lat="46.75755" lon="-1.49978">
        <ele>51.8</ele>
        <time>2024-04-25T18:55:40Z</time>
      </trkpt>
      <trkpt lat="46.75752" lon="-1.49974">
        <ele>51.8</ele>
        <time>2024-04-25T18:55:41Z</time>
      </trkpt>
      <trkpt lat="46.75749" lon="-1.49969">
        <ele>51.6</ele>
        <time>2024-04-25T18:55:42Z</time>
      </trkpt>
      <trkpt lat="46.75746" lon="-1.49964">
        <ele>51.6</ele>
        <time>2024-04-25T18:55:43Z</time>
      </trkpt>
      <trkpt lat="46.75745" lon="-1.49958">
        <ele>51.6</ele>
        <time>2024-04-25T18:55:44Z</time>
      </trkpt>
      <trkpt lat="46.75746" lon="-1.49953">
        <ele>51.6</ele>
        <time>2024-04-25T18:55:45Z</time>
      </trkpt>
      <trkpt lat="46.75747" lon="-1.49949">
        <ele>51.8</ele>
        <time>2024-04-25T18:55:46Z</time>
      </trkpt>
      <trkpt lat="46.7575" lon="-1.49945">
        <ele>51.8</ele>
        <time>2024-04-25T18:55:47Z</time>
      </trkpt>
      <trkpt lat="46.75753" lon="-1.49941">
        <ele>52</ele>
        <time>2024-04-25T18:55:48Z</time>
      </trkpt>
      <trkpt lat="46.75757" lon="-1.49937">
        <ele>52.2</ele>
        <time>2024-04-25T18:55:49Z</time>
      </trkpt>
      <trkpt lat="46.7576" lon="-1.49933">
        <ele>52.4</ele>
        <time>2024-04-25T18:55:50Z</time>
      </trkpt>
      <trkpt lat="46.75762" lon="-1.4993">
        <ele>52.6</ele>
        <time>2024-04-25T18:55:51Z</time>
      </trkpt>
      <trkpt lat="46.75765" lon="-1.49926">
        <ele>52.8</ele>
        <time>2024-04-25T18:55:52Z</time>
      </trkpt>
      <trkpt lat="46.75767" lon="-1.49922">
        <ele>53</ele>
        <time>2024-04-25T18:55:53Z</time>
      </trkpt>
      <trkpt lat="46.7577" lon="-1.49918">
        <ele>53.2</ele>
        <time>2024-04-25T18:55:54Z</time>
      </trkpt>
      <trkpt lat="46.75772" lon="-1.49914">
        <ele>53.4</ele>
        <time>2024-04-25T18:55:55Z</time>
      </trkpt>
      <trkpt lat="46.75774" lon="-1.4991">
        <ele>53.8</ele>
        <time>2024-04-25T18:55:56Z</time>
      </trkpt>
      <trkpt lat="46.75777" lon="-1.49907">
        <ele>54</ele>
        <time>2024-04-25T18:55:57Z</time>
      </trkpt>
      <trkpt lat="46.75779" lon="-1.49903">
        <ele>54.4</ele>
        <time>2024-04-25T18:55:58Z</time>
      </trkpt>
      <trkpt lat="46.75782" lon="-1.499">
        <ele>54.6</ele>
        <time>2024-04-25T18:55:59Z</time>
      </trkpt>
      <trkpt lat="46.75784" lon="-1.49896">
        <ele>54.8</ele>
        <time>2024-04-25T18:56:00Z</time>
      </trkpt>
      <trkpt lat="46.75786" lon="-1.49891">
        <ele>55.2</ele>
        <time>2024-04-25T18:56:01Z</time>
      </trkpt>
      <trkpt lat="46.75787" lon="-1.49886">
        <ele>55.6</ele>
        <time>2024-04-25T18:56:02Z</time>
      </trkpt>
      <trkpt lat="46.75785" lon="-1.49879">
        <ele>55.8</ele>
        <time>2024-04-25T18:56:03Z</time>
      </trkpt>
      <trkpt lat="46.75784" lon="-1.49877">
        <ele>56</ele>
        <time>2024-04-25T18:56:04Z</time>
      </trkpt>
      <trkpt lat="46.75781" lon="-1.49872">
        <ele>56.2</ele>
        <time>2024-04-25T18:56:05Z</time>
      </trkpt>
      <trkpt lat="46.75778" lon="-1.49868">
        <ele>56.2</ele>
        <time>2024-04-25T18:56:06Z</time>
      </trkpt>
      <trkpt lat="46.75775" lon="-1.49864">
        <ele>56.4</ele>
        <time>2024-04-25T18:56:07Z</time>
      </trkpt>
      <trkpt lat="46.75772" lon="-1.4986">
        <ele>56.6</ele>
        <time>2024-04-25T18:56:08Z</time>
      </trkpt>
      <trkpt lat="46.75769" lon="-1.49857">
        <ele>56.8</ele>
        <time>2024-04-25T18:56:09Z</time>
      </trkpt>
      <trkpt lat="46.75766" lon="-1.49853">
        <ele>57</ele>
        <time>2024-04-25T18:56:10Z</time>
      </trkpt>
      <trkpt lat="46.75763" lon="-1.49849">
        <ele>57.4</ele>
        <time>2024-04-25T18:56:11Z</time>
      </trkpt>
      <trkpt lat="46.75761" lon="-1.49846">
        <ele>57.6</ele>
        <time>2024-04-25T18:56:12Z</time>
      </trkpt>
      <trkpt lat="46.75758" lon="-1.49843">
        <ele>58</ele>
        <time>2024-04-25T18:56:13Z</time>
      </trkpt>
      <trkpt lat="46.75754" lon="-1.49838">
        <ele>58.2</ele>
        <time>2024-04-25T18:56:14Z</time>
      </trkpt>
      <trkpt lat="46.75751" lon="-1.49836">
        <ele>58.6</ele>
        <time>2024-04-25T18:56:15Z</time>
      </trkpt>
      <trkpt lat="46.75747" lon="-1.49832">
        <ele>58.8</ele>
        <time>2024-04-25T18:56:16Z</time>
      </trkpt>
      <trkpt lat="46.75744" lon="-1.49829">
        <ele>59.2</ele>
        <time>2024-04-25T18:56:17Z</time>
      </trkpt>
      <trkpt lat="46.7574" lon="-1.49826">
        <ele>59.4</ele>
        <time>2024-04-25T18:56:18Z</time>
      </trkpt>
      <trkpt lat="46.75737" lon="-1.49824">
        <ele>59.8</ele>
        <time>2024-04-25T18:56:19Z</time>
      </trkpt>
      <trkpt lat="46.75734" lon="-1.49821">
        <ele>60.2</ele>
        <time>2024-04-25T18:56:20Z</time>
      </trkpt>
      <trkpt lat="46.75731" lon="-1.49819">
        <ele>60.6</ele>
        <time>2024-04-25T18:56:21Z</time>
      </trkpt>
      <trkpt lat="46.75728" lon="-1.49816">
        <ele>60.8</ele>
        <time>2024-04-25T18:56:22Z</time>
      </trkpt>
      <trkpt lat="46.75725" lon="-1.49813">
        <ele>61</ele>
        <time>2024-04-25T18:56:23Z</time>
      </trkpt>
      <trkpt lat="46.75722" lon="-1.4981">
        <ele>61.4</ele>
        <time>2024-04-25T18:56:24Z</time>
      </trkpt>
      <trkpt lat="46.75719" lon="-1.49805">
        <ele>61.6</ele>
        <time>2024-04-25T18:56:25Z</time>
      </trkpt>
      <trkpt lat="46.75718" lon="-1.49803">
        <ele>62</ele>
        <time>2024-04-25T18:56:26Z</time>
      </trkpt>
      <trkpt lat="46.75717" lon="-1.49798">
        <ele>62.2</ele>
        <time>2024-04-25T18:56:27Z</time>
      </trkpt>
      <trkpt lat="46.75717" lon="-1.49793">
        <ele>62.6</ele>
        <time>2024-04-25T18:56:28Z</time>
      </trkpt>
      <trkpt lat="46.75719" lon="-1.49788">
        <ele>63</ele>
        <time>2024-04-25T18:56:29Z</time>
      </trkpt>
      <trkpt lat="46.75721" lon="-1.49784">
        <ele>63.2</ele>
        <time>2024-04-25T18:56:30Z</time>
      </trkpt>
      <trkpt lat="46.75726" lon="-1.49778">
        <ele>63.4</ele>
        <time>2024-04-25T18:56:31Z</time>
      </trkpt>
      <trkpt lat="46.75727" lon="-1.49776">
        <ele>63.6</ele>
        <time>2024-04-25T18:56:32Z</time>
      </trkpt>
      <trkpt lat="46.75731" lon="-1.49772">
        <ele>63.8</ele>
        <time>2024-04-25T18:56:33Z</time>
      </trkpt>
      <trkpt lat="46.75734" lon="-1.49769">
        <ele>64</ele>
        <time>2024-04-25T18:56:34Z</time>
      </trkpt>
      <trkpt lat="46.75737" lon="-1.49765">
        <ele>64.2</ele>
        <time>2024-04-25T18:56:35Z</time>
      </trkpt>
      <trkpt lat="46.75739" lon="-1.49761">
        <ele>64.2</ele>
        <time>2024-04-25T18:56:36Z</time>
      </trkpt>
      <trkpt lat="46.75742" lon="-1.49757">
        <ele>64.4</ele>
        <time>2024-04-25T18:56:37Z</time>
      </trkpt>
      <trkpt lat="46.75744" lon="-1.49753">
        <ele>64.6</ele>
        <time>2024-04-25T18:56:38Z</time>
      </trkpt>
      <trkpt lat="46.75746" lon="-1.49748">
        <ele>64.6</ele>
        <time>2024-04-25T18:56:40Z</time>
      </trkpt>
      <trkpt lat="46.75748" lon="-1.49744">
        <ele>64.8</ele>
        <time>2024-04-25T18:56:41Z</time>
      </trkpt>
      <trkpt lat="46.75749" lon="-1.49739">
        <ele>65</ele>
        <time>2024-04-25T18:56:42Z</time>
      </trkpt>
      <trkpt lat="46.75751" lon="-1.49734">
        <ele>65</ele>
        <time>2024-04-25T18:56:43Z</time>
      </trkpt>
      <trkpt lat="46.75753" lon="-1.49729">
        <ele>65.2</ele>
        <time>2024-04-25T18:56:44Z</time>
      </trkpt>
      <trkpt lat="46.75754" lon="-1.49725">
        <ele>65.4</ele>
        <time>2024-04-25T18:56:45Z</time>
      </trkpt>
      <trkpt lat="46.75756" lon="-1.4972">
        <ele>65.4</ele>
        <time>2024-04-25T18:56:46Z</time>
      </trkpt>
      <trkpt lat="46.75758" lon="-1.49715">
        <ele>65.6</ele>
        <time>2024-04-25T18:56:47Z</time>
      </trkpt>
      <trkpt lat="46.75759" lon="-1.49711">
        <ele>65.6</ele>
        <time>2024-04-25T18:56:48Z</time>
      </trkpt>
      <trkpt lat="46.75761" lon="-1.49706">
        <ele>65.8</ele>
        <time>2024-04-25T18:56:49Z</time>
      </trkpt>
      <trkpt lat="46.75763" lon="-1.49701">
        <ele>66</ele>
        <time>2024-04-25T18:56:50Z</time>
      </trkpt>
      <trkpt lat="46.75765" lon="-1.49697">
        <ele>66</ele>
        <time>2024-04-25T18:56:51Z</time>
      </trkpt>
      <trkpt lat="46.75766" lon="-1.49692">
        <ele>66.2</ele>
        <time>2024-04-25T18:56:52Z</time>
      </trkpt>
      <trkpt lat="46.75768" lon="-1.49688">
        <ele>66.2</ele>
        <time>2024-04-25T18:56:53Z</time>
      </trkpt>
      <trkpt lat="46.7577" lon="-1.49684">
        <ele>66.4</ele>
        <time>2024-04-25T18:56:54Z</time>
      </trkpt>
      <trkpt lat="46.75772" lon="-1.49679">
        <ele>66.4</ele>
        <time>2024-04-25T18:56:55Z</time>
      </trkpt>
      <trkpt lat="46.75773" lon="-1.49675">
        <ele>66.6</ele>
        <time>2024-04-25T18:56:56Z</time>
      </trkpt>
      <trkpt lat="46.75775" lon="-1.49671">
        <ele>66.6</ele>
        <time>2024-04-25T18:56:57Z</time>
      </trkpt>
      <trkpt lat="46.75776" lon="-1.49667">
        <ele>66.8</ele>
        <time>2024-04-25T18:56:58Z</time>
      </trkpt>
      <trkpt lat="46.75778" lon="-1.49664">
        <ele>66.8</ele>
        <time>2024-04-25T18:56:59Z</time>
      </trkpt>
      <trkpt lat="46.75779" lon="-1.4966">
        <ele>67</ele>
        <time>2024-04-25T18:57:00Z</time>
      </trkpt>
      <trkpt lat="46.75781" lon="-1.49656">
        <ele>67</ele>
        <time>2024-04-25T18:57:01Z</time>
      </trkpt>
      <trkpt lat="46.75782" lon="-1.49652">
        <ele>67.2</ele>
        <time>2024-04-25T18:57:02Z</time>
      </trkpt>
      <trkpt lat="46.75784" lon="-1.49648">
        <ele>67.2</ele>
        <time>2024-04-25T18:57:03Z</time>
      </trkpt>
      <trkpt lat="46.75785" lon="-1.49644">
        <ele>67.4</ele>
        <time>2024-04-25T18:57:04Z</time>
      </trkpt>
      <trkpt lat="46.75787" lon="-1.4964">
        <ele>67.4</ele>
        <time>2024-04-25T18:57:05Z</time>
      </trkpt>
      <trkpt lat="46.75788" lon="-1.49636">
        <ele>67.4</ele>
        <time>2024-04-25T18:57:06Z</time>
      </trkpt>
      <trkpt lat="46.75789" lon="-1.49632">
        <ele>67.6</ele>
        <time>2024-04-25T18:57:07Z</time>
      </trkpt>
      <trkpt lat="46.75791" lon="-1.49628">
        <ele>67.6</ele>
        <time>2024-04-25T18:57:08Z</time>
      </trkpt>
      <trkpt lat="46.75792" lon="-1.49625">
        <ele>67.6</ele>
        <time>2024-04-25T18:57:09Z</time>
      </trkpt>
      <trkpt lat="46.75794" lon="-1.49621">
        <ele>67.8</ele>
        <time>2024-04-25T18:57:10Z</time>
      </trkpt>
      <trkpt lat="46.75795" lon="-1.49617">
        <ele>67.8</ele>
        <time>2024-04-25T18:57:11Z</time>
      </trkpt>
      <trkpt lat="46.75796" lon="-1.49614">
        <ele>68</ele>
        <time>2024-04-25T18:57:12Z</time>
      </trkpt>
      <trkpt lat="46.75798" lon="-1.4961">
        <ele>68</ele>
        <time>2024-04-25T18:57:13Z</time>
      </trkpt>
      <trkpt lat="46.75799" lon="-1.49607">
        <ele>68.2</ele>
        <time>2024-04-25T18:57:14Z</time>
      </trkpt>
      <trkpt lat="46.758" lon="-1.49603">
        <ele>68.2</ele>
        <time>2024-04-25T18:57:15Z</time>
      </trkpt>
      <trkpt lat="46.75802" lon="-1.496">
        <ele>68.4</ele>
        <time>2024-04-25T18:57:16Z</time>
      </trkpt>
      <trkpt lat="46.75803" lon="-1.49598">
        <ele>68.4</ele>
        <time>2024-04-25T18:57:17Z</time>
      </trkpt>
      <trkpt lat="46.75804" lon="-1.49596">
        <ele>68.6</ele>
        <time>2024-04-25T18:57:18Z</time>
      </trkpt>
      <trkpt lat="46.75805" lon="-1.49594">
        <ele>68.6</ele>
        <time>2024-04-25T18:57:19Z</time>
      </trkpt>
      <trkpt lat="46.75806" lon="-1.49592">
        <ele>68.8</ele>
        <time>2024-04-25T18:57:20Z</time>
      </trkpt>
      <trkpt lat="46.75807" lon="-1.4959">
        <ele>68.8</ele>
        <time>2024-04-25T18:57:21Z</time>
      </trkpt>
      <trkpt lat="46.75808" lon="-1.49589">
        <ele>69</ele>
        <time>2024-04-25T18:57:22Z</time>
      </trkpt>
      <trkpt lat="46.75809" lon="-1.49586">
        <ele>69</ele>
        <time>2024-04-25T18:57:23Z</time>
      </trkpt>
      <trkpt lat="46.75809" lon="-1.49584">
        <ele>69</ele>
        <time>2024-04-25T18:57:24Z</time>
      </trkpt>
      <trkpt lat="46.75809" lon="-1.49582">
        <ele>69</ele>
        <time>2024-04-25T18:57:25Z</time>
      </trkpt>
      <trkpt lat="46.75808" lon="-1.4958">
        <ele>69</ele>
        <time>2024-04-25T18:57:26Z</time>
      </trkpt>
      <trkpt lat="46.75807" lon="-1.49579">
        <ele>69</ele>
        <time>2024-04-25T18:57:27Z</time>
      </trkpt>
      <trkpt lat="46.75806" lon="-1.49578">
        <ele>68.8</ele>
        <time>2024-04-25T18:57:28Z</time>
      </trkpt>
      <trkpt lat="46.75803" lon="-1.49577">
        <ele>68.8</ele>
        <time>2024-04-25T18:57:29Z</time>
      </trkpt>
      <trkpt lat="46.75801" lon="-1.49574">
        <ele>68.8</ele>
        <time>2024-04-25T18:57:30Z</time>
      </trkpt>
      <trkpt lat="46.758" lon="-1.49571">
        <ele>68.6</ele>
        <time>2024-04-25T18:57:31Z</time>
      </trkpt>
      <trkpt lat="46.75798" lon="-1.49568">
        <ele>68.6</ele>
        <time>2024-04-25T18:57:32Z</time>
      </trkpt>
      <trkpt lat="46.75797" lon="-1.49564">
        <ele>68.6</ele>
        <time>2024-04-25T18:57:33Z</time>
      </trkpt>
      <trkpt lat="46.75795" lon="-1.49559">
        <ele>68.6</ele>
        <time>2024-04-25T18:57:34Z</time>
      </trkpt>
      <trkpt lat="46.75794" lon="-1.49555">
        <ele>68.4</ele>
        <time>2024-04-25T18:57:35Z</time>
      </trkpt>
      <trkpt lat="46.75793" lon="-1.4955">
        <ele>68.4</ele>
        <time>2024-04-25T18:57:36Z</time>
      </trkpt>
      <trkpt lat="46.75791" lon="-1.49545">
        <ele>68.4</ele>
        <time>2024-04-25T18:57:37Z</time>
      </trkpt>
      <trkpt lat="46.7579" lon="-1.49541">
        <ele>68.4</ele>
        <time>2024-04-25T18:57:38Z</time>
      </trkpt>
      <trkpt lat="46.75788" lon="-1.49536">
        <ele>68.2</ele>
        <time>2024-04-25T18:57:39Z</time>
      </trkpt>
      <trkpt lat="46.75786" lon="-1.49531">
        <ele>68.2</ele>
        <time>2024-04-25T18:57:40Z</time>
      </trkpt>
      <trkpt lat="46.75785" lon="-1.49526">
        <ele>68.2</ele>
        <time>2024-04-25T18:57:41Z</time>
      </trkpt>
      <trkpt lat="46.75781" lon="-1.49515">
        <ele>68.2</ele>
        <time>2024-04-25T18:57:42Z</time>
      </trkpt>
      <trkpt lat="46.7578" lon="-1.49511">
        <ele>68</ele>
        <time>2024-04-25T18:57:43Z</time>
      </trkpt>
      <trkpt lat="46.75778" lon="-1.49504">
        <ele>68</ele>
        <time>2024-04-25T18:57:44Z</time>
      </trkpt>
      <trkpt lat="46.75776" lon="-1.49497">
        <ele>67.8</ele>
        <time>2024-04-25T18:57:45Z</time>
      </trkpt>
      <trkpt lat="46.75774" lon="-1.49491">
        <ele>67.8</ele>
        <time>2024-04-25T18:57:46Z</time>
      </trkpt>
      <trkpt lat="46.75772" lon="-1.49484">
        <ele>67.6</ele>
        <time>2024-04-25T18:57:47Z</time>
      </trkpt>
      <trkpt lat="46.7577" lon="-1.49479">
        <ele>67.6</ele>
        <time>2024-04-25T18:57:48Z</time>
      </trkpt>
      <trkpt lat="46.75768" lon="-1.49474">
        <ele>67.4</ele>
        <time>2024-04-25T18:57:49Z</time>
      </trkpt>
      <trkpt lat="46.75767" lon="-1.49469">
        <ele>67.4</ele>
        <time>2024-04-25T18:57:50Z</time>
      </trkpt>
      <trkpt lat="46.75765" lon="-1.49464">
        <ele>67.2</ele>
        <time>2024-04-25T18:57:51Z</time>
      </trkpt>
      <trkpt lat="46.75763" lon="-1.49459">
        <ele>67</ele>
        <time>2024-04-25T18:57:52Z</time>
      </trkpt>
      <trkpt lat="46.7576" lon="-1.49451">
        <ele>66.8</ele>
        <time>2024-04-25T18:57:53Z</time>
      </trkpt>
      <trkpt lat="46.75758" lon="-1.49448">
        <ele>66.6</ele>
        <time>2024-04-25T18:57:54Z</time>
      </trkpt>
      <trkpt lat="46.75756" lon="-1.49443">
        <ele>66.6</ele>
        <time>2024-04-25T18:57:55Z</time>
      </trkpt>
      <trkpt lat="46.75753" lon="-1.49437">
        <ele>66.4</ele>
        <time>2024-04-25T18:57:56Z</time>
      </trkpt>
      <trkpt lat="46.7575" lon="-1.4943">
        <ele>66.4</ele>
        <time>2024-04-25T18:57:57Z</time>
      </trkpt>
      <trkpt lat="46.75747" lon="-1.49424">
        <ele>66.2</ele>
        <time>2024-04-25T18:57:58Z</time>
      </trkpt>
      <trkpt lat="46.75745" lon="-1.49418">
        <ele>66.2</ele>
        <time>2024-04-25T18:57:59Z</time>
      </trkpt>
      <trkpt lat="46.75742" lon="-1.49412">
        <ele>66.2</ele>
        <time>2024-04-25T18:58:00Z</time>
      </trkpt>
      <trkpt lat="46.75739" lon="-1.49406">
        <ele>66</ele>
        <time>2024-04-25T18:58:01Z</time>
      </trkpt>
      <trkpt lat="46.75736" lon="-1.494">
        <ele>66</ele>
        <time>2024-04-25T18:58:02Z</time>
      </trkpt>
      <trkpt lat="46.75733" lon="-1.49394">
        <ele>66</ele>
        <time>2024-04-25T18:58:03Z</time>
      </trkpt>
      <trkpt lat="46.7573" lon="-1.49388">
        <ele>66</ele>
        <time>2024-04-25T18:58:04Z</time>
      </trkpt>
      <trkpt lat="46.75728" lon="-1.49383">
        <ele>66</ele>
        <time>2024-04-25T18:58:05Z</time>
      </trkpt>
      <trkpt lat="46.75725" lon="-1.49377">
        <ele>66</ele>
        <time>2024-04-25T18:58:06Z</time>
      </trkpt>
      <trkpt lat="46.75722" lon="-1.49371">
        <ele>65.8</ele>
        <time>2024-04-25T18:58:08Z</time>
      </trkpt>
      <trkpt lat="46.75719" lon="-1.49365">
        <ele>65.8</ele>
        <time>2024-04-25T18:58:09Z</time>
      </trkpt>
      <trkpt lat="46.75715" lon="-1.49356">
        <ele>65.6</ele>
        <time>2024-04-25T18:58:10Z</time>
      </trkpt>
      <trkpt lat="46.75713" lon="-1.49353">
        <ele>65.2</ele>
        <time>2024-04-25T18:58:11Z</time>
      </trkpt>
      <trkpt lat="46.7571" lon="-1.49346">
        <ele>65</ele>
        <time>2024-04-25T18:58:12Z</time>
      </trkpt>
      <trkpt lat="46.75706" lon="-1.4934">
        <ele>64.8</ele>
        <time>2024-04-25T18:58:13Z</time>
      </trkpt>
      <trkpt lat="46.75704" lon="-1.49334">
        <ele>64.6</ele>
        <time>2024-04-25T18:58:14Z</time>
      </trkpt>
      <trkpt lat="46.75701" lon="-1.49329">
        <ele>64.6</ele>
        <time>2024-04-25T18:58:15Z</time>
      </trkpt>
      <trkpt lat="46.75699" lon="-1.49325">
        <ele>64.4</ele>
        <time>2024-04-25T18:58:16Z</time>
      </trkpt>
      <trkpt lat="46.75697" lon="-1.49321">
        <ele>64.2</ele>
        <time>2024-04-25T18:58:17Z</time>
      </trkpt>
      <trkpt lat="46.75695" lon="-1.49317">
        <ele>64.2</ele>
        <time>2024-04-25T18:58:18Z</time>
      </trkpt>
      <trkpt lat="46.75694" lon="-1.49314">
        <ele>64.2</ele>
        <time>2024-04-25T18:58:19Z</time>
      </trkpt>
      <trkpt lat="46.75692" lon="-1.49312">
        <ele>64.2</ele>
        <time>2024-04-25T18:58:20Z</time>
      </trkpt>
      <trkpt lat="46.75691" lon="-1.49309">
        <ele>64</ele>
        <time>2024-04-25T18:58:21Z</time>
      </trkpt>
      <trkpt lat="46.7569" lon="-1.49306">
        <ele>64</ele>
        <time>2024-04-25T18:58:22Z</time>
      </trkpt>
      <trkpt lat="46.75688" lon="-1.49303">
        <ele>64</ele>
        <time>2024-04-25T18:58:23Z</time>
      </trkpt>
      <trkpt lat="46.75686" lon="-1.493">
        <ele>64</ele>
        <time>2024-04-25T18:58:24Z</time>
      </trkpt>
      <trkpt lat="46.75684" lon="-1.49297">
        <ele>64</ele>
        <time>2024-04-25T18:58:25Z</time>
      </trkpt>
      <trkpt lat="46.75682" lon="-1.49293">
        <ele>63.8</ele>
        <time>2024-04-25T18:58:26Z</time>
      </trkpt>
      <trkpt lat="46.7568" lon="-1.49288">
        <ele>63.8</ele>
        <time>2024-04-25T18:58:27Z</time>
      </trkpt>
      <trkpt lat="46.75678" lon="-1.49284">
        <ele>63.6</ele>
        <time>2024-04-25T18:58:28Z</time>
      </trkpt>
      <trkpt lat="46.75675" lon="-1.49279">
        <ele>63.6</ele>
        <time>2024-04-25T18:58:29Z</time>
      </trkpt>
      <trkpt lat="46.75672" lon="-1.49274">
        <ele>63.6</ele>
        <time>2024-04-25T18:58:30Z</time>
      </trkpt>
      <trkpt lat="46.7567" lon="-1.49269">
        <ele>63.4</ele>
        <time>2024-04-25T18:58:31Z</time>
      </trkpt>
      <trkpt lat="46.75667" lon="-1.49264">
        <ele>63.4</ele>
        <time>2024-04-25T18:58:32Z</time>
      </trkpt>
      <trkpt lat="46.75665" lon="-1.4926">
        <ele>63.4</ele>
        <time>2024-04-25T18:58:33Z</time>
      </trkpt>
      <trkpt lat="46.75662" lon="-1.49256">
        <ele>63.4</ele>
        <time>2024-04-25T18:58:34Z</time>
      </trkpt>
      <trkpt lat="46.7566" lon="-1.49252">
        <ele>63.2</ele>
        <time>2024-04-25T18:58:35Z</time>
      </trkpt>
      <trkpt lat="46.75657" lon="-1.49248">
        <ele>63.2</ele>
        <time>2024-04-25T18:58:36Z</time>
      </trkpt>
      <trkpt lat="46.75654" lon="-1.49244">
        <ele>63.2</ele>
        <time>2024-04-25T18:58:37Z</time>
      </trkpt>
      <trkpt lat="46.75651" lon="-1.4924">
        <ele>62.8</ele>
        <time>2024-04-25T18:58:38Z</time>
      </trkpt>
      <trkpt lat="46.75648" lon="-1.49237">
        <ele>62.6</ele>
        <time>2024-04-25T18:58:39Z</time>
      </trkpt>
      <trkpt lat="46.75644" lon="-1.49233">
        <ele>62.2</ele>
        <time>2024-04-25T18:58:40Z</time>
      </trkpt>
      <trkpt lat="46.75639" lon="-1.4923">
        <ele>62</ele>
        <time>2024-04-25T18:58:41Z</time>
      </trkpt>
      <trkpt lat="46.75635" lon="-1.49226">
        <ele>61.6</ele>
        <time>2024-04-25T18:58:42Z</time>
      </trkpt>
      <trkpt lat="46.7563" lon="-1.49223">
        <ele>61</ele>
        <time>2024-04-25T18:58:43Z</time>
      </trkpt>
      <trkpt lat="46.75626" lon="-1.49219">
        <ele>60.6</ele>
        <time>2024-04-25T18:58:44Z</time>
      </trkpt>
      <trkpt lat="46.75621" lon="-1.49215">
        <ele>59.6</ele>
        <time>2024-04-25T18:58:45Z</time>
      </trkpt>
      <trkpt lat="46.75616" lon="-1.4921">
        <ele>58.6</ele>
        <time>2024-04-25T18:58:46Z</time>
      </trkpt>
      <trkpt lat="46.75611" lon="-1.49203">
        <ele>57.6</ele>
        <time>2024-04-25T18:58:47Z</time>
      </trkpt>
      <trkpt lat="46.75606" lon="-1.49195">
        <ele>57.2</ele>
        <time>2024-04-25T18:58:48Z</time>
      </trkpt>
      <trkpt lat="46.75603" lon="-1.49187">
        <ele>57</ele>
        <time>2024-04-25T18:58:49Z</time>
      </trkpt>
      <trkpt lat="46.756" lon="-1.4918">
        <ele>57</ele>
        <time>2024-04-25T18:58:50Z</time>
      </trkpt>
      <trkpt lat="46.75596" lon="-1.49175">
        <ele>56.6</ele>
        <time>2024-04-25T18:58:51Z</time>
      </trkpt>
      <trkpt lat="46.75592" lon="-1.49172">
        <ele>56</ele>
        <time>2024-04-25T18:58:52Z</time>
      </trkpt>
      <trkpt lat="46.75586" lon="-1.4917">
        <ele>55.4</ele>
        <time>2024-04-25T18:58:53Z</time>
      </trkpt>
      <trkpt lat="46.75581" lon="-1.49169">
        <ele>54.4</ele>
        <time>2024-04-25T18:58:54Z</time>
      </trkpt>
      <trkpt lat="46.75574" lon="-1.49167">
        <ele>53.8</ele>
        <time>2024-04-25T18:58:55Z</time>
      </trkpt>
      <trkpt lat="46.75568" lon="-1.49163">
        <ele>53.4</ele>
        <time>2024-04-25T18:58:56Z</time>
      </trkpt>
      <trkpt lat="46.75563" lon="-1.49158">
        <ele>53.2</ele>
        <time>2024-04-25T18:58:57Z</time>
      </trkpt>
      <trkpt lat="46.75558" lon="-1.49153">
        <ele>53.2</ele>
        <time>2024-04-25T18:58:58Z</time>
      </trkpt>
      <trkpt lat="46.75556" lon="-1.49148">
        <ele>53</ele>
        <time>2024-04-25T18:58:59Z</time>
      </trkpt>
      <trkpt lat="46.75554" lon="-1.49142">
        <ele>53</ele>
        <time>2024-04-25T18:59:00Z</time>
      </trkpt>
      <trkpt lat="46.75553" lon="-1.49135">
        <ele>53</ele>
        <time>2024-04-25T18:59:01Z</time>
      </trkpt>
      <trkpt lat="46.75552" lon="-1.49129">
        <ele>52.8</ele>
        <time>2024-04-25T18:59:02Z</time>
      </trkpt>
      <trkpt lat="46.7555" lon="-1.49124">
        <ele>52.8</ele>
        <time>2024-04-25T18:59:03Z</time>
      </trkpt>
      <trkpt lat="46.75547" lon="-1.49119">
        <ele>52.6</ele>
        <time>2024-04-25T18:59:04Z</time>
      </trkpt>
      <trkpt lat="46.75543" lon="-1.49114">
        <ele>52.2</ele>
        <time>2024-04-25T18:59:05Z</time>
      </trkpt>
      <trkpt lat="46.75538" lon="-1.49109">
        <ele>51.8</ele>
        <time>2024-04-25T18:59:06Z</time>
      </trkpt>
      <trkpt lat="46.75534" lon="-1.49106">
        <ele>51.8</ele>
        <time>2024-04-25T18:59:07Z</time>
      </trkpt>
      <trkpt lat="46.75529" lon="-1.49103">
        <ele>51.8</ele>
        <time>2024-04-25T18:59:08Z</time>
      </trkpt>
      <trkpt lat="46.75525" lon="-1.491">
        <ele>51.8</ele>
        <time>2024-04-25T18:59:09Z</time>
      </trkpt>
      <trkpt lat="46.7552" lon="-1.49096">
        <ele>52</ele>
        <time>2024-04-25T18:59:10Z</time>
      </trkpt>
      <trkpt lat="46.75516" lon="-1.49094">
        <ele>52</ele>
        <time>2024-04-25T18:59:11Z</time>
      </trkpt>
      <trkpt lat="46.75512" lon="-1.49094">
        <ele>52</ele>
        <time>2024-04-25T18:59:12Z</time>
      </trkpt>
      <trkpt lat="46.75508" lon="-1.49096">
        <ele>51.8</ele>
        <time>2024-04-25T18:59:13Z</time>
      </trkpt>
      <trkpt lat="46.75504" lon="-1.49099">
        <ele>51.8</ele>
        <time>2024-04-25T18:59:14Z</time>
      </trkpt>
      <trkpt lat="46.755" lon="-1.49102">
        <ele>51.6</ele>
        <time>2024-04-25T18:59:15Z</time>
      </trkpt>
      <trkpt lat="46.75497" lon="-1.49106">
        <ele>51.6</ele>
        <time>2024-04-25T18:59:16Z</time>
      </trkpt>
      <trkpt lat="46.75493" lon="-1.4911">
        <ele>51.4</ele>
        <time>2024-04-25T18:59:17Z</time>
      </trkpt>
      <trkpt lat="46.75489" lon="-1.49113">
        <ele>51</ele>
        <time>2024-04-25T18:59:18Z</time>
      </trkpt>
      <trkpt lat="46.75484" lon="-1.49115">
        <ele>50.8</ele>
        <time>2024-04-25T18:59:19Z</time>
      </trkpt>
      <trkpt lat="46.75478" lon="-1.49115">
        <ele>50.4</ele>
        <time>2024-04-25T18:59:20Z</time>
      </trkpt>
      <trkpt lat="46.75471" lon="-1.4911">
        <ele>50</ele>
        <time>2024-04-25T18:59:21Z</time>
      </trkpt>
      <trkpt lat="46.75469" lon="-1.49109">
        <ele>49.6</ele>
        <time>2024-04-25T18:59:22Z</time>
      </trkpt>
      <trkpt lat="46.75464" lon="-1.49105">
        <ele>49.2</ele>
        <time>2024-04-25T18:59:23Z</time>
      </trkpt>
      <trkpt lat="46.7546" lon="-1.491">
        <ele>48.8</ele>
        <time>2024-04-25T18:59:24Z</time>
      </trkpt>
      <trkpt lat="46.75455" lon="-1.49096">
        <ele>48.6</ele>
        <time>2024-04-25T18:59:25Z</time>
      </trkpt>
      <trkpt lat="46.7545" lon="-1.49091">
        <ele>48.2</ele>
        <time>2024-04-25T18:59:26Z</time>
      </trkpt>
      <trkpt lat="46.75445" lon="-1.49087">
        <ele>48</ele>
        <time>2024-04-25T18:59:27Z</time>
      </trkpt>
      <trkpt lat="46.75441" lon="-1.49082">
        <ele>47.6</ele>
        <time>2024-04-25T18:59:28Z</time>
      </trkpt>
      <trkpt lat="46.75436" lon="-1.49077">
        <ele>47.4</ele>
        <time>2024-04-25T18:59:29Z</time>
      </trkpt>
      <trkpt lat="46.75432" lon="-1.49072">
        <ele>47.2</ele>
        <time>2024-04-25T18:59:30Z</time>
      </trkpt>
      <trkpt lat="46.75428" lon="-1.49067">
        <ele>47.2</ele>
        <time>2024-04-25T18:59:31Z</time>
      </trkpt>
      <trkpt lat="46.75424" lon="-1.49062">
        <ele>47</ele>
        <time>2024-04-25T18:59:32Z</time>
      </trkpt>
      <trkpt lat="46.75421" lon="-1.49057">
        <ele>47</ele>
        <time>2024-04-25T18:59:33Z</time>
      </trkpt>
      <trkpt lat="46.75418" lon="-1.49053">
        <ele>47</ele>
        <time>2024-04-25T18:59:34Z</time>
      </trkpt>
      <trkpt lat="46.75416" lon="-1.49049">
        <ele>47</ele>
        <time>2024-04-25T18:59:35Z</time>
      </trkpt>
      <trkpt lat="46.75414" lon="-1.49047">
        <ele>47</ele>
        <time>2024-04-25T18:59:37Z</time>
      </trkpt>
      <trkpt lat="46.75412" lon="-1.49045">
        <ele>47</ele>
        <time>2024-04-25T18:59:38Z</time>
      </trkpt>
      <trkpt lat="46.75411" lon="-1.49044">
        <ele>47</ele>
        <time>2024-04-25T18:59:39Z</time>
      </trkpt>
      <trkpt lat="46.75409" lon="-1.49044">
        <ele>47</ele>
        <time>2024-04-25T18:59:40Z</time>
      </trkpt>
      <trkpt lat="46.75407" lon="-1.49044">
        <ele>47</ele>
        <time>2024-04-25T18:59:41Z</time>
      </trkpt>
      <trkpt lat="46.75405" lon="-1.49044">
        <ele>47</ele>
        <time>2024-04-25T18:59:42Z</time>
      </trkpt>
      <trkpt lat="46.75401" lon="-1.49043">
        <ele>46.8</ele>
        <time>2024-04-25T18:59:43Z</time>
      </trkpt>
      <trkpt lat="46.754" lon="-1.49042">
        <ele>46.8</ele>
        <time>2024-04-25T18:59:44Z</time>
      </trkpt>
      <trkpt lat="46.75398" lon="-1.49041">
        <ele>46.8</ele>
        <time>2024-04-25T18:59:45Z</time>
      </trkpt>
      <trkpt lat="46.75396" lon="-1.4904">
        <ele>46.8</ele>
        <time>2024-04-25T18:59:46Z</time>
      </trkpt>
      <trkpt lat="46.75394" lon="-1.49039">
        <ele>47</ele>
        <time>2024-04-25T18:59:47Z</time>
      </trkpt>
      <trkpt lat="46.75392" lon="-1.49037">
        <ele>47</ele>
        <time>2024-04-25T18:59:48Z</time>
      </trkpt>
      <trkpt lat="46.7539" lon="-1.49036">
        <ele>47.2</ele>
        <time>2024-04-25T18:59:49Z</time>
      </trkpt>
      <trkpt lat="46.75389" lon="-1.49035">
        <ele>47.2</ele>
        <time>2024-04-25T18:59:50Z</time>
      </trkpt>
      <trkpt lat="46.75387" lon="-1.49033">
        <ele>47.4</ele>
        <time>2024-04-25T18:59:51Z</time>
      </trkpt>
      <trkpt lat="46.75384" lon="-1.49032">
        <ele>47.6</ele>
        <time>2024-04-25T18:59:52Z</time>
      </trkpt>
      <trkpt lat="46.75382" lon="-1.4903">
        <ele>47.8</ele>
        <time>2024-04-25T18:59:53Z</time>
      </trkpt>
      <trkpt lat="46.75379" lon="-1.49029">
        <ele>48</ele>
        <time>2024-04-25T18:59:54Z</time>
      </trkpt>
      <trkpt lat="46.75376" lon="-1.49028">
        <ele>48.2</ele>
        <time>2024-04-25T18:59:55Z</time>
      </trkpt>
      <trkpt lat="46.75373" lon="-1.49027">
        <ele>48.4</ele>
        <time>2024-04-25T18:59:56Z</time>
      </trkpt>
      <trkpt lat="46.7537" lon="-1.49027">
        <ele>48.6</ele>
        <time>2024-04-25T18:59:57Z</time>
      </trkpt>
      <trkpt lat="46.75367" lon="-1.49026">
        <ele>48.8</ele>
        <time>2024-04-25T18:59:58Z</time>
      </trkpt>
      <trkpt lat="46.75365" lon="-1.49027">
        <ele>49</ele>
        <time>2024-04-25T18:59:59Z</time>
      </trkpt>
      <trkpt lat="46.75362" lon="-1.49027">
        <ele>49.2</ele>
        <time>2024-04-25T19:00:00Z</time>
      </trkpt>
      <trkpt lat="46.75359" lon="-1.49027">
        <ele>49.4</ele>
        <time>2024-04-25T19:00:01Z</time>
      </trkpt>
      <trkpt lat="46.75356" lon="-1.49028">
        <ele>49.4</ele>
        <time>2024-04-25T19:00:02Z</time>
      </trkpt>
      <trkpt lat="46.75353" lon="-1.49028">
        <ele>49.6</ele>
        <time>2024-04-25T19:00:03Z</time>
      </trkpt>
      <trkpt lat="46.7535" lon="-1.49029">
        <ele>50</ele>
        <time>2024-04-25T19:00:04Z</time>
      </trkpt>
      <trkpt lat="46.75346" lon="-1.49029">
        <ele>50.2</ele>
        <time>2024-04-25T19:00:05Z</time>
      </trkpt>
      <trkpt lat="46.75343" lon="-1.49029">
        <ele>50.4</ele>
        <time>2024-04-25T19:00:06Z</time>
      </trkpt>
      <trkpt lat="46.7534" lon="-1.49029">
        <ele>50.8</ele>
        <time>2024-04-25T19:00:07Z</time>
      </trkpt>
      <trkpt lat="46.75337" lon="-1.4903">
        <ele>51.2</ele>
        <time>2024-04-25T19:00:08Z</time>
      </trkpt>
      <trkpt lat="46.75334" lon="-1.4903">
        <ele>51.4</ele>
        <time>2024-04-25T19:00:09Z</time>
      </trkpt>
      <trkpt lat="46.75331" lon="-1.49031">
        <ele>51.6</ele>
        <time>2024-04-25T19:00:10Z</time>
      </trkpt>
      <trkpt lat="46.75329" lon="-1.49032">
        <ele>52</ele>
        <time>2024-04-25T19:00:11Z</time>
      </trkpt>
      <trkpt lat="46.75326" lon="-1.49034">
        <ele>52.4</ele>
        <time>2024-04-25T19:00:12Z</time>
      </trkpt>
      <trkpt lat="46.75324" lon="-1.49035">
        <ele>52.8</ele>
        <time>2024-04-25T19:00:13Z</time>
      </trkpt>
      <trkpt lat="46.75322" lon="-1.49036">
        <ele>53</ele>
        <time>2024-04-25T19:00:14Z</time>
      </trkpt>
      <trkpt lat="46.7532" lon="-1.49038">
        <ele>53.4</ele>
        <time>2024-04-25T19:00:15Z</time>
      </trkpt>
      <trkpt lat="46.75318" lon="-1.49039">
        <ele>53.8</ele>
        <time>2024-04-25T19:00:16Z</time>
      </trkpt>
      <trkpt lat="46.75316" lon="-1.49041">
        <ele>54</ele>
        <time>2024-04-25T19:00:17Z</time>
      </trkpt>
      <trkpt lat="46.75315" lon="-1.49042">
        <ele>54.4</ele>
        <time>2024-04-25T19:00:18Z</time>
      </trkpt>
      <trkpt lat="46.75313" lon="-1.49044">
        <ele>54.6</ele>
        <time>2024-04-25T19:00:19Z</time>
      </trkpt>
      <trkpt lat="46.75311" lon="-1.49047">
        <ele>55.2</ele>
        <time>2024-04-25T19:00:20Z</time>
      </trkpt>
      <trkpt lat="46.7531" lon="-1.49049">
        <ele>55.4</ele>
        <time>2024-04-25T19:00:21Z</time>
      </trkpt>
      <trkpt lat="46.75309" lon="-1.49051">
        <ele>55.8</ele>
        <time>2024-04-25T19:00:22Z</time>
      </trkpt>
      <trkpt lat="46.75308" lon="-1.49053">
        <ele>56.2</ele>
        <time>2024-04-25T19:00:23Z</time>
      </trkpt>
      <trkpt lat="46.75306" lon="-1.49055">
        <ele>56.4</ele>
        <time>2024-04-25T19:00:24Z</time>
      </trkpt>
      <trkpt lat="46.75304" lon="-1.49057">
        <ele>56.6</ele>
        <time>2024-04-25T19:00:25Z</time>
      </trkpt>
      <trkpt lat="46.75303" lon="-1.49059">
        <ele>57</ele>
        <time>2024-04-25T19:00:26Z</time>
      </trkpt>
      <trkpt lat="46.75301" lon="-1.49061">
        <ele>57.2</ele>
        <time>2024-04-25T19:00:27Z</time>
      </trkpt>
      <trkpt lat="46.75298" lon="-1.49063">
        <ele>57.4</ele>
        <time>2024-04-25T19:00:28Z</time>
      </trkpt>
      <trkpt lat="46.75296" lon="-1.49065">
        <ele>57.6</ele>
        <time>2024-04-25T19:00:29Z</time>
      </trkpt>
      <trkpt lat="46.75294" lon="-1.49067">
        <ele>58</ele>
        <time>2024-04-25T19:00:30Z</time>
      </trkpt>
      <trkpt lat="46.75293" lon="-1.49069">
        <ele>58</ele>
        <time>2024-04-25T19:00:31Z</time>
      </trkpt>
      <trkpt lat="46.75291" lon="-1.49071">
        <ele>58.2</ele>
        <time>2024-04-25T19:00:32Z</time>
      </trkpt>
      <trkpt lat="46.75289" lon="-1.49073">
        <ele>58.6</ele>
        <time>2024-04-25T19:00:33Z</time>
      </trkpt>
      <trkpt lat="46.75287" lon="-1.49074">
        <ele>58.8</ele>
        <time>2024-04-25T19:00:34Z</time>
      </trkpt>
      <trkpt lat="46.75285" lon="-1.49076">
        <ele>59</ele>
        <time>2024-04-25T19:00:35Z</time>
      </trkpt>
      <trkpt lat="46.75283" lon="-1.49078">
        <ele>59.2</ele>
        <time>2024-04-25T19:00:36Z</time>
      </trkpt>
      <trkpt lat="46.75282" lon="-1.4908">
        <ele>59.4</ele>
        <time>2024-04-25T19:00:37Z</time>
      </trkpt>
      <trkpt lat="46.75279" lon="-1.49083">
        <ele>59.6</ele>
        <time>2024-04-25T19:00:38Z</time>
      </trkpt>
      <trkpt lat="46.75277" lon="-1.49086">
        <ele>59.6</ele>
        <time>2024-04-25T19:00:39Z</time>
      </trkpt>
      <trkpt lat="46.75275" lon="-1.49089">
        <ele>59.8</ele>
        <time>2024-04-25T19:00:40Z</time>
      </trkpt>
      <trkpt lat="46.75273" lon="-1.49092">
        <ele>60</ele>
        <time>2024-04-25T19:00:41Z</time>
      </trkpt>
      <trkpt lat="46.75271" lon="-1.49094">
        <ele>60</ele>
        <time>2024-04-25T19:00:42Z</time>
      </trkpt>
      <trkpt lat="46.75269" lon="-1.49097">
        <ele>60.2</ele>
        <time>2024-04-25T19:00:43Z</time>
      </trkpt>
      <trkpt lat="46.75267" lon="-1.49099">
        <ele>60.4</ele>
        <time>2024-04-25T19:00:44Z</time>
      </trkpt>
      <trkpt lat="46.75265" lon="-1.49101">
        <ele>60.6</ele>
        <time>2024-04-25T19:00:45Z</time>
      </trkpt>
      <trkpt lat="46.75263" lon="-1.49103">
        <ele>60.8</ele>
        <time>2024-04-25T19:00:46Z</time>
      </trkpt>
      <trkpt lat="46.75261" lon="-1.49105">
        <ele>61</ele>
        <time>2024-04-25T19:00:47Z</time>
      </trkpt>
      <trkpt lat="46.75259" lon="-1.49107">
        <ele>61.2</ele>
        <time>2024-04-25T19:00:48Z</time>
      </trkpt>
      <trkpt lat="46.75256" lon="-1.49109">
        <ele>61.4</ele>
        <time>2024-04-25T19:00:49Z</time>
      </trkpt>
      <trkpt lat="46.75254" lon="-1.4911">
        <ele>61.6</ele>
        <time>2024-04-25T19:00:50Z</time>
      </trkpt>
      <trkpt lat="46.75252" lon="-1.49111">
        <ele>61.8</ele>
        <time>2024-04-25T19:00:51Z</time>
      </trkpt>
      <trkpt lat="46.75249" lon="-1.49111">
        <ele>62</ele>
        <time>2024-04-25T19:00:52Z</time>
      </trkpt>
      <trkpt lat="46.75247" lon="-1.49112">
        <ele>62.2</ele>
        <time>2024-04-25T19:00:53Z</time>
      </trkpt>
      <trkpt lat="46.75244" lon="-1.49112">
        <ele>62.6</ele>
        <time>2024-04-25T19:00:54Z</time>
      </trkpt>
      <trkpt lat="46.75242" lon="-1.49112">
        <ele>62.8</ele>
        <time>2024-04-25T19:00:55Z</time>
      </trkpt>
      <trkpt lat="46.75239" lon="-1.49113">
        <ele>63</ele>
        <time>2024-04-25T19:00:56Z</time>
      </trkpt>
      <trkpt lat="46.75237" lon="-1.49113">
        <ele>63.2</ele>
        <time>2024-04-25T19:00:57Z</time>
      </trkpt>
      <trkpt lat="46.75234" lon="-1.49113">
        <ele>63.4</ele>
        <time>2024-04-25T19:00:58Z</time>
      </trkpt>
      <trkpt lat="46.75232" lon="-1.49113">
        <ele>63.6</ele>
        <time>2024-04-25T19:00:59Z</time>
      </trkpt>
      <trkpt lat="46.75229" lon="-1.49113">
        <ele>63.8</ele>
        <time>2024-04-25T19:01:00Z</time>
      </trkpt>
      <trkpt lat="46.75226" lon="-1.49113">
        <ele>63.8</ele>
        <time>2024-04-25T19:01:01Z</time>
      </trkpt>
      <trkpt lat="46.75224" lon="-1.49113">
        <ele>63.8</ele>
        <time>2024-04-25T19:01:02Z</time>
      </trkpt>
      <trkpt lat="46.75221" lon="-1.49114">
        <ele>64</ele>
        <time>2024-04-25T19:01:04Z</time>
      </trkpt>
      <trkpt lat="46.75218" lon="-1.49114">
        <ele>64</ele>
        <time>2024-04-25T19:01:05Z</time>
      </trkpt>
      <trkpt lat="46.75216" lon="-1.49115">
        <ele>64</ele>
        <time>2024-04-25T19:01:06Z</time>
      </trkpt>
      <trkpt lat="46.75213" lon="-1.49116">
        <ele>64.2</ele>
        <time>2024-04-25T19:01:07Z</time>
      </trkpt>
      <trkpt lat="46.7521" lon="-1.49117">
        <ele>64.2</ele>
        <time>2024-04-25T19:01:08Z</time>
      </trkpt>
      <trkpt lat="46.75207" lon="-1.49118">
        <ele>64.2</ele>
        <time>2024-04-25T19:01:09Z</time>
      </trkpt>
      <trkpt lat="46.75206" lon="-1.49118">
        <ele>64.4</ele>
        <time>2024-04-25T19:01:10Z</time>
      </trkpt>
      <trkpt lat="46.75203" lon="-1.49119">
        <ele>64.4</ele>
        <time>2024-04-25T19:01:11Z</time>
      </trkpt>
      <trkpt lat="46.75201" lon="-1.49121">
        <ele>64.6</ele>
        <time>2024-04-25T19:01:12Z</time>
      </trkpt>
      <trkpt lat="46.75198" lon="-1.49122">
        <ele>64.6</ele>
        <time>2024-04-25T19:01:13Z</time>
      </trkpt>
      <trkpt lat="46.75196" lon="-1.49124">
        <ele>64.6</ele>
        <time>2024-04-25T19:01:14Z</time>
      </trkpt>
      <trkpt lat="46.75194" lon="-1.49125">
        <ele>64.8</ele>
        <time>2024-04-25T19:01:15Z</time>
      </trkpt>
      <trkpt lat="46.75192" lon="-1.49127">
        <ele>64.8</ele>
        <time>2024-04-25T19:01:16Z</time>
      </trkpt>
      <trkpt lat="46.75189" lon="-1.49129">
        <ele>65</ele>
        <time>2024-04-25T19:01:17Z</time>
      </trkpt>
      <trkpt lat="46.75187" lon="-1.49132">
        <ele>65</ele>
        <time>2024-04-25T19:01:18Z</time>
      </trkpt>
      <trkpt lat="46.75185" lon="-1.49134">
        <ele>65.2</ele>
        <time>2024-04-25T19:01:19Z</time>
      </trkpt>
      <trkpt lat="46.75184" lon="-1.49136">
        <ele>65.2</ele>
        <time>2024-04-25T19:01:20Z</time>
      </trkpt>
      <trkpt lat="46.75182" lon="-1.49139">
        <ele>65.4</ele>
        <time>2024-04-25T19:01:21Z</time>
      </trkpt>
      <trkpt lat="46.75179" lon="-1.49142">
        <ele>65.4</ele>
        <time>2024-04-25T19:01:22Z</time>
      </trkpt>
      <trkpt lat="46.75178" lon="-1.49143">
        <ele>65.6</ele>
        <time>2024-04-25T19:01:23Z</time>
      </trkpt>
      <trkpt lat="46.75175" lon="-1.49144">
        <ele>65.6</ele>
        <time>2024-04-25T19:01:24Z</time>
      </trkpt>
      <trkpt lat="46.75173" lon="-1.49146">
        <ele>65.8</ele>
        <time>2024-04-25T19:01:25Z</time>
      </trkpt>
      <trkpt lat="46.75169" lon="-1.49149">
        <ele>66</ele>
        <time>2024-04-25T19:01:26Z</time>
      </trkpt>
      <trkpt lat="46.75168" lon="-1.4915">
        <ele>66</ele>
        <time>2024-04-25T19:01:27Z</time>
      </trkpt>
      <trkpt lat="46.75165" lon="-1.49151">
        <ele>66</ele>
        <time>2024-04-25T19:01:28Z</time>
      </trkpt>
      <trkpt lat="46.75163" lon="-1.49152">
        <ele>66</ele>
        <time>2024-04-25T19:01:29Z</time>
      </trkpt>
      <trkpt lat="46.75161" lon="-1.49153">
        <ele>66.2</ele>
        <time>2024-04-25T19:01:30Z</time>
      </trkpt>
      <trkpt lat="46.75161" lon="-1.49153">
        <ele>66.2</ele>
        <time>2024-04-25T19:01:31Z</time>
      </trkpt>
      <trkpt lat="46.7516" lon="-1.49153">
        <ele>66.2</ele>
        <time>2024-04-25T19:01:32Z</time>
      </trkpt>
      <trkpt lat="46.7516" lon="-1.49154">
        <ele>66.2</ele>
        <time>2024-04-25T19:01:33Z</time>
      </trkpt>
      <trkpt lat="46.75159" lon="-1.49155">
        <ele>66.2</ele>
        <time>2024-04-25T19:01:34Z</time>
      </trkpt>
      <trkpt lat="46.75158" lon="-1.49156">
        <ele>66.2</ele>
        <time>2024-04-25T19:01:35Z</time>
      </trkpt>
      <trkpt lat="46.75156" lon="-1.49159">
        <ele>66.2</ele>
        <time>2024-04-25T19:01:36Z</time>
      </trkpt>
      <trkpt lat="46.75155" lon="-1.4916">
        <ele>66.2</ele>
        <time>2024-04-25T19:01:37Z</time>
      </trkpt>
      <trkpt lat="46.75152" lon="-1.49163">
        <ele>66.2</ele>
        <time>2024-04-25T19:01:38Z</time>
      </trkpt>
      <trkpt lat="46.75151" lon="-1.49164">
        <ele>66.2</ele>
        <time>2024-04-25T19:01:39Z</time>
      </trkpt>
      <trkpt lat="46.75149" lon="-1.49165">
        <ele>66.2</ele>
        <time>2024-04-25T19:01:40Z</time>
      </trkpt>
      <trkpt lat="46.75147" lon="-1.49167">
        <ele>66.2</ele>
        <time>2024-04-25T19:01:41Z</time>
      </trkpt>
      <trkpt lat="46.75145" lon="-1.49169">
        <ele>66.2</ele>
        <time>2024-04-25T19:01:42Z</time>
      </trkpt>
      <trkpt lat="46.75143" lon="-1.4917">
        <ele>66.2</ele>
        <time>2024-04-25T19:01:43Z</time>
      </trkpt>
      <trkpt lat="46.75142" lon="-1.49172">
        <ele>66.2</ele>
        <time>2024-04-25T19:01:44Z</time>
      </trkpt>
      <trkpt lat="46.7514" lon="-1.49173">
        <ele>66</ele>
        <time>2024-04-25T19:01:45Z</time>
      </trkpt>
      <trkpt lat="46.75139" lon="-1.49175">
        <ele>66</ele>
        <time>2024-04-25T19:01:46Z</time>
      </trkpt>
      <trkpt lat="46.75138" lon="-1.49177">
        <ele>66</ele>
        <time>2024-04-25T19:01:47Z</time>
      </trkpt>
      <trkpt lat="46.75137" lon="-1.49179">
        <ele>66</ele>
        <time>2024-04-25T19:01:48Z</time>
      </trkpt>
      <trkpt lat="46.75136" lon="-1.4918">
        <ele>66</ele>
        <time>2024-04-25T19:01:49Z</time>
      </trkpt>
      <trkpt lat="46.75135" lon="-1.49182">
        <ele>66.2</ele>
        <time>2024-04-25T19:01:50Z</time>
      </trkpt>
      <trkpt lat="46.75133" lon="-1.49184">
        <ele>66.2</ele>
        <time>2024-04-25T19:01:51Z</time>
      </trkpt>
      <trkpt lat="46.75132" lon="-1.49185">
        <ele>66.2</ele>
        <time>2024-04-25T19:01:52Z</time>
      </trkpt>
      <trkpt lat="46.75131" lon="-1.49187">
        <ele>66.2</ele>
        <time>2024-04-25T19:01:53Z</time>
      </trkpt>
      <trkpt lat="46.7513" lon="-1.49189">
        <ele>66.2</ele>
        <time>2024-04-25T19:01:54Z</time>
      </trkpt>
      <trkpt lat="46.75129" lon="-1.49191">
        <ele>66.2</ele>
        <time>2024-04-25T19:01:55Z</time>
      </trkpt>
      <trkpt lat="46.75127" lon="-1.49192">
        <ele>66.2</ele>
        <time>2024-04-25T19:01:56Z</time>
      </trkpt>
      <trkpt lat="46.75126" lon="-1.49194">
        <ele>66.2</ele>
        <time>2024-04-25T19:01:57Z</time>
      </trkpt>
      <trkpt lat="46.75124" lon="-1.49196">
        <ele>66.2</ele>
        <time>2024-04-25T19:01:58Z</time>
      </trkpt>
      <trkpt lat="46.75123" lon="-1.49198">
        <ele>66.2</ele>
        <time>2024-04-25T19:01:59Z</time>
      </trkpt>
      <trkpt lat="46.75122" lon="-1.492">
        <ele>66.2</ele>
        <time>2024-04-25T19:02:00Z</time>
      </trkpt>
      <trkpt lat="46.7512" lon="-1.49202">
        <ele>66.2</ele>
        <time>2024-04-25T19:02:01Z</time>
      </trkpt>
      <trkpt lat="46.75119" lon="-1.49203">
        <ele>66.2</ele>
        <time>2024-04-25T19:02:02Z</time>
      </trkpt>
      <trkpt lat="46.75118" lon="-1.49205">
        <ele>66.2</ele>
        <time>2024-04-25T19:02:03Z</time>
      </trkpt>
      <trkpt lat="46.75116" lon="-1.49207">
        <ele>66.2</ele>
        <time>2024-04-25T19:02:04Z</time>
      </trkpt>
      <trkpt lat="46.75115" lon="-1.49209">
        <ele>66.2</ele>
        <time>2024-04-25T19:02:05Z</time>
      </trkpt>
      <trkpt lat="46.75114" lon="-1.49211">
        <ele>66.2</ele>
        <time>2024-04-25T19:02:06Z</time>
      </trkpt>
      <trkpt lat="46.75111" lon="-1.49213">
        <ele>66.2</ele>
        <time>2024-04-25T19:02:07Z</time>
      </trkpt>
      <trkpt lat="46.75109" lon="-1.49216">
        <ele>66.2</ele>
        <time>2024-04-25T19:02:08Z</time>
      </trkpt>
      <trkpt lat="46.75107" lon="-1.49218">
        <ele>66.2</ele>
        <time>2024-04-25T19:02:09Z</time>
      </trkpt>
      <trkpt lat="46.75106" lon="-1.49219">
        <ele>66.2</ele>
        <time>2024-04-25T19:02:10Z</time>
      </trkpt>
      <trkpt lat="46.75104" lon="-1.49221">
        <ele>66.2</ele>
        <time>2024-04-25T19:02:11Z</time>
      </trkpt>
      <trkpt lat="46.75103" lon="-1.49222">
        <ele>66.2</ele>
        <time>2024-04-25T19:02:12Z</time>
      </trkpt>
      <trkpt lat="46.75101" lon="-1.49224">
        <ele>66.2</ele>
        <time>2024-04-25T19:02:13Z</time>
      </trkpt>
      <trkpt lat="46.75099" lon="-1.49225">
        <ele>66.2</ele>
        <time>2024-04-25T19:02:14Z</time>
      </trkpt>
      <trkpt lat="46.75097" lon="-1.49227">
        <ele>66.2</ele>
        <time>2024-04-25T19:02:15Z</time>
      </trkpt>
      <trkpt lat="46.75096" lon="-1.49228">
        <ele>66.2</ele>
        <time>2024-04-25T19:02:16Z</time>
      </trkpt>
      <trkpt lat="46.75094" lon="-1.49229">
        <ele>66.2</ele>
        <time>2024-04-25T19:02:17Z</time>
      </trkpt>
      <trkpt lat="46.75092" lon="-1.4923">
        <ele>66.2</ele>
        <time>2024-04-25T19:02:18Z</time>
      </trkpt>
      <trkpt lat="46.7509" lon="-1.49232">
        <ele>66.2</ele>
        <time>2024-04-25T19:02:19Z</time>
      </trkpt>
      <trkpt lat="46.75088" lon="-1.49233">
        <ele>66.2</ele>
        <time>2024-04-25T19:02:20Z</time>
      </trkpt>
      <trkpt lat="46.75087" lon="-1.49234">
        <ele>66.2</ele>
        <time>2024-04-25T19:02:21Z</time>
      </trkpt>
      <trkpt lat="46.75086" lon="-1.49234">
        <ele>66.2</ele>
        <time>2024-04-25T19:02:22Z</time>
      </trkpt>
      <trkpt lat="46.75085" lon="-1.49234">
        <ele>66.2</ele>
        <time>2024-04-25T19:02:23Z</time>
      </trkpt>
      <trkpt lat="46.75084" lon="-1.49234">
        <ele>66.2</ele>
        <time>2024-04-25T19:02:24Z</time>
      </trkpt>
      <trkpt lat="46.75082" lon="-1.49235">
        <ele>66.2</ele>
        <time>2024-04-25T19:02:25Z</time>
      </trkpt>
      <trkpt lat="46.75081" lon="-1.49236">
        <ele>66.2</ele>
        <time>2024-04-25T19:02:26Z</time>
      </trkpt>
      <trkpt lat="46.75079" lon="-1.49236">
        <ele>66.2</ele>
        <time>2024-04-25T19:02:27Z</time>
      </trkpt>
      <trkpt lat="46.75078" lon="-1.49237">
        <ele>66.2</ele>
        <time>2024-04-25T19:02:28Z</time>
      </trkpt>
      <trkpt lat="46.75076" lon="-1.49237">
        <ele>66.2</ele>
        <time>2024-04-25T19:02:29Z</time>
      </trkpt>
      <trkpt lat="46.75074" lon="-1.49238">
        <ele>66.2</ele>
        <time>2024-04-25T19:02:31Z</time>
      </trkpt>
      <trkpt lat="46.75073" lon="-1.49239">
        <ele>66.4</ele>
        <time>2024-04-25T19:02:32Z</time>
      </trkpt>
      <trkpt lat="46.75071" lon="-1.4924">
        <ele>66.4</ele>
        <time>2024-04-25T19:02:33Z</time>
      </trkpt>
      <trkpt lat="46.75069" lon="-1.4924">
        <ele>66.4</ele>
        <time>2024-04-25T19:02:34Z</time>
      </trkpt>
      <trkpt lat="46.75067" lon="-1.49241">
        <ele>66.4</ele>
        <time>2024-04-25T19:02:35Z</time>
      </trkpt>
      <trkpt lat="46.75066" lon="-1.49241">
        <ele>66.4</ele>
        <time>2024-04-25T19:02:36Z</time>
      </trkpt>
      <trkpt lat="46.75064" lon="-1.49242">
        <ele>66.4</ele>
        <time>2024-04-25T19:02:37Z</time>
      </trkpt>
      <trkpt lat="46.75062" lon="-1.49242">
        <ele>66.4</ele>
        <time>2024-04-25T19:02:38Z</time>
      </trkpt>
      <trkpt lat="46.7506" lon="-1.49243">
        <ele>66.4</ele>
        <time>2024-04-25T19:02:39Z</time>
      </trkpt>
      <trkpt lat="46.75059" lon="-1.49243">
        <ele>66.4</ele>
        <time>2024-04-25T19:02:40Z</time>
      </trkpt>
      <trkpt lat="46.75057" lon="-1.49243">
        <ele>66.4</ele>
        <time>2024-04-25T19:02:41Z</time>
      </trkpt>
      <trkpt lat="46.75055" lon="-1.49243">
        <ele>66.4</ele>
        <time>2024-04-25T19:02:42Z</time>
      </trkpt>
      <trkpt lat="46.75053" lon="-1.49244">
        <ele>66.4</ele>
        <time>2024-04-25T19:02:43Z</time>
      </trkpt>
      <trkpt lat="46.75051" lon="-1.49244">
        <ele>66.4</ele>
        <time>2024-04-25T19:02:44Z</time>
      </trkpt>
      <trkpt lat="46.75049" lon="-1.49244">
        <ele>66.4</ele>
        <time>2024-04-25T19:02:45Z</time>
      </trkpt>
      <trkpt lat="46.75047" lon="-1.49244">
        <ele>66.4</ele>
        <time>2024-04-25T19:02:46Z</time>
      </trkpt>
      <trkpt lat="46.75045" lon="-1.49245">
        <ele>66.4</ele>
        <time>2024-04-25T19:02:47Z</time>
      </trkpt>
      <trkpt lat="46.75043" lon="-1.49245">
        <ele>66.4</ele>
        <time>2024-04-25T19:02:48Z</time>
      </trkpt>
      <trkpt lat="46.75041" lon="-1.49245">
        <ele>66.4</ele>
        <time>2024-04-25T19:02:49Z</time>
      </trkpt>
      <trkpt lat="46.75039" lon="-1.49246">
        <ele>66.4</ele>
        <time>2024-04-25T19:02:50Z</time>
      </trkpt>
      <trkpt lat="46.75037" lon="-1.49246">
        <ele>66.4</ele>
        <time>2024-04-25T19:02:51Z</time>
      </trkpt>
      <trkpt lat="46.75034" lon="-1.49246">
        <ele>66.4</ele>
        <time>2024-04-25T19:02:52Z</time>
      </trkpt>
      <trkpt lat="46.75032" lon="-1.49247">
        <ele>66.4</ele>
        <time>2024-04-25T19:02:53Z</time>
      </trkpt>
      <trkpt lat="46.75029" lon="-1.49247">
        <ele>66.4</ele>
        <time>2024-04-25T19:02:54Z</time>
      </trkpt>
      <trkpt lat="46.75027" lon="-1.49247">
        <ele>66.4</ele>
        <time>2024-04-25T19:02:55Z</time>
      </trkpt>
      <trkpt lat="46.75024" lon="-1.49247">
        <ele>66.4</ele>
        <time>2024-04-25T19:02:56Z</time>
      </trkpt>
      <trkpt lat="46.75021" lon="-1.49248">
        <ele>66.4</ele>
        <time>2024-04-25T19:02:57Z</time>
      </trkpt>
      <trkpt lat="46.75019" lon="-1.49248">
        <ele>66.4</ele>
        <time>2024-04-25T19:02:58Z</time>
      </trkpt>
      <trkpt lat="46.75016" lon="-1.49248">
        <ele>66.4</ele>
        <time>2024-04-25T19:02:59Z</time>
      </trkpt>
      <trkpt lat="46.75013" lon="-1.49248">
        <ele>66.4</ele>
        <time>2024-04-25T19:03:00Z</time>
      </trkpt>
      <trkpt lat="46.75011" lon="-1.49248">
        <ele>66.2</ele>
        <time>2024-04-25T19:03:01Z</time>
      </trkpt>
      <trkpt lat="46.75008" lon="-1.49249">
        <ele>66.2</ele>
        <time>2024-04-25T19:03:02Z</time>
      </trkpt>
      <trkpt lat="46.75006" lon="-1.49249">
        <ele>66.2</ele>
        <time>2024-04-25T19:03:03Z</time>
      </trkpt>
      <trkpt lat="46.75003" lon="-1.49249">
        <ele>66.4</ele>
        <time>2024-04-25T19:03:04Z</time>
      </trkpt>
      <trkpt lat="46.75" lon="-1.4925">
        <ele>66.4</ele>
        <time>2024-04-25T19:03:05Z</time>
      </trkpt>
      <trkpt lat="46.74998" lon="-1.4925">
        <ele>66.4</ele>
        <time>2024-04-25T19:03:06Z</time>
      </trkpt>
      <trkpt lat="46.74995" lon="-1.4925">
        <ele>66.2</ele>
        <time>2024-04-25T19:03:07Z</time>
      </trkpt>
      <trkpt lat="46.74992" lon="-1.4925">
        <ele>66.2</ele>
        <time>2024-04-25T19:03:08Z</time>
      </trkpt>
      <trkpt lat="46.74988" lon="-1.4925">
        <ele>66.2</ele>
        <time>2024-04-25T19:03:09Z</time>
      </trkpt>
      <trkpt lat="46.74985" lon="-1.49251">
        <ele>66.2</ele>
        <time>2024-04-25T19:03:10Z</time>
      </trkpt>
      <trkpt lat="46.74981" lon="-1.49251">
        <ele>66.2</ele>
        <time>2024-04-25T19:03:11Z</time>
      </trkpt>
      <trkpt lat="46.74977" lon="-1.49251">
        <ele>66.2</ele>
        <time>2024-04-25T19:03:12Z</time>
      </trkpt>
      <trkpt lat="46.74973" lon="-1.49252">
        <ele>66.2</ele>
        <time>2024-04-25T19:03:13Z</time>
      </trkpt>
      <trkpt lat="46.74967" lon="-1.49252">
        <ele>66.2</ele>
        <time>2024-04-25T19:03:14Z</time>
      </trkpt>
      <trkpt lat="46.74965" lon="-1.49252">
        <ele>66.2</ele>
        <time>2024-04-25T19:03:15Z</time>
      </trkpt>
      <trkpt lat="46.74961" lon="-1.49253">
        <ele>66.2</ele>
        <time>2024-04-25T19:03:16Z</time>
      </trkpt>
      <trkpt lat="46.74956" lon="-1.49253">
        <ele>66.2</ele>
        <time>2024-04-25T19:03:17Z</time>
      </trkpt>
      <trkpt lat="46.74952" lon="-1.49253">
        <ele>66</ele>
        <time>2024-04-25T19:03:18Z</time>
      </trkpt>
      <trkpt lat="46.74947" lon="-1.49254">
        <ele>66</ele>
        <time>2024-04-25T19:03:19Z</time>
      </trkpt>
      <trkpt lat="46.74943" lon="-1.49254">
        <ele>66</ele>
        <time>2024-04-25T19:03:20Z</time>
      </trkpt>
      <trkpt lat="46.74938" lon="-1.49255">
        <ele>66.2</ele>
        <time>2024-04-25T19:03:21Z</time>
      </trkpt>
      <trkpt lat="46.74934" lon="-1.49256">
        <ele>66.2</ele>
        <time>2024-04-25T19:03:22Z</time>
      </trkpt>
      <trkpt lat="46.7493" lon="-1.49256">
        <ele>66.2</ele>
        <time>2024-04-25T19:03:23Z</time>
      </trkpt>
      <trkpt lat="46.74925" lon="-1.49257">
        <ele>66.2</ele>
        <time>2024-04-25T19:03:24Z</time>
      </trkpt>
      <trkpt lat="46.74921" lon="-1.49257">
        <ele>66.2</ele>
        <time>2024-04-25T19:03:25Z</time>
      </trkpt>
      <trkpt lat="46.74916" lon="-1.49258">
        <ele>66.2</ele>
        <time>2024-04-25T19:03:26Z</time>
      </trkpt>
      <trkpt lat="46.74912" lon="-1.49258">
        <ele>66.2</ele>
        <time>2024-04-25T19:03:27Z</time>
      </trkpt>
      <trkpt lat="46.74907" lon="-1.49259">
        <ele>66.2</ele>
        <time>2024-04-25T19:03:28Z</time>
      </trkpt>
      <trkpt lat="46.74903" lon="-1.49259">
        <ele>66.4</ele>
        <time>2024-04-25T19:03:29Z</time>
      </trkpt>
      <trkpt lat="46.74899" lon="-1.49259">
        <ele>66.4</ele>
        <time>2024-04-25T19:03:30Z</time>
      </trkpt>
      <trkpt lat="46.74895" lon="-1.49258">
        <ele>66.6</ele>
        <time>2024-04-25T19:03:31Z</time>
      </trkpt>
      <trkpt lat="46.7489" lon="-1.49257">
        <ele>66.6</ele>
        <time>2024-04-25T19:03:32Z</time>
      </trkpt>
      <trkpt lat="46.74885" lon="-1.49255">
        <ele>66.6</ele>
        <time>2024-04-25T19:03:33Z</time>
      </trkpt>
      <trkpt lat="46.7488" lon="-1.49254">
        <ele>66.6</ele>
        <time>2024-04-25T19:03:34Z</time>
      </trkpt>
      <trkpt lat="46.74876" lon="-1.49253">
        <ele>66.6</ele>
        <time>2024-04-25T19:03:35Z</time>
      </trkpt>
      <trkpt lat="46.74873" lon="-1.49252">
        <ele>66.6</ele>
        <time>2024-04-25T19:03:36Z</time>
      </trkpt>
      <trkpt lat="46.74869" lon="-1.49252">
        <ele>66.6</ele>
        <time>2024-04-25T19:03:37Z</time>
      </trkpt>
      <trkpt lat="46.74866" lon="-1.49251">
        <ele>66.6</ele>
        <time>2024-04-25T19:03:38Z</time>
      </trkpt>
      <trkpt lat="46.74862" lon="-1.4925">
        <ele>66.6</ele>
        <time>2024-04-25T19:03:39Z</time>
      </trkpt>
      <trkpt lat="46.74859" lon="-1.4925">
        <ele>66.4</ele>
        <time>2024-04-25T19:03:40Z</time>
      </trkpt>
      <trkpt lat="46.74856" lon="-1.49249">
        <ele>66.4</ele>
        <time>2024-04-25T19:03:41Z</time>
      </trkpt>
      <trkpt lat="46.74853" lon="-1.49249">
        <ele>66.4</ele>
        <time>2024-04-25T19:03:42Z</time>
      </trkpt>
      <trkpt lat="46.74849" lon="-1.49248">
        <ele>66.4</ele>
        <time>2024-04-25T19:03:43Z</time>
      </trkpt>
      <trkpt lat="46.74846" lon="-1.49248">
        <ele>66.2</ele>
        <time>2024-04-25T19:03:44Z</time>
      </trkpt>
      <trkpt lat="46.74842" lon="-1.49247">
        <ele>66.2</ele>
        <time>2024-04-25T19:03:45Z</time>
      </trkpt>
      <trkpt lat="46.74839" lon="-1.49247">
        <ele>66.2</ele>
        <time>2024-04-25T19:03:46Z</time>
      </trkpt>
      <trkpt lat="46.74835" lon="-1.49246">
        <ele>66</ele>
        <time>2024-04-25T19:03:47Z</time>
      </trkpt>
      <trkpt lat="46.74831" lon="-1.49246">
        <ele>66</ele>
        <time>2024-04-25T19:03:48Z</time>
      </trkpt>
      <trkpt lat="46.74828" lon="-1.49246">
        <ele>66</ele>
        <time>2024-04-25T19:03:49Z</time>
      </trkpt>
      <trkpt lat="46.74824" lon="-1.49245">
        <ele>66</ele>
        <time>2024-04-25T19:03:50Z</time>
      </trkpt>
      <trkpt lat="46.74821" lon="-1.49245">
        <ele>66</ele>
        <time>2024-04-25T19:03:51Z</time>
      </trkpt>
      <trkpt lat="46.74817" lon="-1.49244">
        <ele>66</ele>
        <time>2024-04-25T19:03:52Z</time>
      </trkpt>
      <trkpt lat="46.74813" lon="-1.49244">
        <ele>66</ele>
        <time>2024-04-25T19:03:53Z</time>
      </trkpt>
      <trkpt lat="46.7481" lon="-1.49244">
        <ele>66</ele>
        <time>2024-04-25T19:03:54Z</time>
      </trkpt>
      <trkpt lat="46.74806" lon="-1.49244">
        <ele>65.8</ele>
        <time>2024-04-25T19:03:55Z</time>
      </trkpt>
      <trkpt lat="46.74802" lon="-1.49244">
        <ele>65.8</ele>
        <time>2024-04-25T19:03:56Z</time>
      </trkpt>
      <trkpt lat="46.74799" lon="-1.49244">
        <ele>65.6</ele>
        <time>2024-04-25T19:03:58Z</time>
      </trkpt>
      <trkpt lat="46.74795" lon="-1.49244">
        <ele>65.6</ele>
        <time>2024-04-25T19:03:59Z</time>
      </trkpt>
      <trkpt lat="46.74791" lon="-1.49245">
        <ele>65.4</ele>
        <time>2024-04-25T19:04:00Z</time>
      </trkpt>
      <trkpt lat="46.74787" lon="-1.49246">
        <ele>65.4</ele>
        <time>2024-04-25T19:04:01Z</time>
      </trkpt>
      <trkpt lat="46.74784" lon="-1.49248">
        <ele>65.4</ele>
        <time>2024-04-25T19:04:02Z</time>
      </trkpt>
      <trkpt lat="46.7478" lon="-1.49251">
        <ele>65.4</ele>
        <time>2024-04-25T19:04:03Z</time>
      </trkpt>
      <trkpt lat="46.74777" lon="-1.49254">
        <ele>65.4</ele>
        <time>2024-04-25T19:04:04Z</time>
      </trkpt>
      <trkpt lat="46.74774" lon="-1.49258">
        <ele>65.4</ele>
        <time>2024-04-25T19:04:05Z</time>
      </trkpt>
      <trkpt lat="46.74772" lon="-1.49262">
        <ele>65.4</ele>
        <time>2024-04-25T19:04:06Z</time>
      </trkpt>
      <trkpt lat="46.74769" lon="-1.49267">
        <ele>65.4</ele>
        <time>2024-04-25T19:04:07Z</time>
      </trkpt>
      <trkpt lat="46.74766" lon="-1.49271">
        <ele>65.2</ele>
        <time>2024-04-25T19:04:08Z</time>
      </trkpt>
      <trkpt lat="46.74764" lon="-1.49276">
        <ele>65.2</ele>
        <time>2024-04-25T19:04:09Z</time>
      </trkpt>
      <trkpt lat="46.74761" lon="-1.4928">
        <ele>65.2</ele>
        <time>2024-04-25T19:04:10Z</time>
      </trkpt>
      <trkpt lat="46.74757" lon="-1.49287">
        <ele>65</ele>
        <time>2024-04-25T19:04:11Z</time>
      </trkpt>
      <trkpt lat="46.74756" lon="-1.49289">
        <ele>65.2</ele>
        <time>2024-04-25T19:04:12Z</time>
      </trkpt>
      <trkpt lat="46.74753" lon="-1.49294">
        <ele>65.2</ele>
        <time>2024-04-25T19:04:13Z</time>
      </trkpt>
      <trkpt lat="46.74751" lon="-1.49298">
        <ele>65.2</ele>
        <time>2024-04-25T19:04:14Z</time>
      </trkpt>
      <trkpt lat="46.74747" lon="-1.49302">
        <ele>65.2</ele>
        <time>2024-04-25T19:04:15Z</time>
      </trkpt>
      <trkpt lat="46.74744" lon="-1.49305">
        <ele>65.2</ele>
        <time>2024-04-25T19:04:16Z</time>
      </trkpt>
      <trkpt lat="46.74738" lon="-1.49308">
        <ele>65</ele>
        <time>2024-04-25T19:04:17Z</time>
      </trkpt>
      <trkpt lat="46.74736" lon="-1.49309">
        <ele>65</ele>
        <time>2024-04-25T19:04:18Z</time>
      </trkpt>
      <trkpt lat="46.74729" lon="-1.49312">
        <ele>65</ele>
        <time>2024-04-25T19:04:19Z</time>
      </trkpt>
      <trkpt lat="46.74727" lon="-1.49312">
        <ele>65</ele>
        <time>2024-04-25T19:04:20Z</time>
      </trkpt>
      <trkpt lat="46.74723" lon="-1.49314">
        <ele>65</ele>
        <time>2024-04-25T19:04:21Z</time>
      </trkpt>
      <trkpt lat="46.74719" lon="-1.49315">
        <ele>64.8</ele>
        <time>2024-04-25T19:04:22Z</time>
      </trkpt>
      <trkpt lat="46.74715" lon="-1.49316">
        <ele>64.8</ele>
        <time>2024-04-25T19:04:23Z</time>
      </trkpt>
      <trkpt lat="46.74711" lon="-1.49317">
        <ele>65</ele>
        <time>2024-04-25T19:04:24Z</time>
      </trkpt>
      <trkpt lat="46.74707" lon="-1.49318">
        <ele>65</ele>
        <time>2024-04-25T19:04:25Z</time>
      </trkpt>
      <trkpt lat="46.74701" lon="-1.4932">
        <ele>65</ele>
        <time>2024-04-25T19:04:26Z</time>
      </trkpt>
      <trkpt lat="46.74699" lon="-1.49321">
        <ele>65.2</ele>
        <time>2024-04-25T19:04:27Z</time>
      </trkpt>
      <trkpt lat="46.74696" lon="-1.49324">
        <ele>65.2</ele>
        <time>2024-04-25T19:04:28Z</time>
      </trkpt>
      <trkpt lat="46.74692" lon="-1.49328">
        <ele>65.2</ele>
        <time>2024-04-25T19:04:29Z</time>
      </trkpt>
      <trkpt lat="46.74689" lon="-1.49332">
        <ele>65.2</ele>
        <time>2024-04-25T19:04:30Z</time>
      </trkpt>
      <trkpt lat="46.74686" lon="-1.49336">
        <ele>65</ele>
        <time>2024-04-25T19:04:31Z</time>
      </trkpt>
      <trkpt lat="46.74681" lon="-1.49343">
        <ele>65.2</ele>
        <time>2024-04-25T19:04:32Z</time>
      </trkpt>
      <trkpt lat="46.7468" lon="-1.49345">
        <ele>65.2</ele>
        <time>2024-04-25T19:04:33Z</time>
      </trkpt>
      <trkpt lat="46.74677" lon="-1.49349">
        <ele>65.4</ele>
        <time>2024-04-25T19:04:34Z</time>
      </trkpt>
      <trkpt lat="46.74674" lon="-1.49353">
        <ele>65.4</ele>
        <time>2024-04-25T19:04:35Z</time>
      </trkpt>
      <trkpt lat="46.7467" lon="-1.49358">
        <ele>65.2</ele>
        <time>2024-04-25T19:04:36Z</time>
      </trkpt>
      <trkpt lat="46.74667" lon="-1.49362">
        <ele>65.2</ele>
        <time>2024-04-25T19:04:37Z</time>
      </trkpt>
      <trkpt lat="46.74663" lon="-1.49365">
        <ele>65.2</ele>
        <time>2024-04-25T19:04:38Z</time>
      </trkpt>
      <trkpt lat="46.74659" lon="-1.49369">
        <ele>65.2</ele>
        <time>2024-04-25T19:04:39Z</time>
      </trkpt>
      <trkpt lat="46.74655" lon="-1.49373">
        <ele>65</ele>
        <time>2024-04-25T19:04:40Z</time>
      </trkpt>
      <trkpt lat="46.74651" lon="-1.49376">
        <ele>65</ele>
        <time>2024-04-25T19:04:41Z</time>
      </trkpt>
      <trkpt lat="46.74647" lon="-1.4938">
        <ele>65</ele>
        <time>2024-04-25T19:04:42Z</time>
      </trkpt>
      <trkpt lat="46.7464" lon="-1.49384">
        <ele>64.8</ele>
        <time>2024-04-25T19:04:43Z</time>
      </trkpt>
      <trkpt lat="46.74637" lon="-1.49385">
        <ele>64.8</ele>
        <time>2024-04-25T19:04:44Z</time>
      </trkpt>
      <trkpt lat="46.74633" lon="-1.49387">
        <ele>64.8</ele>
        <time>2024-04-25T19:04:45Z</time>
      </trkpt>
      <trkpt lat="46.74628" lon="-1.49389">
        <ele>64.8</ele>
        <time>2024-04-25T19:04:46Z</time>
      </trkpt>
      <trkpt lat="46.74624" lon="-1.49391">
        <ele>64.8</ele>
        <time>2024-04-25T19:04:47Z</time>
      </trkpt>
      <trkpt lat="46.74619" lon="-1.49393">
        <ele>64.8</ele>
        <time>2024-04-25T19:04:48Z</time>
      </trkpt>
      <trkpt lat="46.74615" lon="-1.49394">
        <ele>64.8</ele>
        <time>2024-04-25T19:04:49Z</time>
      </trkpt>
      <trkpt lat="46.7461" lon="-1.49394">
        <ele>64.8</ele>
        <time>2024-04-25T19:04:50Z</time>
      </trkpt>
      <trkpt lat="46.74606" lon="-1.49394">
        <ele>65</ele>
        <time>2024-04-25T19:04:51Z</time>
      </trkpt>
      <trkpt lat="46.74601" lon="-1.49395">
        <ele>65</ele>
        <time>2024-04-25T19:04:52Z</time>
      </trkpt>
      <trkpt lat="46.74597" lon="-1.49395">
        <ele>65</ele>
        <time>2024-04-25T19:04:53Z</time>
      </trkpt>
      <trkpt lat="46.74592" lon="-1.49394">
        <ele>65</ele>
        <time>2024-04-25T19:04:54Z</time>
      </trkpt>
      <trkpt lat="46.74588" lon="-1.49394">
        <ele>65</ele>
        <time>2024-04-25T19:04:55Z</time>
      </trkpt>
      <trkpt lat="46.74584" lon="-1.49393">
        <ele>65.2</ele>
        <time>2024-04-25T19:04:56Z</time>
      </trkpt>
      <trkpt lat="46.74579" lon="-1.49392">
        <ele>65.2</ele>
        <time>2024-04-25T19:04:57Z</time>
      </trkpt>
      <trkpt lat="46.74575" lon="-1.49391">
        <ele>65.4</ele>
        <time>2024-04-25T19:04:58Z</time>
      </trkpt>
      <trkpt lat="46.74568" lon="-1.49388">
        <ele>65.4</ele>
        <time>2024-04-25T19:04:59Z</time>
      </trkpt>
      <trkpt lat="46.74562" lon="-1.49386">
        <ele>65.6</ele>
        <time>2024-04-25T19:05:00Z</time>
      </trkpt>
      <trkpt lat="46.74557" lon="-1.49385">
        <ele>65.8</ele>
        <time>2024-04-25T19:05:01Z</time>
      </trkpt>
      <trkpt lat="46.74553" lon="-1.49383">
        <ele>66</ele>
        <time>2024-04-25T19:05:02Z</time>
      </trkpt>
      <trkpt lat="46.74548" lon="-1.49381">
        <ele>66</ele>
        <time>2024-04-25T19:05:03Z</time>
      </trkpt>
      <trkpt lat="46.74544" lon="-1.4938">
        <ele>66.4</ele>
        <time>2024-04-25T19:05:04Z</time>
      </trkpt>
      <trkpt lat="46.7454" lon="-1.49378">
        <ele>66.4</ele>
        <time>2024-04-25T19:05:05Z</time>
      </trkpt>
      <trkpt lat="46.74537" lon="-1.49376">
        <ele>66.6</ele>
        <time>2024-04-25T19:05:06Z</time>
      </trkpt>
      <trkpt lat="46.74533" lon="-1.49374">
        <ele>66.8</ele>
        <time>2024-04-25T19:05:07Z</time>
      </trkpt>
      <trkpt lat="46.74529" lon="-1.49373">
        <ele>67</ele>
        <time>2024-04-25T19:05:08Z</time>
      </trkpt>
      <trkpt lat="46.74525" lon="-1.49371">
        <ele>67.2</ele>
        <time>2024-04-25T19:05:09Z</time>
      </trkpt>
      <trkpt lat="46.74521" lon="-1.49369">
        <ele>67.2</ele>
        <time>2024-04-25T19:05:10Z</time>
      </trkpt>
      <trkpt lat="46.74517" lon="-1.49367">
        <ele>67.4</ele>
        <time>2024-04-25T19:05:11Z</time>
      </trkpt>
      <trkpt lat="46.74513" lon="-1.49366">
        <ele>67.6</ele>
        <time>2024-04-25T19:05:12Z</time>
      </trkpt>
      <trkpt lat="46.74509" lon="-1.49364">
        <ele>67.8</ele>
        <time>2024-04-25T19:05:13Z</time>
      </trkpt>
      <trkpt lat="46.74505" lon="-1.49362">
        <ele>67.8</ele>
        <time>2024-04-25T19:05:14Z</time>
      </trkpt>
      <trkpt lat="46.74501" lon="-1.49361">
        <ele>68</ele>
        <time>2024-04-25T19:05:15Z</time>
      </trkpt>
      <trkpt lat="46.74497" lon="-1.49359">
        <ele>68.2</ele>
        <time>2024-04-25T19:05:16Z</time>
      </trkpt>
      <trkpt lat="46.74493" lon="-1.49358">
        <ele>68.4</ele>
        <time>2024-04-25T19:05:17Z</time>
      </trkpt>
      <trkpt lat="46.74489" lon="-1.49356">
        <ele>68.6</ele>
        <time>2024-04-25T19:05:18Z</time>
      </trkpt>
      <trkpt lat="46.74486" lon="-1.49354">
        <ele>68.6</ele>
        <time>2024-04-25T19:05:19Z</time>
      </trkpt>
      <trkpt lat="46.74482" lon="-1.49352">
        <ele>68.8</ele>
        <time>2024-04-25T19:05:20Z</time>
      </trkpt>
      <trkpt lat="46.74479" lon="-1.49349">
        <ele>69</ele>
        <time>2024-04-25T19:05:21Z</time>
      </trkpt>
      <trkpt lat="46.74477" lon="-1.49346">
        <ele>69.4</ele>
        <time>2024-04-25T19:05:22Z</time>
      </trkpt>
      <trkpt lat="46.74476" lon="-1.49341">
        <ele>69.6</ele>
        <time>2024-04-25T19:05:24Z</time>
      </trkpt>
      <trkpt lat="46.74476" lon="-1.49336">
        <ele>69.8</ele>
        <time>2024-04-25T19:05:25Z</time>
      </trkpt>
      <trkpt lat="46.74478" lon="-1.49331">
        <ele>69.8</ele>
        <time>2024-04-25T19:05:26Z</time>
      </trkpt>
      <trkpt lat="46.74479" lon="-1.49325">
        <ele>70</ele>
        <time>2024-04-25T19:05:27Z</time>
      </trkpt>
      <trkpt lat="46.74482" lon="-1.4932">
        <ele>70</ele>
        <time>2024-04-25T19:05:28Z</time>
      </trkpt>
      <trkpt lat="46.74484" lon="-1.49315">
        <ele>70</ele>
        <time>2024-04-25T19:05:29Z</time>
      </trkpt>
      <trkpt lat="46.74486" lon="-1.49311">
        <ele>70</ele>
        <time>2024-04-25T19:05:30Z</time>
      </trkpt>
      <trkpt lat="46.74488" lon="-1.49306">
        <ele>70</ele>
        <time>2024-04-25T19:05:31Z</time>
      </trkpt>
      <trkpt lat="46.7449" lon="-1.49301">
        <ele>70</ele>
        <time>2024-04-25T19:05:32Z</time>
      </trkpt>
      <trkpt lat="46.74492" lon="-1.49294">
        <ele>70</ele>
        <time>2024-04-25T19:05:33Z</time>
      </trkpt>
      <trkpt lat="46.74493" lon="-1.49292">
        <ele>70</ele>
        <time>2024-04-25T19:05:34Z</time>
      </trkpt>
      <trkpt lat="46.74495" lon="-1.49287">
        <ele>70</ele>
        <time>2024-04-25T19:05:35Z</time>
      </trkpt>
      <trkpt lat="46.74497" lon="-1.49282">
        <ele>70.2</ele>
        <time>2024-04-25T19:05:36Z</time>
      </trkpt>
      <trkpt lat="46.74498" lon="-1.49277">
        <ele>70.2</ele>
        <time>2024-04-25T19:05:37Z</time>
      </trkpt>
      <trkpt lat="46.74499" lon="-1.49272">
        <ele>70</ele>
        <time>2024-04-25T19:05:38Z</time>
      </trkpt>
      <trkpt lat="46.745" lon="-1.49267">
        <ele>70</ele>
        <time>2024-04-25T19:05:39Z</time>
      </trkpt>
      <trkpt lat="46.74499" lon="-1.49262">
        <ele>70</ele>
        <time>2024-04-25T19:05:40Z</time>
      </trkpt>
      <trkpt lat="46.74498" lon="-1.49258">
        <ele>70</ele>
        <time>2024-04-25T19:05:41Z</time>
      </trkpt>
      <trkpt lat="46.74495" lon="-1.49254">
        <ele>70</ele>
        <time>2024-04-25T19:05:42Z</time>
      </trkpt>
      <trkpt lat="46.74492" lon="-1.49251">
        <ele>70</ele>
        <time>2024-04-25T19:05:43Z</time>
      </trkpt>
      <trkpt lat="46.74488" lon="-1.49248">
        <ele>70</ele>
        <time>2024-04-25T19:05:44Z</time>
      </trkpt>
      <trkpt lat="46.74484" lon="-1.49246">
        <ele>70</ele>
        <time>2024-04-25T19:05:45Z</time>
      </trkpt>
      <trkpt lat="46.7448" lon="-1.49244">
        <ele>70.2</ele>
        <time>2024-04-25T19:05:46Z</time>
      </trkpt>
      <trkpt lat="46.74476" lon="-1.49242">
        <ele>70.2</ele>
        <time>2024-04-25T19:05:47Z</time>
      </trkpt>
      <trkpt lat="46.74472" lon="-1.4924">
        <ele>70.2</ele>
        <time>2024-04-25T19:05:48Z</time>
      </trkpt>
      <trkpt lat="46.74466" lon="-1.49237">
        <ele>70.2</ele>
        <time>2024-04-25T19:05:49Z</time>
      </trkpt>
      <trkpt lat="46.74463" lon="-1.49235">
        <ele>70.2</ele>
        <time>2024-04-25T19:05:50Z</time>
      </trkpt>
      <trkpt lat="46.74459" lon="-1.49233">
        <ele>70.2</ele>
        <time>2024-04-25T19:05:51Z</time>
      </trkpt>
      <trkpt lat="46.74455" lon="-1.4923">
        <ele>70.2</ele>
        <time>2024-04-25T19:05:52Z</time>
      </trkpt>
      <trkpt lat="46.74451" lon="-1.49227">
        <ele>70.2</ele>
        <time>2024-04-25T19:05:53Z</time>
      </trkpt>
      <trkpt lat="46.74447" lon="-1.49224">
        <ele>70.2</ele>
        <time>2024-04-25T19:05:54Z</time>
      </trkpt>
      <trkpt lat="46.7444" lon="-1.4922">
        <ele>70</ele>
        <time>2024-04-25T19:05:55Z</time>
      </trkpt>
      <trkpt lat="46.74438" lon="-1.49218">
        <ele>70</ele>
        <time>2024-04-25T19:05:56Z</time>
      </trkpt>
      <trkpt lat="46.74433" lon="-1.49215">
        <ele>69.8</ele>
        <time>2024-04-25T19:05:57Z</time>
      </trkpt>
      <trkpt lat="46.74428" lon="-1.49212">
        <ele>69.6</ele>
        <time>2024-04-25T19:05:58Z</time>
      </trkpt>
      <trkpt lat="46.74423" lon="-1.49209">
        <ele>69.6</ele>
        <time>2024-04-25T19:05:59Z</time>
      </trkpt>
      <trkpt lat="46.74418" lon="-1.49206">
        <ele>69.4</ele>
        <time>2024-04-25T19:06:00Z</time>
      </trkpt>
      <trkpt lat="46.74413" lon="-1.49203">
        <ele>69.2</ele>
        <time>2024-04-25T19:06:01Z</time>
      </trkpt>
      <trkpt lat="46.74409" lon="-1.492">
        <ele>69.2</ele>
        <time>2024-04-25T19:06:02Z</time>
      </trkpt>
      <trkpt lat="46.74404" lon="-1.49197">
        <ele>69</ele>
        <time>2024-04-25T19:06:03Z</time>
      </trkpt>
      <trkpt lat="46.74396" lon="-1.49192">
        <ele>68.8</ele>
        <time>2024-04-25T19:06:04Z</time>
      </trkpt>
      <trkpt lat="46.74394" lon="-1.49191">
        <ele>68.8</ele>
        <time>2024-04-25T19:06:05Z</time>
      </trkpt>
      <trkpt lat="46.74388" lon="-1.49189">
        <ele>68.4</ele>
        <time>2024-04-25T19:06:06Z</time>
      </trkpt>
      <trkpt lat="46.74383" lon="-1.49188">
        <ele>68.4</ele>
        <time>2024-04-25T19:06:07Z</time>
      </trkpt>
      <trkpt lat="46.74378" lon="-1.49188">
        <ele>68.2</ele>
        <time>2024-04-25T19:06:08Z</time>
      </trkpt>
      <trkpt lat="46.74372" lon="-1.49188">
        <ele>68</ele>
        <time>2024-04-25T19:06:09Z</time>
      </trkpt>
      <trkpt lat="46.74367" lon="-1.49189">
        <ele>68</ele>
        <time>2024-04-25T19:06:10Z</time>
      </trkpt>
      <trkpt lat="46.74362" lon="-1.49191">
        <ele>68</ele>
        <time>2024-04-25T19:06:11Z</time>
      </trkpt>
      <trkpt lat="46.74356" lon="-1.49193">
        <ele>67.8</ele>
        <time>2024-04-25T19:06:12Z</time>
      </trkpt>
      <trkpt lat="46.74351" lon="-1.49194">
        <ele>67.6</ele>
        <time>2024-04-25T19:06:13Z</time>
      </trkpt>
      <trkpt lat="46.74345" lon="-1.49196">
        <ele>67.6</ele>
        <time>2024-04-25T19:06:14Z</time>
      </trkpt>
      <trkpt lat="46.7434" lon="-1.49198">
        <ele>67.6</ele>
        <time>2024-04-25T19:06:15Z</time>
      </trkpt>
      <trkpt lat="46.74334" lon="-1.49199">
        <ele>67.4</ele>
        <time>2024-04-25T19:06:16Z</time>
      </trkpt>
      <trkpt lat="46.74328" lon="-1.49201">
        <ele>67.2</ele>
        <time>2024-04-25T19:06:17Z</time>
      </trkpt>
      <trkpt lat="46.74322" lon="-1.49202">
        <ele>67.2</ele>
        <time>2024-04-25T19:06:18Z</time>
      </trkpt>
      <trkpt lat="46.74316" lon="-1.49203">
        <ele>67</ele>
        <time>2024-04-25T19:06:19Z</time>
      </trkpt>
      <trkpt lat="46.7431" lon="-1.49204">
        <ele>66.8</ele>
        <time>2024-04-25T19:06:20Z</time>
      </trkpt>
      <trkpt lat="46.74304" lon="-1.49206">
        <ele>66.6</ele>
        <time>2024-04-25T19:06:21Z</time>
      </trkpt>
      <trkpt lat="46.74298" lon="-1.49207">
        <ele>66.4</ele>
        <time>2024-04-25T19:06:22Z</time>
      </trkpt>
      <trkpt lat="46.74289" lon="-1.49209">
        <ele>66.2</ele>
        <time>2024-04-25T19:06:23Z</time>
      </trkpt>
      <trkpt lat="46.74282" lon="-1.4921">
        <ele>66</ele>
        <time>2024-04-25T19:06:24Z</time>
      </trkpt>
      <trkpt lat="46.74275" lon="-1.49211">
        <ele>65.8</ele>
        <time>2024-04-25T19:06:25Z</time>
      </trkpt>
      <trkpt lat="46.74268" lon="-1.49213">
        <ele>65.6</ele>
        <time>2024-04-25T19:06:26Z</time>
      </trkpt>
      <trkpt lat="46.74263" lon="-1.49214">
        <ele>65.6</ele>
        <time>2024-04-25T19:06:27Z</time>
      </trkpt>
      <trkpt lat="46.74257" lon="-1.49215">
        <ele>65.4</ele>
        <time>2024-04-25T19:06:28Z</time>
      </trkpt>
      <trkpt lat="46.74252" lon="-1.49217">
        <ele>65.4</ele>
        <time>2024-04-25T19:06:29Z</time>
      </trkpt>
      <trkpt lat="46.74246" lon="-1.49218">
        <ele>65.4</ele>
        <time>2024-04-25T19:06:30Z</time>
      </trkpt>
      <trkpt lat="46.74241" lon="-1.4922">
        <ele>65.4</ele>
        <time>2024-04-25T19:06:31Z</time>
      </trkpt>
      <trkpt lat="46.74236" lon="-1.49221">
        <ele>65.4</ele>
        <time>2024-04-25T19:06:32Z</time>
      </trkpt>
      <trkpt lat="46.74231" lon="-1.49223">
        <ele>65.4</ele>
        <time>2024-04-25T19:06:33Z</time>
      </trkpt>
      <trkpt lat="46.74225" lon="-1.49225">
        <ele>65.4</ele>
        <time>2024-04-25T19:06:34Z</time>
      </trkpt>
      <trkpt lat="46.7422" lon="-1.49229">
        <ele>65.2</ele>
        <time>2024-04-25T19:06:35Z</time>
      </trkpt>
      <trkpt lat="46.74215" lon="-1.49232">
        <ele>65.2</ele>
        <time>2024-04-25T19:06:36Z</time>
      </trkpt>
      <trkpt lat="46.74211" lon="-1.49237">
        <ele>65.2</ele>
        <time>2024-04-25T19:06:37Z</time>
      </trkpt>
      <trkpt lat="46.74207" lon="-1.49241">
        <ele>65</ele>
        <time>2024-04-25T19:06:38Z</time>
      </trkpt>
      <trkpt lat="46.74203" lon="-1.49246">
        <ele>65</ele>
        <time>2024-04-25T19:06:39Z</time>
      </trkpt>
      <trkpt lat="46.74199" lon="-1.49251">
        <ele>65</ele>
        <time>2024-04-25T19:06:40Z</time>
      </trkpt>
      <trkpt lat="46.74195" lon="-1.49256">
        <ele>65.2</ele>
        <time>2024-04-25T19:06:41Z</time>
      </trkpt>
      <trkpt lat="46.74191" lon="-1.49261">
        <ele>65.2</ele>
        <time>2024-04-25T19:06:42Z</time>
      </trkpt>
      <trkpt lat="46.74188" lon="-1.49265">
        <ele>65.2</ele>
        <time>2024-04-25T19:06:43Z</time>
      </trkpt>
      <trkpt lat="46.74184" lon="-1.4927">
        <ele>65.4</ele>
        <time>2024-04-25T19:06:44Z</time>
      </trkpt>
      <trkpt lat="46.74181" lon="-1.49275">
        <ele>65.2</ele>
        <time>2024-04-25T19:06:45Z</time>
      </trkpt>
      <trkpt lat="46.74177" lon="-1.49279">
        <ele>65.2</ele>
        <time>2024-04-25T19:06:46Z</time>
      </trkpt>
      <trkpt lat="46.74173" lon="-1.49283">
        <ele>65.4</ele>
        <time>2024-04-25T19:06:47Z</time>
      </trkpt>
      <trkpt lat="46.74169" lon="-1.49287">
        <ele>65.4</ele>
        <time>2024-04-25T19:06:48Z</time>
      </trkpt>
      <trkpt lat="46.74164" lon="-1.4929">
        <ele>65.4</ele>
        <time>2024-04-25T19:06:50Z</time>
      </trkpt>
      <trkpt lat="46.74159" lon="-1.49294">
        <ele>65.6</ele>
        <time>2024-04-25T19:06:51Z</time>
      </trkpt>
      <trkpt lat="46.74155" lon="-1.49297">
        <ele>65.6</ele>
        <time>2024-04-25T19:06:52Z</time>
      </trkpt>
      <trkpt lat="46.7415" lon="-1.493">
        <ele>65.6</ele>
        <time>2024-04-25T19:06:53Z</time>
      </trkpt>
      <trkpt lat="46.74145" lon="-1.49302">
        <ele>65.6</ele>
        <time>2024-04-25T19:06:54Z</time>
      </trkpt>
      <trkpt lat="46.7414" lon="-1.49305">
        <ele>65.4</ele>
        <time>2024-04-25T19:06:55Z</time>
      </trkpt>
      <trkpt lat="46.74135" lon="-1.49307">
        <ele>65.4</ele>
        <time>2024-04-25T19:06:56Z</time>
      </trkpt>
      <trkpt lat="46.7413" lon="-1.49309">
        <ele>65.6</ele>
        <time>2024-04-25T19:06:57Z</time>
      </trkpt>
      <trkpt lat="46.74125" lon="-1.49311">
        <ele>65.6</ele>
        <time>2024-04-25T19:06:58Z</time>
      </trkpt>
      <trkpt lat="46.7412" lon="-1.49313">
        <ele>65.6</ele>
        <time>2024-04-25T19:06:59Z</time>
      </trkpt>
      <trkpt lat="46.74115" lon="-1.49315">
        <ele>65.8</ele>
        <time>2024-04-25T19:07:00Z</time>
      </trkpt>
      <trkpt lat="46.7411" lon="-1.49316">
        <ele>65.8</ele>
        <time>2024-04-25T19:07:01Z</time>
      </trkpt>
      <trkpt lat="46.74105" lon="-1.49318">
        <ele>65.8</ele>
        <time>2024-04-25T19:07:02Z</time>
      </trkpt>
      <trkpt lat="46.741" lon="-1.4932">
        <ele>66</ele>
        <time>2024-04-25T19:07:03Z</time>
      </trkpt>
      <trkpt lat="46.74095" lon="-1.49321">
        <ele>66</ele>
        <time>2024-04-25T19:07:04Z</time>
      </trkpt>
      <trkpt lat="46.7409" lon="-1.49323">
        <ele>66</ele>
        <time>2024-04-25T19:07:05Z</time>
      </trkpt>
      <trkpt lat="46.74085" lon="-1.49324">
        <ele>65.8</ele>
        <time>2024-04-25T19:07:06Z</time>
      </trkpt>
      <trkpt lat="46.7408" lon="-1.49326">
        <ele>65.8</ele>
        <time>2024-04-25T19:07:07Z</time>
      </trkpt>
      <trkpt lat="46.74075" lon="-1.49327">
        <ele>66</ele>
        <time>2024-04-25T19:07:08Z</time>
      </trkpt>
      <trkpt lat="46.74068" lon="-1.4933">
        <ele>66.2</ele>
        <time>2024-04-25T19:07:09Z</time>
      </trkpt>
      <trkpt lat="46.74066" lon="-1.4933">
        <ele>66.2</ele>
        <time>2024-04-25T19:07:10Z</time>
      </trkpt>
      <trkpt lat="46.74061" lon="-1.49332">
        <ele>66.4</ele>
        <time>2024-04-25T19:07:11Z</time>
      </trkpt>
      <trkpt lat="46.74053" lon="-1.49334">
        <ele>66.4</ele>
        <time>2024-04-25T19:07:12Z</time>
      </trkpt>
      <trkpt lat="46.74051" lon="-1.49335">
        <ele>66.4</ele>
        <time>2024-04-25T19:07:13Z</time>
      </trkpt>
      <trkpt lat="46.74046" lon="-1.49337">
        <ele>66.4</ele>
        <time>2024-04-25T19:07:14Z</time>
      </trkpt>
      <trkpt lat="46.74041" lon="-1.49338">
        <ele>66.4</ele>
        <time>2024-04-25T19:07:15Z</time>
      </trkpt>
      <trkpt lat="46.74036" lon="-1.4934">
        <ele>66.4</ele>
        <time>2024-04-25T19:07:16Z</time>
      </trkpt>
      <trkpt lat="46.74031" lon="-1.49341">
        <ele>66.6</ele>
        <time>2024-04-25T19:07:17Z</time>
      </trkpt>
      <trkpt lat="46.74026" lon="-1.49343">
        <ele>66.6</ele>
        <time>2024-04-25T19:07:18Z</time>
      </trkpt>
      <trkpt lat="46.74021" lon="-1.49344">
        <ele>66.6</ele>
        <time>2024-04-25T19:07:19Z</time>
      </trkpt>
      <trkpt lat="46.74016" lon="-1.49345">
        <ele>66.6</ele>
        <time>2024-04-25T19:07:20Z</time>
      </trkpt>
      <trkpt lat="46.74011" lon="-1.49347">
        <ele>66.6</ele>
        <time>2024-04-25T19:07:21Z</time>
      </trkpt>
      <trkpt lat="46.74006" lon="-1.49348">
        <ele>66.6</ele>
        <time>2024-04-25T19:07:22Z</time>
      </trkpt>
      <trkpt lat="46.74" lon="-1.4935">
        <ele>66.6</ele>
        <time>2024-04-25T19:07:23Z</time>
      </trkpt>
      <trkpt lat="46.73995" lon="-1.49351">
        <ele>66.6</ele>
        <time>2024-04-25T19:07:24Z</time>
      </trkpt>
      <trkpt lat="46.73987" lon="-1.49353">
        <ele>66.6</ele>
        <time>2024-04-25T19:07:25Z</time>
      </trkpt>
      <trkpt lat="46.73985" lon="-1.49354">
        <ele>66.6</ele>
        <time>2024-04-25T19:07:26Z</time>
      </trkpt>
      <trkpt lat="46.7398" lon="-1.49355">
        <ele>66.6</ele>
        <time>2024-04-25T19:07:27Z</time>
      </trkpt>
      <trkpt lat="46.73974" lon="-1.49357">
        <ele>66.8</ele>
        <time>2024-04-25T19:07:28Z</time>
      </trkpt>
      <trkpt lat="46.73967" lon="-1.49359">
        <ele>66.8</ele>
        <time>2024-04-25T19:07:29Z</time>
      </trkpt>
      <trkpt lat="46.73964" lon="-1.49359">
        <ele>66.8</ele>
        <time>2024-04-25T19:07:30Z</time>
      </trkpt>
      <trkpt lat="46.73959" lon="-1.49361">
        <ele>66.8</ele>
        <time>2024-04-25T19:07:31Z</time>
      </trkpt>
      <trkpt lat="46.73954" lon="-1.49362">
        <ele>66.8</ele>
        <time>2024-04-25T19:07:32Z</time>
      </trkpt>
      <trkpt lat="46.73949" lon="-1.49364">
        <ele>66.8</ele>
        <time>2024-04-25T19:07:33Z</time>
      </trkpt>
      <trkpt lat="46.73944" lon="-1.49365">
        <ele>66.8</ele>
        <time>2024-04-25T19:07:34Z</time>
      </trkpt>
      <trkpt lat="46.73938" lon="-1.49367">
        <ele>67</ele>
        <time>2024-04-25T19:07:35Z</time>
      </trkpt>
      <trkpt lat="46.73933" lon="-1.49368">
        <ele>67</ele>
        <time>2024-04-25T19:07:36Z</time>
      </trkpt>
      <trkpt lat="46.73928" lon="-1.49369">
        <ele>67</ele>
        <time>2024-04-25T19:07:37Z</time>
      </trkpt>
      <trkpt lat="46.73923" lon="-1.4937">
        <ele>67.2</ele>
        <time>2024-04-25T19:07:38Z</time>
      </trkpt>
      <trkpt lat="46.73918" lon="-1.49371">
        <ele>67.2</ele>
        <time>2024-04-25T19:07:39Z</time>
      </trkpt>
      <trkpt lat="46.73914" lon="-1.49372">
        <ele>67.2</ele>
        <time>2024-04-25T19:07:40Z</time>
      </trkpt>
      <trkpt lat="46.73909" lon="-1.49373">
        <ele>67.4</ele>
        <time>2024-04-25T19:07:41Z</time>
      </trkpt>
      <trkpt lat="46.73904" lon="-1.49374">
        <ele>67.4</ele>
        <time>2024-04-25T19:07:42Z</time>
      </trkpt>
      <trkpt lat="46.739" lon="-1.49375">
        <ele>67.4</ele>
        <time>2024-04-25T19:07:43Z</time>
      </trkpt>
      <trkpt lat="46.73895" lon="-1.49375">
        <ele>67.6</ele>
        <time>2024-04-25T19:07:44Z</time>
      </trkpt>
      <trkpt lat="46.73888" lon="-1.49376">
        <ele>67.8</ele>
        <time>2024-04-25T19:07:45Z</time>
      </trkpt>
      <trkpt lat="46.73886" lon="-1.49376">
        <ele>68</ele>
        <time>2024-04-25T19:07:46Z</time>
      </trkpt>
      <trkpt lat="46.73881" lon="-1.49376">
        <ele>68.2</ele>
        <time>2024-04-25T19:07:47Z</time>
      </trkpt>
      <trkpt lat="46.73877" lon="-1.49377">
        <ele>68.2</ele>
        <time>2024-04-25T19:07:48Z</time>
      </trkpt>
      <trkpt lat="46.73872" lon="-1.49378">
        <ele>68.2</ele>
        <time>2024-04-25T19:07:49Z</time>
      </trkpt>
      <trkpt lat="46.73865" lon="-1.49379">
        <ele>68.2</ele>
        <time>2024-04-25T19:07:50Z</time>
      </trkpt>
      <trkpt lat="46.73859" lon="-1.49381">
        <ele>68.4</ele>
        <time>2024-04-25T19:07:51Z</time>
      </trkpt>
      <trkpt lat="46.73854" lon="-1.49383">
        <ele>68.4</ele>
        <time>2024-04-25T19:07:52Z</time>
      </trkpt>
      <trkpt lat="46.7385" lon="-1.49385">
        <ele>68.6</ele>
        <time>2024-04-25T19:07:53Z</time>
      </trkpt>
      <trkpt lat="46.73846" lon="-1.49386">
        <ele>68.6</ele>
        <time>2024-04-25T19:07:54Z</time>
      </trkpt>
      <trkpt lat="46.73842" lon="-1.49388">
        <ele>68.8</ele>
        <time>2024-04-25T19:07:55Z</time>
      </trkpt>
      <trkpt lat="46.73839" lon="-1.4939">
        <ele>68.8</ele>
        <time>2024-04-25T19:07:56Z</time>
      </trkpt>
      <trkpt lat="46.73836" lon="-1.49392">
        <ele>68.8</ele>
        <time>2024-04-25T19:07:57Z</time>
      </trkpt>
      <trkpt lat="46.73833" lon="-1.49395">
        <ele>68.8</ele>
        <time>2024-04-25T19:07:58Z</time>
      </trkpt>
      <trkpt lat="46.73831" lon="-1.49399">
        <ele>69</ele>
        <time>2024-04-25T19:07:59Z</time>
      </trkpt>
      <trkpt lat="46.73831" lon="-1.49404">
        <ele>69</ele>
        <time>2024-04-25T19:08:00Z</time>
      </trkpt>
      <trkpt lat="46.7383" lon="-1.49408">
        <ele>69.2</ele>
        <time>2024-04-25T19:08:01Z</time>
      </trkpt>
      <trkpt lat="46.73831" lon="-1.49413">
        <ele>69.2</ele>
        <time>2024-04-25T19:08:02Z</time>
      </trkpt>
      <trkpt lat="46.73831" lon="-1.49418">
        <ele>69.2</ele>
        <time>2024-04-25T19:08:03Z</time>
      </trkpt>
      <trkpt lat="46.73832" lon="-1.49423">
        <ele>69.4</ele>
        <time>2024-04-25T19:08:04Z</time>
      </trkpt>
      <trkpt lat="46.73832" lon="-1.49428">
        <ele>69.4</ele>
        <time>2024-04-25T19:08:05Z</time>
      </trkpt>
      <trkpt lat="46.73833" lon="-1.49433">
        <ele>69.4</ele>
        <time>2024-04-25T19:08:06Z</time>
      </trkpt>
      <trkpt lat="46.73833" lon="-1.49438">
        <ele>69.6</ele>
        <time>2024-04-25T19:08:07Z</time>
      </trkpt>
      <trkpt lat="46.73834" lon="-1.49442">
        <ele>69.6</ele>
        <time>2024-04-25T19:08:08Z</time>
      </trkpt>
      <trkpt lat="46.73834" lon="-1.49447">
        <ele>69.8</ele>
        <time>2024-04-25T19:08:09Z</time>
      </trkpt>
      <trkpt lat="46.73835" lon="-1.49452">
        <ele>69.8</ele>
        <time>2024-04-25T19:08:10Z</time>
      </trkpt>
      <trkpt lat="46.73835" lon="-1.49456">
        <ele>69.8</ele>
        <time>2024-04-25T19:08:11Z</time>
      </trkpt>
      <trkpt lat="46.73836" lon="-1.49461">
        <ele>70</ele>
        <time>2024-04-25T19:08:12Z</time>
      </trkpt>
      <trkpt lat="46.73836" lon="-1.49466">
        <ele>70</ele>
        <time>2024-04-25T19:08:13Z</time>
      </trkpt>
      <trkpt lat="46.73837" lon="-1.49471">
        <ele>70.2</ele>
        <time>2024-04-25T19:08:14Z</time>
      </trkpt>
      <trkpt lat="46.73837" lon="-1.49477">
        <ele>70.2</ele>
        <time>2024-04-25T19:08:16Z</time>
      </trkpt>
      <trkpt lat="46.73837" lon="-1.49482">
        <ele>70.2</ele>
        <time>2024-04-25T19:08:17Z</time>
      </trkpt>
      <trkpt lat="46.73837" lon="-1.49487">
        <ele>70.4</ele>
        <time>2024-04-25T19:08:18Z</time>
      </trkpt>
      <trkpt lat="46.73837" lon="-1.49492">
        <ele>70.4</ele>
        <time>2024-04-25T19:08:19Z</time>
      </trkpt>
      <trkpt lat="46.73838" lon="-1.49497">
        <ele>70.4</ele>
        <time>2024-04-25T19:08:20Z</time>
      </trkpt>
      <trkpt lat="46.73838" lon="-1.49502">
        <ele>70.6</ele>
        <time>2024-04-25T19:08:21Z</time>
      </trkpt>
      <trkpt lat="46.73839" lon="-1.49506">
        <ele>70.6</ele>
        <time>2024-04-25T19:08:22Z</time>
      </trkpt>
      <trkpt lat="46.73839" lon="-1.49511">
        <ele>70.6</ele>
        <time>2024-04-25T19:08:23Z</time>
      </trkpt>
      <trkpt lat="46.73839" lon="-1.49515">
        <ele>70.6</ele>
        <time>2024-04-25T19:08:24Z</time>
      </trkpt>
      <trkpt lat="46.7384" lon="-1.49519">
        <ele>70.6</ele>
        <time>2024-04-25T19:08:25Z</time>
      </trkpt>
      <trkpt lat="46.7384" lon="-1.49524">
        <ele>70.8</ele>
        <time>2024-04-25T19:08:26Z</time>
      </trkpt>
      <trkpt lat="46.7384" lon="-1.49528">
        <ele>70.8</ele>
        <time>2024-04-25T19:08:27Z</time>
      </trkpt>
      <trkpt lat="46.7384" lon="-1.49533">
        <ele>70.8</ele>
        <time>2024-04-25T19:08:28Z</time>
      </trkpt>
      <trkpt lat="46.7384" lon="-1.49538">
        <ele>70.8</ele>
        <time>2024-04-25T19:08:29Z</time>
      </trkpt>
      <trkpt lat="46.73839" lon="-1.49542">
        <ele>70.8</ele>
        <time>2024-04-25T19:08:30Z</time>
      </trkpt>
      <trkpt lat="46.73839" lon="-1.49547">
        <ele>70.8</ele>
        <time>2024-04-25T19:08:31Z</time>
      </trkpt>
      <trkpt lat="46.73839" lon="-1.49552">
        <ele>70.8</ele>
        <time>2024-04-25T19:08:32Z</time>
      </trkpt>
      <trkpt lat="46.73839" lon="-1.49557">
        <ele>70.8</ele>
        <time>2024-04-25T19:08:33Z</time>
      </trkpt>
      <trkpt lat="46.73839" lon="-1.49562">
        <ele>70.6</ele>
        <time>2024-04-25T19:08:34Z</time>
      </trkpt>
      <trkpt lat="46.73839" lon="-1.49568">
        <ele>70.6</ele>
        <time>2024-04-25T19:08:35Z</time>
      </trkpt>
      <trkpt lat="46.7384" lon="-1.49574">
        <ele>70.6</ele>
        <time>2024-04-25T19:08:36Z</time>
      </trkpt>
      <trkpt lat="46.7384" lon="-1.4958">
        <ele>70.6</ele>
        <time>2024-04-25T19:08:37Z</time>
      </trkpt>
      <trkpt lat="46.73841" lon="-1.49585">
        <ele>70.6</ele>
        <time>2024-04-25T19:08:38Z</time>
      </trkpt>
      <trkpt lat="46.73842" lon="-1.49591">
        <ele>70.6</ele>
        <time>2024-04-25T19:08:39Z</time>
      </trkpt>
      <trkpt lat="46.73843" lon="-1.49596">
        <ele>70.6</ele>
        <time>2024-04-25T19:08:40Z</time>
      </trkpt>
      <trkpt lat="46.73844" lon="-1.49602">
        <ele>70.6</ele>
        <time>2024-04-25T19:08:41Z</time>
      </trkpt>
      <trkpt lat="46.73844" lon="-1.49608">
        <ele>70.4</ele>
        <time>2024-04-25T19:08:42Z</time>
      </trkpt>
      <trkpt lat="46.73845" lon="-1.49614">
        <ele>70.4</ele>
        <time>2024-04-25T19:08:43Z</time>
      </trkpt>
      <trkpt lat="46.73846" lon="-1.49619">
        <ele>70.4</ele>
        <time>2024-04-25T19:08:44Z</time>
      </trkpt>
      <trkpt lat="46.73846" lon="-1.49625">
        <ele>70.4</ele>
        <time>2024-04-25T19:08:45Z</time>
      </trkpt>
      <trkpt lat="46.73847" lon="-1.49632">
        <ele>70.4</ele>
        <time>2024-04-25T19:08:46Z</time>
      </trkpt>
      <trkpt lat="46.73848" lon="-1.49635">
        <ele>70.4</ele>
        <time>2024-04-25T19:08:47Z</time>
      </trkpt>
      <trkpt lat="46.73849" lon="-1.4964">
        <ele>70.4</ele>
        <time>2024-04-25T19:08:48Z</time>
      </trkpt>
      <trkpt lat="46.73849" lon="-1.49645">
        <ele>70.4</ele>
        <time>2024-04-25T19:08:49Z</time>
      </trkpt>
      <trkpt lat="46.7385" lon="-1.49649">
        <ele>70.4</ele>
        <time>2024-04-25T19:08:50Z</time>
      </trkpt>
      <trkpt lat="46.73851" lon="-1.49654">
        <ele>70.4</ele>
        <time>2024-04-25T19:08:51Z</time>
      </trkpt>
      <trkpt lat="46.73852" lon="-1.49659">
        <ele>70.4</ele>
        <time>2024-04-25T19:08:52Z</time>
      </trkpt>
      <trkpt lat="46.73853" lon="-1.49665">
        <ele>70.2</ele>
        <time>2024-04-25T19:08:53Z</time>
      </trkpt>
      <trkpt lat="46.73854" lon="-1.4967">
        <ele>70.2</ele>
        <time>2024-04-25T19:08:54Z</time>
      </trkpt>
      <trkpt lat="46.73855" lon="-1.49676">
        <ele>70.2</ele>
        <time>2024-04-25T19:08:55Z</time>
      </trkpt>
      <trkpt lat="46.73856" lon="-1.49682">
        <ele>70.2</ele>
        <time>2024-04-25T19:08:56Z</time>
      </trkpt>
      <trkpt lat="46.73857" lon="-1.49687">
        <ele>70</ele>
        <time>2024-04-25T19:08:57Z</time>
      </trkpt>
      <trkpt lat="46.73857" lon="-1.49693">
        <ele>70</ele>
        <time>2024-04-25T19:08:58Z</time>
      </trkpt>
      <trkpt lat="46.73858" lon="-1.49699">
        <ele>70</ele>
        <time>2024-04-25T19:08:59Z</time>
      </trkpt>
      <trkpt lat="46.73859" lon="-1.49705">
        <ele>70</ele>
        <time>2024-04-25T19:09:00Z</time>
      </trkpt>
      <trkpt lat="46.73859" lon="-1.4971">
        <ele>70</ele>
        <time>2024-04-25T19:09:01Z</time>
      </trkpt>
      <trkpt lat="46.7386" lon="-1.49716">
        <ele>70</ele>
        <time>2024-04-25T19:09:02Z</time>
      </trkpt>
      <trkpt lat="46.7386" lon="-1.49724">
        <ele>70</ele>
        <time>2024-04-25T19:09:03Z</time>
      </trkpt>
      <trkpt lat="46.73861" lon="-1.49727">
        <ele>69.8</ele>
        <time>2024-04-25T19:09:04Z</time>
      </trkpt>
      <trkpt lat="46.73861" lon="-1.49732">
        <ele>69.8</ele>
        <time>2024-04-25T19:09:05Z</time>
      </trkpt>
      <trkpt lat="46.73862" lon="-1.49738">
        <ele>69.8</ele>
        <time>2024-04-25T19:09:06Z</time>
      </trkpt>
      <trkpt lat="46.73862" lon="-1.49744">
        <ele>69.6</ele>
        <time>2024-04-25T19:09:07Z</time>
      </trkpt>
      <trkpt lat="46.73863" lon="-1.49749">
        <ele>69.6</ele>
        <time>2024-04-25T19:09:08Z</time>
      </trkpt>
      <trkpt lat="46.73863" lon="-1.49755">
        <ele>69.6</ele>
        <time>2024-04-25T19:09:09Z</time>
      </trkpt>
      <trkpt lat="46.73864" lon="-1.49762">
        <ele>69.6</ele>
        <time>2024-04-25T19:09:10Z</time>
      </trkpt>
      <trkpt lat="46.73865" lon="-1.49768">
        <ele>69.6</ele>
        <time>2024-04-25T19:09:11Z</time>
      </trkpt>
      <trkpt lat="46.73865" lon="-1.49774">
        <ele>69.6</ele>
        <time>2024-04-25T19:09:12Z</time>
      </trkpt>
      <trkpt lat="46.73866" lon="-1.4978">
        <ele>69.4</ele>
        <time>2024-04-25T19:09:13Z</time>
      </trkpt>
      <trkpt lat="46.73867" lon="-1.49787">
        <ele>69.4</ele>
        <time>2024-04-25T19:09:14Z</time>
      </trkpt>
      <trkpt lat="46.73868" lon="-1.49796">
        <ele>69.2</ele>
        <time>2024-04-25T19:09:15Z</time>
      </trkpt>
      <trkpt lat="46.73869" lon="-1.49805">
        <ele>69</ele>
        <time>2024-04-25T19:09:16Z</time>
      </trkpt>
      <trkpt lat="46.73871" lon="-1.49812">
        <ele>69</ele>
        <time>2024-04-25T19:09:17Z</time>
      </trkpt>
      <trkpt lat="46.73872" lon="-1.49818">
        <ele>68.6</ele>
        <time>2024-04-25T19:09:18Z</time>
      </trkpt>
      <trkpt lat="46.73873" lon="-1.49824">
        <ele>68.6</ele>
        <time>2024-04-25T19:09:19Z</time>
      </trkpt>
      <trkpt lat="46.73874" lon="-1.4983">
        <ele>68.4</ele>
        <time>2024-04-25T19:09:20Z</time>
      </trkpt>
      <trkpt lat="46.73874" lon="-1.49836">
        <ele>68</ele>
        <time>2024-04-25T19:09:21Z</time>
      </trkpt>
      <trkpt lat="46.73875" lon="-1.49842">
        <ele>67.8</ele>
        <time>2024-04-25T19:09:22Z</time>
      </trkpt>
      <trkpt lat="46.73877" lon="-1.49852">
        <ele>67.6</ele>
        <time>2024-04-25T19:09:23Z</time>
      </trkpt>
      <trkpt lat="46.73877" lon="-1.49855">
        <ele>67.4</ele>
        <time>2024-04-25T19:09:24Z</time>
      </trkpt>
      <trkpt lat="46.73879" lon="-1.49862">
        <ele>67</ele>
        <time>2024-04-25T19:09:25Z</time>
      </trkpt>
      <trkpt lat="46.7388" lon="-1.49868">
        <ele>66.8</ele>
        <time>2024-04-25T19:09:26Z</time>
      </trkpt>
      <trkpt lat="46.73881" lon="-1.49876">
        <ele>66.4</ele>
        <time>2024-04-25T19:09:27Z</time>
      </trkpt>
      <trkpt lat="46.73881" lon="-1.49879">
        <ele>66.2</ele>
        <time>2024-04-25T19:09:28Z</time>
      </trkpt>
      <trkpt lat="46.73881" lon="-1.49883">
        <ele>66</ele>
        <time>2024-04-25T19:09:29Z</time>
      </trkpt>
      <trkpt lat="46.73882" lon="-1.49886">
        <ele>65.8</ele>
        <time>2024-04-25T19:09:30Z</time>
      </trkpt>
      <trkpt lat="46.73882" lon="-1.49889">
        <ele>65.6</ele>
        <time>2024-04-25T19:09:31Z</time>
      </trkpt>
      <trkpt lat="46.73883" lon="-1.49892">
        <ele>65.4</ele>
        <time>2024-04-25T19:09:32Z</time>
      </trkpt>
      <trkpt lat="46.73883" lon="-1.49895">
        <ele>65.2</ele>
        <time>2024-04-25T19:09:33Z</time>
      </trkpt>
      <trkpt lat="46.73883" lon="-1.49898">
        <ele>65</ele>
        <time>2024-04-25T19:09:34Z</time>
      </trkpt>
      <trkpt lat="46.73883" lon="-1.49902">
        <ele>65</ele>
        <time>2024-04-25T19:09:35Z</time>
      </trkpt>
      <trkpt lat="46.73883" lon="-1.49906">
        <ele>64.8</ele>
        <time>2024-04-25T19:09:36Z</time>
      </trkpt>
      <trkpt lat="46.73884" lon="-1.4991">
        <ele>64.8</ele>
        <time>2024-04-25T19:09:37Z</time>
      </trkpt>
      <trkpt lat="46.73884" lon="-1.49914">
        <ele>64.6</ele>
        <time>2024-04-25T19:09:38Z</time>
      </trkpt>
      <trkpt lat="46.73884" lon="-1.49918">
        <ele>64.6</ele>
        <time>2024-04-25T19:09:39Z</time>
      </trkpt>
      <trkpt lat="46.73883" lon="-1.49921">
        <ele>64.4</ele>
        <time>2024-04-25T19:09:41Z</time>
      </trkpt>
      <trkpt lat="46.73883" lon="-1.49924">
        <ele>64.4</ele>
        <time>2024-04-25T19:09:42Z</time>
      </trkpt>
      <trkpt lat="46.73883" lon="-1.49927">
        <ele>64.2</ele>
        <time>2024-04-25T19:09:43Z</time>
      </trkpt>
      <trkpt lat="46.73883" lon="-1.4993">
        <ele>64.2</ele>
        <time>2024-04-25T19:09:44Z</time>
      </trkpt>
      <trkpt lat="46.73883" lon="-1.49933">
        <ele>64.2</ele>
        <time>2024-04-25T19:09:45Z</time>
      </trkpt>
      <trkpt lat="46.73883" lon="-1.49936">
        <ele>64</ele>
        <time>2024-04-25T19:09:46Z</time>
      </trkpt>
      <trkpt lat="46.73882" lon="-1.4994">
        <ele>64</ele>
        <time>2024-04-25T19:09:47Z</time>
      </trkpt>
      <trkpt lat="46.73882" lon="-1.49944">
        <ele>63.8</ele>
        <time>2024-04-25T19:09:48Z</time>
      </trkpt>
      <trkpt lat="46.73882" lon="-1.49947">
        <ele>63.8</ele>
        <time>2024-04-25T19:09:49Z</time>
      </trkpt>
      <trkpt lat="46.73882" lon="-1.49951">
        <ele>63.8</ele>
        <time>2024-04-25T19:09:50Z</time>
      </trkpt>
      <trkpt lat="46.73882" lon="-1.49955">
        <ele>63.6</ele>
        <time>2024-04-25T19:09:51Z</time>
      </trkpt>
      <trkpt lat="46.73882" lon="-1.49959">
        <ele>63.6</ele>
        <time>2024-04-25T19:09:52Z</time>
      </trkpt>
      <trkpt lat="46.73882" lon="-1.49962">
        <ele>63.4</ele>
        <time>2024-04-25T19:09:53Z</time>
      </trkpt>
      <trkpt lat="46.73882" lon="-1.49966">
        <ele>63.4</ele>
        <time>2024-04-25T19:09:54Z</time>
      </trkpt>
      <trkpt lat="46.73882" lon="-1.4997">
        <ele>63.2</ele>
        <time>2024-04-25T19:09:55Z</time>
      </trkpt>
      <trkpt lat="46.73883" lon="-1.49974">
        <ele>63</ele>
        <time>2024-04-25T19:09:56Z</time>
      </trkpt>
      <trkpt lat="46.73882" lon="-1.49979">
        <ele>62.8</ele>
        <time>2024-04-25T19:09:57Z</time>
      </trkpt>
      <trkpt lat="46.73882" lon="-1.49983">
        <ele>62.8</ele>
        <time>2024-04-25T19:09:58Z</time>
      </trkpt>
      <trkpt lat="46.73881" lon="-1.49987">
        <ele>62.6</ele>
        <time>2024-04-25T19:09:59Z</time>
      </trkpt>
      <trkpt lat="46.73881" lon="-1.49991">
        <ele>62.4</ele>
        <time>2024-04-25T19:10:00Z</time>
      </trkpt>
      <trkpt lat="46.73881" lon="-1.49995">
        <ele>62.4</ele>
        <time>2024-04-25T19:10:01Z</time>
      </trkpt>
      <trkpt lat="46.73881" lon="-1.5">
        <ele>62.2</ele>
        <time>2024-04-25T19:10:02Z</time>
      </trkpt>
      <trkpt lat="46.7388" lon="-1.50004">
        <ele>62</ele>
        <time>2024-04-25T19:10:03Z</time>
      </trkpt>
      <trkpt lat="46.7388" lon="-1.50008">
        <ele>62</ele>
        <time>2024-04-25T19:10:04Z</time>
      </trkpt>
      <trkpt lat="46.73879" lon="-1.50013">
        <ele>61.8</ele>
        <time>2024-04-25T19:10:05Z</time>
      </trkpt>
      <trkpt lat="46.73879" lon="-1.50017">
        <ele>61.8</ele>
        <time>2024-04-25T19:10:06Z</time>
      </trkpt>
      <trkpt lat="46.73878" lon="-1.50022">
        <ele>61.8</ele>
        <time>2024-04-25T19:10:07Z</time>
      </trkpt>
      <trkpt lat="46.73878" lon="-1.50025">
        <ele>61.6</ele>
        <time>2024-04-25T19:10:08Z</time>
      </trkpt>
      <trkpt lat="46.73877" lon="-1.50029">
        <ele>61.6</ele>
        <time>2024-04-25T19:10:09Z</time>
      </trkpt>
      <trkpt lat="46.73877" lon="-1.50032">
        <ele>61.6</ele>
        <time>2024-04-25T19:10:10Z</time>
      </trkpt>
      <trkpt lat="46.73876" lon="-1.50035">
        <ele>61.6</ele>
        <time>2024-04-25T19:10:11Z</time>
      </trkpt>
      <trkpt lat="46.73876" lon="-1.50038">
        <ele>61.6</ele>
        <time>2024-04-25T19:10:12Z</time>
      </trkpt>
      <trkpt lat="46.73875" lon="-1.50041">
        <ele>61.6</ele>
        <time>2024-04-25T19:10:13Z</time>
      </trkpt>
      <trkpt lat="46.73875" lon="-1.50044">
        <ele>61.4</ele>
        <time>2024-04-25T19:10:14Z</time>
      </trkpt>
      <trkpt lat="46.73875" lon="-1.50048">
        <ele>61.4</ele>
        <time>2024-04-25T19:10:15Z</time>
      </trkpt>
      <trkpt lat="46.73875" lon="-1.50052">
        <ele>61.4</ele>
        <time>2024-04-25T19:10:16Z</time>
      </trkpt>
      <trkpt lat="46.73875" lon="-1.50057">
        <ele>61.2</ele>
        <time>2024-04-25T19:10:17Z</time>
      </trkpt>
      <trkpt lat="46.73875" lon="-1.50062">
        <ele>61.2</ele>
        <time>2024-04-25T19:10:18Z</time>
      </trkpt>
      <trkpt lat="46.73875" lon="-1.50067">
        <ele>61</ele>
        <time>2024-04-25T19:10:19Z</time>
      </trkpt>
      <trkpt lat="46.73875" lon="-1.50072">
        <ele>61</ele>
        <time>2024-04-25T19:10:20Z</time>
      </trkpt>
      <trkpt lat="46.73875" lon="-1.50078">
        <ele>61</ele>
        <time>2024-04-25T19:10:21Z</time>
      </trkpt>
      <trkpt lat="46.73875" lon="-1.50082">
        <ele>60.8</ele>
        <time>2024-04-25T19:10:22Z</time>
      </trkpt>
      <trkpt lat="46.73874" lon="-1.50087">
        <ele>60.8</ele>
        <time>2024-04-25T19:10:23Z</time>
      </trkpt>
      <trkpt lat="46.73874" lon="-1.50091">
        <ele>60.6</ele>
        <time>2024-04-25T19:10:24Z</time>
      </trkpt>
      <trkpt lat="46.73875" lon="-1.50096">
        <ele>60.6</ele>
        <time>2024-04-25T19:10:25Z</time>
      </trkpt>
      <trkpt lat="46.73876" lon="-1.50098">
        <ele>60.6</ele>
        <time>2024-04-25T19:10:26Z</time>
      </trkpt>
      <trkpt lat="46.73878" lon="-1.50102">
        <ele>60.6</ele>
        <time>2024-04-25T19:10:27Z</time>
      </trkpt>
      <trkpt lat="46.73879" lon="-1.50103">
        <ele>60.6</ele>
        <time>2024-04-25T19:10:28Z</time>
      </trkpt>
      <trkpt lat="46.7388" lon="-1.50105">
        <ele>60.6</ele>
        <time>2024-04-25T19:10:29Z</time>
      </trkpt>
      <trkpt lat="46.73881" lon="-1.50106">
        <ele>60.6</ele>
        <time>2024-04-25T19:10:30Z</time>
      </trkpt>
      <trkpt lat="46.73882" lon="-1.50108">
        <ele>60.6</ele>
        <time>2024-04-25T19:10:31Z</time>
      </trkpt>
      <trkpt lat="46.73882" lon="-1.50109">
        <ele>60.6</ele>
        <time>2024-04-25T19:10:32Z</time>
      </trkpt>
      <trkpt lat="46.73883" lon="-1.50111">
        <ele>60.6</ele>
        <time>2024-04-25T19:10:33Z</time>
      </trkpt>
      <trkpt lat="46.73884" lon="-1.50112">
        <ele>60.6</ele>
        <time>2024-04-25T19:10:34Z</time>
      </trkpt>
      <trkpt lat="46.73885" lon="-1.50113">
        <ele>60.6</ele>
        <time>2024-04-25T19:10:35Z</time>
      </trkpt>
      <trkpt lat="46.73885" lon="-1.50113">
        <ele>60.6</ele>
        <time>2024-04-25T19:10:36Z</time>
      </trkpt>
      <trkpt lat="46.73885" lon="-1.50113">
        <ele>60.6</ele>
        <time>2024-04-25T19:10:37Z</time>
      </trkpt>
      <trkpt lat="46.73885" lon="-1.50113">
        <ele>60.6</ele>
        <time>2024-04-25T19:10:38Z</time>
      </trkpt>
      <trkpt lat="46.73885" lon="-1.50113">
        <ele>60.6</ele>
        <time>2024-04-25T19:10:39Z</time>
      </trkpt>
      <trkpt lat="46.73884" lon="-1.50113">
        <ele>60.6</ele>
        <time>2024-04-25T19:10:40Z</time>
      </trkpt>
      <trkpt lat="46.73884" lon="-1.50113">
        <ele>60.6</ele>
        <time>2024-04-25T19:10:41Z</time>
      </trkpt>
      <trkpt lat="46.73884" lon="-1.50113">
        <ele>60.6</ele>
        <time>2024-04-25T19:10:42Z</time>
      </trkpt>
      <trkpt lat="46.73884" lon="-1.50113">
        <ele>60.6</ele>
        <time>2024-04-25T19:10:43Z</time>
      </trkpt>
      <trkpt lat="46.73884" lon="-1.50113">
        <ele>60.6</ele>
        <time>2024-04-25T19:10:44Z</time>
      </trkpt>
      <trkpt lat="46.73884" lon="-1.50113">
        <ele>60.6</ele>
        <time>2024-04-25T19:10:45Z</time>
      </trkpt>
      <trkpt lat="46.73884" lon="-1.50113">
        <ele>60.6</ele>
        <time>2024-04-25T19:10:46Z</time>
      </trkpt>
      <trkpt lat="46.73884" lon="-1.50113">
        <ele>60.6</ele>
        <time>2024-04-25T19:10:47Z</time>
      </trkpt>
      <trkpt lat="46.73884" lon="-1.50113">
        <ele>60.6</ele>
        <time>2024-04-25T19:10:48Z</time>
      </trkpt>
      <trkpt lat="46.73884" lon="-1.50113">
        <ele>60.6</ele>
        <time>2024-04-25T19:10:49Z</time>
      </trkpt>
      <trkpt lat="46.73884" lon="-1.50113">
        <ele>60.6</ele>
        <time>2024-04-25T19:10:50Z</time>
      </trkpt>
      <trkpt lat="46.73884" lon="-1.50114">
        <ele>60.6</ele>
        <time>2024-04-25T19:10:51Z</time>
      </trkpt>
      <trkpt lat="46.73884" lon="-1.50114">
        <ele>60.6</ele>
        <time>2024-04-25T19:10:52Z</time>
      </trkpt>
      <trkpt lat="46.73884" lon="-1.50114">
        <ele>60.6</ele>
        <time>2024-04-25T19:10:53Z</time>
      </trkpt>
      <trkpt lat="46.73884" lon="-1.50114">
        <ele>60.6</ele>
        <time>2024-04-25T19:10:54Z</time>
      </trkpt>
      <trkpt lat="46.73884" lon="-1.50114">
        <ele>60.6</ele>
        <time>2024-04-25T19:10:55Z</time>
      </trkpt>
      <trkpt lat="46.73884" lon="-1.50114">
        <ele>60.6</ele>
        <time>2024-04-25T19:10:56Z</time>
      </trkpt>
      <trkpt lat="46.73884" lon="-1.50114">
        <ele>60.6</ele>
        <time>2024-04-25T19:10:57Z</time>
      </trkpt>
      <trkpt lat="46.73884" lon="-1.50114">
        <ele>60.6</ele>
        <time>2024-04-25T19:10:58Z</time>
      </trkpt>
      <trkpt lat="46.73884" lon="-1.50114">
        <ele>60.6</ele>
        <time>2024-04-25T19:10:59Z</time>
      </trkpt>
      <trkpt lat="46.73884" lon="-1.50114">
        <ele>60.6</ele>
        <time>2024-04-25T19:11:00Z</time>
      </trkpt>
      <trkpt lat="46.73885" lon="-1.50114">
        <ele>60.6</ele>
        <time>2024-04-25T19:11:01Z</time>
      </trkpt>
      <trkpt lat="46.73885" lon="-1.50114">
        <ele>60.6</ele>
        <time>2024-04-25T19:11:02Z</time>
      </trkpt>
      <trkpt lat="46.73885" lon="-1.50114">
        <ele>60.6</ele>
        <time>2024-04-25T19:11:04Z</time>
      </trkpt>
      <trkpt lat="46.73885" lon="-1.50114">
        <ele>60.6</ele>
        <time>2024-04-25T19:11:05Z</time>
      </trkpt>
      <trkpt lat="46.73885" lon="-1.50114">
        <ele>60.6</ele>
        <time>2024-04-25T19:11:06Z</time>
      </trkpt>
      <trkpt lat="46.73885" lon="-1.50115">
        <ele>60.6</ele>
        <time>2024-04-25T19:11:07Z</time>
      </trkpt>
      <trkpt lat="46.73885" lon="-1.50115">
        <ele>60.6</ele>
        <time>2024-04-25T19:11:08Z</time>
      </trkpt>
      <trkpt lat="46.73885" lon="-1.50115">
        <ele>60.6</ele>
        <time>2024-04-25T19:11:09Z</time>
      </trkpt>
      <trkpt lat="46.73885" lon="-1.50115">
        <ele>60.6</ele>
        <time>2024-04-25T19:11:10Z</time>
      </trkpt>
      <trkpt lat="46.73885" lon="-1.50115">
        <ele>60.6</ele>
        <time>2024-04-25T19:11:11Z</time>
      </trkpt>
      <trkpt lat="46.73885" lon="-1.50115">
        <ele>60.6</ele>
        <time>2024-04-25T19:11:12Z</time>
      </trkpt>
      <trkpt lat="46.73885" lon="-1.50115">
        <ele>60.6</ele>
        <time>2024-04-25T19:11:13Z</time>
      </trkpt>
      <trkpt lat="46.73885" lon="-1.50115">
        <ele>60.6</ele>
        <time>2024-04-25T19:11:14Z</time>
      </trkpt>
      <trkpt lat="46.73885" lon="-1.50115">
        <ele>60.6</ele>
        <time>2024-04-25T19:11:15Z</time>
      </trkpt>
      <trkpt lat="46.73885" lon="-1.50115">
        <ele>60.6</ele>
        <time>2024-04-25T19:11:16Z</time>
      </trkpt>
      <trkpt lat="46.73885" lon="-1.50115">
        <ele>60.6</ele>
        <time>2024-04-25T19:11:17Z</time>
      </trkpt>
      <trkpt lat="46.73885" lon="-1.50116">
        <ele>60.6</ele>
        <time>2024-04-25T19:11:18Z</time>
      </trkpt>
      <trkpt lat="46.73885" lon="-1.50116">
        <ele>60.6</ele>
        <time>2024-04-25T19:11:19Z</time>
      </trkpt>
      <trkpt lat="46.73885" lon="-1.50116">
        <ele>60.6</ele>
        <time>2024-04-25T19:11:20Z</time>
      </trkpt>
      <trkpt lat="46.73885" lon="-1.50116">
        <ele>60.6</ele>
        <time>2024-04-25T19:11:21Z</time>
      </trkpt>
      <trkpt lat="46.73885" lon="-1.50116">
        <ele>60.6</ele>
        <time>2024-04-25T19:11:22Z</time>
      </trkpt>
      <trkpt lat="46.73885" lon="-1.50116">
        <ele>60.6</ele>
        <time>2024-04-25T19:11:23Z</time>
      </trkpt>
      <trkpt lat="46.73885" lon="-1.50116">
        <ele>60.6</ele>
        <time>2024-04-25T19:11:24Z</time>
      </trkpt>
      <trkpt lat="46.73885" lon="-1.50116">
        <ele>60.6</ele>
        <time>2024-04-25T19:11:25Z</time>
      </trkpt>
      <trkpt lat="46.73885" lon="-1.50116">
        <ele>60.6</ele>
        <time>2024-04-25T19:11:26Z</time>
      </trkpt>
      <trkpt lat="46.73885" lon="-1.50116">
        <ele>60.6</ele>
        <time>2024-04-25T19:11:27Z</time>
      </trkpt>
      <trkpt lat="46.73885" lon="-1.50116">
        <ele>60.6</ele>
        <time>2024-04-25T19:11:28Z</time>
      </trkpt>
      <trkpt lat="46.73885" lon="-1.50116">
        <ele>60.6</ele>
        <time>2024-04-25T19:11:29Z</time>
      </trkpt>
      <trkpt lat="46.73885" lon="-1.50116">
        <ele>60.6</ele>
        <time>2024-04-25T19:11:30Z</time>
      </trkpt>
      <trkpt lat="46.73885" lon="-1.50116">
        <ele>60.6</ele>
        <time>2024-04-25T19:11:31Z</time>
      </trkpt>
      <trkpt lat="46.73885" lon="-1.50116">
        <ele>60.6</ele>
        <time>2024-04-25T19:11:32Z</time>
      </trkpt>
      <trkpt lat="46.73885" lon="-1.50116">
        <ele>60.6</ele>
        <time>2024-04-25T19:11:33Z</time>
      </trkpt>
      <trkpt lat="46.73885" lon="-1.50116">
        <ele>60.6</ele>
        <time>2024-04-25T19:11:34Z</time>
      </trkpt>
      <trkpt lat="46.73885" lon="-1.50116">
        <ele>60.6</ele>
        <time>2024-04-25T19:11:35Z</time>
      </trkpt>
      <trkpt lat="46.73885" lon="-1.50116">
        <ele>60.6</ele>
        <time>2024-04-25T19:11:36Z</time>
      </trkpt>
      <trkpt lat="46.73885" lon="-1.50116">
        <ele>60.6</ele>
        <time>2024-04-25T19:11:37Z</time>
      </trkpt>
      <trkpt lat="46.73885" lon="-1.50116">
        <ele>60.6</ele>
        <time>2024-04-25T19:11:38Z</time>
      </trkpt>
      <trkpt lat="46.73885" lon="-1.50116">
        <ele>60.6</ele>
        <time>2024-04-25T19:11:39Z</time>
      </trkpt>
      <trkpt lat="46.73885" lon="-1.50117">
        <ele>60.6</ele>
        <time>2024-04-25T19:11:40Z</time>
      </trkpt>
      <trkpt lat="46.73885" lon="-1.50117">
        <ele>60.6</ele>
        <time>2024-04-25T19:11:41Z</time>
      </trkpt>
      <trkpt lat="46.73886" lon="-1.50118">
        <ele>60.6</ele>
        <time>2024-04-25T19:11:42Z</time>
      </trkpt>
      <trkpt lat="46.73886" lon="-1.50119">
        <ele>60.6</ele>
        <time>2024-04-25T19:11:43Z</time>
      </trkpt>
      <trkpt lat="46.73887" lon="-1.50119">
        <ele>60.6</ele>
        <time>2024-04-25T19:11:44Z</time>
      </trkpt>
      <trkpt lat="46.73888" lon="-1.5012">
        <ele>60.6</ele>
        <time>2024-04-25T19:11:45Z</time>
      </trkpt>
      <trkpt lat="46.73889" lon="-1.5012">
        <ele>60.6</ele>
        <time>2024-04-25T19:11:46Z</time>
      </trkpt>
      <trkpt lat="46.7389" lon="-1.50121">
        <ele>60.6</ele>
        <time>2024-04-25T19:11:47Z</time>
      </trkpt>
      <trkpt lat="46.73891" lon="-1.50122">
        <ele>60.6</ele>
        <time>2024-04-25T19:11:48Z</time>
      </trkpt>
      <trkpt lat="46.73892" lon="-1.50122">
        <ele>60.6</ele>
        <time>2024-04-25T19:11:49Z</time>
      </trkpt>
      <trkpt lat="46.73893" lon="-1.50123">
        <ele>60.6</ele>
        <time>2024-04-25T19:11:50Z</time>
      </trkpt>
      <trkpt lat="46.73894" lon="-1.50124">
        <ele>60.6</ele>
        <time>2024-04-25T19:11:51Z</time>
      </trkpt>
      <trkpt lat="46.73896" lon="-1.50125">
        <ele>60.6</ele>
        <time>2024-04-25T19:11:52Z</time>
      </trkpt>
      <trkpt lat="46.73897" lon="-1.50125">
        <ele>60.6</ele>
        <time>2024-04-25T19:11:53Z</time>
      </trkpt>
      <trkpt lat="46.73899" lon="-1.50126">
        <ele>60.6</ele>
        <time>2024-04-25T19:11:54Z</time>
      </trkpt>
      <trkpt lat="46.739" lon="-1.50126">
        <ele>60.6</ele>
        <time>2024-04-25T19:11:55Z</time>
      </trkpt>
      <trkpt lat="46.73901" lon="-1.50126">
        <ele>60.6</ele>
        <time>2024-04-25T19:11:56Z</time>
      </trkpt>
      <trkpt lat="46.73902" lon="-1.50127">
        <ele>60.6</ele>
        <time>2024-04-25T19:11:57Z</time>
      </trkpt>
      <trkpt lat="46.73905" lon="-1.50128">
        <ele>60.6</ele>
        <time>2024-04-25T19:11:58Z</time>
      </trkpt>
      <trkpt lat="46.73907" lon="-1.50129">
        <ele>60.6</ele>
        <time>2024-04-25T19:11:59Z</time>
      </trkpt>
      <trkpt lat="46.7391" lon="-1.5013">
        <ele>60.6</ele>
        <time>2024-04-25T19:12:00Z</time>
      </trkpt>
      <trkpt lat="46.73913" lon="-1.5013">
        <ele>60.6</ele>
        <time>2024-04-25T19:12:01Z</time>
      </trkpt>
      <trkpt lat="46.73917" lon="-1.50131">
        <ele>60.6</ele>
        <time>2024-04-25T19:12:02Z</time>
      </trkpt>
      <trkpt lat="46.73922" lon="-1.50132">
        <ele>60.6</ele>
        <time>2024-04-25T19:12:03Z</time>
      </trkpt>
      <trkpt lat="46.73926" lon="-1.50133">
        <ele>60.6</ele>
        <time>2024-04-25T19:12:04Z</time>
      </trkpt>
      <trkpt lat="46.7393" lon="-1.50135">
        <ele>60.6</ele>
        <time>2024-04-25T19:12:05Z</time>
      </trkpt>
      <trkpt lat="46.73933" lon="-1.50137">
        <ele>60.8</ele>
        <time>2024-04-25T19:12:06Z</time>
      </trkpt>
      <trkpt lat="46.73935" lon="-1.50139">
        <ele>60.8</ele>
        <time>2024-04-25T19:12:07Z</time>
      </trkpt>
      <trkpt lat="46.73936" lon="-1.50142">
        <ele>60.8</ele>
        <time>2024-04-25T19:12:08Z</time>
      </trkpt>
      <trkpt lat="46.73937" lon="-1.50146">
        <ele>60.8</ele>
        <time>2024-04-25T19:12:09Z</time>
      </trkpt>
      <trkpt lat="46.73937" lon="-1.50151">
        <ele>60.8</ele>
        <time>2024-04-25T19:12:10Z</time>
      </trkpt>
      <trkpt lat="46.73936" lon="-1.50156">
        <ele>60.8</ele>
        <time>2024-04-25T19:12:11Z</time>
      </trkpt>
      <trkpt lat="46.73936" lon="-1.50162">
        <ele>60.8</ele>
        <time>2024-04-25T19:12:12Z</time>
      </trkpt>
      <trkpt lat="46.73936" lon="-1.50168">
        <ele>60.8</ele>
        <time>2024-04-25T19:12:13Z</time>
      </trkpt>
      <trkpt lat="46.73936" lon="-1.50173">
        <ele>60.8</ele>
        <time>2024-04-25T19:12:14Z</time>
      </trkpt>
      <trkpt lat="46.73936" lon="-1.50179">
        <ele>61</ele>
        <time>2024-04-25T19:12:15Z</time>
      </trkpt>
      <trkpt lat="46.73936" lon="-1.50184">
        <ele>61.2</ele>
        <time>2024-04-25T19:12:16Z</time>
      </trkpt>
      <trkpt lat="46.73936" lon="-1.50189">
        <ele>61.2</ele>
        <time>2024-04-25T19:12:17Z</time>
      </trkpt>
      <trkpt lat="46.73937" lon="-1.50195">
        <ele>61.2</ele>
        <time>2024-04-25T19:12:18Z</time>
      </trkpt>
      <trkpt lat="46.73938" lon="-1.502">
        <ele>61.2</ele>
        <time>2024-04-25T19:12:19Z</time>
      </trkpt>
      <trkpt lat="46.73939" lon="-1.50206">
        <ele>61.2</ele>
        <time>2024-04-25T19:12:20Z</time>
      </trkpt>
      <trkpt lat="46.73941" lon="-1.50212">
        <ele>61.2</ele>
        <time>2024-04-25T19:12:21Z</time>
      </trkpt>
      <trkpt lat="46.73942" lon="-1.50218">
        <ele>61.2</ele>
        <time>2024-04-25T19:12:22Z</time>
      </trkpt>
      <trkpt lat="46.73944" lon="-1.50225">
        <ele>61</ele>
        <time>2024-04-25T19:12:23Z</time>
      </trkpt>
      <trkpt lat="46.73946" lon="-1.50231">
        <ele>61</ele>
        <time>2024-04-25T19:12:24Z</time>
      </trkpt>
      <trkpt lat="46.73948" lon="-1.50237">
        <ele>61</ele>
        <time>2024-04-25T19:12:25Z</time>
      </trkpt>
      <trkpt lat="46.73951" lon="-1.50242">
        <ele>61</ele>
        <time>2024-04-25T19:12:27Z</time>
      </trkpt>
      <trkpt lat="46.73954" lon="-1.50247">
        <ele>61</ele>
        <time>2024-04-25T19:12:28Z</time>
      </trkpt>
      <trkpt lat="46.73957" lon="-1.50252">
        <ele>61</ele>
        <time>2024-04-25T19:12:29Z</time>
      </trkpt>
      <trkpt lat="46.7396" lon="-1.50256">
        <ele>61</ele>
        <time>2024-04-25T19:12:30Z</time>
      </trkpt>
      <trkpt lat="46.73963" lon="-1.5026">
        <ele>61.2</ele>
        <time>2024-04-25T19:12:31Z</time>
      </trkpt>
      <trkpt lat="46.73966" lon="-1.50265">
        <ele>61</ele>
        <time>2024-04-25T19:12:32Z</time>
      </trkpt>
      <trkpt lat="46.73969" lon="-1.50269">
        <ele>61</ele>
        <time>2024-04-25T19:12:33Z</time>
      </trkpt>
      <trkpt lat="46.73972" lon="-1.50274">
        <ele>61.2</ele>
        <time>2024-04-25T19:12:34Z</time>
      </trkpt>
      <trkpt lat="46.73975" lon="-1.5028">
        <ele>61.2</ele>
        <time>2024-04-25T19:12:35Z</time>
      </trkpt>
      <trkpt lat="46.73977" lon="-1.50285">
        <ele>61.4</ele>
        <time>2024-04-25T19:12:36Z</time>
      </trkpt>
      <trkpt lat="46.7398" lon="-1.5029">
        <ele>61.4</ele>
        <time>2024-04-25T19:12:37Z</time>
      </trkpt>
      <trkpt lat="46.73982" lon="-1.50295">
        <ele>61.6</ele>
        <time>2024-04-25T19:12:38Z</time>
      </trkpt>
      <trkpt lat="46.73983" lon="-1.503">
        <ele>61.8</ele>
        <time>2024-04-25T19:12:39Z</time>
      </trkpt>
      <trkpt lat="46.73984" lon="-1.50304">
        <ele>62</ele>
        <time>2024-04-25T19:12:40Z</time>
      </trkpt>
      <trkpt lat="46.73984" lon="-1.50307">
        <ele>62</ele>
        <time>2024-04-25T19:12:41Z</time>
      </trkpt>
      <trkpt lat="46.73984" lon="-1.50309">
        <ele>62.2</ele>
        <time>2024-04-25T19:12:42Z</time>
      </trkpt>
      <trkpt lat="46.73984" lon="-1.5031">
        <ele>62.2</ele>
        <time>2024-04-25T19:12:43Z</time>
      </trkpt>
      <trkpt lat="46.73984" lon="-1.50311">
        <ele>62.4</ele>
        <time>2024-04-25T19:12:44Z</time>
      </trkpt>
      <trkpt lat="46.73984" lon="-1.50312">
        <ele>62.4</ele>
        <time>2024-04-25T19:12:45Z</time>
      </trkpt>
      <trkpt lat="46.73984" lon="-1.50313">
        <ele>62.4</ele>
        <time>2024-04-25T19:12:46Z</time>
      </trkpt>
      <trkpt lat="46.73984" lon="-1.50315">
        <ele>62.4</ele>
        <time>2024-04-25T19:12:47Z</time>
      </trkpt>
      <trkpt lat="46.73983" lon="-1.50318">
        <ele>62.4</ele>
        <time>2024-04-25T19:12:48Z</time>
      </trkpt>
      <trkpt lat="46.73982" lon="-1.50322">
        <ele>62.2</ele>
        <time>2024-04-25T19:12:49Z</time>
      </trkpt>
      <trkpt lat="46.73981" lon="-1.50327">
        <ele>62.2</ele>
        <time>2024-04-25T19:12:50Z</time>
      </trkpt>
      <trkpt lat="46.7398" lon="-1.50332">
        <ele>62</ele>
        <time>2024-04-25T19:12:51Z</time>
      </trkpt>
      <trkpt lat="46.73979" lon="-1.50338">
        <ele>61.8</ele>
        <time>2024-04-25T19:12:52Z</time>
      </trkpt>
      <trkpt lat="46.73979" lon="-1.50344">
        <ele>61.6</ele>
        <time>2024-04-25T19:12:53Z</time>
      </trkpt>
      <trkpt lat="46.73978" lon="-1.50351">
        <ele>61.2</ele>
        <time>2024-04-25T19:12:54Z</time>
      </trkpt>
      <trkpt lat="46.73977" lon="-1.50359">
        <ele>60.8</ele>
        <time>2024-04-25T19:12:55Z</time>
      </trkpt>
      <trkpt lat="46.73976" lon="-1.50367">
        <ele>60.2</ele>
        <time>2024-04-25T19:12:56Z</time>
      </trkpt>
      <trkpt lat="46.73975" lon="-1.50375">
        <ele>59.6</ele>
        <time>2024-04-25T19:12:57Z</time>
      </trkpt>
      <trkpt lat="46.73973" lon="-1.50384">
        <ele>59</ele>
        <time>2024-04-25T19:12:58Z</time>
      </trkpt>
      <trkpt lat="46.7397" lon="-1.50393">
        <ele>58.4</ele>
        <time>2024-04-25T19:12:59Z</time>
      </trkpt>
      <trkpt lat="46.73967" lon="-1.50403">
        <ele>57.8</ele>
        <time>2024-04-25T19:13:00Z</time>
      </trkpt>
      <trkpt lat="46.73964" lon="-1.50412">
        <ele>57.4</ele>
        <time>2024-04-25T19:13:01Z</time>
      </trkpt>
      <trkpt lat="46.73961" lon="-1.50422">
        <ele>57</ele>
        <time>2024-04-25T19:13:02Z</time>
      </trkpt>
      <trkpt lat="46.73958" lon="-1.50432">
        <ele>56.8</ele>
        <time>2024-04-25T19:13:03Z</time>
      </trkpt>
      <trkpt lat="46.73957" lon="-1.50442">
        <ele>56.8</ele>
        <time>2024-04-25T19:13:04Z</time>
      </trkpt>
      <trkpt lat="46.73955" lon="-1.50453">
        <ele>56.8</ele>
        <time>2024-04-25T19:13:05Z</time>
      </trkpt>
      <trkpt lat="46.73955" lon="-1.50464">
        <ele>56.8</ele>
        <time>2024-04-25T19:13:06Z</time>
      </trkpt>
      <trkpt lat="46.73954" lon="-1.50474">
        <ele>57</ele>
        <time>2024-04-25T19:13:07Z</time>
      </trkpt>
      <trkpt lat="46.73954" lon="-1.50484">
        <ele>57.2</ele>
        <time>2024-04-25T19:13:08Z</time>
      </trkpt>
      <trkpt lat="46.73954" lon="-1.50494">
        <ele>57.6</ele>
        <time>2024-04-25T19:13:09Z</time>
      </trkpt>
      <trkpt lat="46.73953" lon="-1.50503">
        <ele>57.8</ele>
        <time>2024-04-25T19:13:10Z</time>
      </trkpt>
      <trkpt lat="46.73952" lon="-1.50512">
        <ele>58.2</ele>
        <time>2024-04-25T19:13:11Z</time>
      </trkpt>
      <trkpt lat="46.73951" lon="-1.5052">
        <ele>58.8</ele>
        <time>2024-04-25T19:13:12Z</time>
      </trkpt>
      <trkpt lat="46.7395" lon="-1.50528">
        <ele>59.2</ele>
        <time>2024-04-25T19:13:13Z</time>
      </trkpt>
      <trkpt lat="46.73949" lon="-1.50536">
        <ele>59.4</ele>
        <time>2024-04-25T19:13:14Z</time>
      </trkpt>
      <trkpt lat="46.73948" lon="-1.50547">
        <ele>59.8</ele>
        <time>2024-04-25T19:13:15Z</time>
      </trkpt>
      <trkpt lat="46.73947" lon="-1.50551">
        <ele>60.2</ele>
        <time>2024-04-25T19:13:16Z</time>
      </trkpt>
      <trkpt lat="46.73947" lon="-1.50557">
        <ele>60.4</ele>
        <time>2024-04-25T19:13:17Z</time>
      </trkpt>
      <trkpt lat="46.73946" lon="-1.50564">
        <ele>60.6</ele>
        <time>2024-04-25T19:13:18Z</time>
      </trkpt>
      <trkpt lat="46.73945" lon="-1.5057">
        <ele>61</ele>
        <time>2024-04-25T19:13:19Z</time>
      </trkpt>
      <trkpt lat="46.73945" lon="-1.50576">
        <ele>61</ele>
        <time>2024-04-25T19:13:20Z</time>
      </trkpt>
      <trkpt lat="46.73944" lon="-1.50582">
        <ele>61.2</ele>
        <time>2024-04-25T19:13:21Z</time>
      </trkpt>
      <trkpt lat="46.73943" lon="-1.5059">
        <ele>61.4</ele>
        <time>2024-04-25T19:13:22Z</time>
      </trkpt>
      <trkpt lat="46.73943" lon="-1.50592">
        <ele>61.6</ele>
        <time>2024-04-25T19:13:23Z</time>
      </trkpt>
      <trkpt lat="46.73943" lon="-1.50597">
        <ele>61.6</ele>
        <time>2024-04-25T19:13:24Z</time>
      </trkpt>
      <trkpt lat="46.73943" lon="-1.50602">
        <ele>61.8</ele>
        <time>2024-04-25T19:13:25Z</time>
      </trkpt>
      <trkpt lat="46.73942" lon="-1.50606">
        <ele>61.8</ele>
        <time>2024-04-25T19:13:26Z</time>
      </trkpt>
      <trkpt lat="46.73942" lon="-1.50611">
        <ele>61.8</ele>
        <time>2024-04-25T19:13:27Z</time>
      </trkpt>
      <trkpt lat="46.73941" lon="-1.50615">
        <ele>62</ele>
        <time>2024-04-25T19:13:28Z</time>
      </trkpt>
      <trkpt lat="46.73941" lon="-1.50619">
        <ele>62</ele>
        <time>2024-04-25T19:13:29Z</time>
      </trkpt>
      <trkpt lat="46.7394" lon="-1.50625">
        <ele>62</ele>
        <time>2024-04-25T19:13:30Z</time>
      </trkpt>
      <trkpt lat="46.7394" lon="-1.5063">
        <ele>62</ele>
        <time>2024-04-25T19:13:31Z</time>
      </trkpt>
      <trkpt lat="46.7394" lon="-1.50636">
        <ele>61.8</ele>
        <time>2024-04-25T19:13:32Z</time>
      </trkpt>
      <trkpt lat="46.7394" lon="-1.50643">
        <ele>61.8</ele>
        <time>2024-04-25T19:13:33Z</time>
      </trkpt>
      <trkpt lat="46.7394" lon="-1.50653">
        <ele>61.8</ele>
        <time>2024-04-25T19:13:34Z</time>
      </trkpt>
      <trkpt lat="46.7394" lon="-1.50656">
        <ele>61.6</ele>
        <time>2024-04-25T19:13:35Z</time>
      </trkpt>
      <trkpt lat="46.7394" lon="-1.50663">
        <ele>61.6</ele>
        <time>2024-04-25T19:13:36Z</time>
      </trkpt>
      <trkpt lat="46.7394" lon="-1.50669">
        <ele>61.4</ele>
        <time>2024-04-25T19:13:37Z</time>
      </trkpt>
      <trkpt lat="46.7394" lon="-1.50676">
        <ele>61.2</ele>
        <time>2024-04-25T19:13:38Z</time>
      </trkpt>
      <trkpt lat="46.7394" lon="-1.50684">
        <ele>61</ele>
        <time>2024-04-25T19:13:39Z</time>
      </trkpt>
      <trkpt lat="46.7394" lon="-1.50691">
        <ele>60.8</ele>
        <time>2024-04-25T19:13:40Z</time>
      </trkpt>
      <trkpt lat="46.73941" lon="-1.50699">
        <ele>60.4</ele>
        <time>2024-04-25T19:13:41Z</time>
      </trkpt>
      <trkpt lat="46.73941" lon="-1.50708">
        <ele>60.2</ele>
        <time>2024-04-25T19:13:42Z</time>
      </trkpt>
      <trkpt lat="46.73941" lon="-1.50717">
        <ele>59.8</ele>
        <time>2024-04-25T19:13:43Z</time>
      </trkpt>
      <trkpt lat="46.73941" lon="-1.50725">
        <ele>59.4</ele>
        <time>2024-04-25T19:13:44Z</time>
      </trkpt>
      <trkpt lat="46.73941" lon="-1.50735">
        <ele>59</ele>
        <time>2024-04-25T19:13:45Z</time>
      </trkpt>
      <trkpt lat="46.73941" lon="-1.50744">
        <ele>58.6</ele>
        <time>2024-04-25T19:13:46Z</time>
      </trkpt>
      <trkpt lat="46.73942" lon="-1.50754">
        <ele>58.2</ele>
        <time>2024-04-25T19:13:47Z</time>
      </trkpt>
      <trkpt lat="46.73942" lon="-1.50763">
        <ele>57.8</ele>
        <time>2024-04-25T19:13:49Z</time>
      </trkpt>
      <trkpt lat="46.73943" lon="-1.50774">
        <ele>57.4</ele>
        <time>2024-04-25T19:13:50Z</time>
      </trkpt>
      <trkpt lat="46.73943" lon="-1.50784">
        <ele>57</ele>
        <time>2024-04-25T19:13:51Z</time>
      </trkpt>
      <trkpt lat="46.73943" lon="-1.50794">
        <ele>56.6</ele>
        <time>2024-04-25T19:13:52Z</time>
      </trkpt>
      <trkpt lat="46.73942" lon="-1.50805">
        <ele>56.2</ele>
        <time>2024-04-25T19:13:53Z</time>
      </trkpt>
      <trkpt lat="46.73939" lon="-1.50815">
        <ele>55.8</ele>
        <time>2024-04-25T19:13:54Z</time>
      </trkpt>
      <trkpt lat="46.73936" lon="-1.50824">
        <ele>55.6</ele>
        <time>2024-04-25T19:13:55Z</time>
      </trkpt>
      <trkpt lat="46.73931" lon="-1.50832">
        <ele>55.2</ele>
        <time>2024-04-25T19:13:56Z</time>
      </trkpt>
      <trkpt lat="46.73926" lon="-1.50839">
        <ele>55</ele>
        <time>2024-04-25T19:13:57Z</time>
      </trkpt>
      <trkpt lat="46.73921" lon="-1.50846">
        <ele>55</ele>
        <time>2024-04-25T19:13:58Z</time>
      </trkpt>
      <trkpt lat="46.73916" lon="-1.50853">
        <ele>55.2</ele>
        <time>2024-04-25T19:13:59Z</time>
      </trkpt>
      <trkpt lat="46.73912" lon="-1.5086">
        <ele>55.4</ele>
        <time>2024-04-25T19:14:00Z</time>
      </trkpt>
      <trkpt lat="46.73909" lon="-1.50868">
        <ele>55.6</ele>
        <time>2024-04-25T19:14:01Z</time>
      </trkpt>
      <trkpt lat="46.73907" lon="-1.50876">
        <ele>55.8</ele>
        <time>2024-04-25T19:14:02Z</time>
      </trkpt>
      <trkpt lat="46.73905" lon="-1.50884">
        <ele>56.2</ele>
        <time>2024-04-25T19:14:03Z</time>
      </trkpt>
      <trkpt lat="46.73904" lon="-1.50893">
        <ele>56.4</ele>
        <time>2024-04-25T19:14:04Z</time>
      </trkpt>
      <trkpt lat="46.73903" lon="-1.50901">
        <ele>56.8</ele>
        <time>2024-04-25T19:14:05Z</time>
      </trkpt>
      <trkpt lat="46.73902" lon="-1.50909">
        <ele>57</ele>
        <time>2024-04-25T19:14:06Z</time>
      </trkpt>
      <trkpt lat="46.73901" lon="-1.50916">
        <ele>57.4</ele>
        <time>2024-04-25T19:14:07Z</time>
      </trkpt>
      <trkpt lat="46.73901" lon="-1.50924">
        <ele>57.6</ele>
        <time>2024-04-25T19:14:08Z</time>
      </trkpt>
      <trkpt lat="46.739" lon="-1.50931">
        <ele>58</ele>
        <time>2024-04-25T19:14:09Z</time>
      </trkpt>
      <trkpt lat="46.739" lon="-1.50939">
        <ele>58.2</ele>
        <time>2024-04-25T19:14:10Z</time>
      </trkpt>
      <trkpt lat="46.73899" lon="-1.50946">
        <ele>58.4</ele>
        <time>2024-04-25T19:14:11Z</time>
      </trkpt>
      <trkpt lat="46.73899" lon="-1.50953">
        <ele>58.8</ele>
        <time>2024-04-25T19:14:12Z</time>
      </trkpt>
      <trkpt lat="46.73898" lon="-1.5096">
        <ele>59</ele>
        <time>2024-04-25T19:14:13Z</time>
      </trkpt>
      <trkpt lat="46.73898" lon="-1.50967">
        <ele>59.2</ele>
        <time>2024-04-25T19:14:14Z</time>
      </trkpt>
      <trkpt lat="46.73897" lon="-1.50974">
        <ele>59.4</ele>
        <time>2024-04-25T19:14:15Z</time>
      </trkpt>
      <trkpt lat="46.73897" lon="-1.50981">
        <ele>59.8</ele>
        <time>2024-04-25T19:14:16Z</time>
      </trkpt>
      <trkpt lat="46.73897" lon="-1.50988">
        <ele>60</ele>
        <time>2024-04-25T19:14:17Z</time>
      </trkpt>
      <trkpt lat="46.73896" lon="-1.50995">
        <ele>60.2</ele>
        <time>2024-04-25T19:14:18Z</time>
      </trkpt>
      <trkpt lat="46.73896" lon="-1.51002">
        <ele>60.6</ele>
        <time>2024-04-25T19:14:19Z</time>
      </trkpt>
      <trkpt lat="46.73896" lon="-1.51009">
        <ele>60.8</ele>
        <time>2024-04-25T19:14:20Z</time>
      </trkpt>
      <trkpt lat="46.73895" lon="-1.51016">
        <ele>61.2</ele>
        <time>2024-04-25T19:14:21Z</time>
      </trkpt>
      <trkpt lat="46.73895" lon="-1.51022">
        <ele>61.4</ele>
        <time>2024-04-25T19:14:22Z</time>
      </trkpt>
      <trkpt lat="46.73895" lon="-1.51029">
        <ele>61.6</ele>
        <time>2024-04-25T19:14:23Z</time>
      </trkpt>
      <trkpt lat="46.73895" lon="-1.51035">
        <ele>62</ele>
        <time>2024-04-25T19:14:24Z</time>
      </trkpt>
      <trkpt lat="46.73895" lon="-1.51041">
        <ele>62.2</ele>
        <time>2024-04-25T19:14:25Z</time>
      </trkpt>
      <trkpt lat="46.73895" lon="-1.51048">
        <ele>62.6</ele>
        <time>2024-04-25T19:14:26Z</time>
      </trkpt>
      <trkpt lat="46.73895" lon="-1.51054">
        <ele>62.8</ele>
        <time>2024-04-25T19:14:27Z</time>
      </trkpt>
      <trkpt lat="46.73895" lon="-1.5106">
        <ele>63</ele>
        <time>2024-04-25T19:14:28Z</time>
      </trkpt>
      <trkpt lat="46.73895" lon="-1.51066">
        <ele>63.4</ele>
        <time>2024-04-25T19:14:29Z</time>
      </trkpt>
      <trkpt lat="46.73895" lon="-1.51072">
        <ele>63.6</ele>
        <time>2024-04-25T19:14:30Z</time>
      </trkpt>
      <trkpt lat="46.73895" lon="-1.51078">
        <ele>63.8</ele>
        <time>2024-04-25T19:14:31Z</time>
      </trkpt>
      <trkpt lat="46.73895" lon="-1.51084">
        <ele>64.2</ele>
        <time>2024-04-25T19:14:32Z</time>
      </trkpt>
      <trkpt lat="46.73895" lon="-1.5109">
        <ele>64.4</ele>
        <time>2024-04-25T19:14:33Z</time>
      </trkpt>
      <trkpt lat="46.73895" lon="-1.51096">
        <ele>64.6</ele>
        <time>2024-04-25T19:14:34Z</time>
      </trkpt>
      <trkpt lat="46.73895" lon="-1.51102">
        <ele>64.8</ele>
        <time>2024-04-25T19:14:35Z</time>
      </trkpt>
      <trkpt lat="46.73895" lon="-1.51108">
        <ele>65.2</ele>
        <time>2024-04-25T19:14:36Z</time>
      </trkpt>
      <trkpt lat="46.73895" lon="-1.51114">
        <ele>65.2</ele>
        <time>2024-04-25T19:14:37Z</time>
      </trkpt>
      <trkpt lat="46.73895" lon="-1.5112">
        <ele>65.4</ele>
        <time>2024-04-25T19:14:38Z</time>
      </trkpt>
      <trkpt lat="46.73894" lon="-1.51127">
        <ele>65.6</ele>
        <time>2024-04-25T19:14:39Z</time>
      </trkpt>
      <trkpt lat="46.73894" lon="-1.51133">
        <ele>65.8</ele>
        <time>2024-04-25T19:14:40Z</time>
      </trkpt>
      <trkpt lat="46.73894" lon="-1.51139">
        <ele>66</ele>
        <time>2024-04-25T19:14:41Z</time>
      </trkpt>
      <trkpt lat="46.73894" lon="-1.51145">
        <ele>66.2</ele>
        <time>2024-04-25T19:14:42Z</time>
      </trkpt>
      <trkpt lat="46.73894" lon="-1.51152">
        <ele>66.4</ele>
        <time>2024-04-25T19:14:43Z</time>
      </trkpt>
      <trkpt lat="46.73894" lon="-1.51158">
        <ele>66.6</ele>
        <time>2024-04-25T19:14:44Z</time>
      </trkpt>
      <trkpt lat="46.73894" lon="-1.51164">
        <ele>66.6</ele>
        <time>2024-04-25T19:14:45Z</time>
      </trkpt>
      <trkpt lat="46.73893" lon="-1.51171">
        <ele>67</ele>
        <time>2024-04-25T19:14:46Z</time>
      </trkpt>
      <trkpt lat="46.73893" lon="-1.5118">
        <ele>67</ele>
        <time>2024-04-25T19:14:47Z</time>
      </trkpt>
      <trkpt lat="46.73893" lon="-1.51188">
        <ele>67</ele>
        <time>2024-04-25T19:14:48Z</time>
      </trkpt>
      <trkpt lat="46.73893" lon="-1.51195">
        <ele>67.2</ele>
        <time>2024-04-25T19:14:49Z</time>
      </trkpt>
      <trkpt lat="46.73893" lon="-1.51201">
        <ele>67.4</ele>
        <time>2024-04-25T19:14:50Z</time>
      </trkpt>
      <trkpt lat="46.73894" lon="-1.51207">
        <ele>67.4</ele>
        <time>2024-04-25T19:14:51Z</time>
      </trkpt>
      <trkpt lat="46.73894" lon="-1.51212">
        <ele>67.6</ele>
        <time>2024-04-25T19:14:52Z</time>
      </trkpt>
      <trkpt lat="46.73895" lon="-1.5122">
        <ele>67.8</ele>
        <time>2024-04-25T19:14:53Z</time>
      </trkpt>
      <trkpt lat="46.73895" lon="-1.51223">
        <ele>68</ele>
        <time>2024-04-25T19:14:54Z</time>
      </trkpt>
      <trkpt lat="46.73895" lon="-1.51231">
        <ele>68.2</ele>
        <time>2024-04-25T19:14:55Z</time>
      </trkpt>
      <trkpt lat="46.73896" lon="-1.51234">
        <ele>68.4</ele>
        <time>2024-04-25T19:14:56Z</time>
      </trkpt>
      <trkpt lat="46.73896" lon="-1.5124">
        <ele>68.6</ele>
        <time>2024-04-25T19:14:57Z</time>
      </trkpt>
      <trkpt lat="46.73896" lon="-1.51246">
        <ele>68.8</ele>
        <time>2024-04-25T19:14:58Z</time>
      </trkpt>
      <trkpt lat="46.73897" lon="-1.51251">
        <ele>69</ele>
        <time>2024-04-25T19:14:59Z</time>
      </trkpt>
      <trkpt lat="46.73897" lon="-1.51257">
        <ele>69.2</ele>
        <time>2024-04-25T19:15:00Z</time>
      </trkpt>
      <trkpt lat="46.73898" lon="-1.51266">
        <ele>69.2</ele>
        <time>2024-04-25T19:15:01Z</time>
      </trkpt>
      <trkpt lat="46.73898" lon="-1.51269">
        <ele>69.4</ele>
        <time>2024-04-25T19:15:02Z</time>
      </trkpt>
      <trkpt lat="46.73898" lon="-1.51275">
        <ele>69.4</ele>
        <time>2024-04-25T19:15:03Z</time>
      </trkpt>
      <trkpt lat="46.73899" lon="-1.5128">
        <ele>69.4</ele>
        <time>2024-04-25T19:15:04Z</time>
      </trkpt>
      <trkpt lat="46.73899" lon="-1.51286">
        <ele>69.6</ele>
        <time>2024-04-25T19:15:05Z</time>
      </trkpt>
      <trkpt lat="46.739" lon="-1.51292">
        <ele>69.6</ele>
        <time>2024-04-25T19:15:06Z</time>
      </trkpt>
      <trkpt lat="46.739" lon="-1.51301">
        <ele>69.6</ele>
        <time>2024-04-25T19:15:07Z</time>
      </trkpt>
      <trkpt lat="46.739" lon="-1.51304">
        <ele>69.8</ele>
        <time>2024-04-25T19:15:08Z</time>
      </trkpt>
      <trkpt lat="46.739" lon="-1.5131">
        <ele>69.8</ele>
        <time>2024-04-25T19:15:09Z</time>
      </trkpt>
      <trkpt lat="46.739" lon="-1.51316">
        <ele>69.8</ele>
        <time>2024-04-25T19:15:10Z</time>
      </trkpt>
      <trkpt lat="46.739" lon="-1.51322">
        <ele>69.8</ele>
        <time>2024-04-25T19:15:11Z</time>
      </trkpt>
      <trkpt lat="46.739" lon="-1.51327">
        <ele>69.8</ele>
        <time>2024-04-25T19:15:13Z</time>
      </trkpt>
      <trkpt lat="46.73899" lon="-1.51333">
        <ele>69.8</ele>
        <time>2024-04-25T19:15:14Z</time>
      </trkpt>
      <trkpt lat="46.73899" lon="-1.51339">
        <ele>69.8</ele>
        <time>2024-04-25T19:15:15Z</time>
      </trkpt>
      <trkpt lat="46.73898" lon="-1.51346">
        <ele>69.8</ele>
        <time>2024-04-25T19:15:16Z</time>
      </trkpt>
      <trkpt lat="46.73898" lon="-1.51352">
        <ele>69.8</ele>
        <time>2024-04-25T19:15:17Z</time>
      </trkpt>
      <trkpt lat="46.73898" lon="-1.51358">
        <ele>69.8</ele>
        <time>2024-04-25T19:15:18Z</time>
      </trkpt>
      <trkpt lat="46.73897" lon="-1.51364">
        <ele>69.8</ele>
        <time>2024-04-25T19:15:19Z</time>
      </trkpt>
      <trkpt lat="46.73897" lon="-1.51369">
        <ele>69.8</ele>
        <time>2024-04-25T19:15:20Z</time>
      </trkpt>
      <trkpt lat="46.73897" lon="-1.51374">
        <ele>69.8</ele>
        <time>2024-04-25T19:15:21Z</time>
      </trkpt>
      <trkpt lat="46.73898" lon="-1.51379">
        <ele>69.8</ele>
        <time>2024-04-25T19:15:22Z</time>
      </trkpt>
      <trkpt lat="46.73898" lon="-1.51383">
        <ele>69.8</ele>
        <time>2024-04-25T19:15:23Z</time>
      </trkpt>
      <trkpt lat="46.73898" lon="-1.51388">
        <ele>69.8</ele>
        <time>2024-04-25T19:15:24Z</time>
      </trkpt>
      <trkpt lat="46.73899" lon="-1.51392">
        <ele>69.6</ele>
        <time>2024-04-25T19:15:25Z</time>
      </trkpt>
      <trkpt lat="46.73899" lon="-1.51396">
        <ele>69.6</ele>
        <time>2024-04-25T19:15:26Z</time>
      </trkpt>
      <trkpt lat="46.73898" lon="-1.514">
        <ele>69.6</ele>
        <time>2024-04-25T19:15:27Z</time>
      </trkpt>
      <trkpt lat="46.73897" lon="-1.51403">
        <ele>69.6</ele>
        <time>2024-04-25T19:15:28Z</time>
      </trkpt>
      <trkpt lat="46.73895" lon="-1.51406">
        <ele>69.6</ele>
        <time>2024-04-25T19:15:29Z</time>
      </trkpt>
      <trkpt lat="46.73892" lon="-1.51407">
        <ele>69.6</ele>
        <time>2024-04-25T19:15:30Z</time>
      </trkpt>
      <trkpt lat="46.73889" lon="-1.51408">
        <ele>69.4</ele>
        <time>2024-04-25T19:15:31Z</time>
      </trkpt>
      <trkpt lat="46.73885" lon="-1.51408">
        <ele>69.4</ele>
        <time>2024-04-25T19:15:32Z</time>
      </trkpt>
      <trkpt lat="46.7388" lon="-1.51409">
        <ele>69.2</ele>
        <time>2024-04-25T19:15:33Z</time>
      </trkpt>
      <trkpt lat="46.73876" lon="-1.5141">
        <ele>69</ele>
        <time>2024-04-25T19:15:34Z</time>
      </trkpt>
      <trkpt lat="46.73871" lon="-1.51411">
        <ele>69</ele>
        <time>2024-04-25T19:15:35Z</time>
      </trkpt>
      <trkpt lat="46.73867" lon="-1.51412">
        <ele>68.8</ele>
        <time>2024-04-25T19:15:36Z</time>
      </trkpt>
      <trkpt lat="46.73862" lon="-1.51412">
        <ele>68.8</ele>
        <time>2024-04-25T19:15:37Z</time>
      </trkpt>
      <trkpt lat="46.73858" lon="-1.51413">
        <ele>68.8</ele>
        <time>2024-04-25T19:15:38Z</time>
      </trkpt>
      <trkpt lat="46.73853" lon="-1.51413">
        <ele>68.6</ele>
        <time>2024-04-25T19:15:39Z</time>
      </trkpt>
      <trkpt lat="46.73849" lon="-1.51414">
        <ele>68.6</ele>
        <time>2024-04-25T19:15:40Z</time>
      </trkpt>
      <trkpt lat="46.73845" lon="-1.51415">
        <ele>68.6</ele>
        <time>2024-04-25T19:15:41Z</time>
      </trkpt>
      <trkpt lat="46.7384" lon="-1.51417">
        <ele>68.4</ele>
        <time>2024-04-25T19:15:42Z</time>
      </trkpt>
      <trkpt lat="46.73836" lon="-1.51418">
        <ele>68.4</ele>
        <time>2024-04-25T19:15:43Z</time>
      </trkpt>
      <trkpt lat="46.73831" lon="-1.51419">
        <ele>68.4</ele>
        <time>2024-04-25T19:15:44Z</time>
      </trkpt>
      <trkpt lat="46.73827" lon="-1.51421">
        <ele>68.2</ele>
        <time>2024-04-25T19:15:45Z</time>
      </trkpt>
      <trkpt lat="46.73822" lon="-1.51422">
        <ele>68.2</ele>
        <time>2024-04-25T19:15:46Z</time>
      </trkpt>
      <trkpt lat="46.73818" lon="-1.51423">
        <ele>68.2</ele>
        <time>2024-04-25T19:15:47Z</time>
      </trkpt>
      <trkpt lat="46.73813" lon="-1.51425">
        <ele>68.2</ele>
        <time>2024-04-25T19:15:48Z</time>
      </trkpt>
      <trkpt lat="46.73809" lon="-1.51426">
        <ele>68</ele>
        <time>2024-04-25T19:15:49Z</time>
      </trkpt>
      <trkpt lat="46.73804" lon="-1.51427">
        <ele>68</ele>
        <time>2024-04-25T19:15:50Z</time>
      </trkpt>
      <trkpt lat="46.73799" lon="-1.51428">
        <ele>68</ele>
        <time>2024-04-25T19:15:51Z</time>
      </trkpt>
      <trkpt lat="46.73794" lon="-1.5143">
        <ele>68</ele>
        <time>2024-04-25T19:15:52Z</time>
      </trkpt>
      <trkpt lat="46.7379" lon="-1.51431">
        <ele>67.8</ele>
        <time>2024-04-25T19:15:53Z</time>
      </trkpt>
      <trkpt lat="46.73785" lon="-1.51432">
        <ele>67.6</ele>
        <time>2024-04-25T19:15:54Z</time>
      </trkpt>
      <trkpt lat="46.7378" lon="-1.51434">
        <ele>67.6</ele>
        <time>2024-04-25T19:15:55Z</time>
      </trkpt>
      <trkpt lat="46.73776" lon="-1.51435">
        <ele>67.4</ele>
        <time>2024-04-25T19:15:56Z</time>
      </trkpt>
      <trkpt lat="46.73771" lon="-1.51436">
        <ele>67.4</ele>
        <time>2024-04-25T19:15:57Z</time>
      </trkpt>
      <trkpt lat="46.73767" lon="-1.51437">
        <ele>67.4</ele>
        <time>2024-04-25T19:15:58Z</time>
      </trkpt>
      <trkpt lat="46.73763" lon="-1.51439">
        <ele>67.2</ele>
        <time>2024-04-25T19:15:59Z</time>
      </trkpt>
      <trkpt lat="46.73758" lon="-1.5144">
        <ele>67.2</ele>
        <time>2024-04-25T19:16:00Z</time>
      </trkpt>
      <trkpt lat="46.73754" lon="-1.51441">
        <ele>67</ele>
        <time>2024-04-25T19:16:01Z</time>
      </trkpt>
      <trkpt lat="46.73749" lon="-1.51443">
        <ele>66.8</ele>
        <time>2024-04-25T19:16:02Z</time>
      </trkpt>
      <trkpt lat="46.73744" lon="-1.51444">
        <ele>66.8</ele>
        <time>2024-04-25T19:16:03Z</time>
      </trkpt>
      <trkpt lat="46.73739" lon="-1.51445">
        <ele>66.6</ele>
        <time>2024-04-25T19:16:04Z</time>
      </trkpt>
      <trkpt lat="46.73734" lon="-1.51447">
        <ele>66.4</ele>
        <time>2024-04-25T19:16:05Z</time>
      </trkpt>
      <trkpt lat="46.73729" lon="-1.51448">
        <ele>66.4</ele>
        <time>2024-04-25T19:16:06Z</time>
      </trkpt>
      <trkpt lat="46.73724" lon="-1.5145">
        <ele>66.2</ele>
        <time>2024-04-25T19:16:07Z</time>
      </trkpt>
      <trkpt lat="46.73719" lon="-1.51451">
        <ele>66.2</ele>
        <time>2024-04-25T19:16:08Z</time>
      </trkpt>
      <trkpt lat="46.73713" lon="-1.51453">
        <ele>66</ele>
        <time>2024-04-25T19:16:09Z</time>
      </trkpt>
      <trkpt lat="46.73708" lon="-1.51455">
        <ele>65.8</ele>
        <time>2024-04-25T19:16:10Z</time>
      </trkpt>
      <trkpt lat="46.737" lon="-1.51457">
        <ele>65.6</ele>
        <time>2024-04-25T19:16:11Z</time>
      </trkpt>
      <trkpt lat="46.73693" lon="-1.51458">
        <ele>65.4</ele>
        <time>2024-04-25T19:16:12Z</time>
      </trkpt>
      <trkpt lat="46.73686" lon="-1.5146">
        <ele>65.2</ele>
        <time>2024-04-25T19:16:13Z</time>
      </trkpt>
      <trkpt lat="46.73681" lon="-1.51462">
        <ele>65</ele>
        <time>2024-04-25T19:16:14Z</time>
      </trkpt>
      <trkpt lat="46.73673" lon="-1.51464">
        <ele>64.8</ele>
        <time>2024-04-25T19:16:15Z</time>
      </trkpt>
      <trkpt lat="46.7367" lon="-1.51465">
        <ele>64.6</ele>
        <time>2024-04-25T19:16:16Z</time>
      </trkpt>
      <trkpt lat="46.73665" lon="-1.51466">
        <ele>64.4</ele>
        <time>2024-04-25T19:16:17Z</time>
      </trkpt>
      <trkpt lat="46.7366" lon="-1.51468">
        <ele>64.2</ele>
        <time>2024-04-25T19:16:18Z</time>
      </trkpt>
      <trkpt lat="46.73655" lon="-1.51469">
        <ele>64</ele>
        <time>2024-04-25T19:16:19Z</time>
      </trkpt>
      <trkpt lat="46.7365" lon="-1.5147">
        <ele>63.8</ele>
        <time>2024-04-25T19:16:20Z</time>
      </trkpt>
      <trkpt lat="46.73644" lon="-1.51472">
        <ele>63.6</ele>
        <time>2024-04-25T19:16:21Z</time>
      </trkpt>
      <trkpt lat="46.73639" lon="-1.51474">
        <ele>63.2</ele>
        <time>2024-04-25T19:16:22Z</time>
      </trkpt>
      <trkpt lat="46.73633" lon="-1.51475">
        <ele>62.8</ele>
        <time>2024-04-25T19:16:23Z</time>
      </trkpt>
      <trkpt lat="46.73628" lon="-1.51477">
        <ele>62.6</ele>
        <time>2024-04-25T19:16:24Z</time>
      </trkpt>
      <trkpt lat="46.73622" lon="-1.51479">
        <ele>62.2</ele>
        <time>2024-04-25T19:16:25Z</time>
      </trkpt>
      <trkpt lat="46.73616" lon="-1.5148">
        <ele>62</ele>
        <time>2024-04-25T19:16:26Z</time>
      </trkpt>
      <trkpt lat="46.73609" lon="-1.51482">
        <ele>61.6</ele>
        <time>2024-04-25T19:16:27Z</time>
      </trkpt>
      <trkpt lat="46.73599" lon="-1.51485">
        <ele>61.4</ele>
        <time>2024-04-25T19:16:28Z</time>
      </trkpt>
      <trkpt lat="46.73596" lon="-1.51485">
        <ele>61.2</ele>
        <time>2024-04-25T19:16:29Z</time>
      </trkpt>
      <trkpt lat="46.73589" lon="-1.51487">
        <ele>61</ele>
        <time>2024-04-25T19:16:30Z</time>
      </trkpt>
      <trkpt lat="46.73583" lon="-1.51489">
        <ele>60.6</ele>
        <time>2024-04-25T19:16:31Z</time>
      </trkpt>
      <trkpt lat="46.73572" lon="-1.51492">
        <ele>60.6</ele>
        <time>2024-04-25T19:16:32Z</time>
      </trkpt>
      <trkpt lat="46.73569" lon="-1.51492">
        <ele>60.2</ele>
        <time>2024-04-25T19:16:33Z</time>
      </trkpt>
      <trkpt lat="46.73562" lon="-1.51494">
        <ele>60</ele>
        <time>2024-04-25T19:16:34Z</time>
      </trkpt>
      <trkpt lat="46.73555" lon="-1.51496">
        <ele>60.2</ele>
        <time>2024-04-25T19:16:35Z</time>
      </trkpt>
      <trkpt lat="46.73548" lon="-1.51499">
        <ele>60</ele>
        <time>2024-04-25T19:16:37Z</time>
      </trkpt>
      <trkpt lat="46.73542" lon="-1.51501">
        <ele>60</ele>
        <time>2024-04-25T19:16:38Z</time>
      </trkpt>
      <trkpt lat="46.73535" lon="-1.51503">
        <ele>60</ele>
        <time>2024-04-25T19:16:39Z</time>
      </trkpt>
      <trkpt lat="46.73529" lon="-1.51505">
        <ele>60</ele>
        <time>2024-04-25T19:16:40Z</time>
      </trkpt>
      <trkpt lat="46.73519" lon="-1.51507">
        <ele>59.8</ele>
        <time>2024-04-25T19:16:41Z</time>
      </trkpt>
      <trkpt lat="46.73516" lon="-1.51508">
        <ele>59.8</ele>
        <time>2024-04-25T19:16:42Z</time>
      </trkpt>
      <trkpt lat="46.7351" lon="-1.5151">
        <ele>60</ele>
        <time>2024-04-25T19:16:43Z</time>
      </trkpt>
      <trkpt lat="46.73504" lon="-1.51511">
        <ele>60</ele>
        <time>2024-04-25T19:16:44Z</time>
      </trkpt>
      <trkpt lat="46.73498" lon="-1.51512">
        <ele>60</ele>
        <time>2024-04-25T19:16:45Z</time>
      </trkpt>
      <trkpt lat="46.73492" lon="-1.51514">
        <ele>60.2</ele>
        <time>2024-04-25T19:16:46Z</time>
      </trkpt>
      <trkpt lat="46.73486" lon="-1.51515">
        <ele>60.2</ele>
        <time>2024-04-25T19:16:47Z</time>
      </trkpt>
      <trkpt lat="46.7348" lon="-1.51517">
        <ele>60.4</ele>
        <time>2024-04-25T19:16:48Z</time>
      </trkpt>
      <trkpt lat="46.73474" lon="-1.51519">
        <ele>60.4</ele>
        <time>2024-04-25T19:16:49Z</time>
      </trkpt>
      <trkpt lat="46.73468" lon="-1.5152">
        <ele>60.6</ele>
        <time>2024-04-25T19:16:50Z</time>
      </trkpt>
      <trkpt lat="46.73463" lon="-1.51522">
        <ele>60.8</ele>
        <time>2024-04-25T19:16:51Z</time>
      </trkpt>
      <trkpt lat="46.73457" lon="-1.51524">
        <ele>60.8</ele>
        <time>2024-04-25T19:16:52Z</time>
      </trkpt>
      <trkpt lat="46.73451" lon="-1.51525">
        <ele>60.8</ele>
        <time>2024-04-25T19:16:53Z</time>
      </trkpt>
      <trkpt lat="46.73445" lon="-1.51527">
        <ele>61</ele>
        <time>2024-04-25T19:16:54Z</time>
      </trkpt>
      <trkpt lat="46.73439" lon="-1.51528">
        <ele>61</ele>
        <time>2024-04-25T19:16:55Z</time>
      </trkpt>
      <trkpt lat="46.73433" lon="-1.5153">
        <ele>61</ele>
        <time>2024-04-25T19:16:56Z</time>
      </trkpt>
      <trkpt lat="46.73426" lon="-1.51532">
        <ele>61.2</ele>
        <time>2024-04-25T19:16:57Z</time>
      </trkpt>
      <trkpt lat="46.7342" lon="-1.51533">
        <ele>61.2</ele>
        <time>2024-04-25T19:16:58Z</time>
      </trkpt>
      <trkpt lat="46.73414" lon="-1.51535">
        <ele>61.2</ele>
        <time>2024-04-25T19:16:59Z</time>
      </trkpt>
      <trkpt lat="46.73408" lon="-1.51537">
        <ele>61.4</ele>
        <time>2024-04-25T19:17:00Z</time>
      </trkpt>
      <trkpt lat="46.73402" lon="-1.51539">
        <ele>61.4</ele>
        <time>2024-04-25T19:17:01Z</time>
      </trkpt>
      <trkpt lat="46.73396" lon="-1.5154">
        <ele>61.6</ele>
        <time>2024-04-25T19:17:02Z</time>
      </trkpt>
      <trkpt lat="46.7339" lon="-1.51542">
        <ele>61.8</ele>
        <time>2024-04-25T19:17:03Z</time>
      </trkpt>
      <trkpt lat="46.73384" lon="-1.51544">
        <ele>61.8</ele>
        <time>2024-04-25T19:17:04Z</time>
      </trkpt>
      <trkpt lat="46.73378" lon="-1.51545">
        <ele>62</ele>
        <time>2024-04-25T19:17:05Z</time>
      </trkpt>
      <trkpt lat="46.73372" lon="-1.51547">
        <ele>62.2</ele>
        <time>2024-04-25T19:17:06Z</time>
      </trkpt>
      <trkpt lat="46.73366" lon="-1.51548">
        <ele>62.4</ele>
        <time>2024-04-25T19:17:07Z</time>
      </trkpt>
      <trkpt lat="46.7336" lon="-1.5155">
        <ele>62.6</ele>
        <time>2024-04-25T19:17:08Z</time>
      </trkpt>
      <trkpt lat="46.73354" lon="-1.51552">
        <ele>62.8</ele>
        <time>2024-04-25T19:17:09Z</time>
      </trkpt>
      <trkpt lat="46.73348" lon="-1.51554">
        <ele>63</ele>
        <time>2024-04-25T19:17:10Z</time>
      </trkpt>
      <trkpt lat="46.73342" lon="-1.51555">
        <ele>63.4</ele>
        <time>2024-04-25T19:17:11Z</time>
      </trkpt>
      <trkpt lat="46.73337" lon="-1.51557">
        <ele>63.6</ele>
        <time>2024-04-25T19:17:12Z</time>
      </trkpt>
      <trkpt lat="46.73332" lon="-1.51559">
        <ele>63.8</ele>
        <time>2024-04-25T19:17:13Z</time>
      </trkpt>
      <trkpt lat="46.73327" lon="-1.5156">
        <ele>64</ele>
        <time>2024-04-25T19:17:14Z</time>
      </trkpt>
      <trkpt lat="46.73322" lon="-1.51562">
        <ele>64.4</ele>
        <time>2024-04-25T19:17:15Z</time>
      </trkpt>
      <trkpt lat="46.73318" lon="-1.51563">
        <ele>64.4</ele>
        <time>2024-04-25T19:17:16Z</time>
      </trkpt>
      <trkpt lat="46.73314" lon="-1.51566">
        <ele>64.6</ele>
        <time>2024-04-25T19:17:17Z</time>
      </trkpt>
      <trkpt lat="46.73311" lon="-1.51569">
        <ele>64.8</ele>
        <time>2024-04-25T19:17:18Z</time>
      </trkpt>
      <trkpt lat="46.73309" lon="-1.51574">
        <ele>65</ele>
        <time>2024-04-25T19:17:19Z</time>
      </trkpt>
      <trkpt lat="46.73308" lon="-1.5158">
        <ele>65</ele>
        <time>2024-04-25T19:17:20Z</time>
      </trkpt>
      <trkpt lat="46.73307" lon="-1.51587">
        <ele>65.2</ele>
        <time>2024-04-25T19:17:21Z</time>
      </trkpt>
      <trkpt lat="46.73308" lon="-1.51594">
        <ele>65.2</ele>
        <time>2024-04-25T19:17:22Z</time>
      </trkpt>
      <trkpt lat="46.73309" lon="-1.51601">
        <ele>65.2</ele>
        <time>2024-04-25T19:17:23Z</time>
      </trkpt>
      <trkpt lat="46.7331" lon="-1.51609">
        <ele>65.2</ele>
        <time>2024-04-25T19:17:24Z</time>
      </trkpt>
      <trkpt lat="46.7331" lon="-1.51616">
        <ele>65.2</ele>
        <time>2024-04-25T19:17:25Z</time>
      </trkpt>
      <trkpt lat="46.73311" lon="-1.51623">
        <ele>65.4</ele>
        <time>2024-04-25T19:17:26Z</time>
      </trkpt>
      <trkpt lat="46.73312" lon="-1.5163">
        <ele>65.6</ele>
        <time>2024-04-25T19:17:27Z</time>
      </trkpt>
      <trkpt lat="46.73312" lon="-1.51637">
        <ele>65.6</ele>
        <time>2024-04-25T19:17:28Z</time>
      </trkpt>
      <trkpt lat="46.73312" lon="-1.51644">
        <ele>65.6</ele>
        <time>2024-04-25T19:17:29Z</time>
      </trkpt>
      <trkpt lat="46.73312" lon="-1.51651">
        <ele>65.6</ele>
        <time>2024-04-25T19:17:30Z</time>
      </trkpt>
      <trkpt lat="46.73312" lon="-1.51658">
        <ele>65.8</ele>
        <time>2024-04-25T19:17:31Z</time>
      </trkpt>
      <trkpt lat="46.73312" lon="-1.51664">
        <ele>66</ele>
        <time>2024-04-25T19:17:32Z</time>
      </trkpt>
      <trkpt lat="46.73312" lon="-1.51671">
        <ele>66.2</ele>
        <time>2024-04-25T19:17:33Z</time>
      </trkpt>
      <trkpt lat="46.73312" lon="-1.51677">
        <ele>66.4</ele>
        <time>2024-04-25T19:17:34Z</time>
      </trkpt>
      <trkpt lat="46.73312" lon="-1.51684">
        <ele>66.4</ele>
        <time>2024-04-25T19:17:35Z</time>
      </trkpt>
      <trkpt lat="46.73312" lon="-1.5169">
        <ele>66.6</ele>
        <time>2024-04-25T19:17:36Z</time>
      </trkpt>
      <trkpt lat="46.73312" lon="-1.51699">
        <ele>66.8</ele>
        <time>2024-04-25T19:17:37Z</time>
      </trkpt>
      <trkpt lat="46.73312" lon="-1.51707">
        <ele>67</ele>
        <time>2024-04-25T19:17:38Z</time>
      </trkpt>
      <trkpt lat="46.73311" lon="-1.51714">
        <ele>67.2</ele>
        <time>2024-04-25T19:17:39Z</time>
      </trkpt>
      <trkpt lat="46.73311" lon="-1.5172">
        <ele>67.4</ele>
        <time>2024-04-25T19:17:40Z</time>
      </trkpt>
      <trkpt lat="46.7331" lon="-1.51726">
        <ele>67.6</ele>
        <time>2024-04-25T19:17:41Z</time>
      </trkpt>
      <trkpt lat="46.7331" lon="-1.51732">
        <ele>67.8</ele>
        <time>2024-04-25T19:17:42Z</time>
      </trkpt>
      <trkpt lat="46.73309" lon="-1.51738">
        <ele>68</ele>
        <time>2024-04-25T19:17:43Z</time>
      </trkpt>
      <trkpt lat="46.73308" lon="-1.51744">
        <ele>68.2</ele>
        <time>2024-04-25T19:17:44Z</time>
      </trkpt>
      <trkpt lat="46.73307" lon="-1.5175">
        <ele>68.4</ele>
        <time>2024-04-25T19:17:45Z</time>
      </trkpt>
      <trkpt lat="46.73306" lon="-1.51755">
        <ele>68.6</ele>
        <time>2024-04-25T19:17:46Z</time>
      </trkpt>
      <trkpt lat="46.73305" lon="-1.51761">
        <ele>68.8</ele>
        <time>2024-04-25T19:17:47Z</time>
      </trkpt>
      <trkpt lat="46.73304" lon="-1.51767">
        <ele>69</ele>
        <time>2024-04-25T19:17:48Z</time>
      </trkpt>
      <trkpt lat="46.73303" lon="-1.51772">
        <ele>69</ele>
        <time>2024-04-25T19:17:49Z</time>
      </trkpt>
      <trkpt lat="46.73302" lon="-1.51778">
        <ele>69</ele>
        <time>2024-04-25T19:17:50Z</time>
      </trkpt>
      <trkpt lat="46.73301" lon="-1.51785">
        <ele>69.2</ele>
        <time>2024-04-25T19:17:51Z</time>
      </trkpt>
      <trkpt lat="46.733" lon="-1.51791">
        <ele>69.2</ele>
        <time>2024-04-25T19:17:52Z</time>
      </trkpt>
      <trkpt lat="46.73299" lon="-1.51801">
        <ele>69</ele>
        <time>2024-04-25T19:17:53Z</time>
      </trkpt>
      <trkpt lat="46.73299" lon="-1.51805">
        <ele>69</ele>
        <time>2024-04-25T19:17:54Z</time>
      </trkpt>
      <trkpt lat="46.73298" lon="-1.51812">
        <ele>69</ele>
        <time>2024-04-25T19:17:55Z</time>
      </trkpt>
      <trkpt lat="46.73298" lon="-1.51819">
        <ele>68.8</ele>
        <time>2024-04-25T19:17:56Z</time>
      </trkpt>
      <trkpt lat="46.73298" lon="-1.51826">
        <ele>68.8</ele>
        <time>2024-04-25T19:17:57Z</time>
      </trkpt>
      <trkpt lat="46.73297" lon="-1.51833">
        <ele>68.8</ele>
        <time>2024-04-25T19:17:58Z</time>
      </trkpt>
      <trkpt lat="46.73297" lon="-1.51841">
        <ele>68.8</ele>
        <time>2024-04-25T19:17:59Z</time>
      </trkpt>
      <trkpt lat="46.73297" lon="-1.51849">
        <ele>68.6</ele>
        <time>2024-04-25T19:18:00Z</time>
      </trkpt>
      <trkpt lat="46.73296" lon="-1.51857">
        <ele>68.6</ele>
        <time>2024-04-25T19:18:02Z</time>
      </trkpt>
      <trkpt lat="46.73296" lon="-1.51865">
        <ele>68.4</ele>
        <time>2024-04-25T19:18:03Z</time>
      </trkpt>
      <trkpt lat="46.73295" lon="-1.51872">
        <ele>68.2</ele>
        <time>2024-04-25T19:18:04Z</time>
      </trkpt>
      <trkpt lat="46.73294" lon="-1.5188">
        <ele>68.2</ele>
        <time>2024-04-25T19:18:05Z</time>
      </trkpt>
      <trkpt lat="46.73293" lon="-1.51888">
        <ele>68</ele>
        <time>2024-04-25T19:18:06Z</time>
      </trkpt>
      <trkpt lat="46.73291" lon="-1.51895">
        <ele>68</ele>
        <time>2024-04-25T19:18:07Z</time>
      </trkpt>
      <trkpt lat="46.7329" lon="-1.51903">
        <ele>67.8</ele>
        <time>2024-04-25T19:18:08Z</time>
      </trkpt>
      <trkpt lat="46.73287" lon="-1.51915">
        <ele>67.6</ele>
        <time>2024-04-25T19:18:09Z</time>
      </trkpt>
      <trkpt lat="46.73286" lon="-1.51918">
        <ele>67.4</ele>
        <time>2024-04-25T19:18:10Z</time>
      </trkpt>
      <trkpt lat="46.73285" lon="-1.51926">
        <ele>67.2</ele>
        <time>2024-04-25T19:18:11Z</time>
      </trkpt>
      <trkpt lat="46.73283" lon="-1.51934">
        <ele>67</ele>
        <time>2024-04-25T19:18:12Z</time>
      </trkpt>
      <trkpt lat="46.73281" lon="-1.51942">
        <ele>66.8</ele>
        <time>2024-04-25T19:18:13Z</time>
      </trkpt>
      <trkpt lat="46.73278" lon="-1.51953">
        <ele>66.6</ele>
        <time>2024-04-25T19:18:14Z</time>
      </trkpt>
      <trkpt lat="46.73277" lon="-1.51957">
        <ele>66.6</ele>
        <time>2024-04-25T19:18:15Z</time>
      </trkpt>
      <trkpt lat="46.73275" lon="-1.51965">
        <ele>66.4</ele>
        <time>2024-04-25T19:18:16Z</time>
      </trkpt>
      <trkpt lat="46.73273" lon="-1.51974">
        <ele>66.2</ele>
        <time>2024-04-25T19:18:17Z</time>
      </trkpt>
      <trkpt lat="46.73272" lon="-1.51982">
        <ele>66</ele>
        <time>2024-04-25T19:18:18Z</time>
      </trkpt>
      <trkpt lat="46.73272" lon="-1.51994">
        <ele>66</ele>
        <time>2024-04-25T19:18:19Z</time>
      </trkpt>
      <trkpt lat="46.73273" lon="-1.51998">
        <ele>66</ele>
        <time>2024-04-25T19:18:20Z</time>
      </trkpt>
      <trkpt lat="46.73274" lon="-1.52006">
        <ele>66</ele>
        <time>2024-04-25T19:18:21Z</time>
      </trkpt>
      <trkpt lat="46.73276" lon="-1.52014">
        <ele>66</ele>
        <time>2024-04-25T19:18:22Z</time>
      </trkpt>
      <trkpt lat="46.73278" lon="-1.52022">
        <ele>66</ele>
        <time>2024-04-25T19:18:23Z</time>
      </trkpt>
      <trkpt lat="46.73279" lon="-1.5203">
        <ele>66.2</ele>
        <time>2024-04-25T19:18:24Z</time>
      </trkpt>
      <trkpt lat="46.73278" lon="-1.52038">
        <ele>66.2</ele>
        <time>2024-04-25T19:18:25Z</time>
      </trkpt>
      <trkpt lat="46.73275" lon="-1.52044">
        <ele>66.2</ele>
        <time>2024-04-25T19:18:26Z</time>
      </trkpt>
      <trkpt lat="46.73271" lon="-1.5205">
        <ele>66</ele>
        <time>2024-04-25T19:18:27Z</time>
      </trkpt>
      <trkpt lat="46.73266" lon="-1.52055">
        <ele>66</ele>
        <time>2024-04-25T19:18:28Z</time>
      </trkpt>
      <trkpt lat="46.7326" lon="-1.52059">
        <ele>66</ele>
        <time>2024-04-25T19:18:29Z</time>
      </trkpt>
      <trkpt lat="46.73255" lon="-1.52063">
        <ele>66.4</ele>
        <time>2024-04-25T19:18:30Z</time>
      </trkpt>
      <trkpt lat="46.73249" lon="-1.52067">
        <ele>66.6</ele>
        <time>2024-04-25T19:18:31Z</time>
      </trkpt>
      <trkpt lat="46.73245" lon="-1.52071">
        <ele>67</ele>
        <time>2024-04-25T19:18:32Z</time>
      </trkpt>
      <trkpt lat="46.7324" lon="-1.52075">
        <ele>67.2</ele>
        <time>2024-04-25T19:18:33Z</time>
      </trkpt>
      <trkpt lat="46.73236" lon="-1.52079">
        <ele>67.4</ele>
        <time>2024-04-25T19:18:34Z</time>
      </trkpt>
      <trkpt lat="46.73231" lon="-1.52083">
        <ele>67.6</ele>
        <time>2024-04-25T19:18:35Z</time>
      </trkpt>
      <trkpt lat="46.73227" lon="-1.52087">
        <ele>67.8</ele>
        <time>2024-04-25T19:18:36Z</time>
      </trkpt>
      <trkpt lat="46.73223" lon="-1.52091">
        <ele>68</ele>
        <time>2024-04-25T19:18:37Z</time>
      </trkpt>
      <trkpt lat="46.73219" lon="-1.52096">
        <ele>68.2</ele>
        <time>2024-04-25T19:18:38Z</time>
      </trkpt>
      <trkpt lat="46.73214" lon="-1.521">
        <ele>68.4</ele>
        <time>2024-04-25T19:18:39Z</time>
      </trkpt>
      <trkpt lat="46.7321" lon="-1.52104">
        <ele>68.6</ele>
        <time>2024-04-25T19:18:40Z</time>
      </trkpt>
      <trkpt lat="46.73206" lon="-1.52108">
        <ele>68.6</ele>
        <time>2024-04-25T19:18:41Z</time>
      </trkpt>
      <trkpt lat="46.73202" lon="-1.52112">
        <ele>69</ele>
        <time>2024-04-25T19:18:42Z</time>
      </trkpt>
      <trkpt lat="46.73197" lon="-1.52116">
        <ele>69</ele>
        <time>2024-04-25T19:18:43Z</time>
      </trkpt>
      <trkpt lat="46.73193" lon="-1.5212">
        <ele>69.2</ele>
        <time>2024-04-25T19:18:44Z</time>
      </trkpt>
      <trkpt lat="46.73189" lon="-1.52125">
        <ele>69.4</ele>
        <time>2024-04-25T19:18:45Z</time>
      </trkpt>
      <trkpt lat="46.73184" lon="-1.52129">
        <ele>69.6</ele>
        <time>2024-04-25T19:18:46Z</time>
      </trkpt>
      <trkpt lat="46.7318" lon="-1.52134">
        <ele>69.6</ele>
        <time>2024-04-25T19:18:47Z</time>
      </trkpt>
      <trkpt lat="46.73175" lon="-1.52138">
        <ele>69.8</ele>
        <time>2024-04-25T19:18:48Z</time>
      </trkpt>
      <trkpt lat="46.7317" lon="-1.52143">
        <ele>69.8</ele>
        <time>2024-04-25T19:18:49Z</time>
      </trkpt>
      <trkpt lat="46.73166" lon="-1.52147">
        <ele>69.8</ele>
        <time>2024-04-25T19:18:50Z</time>
      </trkpt>
      <trkpt lat="46.73161" lon="-1.52152">
        <ele>69.8</ele>
        <time>2024-04-25T19:18:51Z</time>
      </trkpt>
      <trkpt lat="46.73157" lon="-1.52157">
        <ele>69.8</ele>
        <time>2024-04-25T19:18:52Z</time>
      </trkpt>
      <trkpt lat="46.73152" lon="-1.52161">
        <ele>69.8</ele>
        <time>2024-04-25T19:18:53Z</time>
      </trkpt>
      <trkpt lat="46.73148" lon="-1.52166">
        <ele>69.8</ele>
        <time>2024-04-25T19:18:54Z</time>
      </trkpt>
      <trkpt lat="46.73143" lon="-1.52171">
        <ele>69.8</ele>
        <time>2024-04-25T19:18:55Z</time>
      </trkpt>
      <trkpt lat="46.73138" lon="-1.52175">
        <ele>69.8</ele>
        <time>2024-04-25T19:18:56Z</time>
      </trkpt>
      <trkpt lat="46.73133" lon="-1.5218">
        <ele>69.8</ele>
        <time>2024-04-25T19:18:57Z</time>
      </trkpt>
      <trkpt lat="46.73129" lon="-1.52184">
        <ele>69.8</ele>
        <time>2024-04-25T19:18:58Z</time>
      </trkpt>
      <trkpt lat="46.73124" lon="-1.52189">
        <ele>69.8</ele>
        <time>2024-04-25T19:18:59Z</time>
      </trkpt>
      <trkpt lat="46.7312" lon="-1.52193">
        <ele>69.6</ele>
        <time>2024-04-25T19:19:00Z</time>
      </trkpt>
      <trkpt lat="46.73113" lon="-1.522">
        <ele>69.6</ele>
        <time>2024-04-25T19:19:01Z</time>
      </trkpt>
      <trkpt lat="46.73107" lon="-1.52206">
        <ele>69.4</ele>
        <time>2024-04-25T19:19:02Z</time>
      </trkpt>
      <trkpt lat="46.73101" lon="-1.52211">
        <ele>69.2</ele>
        <time>2024-04-25T19:19:03Z</time>
      </trkpt>
      <trkpt lat="46.73096" lon="-1.52216">
        <ele>69.2</ele>
        <time>2024-04-25T19:19:04Z</time>
      </trkpt>
      <trkpt lat="46.73092" lon="-1.52221">
        <ele>69</ele>
        <time>2024-04-25T19:19:05Z</time>
      </trkpt>
      <trkpt lat="46.73087" lon="-1.52225">
        <ele>69</ele>
        <time>2024-04-25T19:19:06Z</time>
      </trkpt>
      <trkpt lat="46.73083" lon="-1.5223">
        <ele>69</ele>
        <time>2024-04-25T19:19:07Z</time>
      </trkpt>
      <trkpt lat="46.73078" lon="-1.52234">
        <ele>69.2</ele>
        <time>2024-04-25T19:19:08Z</time>
      </trkpt>
      <trkpt lat="46.73074" lon="-1.52239">
        <ele>69.2</ele>
        <time>2024-04-25T19:19:09Z</time>
      </trkpt>
      <trkpt lat="46.73069" lon="-1.52243">
        <ele>69.2</ele>
        <time>2024-04-25T19:19:10Z</time>
      </trkpt>
      <trkpt lat="46.73064" lon="-1.52248">
        <ele>69.2</ele>
        <time>2024-04-25T19:19:11Z</time>
      </trkpt>
      <trkpt lat="46.7306" lon="-1.52252">
        <ele>69.4</ele>
        <time>2024-04-25T19:19:12Z</time>
      </trkpt>
      <trkpt lat="46.73055" lon="-1.52257">
        <ele>69.4</ele>
        <time>2024-04-25T19:19:13Z</time>
      </trkpt>
      <trkpt lat="46.7305" lon="-1.52261">
        <ele>69.4</ele>
        <time>2024-04-25T19:19:14Z</time>
      </trkpt>
      <trkpt lat="46.73046" lon="-1.52266">
        <ele>69.4</ele>
        <time>2024-04-25T19:19:15Z</time>
      </trkpt>
      <trkpt lat="46.73041" lon="-1.5227">
        <ele>69.4</ele>
        <time>2024-04-25T19:19:16Z</time>
      </trkpt>
      <trkpt lat="46.73037" lon="-1.52274">
        <ele>69.4</ele>
        <time>2024-04-25T19:19:17Z</time>
      </trkpt>
      <trkpt lat="46.73033" lon="-1.52279">
        <ele>69.6</ele>
        <time>2024-04-25T19:19:18Z</time>
      </trkpt>
      <trkpt lat="46.73028" lon="-1.52283">
        <ele>69.6</ele>
        <time>2024-04-25T19:19:19Z</time>
      </trkpt>
      <trkpt lat="46.73024" lon="-1.52287">
        <ele>69.8</ele>
        <time>2024-04-25T19:19:20Z</time>
      </trkpt>
      <trkpt lat="46.73019" lon="-1.52292">
        <ele>69.8</ele>
        <time>2024-04-25T19:19:21Z</time>
      </trkpt>
      <trkpt lat="46.73015" lon="-1.52297">
        <ele>69.8</ele>
        <time>2024-04-25T19:19:22Z</time>
      </trkpt>
      <trkpt lat="46.7301" lon="-1.52301">
        <ele>69.8</ele>
        <time>2024-04-25T19:19:23Z</time>
      </trkpt>
      <trkpt lat="46.73005" lon="-1.52305">
        <ele>69.6</ele>
        <time>2024-04-25T19:19:24Z</time>
      </trkpt>
      <trkpt lat="46.73001" lon="-1.5231">
        <ele>69.6</ele>
        <time>2024-04-25T19:19:26Z</time>
      </trkpt>
      <trkpt lat="46.72996" lon="-1.52314">
        <ele>69.6</ele>
        <time>2024-04-25T19:19:27Z</time>
      </trkpt>
      <trkpt lat="46.72992" lon="-1.52319">
        <ele>70</ele>
        <time>2024-04-25T19:19:28Z</time>
      </trkpt>
      <trkpt lat="46.72987" lon="-1.52323">
        <ele>70.2</ele>
        <time>2024-04-25T19:19:29Z</time>
      </trkpt>
      <trkpt lat="46.72982" lon="-1.52328">
        <ele>70.2</ele>
        <time>2024-04-25T19:19:30Z</time>
      </trkpt>
      <trkpt lat="46.72978" lon="-1.52332">
        <ele>70.2</ele>
        <time>2024-04-25T19:19:31Z</time>
      </trkpt>
      <trkpt lat="46.72973" lon="-1.52336">
        <ele>70.4</ele>
        <time>2024-04-25T19:19:32Z</time>
      </trkpt>
      <trkpt lat="46.72969" lon="-1.5234">
        <ele>70.4</ele>
        <time>2024-04-25T19:19:33Z</time>
      </trkpt>
      <trkpt lat="46.72965" lon="-1.52345">
        <ele>70.6</ele>
        <time>2024-04-25T19:19:34Z</time>
      </trkpt>
      <trkpt lat="46.72961" lon="-1.52349">
        <ele>70.6</ele>
        <time>2024-04-25T19:19:35Z</time>
      </trkpt>
      <trkpt lat="46.72957" lon="-1.52353">
        <ele>70.6</ele>
        <time>2024-04-25T19:19:36Z</time>
      </trkpt>
      <trkpt lat="46.72953" lon="-1.52358">
        <ele>70.6</ele>
        <time>2024-04-25T19:19:37Z</time>
      </trkpt>
      <trkpt lat="46.72948" lon="-1.52362">
        <ele>70.6</ele>
        <time>2024-04-25T19:19:38Z</time>
      </trkpt>
      <trkpt lat="46.72944" lon="-1.52367">
        <ele>70.6</ele>
        <time>2024-04-25T19:19:39Z</time>
      </trkpt>
      <trkpt lat="46.7294" lon="-1.52373">
        <ele>70.6</ele>
        <time>2024-04-25T19:19:40Z</time>
      </trkpt>
      <trkpt lat="46.72934" lon="-1.52381">
        <ele>70.6</ele>
        <time>2024-04-25T19:19:41Z</time>
      </trkpt>
      <trkpt lat="46.72932" lon="-1.52384">
        <ele>70.8</ele>
        <time>2024-04-25T19:19:42Z</time>
      </trkpt>
      <trkpt lat="46.72928" lon="-1.5239">
        <ele>70.8</ele>
        <time>2024-04-25T19:19:43Z</time>
      </trkpt>
      <trkpt lat="46.72924" lon="-1.52396">
        <ele>70.6</ele>
        <time>2024-04-25T19:19:44Z</time>
      </trkpt>
      <trkpt lat="46.7292" lon="-1.52402">
        <ele>70.6</ele>
        <time>2024-04-25T19:19:45Z</time>
      </trkpt>
      <trkpt lat="46.72916" lon="-1.52408">
        <ele>70.6</ele>
        <time>2024-04-25T19:19:46Z</time>
      </trkpt>
      <trkpt lat="46.72912" lon="-1.52414">
        <ele>70.6</ele>
        <time>2024-04-25T19:19:47Z</time>
      </trkpt>
      <trkpt lat="46.72908" lon="-1.52421">
        <ele>70.6</ele>
        <time>2024-04-25T19:19:48Z</time>
      </trkpt>
      <trkpt lat="46.72904" lon="-1.52427">
        <ele>70.6</ele>
        <time>2024-04-25T19:19:49Z</time>
      </trkpt>
      <trkpt lat="46.72899" lon="-1.52433">
        <ele>70.6</ele>
        <time>2024-04-25T19:19:50Z</time>
      </trkpt>
      <trkpt lat="46.72895" lon="-1.52439">
        <ele>70.6</ele>
        <time>2024-04-25T19:19:51Z</time>
      </trkpt>
      <trkpt lat="46.72889" lon="-1.52449">
        <ele>70.6</ele>
        <time>2024-04-25T19:19:52Z</time>
      </trkpt>
      <trkpt lat="46.72887" lon="-1.52452">
        <ele>70.6</ele>
        <time>2024-04-25T19:19:53Z</time>
      </trkpt>
      <trkpt lat="46.72883" lon="-1.52458">
        <ele>70.6</ele>
        <time>2024-04-25T19:19:54Z</time>
      </trkpt>
      <trkpt lat="46.72878" lon="-1.52464">
        <ele>70.6</ele>
        <time>2024-04-25T19:19:55Z</time>
      </trkpt>
      <trkpt lat="46.72874" lon="-1.5247">
        <ele>70.6</ele>
        <time>2024-04-25T19:19:56Z</time>
      </trkpt>
      <trkpt lat="46.7287" lon="-1.52477">
        <ele>70.6</ele>
        <time>2024-04-25T19:19:57Z</time>
      </trkpt>
      <trkpt lat="46.72866" lon="-1.52483">
        <ele>70.6</ele>
        <time>2024-04-25T19:19:58Z</time>
      </trkpt>
      <trkpt lat="46.72862" lon="-1.52489">
        <ele>70.6</ele>
        <time>2024-04-25T19:19:59Z</time>
      </trkpt>
      <trkpt lat="46.72858" lon="-1.52496">
        <ele>70.6</ele>
        <time>2024-04-25T19:20:00Z</time>
      </trkpt>
      <trkpt lat="46.72854" lon="-1.52502">
        <ele>70.6</ele>
        <time>2024-04-25T19:20:01Z</time>
      </trkpt>
      <trkpt lat="46.7285" lon="-1.52509">
        <ele>70.4</ele>
        <time>2024-04-25T19:20:02Z</time>
      </trkpt>
      <trkpt lat="46.72845" lon="-1.52515">
        <ele>70.4</ele>
        <time>2024-04-25T19:20:03Z</time>
      </trkpt>
      <trkpt lat="46.72841" lon="-1.52521">
        <ele>70.4</ele>
        <time>2024-04-25T19:20:04Z</time>
      </trkpt>
      <trkpt lat="46.72837" lon="-1.52528">
        <ele>70.4</ele>
        <time>2024-04-25T19:20:05Z</time>
      </trkpt>
      <trkpt lat="46.72833" lon="-1.52534">
        <ele>70.4</ele>
        <time>2024-04-25T19:20:06Z</time>
      </trkpt>
      <trkpt lat="46.72828" lon="-1.52541">
        <ele>70.4</ele>
        <time>2024-04-25T19:20:07Z</time>
      </trkpt>
      <trkpt lat="46.72824" lon="-1.52547">
        <ele>70.4</ele>
        <time>2024-04-25T19:20:08Z</time>
      </trkpt>
      <trkpt lat="46.7282" lon="-1.52554">
        <ele>70.4</ele>
        <time>2024-04-25T19:20:09Z</time>
      </trkpt>
      <trkpt lat="46.72815" lon="-1.5256">
        <ele>70.4</ele>
        <time>2024-04-25T19:20:10Z</time>
      </trkpt>
      <trkpt lat="46.72811" lon="-1.52567">
        <ele>70.4</ele>
        <time>2024-04-25T19:20:11Z</time>
      </trkpt>
      <trkpt lat="46.72806" lon="-1.52574">
        <ele>70.4</ele>
        <time>2024-04-25T19:20:12Z</time>
      </trkpt>
      <trkpt lat="46.72802" lon="-1.52581">
        <ele>70.4</ele>
        <time>2024-04-25T19:20:13Z</time>
      </trkpt>
      <trkpt lat="46.72797" lon="-1.52587">
        <ele>70.4</ele>
        <time>2024-04-25T19:20:14Z</time>
      </trkpt>
      <trkpt lat="46.72793" lon="-1.52594">
        <ele>70.4</ele>
        <time>2024-04-25T19:20:15Z</time>
      </trkpt>
      <trkpt lat="46.72788" lon="-1.526">
        <ele>70.4</ele>
        <time>2024-04-25T19:20:16Z</time>
      </trkpt>
      <trkpt lat="46.72784" lon="-1.52607">
        <ele>70.4</ele>
        <time>2024-04-25T19:20:17Z</time>
      </trkpt>
      <trkpt lat="46.7278" lon="-1.52613">
        <ele>70.4</ele>
        <time>2024-04-25T19:20:18Z</time>
      </trkpt>
      <trkpt lat="46.72775" lon="-1.5262">
        <ele>70.6</ele>
        <time>2024-04-25T19:20:19Z</time>
      </trkpt>
      <trkpt lat="46.72771" lon="-1.52627">
        <ele>70.4</ele>
        <time>2024-04-25T19:20:20Z</time>
      </trkpt>
      <trkpt lat="46.72765" lon="-1.52636">
        <ele>70.6</ele>
        <time>2024-04-25T19:20:21Z</time>
      </trkpt>
      <trkpt lat="46.72761" lon="-1.52642">
        <ele>70.6</ele>
        <time>2024-04-25T19:20:22Z</time>
      </trkpt>
      <trkpt lat="46.72755" lon="-1.52651">
        <ele>70.8</ele>
        <time>2024-04-25T19:20:23Z</time>
      </trkpt>
      <trkpt lat="46.7275" lon="-1.52659">
        <ele>70.6</ele>
        <time>2024-04-25T19:20:24Z</time>
      </trkpt>
      <trkpt lat="46.72745" lon="-1.52666">
        <ele>70.6</ele>
        <time>2024-04-25T19:20:25Z</time>
      </trkpt>
      <trkpt lat="46.72741" lon="-1.52672">
        <ele>70.6</ele>
        <time>2024-04-25T19:20:26Z</time>
      </trkpt>
      <trkpt lat="46.72737" lon="-1.52679">
        <ele>70.6</ele>
        <time>2024-04-25T19:20:27Z</time>
      </trkpt>
      <trkpt lat="46.72733" lon="-1.52685">
        <ele>70.6</ele>
        <time>2024-04-25T19:20:28Z</time>
      </trkpt>
      <trkpt lat="46.72729" lon="-1.52691">
        <ele>70.6</ele>
        <time>2024-04-25T19:20:29Z</time>
      </trkpt>
      <trkpt lat="46.72725" lon="-1.52698">
        <ele>70.6</ele>
        <time>2024-04-25T19:20:30Z</time>
      </trkpt>
      <trkpt lat="46.7272" lon="-1.52704">
        <ele>70.8</ele>
        <time>2024-04-25T19:20:31Z</time>
      </trkpt>
      <trkpt lat="46.72716" lon="-1.52711">
        <ele>70.8</ele>
        <time>2024-04-25T19:20:32Z</time>
      </trkpt>
      <trkpt lat="46.72712" lon="-1.52717">
        <ele>70.8</ele>
        <time>2024-04-25T19:20:33Z</time>
      </trkpt>
      <trkpt lat="46.72708" lon="-1.52723">
        <ele>70.8</ele>
        <time>2024-04-25T19:20:34Z</time>
      </trkpt>
      <trkpt lat="46.72705" lon="-1.52728">
        <ele>70.8</ele>
        <time>2024-04-25T19:20:35Z</time>
      </trkpt>
      <trkpt lat="46.72701" lon="-1.52734">
        <ele>70.6</ele>
        <time>2024-04-25T19:20:36Z</time>
      </trkpt>
      <trkpt lat="46.72697" lon="-1.52739">
        <ele>70.6</ele>
        <time>2024-04-25T19:20:37Z</time>
      </trkpt>
      <trkpt lat="46.72693" lon="-1.52745">
        <ele>70.8</ele>
        <time>2024-04-25T19:20:38Z</time>
      </trkpt>
      <trkpt lat="46.7269" lon="-1.5275">
        <ele>70.8</ele>
        <time>2024-04-25T19:20:39Z</time>
      </trkpt>
      <trkpt lat="46.72687" lon="-1.52756">
        <ele>70.8</ele>
        <time>2024-04-25T19:20:40Z</time>
      </trkpt>
      <trkpt lat="46.72684" lon="-1.52761">
        <ele>70.8</ele>
        <time>2024-04-25T19:20:41Z</time>
      </trkpt>
      <trkpt lat="46.72682" lon="-1.52767">
        <ele>70.8</ele>
        <time>2024-04-25T19:20:42Z</time>
      </trkpt>
      <trkpt lat="46.72679" lon="-1.52775">
        <ele>70.8</ele>
        <time>2024-04-25T19:20:43Z</time>
      </trkpt>
      <trkpt lat="46.72679" lon="-1.52778">
        <ele>70.8</ele>
        <time>2024-04-25T19:20:44Z</time>
      </trkpt>
      <trkpt lat="46.72678" lon="-1.52783">
        <ele>71</ele>
        <time>2024-04-25T19:20:45Z</time>
      </trkpt>
      <trkpt lat="46.72678" lon="-1.52783">
        <ele>71</ele>
        <time>2024-04-25T19:20:45Z</time>
      </trkpt>
      <trkpt lat="46.72678" lon="-1.52781">
        <ele>73.6</ele>
      </trkpt>
      <trkpt lat="46.72679" lon="-1.52771">
        <ele>73.4</ele>
      </trkpt>
      <trkpt lat="46.72671" lon="-1.52775">
        <ele>73.7</ele>
      </trkpt>
      <trkpt lat="46.72495" lon="-1.52578">
        <ele>74</ele>
      </trkpt>
      <trkpt lat="46.72545" lon="-1.5329">
        <ele>72</ele>
      </trkpt>
      <trkpt lat="46.72533" lon="-1.53363">
        <ele>71.8</ele>
      </trkpt>
      <trkpt lat="46.72577" lon="-1.54312">
        <ele>65.7</ele>
      </trkpt>
      <trkpt lat="46.72562" lon="-1.54526">
        <ele>68</ele>
      </trkpt>
      <trkpt lat="46.72383" lon="-1.54771">
        <ele>70.8</ele>
      </trkpt>
      <trkpt lat="46.72409" lon="-1.54887">
        <ele>70.7</ele>
      </trkpt>
      <trkpt lat="46.72477" lon="-1.55393">
        <ele>66.7</ele>
      </trkpt>
      <trkpt lat="46.72533" lon="-1.55406">
        <ele>66.6</ele>
      </trkpt>
      <trkpt lat="46.72524" lon="-1.5559">
        <ele>66.9</ele>
      </trkpt>
      <trkpt lat="46.72621" lon="-1.55972">
        <ele>67.4</ele>
      </trkpt>
      <trkpt lat="46.72545" lon="-1.56024">
        <ele>69.5</ele>
      </trkpt>
      <trkpt lat="46.72492" lon="-1.55917">
        <ele>69.7</ele>
      </trkpt>
      <trkpt lat="46.72474" lon="-1.56007">
        <ele>72</ele>
      </trkpt>
      <trkpt lat="46.72333" lon="-1.56075">
        <ele>70.7</ele>
      </trkpt>
      <trkpt lat="46.72395" lon="-1.5635">
        <ele>69.2</ele>
      </trkpt>
      <trkpt lat="46.72333" lon="-1.56401">
        <ele>67</ele>
      </trkpt>
      <trkpt lat="46.72407" lon="-1.56693">
        <ele>70</ele>
      </trkpt>
      <trkpt lat="46.72374" lon="-1.56921">
        <ele>70.4</ele>
      </trkpt>
      <trkpt lat="46.72551" lon="-1.56891">
        <ele>72</ele>
      </trkpt>
      <trkpt lat="46.72562" lon="-1.57019">
        <ele>70.2</ele>
      </trkpt>
      <trkpt lat="46.72592" lon="-1.57019">
        <ele>70.1</ele>
      </trkpt>
      <trkpt lat="46.72639" lon="-1.57217">
        <ele>71</ele>
      </trkpt>
      <trkpt lat="46.72689" lon="-1.57345">
        <ele>70</ele>
      </trkpt>
      <trkpt lat="46.72689" lon="-1.57496">
        <ele>69.8</ele>
      </trkpt>
      <trkpt lat="46.72533" lon="-1.5759">
        <ele>68.9</ele>
      </trkpt>
      <trkpt lat="46.72507" lon="-1.5765">
        <ele>69.9</ele>
      </trkpt>
      <trkpt lat="46.72533" lon="-1.57745">
        <ele>71</ele>
      </trkpt>
      <trkpt lat="46.72562" lon="-1.5792">
        <ele>72</ele>
      </trkpt>
      <trkpt lat="46.72795" lon="-1.58114">
        <ele>68.9</ele>
      </trkpt>
      <trkpt lat="46.72904" lon="-1.58084">
        <ele>69.5</ele>
      </trkpt>
      <trkpt lat="46.73024" lon="-1.582">
        <ele>73.9</ele>
      </trkpt>
      <trkpt lat="46.7291" lon="-1.58466">
        <ele>71.3</ele>
      </trkpt>
      <trkpt lat="46.72892" lon="-1.58637">
        <ele>70</ele>
      </trkpt>
      <trkpt lat="46.73083" lon="-1.5968">
        <ele>70</ele>
      </trkpt>
      <trkpt lat="46.73074" lon="-1.59779">
        <ele>69.3</ele>
      </trkpt>
      <trkpt lat="46.73086" lon="-1.59822">
        <ele>68.9</ele>
      </trkpt>
      <trkpt lat="46.72795" lon="-1.60277">
        <ele>59.6</ele>
      </trkpt>
      <trkpt lat="46.73127" lon="-1.60586">
        <ele>58.9</ele>
      </trkpt>
      <trkpt lat="46.73383" lon="-1.60534">
        <ele>56.6</ele>
      </trkpt>
      <trkpt lat="46.73455" lon="-1.608">
        <ele>54.4</ele>
        <time>2024-04-25T19:56:54Z</time>
      </trkpt>
      <trkpt lat="46.73457" lon="-1.60799">
        <ele>54.4</ele>
        <time>2024-04-25T19:56:55Z</time>
      </trkpt>
      <trkpt lat="46.73458" lon="-1.608">
        <ele>54.6</ele>
        <time>2024-04-25T19:56:56Z</time>
      </trkpt>
      <trkpt lat="46.73458" lon="-1.608">
        <ele>54.6</ele>
        <time>2024-04-25T19:56:57Z</time>
      </trkpt>
      <trkpt lat="46.73459" lon="-1.608">
        <ele>54.8</ele>
        <time>2024-04-25T19:56:58Z</time>
      </trkpt>
      <trkpt lat="46.73459" lon="-1.60801">
        <ele>54.8</ele>
        <time>2024-04-25T19:56:59Z</time>
      </trkpt>
      <trkpt lat="46.73459" lon="-1.60801">
        <ele>55</ele>
        <time>2024-04-25T19:57:00Z</time>
      </trkpt>
      <trkpt lat="46.73459" lon="-1.60801">
        <ele>55</ele>
        <time>2024-04-25T19:57:01Z</time>
      </trkpt>
      <trkpt lat="46.7346" lon="-1.608">
        <ele>56.6</ele>
        <time>2024-04-25T17:01:47Z</time>
      </trkpt>
    </trkseg>
  </trk>
</gpx>